<?xml version='1.0' encoding='UTF-8'?><gpx version="1.1" creator="JPX - https://github.com/jenetics/jpx" xmlns="http://www.topografix.com/GPX/1/1"><trk><trkseg><trkpt lat="43.0300836" lon="13.2964395"><ele>493.0</ele><time>2026-04-18T06:54:31.049Z</time></trkpt><trkpt lat="43.0299895" lon="13.2964719"><ele>493.0</ele><time>2026-04-18T06:54:36.071Z</time></trkpt><trkpt lat="43.0298012" lon="13.2964106"><ele>493.0</ele><time>2026-04-18T06:54:37.099Z</time></trkpt><trkpt lat="43.0296434" lon="13.2963031"><ele>492.6666666666667</ele><time>2026-04-18T06:54:38.08Z</time></trkpt><trkpt lat="43.0294969" lon="13.2961813"><ele>492.33333333333337</ele><time>2026-04-18T06:54:39.089Z</time></trkpt><trkpt lat="43.0293655" lon="13.2960492"><ele>492.0</ele><time>2026-04-18T06:54:40.093Z</time></trkpt><trkpt lat="43.0292598" lon="13.2959172"><ele>492.0</ele><time>2026-04-18T06:54:41.097Z</time></trkpt><trkpt lat="43.0291726" lon="13.2957962"><ele>492.0</ele><time>2026-04-18T06:54:42.083Z</time></trkpt><trkpt lat="43.0290934" lon="13.2956897"><ele>492.0</ele><time>2026-04-18T06:54:43.069Z</time></trkpt><trkpt lat="43.0290165" lon="13.2955918"><ele>492.0</ele><time>2026-04-18T06:54:44.081Z</time></trkpt><trkpt lat="43.0289374" lon="13.2954857"><ele>490.25</ele><time>2026-04-18T06:54:45.069Z</time></trkpt><trkpt lat="43.0288575" lon="13.2953759"><ele>488.5</ele><time>2026-04-18T06:54:46.07Z</time></trkpt><trkpt lat="43.0287683" lon="13.2952621"><ele>486.75</ele><time>2026-04-18T06:54:47.079Z</time></trkpt><trkpt lat="43.0286785" lon="13.295146"><ele>485.0</ele><time>2026-04-18T06:54:48.068Z</time></trkpt><trkpt lat="43.0285906" lon="13.2950253"><ele>485.0</ele><time>2026-04-18T06:54:49.081Z</time></trkpt><trkpt lat="43.028511" lon="13.2949138"><ele>485.0</ele><time>2026-04-18T06:54:50.069Z</time></trkpt><trkpt lat="43.0284391" lon="13.2948194"><ele>485.0</ele><time>2026-04-18T06:54:51.073Z</time></trkpt><trkpt lat="43.0283657" lon="13.2947343"><ele>485.0</ele><time>2026-04-18T06:54:52.148Z</time></trkpt><trkpt lat="43.0282911" lon="13.2946378"><ele>485.0</ele><time>2026-04-18T06:54:53.077Z</time></trkpt><trkpt lat="43.0282154" lon="13.2945436"><ele>485.2</ele><time>2026-04-18T06:54:54.078Z</time></trkpt><trkpt lat="43.0281374" lon="13.2944548"><ele>485.4</ele><time>2026-04-18T06:54:55.082Z</time></trkpt><trkpt lat="43.0280571" lon="13.2943718"><ele>485.6</ele><time>2026-04-18T06:54:56.087Z</time></trkpt><trkpt lat="43.0279753" lon="13.2942967"><ele>485.8</ele><time>2026-04-18T06:54:57.092Z</time></trkpt><trkpt lat="43.0278918" lon="13.2942181"><ele>486.0</ele><time>2026-04-18T06:54:58.059Z</time></trkpt><trkpt lat="43.0278009" lon="13.2941427"><ele>486.0</ele><time>2026-04-18T06:54:59.085Z</time></trkpt><trkpt lat="43.0277079" lon="13.294047"><ele>486.0</ele><time>2026-04-18T06:55:00.064Z</time></trkpt><trkpt lat="43.0276275" lon="13.2939488"><ele>486.0</ele><time>2026-04-18T06:55:01.043Z</time></trkpt><trkpt lat="43.0275537" lon="13.2938318"><ele>486.0</ele><time>2026-04-18T06:55:02.096Z</time></trkpt><trkpt lat="43.0274728" lon="13.2937176"><ele>484.4</ele><time>2026-04-18T06:55:03.093Z</time></trkpt><trkpt lat="43.027398" lon="13.2936063"><ele>482.8</ele><time>2026-04-18T06:55:04.092Z</time></trkpt><trkpt lat="43.0273272" lon="13.2934932"><ele>481.19999999999993</ele><time>2026-04-18T06:55:05.097Z</time></trkpt><trkpt lat="43.0272566" lon="13.2933804"><ele>479.59999999999997</ele><time>2026-04-18T06:55:06.062Z</time></trkpt><trkpt lat="43.0271876" lon="13.2932672"><ele>478.0</ele><time>2026-04-18T06:55:07.086Z</time></trkpt><trkpt lat="43.027123" lon="13.2931537"><ele>478.79999999999995</ele><time>2026-04-18T06:55:08.092Z</time></trkpt><trkpt lat="43.0270659" lon="13.2930449"><ele>479.59999999999997</ele><time>2026-04-18T06:55:09.064Z</time></trkpt><trkpt lat="43.0270088" lon="13.2929337"><ele>480.40000000000003</ele><time>2026-04-18T06:55:10.092Z</time></trkpt><trkpt lat="43.026951" lon="13.2928273"><ele>481.20000000000005</ele><time>2026-04-18T06:55:11.05Z</time></trkpt><trkpt lat="43.0268929" lon="13.2927154"><ele>482.0</ele><time>2026-04-18T06:55:12.056Z</time></trkpt><trkpt lat="43.026823" lon="13.2926214"><ele>482.0</ele><time>2026-04-18T06:55:13.086Z</time></trkpt><trkpt lat="43.026746" lon="13.2925303"><ele>482.0</ele><time>2026-04-18T06:55:14.09Z</time></trkpt><trkpt lat="43.0266625" lon="13.292414"><ele>482.0</ele><time>2026-04-18T06:55:15.09Z</time></trkpt><trkpt lat="43.0265796" lon="13.2922746"><ele>482.0</ele><time>2026-04-18T06:55:16.085Z</time></trkpt><trkpt lat="43.0265012" lon="13.2921458"><ele>481.40000000000003</ele><time>2026-04-18T06:55:17.114Z</time></trkpt><trkpt lat="43.0264267" lon="13.2920331"><ele>480.80000000000007</ele><time>2026-04-18T06:55:18.087Z</time></trkpt><trkpt lat="43.0263578" lon="13.2919303"><ele>480.2</ele><time>2026-04-18T06:55:19.047Z</time></trkpt><trkpt lat="43.0262781" lon="13.2918535"><ele>479.6</ele><time>2026-04-18T06:55:20.043Z</time></trkpt><trkpt lat="43.0261753" lon="13.2917859"><ele>479.0</ele><time>2026-04-18T06:55:21.044Z</time></trkpt><trkpt lat="43.0260796" lon="13.2917312"><ele>479.0</ele><time>2026-04-18T06:55:22.048Z</time></trkpt><trkpt lat="43.0259871" lon="13.2916623"><ele>479.0</ele><time>2026-04-18T06:55:23.044Z</time></trkpt><trkpt lat="43.0259019" lon="13.291563"><ele>479.0</ele><time>2026-04-18T06:55:24.067Z</time></trkpt><trkpt lat="43.0258264" lon="13.2914626"><ele>479.0</ele><time>2026-04-18T06:55:25.066Z</time></trkpt><trkpt lat="43.0257454" lon="13.2913751"><ele>479.0</ele><time>2026-04-18T06:55:26.073Z</time></trkpt><trkpt lat="43.0256686" lon="13.2913045"><ele>480.49999999999994</ele><time>2026-04-18T06:55:27.065Z</time></trkpt><trkpt lat="43.0255987" lon="13.2912431"><ele>482.0</ele><time>2026-04-18T06:55:28.082Z</time></trkpt><trkpt lat="43.0255317" lon="13.2911925"><ele>483.5</ele><time>2026-04-18T06:55:29.064Z</time></trkpt><trkpt lat="43.0254557" lon="13.2911591"><ele>485.0</ele><time>2026-04-18T06:55:30.063Z</time></trkpt><trkpt lat="43.025364" lon="13.2911297"><ele>486.49999999999994</ele><time>2026-04-18T06:55:31.072Z</time></trkpt><trkpt lat="43.025265" lon="13.2911088"><ele>488.0</ele><time>2026-04-18T06:55:32.077Z</time></trkpt><trkpt lat="43.0251564" lon="13.291072"><ele>488.0</ele><time>2026-04-18T06:55:33.065Z</time></trkpt><trkpt lat="43.0250506" lon="13.2910134"><ele>488.0</ele><time>2026-04-18T06:55:34.079Z</time></trkpt><trkpt lat="43.024949" lon="13.2909381"><ele>488.0</ele><time>2026-04-18T06:55:35.075Z</time></trkpt><trkpt lat="43.0248479" lon="13.2908369"><ele>488.0</ele><time>2026-04-18T06:55:36.074Z</time></trkpt><trkpt lat="43.0247427" lon="13.2907302"><ele>490.25</ele><time>2026-04-18T06:55:37.061Z</time></trkpt><trkpt lat="43.0246422" lon="13.2905896"><ele>492.5</ele><time>2026-04-18T06:55:38.052Z</time></trkpt><trkpt lat="43.0245319" lon="13.2904799"><ele>494.75</ele><time>2026-04-18T06:55:39.079Z</time></trkpt><trkpt lat="43.0243996" lon="13.2903834"><ele>497.0</ele><time>2026-04-18T06:55:40.051Z</time></trkpt><trkpt lat="43.0242547" lon="13.2903042"><ele>500.0</ele><time>2026-04-18T06:55:41.082Z</time></trkpt><trkpt lat="43.0241183" lon="13.2902228"><ele>503.0</ele><time>2026-04-18T06:55:42.09Z</time></trkpt><trkpt lat="43.0240113" lon="13.2901475"><ele>506.0</ele><time>2026-04-18T06:55:43.081Z</time></trkpt><trkpt lat="43.0239128" lon="13.2900791"><ele>509.0</ele><time>2026-04-18T06:55:44.041Z</time></trkpt><trkpt lat="43.0238174" lon="13.2900256"><ele>509.0</ele><time>2026-04-18T06:55:45.042Z</time></trkpt><trkpt lat="43.0237224" lon="13.2899686"><ele>509.0</ele><time>2026-04-18T06:55:46.066Z</time></trkpt><trkpt lat="43.0236202" lon="13.2899726"><ele>509.0</ele><time>2026-04-18T06:55:47.074Z</time></trkpt><trkpt lat="43.0235131" lon="13.2900164"><ele>509.0</ele><time>2026-04-18T06:55:48.092Z</time></trkpt><trkpt lat="43.023416" lon="13.29006"><ele>509.0</ele><time>2026-04-18T06:55:49.05Z</time></trkpt><trkpt lat="43.023311" lon="13.2901046"><ele>509.25</ele><time>2026-04-18T06:55:50.037Z</time></trkpt><trkpt lat="43.0232153" lon="13.290145"><ele>509.5</ele><time>2026-04-18T06:55:51.099Z</time></trkpt><trkpt lat="43.0231207" lon="13.290212"><ele>509.75</ele><time>2026-04-18T06:55:52.053Z</time></trkpt><trkpt lat="43.0230135" lon="13.2903102"><ele>510.0</ele><time>2026-04-18T06:55:53.079Z</time></trkpt><trkpt lat="43.0229104" lon="13.2904042"><ele>510.0</ele><time>2026-04-18T06:55:54.037Z</time></trkpt><trkpt lat="43.0228237" lon="13.2905148"><ele>510.0</ele><time>2026-04-18T06:55:55.048Z</time></trkpt><trkpt lat="43.0227472" lon="13.2906303"><ele>510.0</ele><time>2026-04-18T06:55:56.059Z</time></trkpt><trkpt lat="43.02268" lon="13.2907424"><ele>510.0</ele><time>2026-04-18T06:55:57.069Z</time></trkpt><trkpt lat="43.0226173" lon="13.2908575"><ele>510.0</ele><time>2026-04-18T06:55:58.06Z</time></trkpt><trkpt lat="43.0225456" lon="13.2909784"><ele>514.25</ele><time>2026-04-18T06:55:59.058Z</time></trkpt><trkpt lat="43.0224262" lon="13.2910783"><ele>518.5</ele><time>2026-04-18T06:56:00.076Z</time></trkpt><trkpt lat="43.0222977" lon="13.2911931"><ele>522.75</ele><time>2026-04-18T06:56:01.067Z</time></trkpt><trkpt lat="43.0221924" lon="13.2913055"><ele>527.0</ele><time>2026-04-18T06:56:02.087Z</time></trkpt><trkpt lat="43.022095" lon="13.2914056"><ele>531.75</ele><time>2026-04-18T06:56:03.067Z</time></trkpt><trkpt lat="43.021977" lon="13.2914536"><ele>536.5</ele><time>2026-04-18T06:56:04.072Z</time></trkpt><trkpt lat="43.0218516" lon="13.2914982"><ele>541.25</ele><time>2026-04-18T06:56:05.044Z</time></trkpt><trkpt lat="43.0217126" lon="13.2915111"><ele>546.0</ele><time>2026-04-18T06:56:06.066Z</time></trkpt><trkpt lat="43.0215859" lon="13.2915251"><ele>547.5</ele><time>2026-04-18T06:56:07.044Z</time></trkpt><trkpt lat="43.0214669" lon="13.2915673"><ele>549.0</ele><time>2026-04-18T06:56:08.06Z</time></trkpt><trkpt lat="43.0213521" lon="13.2916274"><ele>550.5</ele><time>2026-04-18T06:56:09.069Z</time></trkpt><trkpt lat="43.0212628" lon="13.2917023"><ele>552.0</ele><time>2026-04-18T06:56:10.058Z</time></trkpt><trkpt lat="43.0211907" lon="13.2918021"><ele>552.0</ele><time>2026-04-18T06:56:11.038Z</time></trkpt><trkpt lat="43.0211187" lon="13.2919002"><ele>552.0</ele><time>2026-04-18T06:56:12.042Z</time></trkpt><trkpt lat="43.0210753" lon="13.2920421"><ele>552.0</ele><time>2026-04-18T06:56:13.029Z</time></trkpt><trkpt lat="43.0210222" lon="13.2922236"><ele>552.0</ele><time>2026-04-18T06:56:14.033Z</time></trkpt><trkpt lat="43.0209633" lon="13.2924209"><ele>554.75</ele><time>2026-04-18T06:56:15.074Z</time></trkpt><trkpt lat="43.0208899" lon="13.2925855"><ele>557.5</ele><time>2026-04-18T06:56:16.078Z</time></trkpt><trkpt lat="43.0207913" lon="13.29274"><ele>560.25</ele><time>2026-04-18T06:56:17.077Z</time></trkpt><trkpt lat="43.0206747" lon="13.2928808"><ele>563.0</ele><time>2026-04-18T06:56:18.025Z</time></trkpt><trkpt lat="43.0205523" lon="13.2929965"><ele>566.25</ele><time>2026-04-18T06:56:19.052Z</time></trkpt><trkpt lat="43.0204229" lon="13.2930898"><ele>569.5</ele><time>2026-04-18T06:56:20.064Z</time></trkpt><trkpt lat="43.020288" lon="13.2931598"><ele>572.75</ele><time>2026-04-18T06:56:21.039Z</time></trkpt><trkpt lat="43.0201456" lon="13.2932058"><ele>576.0</ele><time>2026-04-18T06:56:22.058Z</time></trkpt><trkpt lat="43.0199851" lon="13.2932321"><ele>576.6666666666666</ele><time>2026-04-18T06:56:23.079Z</time></trkpt><trkpt lat="43.0198099" lon="13.2932437"><ele>577.3333333333333</ele><time>2026-04-18T06:56:24.074Z</time></trkpt><trkpt lat="43.0196088" lon="13.2932422"><ele>578.0</ele><time>2026-04-18T06:56:25.084Z</time></trkpt><trkpt lat="43.0193993" lon="13.2932413"><ele>578.0</ele><time>2026-04-18T06:56:26.08Z</time></trkpt><trkpt lat="43.0191906" lon="13.2932447"><ele>578.0</ele><time>2026-04-18T06:56:27.097Z</time></trkpt><trkpt lat="43.0189998" lon="13.2932462"><ele>578.0</ele><time>2026-04-18T06:56:28.068Z</time></trkpt><trkpt lat="43.0188255" lon="13.2932409"><ele>579.25</ele><time>2026-04-18T06:56:29.097Z</time></trkpt><trkpt lat="43.0186712" lon="13.2932344"><ele>580.5</ele><time>2026-04-18T06:56:30.097Z</time></trkpt><trkpt lat="43.0185332" lon="13.2932276"><ele>581.75</ele><time>2026-04-18T06:56:31.079Z</time></trkpt><trkpt lat="43.0184085" lon="13.2932295"><ele>583.0</ele><time>2026-04-18T06:56:32.086Z</time></trkpt><trkpt lat="43.0182744" lon="13.2932451"><ele>584.0</ele><time>2026-04-18T06:56:33.08Z</time></trkpt><trkpt lat="43.0181237" lon="13.2932889"><ele>585.0</ele><time>2026-04-18T06:56:34.061Z</time></trkpt><trkpt lat="43.0179626" lon="13.2933611"><ele>586.0</ele><time>2026-04-18T06:56:35.077Z</time></trkpt><trkpt lat="43.0177982" lon="13.2934475"><ele>586.0</ele><time>2026-04-18T06:56:36.071Z</time></trkpt><trkpt lat="43.0176525" lon="13.2935189"><ele>586.0</ele><time>2026-04-18T06:56:37.055Z</time></trkpt><trkpt lat="43.0175207" lon="13.2935659"><ele>586.0</ele><time>2026-04-18T06:56:38.065Z</time></trkpt><trkpt lat="43.0173899" lon="13.2935896"><ele>586.0</ele><time>2026-04-18T06:56:39.065Z</time></trkpt><trkpt lat="43.0172647" lon="13.2936022"><ele>584.2</ele><time>2026-04-18T06:56:40.075Z</time></trkpt><trkpt lat="43.0171558" lon="13.2936129"><ele>582.4000000000001</ele><time>2026-04-18T06:56:41.044Z</time></trkpt><trkpt lat="43.0170572" lon="13.2936317"><ele>580.6</ele><time>2026-04-18T06:56:42.067Z</time></trkpt><trkpt lat="43.0169614" lon="13.2936544"><ele>578.8000000000001</ele><time>2026-04-18T06:56:43.073Z</time></trkpt><trkpt lat="43.016871" lon="13.2936835"><ele>577.0</ele><time>2026-04-18T06:56:44.087Z</time></trkpt><trkpt lat="43.0167808" lon="13.2937209"><ele>577.0</ele><time>2026-04-18T06:56:45.039Z</time></trkpt><trkpt lat="43.0166895" lon="13.2937681"><ele>577.0</ele><time>2026-04-18T06:56:46.075Z</time></trkpt><trkpt lat="43.0166043" lon="13.2938152"><ele>577.0</ele><time>2026-04-18T06:56:47.072Z</time></trkpt><trkpt lat="43.0165405" lon="13.2938675"><ele>577.0</ele><time>2026-04-18T06:56:48.07Z</time></trkpt><trkpt lat="43.0164841" lon="13.2939464"><ele>577.0</ele><time>2026-04-18T06:56:49.068Z</time></trkpt><trkpt lat="43.0164372" lon="13.2940456"><ele>577.0</ele><time>2026-04-18T06:56:50.036Z</time></trkpt><trkpt lat="43.0163853" lon="13.2941632"><ele>582.0</ele><time>2026-04-18T06:56:51.081Z</time></trkpt><trkpt lat="43.0163306" lon="13.2942837"><ele>587.0</ele><time>2026-04-18T06:56:52.07Z</time></trkpt><trkpt lat="43.0162757" lon="13.2943951"><ele>592.0</ele><time>2026-04-18T06:56:53.04Z</time></trkpt><trkpt lat="43.0162092" lon="13.2945193"><ele>597.0</ele><time>2026-04-18T06:56:54.129Z</time></trkpt><trkpt lat="43.0161199" lon="13.2946667"><ele>597.0</ele><time>2026-04-18T06:56:55.046Z</time></trkpt><trkpt lat="43.0160315" lon="13.2948035"><ele>597.0</ele><time>2026-04-18T06:56:56.071Z</time></trkpt><trkpt lat="43.0159587" lon="13.2949232"><ele>597.0</ele><time>2026-04-18T06:56:57.065Z</time></trkpt><trkpt lat="43.0158941" lon="13.2950442"><ele>597.0</ele><time>2026-04-18T06:56:58.07Z</time></trkpt><trkpt lat="43.0158307" lon="13.2951643"><ele>598.25</ele><time>2026-04-18T06:56:59.066Z</time></trkpt><trkpt lat="43.015769" lon="13.2953104"><ele>599.5</ele><time>2026-04-18T06:57:00.045Z</time></trkpt><trkpt lat="43.0156978" lon="13.2954604"><ele>600.75</ele><time>2026-04-18T06:57:01.059Z</time></trkpt><trkpt lat="43.0156326" lon="13.2956132"><ele>602.0</ele><time>2026-04-18T06:57:02.072Z</time></trkpt><trkpt lat="43.0155783" lon="13.2957497"><ele>602.0</ele><time>2026-04-18T06:57:03.058Z</time></trkpt><trkpt lat="43.0155282" lon="13.2958478"><ele>602.0</ele><time>2026-04-18T06:57:04.076Z</time></trkpt><trkpt lat="43.0154891" lon="13.2959515"><ele>602.0</ele><time>2026-04-18T06:57:05.041Z</time></trkpt><trkpt lat="43.015452" lon="13.2960371"><ele>602.0</ele><time>2026-04-18T06:57:06.068Z</time></trkpt><trkpt lat="43.0154014" lon="13.296177"><ele>602.0</ele><time>2026-04-18T06:57:08.068Z</time></trkpt><trkpt lat="43.0153729" lon="13.2962885"><ele>602.0</ele><time>2026-04-18T06:57:10.004Z</time></trkpt><trkpt lat="43.015311" lon="13.2964642"><ele>599.8333333333333</ele><time>2026-04-18T06:57:19.044Z</time></trkpt><trkpt lat="43.0152543" lon="13.296534"><ele>597.6666666666666</ele><time>2026-04-18T06:57:20.026Z</time></trkpt><trkpt lat="43.0152819" lon="13.2966194"><ele>595.5</ele><time>2026-04-18T06:57:25.023Z</time></trkpt><trkpt lat="43.0153171" lon="13.2967285"><ele>593.3333333333334</ele><time>2026-04-18T06:57:27.042Z</time></trkpt><trkpt lat="43.0154204" lon="13.2967896"><ele>591.1666666666667</ele><time>2026-04-18T06:57:29.029Z</time></trkpt><trkpt lat="43.0154994" lon="13.2968324"><ele>589.0</ele><time>2026-04-18T06:57:31.045Z</time></trkpt><trkpt lat="43.0155834" lon="13.2969178"><ele>589.0</ele><time>2026-04-18T06:57:33.042Z</time></trkpt><trkpt lat="43.0156797" lon="13.2969806"><ele>589.0</ele><time>2026-04-18T06:57:35.059Z</time></trkpt><trkpt lat="43.0157977" lon="13.2970572"><ele>589.0</ele><time>2026-04-18T06:57:37.044Z</time></trkpt><trkpt lat="43.0158606" lon="13.2970668"><ele>589.0</ele><time>2026-04-18T06:57:38.064Z</time></trkpt><trkpt lat="43.0159307" lon="13.2971189"><ele>589.0</ele><time>2026-04-18T06:57:39.083Z</time></trkpt><trkpt lat="43.0159907" lon="13.2971673"><ele>587.4</ele><time>2026-04-18T06:57:40.076Z</time></trkpt><trkpt lat="43.0160981" lon="13.2972248"><ele>585.8</ele><time>2026-04-18T06:57:42.079Z</time></trkpt><trkpt lat="43.0161649" lon="13.297303"><ele>584.2</ele><time>2026-04-18T06:57:43.086Z</time></trkpt><trkpt lat="43.0162299" lon="13.2973426"><ele>582.6</ele><time>2026-04-18T06:57:44.078Z</time></trkpt><trkpt lat="43.0163118" lon="13.2973991"><ele>581.0</ele><time>2026-04-18T06:57:46.032Z</time></trkpt><trkpt lat="43.0163925" lon="13.2975014"><ele>579.1666666666666</ele><time>2026-04-18T06:57:49.048Z</time></trkpt><trkpt lat="43.0164599" lon="13.2975554"><ele>577.3333333333333</ele><time>2026-04-18T06:57:51.02Z</time></trkpt><trkpt lat="43.0165377" lon="13.2976282"><ele>575.5</ele><time>2026-04-18T06:57:53.063Z</time></trkpt><trkpt lat="43.0165927" lon="13.297673"><ele>573.6666666666666</ele><time>2026-04-18T06:57:54.061Z</time></trkpt><trkpt lat="43.0166781" lon="13.297731"><ele>571.8333333333334</ele><time>2026-04-18T06:57:56.051Z</time></trkpt><trkpt lat="43.0167387" lon="13.2977762"><ele>570.0</ele><time>2026-04-18T06:57:57.062Z</time></trkpt><trkpt lat="43.0167978" lon="13.2978128"><ele>567.6</ele><time>2026-04-18T06:57:58.039Z</time></trkpt><trkpt lat="43.0169006" lon="13.2978899"><ele>565.2</ele><time>2026-04-18T06:58:00.029Z</time></trkpt><trkpt lat="43.0169686" lon="13.2979403"><ele>562.8</ele><time>2026-04-18T06:58:01.067Z</time></trkpt><trkpt lat="43.0170625" lon="13.2979872"><ele>560.4</ele><time>2026-04-18T06:58:03.047Z</time></trkpt><trkpt lat="43.0171432" lon="13.2979873"><ele>558.0</ele><time>2026-04-18T06:58:04.048Z</time></trkpt><trkpt lat="43.0172533" lon="13.2979663"><ele>558.0</ele><time>2026-04-18T06:58:06.083Z</time></trkpt><trkpt lat="43.0173698" lon="13.2980086"><ele>558.0</ele><time>2026-04-18T06:58:08.037Z</time></trkpt><trkpt lat="43.0174341" lon="13.2980645"><ele>558.0</ele><time>2026-04-18T06:58:09.091Z</time></trkpt><trkpt lat="43.0175098" lon="13.2981231"><ele>558.0</ele><time>2026-04-18T06:58:10.08Z</time></trkpt><trkpt lat="43.0175896" lon="13.2981616"><ele>558.0</ele><time>2026-04-18T06:58:11.07Z</time></trkpt><trkpt lat="43.017669" lon="13.2981897"><ele>555.5</ele><time>2026-04-18T06:58:12.078Z</time></trkpt><trkpt lat="43.0177408" lon="13.298222"><ele>553.0</ele><time>2026-04-18T06:58:13.074Z</time></trkpt><trkpt lat="43.017832" lon="13.2982621"><ele>550.5</ele><time>2026-04-18T06:58:14.082Z</time></trkpt><trkpt lat="43.0179064" lon="13.2982892"><ele>548.0</ele><time>2026-04-18T06:58:15.077Z</time></trkpt><trkpt lat="43.0180128" lon="13.2983103"><ele>545.5</ele><time>2026-04-18T06:58:16.069Z</time></trkpt><trkpt lat="43.0180954" lon="13.2983436"><ele>543.0</ele><time>2026-04-18T06:58:17.057Z</time></trkpt><trkpt lat="43.0181622" lon="13.2983654"><ele>543.0</ele><time>2026-04-18T06:58:18.062Z</time></trkpt><trkpt lat="43.0182418" lon="13.2983935"><ele>543.0</ele><time>2026-04-18T06:58:19.079Z</time></trkpt><trkpt lat="43.0183083" lon="13.2984247"><ele>543.0</ele><time>2026-04-18T06:58:20.055Z</time></trkpt><trkpt lat="43.0183832" lon="13.298467"><ele>543.0</ele><time>2026-04-18T06:58:21.063Z</time></trkpt><trkpt lat="43.0184479" lon="13.2985149"><ele>543.0</ele><time>2026-04-18T06:58:22.052Z</time></trkpt><trkpt lat="43.0185572" lon="13.2985778"><ele>543.0</ele><time>2026-04-18T06:58:24.045Z</time></trkpt><trkpt lat="43.0186436" lon="13.2986072"><ele>542.1666666666666</ele><time>2026-04-18T06:58:26.039Z</time></trkpt><trkpt lat="43.0186868" lon="13.2986775"><ele>541.3333333333334</ele><time>2026-04-18T06:58:28.059Z</time></trkpt><trkpt lat="43.0187189" lon="13.2987731"><ele>540.5</ele><time>2026-04-18T06:58:30.002Z</time></trkpt><trkpt lat="43.0187557" lon="13.2989094"><ele>539.6666666666667</ele><time>2026-04-18T06:58:32.055Z</time></trkpt><trkpt lat="43.0187657" lon="13.2990057"><ele>538.8333333333334</ele><time>2026-04-18T06:58:34.114Z</time></trkpt><trkpt lat="43.018788" lon="13.2991166"><ele>538.0</ele><time>2026-04-18T06:58:36.047Z</time></trkpt><trkpt lat="43.0188218" lon="13.299203"><ele>536.6</ele><time>2026-04-18T06:58:37.065Z</time></trkpt><trkpt lat="43.0188999" lon="13.2993171"><ele>535.1999999999999</ele><time>2026-04-18T06:58:39.097Z</time></trkpt><trkpt lat="43.0189798" lon="13.2994385"><ele>533.8</ele><time>2026-04-18T06:58:41.067Z</time></trkpt><trkpt lat="43.0190859" lon="13.2994709"><ele>532.4</ele><time>2026-04-18T06:58:43.048Z</time></trkpt><trkpt lat="43.0191558" lon="13.2994651"><ele>531.0</ele><time>2026-04-18T06:58:44.034Z</time></trkpt><trkpt lat="43.0192874" lon="13.2994357"><ele>530.3333333333334</ele><time>2026-04-18T06:58:46.065Z</time></trkpt><trkpt lat="43.0193505" lon="13.2994221"><ele>529.6666666666666</ele><time>2026-04-18T06:58:47.074Z</time></trkpt><trkpt lat="43.0194128" lon="13.2994063"><ele>529.0</ele><time>2026-04-18T06:58:48.082Z</time></trkpt><trkpt lat="43.0195317" lon="13.2993659"><ele>528.3333333333333</ele><time>2026-04-18T06:58:50.081Z</time></trkpt><trkpt lat="43.0195966" lon="13.2993396"><ele>527.6666666666666</ele><time>2026-04-18T06:58:51.094Z</time></trkpt><trkpt lat="43.019671" lon="13.2993363"><ele>527.0</ele><time>2026-04-18T06:58:52.07Z</time></trkpt><trkpt lat="43.0197359" lon="13.2993415"><ele>527.0</ele><time>2026-04-18T06:58:53.083Z</time></trkpt><trkpt lat="43.0198543" lon="13.2993915"><ele>527.0</ele><time>2026-04-18T06:58:55.109Z</time></trkpt><trkpt lat="43.0199623" lon="13.299453"><ele>527.0</ele><time>2026-04-18T06:58:57.087Z</time></trkpt><trkpt lat="43.0200338" lon="13.2994918"><ele>527.0</ele><time>2026-04-18T06:58:58.069Z</time></trkpt><trkpt lat="43.020127" lon="13.2995408"><ele>527.0</ele><time>2026-04-18T06:58:59.064Z</time></trkpt><trkpt lat="43.0202064" lon="13.299583"><ele>525.8333333333333</ele><time>2026-04-18T06:59:00.085Z</time></trkpt><trkpt lat="43.0202761" lon="13.2996216"><ele>524.6666666666666</ele><time>2026-04-18T06:59:01.068Z</time></trkpt><trkpt lat="43.0203574" lon="13.2996634"><ele>523.5</ele><time>2026-04-18T06:59:02.072Z</time></trkpt><trkpt lat="43.0204429" lon="13.2997111"><ele>522.3333333333334</ele><time>2026-04-18T06:59:03.072Z</time></trkpt><trkpt lat="43.0205201" lon="13.2997603"><ele>521.1666666666667</ele><time>2026-04-18T06:59:04.072Z</time></trkpt><trkpt lat="43.020593" lon="13.2998107"><ele>520.0</ele><time>2026-04-18T06:59:05.076Z</time></trkpt><trkpt lat="43.0206613" lon="13.2998529"><ele>518.6</ele><time>2026-04-18T06:59:06.055Z</time></trkpt><trkpt lat="43.0207287" lon="13.299896"><ele>517.2</ele><time>2026-04-18T06:59:07.117Z</time></trkpt><trkpt lat="43.0207974" lon="13.2999623"><ele>515.8</ele><time>2026-04-18T06:59:08.065Z</time></trkpt><trkpt lat="43.0208703" lon="13.3000517"><ele>514.4</ele><time>2026-04-18T06:59:09.059Z</time></trkpt><trkpt lat="43.020943" lon="13.3001679"><ele>513.0</ele><time>2026-04-18T06:59:10.08Z</time></trkpt><trkpt lat="43.021007" lon="13.3002702"><ele>512.5</ele><time>2026-04-18T06:59:11.075Z</time></trkpt><trkpt lat="43.0210622" lon="13.30036"><ele>512.0</ele><time>2026-04-18T06:59:12.071Z</time></trkpt><trkpt lat="43.0211176" lon="13.3004556"><ele>511.5</ele><time>2026-04-18T06:59:13.081Z</time></trkpt><trkpt lat="43.0211642" lon="13.3005356"><ele>511.0</ele><time>2026-04-18T06:59:14.077Z</time></trkpt><trkpt lat="43.0212149" lon="13.3006103"><ele>510.5</ele><time>2026-04-18T06:59:15.06Z</time></trkpt><trkpt lat="43.0212972" lon="13.3007357"><ele>510.0</ele><time>2026-04-18T06:59:17.067Z</time></trkpt><trkpt lat="43.0213281" lon="13.300853"><ele>509.0</ele><time>2026-04-18T06:59:18.043Z</time></trkpt><trkpt lat="43.0213516" lon="13.300963"><ele>508.0</ele><time>2026-04-18T06:59:19.078Z</time></trkpt><trkpt lat="43.0213752" lon="13.3010597"><ele>507.0</ele><time>2026-04-18T06:59:20.075Z</time></trkpt><trkpt lat="43.0213965" lon="13.3011517"><ele>506.0</ele><time>2026-04-18T06:59:21.086Z</time></trkpt><trkpt lat="43.0214086" lon="13.3013163"><ele>505.0</ele><time>2026-04-18T06:59:23.071Z</time></trkpt><trkpt lat="43.0214003" lon="13.3014021"><ele>504.0</ele><time>2026-04-18T06:59:24.082Z</time></trkpt><trkpt lat="43.021358" lon="13.3014893"><ele>502.3333333333333</ele><time>2026-04-18T06:59:25.07Z</time></trkpt><trkpt lat="43.0213176" lon="13.3015677"><ele>500.66666666666663</ele><time>2026-04-18T06:59:26.081Z</time></trkpt><trkpt lat="43.0212832" lon="13.3016443"><ele>499.0</ele><time>2026-04-18T06:59:27.078Z</time></trkpt><trkpt lat="43.0212445" lon="13.3017126"><ele>497.3333333333333</ele><time>2026-04-18T06:59:28.074Z</time></trkpt><trkpt lat="43.0211726" lon="13.3018341"><ele>495.66666666666663</ele><time>2026-04-18T06:59:30.063Z</time></trkpt><trkpt lat="43.0211438" lon="13.3019217"><ele>494.0</ele><time>2026-04-18T06:59:31.049Z</time></trkpt><trkpt lat="43.0211223" lon="13.3020356"><ele>494.0</ele><time>2026-04-18T06:59:32.077Z</time></trkpt><trkpt lat="43.0211088" lon="13.3021733"><ele>494.0</ele><time>2026-04-18T06:59:33.08Z</time></trkpt><trkpt lat="43.021103" lon="13.3023072"><ele>494.0</ele><time>2026-04-18T06:59:34.076Z</time></trkpt><trkpt lat="43.0210963" lon="13.3024357"><ele>494.0</ele><time>2026-04-18T06:59:35.042Z</time></trkpt><trkpt lat="43.0210942" lon="13.3025579"><ele>494.0</ele><time>2026-04-18T06:59:36.045Z</time></trkpt><trkpt lat="43.0210932" lon="13.302671"><ele>493.66666666666663</ele><time>2026-04-18T06:59:37.068Z</time></trkpt><trkpt lat="43.021088" lon="13.3027666"><ele>493.3333333333333</ele><time>2026-04-18T06:59:38.088Z</time></trkpt><trkpt lat="43.0210925" lon="13.3028577"><ele>493.0</ele><time>2026-04-18T06:59:39.075Z</time></trkpt><trkpt lat="43.0210973" lon="13.3029473"><ele>492.66666666666663</ele><time>2026-04-18T06:59:40.065Z</time></trkpt><trkpt lat="43.0211052" lon="13.3030759"><ele>492.3333333333333</ele><time>2026-04-18T06:59:41.048Z</time></trkpt><trkpt lat="43.0211159" lon="13.3031927"><ele>492.0</ele><time>2026-04-18T06:59:42.063Z</time></trkpt><trkpt lat="43.0211293" lon="13.3033051"><ele>492.0</ele><time>2026-04-18T06:59:43.061Z</time></trkpt><trkpt lat="43.0211432" lon="13.3034331"><ele>492.00000000000006</ele><time>2026-04-18T06:59:44.086Z</time></trkpt><trkpt lat="43.0211589" lon="13.3035608"><ele>492.00000000000006</ele><time>2026-04-18T06:59:45.07Z</time></trkpt><trkpt lat="43.0211731" lon="13.3036876"><ele>492.0</ele><time>2026-04-18T06:59:46.082Z</time></trkpt><trkpt lat="43.0211844" lon="13.3038127"><ele>492.0</ele><time>2026-04-18T06:59:47.04Z</time></trkpt><trkpt lat="43.0211969" lon="13.3039297"><ele>492.6666666666667</ele><time>2026-04-18T06:59:48.058Z</time></trkpt><trkpt lat="43.0212075" lon="13.3040398"><ele>493.33333333333337</ele><time>2026-04-18T06:59:49.064Z</time></trkpt><trkpt lat="43.0212064" lon="13.3041349"><ele>494.0</ele><time>2026-04-18T06:59:50.058Z</time></trkpt><trkpt lat="43.0212039" lon="13.3042501"><ele>494.6666666666667</ele><time>2026-04-18T06:59:51.048Z</time></trkpt><trkpt lat="43.0211915" lon="13.3043505"><ele>495.33333333333337</ele><time>2026-04-18T06:59:52.074Z</time></trkpt><trkpt lat="43.0211699" lon="13.3044491"><ele>496.0</ele><time>2026-04-18T06:59:53.091Z</time></trkpt><trkpt lat="43.0211404" lon="13.3045364"><ele>496.0</ele><time>2026-04-18T06:59:54.049Z</time></trkpt><trkpt lat="43.0211002" lon="13.3046761"><ele>496.0</ele><time>2026-04-18T06:59:56.048Z</time></trkpt><trkpt lat="43.0210678" lon="13.3048012"><ele>496.0</ele><time>2026-04-18T06:59:58.072Z</time></trkpt><trkpt lat="43.0210159" lon="13.3049211"><ele>496.0</ele><time>2026-04-18T07:00:00.046Z</time></trkpt><trkpt lat="43.0209134" lon="13.3050381"><ele>496.0</ele><time>2026-04-18T07:00:02.054Z</time></trkpt><trkpt lat="43.0208525" lon="13.3050943"><ele>496.8571428571429</ele><time>2026-04-18T07:00:03.112Z</time></trkpt><trkpt lat="43.0207924" lon="13.3051546"><ele>497.7142857142858</ele><time>2026-04-18T07:00:04.066Z</time></trkpt><trkpt lat="43.0207298" lon="13.3052067"><ele>498.57142857142856</ele><time>2026-04-18T07:00:05.078Z</time></trkpt><trkpt lat="43.0206647" lon="13.3052588"><ele>499.42857142857144</ele><time>2026-04-18T07:00:06.068Z</time></trkpt><trkpt lat="43.0206086" lon="13.3053214"><ele>500.2857142857143</ele><time>2026-04-18T07:00:07.073Z</time></trkpt><trkpt lat="43.0205615" lon="13.3053908"><ele>501.1428571428571</ele><time>2026-04-18T07:00:08.067Z</time></trkpt><trkpt lat="43.020512" lon="13.3054694"><ele>501.99999999999994</ele><time>2026-04-18T07:00:09.047Z</time></trkpt><trkpt lat="43.0204671" lon="13.3055532"><ele>503.1666666666667</ele><time>2026-04-18T07:00:10.07Z</time></trkpt><trkpt lat="43.0204312" lon="13.3056442"><ele>504.33333333333337</ele><time>2026-04-18T07:00:11.073Z</time></trkpt><trkpt lat="43.0204035" lon="13.3057425"><ele>505.5</ele><time>2026-04-18T07:00:12.064Z</time></trkpt><trkpt lat="43.020377" lon="13.3058349"><ele>506.66666666666663</ele><time>2026-04-18T07:00:13.051Z</time></trkpt><trkpt lat="43.0203481" lon="13.3059447"><ele>507.8333333333333</ele><time>2026-04-18T07:00:14.071Z</time></trkpt><trkpt lat="43.0203151" lon="13.3060579"><ele>509.0</ele><time>2026-04-18T07:00:15.062Z</time></trkpt><trkpt lat="43.0202835" lon="13.306157"><ele>508.99999999999994</ele><time>2026-04-18T07:00:16.065Z</time></trkpt><trkpt lat="43.0202572" lon="13.3062468"><ele>509.0</ele><time>2026-04-18T07:00:17.077Z</time></trkpt><trkpt lat="43.0202291" lon="13.3063449"><ele>509.0</ele><time>2026-04-18T07:00:18.085Z</time></trkpt><trkpt lat="43.0202029" lon="13.3064386"><ele>509.0</ele><time>2026-04-18T07:00:19.068Z</time></trkpt><trkpt lat="43.0201686" lon="13.3065358"><ele>508.99999999999994</ele><time>2026-04-18T07:00:20.063Z</time></trkpt><trkpt lat="43.0201161" lon="13.3066528"><ele>509.0</ele><time>2026-04-18T07:00:21.043Z</time></trkpt><trkpt lat="43.0200713" lon="13.3067686"><ele>508.99999999999994</ele><time>2026-04-18T07:00:22.056Z</time></trkpt><trkpt lat="43.0200206" lon="13.30687"><ele>509.0</ele><time>2026-04-18T07:00:23.067Z</time></trkpt><trkpt lat="43.0199721" lon="13.3069596"><ele>509.0</ele><time>2026-04-18T07:00:24.068Z</time></trkpt><trkpt lat="43.0199282" lon="13.3070398"><ele>509.0</ele><time>2026-04-18T07:00:25.067Z</time></trkpt><trkpt lat="43.0198619" lon="13.3071427"><ele>508.99999999999994</ele><time>2026-04-18T07:00:27.075Z</time></trkpt><trkpt lat="43.0198189" lon="13.3072485"><ele>509.0</ele><time>2026-04-18T07:00:29.043Z</time></trkpt><trkpt lat="43.0197564" lon="13.3073304"><ele>509.8333333333333</ele><time>2026-04-18T07:00:31.031Z</time></trkpt><trkpt lat="43.0197052" lon="13.3073935"><ele>510.66666666666663</ele><time>2026-04-18T07:00:32.051Z</time></trkpt><trkpt lat="43.0196521" lon="13.3074603"><ele>511.5</ele><time>2026-04-18T07:00:33.071Z</time></trkpt><trkpt lat="43.0195919" lon="13.3075349"><ele>512.3333333333334</ele><time>2026-04-18T07:00:34.05Z</time></trkpt><trkpt lat="43.0195369" lon="13.3076009"><ele>513.1666666666667</ele><time>2026-04-18T07:00:35.065Z</time></trkpt><trkpt lat="43.0194827" lon="13.3076632"><ele>514.0</ele><time>2026-04-18T07:00:36.061Z</time></trkpt><trkpt lat="43.0193639" lon="13.3077729"><ele>514.0</ele><time>2026-04-18T07:00:38.073Z</time></trkpt><trkpt lat="43.0192865" lon="13.3078143"><ele>514.0</ele><time>2026-04-18T07:00:39.04Z</time></trkpt><trkpt lat="43.0191818" lon="13.3078504"><ele>514.0</ele><time>2026-04-18T07:00:41.066Z</time></trkpt><trkpt lat="43.0191158" lon="13.3078808"><ele>514.0</ele><time>2026-04-18T07:00:42.076Z</time></trkpt><trkpt lat="43.0190542" lon="13.3079034"><ele>514.0</ele><time>2026-04-18T07:00:43.137Z</time></trkpt><trkpt lat="43.0189649" lon="13.3079309"><ele>514.0</ele><time>2026-04-18T07:00:45.07Z</time></trkpt><trkpt lat="43.0188998" lon="13.3080136"><ele>514.6666666666667</ele><time>2026-04-18T07:00:48.066Z</time></trkpt><trkpt lat="43.0188392" lon="13.3081201"><ele>515.3333333333334</ele><time>2026-04-18T07:00:51.073Z</time></trkpt><trkpt lat="43.0187948" lon="13.3082261"><ele>516.0</ele><time>2026-04-18T07:00:54.055Z</time></trkpt><trkpt lat="43.0187437" lon="13.3083383"><ele>516.6666666666666</ele><time>2026-04-18T07:00:56.046Z</time></trkpt><trkpt lat="43.0186968" lon="13.3084295"><ele>517.3333333333333</ele><time>2026-04-18T07:00:58.079Z</time></trkpt><trkpt lat="43.0186651" lon="13.308505"><ele>518.0</ele><time>2026-04-18T07:01:00.066Z</time></trkpt><trkpt lat="43.0186251" lon="13.3085911"><ele>518.0</ele><time>2026-04-18T07:01:02.06Z</time></trkpt><trkpt lat="43.0185416" lon="13.3087034"><ele>518.0</ele><time>2026-04-18T07:01:04.055Z</time></trkpt><trkpt lat="43.0184477" lon="13.3088634"><ele>518.0</ele><time>2026-04-18T07:01:06.086Z</time></trkpt><trkpt lat="43.0183969" lon="13.3089602"><ele>518.0</ele><time>2026-04-18T07:01:07.07Z</time></trkpt><trkpt lat="43.0183475" lon="13.3090479"><ele>518.0</ele><time>2026-04-18T07:01:08.072Z</time></trkpt><trkpt lat="43.0182715" lon="13.3091548"><ele>519.1999999999999</ele><time>2026-04-18T07:01:10.046Z</time></trkpt><trkpt lat="43.0182058" lon="13.309193"><ele>520.4</ele><time>2026-04-18T07:01:11.991Z</time></trkpt><trkpt lat="43.0181417" lon="13.3092976"><ele>521.5999999999999</ele><time>2026-04-18T07:01:15.006Z</time></trkpt><trkpt lat="43.0180605" lon="13.3093724"><ele>522.8</ele><time>2026-04-18T07:01:17.011Z</time></trkpt><trkpt lat="43.0179867" lon="13.3094727"><ele>524.0</ele><time>2026-04-18T07:01:19.008Z</time></trkpt><trkpt lat="43.0179183" lon="13.309543"><ele>524.0</ele><time>2026-04-18T07:01:20.01Z</time></trkpt><trkpt lat="43.0177915" lon="13.3096007"><ele>524.0</ele><time>2026-04-18T07:01:25.03Z</time></trkpt><trkpt lat="43.0177348" lon="13.3096413"><ele>524.0</ele><time>2026-04-18T07:01:27.091Z</time></trkpt><trkpt lat="43.0176279" lon="13.3097129"><ele>524.0</ele><time>2026-04-18T07:01:34.057Z</time></trkpt><trkpt lat="43.0175617" lon="13.309735"><ele>524.0</ele><time>2026-04-18T07:01:56.067Z</time></trkpt><trkpt lat="43.0174169" lon="13.3097679"><ele>524.6666666666666</ele><time>2026-04-18T07:03:40.017Z</time></trkpt><trkpt lat="43.0173538" lon="13.3098023"><ele>525.3333333333333</ele><time>2026-04-18T07:03:57.057Z</time></trkpt><trkpt lat="43.0173152" lon="13.3098875"><ele>526.0</ele><time>2026-04-18T07:04:07.995Z</time></trkpt><trkpt lat="43.017237" lon="13.3099716"><ele>526.6666666666666</ele><time>2026-04-18T07:06:10.044Z</time></trkpt><trkpt lat="43.0171731" lon="13.310056"><ele>527.3333333333334</ele><time>2026-04-18T07:06:12.063Z</time></trkpt><trkpt lat="43.0170868" lon="13.3101325"><ele>528.0</ele><time>2026-04-18T07:06:14.125Z</time></trkpt><trkpt lat="43.0169968" lon="13.3101887"><ele>528.0</ele><time>2026-04-18T07:06:16.071Z</time></trkpt><trkpt lat="43.016926" lon="13.3102315"><ele>528.0</ele><time>2026-04-18T07:06:18.037Z</time></trkpt><trkpt lat="43.0168718" lon="13.3102764"><ele>528.0</ele><time>2026-04-18T07:06:20.066Z</time></trkpt><trkpt lat="43.0167897" lon="13.310338"><ele>528.0</ele><time>2026-04-18T07:06:22.052Z</time></trkpt><trkpt lat="43.0167012" lon="13.3103875"><ele>528.0</ele><time>2026-04-18T07:06:24.074Z</time></trkpt><trkpt lat="43.016627" lon="13.3104192"><ele>528.0</ele><time>2026-04-18T07:06:26.014Z</time></trkpt><trkpt lat="43.0165444" lon="13.3104539"><ele>528.0</ele><time>2026-04-18T07:06:28.035Z</time></trkpt><trkpt lat="43.0164814" lon="13.3104836"><ele>528.0</ele><time>2026-04-18T07:06:30.06Z</time></trkpt><trkpt lat="43.016425" lon="13.3105256"><ele>528.0</ele><time>2026-04-18T07:06:34.046Z</time></trkpt><trkpt lat="43.0163464" lon="13.3105696"><ele>528.0</ele><time>2026-04-18T07:06:37.03Z</time></trkpt><trkpt lat="43.0162803" lon="13.3105906"><ele>528.0</ele><time>2026-04-18T07:06:39.052Z</time></trkpt><trkpt lat="43.016204" lon="13.310641"><ele>528.0</ele><time>2026-04-18T07:06:41.037Z</time></trkpt><trkpt lat="43.0161382" lon="13.3107069"><ele>528.8333333333334</ele><time>2026-04-18T07:06:44.025Z</time></trkpt><trkpt lat="43.0160845" lon="13.3107713"><ele>529.6666666666666</ele><time>2026-04-18T07:06:47.077Z</time></trkpt><trkpt lat="43.0160233" lon="13.3108589"><ele>530.5</ele><time>2026-04-18T07:06:49.056Z</time></trkpt><trkpt lat="43.0159347" lon="13.3109052"><ele>531.3333333333333</ele><time>2026-04-18T07:06:51.03Z</time></trkpt><trkpt lat="43.0158572" lon="13.3109837"><ele>532.1666666666666</ele><time>2026-04-18T07:06:53.023Z</time></trkpt><trkpt lat="43.0157704" lon="13.3110134"><ele>533.0</ele><time>2026-04-18T07:06:55.057Z</time></trkpt><trkpt lat="43.0156688" lon="13.3110752"><ele>534.1666666666666</ele><time>2026-04-18T07:06:57.075Z</time></trkpt><trkpt lat="43.0155906" lon="13.3111094"><ele>535.3333333333333</ele><time>2026-04-18T07:06:59.044Z</time></trkpt><trkpt lat="43.0155183" lon="13.3111428"><ele>536.5</ele><time>2026-04-18T07:07:02.06Z</time></trkpt><trkpt lat="43.0154413" lon="13.3111784"><ele>537.6666666666666</ele><time>2026-04-18T07:07:05.085Z</time></trkpt><trkpt lat="43.0153661" lon="13.3112314"><ele>538.8333333333334</ele><time>2026-04-18T07:07:08.069Z</time></trkpt><trkpt lat="43.0152772" lon="13.3112899"><ele>540.0</ele><time>2026-04-18T07:07:11.053Z</time></trkpt><trkpt lat="43.01519" lon="13.3113612"><ele>541.8333333333334</ele><time>2026-04-18T07:07:13.059Z</time></trkpt><trkpt lat="43.0151361" lon="13.3114296"><ele>543.6666666666666</ele><time>2026-04-18T07:07:15.094Z</time></trkpt><trkpt lat="43.0150723" lon="13.3115135"><ele>545.5</ele><time>2026-04-18T07:07:17.045Z</time></trkpt><trkpt lat="43.0149916" lon="13.3116174"><ele>547.3333333333333</ele><time>2026-04-18T07:07:19.067Z</time></trkpt><trkpt lat="43.0149398" lon="13.3116994"><ele>549.1666666666666</ele><time>2026-04-18T07:07:20.064Z</time></trkpt><trkpt lat="43.0148958" lon="13.3117658"><ele>551.0</ele><time>2026-04-18T07:07:21.096Z</time></trkpt><trkpt lat="43.0148536" lon="13.3118605"><ele>551.5</ele><time>2026-04-18T07:07:22.074Z</time></trkpt><trkpt lat="43.0148085" lon="13.3119615"><ele>552.0</ele><time>2026-04-18T07:07:23.059Z</time></trkpt><trkpt lat="43.0147433" lon="13.3120493"><ele>552.5</ele><time>2026-04-18T07:07:24.08Z</time></trkpt><trkpt lat="43.0146944" lon="13.3121294"><ele>553.0</ele><time>2026-04-18T07:07:25.079Z</time></trkpt><trkpt lat="43.0146601" lon="13.3122096"><ele>553.5</ele><time>2026-04-18T07:07:26.081Z</time></trkpt><trkpt lat="43.0146128" lon="13.3122858"><ele>554.0</ele><time>2026-04-18T07:07:27.121Z</time></trkpt><trkpt lat="43.0145207" lon="13.3123779"><ele>554.0</ele><time>2026-04-18T07:07:29.053Z</time></trkpt><trkpt lat="43.0144203" lon="13.3124729"><ele>554.0</ele><time>2026-04-18T07:07:33.058Z</time></trkpt><trkpt lat="43.0143796" lon="13.3125422"><ele>554.0</ele><time>2026-04-18T07:07:34.034Z</time></trkpt><trkpt lat="43.0142996" lon="13.3125547"><ele>554.0</ele><time>2026-04-18T07:07:38.093Z</time></trkpt><trkpt lat="43.0142844" lon="13.3124214"><ele>554.0</ele><time>2026-04-18T07:07:40.029Z</time></trkpt><trkpt lat="43.0142601" lon="13.312236"><ele>554.0</ele><time>2026-04-18T07:07:42.067Z</time></trkpt><trkpt lat="43.01425" lon="13.3121412"><ele>554.0</ele><time>2026-04-18T07:07:44.054Z</time></trkpt><trkpt lat="43.0142501" lon="13.3120385"><ele>554.0</ele><time>2026-04-18T07:07:45.067Z</time></trkpt><trkpt lat="43.0141553" lon="13.3120204"><ele>554.0</ele><time>2026-04-18T07:07:48.061Z</time></trkpt><trkpt lat="43.0140875" lon="13.312025"><ele>554.0</ele><time>2026-04-18T07:07:49.086Z</time></trkpt><trkpt lat="43.0139778" lon="13.31206"><ele>554.0</ele><time>2026-04-18T07:07:51.084Z</time></trkpt><trkpt lat="43.0138651" lon="13.3120823"><ele>553.8</ele><time>2026-04-18T07:07:53.066Z</time></trkpt><trkpt lat="43.0137275" lon="13.3121201"><ele>553.5999999999999</ele><time>2026-04-18T07:07:55.11Z</time></trkpt><trkpt lat="43.0136292" lon="13.3121581"><ele>553.4</ele><time>2026-04-18T07:07:57.073Z</time></trkpt><trkpt lat="43.0135648" lon="13.312184"><ele>553.1999999999999</ele><time>2026-04-18T07:07:59.073Z</time></trkpt><trkpt lat="43.0134806" lon="13.3122046"><ele>553.0</ele><time>2026-04-18T07:08:00.08Z</time></trkpt><trkpt lat="43.0133787" lon="13.3122325"><ele>552.0</ele><time>2026-04-18T07:08:02.049Z</time></trkpt><trkpt lat="43.0132728" lon="13.3122566"><ele>551.0</ele><time>2026-04-18T07:08:04.053Z</time></trkpt><trkpt lat="43.0131703" lon="13.3122559"><ele>550.0</ele><time>2026-04-18T07:08:06.048Z</time></trkpt><trkpt lat="43.0130945" lon="13.3122793"><ele>549.0</ele><time>2026-04-18T07:08:08.055Z</time></trkpt><trkpt lat="43.0129968" lon="13.3122582"><ele>548.0</ele><time>2026-04-18T07:08:10.075Z</time></trkpt><trkpt lat="43.0129321" lon="13.3122333"><ele>548.0</ele><time>2026-04-18T07:08:13.073Z</time></trkpt><trkpt lat="43.0128693" lon="13.3122609"><ele>548.0</ele><time>2026-04-18T07:08:15.07Z</time></trkpt><trkpt lat="43.0127728" lon="13.3122785"><ele>548.0</ele><time>2026-04-18T07:08:17.065Z</time></trkpt><trkpt lat="43.0126934" lon="13.3122674"><ele>548.0</ele><time>2026-04-18T07:08:19.047Z</time></trkpt><trkpt lat="43.0125878" lon="13.3122807"><ele>548.0</ele><time>2026-04-18T07:08:21.071Z</time></trkpt><trkpt lat="43.012524" lon="13.3123128"><ele>548.0</ele><time>2026-04-18T07:08:22.042Z</time></trkpt><trkpt lat="43.0124338" lon="13.3123762"><ele>547.8</ele><time>2026-04-18T07:08:24.021Z</time></trkpt><trkpt lat="43.0123744" lon="13.312412"><ele>547.5999999999999</ele><time>2026-04-18T07:08:25.083Z</time></trkpt><trkpt lat="43.0122774" lon="13.3124905"><ele>547.4000000000001</ele><time>2026-04-18T07:08:27.097Z</time></trkpt><trkpt lat="43.0121951" lon="13.3125509"><ele>547.2</ele><time>2026-04-18T07:08:29.01Z</time></trkpt><trkpt lat="43.0121036" lon="13.3126002"><ele>547.0</ele><time>2026-04-18T07:08:31.035Z</time></trkpt><trkpt lat="43.0120277" lon="13.3126464"><ele>547.0</ele><time>2026-04-18T07:08:32.071Z</time></trkpt><trkpt lat="43.0119358" lon="13.3126505"><ele>547.0</ele><time>2026-04-18T07:08:33.073Z</time></trkpt><trkpt lat="43.0118631" lon="13.3126749"><ele>547.0</ele><time>2026-04-18T07:08:34.014Z</time></trkpt><trkpt lat="43.011717" lon="13.3127148"><ele>547.0</ele><time>2026-04-18T07:08:36.092Z</time></trkpt><trkpt lat="43.0116325" lon="13.3127643"><ele>547.0</ele><time>2026-04-18T07:08:37.075Z</time></trkpt><trkpt lat="43.0115569" lon="13.3127991"><ele>544.6666666666667</ele><time>2026-04-18T07:08:38.041Z</time></trkpt><trkpt lat="43.011496" lon="13.3128259"><ele>542.3333333333334</ele><time>2026-04-18T07:08:39.002Z</time></trkpt><trkpt lat="43.0114238" lon="13.3128518"><ele>540.0</ele><time>2026-04-18T07:08:40.11Z</time></trkpt><trkpt lat="43.0113543" lon="13.3128937"><ele>537.6666666666666</ele><time>2026-04-18T07:08:41.1Z</time></trkpt><trkpt lat="43.0112382" lon="13.3129392"><ele>535.3333333333333</ele><time>2026-04-18T07:08:43.104Z</time></trkpt><trkpt lat="43.0111687" lon="13.3129915"><ele>533.0</ele><time>2026-04-18T07:08:44.06Z</time></trkpt><trkpt lat="43.0110861" lon="13.3130445"><ele>533.4285714285714</ele><time>2026-04-18T07:08:45.076Z</time></trkpt><trkpt lat="43.0110227" lon="13.3130945"><ele>533.8571428571428</ele><time>2026-04-18T07:08:46.087Z</time></trkpt><trkpt lat="43.0109666" lon="13.31314"><ele>534.2857142857142</ele><time>2026-04-18T07:08:47.093Z</time></trkpt><trkpt lat="43.0108985" lon="13.3131779"><ele>534.7142857142857</ele><time>2026-04-18T07:08:48.061Z</time></trkpt><trkpt lat="43.0108393" lon="13.3132082"><ele>535.1428571428571</ele><time>2026-04-18T07:08:49.041Z</time></trkpt><trkpt lat="43.0107694" lon="13.3132191"><ele>535.5714285714286</ele><time>2026-04-18T07:08:50.08Z</time></trkpt><trkpt lat="43.010703" lon="13.3132327"><ele>536.0</ele><time>2026-04-18T07:08:51.069Z</time></trkpt><trkpt lat="43.0106142" lon="13.3132575"><ele>534.8</ele><time>2026-04-18T07:08:52.093Z</time></trkpt><trkpt lat="43.0105389" lon="13.3132749"><ele>533.6</ele><time>2026-04-18T07:08:53.079Z</time></trkpt><trkpt lat="43.0104111" lon="13.3133052"><ele>532.4</ele><time>2026-04-18T07:08:55.103Z</time></trkpt><trkpt lat="43.0103101" lon="13.3133865"><ele>531.2</ele><time>2026-04-18T07:08:57.093Z</time></trkpt><trkpt lat="43.010228" lon="13.3134338"><ele>530.0</ele><time>2026-04-18T07:08:59.008Z</time></trkpt><trkpt lat="43.0101285" lon="13.3134937"><ele>530.0</ele><time>2026-04-18T07:09:03.067Z</time></trkpt><trkpt lat="43.0100444" lon="13.3135293"><ele>530.0</ele><time>2026-04-18T07:09:27.04Z</time></trkpt><trkpt lat="43.0099634" lon="13.3135753"><ele>530.0</ele><time>2026-04-18T07:09:34.003Z</time></trkpt><trkpt lat="43.0098968" lon="13.3136038"><ele>530.0</ele><time>2026-04-18T07:09:36.075Z</time></trkpt><trkpt lat="43.009825" lon="13.3136362"><ele>530.0</ele><time>2026-04-18T07:09:38.052Z</time></trkpt><trkpt lat="43.0097495" lon="13.3136759"><ele>530.0</ele><time>2026-04-18T07:09:40.058Z</time></trkpt><trkpt lat="43.0096711" lon="13.313725"><ele>528.0</ele><time>2026-04-18T07:09:42.069Z</time></trkpt><trkpt lat="43.0095547" lon="13.3137886"><ele>526.0</ele><time>2026-04-18T07:09:44.052Z</time></trkpt><trkpt lat="43.0094862" lon="13.3138225"><ele>524.0</ele><time>2026-04-18T07:09:45.093Z</time></trkpt><trkpt lat="43.009426" lon="13.3138605"><ele>522.0</ele><time>2026-04-18T07:09:46.09Z</time></trkpt><trkpt lat="43.0093055" lon="13.313935"><ele>520.0</ele><time>2026-04-18T07:09:48.051Z</time></trkpt><trkpt lat="43.0092216" lon="13.3139975"><ele>520.0</ele><time>2026-04-18T07:09:50.042Z</time></trkpt><trkpt lat="43.0091611" lon="13.3140385"><ele>520.0</ele><time>2026-04-18T07:09:51.08Z</time></trkpt><trkpt lat="43.0090636" lon="13.3141313"><ele>520.0</ele><time>2026-04-18T07:09:53.056Z</time></trkpt><trkpt lat="43.0090177" lon="13.3141972"><ele>520.0</ele><time>2026-04-18T07:09:54.025Z</time></trkpt><trkpt lat="43.0089638" lon="13.3142629"><ele>520.0</ele><time>2026-04-18T07:09:55.074Z</time></trkpt><trkpt lat="43.0089089" lon="13.314322"><ele>520.0</ele><time>2026-04-18T07:09:56.048Z</time></trkpt><trkpt lat="43.0088483" lon="13.3144426"><ele>515.8</ele><time>2026-04-18T07:09:58.057Z</time></trkpt><trkpt lat="43.0087721" lon="13.3145128"><ele>511.6</ele><time>2026-04-18T07:10:00.047Z</time></trkpt><trkpt lat="43.0086806" lon="13.3146067"><ele>507.4</ele><time>2026-04-18T07:10:02.065Z</time></trkpt><trkpt lat="43.0086075" lon="13.314708"><ele>503.2</ele><time>2026-04-18T07:10:04.002Z</time></trkpt><trkpt lat="43.0085431" lon="13.3147936"><ele>499.0</ele><time>2026-04-18T07:10:06.051Z</time></trkpt><trkpt lat="43.0084963" lon="13.3148981"><ele>498.83333333333337</ele><time>2026-04-18T07:10:08.051Z</time></trkpt><trkpt lat="43.0084428" lon="13.3150037"><ele>498.6666666666667</ele><time>2026-04-18T07:10:10.033Z</time></trkpt><trkpt lat="43.0084117" lon="13.315087"><ele>498.5</ele><time>2026-04-18T07:10:12.045Z</time></trkpt><trkpt lat="43.0083912" lon="13.3151706"><ele>498.33333333333337</ele><time>2026-04-18T07:10:13.064Z</time></trkpt><trkpt lat="43.0083383" lon="13.3152782"><ele>498.1666666666667</ele><time>2026-04-18T07:10:32.034Z</time></trkpt><trkpt lat="43.0083409" lon="13.3151859"><ele>498.0</ele><time>2026-04-18T07:12:11.996Z</time></trkpt><trkpt lat="43.0082411" lon="13.3151801"><ele>498.0</ele><time>2026-04-18T07:12:26.01Z</time></trkpt><trkpt lat="43.0081818" lon="13.3150836"><ele>498.0</ele><time>2026-04-18T07:12:28.06Z</time></trkpt><trkpt lat="43.0081468" lon="13.3150097"><ele>498.0</ele><time>2026-04-18T07:12:30.012Z</time></trkpt><trkpt lat="43.0080995" lon="13.3149315"><ele>498.0</ele><time>2026-04-18T07:12:32.021Z</time></trkpt><trkpt lat="43.0080571" lon="13.3148599"><ele>498.0</ele><time>2026-04-18T07:12:34.034Z</time></trkpt><trkpt lat="43.0080402" lon="13.3147212"><ele>498.0</ele><time>2026-04-18T07:12:39.094Z</time></trkpt><trkpt lat="43.0079876" lon="13.3147877"><ele>497.4</ele><time>2026-04-18T07:12:45.027Z</time></trkpt><trkpt lat="43.0079933" lon="13.3149295"><ele>496.79999999999995</ele><time>2026-04-18T07:12:47.066Z</time></trkpt><trkpt lat="43.0080171" lon="13.3150129"><ele>496.2</ele><time>2026-04-18T07:12:48.065Z</time></trkpt><trkpt lat="43.0080788" lon="13.3151588"><ele>495.6</ele><time>2026-04-18T07:12:50.073Z</time></trkpt><trkpt lat="43.0081334" lon="13.3152515"><ele>495.0</ele><time>2026-04-18T07:12:52.073Z</time></trkpt><trkpt lat="43.0081735" lon="13.3154002"><ele>498.0</ele><time>2026-04-18T07:12:54.06Z</time></trkpt><trkpt lat="43.0081793" lon="13.3155983"><ele>501.0</ele><time>2026-04-18T07:12:56.053Z</time></trkpt><trkpt lat="43.0081935" lon="13.315764"><ele>504.0</ele><time>2026-04-18T07:12:58.076Z</time></trkpt><trkpt lat="43.0081736" lon="13.3158468"><ele>507.0</ele><time>2026-04-18T07:12:59.072Z</time></trkpt><trkpt lat="43.0081189" lon="13.3159098"><ele>510.0</ele><time>2026-04-18T07:13:00.041Z</time></trkpt><trkpt lat="43.0080489" lon="13.3159849"><ele>510.0</ele><time>2026-04-18T07:13:01.122Z</time></trkpt><trkpt lat="43.0079732" lon="13.3160797"><ele>510.0</ele><time>2026-04-18T07:13:02.039Z</time></trkpt><trkpt lat="43.0079068" lon="13.316142"><ele>510.0</ele><time>2026-04-18T07:13:03.037Z</time></trkpt><trkpt lat="43.0078275" lon="13.3162293"><ele>510.0</ele><time>2026-04-18T07:13:04.052Z</time></trkpt><trkpt lat="43.0077781" lon="13.3163271"><ele>510.0</ele><time>2026-04-18T07:13:05.025Z</time></trkpt><trkpt lat="43.0077482" lon="13.3164228"><ele>510.0</ele><time>2026-04-18T07:13:06.032Z</time></trkpt><trkpt lat="43.0076943" lon="13.3165538"><ele>507.5</ele><time>2026-04-18T07:13:07.049Z</time></trkpt><trkpt lat="43.0076352" lon="13.3166902"><ele>505.0</ele><time>2026-04-18T07:13:08.049Z</time></trkpt><trkpt lat="43.0076011" lon="13.3168325"><ele>502.5</ele><time>2026-04-18T07:13:09.056Z</time></trkpt><trkpt lat="43.0075549" lon="13.3170254"><ele>500.0</ele><time>2026-04-18T07:13:10.068Z</time></trkpt><trkpt lat="43.0075319" lon="13.3172048"><ele>498.4</ele><time>2026-04-18T07:13:11.076Z</time></trkpt><trkpt lat="43.0075412" lon="13.3173381"><ele>496.8</ele><time>2026-04-18T07:13:12.099Z</time></trkpt><trkpt lat="43.0075341" lon="13.3174832"><ele>495.20000000000005</ele><time>2026-04-18T07:13:13.044Z</time></trkpt><trkpt lat="43.007533" lon="13.3176019"><ele>493.6</ele><time>2026-04-18T07:13:14.064Z</time></trkpt><trkpt lat="43.0075093" lon="13.3177607"><ele>492.0</ele><time>2026-04-18T07:13:16.058Z</time></trkpt><trkpt lat="43.0074094" lon="13.3179484"><ele>499.25</ele><time>2026-04-18T07:13:18.097Z</time></trkpt><trkpt lat="43.0073116" lon="13.3181456"><ele>506.5</ele><time>2026-04-18T07:13:19.049Z</time></trkpt><trkpt lat="43.0072619" lon="13.3183354"><ele>513.75</ele><time>2026-04-18T07:13:20.079Z</time></trkpt><trkpt lat="43.0071942" lon="13.31843"><ele>521.0</ele><time>2026-04-18T07:13:21.079Z</time></trkpt><trkpt lat="43.0070728" lon="13.3185276"><ele>521.0</ele><time>2026-04-18T07:13:22.061Z</time></trkpt><trkpt lat="43.0069559" lon="13.3186106"><ele>521.0</ele><time>2026-04-18T07:13:23.06Z</time></trkpt><trkpt lat="43.0068058" lon="13.3186968"><ele>521.0</ele><time>2026-04-18T07:13:24.051Z</time></trkpt><trkpt lat="43.0067006" lon="13.3187596"><ele>521.0</ele><time>2026-04-18T07:13:25.072Z</time></trkpt><trkpt lat="43.0065986" lon="13.3188254"><ele>520.75</ele><time>2026-04-18T07:13:26.098Z</time></trkpt><trkpt lat="43.0064772" lon="13.3189115"><ele>520.5</ele><time>2026-04-18T07:13:27.079Z</time></trkpt><trkpt lat="43.0063718" lon="13.3189873"><ele>520.25</ele><time>2026-04-18T07:13:28.073Z</time></trkpt><trkpt lat="43.0062798" lon="13.3190615"><ele>520.0</ele><time>2026-04-18T07:13:29.063Z</time></trkpt><trkpt lat="43.0061894" lon="13.3191231"><ele>520.0</ele><time>2026-04-18T07:13:30.099Z</time></trkpt><trkpt lat="43.0060938" lon="13.3191911"><ele>520.0</ele><time>2026-04-18T07:13:31.041Z</time></trkpt><trkpt lat="43.0059878" lon="13.3192369"><ele>520.0</ele><time>2026-04-18T07:13:32.055Z</time></trkpt><trkpt lat="43.0058858" lon="13.319278"><ele>520.0</ele><time>2026-04-18T07:13:33.072Z</time></trkpt><trkpt lat="43.0057652" lon="13.3192877"><ele>520.0</ele><time>2026-04-18T07:13:34.05Z</time></trkpt><trkpt lat="43.0056665" lon="13.3192924"><ele>524.8</ele><time>2026-04-18T07:13:35.067Z</time></trkpt><trkpt lat="43.0055599" lon="13.3193209"><ele>529.6</ele><time>2026-04-18T07:13:36.044Z</time></trkpt><trkpt lat="43.0054584" lon="13.3193746"><ele>534.4</ele><time>2026-04-18T07:13:37.076Z</time></trkpt><trkpt lat="43.0053575" lon="13.3194298"><ele>539.2</ele><time>2026-04-18T07:13:38.038Z</time></trkpt><trkpt lat="43.0052592" lon="13.3194791"><ele>544.0</ele><time>2026-04-18T07:13:39.058Z</time></trkpt><trkpt lat="43.0051577" lon="13.3195315"><ele>544.0</ele><time>2026-04-18T07:13:40.066Z</time></trkpt><trkpt lat="43.0050552" lon="13.3195811"><ele>544.0</ele><time>2026-04-18T07:13:41.066Z</time></trkpt><trkpt lat="43.0049527" lon="13.3196365"><ele>544.0</ele><time>2026-04-18T07:13:42.055Z</time></trkpt><trkpt lat="43.0048575" lon="13.3196868"><ele>544.0</ele><time>2026-04-18T07:13:43.08Z</time></trkpt><trkpt lat="43.0047703" lon="13.3197398"><ele>544.0</ele><time>2026-04-18T07:13:44.061Z</time></trkpt><trkpt lat="43.0047029" lon="13.319805"><ele>544.0</ele><time>2026-04-18T07:13:45.052Z</time></trkpt><trkpt lat="43.0046337" lon="13.3198689"><ele>544.0</ele><time>2026-04-18T07:13:46.063Z</time></trkpt><trkpt lat="43.0045671" lon="13.3199526"><ele>544.0</ele><time>2026-04-18T07:13:47.085Z</time></trkpt><trkpt lat="43.0045052" lon="13.3200414"><ele>544.0</ele><time>2026-04-18T07:13:48.077Z</time></trkpt><trkpt lat="43.0044722" lon="13.3201395"><ele>544.0</ele><time>2026-04-18T07:13:49.084Z</time></trkpt><trkpt lat="43.0044448" lon="13.3202308"><ele>544.0</ele><time>2026-04-18T07:13:50.07Z</time></trkpt><trkpt lat="43.004404" lon="13.3203187"><ele>544.0</ele><time>2026-04-18T07:13:51.065Z</time></trkpt><trkpt lat="43.004322" lon="13.3203979"><ele>544.0</ele><time>2026-04-18T07:13:52.066Z</time></trkpt><trkpt lat="43.0042484" lon="13.3204829"><ele>544.0</ele><time>2026-04-18T07:13:53.077Z</time></trkpt><trkpt lat="43.0041844" lon="13.3205431"><ele>544.0</ele><time>2026-04-18T07:13:54.063Z</time></trkpt><trkpt lat="43.0041326" lon="13.3205984"><ele>544.0</ele><time>2026-04-18T07:13:55.048Z</time></trkpt><trkpt lat="43.0040942" lon="13.3207496"><ele>546.4285714285713</ele><time>2026-04-18T07:13:57.061Z</time></trkpt><trkpt lat="43.0040988" lon="13.3208496"><ele>548.8571428571429</ele><time>2026-04-18T07:13:58.041Z</time></trkpt><trkpt lat="43.0040979" lon="13.3209382"><ele>551.2857142857142</ele><time>2026-04-18T07:13:59.058Z</time></trkpt><trkpt lat="43.00409" lon="13.3210574"><ele>553.7142857142857</ele><time>2026-04-18T07:14:00.071Z</time></trkpt><trkpt lat="43.0040504" lon="13.3211497"><ele>556.1428571428571</ele><time>2026-04-18T07:14:01.067Z</time></trkpt><trkpt lat="43.0039992" lon="13.3212267"><ele>558.5714285714286</ele><time>2026-04-18T07:14:02.046Z</time></trkpt><trkpt lat="43.0039553" lon="13.321292"><ele>561.0</ele><time>2026-04-18T07:14:03.084Z</time></trkpt><trkpt lat="43.0038812" lon="13.3213546"><ele>554.8</ele><time>2026-04-18T07:14:04.073Z</time></trkpt><trkpt lat="43.0038059" lon="13.3214902"><ele>548.6</ele><time>2026-04-18T07:14:06.079Z</time></trkpt><trkpt lat="43.0037545" lon="13.3215789"><ele>542.4</ele><time>2026-04-18T07:14:07.065Z</time></trkpt><trkpt lat="43.0037297" lon="13.3216688"><ele>536.2</ele><time>2026-04-18T07:14:08.07Z</time></trkpt><trkpt lat="43.0037072" lon="13.3217509"><ele>530.0</ele><time>2026-04-18T07:14:09.066Z</time></trkpt><trkpt lat="43.0037112" lon="13.321922"><ele>530.0</ele><time>2026-04-18T07:14:11.074Z</time></trkpt><trkpt lat="43.0037657" lon="13.3220801"><ele>530.0</ele><time>2026-04-18T07:14:13.076Z</time></trkpt><trkpt lat="43.0038062" lon="13.322157"><ele>530.0</ele><time>2026-04-18T07:14:14.111Z</time></trkpt><trkpt lat="43.003856" lon="13.3222142"><ele>530.0</ele><time>2026-04-18T07:14:15.062Z</time></trkpt><trkpt lat="43.0039266" lon="13.322341"><ele>530.0</ele><time>2026-04-18T07:14:17.076Z</time></trkpt><trkpt lat="43.0039881" lon="13.3223903"><ele>525.0</ele><time>2026-04-18T07:14:18.079Z</time></trkpt><trkpt lat="43.0040598" lon="13.3223878"><ele>520.0</ele><time>2026-04-18T07:14:19.072Z</time></trkpt><trkpt lat="43.0041628" lon="13.3223379"><ele>515.0</ele><time>2026-04-18T07:14:20.115Z</time></trkpt><trkpt lat="43.0042826" lon="13.3222466"><ele>510.0</ele><time>2026-04-18T07:14:21.06Z</time></trkpt><trkpt lat="43.0044089" lon="13.3221838"><ele>508.6</ele><time>2026-04-18T07:14:22.063Z</time></trkpt><trkpt lat="43.0045167" lon="13.3221218"><ele>507.2</ele><time>2026-04-18T07:14:23.065Z</time></trkpt><trkpt lat="43.0046041" lon="13.3220738"><ele>505.79999999999995</ele><time>2026-04-18T07:14:24.069Z</time></trkpt><trkpt lat="43.0046959" lon="13.3220405"><ele>504.4</ele><time>2026-04-18T07:14:25.076Z</time></trkpt><trkpt lat="43.0047886" lon="13.3220177"><ele>503.0</ele><time>2026-04-18T07:14:26.031Z</time></trkpt><trkpt lat="43.0048729" lon="13.3219964"><ele>502.99999999999994</ele><time>2026-04-18T07:14:27.078Z</time></trkpt><trkpt lat="43.0049464" lon="13.3219984"><ele>503.0</ele><time>2026-04-18T07:14:28.07Z</time></trkpt><trkpt lat="43.0050635" lon="13.3220478"><ele>503.0</ele><time>2026-04-18T07:14:30.073Z</time></trkpt><trkpt lat="43.005127" lon="13.32208"><ele>503.0</ele><time>2026-04-18T07:14:31.053Z</time></trkpt><trkpt lat="43.0052162" lon="13.3221227"><ele>502.99999999999994</ele><time>2026-04-18T07:14:33.07Z</time></trkpt><trkpt lat="43.0052649" lon="13.3221798"><ele>503.0</ele><time>2026-04-18T07:14:34.062Z</time></trkpt><trkpt lat="43.0053083" lon="13.322261"><ele>505.79999999999995</ele><time>2026-04-18T07:14:35.074Z</time></trkpt><trkpt lat="43.0053779" lon="13.3223733"><ele>508.59999999999997</ele><time>2026-04-18T07:14:37.075Z</time></trkpt><trkpt lat="43.0055206" lon="13.3224195"><ele>511.40000000000003</ele><time>2026-04-18T07:14:39.086Z</time></trkpt><trkpt lat="43.0055862" lon="13.3224145"><ele>514.2</ele><time>2026-04-18T07:14:40.085Z</time></trkpt><trkpt lat="43.0056566" lon="13.3223751"><ele>517.0</ele><time>2026-04-18T07:14:41.042Z</time></trkpt><trkpt lat="43.0057434" lon="13.3223052"><ele>515.0</ele><time>2026-04-18T07:14:42.163Z</time></trkpt><trkpt lat="43.0058518" lon="13.3222093"><ele>513.0</ele><time>2026-04-18T07:14:43.079Z</time></trkpt><trkpt lat="43.0059543" lon="13.3221244"><ele>511.0</ele><time>2026-04-18T07:14:44.074Z</time></trkpt><trkpt lat="43.0060395" lon="13.3220442"><ele>509.0</ele><time>2026-04-18T07:14:45.083Z</time></trkpt><trkpt lat="43.0061595" lon="13.3219265"><ele>509.0</ele><time>2026-04-18T07:14:46.042Z</time></trkpt><trkpt lat="43.0062691" lon="13.3218285"><ele>509.0</ele><time>2026-04-18T07:14:47.064Z</time></trkpt><trkpt lat="43.0063486" lon="13.3217492"><ele>509.0</ele><time>2026-04-18T07:14:48.132Z</time></trkpt><trkpt lat="43.0064035" lon="13.3216981"><ele>509.0</ele><time>2026-04-18T07:14:49.079Z</time></trkpt><trkpt lat="43.0064915" lon="13.321638"><ele>509.0</ele><time>2026-04-18T07:14:51.048Z</time></trkpt><trkpt lat="43.0065788" lon="13.3217345"><ele>508.99999999999994</ele><time>2026-04-18T07:15:12.044Z</time></trkpt><trkpt lat="43.0066169" lon="13.3218645"><ele>509.0</ele><time>2026-04-18T07:15:14.082Z</time></trkpt><trkpt lat="43.0066395" lon="13.3219477"><ele>509.0</ele><time>2026-04-18T07:15:15.069Z</time></trkpt><trkpt lat="43.0066574" lon="13.3220384"><ele>509.0</ele><time>2026-04-18T07:15:16.042Z</time></trkpt><trkpt lat="43.006686" lon="13.3221596"><ele>508.99999999999994</ele><time>2026-04-18T07:15:17.078Z</time></trkpt><trkpt lat="43.0067169" lon="13.3222762"><ele>509.0</ele><time>2026-04-18T07:15:18.07Z</time></trkpt><trkpt lat="43.0067471" lon="13.3223715"><ele>513.1666666666666</ele><time>2026-04-18T07:15:19.073Z</time></trkpt><trkpt lat="43.0067964" lon="13.3224469"><ele>517.3333333333333</ele><time>2026-04-18T07:15:20.076Z</time></trkpt><trkpt lat="43.0068672" lon="13.3225229"><ele>521.5</ele><time>2026-04-18T07:15:21.052Z</time></trkpt><trkpt lat="43.0069478" lon="13.3225987"><ele>525.6666666666666</ele><time>2026-04-18T07:15:22.053Z</time></trkpt><trkpt lat="43.0070332" lon="13.3226376"><ele>529.8333333333334</ele><time>2026-04-18T07:15:23.081Z</time></trkpt><trkpt lat="43.0071083" lon="13.322679"><ele>534.0</ele><time>2026-04-18T07:15:24.079Z</time></trkpt><trkpt lat="43.007171" lon="13.3227539"><ele>534.0</ele><time>2026-04-18T07:15:25.065Z</time></trkpt><trkpt lat="43.0072449" lon="13.3228568"><ele>534.0</ele><time>2026-04-18T07:15:26.045Z</time></trkpt><trkpt lat="43.0072927" lon="13.3229863"><ele>534.0</ele><time>2026-04-18T07:15:27.047Z</time></trkpt><trkpt lat="43.0073252" lon="13.3231123"><ele>534.0</ele><time>2026-04-18T07:15:28.068Z</time></trkpt><trkpt lat="43.0073551" lon="13.3232044"><ele>534.0</ele><time>2026-04-18T07:15:29.052Z</time></trkpt><trkpt lat="43.0073909" lon="13.3232923"><ele>538.2</ele><time>2026-04-18T07:15:30.05Z</time></trkpt><trkpt lat="43.0074956" lon="13.3233707"><ele>542.4</ele><time>2026-04-18T07:15:32.058Z</time></trkpt><trkpt lat="43.0075627" lon="13.3233687"><ele>546.6</ele><time>2026-04-18T07:15:33.077Z</time></trkpt><trkpt lat="43.0076565" lon="13.3233508"><ele>550.8</ele><time>2026-04-18T07:15:34.07Z</time></trkpt><trkpt lat="43.0077763" lon="13.3233247"><ele>555.0</ele><time>2026-04-18T07:15:35.081Z</time></trkpt><trkpt lat="43.0078695" lon="13.323292"><ele>555.0</ele><time>2026-04-18T07:15:36.057Z</time></trkpt><trkpt lat="43.0079561" lon="13.3232829"><ele>555.0</ele><time>2026-04-18T07:15:37.123Z</time></trkpt><trkpt lat="43.0080376" lon="13.3232434"><ele>555.0</ele><time>2026-04-18T07:15:38.08Z</time></trkpt><trkpt lat="43.0080937" lon="13.3231565"><ele>555.0</ele><time>2026-04-18T07:15:39.071Z</time></trkpt><trkpt lat="43.0081508" lon="13.3230434"><ele>555.0</ele><time>2026-04-18T07:15:40.069Z</time></trkpt><trkpt lat="43.0081929" lon="13.322927"><ele>553.6</ele><time>2026-04-18T07:15:41.042Z</time></trkpt><trkpt lat="43.0082285" lon="13.3228301"><ele>552.2</ele><time>2026-04-18T07:15:42.06Z</time></trkpt><trkpt lat="43.0082853" lon="13.3227407"><ele>550.8</ele><time>2026-04-18T07:15:43.119Z</time></trkpt><trkpt lat="43.0083689" lon="13.3226644"><ele>549.4</ele><time>2026-04-18T07:15:44.043Z</time></trkpt><trkpt lat="43.0084714" lon="13.3225955"><ele>548.0</ele><time>2026-04-18T07:15:45.034Z</time></trkpt><trkpt lat="43.0085833" lon="13.3225734"><ele>548.0</ele><time>2026-04-18T07:15:46.034Z</time></trkpt><trkpt lat="43.0086721" lon="13.3225515"><ele>548.0</ele><time>2026-04-18T07:15:47.034Z</time></trkpt><trkpt lat="43.0087844" lon="13.3225181"><ele>548.0</ele><time>2026-04-18T07:15:48.081Z</time></trkpt><trkpt lat="43.0088935" lon="13.322454"><ele>548.0</ele><time>2026-04-18T07:15:49.063Z</time></trkpt><trkpt lat="43.0090036" lon="13.3223847"><ele>548.0</ele><time>2026-04-18T07:15:50.061Z</time></trkpt><trkpt lat="43.0090933" lon="13.3223255"><ele>550.6666666666666</ele><time>2026-04-18T07:15:51.064Z</time></trkpt><trkpt lat="43.009183" lon="13.3222843"><ele>553.3333333333333</ele><time>2026-04-18T07:15:52.069Z</time></trkpt><trkpt lat="43.0092662" lon="13.3222418"><ele>556.0</ele><time>2026-04-18T07:15:53.068Z</time></trkpt><trkpt lat="43.0093523" lon="13.322267"><ele>558.6666666666666</ele><time>2026-04-18T07:15:54.101Z</time></trkpt><trkpt lat="43.0094302" lon="13.3223041"><ele>561.3333333333334</ele><time>2026-04-18T07:15:55.08Z</time></trkpt><trkpt lat="43.009484" lon="13.3223925"><ele>564.0</ele><time>2026-04-18T07:15:56.064Z</time></trkpt><trkpt lat="43.0095312" lon="13.3224975"><ele>564.0</ele><time>2026-04-18T07:15:57.087Z</time></trkpt><trkpt lat="43.0095587" lon="13.3226059"><ele>564.0</ele><time>2026-04-18T07:15:58.087Z</time></trkpt><trkpt lat="43.0095792" lon="13.3227398"><ele>564.0</ele><time>2026-04-18T07:15:59.081Z</time></trkpt><trkpt lat="43.0096078" lon="13.3229"><ele>564.0</ele><time>2026-04-18T07:16:00.098Z</time></trkpt><trkpt lat="43.0096462" lon="13.3230376"><ele>564.0</ele><time>2026-04-18T07:16:01.068Z</time></trkpt><trkpt lat="43.0096891" lon="13.323179"><ele>564.2857142857143</ele><time>2026-04-18T07:16:02.076Z</time></trkpt><trkpt lat="43.0097147" lon="13.3232658"><ele>564.5714285714286</ele><time>2026-04-18T07:16:03.073Z</time></trkpt><trkpt lat="43.0097751" lon="13.32333"><ele>564.8571428571429</ele><time>2026-04-18T07:16:07.065Z</time></trkpt><trkpt lat="43.009847" lon="13.3233303"><ele>565.1428571428571</ele><time>2026-04-18T07:16:10.062Z</time></trkpt><trkpt lat="43.0099197" lon="13.3233431"><ele>565.4285714285714</ele><time>2026-04-18T07:16:13.047Z</time></trkpt><trkpt lat="43.0099765" lon="13.3233957"><ele>565.7142857142858</ele><time>2026-04-18T07:16:16.084Z</time></trkpt><trkpt lat="43.0100521" lon="13.3234439"><ele>566.0</ele><time>2026-04-18T07:17:05.084Z</time></trkpt><trkpt lat="43.0101104" lon="13.3233584"><ele>566.0</ele><time>2026-04-18T07:17:08.074Z</time></trkpt><trkpt lat="43.0101728" lon="13.3232964"><ele>566.0</ele><time>2026-04-18T07:17:10.08Z</time></trkpt><trkpt lat="43.0102672" lon="13.323275"><ele>566.0</ele><time>2026-04-18T07:17:12.059Z</time></trkpt><trkpt lat="43.0103614" lon="13.3232861"><ele>566.0</ele><time>2026-04-18T07:17:14.058Z</time></trkpt><trkpt lat="43.0104701" lon="13.3232606"><ele>566.0</ele><time>2026-04-18T07:17:16.112Z</time></trkpt><trkpt lat="43.0105353" lon="13.3232194"><ele>566.0</ele><time>2026-04-18T07:17:17.049Z</time></trkpt><trkpt lat="43.0106181" lon="13.3231565"><ele>563.2</ele><time>2026-04-18T07:17:18.072Z</time></trkpt><trkpt lat="43.0107144" lon="13.3230639"><ele>560.4000000000001</ele><time>2026-04-18T07:17:19.049Z</time></trkpt><trkpt lat="43.010807" lon="13.3229745"><ele>557.6</ele><time>2026-04-18T07:17:20.065Z</time></trkpt><trkpt lat="43.0108907" lon="13.3229095"><ele>554.8000000000001</ele><time>2026-04-18T07:17:21.035Z</time></trkpt><trkpt lat="43.010958" lon="13.3228602"><ele>552.0</ele><time>2026-04-18T07:17:22.051Z</time></trkpt><trkpt lat="43.0110421" lon="13.32276"><ele>551.6</ele><time>2026-04-18T07:17:24.087Z</time></trkpt><trkpt lat="43.0111217" lon="13.3226299"><ele>551.2</ele><time>2026-04-18T07:17:26.106Z</time></trkpt><trkpt lat="43.011178" lon="13.3225054"><ele>550.8</ele><time>2026-04-18T07:17:28.056Z</time></trkpt><trkpt lat="43.011227" lon="13.3224214"><ele>550.4</ele><time>2026-04-18T07:17:30.08Z</time></trkpt><trkpt lat="43.0112596" lon="13.3223449"><ele>550.0</ele><time>2026-04-18T07:17:32.036Z</time></trkpt><trkpt lat="43.0112797" lon="13.3222437"><ele>546.6666666666667</ele><time>2026-04-18T07:17:34.068Z</time></trkpt><trkpt lat="43.0112898" lon="13.3221258"><ele>543.3333333333334</ele><time>2026-04-18T07:17:36.064Z</time></trkpt><trkpt lat="43.0113103" lon="13.3220335"><ele>540.0</ele><time>2026-04-18T07:17:38.08Z</time></trkpt><trkpt lat="43.0113448" lon="13.3219581"><ele>536.6666666666666</ele><time>2026-04-18T07:17:39.072Z</time></trkpt><trkpt lat="43.0113938" lon="13.3218875"><ele>533.3333333333333</ele><time>2026-04-18T07:17:40.077Z</time></trkpt><trkpt lat="43.0114732" lon="13.3217918"><ele>530.0</ele><time>2026-04-18T07:17:42.047Z</time></trkpt><trkpt lat="43.0115579" lon="13.3217108"><ele>530.0</ele><time>2026-04-18T07:17:44.055Z</time></trkpt><trkpt lat="43.0116328" lon="13.3216442"><ele>530.0</ele><time>2026-04-18T07:17:46.065Z</time></trkpt><trkpt lat="43.0117153" lon="13.3216033"><ele>530.0</ele><time>2026-04-18T07:17:50.086Z</time></trkpt><trkpt lat="43.0117708" lon="13.3215117"><ele>530.0</ele><time>2026-04-18T07:17:54.068Z</time></trkpt><trkpt lat="43.0116997" lon="13.3214782"><ele>530.0</ele><time>2026-04-18T07:18:00.09Z</time></trkpt><trkpt lat="43.0116371" lon="13.3214445"><ele>530.0</ele><time>2026-04-18T07:18:02.026Z</time></trkpt><trkpt lat="43.0115615" lon="13.3213894"><ele>524.8</ele><time>2026-04-18T07:18:04.052Z</time></trkpt><trkpt lat="43.0114523" lon="13.3212999"><ele>519.6</ele><time>2026-04-18T07:18:07.031Z</time></trkpt><trkpt lat="43.0113816" lon="13.3212407"><ele>514.4</ele><time>2026-04-18T07:18:09.065Z</time></trkpt><trkpt lat="43.0112998" lon="13.3211931"><ele>509.2</ele><time>2026-04-18T07:18:11.063Z</time></trkpt><trkpt lat="43.011224" lon="13.3211811"><ele>504.0</ele><time>2026-04-18T07:18:13.05Z</time></trkpt><trkpt lat="43.0111322" lon="13.321176"><ele>504.0</ele><time>2026-04-18T07:18:15.048Z</time></trkpt><trkpt lat="43.0110635" lon="13.3211911"><ele>504.0</ele><time>2026-04-18T07:18:17.031Z</time></trkpt><trkpt lat="43.0109822" lon="13.3212213"><ele>504.0</ele><time>2026-04-18T07:18:20.044Z</time></trkpt><trkpt lat="43.0109038" lon="13.3212461"><ele>504.0</ele><time>2026-04-18T07:18:23.051Z</time></trkpt><trkpt lat="43.0108313" lon="13.3212179"><ele>504.0</ele><time>2026-04-18T07:18:26.03Z</time></trkpt><trkpt lat="43.0108274" lon="13.3211278"><ele>504.0</ele><time>2026-04-18T07:18:30.062Z</time></trkpt><trkpt lat="43.0108681" lon="13.3210529"><ele>504.0</ele><time>2026-04-18T07:18:33.065Z</time></trkpt><trkpt lat="43.0109258" lon="13.3209821"><ele>504.0</ele><time>2026-04-18T07:18:35.076Z</time></trkpt><trkpt lat="43.0110026" lon="13.320908"><ele>504.0</ele><time>2026-04-18T07:18:37.04Z</time></trkpt><trkpt lat="43.0111022" lon="13.320832"><ele>504.0</ele><time>2026-04-18T07:18:39.078Z</time></trkpt><trkpt lat="43.0111891" lon="13.3207778"><ele>504.0</ele><time>2026-04-18T07:18:41.037Z</time></trkpt><trkpt lat="43.0112655" lon="13.3207451"><ele>504.0</ele><time>2026-04-18T07:18:44.043Z</time></trkpt><trkpt lat="43.0113508" lon="13.3207233"><ele>504.0</ele><time>2026-04-18T07:18:54.074Z</time></trkpt><trkpt lat="43.0112912" lon="13.3206242"><ele>504.0</ele><time>2026-04-18T07:19:00.048Z</time></trkpt><trkpt lat="43.0112204" lon="13.3205931"><ele>504.0</ele><time>2026-04-18T07:19:02.059Z</time></trkpt><trkpt lat="43.0111256" lon="13.3205564"><ele>504.0</ele><time>2026-04-18T07:19:04.049Z</time></trkpt><trkpt lat="43.0109851" lon="13.3205313"><ele>504.0</ele><time>2026-04-18T07:19:07.064Z</time></trkpt><trkpt lat="43.0108547" lon="13.3204968"><ele>503.5</ele><time>2026-04-18T07:19:10.046Z</time></trkpt><trkpt lat="43.0107839" lon="13.3204787"><ele>503.0</ele><time>2026-04-18T07:19:12.044Z</time></trkpt><trkpt lat="43.0107104" lon="13.3204825"><ele>502.5</ele><time>2026-04-18T07:19:15.044Z</time></trkpt><trkpt lat="43.0106434" lon="13.3205426"><ele>502.0</ele><time>2026-04-18T07:19:18.047Z</time></trkpt><trkpt lat="43.0105818" lon="13.3205857"><ele>501.5</ele><time>2026-04-18T07:19:20.053Z</time></trkpt><trkpt lat="43.0105013" lon="13.3206078"><ele>501.0</ele><time>2026-04-18T07:19:30.069Z</time></trkpt><trkpt lat="43.0104177" lon="13.3205535"><ele>497.5</ele><time>2026-04-18T07:19:43.093Z</time></trkpt><trkpt lat="43.0103469" lon="13.3205324"><ele>494.0</ele><time>2026-04-18T07:19:59.057Z</time></trkpt><trkpt lat="43.0103676" lon="13.3203883"><ele>490.5</ele><time>2026-04-18T07:20:10.066Z</time></trkpt><trkpt lat="43.0104156" lon="13.3203062"><ele>487.0</ele><time>2026-04-18T07:20:15.066Z</time></trkpt><trkpt lat="43.0104618" lon="13.3202359"><ele>483.5</ele><time>2026-04-18T07:20:19.052Z</time></trkpt><trkpt lat="43.0105202" lon="13.3201936"><ele>480.0</ele><time>2026-04-18T07:20:22.109Z</time></trkpt><trkpt lat="43.0105795" lon="13.3201337"><ele>480.0</ele><time>2026-04-18T07:20:24.015Z</time></trkpt><trkpt lat="43.0106544" lon="13.3200653"><ele>480.0</ele><time>2026-04-18T07:20:26.066Z</time></trkpt><trkpt lat="43.0107271" lon="13.3199874"><ele>480.0</ele><time>2026-04-18T07:20:28.073Z</time></trkpt><trkpt lat="43.0108124" lon="13.3199436"><ele>480.0</ele><time>2026-04-18T07:20:30.068Z</time></trkpt><trkpt lat="43.0108907" lon="13.3199071"><ele>480.0</ele><time>2026-04-18T07:20:32.029Z</time></trkpt><trkpt lat="43.0109665" lon="13.3198744"><ele>480.0</ele><time>2026-04-18T07:20:35.04Z</time></trkpt><trkpt lat="43.0110457" lon="13.3198545"><ele>479.5</ele><time>2026-04-18T07:20:40.038Z</time></trkpt><trkpt lat="43.0111177" lon="13.3197851"><ele>479.0</ele><time>2026-04-18T07:20:43.052Z</time></trkpt><trkpt lat="43.0111968" lon="13.3197273"><ele>478.5</ele><time>2026-04-18T07:20:45.053Z</time></trkpt><trkpt lat="43.0112608" lon="13.3196828"><ele>478.0</ele><time>2026-04-18T07:20:47.051Z</time></trkpt><trkpt lat="43.0113254" lon="13.3196177"><ele>477.5</ele><time>2026-04-18T07:20:50.048Z</time></trkpt><trkpt lat="43.0114226" lon="13.3195453"><ele>477.0</ele><time>2026-04-18T07:20:52.021Z</time></trkpt><trkpt lat="43.0115123" lon="13.3194776"><ele>476.3333333333333</ele><time>2026-04-18T07:20:54.016Z</time></trkpt><trkpt lat="43.0115923" lon="13.3194631"><ele>475.66666666666663</ele><time>2026-04-18T07:20:57.014Z</time></trkpt><trkpt lat="43.0116729" lon="13.3194624"><ele>475.0</ele><time>2026-04-18T07:20:59.067Z</time></trkpt><trkpt lat="43.0117398" lon="13.3194512"><ele>474.3333333333333</ele><time>2026-04-18T07:21:01.066Z</time></trkpt><trkpt lat="43.0118128" lon="13.3194043"><ele>473.66666666666663</ele><time>2026-04-18T07:21:04.05Z</time></trkpt><trkpt lat="43.0118973" lon="13.3193428"><ele>473.0</ele><time>2026-04-18T07:21:06.041Z</time></trkpt><trkpt lat="43.0119838" lon="13.3193483"><ele>473.0</ele><time>2026-04-18T07:21:08.033Z</time></trkpt><trkpt lat="43.0120574" lon="13.3193195"><ele>472.99999999999994</ele><time>2026-04-18T07:21:10.052Z</time></trkpt><trkpt lat="43.0121949" lon="13.3192919"><ele>472.99999999999994</ele><time>2026-04-18T07:21:14.06Z</time></trkpt><trkpt lat="43.0123027" lon="13.3193916"><ele>473.0</ele><time>2026-04-18T07:21:33.05Z</time></trkpt><trkpt lat="43.0123505" lon="13.3194525"><ele>473.0</ele><time>2026-04-18T07:22:22.064Z</time></trkpt><trkpt lat="43.0123976" lon="13.3196172"><ele>473.0</ele><time>2026-04-18T07:23:54.048Z</time></trkpt><trkpt lat="43.0124669" lon="13.3195652"><ele>473.0</ele><time>2026-04-18T07:24:03.032Z</time></trkpt><trkpt lat="43.0125298" lon="13.319534"><ele>473.0</ele><time>2026-04-18T07:24:15.039Z</time></trkpt><trkpt lat="43.0125835" lon="13.3194771"><ele>473.0</ele><time>2026-04-18T07:24:32.072Z</time></trkpt><trkpt lat="43.0126601" lon="13.3194385"><ele>473.0</ele><time>2026-04-18T07:24:53.048Z</time></trkpt><trkpt lat="43.0127175" lon="13.3193997"><ele>473.0</ele><time>2026-04-18T07:24:58.051Z</time></trkpt><trkpt lat="43.0127773" lon="13.3193663"><ele>473.0</ele><time>2026-04-18T07:25:02.052Z</time></trkpt><trkpt lat="43.0128655" lon="13.319333"><ele>472.16666666666663</ele><time>2026-04-18T07:25:05.033Z</time></trkpt><trkpt lat="43.0129442" lon="13.319361"><ele>471.3333333333333</ele><time>2026-04-18T07:25:07.03Z</time></trkpt><trkpt lat="43.0130354" lon="13.3194179"><ele>470.5</ele><time>2026-04-18T07:25:09.019Z</time></trkpt><trkpt lat="43.0130974" lon="13.3194508"><ele>469.66666666666663</ele><time>2026-04-18T07:25:11.029Z</time></trkpt><trkpt lat="43.0131618" lon="13.3195033"><ele>468.8333333333333</ele><time>2026-04-18T07:25:14.061Z</time></trkpt><trkpt lat="43.0132386" lon="13.3195362"><ele>468.0</ele><time>2026-04-18T07:25:16.026Z</time></trkpt><trkpt lat="43.0133125" lon="13.3195668"><ele>468.2</ele><time>2026-04-18T07:25:18.038Z</time></trkpt><trkpt lat="43.0134034" lon="13.3195841"><ele>468.4</ele><time>2026-04-18T07:25:21.041Z</time></trkpt><trkpt lat="43.0134915" lon="13.3196014"><ele>468.59999999999997</ele><time>2026-04-18T07:25:23.045Z</time></trkpt><trkpt lat="43.0136162" lon="13.3196335"><ele>468.79999999999995</ele><time>2026-04-18T07:25:25.036Z</time></trkpt><trkpt lat="43.0137425" lon="13.3196151"><ele>469.0</ele><time>2026-04-18T07:25:27.032Z</time></trkpt><trkpt lat="43.0138103" lon="13.3196187"><ele>469.0</ele><time>2026-04-18T07:25:28.037Z</time></trkpt><trkpt lat="43.0138785" lon="13.3196514"><ele>469.0</ele><time>2026-04-18T07:25:29.018Z</time></trkpt><trkpt lat="43.0139591" lon="13.3196271"><ele>469.0</ele><time>2026-04-18T07:25:30.055Z</time></trkpt><trkpt lat="43.0140732" lon="13.3197035"><ele>469.0</ele><time>2026-04-18T07:25:32.043Z</time></trkpt><trkpt lat="43.014158" lon="13.3197372"><ele>469.0</ele><time>2026-04-18T07:25:34.014Z</time></trkpt><trkpt lat="43.014248" lon="13.3197366"><ele>468.00000000000006</ele><time>2026-04-18T07:25:36.014Z</time></trkpt><trkpt lat="43.0143576" lon="13.3197617"><ele>467.0</ele><time>2026-04-18T07:25:38.044Z</time></trkpt><trkpt lat="43.0144236" lon="13.319785"><ele>466.0</ele><time>2026-04-18T07:25:39.049Z</time></trkpt><trkpt lat="43.0144807" lon="13.3198233"><ele>465.0</ele><time>2026-04-18T07:25:40.045Z</time></trkpt><trkpt lat="43.0145932" lon="13.3197785"><ele>464.00000000000006</ele><time>2026-04-18T07:25:42.035Z</time></trkpt><trkpt lat="43.0146722" lon="13.3197739"><ele>463.0</ele><time>2026-04-18T07:25:43.041Z</time></trkpt><trkpt lat="43.0147455" lon="13.3197569"><ele>463.00000000000006</ele><time>2026-04-18T07:25:44.023Z</time></trkpt><trkpt lat="43.0148324" lon="13.3197588"><ele>463.0</ele><time>2026-04-18T07:25:45.03Z</time></trkpt><trkpt lat="43.0149191" lon="13.3197509"><ele>463.0</ele><time>2026-04-18T07:25:46.058Z</time></trkpt><trkpt lat="43.015005" lon="13.3197241"><ele>463.0</ele><time>2026-04-18T07:25:47.09Z</time></trkpt><trkpt lat="43.0150871" lon="13.3197227"><ele>463.00000000000006</ele><time>2026-04-18T07:25:48.061Z</time></trkpt><trkpt lat="43.0151798" lon="13.3197357"><ele>463.0</ele><time>2026-04-18T07:25:50.047Z</time></trkpt><trkpt lat="43.0152608" lon="13.3197622"><ele>462.59999999999997</ele><time>2026-04-18T07:25:52.034Z</time></trkpt><trkpt lat="43.0153461" lon="13.3197746"><ele>462.19999999999993</ele><time>2026-04-18T07:25:54.039Z</time></trkpt><trkpt lat="43.0154445" lon="13.3197962"><ele>461.8</ele><time>2026-04-18T07:25:56.044Z</time></trkpt><trkpt lat="43.0155611" lon="13.3197752"><ele>461.4</ele><time>2026-04-18T07:25:58.042Z</time></trkpt><trkpt lat="43.0156513" lon="13.3197544"><ele>461.0</ele><time>2026-04-18T07:26:00.005Z</time></trkpt><trkpt lat="43.0157368" lon="13.3197414"><ele>459.4</ele><time>2026-04-18T07:26:01.051Z</time></trkpt><trkpt lat="43.0158392" lon="13.3197584"><ele>457.8</ele><time>2026-04-18T07:26:03.06Z</time></trkpt><trkpt lat="43.0159286" lon="13.3197754"><ele>456.19999999999993</ele><time>2026-04-18T07:26:04.043Z</time></trkpt><trkpt lat="43.016013" lon="13.3197974"><ele>454.59999999999997</ele><time>2026-04-18T07:26:05.051Z</time></trkpt><trkpt lat="43.0161189" lon="13.3198551"><ele>453.0</ele><time>2026-04-18T07:26:07.101Z</time></trkpt><trkpt lat="43.0161759" lon="13.3199098"><ele>453.0</ele><time>2026-04-18T07:26:08.062Z</time></trkpt><trkpt lat="43.0162463" lon="13.319976"><ele>453.0</ele><time>2026-04-18T07:26:09.045Z</time></trkpt><trkpt lat="43.0163342" lon="13.3200876"><ele>453.0</ele><time>2026-04-18T07:26:11.1Z</time></trkpt><trkpt lat="43.0163884" lon="13.3201568"><ele>453.0</ele><time>2026-04-18T07:26:12.105Z</time></trkpt><trkpt lat="43.0164749" lon="13.320207"><ele>453.0</ele><time>2026-04-18T07:26:13.075Z</time></trkpt><trkpt lat="43.0165458" lon="13.3201885"><ele>453.0</ele><time>2026-04-18T07:26:14.05Z</time></trkpt><trkpt lat="43.0166417" lon="13.3201979"><ele>451.79999999999995</ele><time>2026-04-18T07:26:15.061Z</time></trkpt><trkpt lat="43.016744" lon="13.320193"><ele>450.59999999999997</ele><time>2026-04-18T07:26:16.059Z</time></trkpt><trkpt lat="43.0168464" lon="13.3201699"><ele>449.40000000000003</ele><time>2026-04-18T07:26:17.054Z</time></trkpt><trkpt lat="43.0169317" lon="13.3201625"><ele>448.20000000000005</ele><time>2026-04-18T07:26:18.054Z</time></trkpt><trkpt lat="43.0170067" lon="13.3201535"><ele>447.0</ele><time>2026-04-18T07:26:19.039Z</time></trkpt><trkpt lat="43.0170934" lon="13.3201171"><ele>447.0</ele><time>2026-04-18T07:26:20.065Z</time></trkpt><trkpt lat="43.017164" lon="13.3200979"><ele>447.0</ele><time>2026-04-18T07:26:21.068Z</time></trkpt><trkpt lat="43.0172275" lon="13.3200922"><ele>447.0</ele><time>2026-04-18T07:26:22.074Z</time></trkpt><trkpt lat="43.0172927" lon="13.3201035"><ele>447.0</ele><time>2026-04-18T07:26:23.079Z</time></trkpt><trkpt lat="43.017356" lon="13.3201548"><ele>447.0</ele><time>2026-04-18T07:26:24.042Z</time></trkpt><trkpt lat="43.0173986" lon="13.3202468"><ele>447.0</ele><time>2026-04-18T07:26:25.069Z</time></trkpt><trkpt lat="43.0174562" lon="13.320356"><ele>447.0</ele><time>2026-04-18T07:26:26.077Z</time></trkpt><trkpt lat="43.0175432" lon="13.3204335"><ele>447.0</ele><time>2026-04-18T07:26:27.062Z</time></trkpt><trkpt lat="43.0176018" lon="13.3204991"><ele>447.0</ele><time>2026-04-18T07:26:28.078Z</time></trkpt><trkpt lat="43.0176602" lon="13.3205793"><ele>447.0</ele><time>2026-04-18T07:26:29.045Z</time></trkpt><trkpt lat="43.0177135" lon="13.3206449"><ele>447.0</ele><time>2026-04-18T07:26:30.068Z</time></trkpt><trkpt lat="43.0177611" lon="13.3207042"><ele>447.0</ele><time>2026-04-18T07:26:31.085Z</time></trkpt><trkpt lat="43.0178255" lon="13.3208379"><ele>447.0</ele><time>2026-04-18T07:26:33.065Z</time></trkpt><trkpt lat="43.0178587" lon="13.3209189"><ele>447.0</ele><time>2026-04-18T07:26:34.05Z</time></trkpt><trkpt lat="43.0179353" lon="13.3210356"><ele>447.0</ele><time>2026-04-18T07:26:36.066Z</time></trkpt><trkpt lat="43.0179901" lon="13.3210908"><ele>447.0</ele><time>2026-04-18T07:26:37.095Z</time></trkpt><trkpt lat="43.018039" lon="13.3211506"><ele>447.0</ele><time>2026-04-18T07:26:38.111Z</time></trkpt><trkpt lat="43.0180837" lon="13.3212294"><ele>447.0</ele><time>2026-04-18T07:26:39.029Z</time></trkpt><trkpt lat="43.018157" lon="13.3212664"><ele>447.0</ele><time>2026-04-18T07:26:41.065Z</time></trkpt><trkpt lat="43.018265" lon="13.3212631"><ele>447.00000000000006</ele><time>2026-04-18T07:26:43.055Z</time></trkpt><trkpt lat="43.0183955" lon="13.3212675"><ele>447.00000000000006</ele><time>2026-04-18T07:26:45.083Z</time></trkpt><trkpt lat="43.018466" lon="13.3212528"><ele>447.0</ele><time>2026-04-18T07:26:46.062Z</time></trkpt><trkpt lat="43.0185369" lon="13.3212379"><ele>447.0</ele><time>2026-04-18T07:26:47.055Z</time></trkpt><trkpt lat="43.0186103" lon="13.32123"><ele>449.40000000000003</ele><time>2026-04-18T07:26:48.084Z</time></trkpt><trkpt lat="43.018686" lon="13.3212284"><ele>451.80000000000007</ele><time>2026-04-18T07:26:49.052Z</time></trkpt><trkpt lat="43.0188084" lon="13.3212228"><ele>454.2</ele><time>2026-04-18T07:26:50.058Z</time></trkpt><trkpt lat="43.0189204" lon="13.3212115"><ele>456.6</ele><time>2026-04-18T07:26:51.086Z</time></trkpt><trkpt lat="43.0190176" lon="13.3212038"><ele>459.0</ele><time>2026-04-18T07:26:52.071Z</time></trkpt><trkpt lat="43.0190843" lon="13.3211949"><ele>459.6666666666667</ele><time>2026-04-18T07:26:53.065Z</time></trkpt><trkpt lat="43.0191667" lon="13.3212004"><ele>460.33333333333337</ele><time>2026-04-18T07:26:55.084Z</time></trkpt><trkpt lat="43.0191913" lon="13.3212901"><ele>461.0</ele><time>2026-04-18T07:26:58.079Z</time></trkpt><trkpt lat="43.0191722" lon="13.3213722"><ele>461.6666666666667</ele><time>2026-04-18T07:26:59.035Z</time></trkpt><trkpt lat="43.0191246" lon="13.3214756"><ele>462.33333333333337</ele><time>2026-04-18T07:27:00.084Z</time></trkpt><trkpt lat="43.0190697" lon="13.3215855"><ele>463.0</ele><time>2026-04-18T07:27:01.071Z</time></trkpt><trkpt lat="43.0190093" lon="13.3217352"><ele>458.0</ele><time>2026-04-18T07:27:02.092Z</time></trkpt><trkpt lat="43.0189485" lon="13.3218923"><ele>453.0</ele><time>2026-04-18T07:27:03.076Z</time></trkpt><trkpt lat="43.0188697" lon="13.322055"><ele>448.0</ele><time>2026-04-18T07:27:04.083Z</time></trkpt><trkpt lat="43.0187914" lon="13.3222158"><ele>443.0</ele><time>2026-04-18T07:27:05.073Z</time></trkpt><trkpt lat="43.0187145" lon="13.3223739"><ele>440.75</ele><time>2026-04-18T07:27:06.074Z</time></trkpt><trkpt lat="43.0186405" lon="13.3225226"><ele>438.5</ele><time>2026-04-18T07:27:07.08Z</time></trkpt><trkpt lat="43.0185691" lon="13.3226651"><ele>436.25</ele><time>2026-04-18T07:27:08.065Z</time></trkpt><trkpt lat="43.0185002" lon="13.3228067"><ele>434.0</ele><time>2026-04-18T07:27:09.063Z</time></trkpt><trkpt lat="43.0184333" lon="13.3229426"><ele>434.4</ele><time>2026-04-18T07:27:10.068Z</time></trkpt><trkpt lat="43.0183679" lon="13.3230714"><ele>434.79999999999995</ele><time>2026-04-18T07:27:11.084Z</time></trkpt><trkpt lat="43.0183043" lon="13.3231927"><ele>435.20000000000005</ele><time>2026-04-18T07:27:12.071Z</time></trkpt><trkpt lat="43.0182311" lon="13.3232905"><ele>435.6</ele><time>2026-04-18T07:27:13.071Z</time></trkpt><trkpt lat="43.0181481" lon="13.3233545"><ele>436.0</ele><time>2026-04-18T07:27:14.049Z</time></trkpt><trkpt lat="43.0180519" lon="13.3233818"><ele>438.5</ele><time>2026-04-18T07:27:15.135Z</time></trkpt><trkpt lat="43.0179423" lon="13.3233835"><ele>441.0</ele><time>2026-04-18T07:27:16.079Z</time></trkpt><trkpt lat="43.0178294" lon="13.3233696"><ele>443.5</ele><time>2026-04-18T07:27:17.098Z</time></trkpt><trkpt lat="43.0177125" lon="13.323349"><ele>446.0</ele><time>2026-04-18T07:27:18.064Z</time></trkpt><trkpt lat="43.017588" lon="13.3233332"><ele>448.75</ele><time>2026-04-18T07:27:19.085Z</time></trkpt><trkpt lat="43.0174579" lon="13.3233327"><ele>451.5</ele><time>2026-04-18T07:27:20.069Z</time></trkpt><trkpt lat="43.0173297" lon="13.3233489"><ele>454.25</ele><time>2026-04-18T07:27:21.051Z</time></trkpt><trkpt lat="43.0171992" lon="13.3233794"><ele>457.0</ele><time>2026-04-18T07:27:22.063Z</time></trkpt><trkpt lat="43.0170739" lon="13.323429"><ele>457.0</ele><time>2026-04-18T07:27:23.081Z</time></trkpt><trkpt lat="43.0169493" lon="13.3234872"><ele>457.0</ele><time>2026-04-18T07:27:24.069Z</time></trkpt><trkpt lat="43.0168193" lon="13.323552"><ele>457.0</ele><time>2026-04-18T07:27:25.073Z</time></trkpt><trkpt lat="43.0166878" lon="13.3236285"><ele>457.0</ele><time>2026-04-18T07:27:26.071Z</time></trkpt><trkpt lat="43.0165496" lon="13.3236992"><ele>457.33333333333337</ele><time>2026-04-18T07:27:27.134Z</time></trkpt><trkpt lat="43.0164023" lon="13.3237725"><ele>457.66666666666663</ele><time>2026-04-18T07:27:28.103Z</time></trkpt><trkpt lat="43.016238" lon="13.3238517"><ele>458.0</ele><time>2026-04-18T07:27:29.069Z</time></trkpt><trkpt lat="43.0160514" lon="13.3239447"><ele>458.0</ele><time>2026-04-18T07:27:30.096Z</time></trkpt><trkpt lat="43.0158478" lon="13.3240503"><ele>458.0</ele><time>2026-04-18T07:27:31.086Z</time></trkpt><trkpt lat="43.0156344" lon="13.3241611"><ele>458.0</ele><time>2026-04-18T07:27:32.089Z</time></trkpt><trkpt lat="43.015443" lon="13.3242701"><ele>464.3333333333333</ele><time>2026-04-18T07:27:33.089Z</time></trkpt><trkpt lat="43.0152747" lon="13.3243829"><ele>470.66666666666663</ele><time>2026-04-18T07:27:34.077Z</time></trkpt><trkpt lat="43.0151382" lon="13.3245013"><ele>477.0</ele><time>2026-04-18T07:27:35.083Z</time></trkpt><trkpt lat="43.0150367" lon="13.3246288"><ele>480.75</ele><time>2026-04-18T07:27:36.061Z</time></trkpt><trkpt lat="43.0149378" lon="13.3247448"><ele>484.5</ele><time>2026-04-18T07:27:37.063Z</time></trkpt><trkpt lat="43.0148959" lon="13.3249154"><ele>488.25</ele><time>2026-04-18T07:27:38.067Z</time></trkpt><trkpt lat="43.0148708" lon="13.3251025"><ele>492.0</ele><time>2026-04-18T07:27:39.063Z</time></trkpt><trkpt lat="43.0148764" lon="13.3252846"><ele>492.0</ele><time>2026-04-18T07:27:40.061Z</time></trkpt><trkpt lat="43.0149148" lon="13.3254479"><ele>492.0</ele><time>2026-04-18T07:27:41.056Z</time></trkpt><trkpt lat="43.014991" lon="13.3255867"><ele>492.0</ele><time>2026-04-18T07:27:42.059Z</time></trkpt><trkpt lat="43.015104" lon="13.3257064"><ele>492.0</ele><time>2026-04-18T07:27:43.064Z</time></trkpt><trkpt lat="43.0152304" lon="13.3257928"><ele>489.1666666666667</ele><time>2026-04-18T07:27:44.045Z</time></trkpt><trkpt lat="43.0153486" lon="13.3258431"><ele>486.33333333333337</ele><time>2026-04-18T07:27:45.071Z</time></trkpt><trkpt lat="43.0154397" lon="13.325883"><ele>483.5</ele><time>2026-04-18T07:27:46.042Z</time></trkpt><trkpt lat="43.0155075" lon="13.325921"><ele>480.6666666666667</ele><time>2026-04-18T07:27:47.089Z</time></trkpt><trkpt lat="43.0155794" lon="13.3259448"><ele>477.83333333333337</ele><time>2026-04-18T07:27:48.077Z</time></trkpt><trkpt lat="43.0156577" lon="13.3259593"><ele>475.0</ele><time>2026-04-18T07:27:49.08Z</time></trkpt><trkpt lat="43.0157311" lon="13.3259751"><ele>474.1666666666667</ele><time>2026-04-18T07:27:50.131Z</time></trkpt><trkpt lat="43.0158447" lon="13.3260172"><ele>473.33333333333337</ele><time>2026-04-18T07:27:52.066Z</time></trkpt><trkpt lat="43.0158939" lon="13.3260798"><ele>472.5</ele><time>2026-04-18T07:27:53.09Z</time></trkpt><trkpt lat="43.0159391" lon="13.3261566"><ele>471.66666666666663</ele><time>2026-04-18T07:27:54.094Z</time></trkpt><trkpt lat="43.0159607" lon="13.326283"><ele>470.8333333333333</ele><time>2026-04-18T07:27:55.06Z</time></trkpt><trkpt lat="43.0159624" lon="13.3264027"><ele>470.0</ele><time>2026-04-18T07:27:56.042Z</time></trkpt><trkpt lat="43.0159666" lon="13.3265463"><ele>470.0</ele><time>2026-04-18T07:27:57.055Z</time></trkpt><trkpt lat="43.0159525" lon="13.3266921"><ele>470.0</ele><time>2026-04-18T07:27:58.064Z</time></trkpt><trkpt lat="43.0159315" lon="13.3268534"><ele>470.0</ele><time>2026-04-18T07:27:59.045Z</time></trkpt><trkpt lat="43.0159187" lon="13.326998"><ele>470.0</ele><time>2026-04-18T07:28:00.07Z</time></trkpt><trkpt lat="43.0158867" lon="13.3271899"><ele>469.16666666666663</ele><time>2026-04-18T07:28:02.069Z</time></trkpt><trkpt lat="43.0158298" lon="13.3272326"><ele>468.3333333333333</ele><time>2026-04-18T07:28:03.085Z</time></trkpt><trkpt lat="43.015767" lon="13.3272888"><ele>467.5</ele><time>2026-04-18T07:28:04.054Z</time></trkpt><trkpt lat="43.015658" lon="13.3273851"><ele>466.66666666666663</ele><time>2026-04-18T07:28:05.067Z</time></trkpt><trkpt lat="43.0155737" lon="13.3274349"><ele>465.8333333333333</ele><time>2026-04-18T07:28:06.078Z</time></trkpt><trkpt lat="43.0155062" lon="13.3274739"><ele>465.0</ele><time>2026-04-18T07:28:07.085Z</time></trkpt><trkpt lat="43.0154343" lon="13.3275908"><ele>467.5</ele><time>2026-04-18T07:28:09.074Z</time></trkpt><trkpt lat="43.0153905" lon="13.3276814"><ele>470.0</ele><time>2026-04-18T07:28:11.131Z</time></trkpt><trkpt lat="43.0154156" lon="13.3277722"><ele>472.5</ele><time>2026-04-18T07:28:12.09Z</time></trkpt><trkpt lat="43.0154014" lon="13.3278588"><ele>475.0</ele><time>2026-04-18T07:28:13.076Z</time></trkpt><trkpt lat="43.015343" lon="13.3279424"><ele>477.5</ele><time>2026-04-18T07:28:14.114Z</time></trkpt><trkpt lat="43.0152512" lon="13.3279994"><ele>480.0</ele><time>2026-04-18T07:28:15.052Z</time></trkpt><trkpt lat="43.0151304" lon="13.3279918"><ele>480.0</ele><time>2026-04-18T07:28:16.079Z</time></trkpt><trkpt lat="43.0150238" lon="13.3279795"><ele>480.0</ele><time>2026-04-18T07:28:17.095Z</time></trkpt><trkpt lat="43.0149495" lon="13.3279824"><ele>480.0</ele><time>2026-04-18T07:28:18.081Z</time></trkpt><trkpt lat="43.0148808" lon="13.3280052"><ele>480.0</ele><time>2026-04-18T07:28:19.096Z</time></trkpt><trkpt lat="43.0147862" lon="13.3280474"><ele>480.0</ele><time>2026-04-18T07:28:20.04Z</time></trkpt><trkpt lat="43.0146798" lon="13.3280926"><ele>476.4</ele><time>2026-04-18T07:28:21.094Z</time></trkpt><trkpt lat="43.0145953" lon="13.3281498"><ele>472.8</ele><time>2026-04-18T07:28:22.084Z</time></trkpt><trkpt lat="43.0145191" lon="13.3282043"><ele>469.20000000000005</ele><time>2026-04-18T07:28:23.074Z</time></trkpt><trkpt lat="43.0144504" lon="13.3282748"><ele>465.6</ele><time>2026-04-18T07:28:24.061Z</time></trkpt><trkpt lat="43.0143059" lon="13.3283103"><ele>462.0</ele><time>2026-04-18T07:28:26.034Z</time></trkpt><trkpt lat="43.0142179" lon="13.3283193"><ele>462.3333333333333</ele><time>2026-04-18T07:28:27.066Z</time></trkpt><trkpt lat="43.0141437" lon="13.3283102"><ele>462.66666666666663</ele><time>2026-04-18T07:28:28.052Z</time></trkpt><trkpt lat="43.0140679" lon="13.3283022"><ele>463.0</ele><time>2026-04-18T07:28:29.085Z</time></trkpt><trkpt lat="43.0139839" lon="13.3282762"><ele>463.3333333333333</ele><time>2026-04-18T07:28:30.076Z</time></trkpt><trkpt lat="43.0139018" lon="13.3282776"><ele>463.66666666666663</ele><time>2026-04-18T07:28:31.075Z</time></trkpt><trkpt lat="43.013843" lon="13.3283353"><ele>464.0</ele><time>2026-04-18T07:28:32.079Z</time></trkpt><trkpt lat="43.0137679" lon="13.3284364"><ele>463.99999999999994</ele><time>2026-04-18T07:28:34.06Z</time></trkpt><trkpt lat="43.0137572" lon="13.3285308"><ele>464.0</ele><time>2026-04-18T07:28:35.037Z</time></trkpt><trkpt lat="43.013743" lon="13.328624"><ele>464.0</ele><time>2026-04-18T07:28:36.066Z</time></trkpt><trkpt lat="43.013802" lon="13.3286867"><ele>464.0</ele><time>2026-04-18T07:28:38.048Z</time></trkpt><trkpt lat="43.0138668" lon="13.3287574"><ele>463.99999999999994</ele><time>2026-04-18T07:28:39.04Z</time></trkpt><trkpt lat="43.0139004" lon="13.3288598"><ele>464.0</ele><time>2026-04-18T07:28:40.039Z</time></trkpt><trkpt lat="43.0139288" lon="13.328991"><ele>464.6</ele><time>2026-04-18T07:28:41.065Z</time></trkpt><trkpt lat="43.0139538" lon="13.3290984"><ele>465.2</ele><time>2026-04-18T07:28:42.064Z</time></trkpt><trkpt lat="43.0139676" lon="13.3291921"><ele>465.80000000000007</ele><time>2026-04-18T07:28:43.087Z</time></trkpt><trkpt lat="43.0139523" lon="13.3293178"><ele>466.40000000000003</ele><time>2026-04-18T07:28:44.052Z</time></trkpt><trkpt lat="43.013904" lon="13.3294476"><ele>467.0</ele><time>2026-04-18T07:28:45.043Z</time></trkpt><trkpt lat="43.0138388" lon="13.3295557"><ele>467.0</ele><time>2026-04-18T07:28:46.053Z</time></trkpt><trkpt lat="43.0137647" lon="13.3297038"><ele>467.0</ele><time>2026-04-18T07:28:47.068Z</time></trkpt><trkpt lat="43.0136819" lon="13.3298483"><ele>467.0</ele><time>2026-04-18T07:28:48.067Z</time></trkpt><trkpt lat="43.013612" lon="13.3299793"><ele>467.0</ele><time>2026-04-18T07:28:49.128Z</time></trkpt><trkpt lat="43.0135466" lon="13.3301114"><ele>465.8333333333333</ele><time>2026-04-18T07:28:50.05Z</time></trkpt><trkpt lat="43.0134913" lon="13.330232"><ele>464.66666666666663</ele><time>2026-04-18T07:28:51.065Z</time></trkpt><trkpt lat="43.013464" lon="13.3303378"><ele>463.5</ele><time>2026-04-18T07:28:52.073Z</time></trkpt><trkpt lat="43.0134355" lon="13.3304163"><ele>462.33333333333337</ele><time>2026-04-18T07:28:53.065Z</time></trkpt><trkpt lat="43.0134158" lon="13.3305038"><ele>461.1666666666667</ele><time>2026-04-18T07:28:54.069Z</time></trkpt><trkpt lat="43.0134049" lon="13.3306665"><ele>460.0</ele><time>2026-04-18T07:28:56.068Z</time></trkpt><trkpt lat="43.0134195" lon="13.3307536"><ele>459.00000000000006</ele><time>2026-04-18T07:28:57.062Z</time></trkpt><trkpt lat="43.0134675" lon="13.3308538"><ele>458.0</ele><time>2026-04-18T07:28:59.074Z</time></trkpt><trkpt lat="43.0135776" lon="13.3308258"><ele>457.0</ele><time>2026-04-18T07:29:02.072Z</time></trkpt><trkpt lat="43.013647" lon="13.3308121"><ele>456.0</ele><time>2026-04-18T07:29:03.071Z</time></trkpt><trkpt lat="43.0137239" lon="13.330793"><ele>455.00000000000006</ele><time>2026-04-18T07:29:04.079Z</time></trkpt><trkpt lat="43.0138245" lon="13.3308081"><ele>454.0</ele><time>2026-04-18T07:29:05.032Z</time></trkpt><trkpt lat="43.0139553" lon="13.3308051"><ele>454.00000000000006</ele><time>2026-04-18T07:29:06.07Z</time></trkpt><trkpt lat="43.0140714" lon="13.3308574"><ele>454.0</ele><time>2026-04-18T07:29:07.068Z</time></trkpt><trkpt lat="43.0141504" lon="13.3309049"><ele>454.0</ele><time>2026-04-18T07:29:08.068Z</time></trkpt><trkpt lat="43.014238" lon="13.330922"><ele>454.0</ele><time>2026-04-18T07:29:09.069Z</time></trkpt><trkpt lat="43.0143078" lon="13.3309305"><ele>454.00000000000006</ele><time>2026-04-18T07:29:10.046Z</time></trkpt><trkpt lat="43.0143811" lon="13.3309789"><ele>454.0</ele><time>2026-04-18T07:29:11.036Z</time></trkpt><trkpt lat="43.0144561" lon="13.3310644"><ele>453.6</ele><time>2026-04-18T07:29:12.033Z</time></trkpt><trkpt lat="43.0145327" lon="13.3311308"><ele>453.2</ele><time>2026-04-18T07:29:13.03Z</time></trkpt><trkpt lat="43.014619" lon="13.3311647"><ele>452.80000000000007</ele><time>2026-04-18T07:29:14.034Z</time></trkpt><trkpt lat="43.0147254" lon="13.3311428"><ele>452.40000000000003</ele><time>2026-04-18T07:29:15.033Z</time></trkpt><trkpt lat="43.0148467" lon="13.3310417"><ele>452.0</ele><time>2026-04-18T07:29:16.038Z</time></trkpt><trkpt lat="43.0149466" lon="13.3309504"><ele>454.0</ele><time>2026-04-18T07:29:17.038Z</time></trkpt><trkpt lat="43.0150274" lon="13.3308966"><ele>456.00000000000006</ele><time>2026-04-18T07:29:18.047Z</time></trkpt><trkpt lat="43.0151224" lon="13.3308646"><ele>458.00000000000006</ele><time>2026-04-18T07:29:19.047Z</time></trkpt><trkpt lat="43.0152298" lon="13.3308889"><ele>460.0</ele><time>2026-04-18T07:29:20.038Z</time></trkpt><trkpt lat="43.015347" lon="13.3309277"><ele>462.0</ele><time>2026-04-18T07:29:21.049Z</time></trkpt><trkpt lat="43.0154744" lon="13.3309497"><ele>462.0</ele><time>2026-04-18T07:29:22.057Z</time></trkpt><trkpt lat="43.0155967" lon="13.3309965"><ele>462.00000000000006</ele><time>2026-04-18T07:29:23.065Z</time></trkpt><trkpt lat="43.0156759" lon="13.3310471"><ele>462.00000000000006</ele><time>2026-04-18T07:29:24.074Z</time></trkpt><trkpt lat="43.0157613" lon="13.3311264"><ele>462.0</ele><time>2026-04-18T07:29:25.036Z</time></trkpt><trkpt lat="43.0158461" lon="13.3311898"><ele>462.0</ele><time>2026-04-18T07:29:26.083Z</time></trkpt><trkpt lat="43.0159077" lon="13.3312517"><ele>461.3333333333333</ele><time>2026-04-18T07:29:27.061Z</time></trkpt><trkpt lat="43.0159796" lon="13.3312997"><ele>460.66666666666663</ele><time>2026-04-18T07:29:28.059Z</time></trkpt><trkpt lat="43.0160897" lon="13.331352"><ele>460.0</ele><time>2026-04-18T07:29:30.04Z</time></trkpt><trkpt lat="43.016172" lon="13.3313491"><ele>459.3333333333333</ele><time>2026-04-18T07:29:31.05Z</time></trkpt><trkpt lat="43.0162517" lon="13.331343"><ele>458.66666666666663</ele><time>2026-04-18T07:29:32.118Z</time></trkpt><trkpt lat="43.0163224" lon="13.3313022"><ele>458.0</ele><time>2026-04-18T07:29:33.079Z</time></trkpt><trkpt lat="43.0163823" lon="13.3312704"><ele>458.0</ele><time>2026-04-18T07:29:34.078Z</time></trkpt><trkpt lat="43.0164992" lon="13.3312516"><ele>458.0</ele><time>2026-04-18T07:29:36.039Z</time></trkpt><trkpt lat="43.0165781" lon="13.3313464"><ele>458.0</ele><time>2026-04-18T07:29:38.07Z</time></trkpt><trkpt lat="43.016575" lon="13.3315441"><ele>458.0</ele><time>2026-04-18T07:29:40.057Z</time></trkpt><trkpt lat="43.0165436" lon="13.3316679"><ele>460.49999999999994</ele><time>2026-04-18T07:29:41.067Z</time></trkpt><trkpt lat="43.0165107" lon="13.3317778"><ele>463.0</ele><time>2026-04-18T07:29:42.062Z</time></trkpt><trkpt lat="43.0164884" lon="13.3318719"><ele>465.5</ele><time>2026-04-18T07:29:43.083Z</time></trkpt><trkpt lat="43.0164892" lon="13.3319631"><ele>468.0</ele><time>2026-04-18T07:29:44.057Z</time></trkpt><trkpt lat="43.0165385" lon="13.3321291"><ele>470.49999999999994</ele><time>2026-04-18T07:29:46.061Z</time></trkpt><trkpt lat="43.0165942" lon="13.3321767"><ele>473.0</ele><time>2026-04-18T07:29:47.071Z</time></trkpt><trkpt lat="43.016607" lon="13.3323169"><ele>476.99999999999994</ele><time>2026-04-18T07:29:49.069Z</time></trkpt><trkpt lat="43.0165654" lon="13.3324356"><ele>481.0</ele><time>2026-04-18T07:29:51.082Z</time></trkpt><trkpt lat="43.0164579" lon="13.3324411"><ele>485.0</ele><time>2026-04-18T07:29:53.079Z</time></trkpt><trkpt lat="43.0163796" lon="13.3324391"><ele>489.0</ele><time>2026-04-18T07:29:54.071Z</time></trkpt><trkpt lat="43.0163012" lon="13.3324337"><ele>492.99999999999994</ele><time>2026-04-18T07:29:55.137Z</time></trkpt><trkpt lat="43.0162252" lon="13.3324418"><ele>497.0</ele><time>2026-04-18T07:29:56.047Z</time></trkpt><trkpt lat="43.0161386" lon="13.3324508"><ele>496.99999999999994</ele><time>2026-04-18T07:29:57.08Z</time></trkpt><trkpt lat="43.0160328" lon="13.3324966"><ele>497.0</ele><time>2026-04-18T07:29:58.083Z</time></trkpt><trkpt lat="43.0159463" lon="13.332536"><ele>497.0</ele><time>2026-04-18T07:29:59.054Z</time></trkpt><trkpt lat="43.0158785" lon="13.3325811"><ele>497.0</ele><time>2026-04-18T07:30:00.078Z</time></trkpt><trkpt lat="43.0158094" lon="13.3326301"><ele>496.99999999999994</ele><time>2026-04-18T07:30:01.071Z</time></trkpt><trkpt lat="43.0157304" lon="13.3326981"><ele>497.0</ele><time>2026-04-18T07:30:02.09Z</time></trkpt><trkpt lat="43.0156652" lon="13.3327648"><ele>496.3333333333333</ele><time>2026-04-18T07:30:03.069Z</time></trkpt><trkpt lat="43.0155937" lon="13.3328297"><ele>495.66666666666663</ele><time>2026-04-18T07:30:04.073Z</time></trkpt><trkpt lat="43.0155309" lon="13.3328796"><ele>495.0</ele><time>2026-04-18T07:30:05.078Z</time></trkpt><trkpt lat="43.0154749" lon="13.3329355"><ele>494.33333333333337</ele><time>2026-04-18T07:30:06.127Z</time></trkpt><trkpt lat="43.0154187" lon="13.3329827"><ele>493.6666666666667</ele><time>2026-04-18T07:30:07.073Z</time></trkpt><trkpt lat="43.0153524" lon="13.3330292"><ele>493.0</ele><time>2026-04-18T07:30:08.085Z</time></trkpt><trkpt lat="43.0152746" lon="13.3330876"><ele>494.2</ele><time>2026-04-18T07:30:09.044Z</time></trkpt><trkpt lat="43.0151816" lon="13.3331634"><ele>495.4</ele><time>2026-04-18T07:30:10.079Z</time></trkpt><trkpt lat="43.0150845" lon="13.3332347"><ele>496.59999999999997</ele><time>2026-04-18T07:30:11.061Z</time></trkpt><trkpt lat="43.0150057" lon="13.3333027"><ele>497.79999999999995</ele><time>2026-04-18T07:30:12.065Z</time></trkpt><trkpt lat="43.0149386" lon="13.3333637"><ele>499.0</ele><time>2026-04-18T07:30:13.077Z</time></trkpt><trkpt lat="43.0148801" lon="13.3334119"><ele>499.00000000000006</ele><time>2026-04-18T07:30:14.073Z</time></trkpt><trkpt lat="43.0148073" lon="13.3334543"><ele>499.0</ele><time>2026-04-18T07:30:15.039Z</time></trkpt><trkpt lat="43.014735" lon="13.333479"><ele>499.0</ele><time>2026-04-18T07:30:16.066Z</time></trkpt><trkpt lat="43.0146679" lon="13.3334964"><ele>499.0</ele><time>2026-04-18T07:30:17.081Z</time></trkpt><trkpt lat="43.0145976" lon="13.3335568"><ele>499.00000000000006</ele><time>2026-04-18T07:30:19.073Z</time></trkpt><trkpt lat="43.0145432" lon="13.3336363"><ele>499.0</ele><time>2026-04-18T07:30:21.051Z</time></trkpt><trkpt lat="43.0144794" lon="13.3337769"><ele>499.0</ele><time>2026-04-18T07:30:23.068Z</time></trkpt><trkpt lat="43.0144461" lon="13.3338628"><ele>499.0</ele><time>2026-04-18T07:30:24.067Z</time></trkpt><trkpt lat="43.0144173" lon="13.3339821"><ele>499.0</ele><time>2026-04-18T07:30:25.049Z</time></trkpt><trkpt lat="43.014381" lon="13.3341325"><ele>499.0</ele><time>2026-04-18T07:30:26.072Z</time></trkpt><trkpt lat="43.0143387" lon="13.3343008"><ele>499.0</ele><time>2026-04-18T07:30:27.065Z</time></trkpt><trkpt lat="43.0142929" lon="13.3344623"><ele>501.25</ele><time>2026-04-18T07:30:28.1Z</time></trkpt><trkpt lat="43.0142414" lon="13.3346004"><ele>503.5</ele><time>2026-04-18T07:30:29.075Z</time></trkpt><trkpt lat="43.0141829" lon="13.3347549"><ele>505.75</ele><time>2026-04-18T07:30:30.149Z</time></trkpt><trkpt lat="43.0141285" lon="13.3348895"><ele>508.0</ele><time>2026-04-18T07:30:31.081Z</time></trkpt><trkpt lat="43.0140775" lon="13.3350139"><ele>508.0</ele><time>2026-04-18T07:30:32.056Z</time></trkpt><trkpt lat="43.0140382" lon="13.3351206"><ele>507.99999999999994</ele><time>2026-04-18T07:30:33.07Z</time></trkpt><trkpt lat="43.0140031" lon="13.3352325"><ele>507.99999999999994</ele><time>2026-04-18T07:30:34.062Z</time></trkpt><trkpt lat="43.0139671" lon="13.3353525"><ele>508.0</ele><time>2026-04-18T07:30:35.073Z</time></trkpt><trkpt lat="43.0139291" lon="13.3354725"><ele>508.0</ele><time>2026-04-18T07:30:36.061Z</time></trkpt><trkpt lat="43.0138979" lon="13.3355816"><ele>511.00000000000006</ele><time>2026-04-18T07:30:37.084Z</time></trkpt><trkpt lat="43.0138683" lon="13.3356931"><ele>514.0</ele><time>2026-04-18T07:30:38.078Z</time></trkpt><trkpt lat="43.0138477" lon="13.3357834"><ele>517.0</ele><time>2026-04-18T07:30:39.064Z</time></trkpt><trkpt lat="43.0138307" lon="13.3359232"><ele>520.0</ele><time>2026-04-18T07:30:41.073Z</time></trkpt><trkpt lat="43.0138241" lon="13.3360174"><ele>523.0</ele><time>2026-04-18T07:30:43.07Z</time></trkpt><trkpt lat="43.0137855" lon="13.3361034"><ele>526.0</ele><time>2026-04-18T07:31:19.002Z</time></trkpt><trkpt lat="43.0138345" lon="13.3361892"><ele>526.0</ele><time>2026-04-18T07:31:27.058Z</time></trkpt><trkpt lat="43.0138958" lon="13.3362303"><ele>526.0</ele><time>2026-04-18T07:31:29.079Z</time></trkpt><trkpt lat="43.0139528" lon="13.3362702"><ele>526.0</ele><time>2026-04-18T07:31:31.015Z</time></trkpt><trkpt lat="43.014013" lon="13.336235"><ele>526.0</ele><time>2026-04-18T07:31:33.052Z</time></trkpt><trkpt lat="43.0140679" lon="13.3361737"><ele>526.0</ele><time>2026-04-18T07:31:35.063Z</time></trkpt><trkpt lat="43.0141243" lon="13.3360476"><ele>526.0</ele><time>2026-04-18T07:31:37.05Z</time></trkpt><trkpt lat="43.0141678" lon="13.3359218"><ele>525.8</ele><time>2026-04-18T07:31:39.074Z</time></trkpt><trkpt lat="43.0142086" lon="13.3357851"><ele>525.6</ele><time>2026-04-18T07:31:41.056Z</time></trkpt><trkpt lat="43.0142689" lon="13.3356836"><ele>525.4</ele><time>2026-04-18T07:31:43.061Z</time></trkpt><trkpt lat="43.0143438" lon="13.3356068"><ele>525.2</ele><time>2026-04-18T07:31:45.072Z</time></trkpt><trkpt lat="43.0144416" lon="13.3355488"><ele>525.0</ele><time>2026-04-18T07:31:47.064Z</time></trkpt><trkpt lat="43.0145293" lon="13.3354929"><ele>525.0</ele><time>2026-04-18T07:31:49.082Z</time></trkpt><trkpt lat="43.0146288" lon="13.335428"><ele>525.0</ele><time>2026-04-18T07:31:51.079Z</time></trkpt><trkpt lat="43.0146934" lon="13.3353767"><ele>525.0</ele><time>2026-04-18T07:31:52.08Z</time></trkpt><trkpt lat="43.014753" lon="13.3353192"><ele>525.0</ele><time>2026-04-18T07:31:53.063Z</time></trkpt><trkpt lat="43.0148175" lon="13.3352483"><ele>525.0</ele><time>2026-04-18T07:31:54.076Z</time></trkpt><trkpt lat="43.0148816" lon="13.3351679"><ele>525.0</ele><time>2026-04-18T07:31:55.065Z</time></trkpt><trkpt lat="43.0149341" lon="13.3350838"><ele>525.0</ele><time>2026-04-18T07:31:56.053Z</time></trkpt><trkpt lat="43.0149688" lon="13.3350016"><ele>525.0</ele><time>2026-04-18T07:31:57.083Z</time></trkpt><trkpt lat="43.0150546" lon="13.3348309"><ele>525.0</ele><time>2026-04-18T07:31:59.087Z</time></trkpt><trkpt lat="43.0151105" lon="13.3347457"><ele>525.0</ele><time>2026-04-18T07:32:00.073Z</time></trkpt><trkpt lat="43.0151733" lon="13.3346603"><ele>525.0</ele><time>2026-04-18T07:32:02.014Z</time></trkpt><trkpt lat="43.0152372" lon="13.3346125"><ele>527.3333333333334</ele><time>2026-04-18T07:32:04.06Z</time></trkpt><trkpt lat="43.0153165" lon="13.3346"><ele>529.6666666666666</ele><time>2026-04-18T07:32:08.044Z</time></trkpt><trkpt lat="43.0153825" lon="13.3345963"><ele>532.0</ele><time>2026-04-18T07:32:10.055Z</time></trkpt><trkpt lat="43.0154625" lon="13.3345902"><ele>534.3333333333333</ele><time>2026-04-18T07:32:12.019Z</time></trkpt><trkpt lat="43.0155424" lon="13.3345656"><ele>536.6666666666666</ele><time>2026-04-18T07:32:14.061Z</time></trkpt><trkpt lat="43.015623" lon="13.334557"><ele>539.0</ele><time>2026-04-18T07:32:16.016Z</time></trkpt><trkpt lat="43.0156973" lon="13.3346091"><ele>544.0</ele><time>2026-04-18T07:32:18.056Z</time></trkpt><trkpt lat="43.0157345" lon="13.3347292"><ele>549.0</ele><time>2026-04-18T07:32:20.083Z</time></trkpt><trkpt lat="43.0157385" lon="13.3348859"><ele>554.0</ele><time>2026-04-18T07:32:22.072Z</time></trkpt><trkpt lat="43.0157218" lon="13.3350368"><ele>559.0</ele><time>2026-04-18T07:32:24.086Z</time></trkpt><trkpt lat="43.0157039" lon="13.3352413"><ele>559.0</ele><time>2026-04-18T07:32:26.041Z</time></trkpt><trkpt lat="43.0156911" lon="13.3353556"><ele>559.0</ele><time>2026-04-18T07:32:27.079Z</time></trkpt><trkpt lat="43.01567" lon="13.3354422"><ele>559.0</ele><time>2026-04-18T07:32:28.084Z</time></trkpt><trkpt lat="43.0156511" lon="13.3355365"><ele>559.0</ele><time>2026-04-18T07:32:29.078Z</time></trkpt><trkpt lat="43.015631" lon="13.3356343"><ele>559.0</ele><time>2026-04-18T07:32:30.092Z</time></trkpt><trkpt lat="43.0156116" lon="13.3357347"><ele>559.0</ele><time>2026-04-18T07:32:31.045Z</time></trkpt><trkpt lat="43.0155885" lon="13.3358428"><ele>560.0</ele><time>2026-04-18T07:32:32.084Z</time></trkpt><trkpt lat="43.015568" lon="13.3359554"><ele>561.0</ele><time>2026-04-18T07:32:33.076Z</time></trkpt><trkpt lat="43.0155493" lon="13.3360696"><ele>562.0</ele><time>2026-04-18T07:32:34.086Z</time></trkpt><trkpt lat="43.0155386" lon="13.3361805"><ele>563.0</ele><time>2026-04-18T07:32:35.047Z</time></trkpt><trkpt lat="43.0155328" lon="13.3362856"><ele>564.0</ele><time>2026-04-18T07:32:36.049Z</time></trkpt><trkpt lat="43.0155348" lon="13.3363908"><ele>565.0</ele><time>2026-04-18T07:32:37.089Z</time></trkpt><trkpt lat="43.0155355" lon="13.3364905"><ele>565.5714285714286</ele><time>2026-04-18T07:32:38.098Z</time></trkpt><trkpt lat="43.0155372" lon="13.3365825"><ele>566.1428571428571</ele><time>2026-04-18T07:32:39.071Z</time></trkpt><trkpt lat="43.015542" lon="13.3366756"><ele>566.7142857142858</ele><time>2026-04-18T07:32:40.097Z</time></trkpt><trkpt lat="43.0155498" lon="13.3367715"><ele>567.2857142857142</ele><time>2026-04-18T07:32:41.051Z</time></trkpt><trkpt lat="43.0155629" lon="13.3368718"><ele>567.8571428571429</ele><time>2026-04-18T07:32:42.085Z</time></trkpt><trkpt lat="43.0155786" lon="13.3369623"><ele>568.4285714285714</ele><time>2026-04-18T07:32:43.078Z</time></trkpt><trkpt lat="43.0155931" lon="13.3370515"><ele>569.0</ele><time>2026-04-18T07:32:44.08Z</time></trkpt><trkpt lat="43.0156076" lon="13.3371446"><ele>569.0</ele><time>2026-04-18T07:32:45.086Z</time></trkpt><trkpt lat="43.0156252" lon="13.3372393"><ele>569.0</ele><time>2026-04-18T07:32:46.051Z</time></trkpt><trkpt lat="43.0156442" lon="13.3373356"><ele>569.0</ele><time>2026-04-18T07:32:47.069Z</time></trkpt><trkpt lat="43.0156699" lon="13.3374298"><ele>569.0</ele><time>2026-04-18T07:32:48.083Z</time></trkpt><trkpt lat="43.0156982" lon="13.3375265"><ele>569.0</ele><time>2026-04-18T07:32:49.088Z</time></trkpt><trkpt lat="43.015749" lon="13.3376293"><ele>569.0</ele><time>2026-04-18T07:32:50.093Z</time></trkpt><trkpt lat="43.0157907" lon="13.3377237"><ele>571.6666666666666</ele><time>2026-04-18T07:32:51.04Z</time></trkpt><trkpt lat="43.0158264" lon="13.3378159"><ele>574.3333333333333</ele><time>2026-04-18T07:32:52.079Z</time></trkpt><trkpt lat="43.0158578" lon="13.3379192"><ele>577.0</ele><time>2026-04-18T07:32:53.031Z</time></trkpt><trkpt lat="43.0158809" lon="13.3380254"><ele>579.6666666666666</ele><time>2026-04-18T07:32:54.076Z</time></trkpt><trkpt lat="43.0159018" lon="13.3381258"><ele>582.3333333333334</ele><time>2026-04-18T07:32:55.079Z</time></trkpt><trkpt lat="43.0159164" lon="13.3382184"><ele>585.0</ele><time>2026-04-18T07:32:56.039Z</time></trkpt><trkpt lat="43.0159256" lon="13.3383146"><ele>586.3333333333334</ele><time>2026-04-18T07:32:57.051Z</time></trkpt><trkpt lat="43.0159315" lon="13.3384056"><ele>587.6666666666666</ele><time>2026-04-18T07:32:58.079Z</time></trkpt><trkpt lat="43.0159348" lon="13.3385137"><ele>589.0</ele><time>2026-04-18T07:32:59.056Z</time></trkpt><trkpt lat="43.0159335" lon="13.3386505"><ele>590.3333333333333</ele><time>2026-04-18T07:33:00.065Z</time></trkpt><trkpt lat="43.0159325" lon="13.3387687"><ele>591.6666666666666</ele><time>2026-04-18T07:33:01.053Z</time></trkpt><trkpt lat="43.0159327" lon="13.3388724"><ele>593.0</ele><time>2026-04-18T07:33:02.099Z</time></trkpt><trkpt lat="43.0159355" lon="13.3389675"><ele>594.3333333333333</ele><time>2026-04-18T07:33:03.062Z</time></trkpt><trkpt lat="43.015957" lon="13.3390941"><ele>595.6666666666666</ele><time>2026-04-18T07:33:04.089Z</time></trkpt><trkpt lat="43.0159764" lon="13.3392428"><ele>597.0</ele><time>2026-04-18T07:33:05.097Z</time></trkpt><trkpt lat="43.0159938" lon="13.3393707"><ele>598.3333333333334</ele><time>2026-04-18T07:33:06.052Z</time></trkpt><trkpt lat="43.0160163" lon="13.3394752"><ele>599.6666666666667</ele><time>2026-04-18T07:33:07.045Z</time></trkpt><trkpt lat="43.0160273" lon="13.3395605"><ele>601.0</ele><time>2026-04-18T07:33:08.088Z</time></trkpt><trkpt lat="43.0160402" lon="13.3396717"><ele>602.0</ele><time>2026-04-18T07:33:10.081Z</time></trkpt><trkpt lat="43.0160684" lon="13.339756"><ele>603.0</ele><time>2026-04-18T07:34:12.05Z</time></trkpt><trkpt lat="43.0161316" lon="13.33982"><ele>604.0</ele><time>2026-04-18T07:34:14.085Z</time></trkpt><trkpt lat="43.0162246" lon="13.3398956"><ele>605.0</ele><time>2026-04-18T07:34:16.079Z</time></trkpt><trkpt lat="43.016302" lon="13.3399673"><ele>606.0</ele><time>2026-04-18T07:34:18.106Z</time></trkpt><trkpt lat="43.0163709" lon="13.3400308"><ele>607.0</ele><time>2026-04-18T07:34:20.043Z</time></trkpt><trkpt lat="43.0164343" lon="13.3400931"><ele>607.0</ele><time>2026-04-18T07:34:22.052Z</time></trkpt><trkpt lat="43.0165126" lon="13.3401679"><ele>607.0</ele><time>2026-04-18T07:34:24.087Z</time></trkpt><trkpt lat="43.0166014" lon="13.3402551"><ele>607.0</ele><time>2026-04-18T07:34:26.048Z</time></trkpt><trkpt lat="43.0167027" lon="13.3403403"><ele>607.0</ele><time>2026-04-18T07:34:28.07Z</time></trkpt><trkpt lat="43.0167636" lon="13.340386"><ele>607.0</ele><time>2026-04-18T07:34:29.059Z</time></trkpt><trkpt lat="43.0168236" lon="13.3404282"><ele>605.0</ele><time>2026-04-18T07:34:30.073Z</time></trkpt><trkpt lat="43.016882" lon="13.3404694"><ele>603.0</ele><time>2026-04-18T07:34:31.125Z</time></trkpt><trkpt lat="43.0169473" lon="13.3405047"><ele>601.0</ele><time>2026-04-18T07:34:32.068Z</time></trkpt><trkpt lat="43.0170219" lon="13.3405351"><ele>599.0</ele><time>2026-04-18T07:34:33.071Z</time></trkpt><trkpt lat="43.0171026" lon="13.3405638"><ele>597.0</ele><time>2026-04-18T07:34:34.085Z</time></trkpt><trkpt lat="43.0171799" lon="13.34059"><ele>595.0</ele><time>2026-04-18T07:34:35.091Z</time></trkpt><trkpt lat="43.017251" lon="13.3406111"><ele>595.0</ele><time>2026-04-18T07:34:36.089Z</time></trkpt><trkpt lat="43.0173187" lon="13.3406315"><ele>595.0</ele><time>2026-04-18T07:34:37.076Z</time></trkpt><trkpt lat="43.0173862" lon="13.3406501"><ele>595.0</ele><time>2026-04-18T07:34:38.04Z</time></trkpt><trkpt lat="43.017449" lon="13.3406671"><ele>595.0</ele><time>2026-04-18T07:34:39.056Z</time></trkpt><trkpt lat="43.01756" lon="13.3406941"><ele>595.0</ele><time>2026-04-18T07:34:41.073Z</time></trkpt><trkpt lat="43.0176674" lon="13.3407329"><ele>595.0</ele><time>2026-04-18T07:34:43.073Z</time></trkpt><trkpt lat="43.0177681" lon="13.3408194"><ele>594.2</ele><time>2026-04-18T07:34:45.078Z</time></trkpt><trkpt lat="43.0178332" lon="13.3409535"><ele>593.4</ele><time>2026-04-18T07:34:47.046Z</time></trkpt><trkpt lat="43.017872" lon="13.3410805"><ele>592.6</ele><time>2026-04-18T07:34:49.072Z</time></trkpt><trkpt lat="43.0178944" lon="13.3412036"><ele>591.8</ele><time>2026-04-18T07:34:51.045Z</time></trkpt><trkpt lat="43.0179155" lon="13.3413617"><ele>591.0</ele><time>2026-04-18T07:34:53.092Z</time></trkpt><trkpt lat="43.0179282" lon="13.3414603"><ele>590.8333333333334</ele><time>2026-04-18T07:34:54.112Z</time></trkpt><trkpt lat="43.0179408" lon="13.3415574"><ele>590.6666666666666</ele><time>2026-04-18T07:34:55.09Z</time></trkpt><trkpt lat="43.0179592" lon="13.3416674"><ele>590.5</ele><time>2026-04-18T07:34:56.094Z</time></trkpt><trkpt lat="43.0179798" lon="13.3417772"><ele>590.3333333333333</ele><time>2026-04-18T07:34:57.077Z</time></trkpt><trkpt lat="43.017998" lon="13.3418861"><ele>590.1666666666666</ele><time>2026-04-18T07:34:58.095Z</time></trkpt><trkpt lat="43.0180133" lon="13.3419915"><ele>590.0</ele><time>2026-04-18T07:34:59.072Z</time></trkpt><trkpt lat="43.0180237" lon="13.3420936"><ele>590.0</ele><time>2026-04-18T07:35:00.079Z</time></trkpt><trkpt lat="43.0180306" lon="13.3421975"><ele>590.0</ele><time>2026-04-18T07:35:01.061Z</time></trkpt><trkpt lat="43.0180342" lon="13.3423058"><ele>590.0</ele><time>2026-04-18T07:35:02.058Z</time></trkpt><trkpt lat="43.0180363" lon="13.3424192"><ele>590.0</ele><time>2026-04-18T07:35:03.061Z</time></trkpt><trkpt lat="43.018039" lon="13.3425369"><ele>590.0</ele><time>2026-04-18T07:35:04.07Z</time></trkpt><trkpt lat="43.0180414" lon="13.3426727"><ele>590.0</ele><time>2026-04-18T07:35:05.069Z</time></trkpt><trkpt lat="43.0180457" lon="13.3428249"><ele>588.6</ele><time>2026-04-18T07:35:06.074Z</time></trkpt><trkpt lat="43.0180477" lon="13.3429665"><ele>587.2</ele><time>2026-04-18T07:35:07.077Z</time></trkpt><trkpt lat="43.0180501" lon="13.3430917"><ele>585.8</ele><time>2026-04-18T07:35:08.089Z</time></trkpt><trkpt lat="43.0180547" lon="13.343227"><ele>584.4</ele><time>2026-04-18T07:35:09.077Z</time></trkpt><trkpt lat="43.0180628" lon="13.3433602"><ele>583.0</ele><time>2026-04-18T07:35:10.075Z</time></trkpt><trkpt lat="43.0180701" lon="13.3434929"><ele>581.0</ele><time>2026-04-18T07:35:11.063Z</time></trkpt><trkpt lat="43.0180832" lon="13.3436151"><ele>579.0</ele><time>2026-04-18T07:35:12.083Z</time></trkpt><trkpt lat="43.0180963" lon="13.3437174"><ele>577.0</ele><time>2026-04-18T07:35:13.087Z</time></trkpt><trkpt lat="43.0181263" lon="13.3437996"><ele>575.0</ele><time>2026-04-18T07:35:14.082Z</time></trkpt><trkpt lat="43.0182152" lon="13.3438953"><ele>573.0</ele><time>2026-04-18T07:35:16.071Z</time></trkpt><trkpt lat="43.0182865" lon="13.3439073"><ele>571.0</ele><time>2026-04-18T07:35:17.078Z</time></trkpt><trkpt lat="43.0183599" lon="13.3439082"><ele>569.6</ele><time>2026-04-18T07:35:18.071Z</time></trkpt><trkpt lat="43.0184388" lon="13.3439134"><ele>568.2</ele><time>2026-04-18T07:35:19.071Z</time></trkpt><trkpt lat="43.0185352" lon="13.3438994"><ele>566.8</ele><time>2026-04-18T07:35:20.085Z</time></trkpt><trkpt lat="43.018655" lon="13.343876"><ele>565.4</ele><time>2026-04-18T07:35:21.07Z</time></trkpt><trkpt lat="43.0187816" lon="13.3438487"><ele>564.0</ele><time>2026-04-18T07:35:22.053Z</time></trkpt><trkpt lat="43.0189114" lon="13.343806"><ele>565.8</ele><time>2026-04-18T07:35:23.092Z</time></trkpt><trkpt lat="43.019027" lon="13.3437628"><ele>567.5999999999999</ele><time>2026-04-18T07:35:24.085Z</time></trkpt><trkpt lat="43.0191074" lon="13.3437252"><ele>569.4</ele><time>2026-04-18T07:35:25.095Z</time></trkpt><trkpt lat="43.0191865" lon="13.3436932"><ele>571.1999999999999</ele><time>2026-04-18T07:35:26.07Z</time></trkpt><trkpt lat="43.0192625" lon="13.3436605"><ele>573.0</ele><time>2026-04-18T07:35:27.036Z</time></trkpt><trkpt lat="43.0193668" lon="13.3435912"><ele>573.0</ele><time>2026-04-18T07:35:28.068Z</time></trkpt><trkpt lat="43.0194469" lon="13.3435392"><ele>573.0</ele><time>2026-04-18T07:35:29.058Z</time></trkpt><trkpt lat="43.0195135" lon="13.3434892"><ele>573.0</ele><time>2026-04-18T07:35:30.069Z</time></trkpt><trkpt lat="43.0195863" lon="13.3434482"><ele>573.0</ele><time>2026-04-18T07:35:31.088Z</time></trkpt><trkpt lat="43.0196569" lon="13.3434153"><ele>573.0</ele><time>2026-04-18T07:35:32.081Z</time></trkpt><trkpt lat="43.0197373" lon="13.3433953"><ele>573.0</ele><time>2026-04-18T07:35:33.097Z</time></trkpt><trkpt lat="43.0198303" lon="13.3433933"><ele>573.0</ele><time>2026-04-18T07:35:34.097Z</time></trkpt><trkpt lat="43.0199279" lon="13.3434185"><ele>573.0</ele><time>2026-04-18T07:35:35.089Z</time></trkpt><trkpt lat="43.0200221" lon="13.3434648"><ele>573.0</ele><time>2026-04-18T07:35:36.09Z</time></trkpt><trkpt lat="43.0201032" lon="13.3435414"><ele>573.0</ele><time>2026-04-18T07:35:37.065Z</time></trkpt><trkpt lat="43.0201667" lon="13.3436339"><ele>573.0</ele><time>2026-04-18T07:35:38.097Z</time></trkpt><trkpt lat="43.0202192" lon="13.3437214"><ele>571.1666666666666</ele><time>2026-04-18T07:35:39.091Z</time></trkpt><trkpt lat="43.0202717" lon="13.3438087"><ele>569.3333333333334</ele><time>2026-04-18T07:35:40.069Z</time></trkpt><trkpt lat="43.0203435" lon="13.3438555"><ele>567.5</ele><time>2026-04-18T07:35:41.061Z</time></trkpt><trkpt lat="43.0204252" lon="13.3438783"><ele>565.6666666666667</ele><time>2026-04-18T07:35:42.067Z</time></trkpt><trkpt lat="43.0205059" lon="13.3438844"><ele>563.8333333333334</ele><time>2026-04-18T07:35:43.068Z</time></trkpt><trkpt lat="43.0205835" lon="13.343888"><ele>562.0</ele><time>2026-04-18T07:35:44.077Z</time></trkpt><trkpt lat="43.0206592" lon="13.3438904"><ele>559.1666666666667</ele><time>2026-04-18T07:35:45.128Z</time></trkpt><trkpt lat="43.0207303" lon="13.3438973"><ele>556.3333333333334</ele><time>2026-04-18T07:35:46.09Z</time></trkpt><trkpt lat="43.0208333" lon="13.3439302"><ele>553.5</ele><time>2026-04-18T07:35:48.077Z</time></trkpt><trkpt lat="43.0208754" lon="13.3440121"><ele>550.6666666666666</ele><time>2026-04-18T07:35:50.069Z</time></trkpt><trkpt lat="43.0208687" lon="13.3441075"><ele>547.8333333333333</ele><time>2026-04-18T07:35:52.012Z</time></trkpt><trkpt lat="43.0208207" lon="13.3442017"><ele>545.0</ele><time>2026-04-18T07:35:54.034Z</time></trkpt><trkpt lat="43.0207571" lon="13.3442783"><ele>544.8333333333333</ele><time>2026-04-18T07:35:56.091Z</time></trkpt><trkpt lat="43.0206876" lon="13.3443755"><ele>544.6666666666666</ele><time>2026-04-18T07:35:58.08Z</time></trkpt><trkpt lat="43.0206227" lon="13.3444686"><ele>544.5</ele><time>2026-04-18T07:36:00.069Z</time></trkpt><trkpt lat="43.0205532" lon="13.3445513"><ele>544.3333333333334</ele><time>2026-04-18T07:36:02.041Z</time></trkpt><trkpt lat="43.0204916" lon="13.3446385"><ele>544.1666666666667</ele><time>2026-04-18T07:36:04.047Z</time></trkpt><trkpt lat="43.0204527" lon="13.3447087"><ele>544.0</ele><time>2026-04-18T07:36:06.02Z</time></trkpt><trkpt lat="43.0205052" lon="13.34482"><ele>542.0</ele><time>2026-04-18T07:36:09.067Z</time></trkpt><trkpt lat="43.0206072" lon="13.3448677"><ele>540.0</ele><time>2026-04-18T07:36:11.046Z</time></trkpt><trkpt lat="43.0207101" lon="13.344906"><ele>538.0</ele><time>2026-04-18T07:36:13.075Z</time></trkpt><trkpt lat="43.0207982" lon="13.3449166"><ele>536.0</ele><time>2026-04-18T07:36:15.088Z</time></trkpt><trkpt lat="43.0208701" lon="13.3449074"><ele>534.0</ele><time>2026-04-18T07:36:17.009Z</time></trkpt><trkpt lat="43.0209502" lon="13.3449096"><ele>534.0</ele><time>2026-04-18T07:36:19.113Z</time></trkpt><trkpt lat="43.0210401" lon="13.3449104"><ele>534.0</ele><time>2026-04-18T07:36:21.014Z</time></trkpt><trkpt lat="43.0211289" lon="13.3449027"><ele>534.0</ele><time>2026-04-18T07:36:23.055Z</time></trkpt><trkpt lat="43.021222" lon="13.3448739"><ele>534.0</ele><time>2026-04-18T07:36:25.069Z</time></trkpt><trkpt lat="43.0213359" lon="13.3448252"><ele>534.0</ele><time>2026-04-18T07:36:27.04Z</time></trkpt><trkpt lat="43.0213943" lon="13.3447856"><ele>534.0000000000001</ele><time>2026-04-18T07:36:28.07Z</time></trkpt><trkpt lat="43.0214485" lon="13.3447402"><ele>534.0</ele><time>2026-04-18T07:36:29.081Z</time></trkpt><trkpt lat="43.0215031" lon="13.3446923"><ele>534.0</ele><time>2026-04-18T07:36:30.073Z</time></trkpt><trkpt lat="43.0215577" lon="13.3446421"><ele>534.0</ele><time>2026-04-18T07:36:31.054Z</time></trkpt><trkpt lat="43.0216144" lon="13.3445843"><ele>534.0</ele><time>2026-04-18T07:36:32.052Z</time></trkpt><trkpt lat="43.0216768" lon="13.3445191"><ele>534.0000000000001</ele><time>2026-04-18T07:36:33.088Z</time></trkpt><trkpt lat="43.0217514" lon="13.3444552"><ele>534.0</ele><time>2026-04-18T07:36:34.047Z</time></trkpt><trkpt lat="43.0218296" lon="13.3443987"><ele>533.3333333333334</ele><time>2026-04-18T07:36:35.09Z</time></trkpt><trkpt lat="43.0219066" lon="13.3443508"><ele>532.6666666666666</ele><time>2026-04-18T07:36:36.101Z</time></trkpt><trkpt lat="43.0219814" lon="13.344308"><ele>532.0</ele><time>2026-04-18T07:36:37.047Z</time></trkpt><trkpt lat="43.0220521" lon="13.3442654"><ele>531.3333333333333</ele><time>2026-04-18T07:36:38.046Z</time></trkpt><trkpt lat="43.0221201" lon="13.344226"><ele>530.6666666666666</ele><time>2026-04-18T07:36:39.049Z</time></trkpt><trkpt lat="43.0221905" lon="13.3441826"><ele>530.0</ele><time>2026-04-18T07:36:40.068Z</time></trkpt><trkpt lat="43.0222654" lon="13.3441346"><ele>530.0</ele><time>2026-04-18T07:36:41.091Z</time></trkpt><trkpt lat="43.0223385" lon="13.3440889"><ele>530.0</ele><time>2026-04-18T07:36:42.079Z</time></trkpt><trkpt lat="43.0224085" lon="13.34404"><ele>530.0</ele><time>2026-04-18T07:36:43.067Z</time></trkpt><trkpt lat="43.0224851" lon="13.3439872"><ele>530.0</ele><time>2026-04-18T07:36:44.093Z</time></trkpt><trkpt lat="43.022566" lon="13.3439284"><ele>530.0</ele><time>2026-04-18T07:36:45.087Z</time></trkpt><trkpt lat="43.0226416" lon="13.3438666"><ele>530.0</ele><time>2026-04-18T07:36:46.053Z</time></trkpt><trkpt lat="43.022704" lon="13.3438124"><ele>530.6</ele><time>2026-04-18T07:36:47.05Z</time></trkpt><trkpt lat="43.0227636" lon="13.3437764"><ele>531.2</ele><time>2026-04-18T07:36:48.107Z</time></trkpt><trkpt lat="43.0228733" lon="13.343809"><ele>531.8</ele><time>2026-04-18T07:36:50.07Z</time></trkpt><trkpt lat="43.0228981" lon="13.3439127"><ele>532.4</ele><time>2026-04-18T07:36:52.039Z</time></trkpt><trkpt lat="43.0228482" lon="13.3440221"><ele>533.0</ele><time>2026-04-18T07:36:54.047Z</time></trkpt><trkpt lat="43.0227569" lon="13.3441239"><ele>532.4</ele><time>2026-04-18T07:36:56.072Z</time></trkpt><trkpt lat="43.0226781" lon="13.344251"><ele>531.8</ele><time>2026-04-18T07:36:58.037Z</time></trkpt><trkpt lat="43.0226057" lon="13.3443806"><ele>531.2</ele><time>2026-04-18T07:37:00.04Z</time></trkpt><trkpt lat="43.022549" lon="13.3445039"><ele>530.6</ele><time>2026-04-18T07:37:02.033Z</time></trkpt><trkpt lat="43.0225084" lon="13.344601"><ele>530.0</ele><time>2026-04-18T07:37:04.083Z</time></trkpt><trkpt lat="43.0224743" lon="13.3446787"><ele>528.1666666666666</ele><time>2026-04-18T07:37:06.05Z</time></trkpt><trkpt lat="43.0224408" lon="13.3447724"><ele>526.3333333333333</ele><time>2026-04-18T07:37:09.063Z</time></trkpt><trkpt lat="43.0223936" lon="13.3448683"><ele>524.5</ele><time>2026-04-18T07:37:49.078Z</time></trkpt><trkpt lat="43.0223339" lon="13.34494"><ele>522.6666666666666</ele><time>2026-04-18T07:37:51.037Z</time></trkpt><trkpt lat="43.0222571" lon="13.3450635"><ele>520.8333333333334</ele><time>2026-04-18T07:37:53.049Z</time></trkpt><trkpt lat="43.022211" lon="13.345149"><ele>519.0</ele><time>2026-04-18T07:37:54.123Z</time></trkpt><trkpt lat="43.0221567" lon="13.3452319"><ele>519.0</ele><time>2026-04-18T07:37:55.084Z</time></trkpt><trkpt lat="43.0221042" lon="13.3453261"><ele>519.0</ele><time>2026-04-18T07:37:56.094Z</time></trkpt><trkpt lat="43.022029" lon="13.3454459"><ele>519.0</ele><time>2026-04-18T07:37:57.081Z</time></trkpt><trkpt lat="43.0219737" lon="13.3455528"><ele>519.0</ele><time>2026-04-18T07:37:58.039Z</time></trkpt><trkpt lat="43.0219278" lon="13.3456539"><ele>519.0</ele><time>2026-04-18T07:37:59.054Z</time></trkpt><trkpt lat="43.021891" lon="13.3457501"><ele>517.0</ele><time>2026-04-18T07:38:00.079Z</time></trkpt><trkpt lat="43.0218612" lon="13.3458546"><ele>515.0</ele><time>2026-04-18T07:38:01.083Z</time></trkpt><trkpt lat="43.0218371" lon="13.3459603"><ele>513.0</ele><time>2026-04-18T07:38:02.06Z</time></trkpt><trkpt lat="43.0218117" lon="13.3460686"><ele>511.0</ele><time>2026-04-18T07:38:03.037Z</time></trkpt><trkpt lat="43.0217873" lon="13.3462013"><ele>509.0</ele><time>2026-04-18T07:38:04.069Z</time></trkpt><trkpt lat="43.0217604" lon="13.3463516"><ele>508.4</ele><time>2026-04-18T07:38:05.063Z</time></trkpt><trkpt lat="43.0217341" lon="13.3465077"><ele>507.79999999999995</ele><time>2026-04-18T07:38:06.073Z</time></trkpt><trkpt lat="43.0217085" lon="13.3466416"><ele>507.20000000000005</ele><time>2026-04-18T07:38:07.077Z</time></trkpt><trkpt lat="43.0216835" lon="13.3467783"><ele>506.6</ele><time>2026-04-18T07:38:08.039Z</time></trkpt><trkpt lat="43.0216418" lon="13.3469096"><ele>506.0</ele><time>2026-04-18T07:38:09.068Z</time></trkpt><trkpt lat="43.021596" lon="13.347022"><ele>506.0</ele><time>2026-04-18T07:38:10.061Z</time></trkpt><trkpt lat="43.0215425" lon="13.3471174"><ele>506.0</ele><time>2026-04-18T07:38:11.07Z</time></trkpt><trkpt lat="43.0214791" lon="13.3472003"><ele>506.0</ele><time>2026-04-18T07:38:12.061Z</time></trkpt><trkpt lat="43.0214048" lon="13.3472921"><ele>506.0</ele><time>2026-04-18T07:38:13.044Z</time></trkpt><trkpt lat="43.0213275" lon="13.3473878"><ele>506.0</ele><time>2026-04-18T07:38:14.148Z</time></trkpt><trkpt lat="43.0212455" lon="13.3474823"><ele>504.6</ele><time>2026-04-18T07:38:15.082Z</time></trkpt><trkpt lat="43.0211683" lon="13.3475691"><ele>503.20000000000005</ele><time>2026-04-18T07:38:16.11Z</time></trkpt><trkpt lat="43.0210894" lon="13.3476549"><ele>501.79999999999995</ele><time>2026-04-18T07:38:17.08Z</time></trkpt><trkpt lat="43.0210082" lon="13.3477414"><ele>500.4</ele><time>2026-04-18T07:38:18.044Z</time></trkpt><trkpt lat="43.0209229" lon="13.3478337"><ele>499.0</ele><time>2026-04-18T07:38:19.085Z</time></trkpt><trkpt lat="43.0208326" lon="13.3479319"><ele>498.0</ele><time>2026-04-18T07:38:20.075Z</time></trkpt><trkpt lat="43.0207499" lon="13.3480234"><ele>497.0</ele><time>2026-04-18T07:38:21.082Z</time></trkpt><trkpt lat="43.0206735" lon="13.348107"><ele>496.0</ele><time>2026-04-18T07:38:22.082Z</time></trkpt><trkpt lat="43.0206073" lon="13.3481797"><ele>495.0</ele><time>2026-04-18T07:38:23.056Z</time></trkpt><trkpt lat="43.0205478" lon="13.3482323"><ele>494.0</ele><time>2026-04-18T07:38:24.052Z</time></trkpt><trkpt lat="43.0204579" lon="13.3482874"><ele>493.99999999999994</ele><time>2026-04-18T07:38:26.053Z</time></trkpt><trkpt lat="43.020385" lon="13.3482678"><ele>494.0</ele><time>2026-04-18T07:38:28.009Z</time></trkpt><trkpt lat="43.0203066" lon="13.3482183"><ele>494.0</ele><time>2026-04-18T07:38:31.156Z</time></trkpt><trkpt lat="43.0202342" lon="13.3482549"><ele>494.0</ele><time>2026-04-18T07:38:37.107Z</time></trkpt><trkpt lat="43.0201816" lon="13.3481977"><ele>493.99999999999994</ele><time>2026-04-18T07:38:56.05Z</time></trkpt><trkpt lat="43.0200983" lon="13.3481457"><ele>494.0</ele><time>2026-04-18T07:39:42.046Z</time></trkpt><trkpt lat="43.0200247" lon="13.3480185"><ele>493.99999999999994</ele><time>2026-04-18T07:39:59.075Z</time></trkpt><trkpt lat="43.0199955" lon="13.3478726"><ele>494.0</ele><time>2026-04-18T07:40:01.108Z</time></trkpt><trkpt lat="43.0199898" lon="13.3477613"><ele>494.0</ele><time>2026-04-18T07:40:03.07Z</time></trkpt><trkpt lat="43.0199727" lon="13.3476677"><ele>494.0</ele><time>2026-04-18T07:40:06.041Z</time></trkpt><trkpt lat="43.0199485" lon="13.3475492"><ele>493.99999999999994</ele><time>2026-04-18T07:40:08.03Z</time></trkpt><trkpt lat="43.0199178" lon="13.3474535"><ele>494.0</ele><time>2026-04-18T07:40:09.088Z</time></trkpt><trkpt lat="43.0198797" lon="13.3473612"><ele>493.8333333333333</ele><time>2026-04-18T07:40:10.058Z</time></trkpt><trkpt lat="43.0198466" lon="13.3472774"><ele>493.66666666666663</ele><time>2026-04-18T07:40:11.064Z</time></trkpt><trkpt lat="43.0197724" lon="13.3471625"><ele>493.5</ele><time>2026-04-18T07:40:13.093Z</time></trkpt><trkpt lat="43.0197029" lon="13.3470735"><ele>493.33333333333337</ele><time>2026-04-18T07:40:15.078Z</time></trkpt><trkpt lat="43.0196262" lon="13.3470464"><ele>493.1666666666667</ele><time>2026-04-18T07:40:16.072Z</time></trkpt><trkpt lat="43.0195457" lon="13.3470218"><ele>493.0</ele><time>2026-04-18T07:40:17.078Z</time></trkpt><trkpt lat="43.0194486" lon="13.3470149"><ele>493.00000000000006</ele><time>2026-04-18T07:40:18.077Z</time></trkpt><trkpt lat="43.0193468" lon="13.3470051"><ele>493.0</ele><time>2026-04-18T07:40:19.071Z</time></trkpt><trkpt lat="43.0192571" lon="13.3469827"><ele>493.0</ele><time>2026-04-18T07:40:20.067Z</time></trkpt><trkpt lat="43.0191697" lon="13.3469656"><ele>493.0</ele><time>2026-04-18T07:40:21.032Z</time></trkpt><trkpt lat="43.0190972" lon="13.3469455"><ele>493.00000000000006</ele><time>2026-04-18T07:40:22.032Z</time></trkpt><trkpt lat="43.0190216" lon="13.3469357"><ele>493.0</ele><time>2026-04-18T07:40:23.079Z</time></trkpt><trkpt lat="43.0189345" lon="13.3469521"><ele>494.59999999999997</ele><time>2026-04-18T07:40:24.073Z</time></trkpt><trkpt lat="43.0188518" lon="13.3469828"><ele>496.19999999999993</ele><time>2026-04-18T07:40:25.058Z</time></trkpt><trkpt lat="43.0187579" lon="13.3470177"><ele>497.8</ele><time>2026-04-18T07:40:26.056Z</time></trkpt><trkpt lat="43.0186455" lon="13.3470743"><ele>499.4</ele><time>2026-04-18T07:40:27.066Z</time></trkpt><trkpt lat="43.0185489" lon="13.3471335"><ele>501.0</ele><time>2026-04-18T07:40:28.068Z</time></trkpt><trkpt lat="43.0184609" lon="13.3471843"><ele>500.0</ele><time>2026-04-18T07:40:29.061Z</time></trkpt><trkpt lat="43.018385" lon="13.3472356"><ele>499.0</ele><time>2026-04-18T07:40:30.071Z</time></trkpt><trkpt lat="43.0183089" lon="13.3472785"><ele>498.0</ele><time>2026-04-18T07:40:31.08Z</time></trkpt><trkpt lat="43.0182375" lon="13.3473138"><ele>497.0</ele><time>2026-04-18T07:40:32.046Z</time></trkpt><trkpt lat="43.0181649" lon="13.347347"><ele>496.0</ele><time>2026-04-18T07:40:33.039Z</time></trkpt><trkpt lat="43.0181013" lon="13.3473864"><ele>495.0</ele><time>2026-04-18T07:40:34.037Z</time></trkpt><trkpt lat="43.0180324" lon="13.347429"><ele>495.0</ele><time>2026-04-18T07:40:35.049Z</time></trkpt><trkpt lat="43.0179704" lon="13.3474801"><ele>495.0</ele><time>2026-04-18T07:40:36.084Z</time></trkpt><trkpt lat="43.0179174" lon="13.3475443"><ele>495.0</ele><time>2026-04-18T07:40:37.075Z</time></trkpt><trkpt lat="43.0178658" lon="13.3476282"><ele>495.0</ele><time>2026-04-18T07:40:38.039Z</time></trkpt><trkpt lat="43.0177995" lon="13.3477237"><ele>495.0</ele><time>2026-04-18T07:40:39.06Z</time></trkpt><trkpt lat="43.0177346" lon="13.3478076"><ele>495.0</ele><time>2026-04-18T07:40:40.047Z</time></trkpt><trkpt lat="43.0176704" lon="13.347874"><ele>495.0</ele><time>2026-04-18T07:40:41.056Z</time></trkpt><trkpt lat="43.0176049" lon="13.3479256"><ele>495.0</ele><time>2026-04-18T07:40:42.069Z</time></trkpt><trkpt lat="43.0175338" lon="13.3479617"><ele>495.0</ele><time>2026-04-18T07:40:43.047Z</time></trkpt><trkpt lat="43.0174588" lon="13.3479969"><ele>495.0</ele><time>2026-04-18T07:40:44.061Z</time></trkpt><trkpt lat="43.0173707" lon="13.3480016"><ele>495.0</ele><time>2026-04-18T07:40:45.072Z</time></trkpt><trkpt lat="43.017285" lon="13.3479967"><ele>495.0</ele><time>2026-04-18T07:40:46.072Z</time></trkpt><trkpt lat="43.017217" lon="13.3479898"><ele>496.1666666666667</ele><time>2026-04-18T07:40:47.068Z</time></trkpt><trkpt lat="43.0171511" lon="13.3479825"><ele>497.33333333333337</ele><time>2026-04-18T07:40:48.072Z</time></trkpt><trkpt lat="43.0170508" lon="13.3480265"><ele>498.5</ele><time>2026-04-18T07:40:50.046Z</time></trkpt><trkpt lat="43.0169961" lon="13.348164"><ele>499.6666666666667</ele><time>2026-04-18T07:40:52.07Z</time></trkpt><trkpt lat="43.0169832" lon="13.3482613"><ele>500.83333333333337</ele><time>2026-04-18T07:40:53.073Z</time></trkpt><trkpt lat="43.016977" lon="13.3483547"><ele>502.0</ele><time>2026-04-18T07:40:54.055Z</time></trkpt><trkpt lat="43.0169474" lon="13.3484974"><ele>499.20000000000005</ele><time>2026-04-18T07:40:56.065Z</time></trkpt><trkpt lat="43.016879" lon="13.3485727"><ele>496.40000000000003</ele><time>2026-04-18T07:40:58.069Z</time></trkpt><trkpt lat="43.0167601" lon="13.3486155"><ele>493.59999999999997</ele><time>2026-04-18T07:41:00.07Z</time></trkpt><trkpt lat="43.0166943" lon="13.3486279"><ele>490.79999999999995</ele><time>2026-04-18T07:41:01.035Z</time></trkpt><trkpt lat="43.0165746" lon="13.3486246"><ele>488.0</ele><time>2026-04-18T07:41:03.072Z</time></trkpt><trkpt lat="43.016504" lon="13.3484859"><ele>487.99999999999994</ele><time>2026-04-18T07:41:05.074Z</time></trkpt><trkpt lat="43.0164746" lon="13.3484056"><ele>488.0</ele><time>2026-04-18T07:41:06.08Z</time></trkpt><trkpt lat="43.016435" lon="13.3483385"><ele>488.0</ele><time>2026-04-18T07:41:07.061Z</time></trkpt><trkpt lat="43.0163393" lon="13.3482237"><ele>488.0</ele><time>2026-04-18T07:41:09.039Z</time></trkpt><trkpt lat="43.0162782" lon="13.3481962"><ele>487.99999999999994</ele><time>2026-04-18T07:41:10.073Z</time></trkpt><trkpt lat="43.0161553" lon="13.3481946"><ele>488.0</ele><time>2026-04-18T07:41:12.037Z</time></trkpt><trkpt lat="43.0160946" lon="13.3482254"><ele>487.99999999999994</ele><time>2026-04-18T07:41:13.04Z</time></trkpt><trkpt lat="43.0160303" lon="13.3482396"><ele>488.0</ele><time>2026-04-18T07:41:14.047Z</time></trkpt><trkpt lat="43.0159611" lon="13.3482528"><ele>488.0</ele><time>2026-04-18T07:41:15.056Z</time></trkpt><trkpt lat="43.0158931" lon="13.34826"><ele>488.0</ele><time>2026-04-18T07:41:16.042Z</time></trkpt><trkpt lat="43.0158247" lon="13.3482607"><ele>487.99999999999994</ele><time>2026-04-18T07:41:17.042Z</time></trkpt><trkpt lat="43.0157178" lon="13.3482605"><ele>488.0</ele><time>2026-04-18T07:41:19.061Z</time></trkpt><trkpt lat="43.0156361" lon="13.3482503"><ele>488.5714285714285</ele><time>2026-04-18T07:41:22.052Z</time></trkpt><trkpt lat="43.0155713" lon="13.3482914"><ele>489.1428571428571</ele><time>2026-04-18T07:41:43Z</time></trkpt><trkpt lat="43.0154884" lon="13.3482782"><ele>489.7142857142857</ele><time>2026-04-18T07:41:46Z</time></trkpt><trkpt lat="43.0154107" lon="13.3482647"><ele>490.2857142857143</ele><time>2026-04-18T07:41:49.009Z</time></trkpt><trkpt lat="43.0153351" lon="13.3482515"><ele>490.8571428571429</ele><time>2026-04-18T07:41:52.006Z</time></trkpt><trkpt lat="43.0152647" lon="13.3482566"><ele>491.4285714285715</ele><time>2026-04-18T07:41:55.013Z</time></trkpt><trkpt lat="43.0151987" lon="13.3482837"><ele>492.00000000000006</ele><time>2026-04-18T07:42:09.003Z</time></trkpt><trkpt lat="43.0151492" lon="13.3483555"><ele>492.0</ele><time>2026-04-18T07:42:43.038Z</time></trkpt><trkpt lat="43.0151544" lon="13.348463"><ele>492.0</ele><time>2026-04-18T07:42:46.042Z</time></trkpt><trkpt lat="43.0151639" lon="13.3485548"><ele>492.0</ele><time>2026-04-18T07:42:48.052Z</time></trkpt><trkpt lat="43.0151364" lon="13.3486621"><ele>492.0</ele><time>2026-04-18T07:42:53.054Z</time></trkpt><trkpt lat="43.0150657" lon="13.3486319"><ele>492.0</ele><time>2026-04-18T07:42:54.994Z</time></trkpt><trkpt lat="43.0149691" lon="13.3485873"><ele>492.0</ele><time>2026-04-18T07:42:57.007Z</time></trkpt><trkpt lat="43.0149085" lon="13.3485527"><ele>494.0</ele><time>2026-04-18T07:42:58.06Z</time></trkpt><trkpt lat="43.0148003" lon="13.3484846"><ele>496.0</ele><time>2026-04-18T07:43:07.034Z</time></trkpt><trkpt lat="43.0147375" lon="13.3484944"><ele>498.0</ele><time>2026-04-18T07:43:21.048Z</time></trkpt><trkpt lat="43.0146675" lon="13.3484782"><ele>500.0</ele><time>2026-04-18T07:45:59.06Z</time></trkpt><trkpt lat="43.0146094" lon="13.3483929"><ele>502.0</ele><time>2026-04-18T07:46:05.005Z</time></trkpt><trkpt lat="43.0145682" lon="13.3482628"><ele>504.0</ele><time>2026-04-18T07:47:02.032Z</time></trkpt><trkpt lat="43.0145122" lon="13.3483236"><ele>504.0</ele><time>2026-04-18T07:48:20.998Z</time></trkpt><trkpt lat="43.0145701" lon="13.3483645"><ele>504.0</ele><time>2026-04-18T07:48:39.031Z</time></trkpt><trkpt lat="43.014622" lon="13.3484532"><ele>504.0</ele><time>2026-04-18T07:48:45.101Z</time></trkpt><trkpt lat="43.0146155" lon="13.3485878"><ele>504.0</ele><time>2026-04-18T07:48:46.004Z</time></trkpt><trkpt lat="43.0146895" lon="13.3489262"><ele>508.2</ele><time>2026-04-18T07:48:47.056Z</time></trkpt><trkpt lat="43.0147067" lon="13.3490677"><ele>512.4</ele><time>2026-04-18T07:48:48.058Z</time></trkpt><trkpt lat="43.0147338" lon="13.3492155"><ele>516.6</ele><time>2026-04-18T07:48:49.04Z</time></trkpt><trkpt lat="43.0147803" lon="13.3493782"><ele>520.8</ele><time>2026-04-18T07:48:50.071Z</time></trkpt><trkpt lat="43.0148064" lon="13.3495026"><ele>525.0</ele><time>2026-04-18T07:48:51.04Z</time></trkpt><trkpt lat="43.0148433" lon="13.3497008"><ele>528.3333333333334</ele><time>2026-04-18T07:48:52.071Z</time></trkpt><trkpt lat="43.0148609" lon="13.3499231"><ele>531.6666666666667</ele><time>2026-04-18T07:48:53.077Z</time></trkpt><trkpt lat="43.0148665" lon="13.3501325"><ele>535.0</ele><time>2026-04-18T07:48:54.084Z</time></trkpt><trkpt lat="43.0148522" lon="13.3503205"><ele>535.6666666666667</ele><time>2026-04-18T07:48:55.061Z</time></trkpt><trkpt lat="43.0148529" lon="13.3506712"><ele>536.3333333333334</ele><time>2026-04-18T07:48:56.081Z</time></trkpt><trkpt lat="43.0148412" lon="13.3509057"><ele>537.0</ele><time>2026-04-18T07:48:57.08Z</time></trkpt><trkpt lat="43.0147551" lon="13.3511176"><ele>537.0</ele><time>2026-04-18T07:48:58.077Z</time></trkpt><trkpt lat="43.0146487" lon="13.3512878"><ele>537.0</ele><time>2026-04-18T07:48:59.092Z</time></trkpt><trkpt lat="43.0145518" lon="13.3514443"><ele>537.0</ele><time>2026-04-18T07:49:00.091Z</time></trkpt><trkpt lat="43.0144666" lon="13.3515735"><ele>537.0</ele><time>2026-04-18T07:49:01.086Z</time></trkpt><trkpt lat="43.0143494" lon="13.3516763"><ele>538.6666666666666</ele><time>2026-04-18T07:49:02.092Z</time></trkpt><trkpt lat="43.0142008" lon="13.3517338"><ele>540.3333333333333</ele><time>2026-04-18T07:49:03.076Z</time></trkpt><trkpt lat="43.0140497" lon="13.3518236"><ele>542.0</ele><time>2026-04-18T07:49:04.086Z</time></trkpt><trkpt lat="43.0139181" lon="13.351882"><ele>542.0</ele><time>2026-04-18T07:49:05.102Z</time></trkpt><trkpt lat="43.0137876" lon="13.3519385"><ele>542.0</ele><time>2026-04-18T07:49:06.084Z</time></trkpt><trkpt lat="43.0136661" lon="13.3519955"><ele>542.0</ele><time>2026-04-18T07:49:07.099Z</time></trkpt><trkpt lat="43.0136004" lon="13.3521319"><ele>542.0</ele><time>2026-04-18T07:49:09.101Z</time></trkpt><trkpt lat="43.0136011" lon="13.3522791"><ele>541.2</ele><time>2026-04-18T07:49:11.071Z</time></trkpt><trkpt lat="43.0137044" lon="13.3523843"><ele>540.4000000000001</ele><time>2026-04-18T07:49:24.013Z</time></trkpt><trkpt lat="43.0137395" lon="13.3525484"><ele>539.5999999999999</ele><time>2026-04-18T07:49:26.046Z</time></trkpt><trkpt lat="43.0137644" lon="13.352653"><ele>538.8</ele><time>2026-04-18T07:49:27.071Z</time></trkpt><trkpt lat="43.0138141" lon="13.3527724"><ele>538.0</ele><time>2026-04-18T07:49:28.068Z</time></trkpt><trkpt lat="43.0138669" lon="13.3528975"><ele>538.1999999999999</ele><time>2026-04-18T07:49:29.067Z</time></trkpt><trkpt lat="43.013915" lon="13.353047"><ele>538.4</ele><time>2026-04-18T07:49:30.075Z</time></trkpt><trkpt lat="43.0139441" lon="13.3531714"><ele>538.5999999999999</ele><time>2026-04-18T07:49:31.09Z</time></trkpt><trkpt lat="43.0139595" lon="13.3533071"><ele>538.8</ele><time>2026-04-18T07:49:32.089Z</time></trkpt><trkpt lat="43.0139685" lon="13.3534418"><ele>539.0</ele><time>2026-04-18T07:49:33.076Z</time></trkpt><trkpt lat="43.0139655" lon="13.3535911"><ele>539.0</ele><time>2026-04-18T07:49:34.116Z</time></trkpt><trkpt lat="43.0139659" lon="13.3537244"><ele>539.0</ele><time>2026-04-18T07:49:35.085Z</time></trkpt><trkpt lat="43.0139657" lon="13.3538538"><ele>539.0</ele><time>2026-04-18T07:49:36.089Z</time></trkpt><trkpt lat="43.0139537" lon="13.3540188"><ele>539.0</ele><time>2026-04-18T07:49:37.088Z</time></trkpt><trkpt lat="43.0139424" lon="13.3541968"><ele>539.0</ele><time>2026-04-18T07:49:38.095Z</time></trkpt><trkpt lat="43.0139335" lon="13.3543716"><ele>539.5</ele><time>2026-04-18T07:49:39.065Z</time></trkpt><trkpt lat="43.0139271" lon="13.3545495"><ele>540.0</ele><time>2026-04-18T07:49:40.09Z</time></trkpt><trkpt lat="43.0139278" lon="13.3547297"><ele>540.5</ele><time>2026-04-18T07:49:41.069Z</time></trkpt><trkpt lat="43.0139274" lon="13.3549034"><ele>541.0</ele><time>2026-04-18T07:49:42.037Z</time></trkpt><trkpt lat="43.0139143" lon="13.3550897"><ele>541.5</ele><time>2026-04-18T07:49:43.064Z</time></trkpt><trkpt lat="43.0138983" lon="13.3552706"><ele>542.0</ele><time>2026-04-18T07:49:44.066Z</time></trkpt><trkpt lat="43.0138696" lon="13.3554513"><ele>542.5</ele><time>2026-04-18T07:49:45.064Z</time></trkpt><trkpt lat="43.0138529" lon="13.3555922"><ele>543.0</ele><time>2026-04-18T07:49:46.053Z</time></trkpt><trkpt lat="43.0138626" lon="13.3557259"><ele>543.25</ele><time>2026-04-18T07:49:47.065Z</time></trkpt><trkpt lat="43.0139018" lon="13.3558601"><ele>543.5</ele><time>2026-04-18T07:49:48.068Z</time></trkpt><trkpt lat="43.0139582" lon="13.3560161"><ele>543.75</ele><time>2026-04-18T07:49:49.059Z</time></trkpt><trkpt lat="43.0140026" lon="13.3561746"><ele>544.0</ele><time>2026-04-18T07:49:50.04Z</time></trkpt><trkpt lat="43.0140488" lon="13.3563124"><ele>544.5</ele><time>2026-04-18T07:49:51.068Z</time></trkpt><trkpt lat="43.014093" lon="13.3564342"><ele>545.0</ele><time>2026-04-18T07:49:52.047Z</time></trkpt><trkpt lat="43.0141237" lon="13.3565502"><ele>545.5</ele><time>2026-04-18T07:49:53.03Z</time></trkpt><trkpt lat="43.0141381" lon="13.3566596"><ele>546.0</ele><time>2026-04-18T07:49:54.033Z</time></trkpt><trkpt lat="43.0141298" lon="13.3567662"><ele>546.5</ele><time>2026-04-18T07:49:55.035Z</time></trkpt><trkpt lat="43.0140958" lon="13.3568641"><ele>547.0</ele><time>2026-04-18T07:49:56.032Z</time></trkpt><trkpt lat="43.0140411" lon="13.3569536"><ele>547.0</ele><time>2026-04-18T07:49:57.064Z</time></trkpt><trkpt lat="43.0139722" lon="13.3570375"><ele>547.0</ele><time>2026-04-18T07:49:58.071Z</time></trkpt><trkpt lat="43.0139099" lon="13.3571228"><ele>547.0</ele><time>2026-04-18T07:49:59.095Z</time></trkpt><trkpt lat="43.0138632" lon="13.3572227"><ele>547.0</ele><time>2026-04-18T07:50:00.087Z</time></trkpt><trkpt lat="43.0138406" lon="13.3573436"><ele>547.0</ele><time>2026-04-18T07:50:01.063Z</time></trkpt><trkpt lat="43.0138401" lon="13.3574796"><ele>547.0</ele><time>2026-04-18T07:50:02.036Z</time></trkpt><trkpt lat="43.0138594" lon="13.3576233"><ele>547.0</ele><time>2026-04-18T07:50:03.07Z</time></trkpt><trkpt lat="43.0138846" lon="13.357775"><ele>547.0</ele><time>2026-04-18T07:50:04.065Z</time></trkpt><trkpt lat="43.0139072" lon="13.3579549"><ele>547.0</ele><time>2026-04-18T07:50:05.077Z</time></trkpt><trkpt lat="43.0139101" lon="13.3581562"><ele>547.0</ele><time>2026-04-18T07:50:06.077Z</time></trkpt><trkpt lat="43.0139133" lon="13.3583514"><ele>547.0</ele><time>2026-04-18T07:50:07.041Z</time></trkpt><trkpt lat="43.0138886" lon="13.358518"><ele>547.0</ele><time>2026-04-18T07:50:08.073Z</time></trkpt><trkpt lat="43.0138534" lon="13.3586453"><ele>547.0</ele><time>2026-04-18T07:50:09.079Z</time></trkpt><trkpt lat="43.0138102" lon="13.3587353"><ele>547.0</ele><time>2026-04-18T07:50:10.069Z</time></trkpt><trkpt lat="43.0137685" lon="13.3588712"><ele>545.8000000000001</ele><time>2026-04-18T07:50:12.054Z</time></trkpt><trkpt lat="43.013747" lon="13.3589576"><ele>544.6</ele><time>2026-04-18T07:50:13.085Z</time></trkpt><trkpt lat="43.0137779" lon="13.3590795"><ele>543.4000000000001</ele><time>2026-04-18T07:50:14.078Z</time></trkpt><trkpt lat="43.0138259" lon="13.3592037"><ele>542.2</ele><time>2026-04-18T07:50:15.1Z</time></trkpt><trkpt lat="43.013875" lon="13.3593392"><ele>541.0</ele><time>2026-04-18T07:50:16.075Z</time></trkpt><trkpt lat="43.0139212" lon="13.3594737"><ele>541.0</ele><time>2026-04-18T07:50:17.046Z</time></trkpt><trkpt lat="43.0139667" lon="13.3596105"><ele>541.0</ele><time>2026-04-18T07:50:18.086Z</time></trkpt><trkpt lat="43.0140149" lon="13.3597447"><ele>541.0</ele><time>2026-04-18T07:50:19.096Z</time></trkpt><trkpt lat="43.0140628" lon="13.3598803"><ele>541.0</ele><time>2026-04-18T07:50:20.082Z</time></trkpt><trkpt lat="43.0141114" lon="13.3600162"><ele>541.0</ele><time>2026-04-18T07:50:21.092Z</time></trkpt><trkpt lat="43.014161" lon="13.3601544"><ele>540.5</ele><time>2026-04-18T07:50:22.045Z</time></trkpt><trkpt lat="43.0142145" lon="13.3603047"><ele>540.0</ele><time>2026-04-18T07:50:23.077Z</time></trkpt><trkpt lat="43.014269" lon="13.360454"><ele>539.5</ele><time>2026-04-18T07:50:24.089Z</time></trkpt><trkpt lat="43.0143171" lon="13.3605899"><ele>539.0</ele><time>2026-04-18T07:50:25.076Z</time></trkpt><trkpt lat="43.0143616" lon="13.360723"><ele>538.0</ele><time>2026-04-18T07:50:26.072Z</time></trkpt><trkpt lat="43.0144098" lon="13.3608589"><ele>537.0</ele><time>2026-04-18T07:50:27.035Z</time></trkpt><trkpt lat="43.0144588" lon="13.3609933"><ele>536.0</ele><time>2026-04-18T07:50:28.064Z</time></trkpt><trkpt lat="43.0145057" lon="13.3611244"><ele>535.0</ele><time>2026-04-18T07:50:29.083Z</time></trkpt><trkpt lat="43.0145541" lon="13.3612616"><ele>534.0</ele><time>2026-04-18T07:50:30.084Z</time></trkpt><trkpt lat="43.0145954" lon="13.3614068"><ele>533.5</ele><time>2026-04-18T07:50:31.071Z</time></trkpt><trkpt lat="43.0146222" lon="13.3615531"><ele>533.0</ele><time>2026-04-18T07:50:32.032Z</time></trkpt><trkpt lat="43.0146314" lon="13.3617022"><ele>532.5</ele><time>2026-04-18T07:50:33.065Z</time></trkpt><trkpt lat="43.0146251" lon="13.36186"><ele>532.0</ele><time>2026-04-18T07:50:34.081Z</time></trkpt><trkpt lat="43.014604" lon="13.3620237"><ele>532.0</ele><time>2026-04-18T07:50:35.073Z</time></trkpt><trkpt lat="43.0145836" lon="13.3621836"><ele>532.0</ele><time>2026-04-18T07:50:36.084Z</time></trkpt><trkpt lat="43.0145772" lon="13.3623375"><ele>532.0</ele><time>2026-04-18T07:50:37.039Z</time></trkpt><trkpt lat="43.0145865" lon="13.3624866"><ele>532.0</ele><time>2026-04-18T07:50:38.086Z</time></trkpt><trkpt lat="43.0146061" lon="13.3626337"><ele>532.25</ele><time>2026-04-18T07:50:39.076Z</time></trkpt><trkpt lat="43.0146561" lon="13.362777"><ele>532.5</ele><time>2026-04-18T07:50:40.136Z</time></trkpt><trkpt lat="43.0147253" lon="13.3629154"><ele>532.75</ele><time>2026-04-18T07:50:41.044Z</time></trkpt><trkpt lat="43.0147942" lon="13.3630488"><ele>533.0</ele><time>2026-04-18T07:50:42.041Z</time></trkpt><trkpt lat="43.0148659" lon="13.3631816"><ele>532.1999999999999</ele><time>2026-04-18T07:50:43.035Z</time></trkpt><trkpt lat="43.0149197" lon="13.3633244"><ele>531.4</ele><time>2026-04-18T07:50:44.07Z</time></trkpt><trkpt lat="43.0149514" lon="13.3634658"><ele>530.5999999999999</ele><time>2026-04-18T07:50:45.056Z</time></trkpt><trkpt lat="43.0149599" lon="13.3636081"><ele>529.8</ele><time>2026-04-18T07:50:46.058Z</time></trkpt><trkpt lat="43.014951" lon="13.3637564"><ele>529.0</ele><time>2026-04-18T07:50:47.044Z</time></trkpt><trkpt lat="43.0149343" lon="13.3639109"><ele>528.25</ele><time>2026-04-18T07:50:48.088Z</time></trkpt><trkpt lat="43.0149212" lon="13.3640653"><ele>527.5</ele><time>2026-04-18T07:50:49.066Z</time></trkpt><trkpt lat="43.0149242" lon="13.3642162"><ele>526.75</ele><time>2026-04-18T07:50:50.029Z</time></trkpt><trkpt lat="43.0149513" lon="13.3643696"><ele>526.0</ele><time>2026-04-18T07:50:51.028Z</time></trkpt><trkpt lat="43.0150044" lon="13.3645274"><ele>530.5</ele><time>2026-04-18T07:50:52.062Z</time></trkpt><trkpt lat="43.0150739" lon="13.3646996"><ele>535.0</ele><time>2026-04-18T07:50:53.065Z</time></trkpt><trkpt lat="43.0151371" lon="13.3648677"><ele>539.5</ele><time>2026-04-18T07:50:54.075Z</time></trkpt><trkpt lat="43.0151951" lon="13.3650286"><ele>544.0</ele><time>2026-04-18T07:50:55.086Z</time></trkpt><trkpt lat="43.0152464" lon="13.3651866"><ele>544.0</ele><time>2026-04-18T07:50:56.058Z</time></trkpt><trkpt lat="43.0152947" lon="13.3653455"><ele>544.0</ele><time>2026-04-18T07:50:57.047Z</time></trkpt><trkpt lat="43.0153428" lon="13.3655028"><ele>544.0</ele><time>2026-04-18T07:50:58.078Z</time></trkpt><trkpt lat="43.0153938" lon="13.3656531"><ele>544.0</ele><time>2026-04-18T07:50:59.062Z</time></trkpt><trkpt lat="43.0154792" lon="13.3657897"><ele>542.5</ele><time>2026-04-18T07:51:00.076Z</time></trkpt><trkpt lat="43.015569" lon="13.3658967"><ele>541.0</ele><time>2026-04-18T07:51:01.073Z</time></trkpt><trkpt lat="43.01565" lon="13.3660083"><ele>539.5</ele><time>2026-04-18T07:51:02.029Z</time></trkpt><trkpt lat="43.015719" lon="13.3661238"><ele>538.0</ele><time>2026-04-18T07:51:03.066Z</time></trkpt><trkpt lat="43.0157714" lon="13.3662607"><ele>536.1999999999999</ele><time>2026-04-18T07:51:04.067Z</time></trkpt><trkpt lat="43.0158141" lon="13.3664089"><ele>534.4</ele><time>2026-04-18T07:51:05.065Z</time></trkpt><trkpt lat="43.0158488" lon="13.366554"><ele>532.5999999999999</ele><time>2026-04-18T07:51:06.076Z</time></trkpt><trkpt lat="43.0158954" lon="13.3666874"><ele>530.8</ele><time>2026-04-18T07:51:07.06Z</time></trkpt><trkpt lat="43.0159435" lon="13.3667928"><ele>529.0</ele><time>2026-04-18T07:51:08.061Z</time></trkpt><trkpt lat="43.0160068" lon="13.3669091"><ele>531.1428571428571</ele><time>2026-04-18T07:51:10.067Z</time></trkpt><trkpt lat="43.0160481" lon="13.3669811"><ele>533.2857142857142</ele><time>2026-04-18T07:51:18.048Z</time></trkpt><trkpt lat="43.0160015" lon="13.3671142"><ele>535.4285714285713</ele><time>2026-04-18T07:51:30.046Z</time></trkpt><trkpt lat="43.0159758" lon="13.3671999"><ele>537.5714285714286</ele><time>2026-04-18T07:51:31.025Z</time></trkpt><trkpt lat="43.0159623" lon="13.367292"><ele>539.7142857142857</ele><time>2026-04-18T07:51:32.042Z</time></trkpt><trkpt lat="43.015953" lon="13.367386"><ele>541.8571428571428</ele><time>2026-04-18T07:51:33.071Z</time></trkpt><trkpt lat="43.0159426" lon="13.3674787"><ele>544.0</ele><time>2026-04-18T07:51:34.082Z</time></trkpt><trkpt lat="43.0159334" lon="13.3675707"><ele>543.9999999999999</ele><time>2026-04-18T07:51:35.061Z</time></trkpt><trkpt lat="43.0159278" lon="13.3676649"><ele>544.0</ele><time>2026-04-18T07:51:36.065Z</time></trkpt><trkpt lat="43.0159222" lon="13.3677623"><ele>544.0</ele><time>2026-04-18T07:51:37.043Z</time></trkpt><trkpt lat="43.0159173" lon="13.3678607"><ele>544.0</ele><time>2026-04-18T07:51:38.075Z</time></trkpt><trkpt lat="43.0159159" lon="13.3679519"><ele>544.0</ele><time>2026-04-18T07:51:39.061Z</time></trkpt><trkpt lat="43.0159072" lon="13.368044"><ele>543.9999999999999</ele><time>2026-04-18T07:51:40.062Z</time></trkpt><trkpt lat="43.0158829" lon="13.3681242"><ele>544.0</ele><time>2026-04-18T07:51:41.057Z</time></trkpt><trkpt lat="43.0157915" lon="13.3682459"><ele>539.6666666666667</ele><time>2026-04-18T07:51:43.062Z</time></trkpt><trkpt lat="43.0157115" lon="13.368259"><ele>535.3333333333334</ele><time>2026-04-18T07:51:44.051Z</time></trkpt><trkpt lat="43.0156401" lon="13.3682682"><ele>531.0</ele><time>2026-04-18T07:51:45.071Z</time></trkpt><trkpt lat="43.0155742" lon="13.3682892"><ele>526.6666666666666</ele><time>2026-04-18T07:51:46.068Z</time></trkpt><trkpt lat="43.0155063" lon="13.3683347"><ele>522.3333333333333</ele><time>2026-04-18T07:51:47.042Z</time></trkpt><trkpt lat="43.0154262" lon="13.3683891"><ele>518.0</ele><time>2026-04-18T07:51:48.069Z</time></trkpt><trkpt lat="43.0153637" lon="13.3684957"><ele>518.0</ele><time>2026-04-18T07:51:49.057Z</time></trkpt><trkpt lat="43.0153121" lon="13.3686064"><ele>518.0</ele><time>2026-04-18T07:51:50.056Z</time></trkpt><trkpt lat="43.0152673" lon="13.3687251"><ele>518.0</ele><time>2026-04-18T07:51:51.061Z</time></trkpt><trkpt lat="43.015221" lon="13.3688501"><ele>518.0</ele><time>2026-04-18T07:51:52.028Z</time></trkpt><trkpt lat="43.0151805" lon="13.3689884"><ele>518.0</ele><time>2026-04-18T07:51:53.127Z</time></trkpt><trkpt lat="43.0151604" lon="13.3691289"><ele>517.6</ele><time>2026-04-18T07:51:54.069Z</time></trkpt><trkpt lat="43.01514" lon="13.3692761"><ele>517.1999999999999</ele><time>2026-04-18T07:51:55.057Z</time></trkpt><trkpt lat="43.0151184" lon="13.3694147"><ele>516.8</ele><time>2026-04-18T07:51:56.051Z</time></trkpt><trkpt lat="43.0150985" lon="13.369561"><ele>516.4</ele><time>2026-04-18T07:51:57.059Z</time></trkpt><trkpt lat="43.0150754" lon="13.3696798"><ele>516.0</ele><time>2026-04-18T07:51:58.076Z</time></trkpt><trkpt lat="43.0150531" lon="13.369783"><ele>514.8333333333334</ele><time>2026-04-18T07:51:59.088Z</time></trkpt><trkpt lat="43.0150233" lon="13.3698667"><ele>513.6666666666666</ele><time>2026-04-18T07:52:00.073Z</time></trkpt><trkpt lat="43.0149513" lon="13.3700032"><ele>512.5</ele><time>2026-04-18T07:52:02.061Z</time></trkpt><trkpt lat="43.0148948" lon="13.3700535"><ele>511.3333333333333</ele><time>2026-04-18T07:52:03.069Z</time></trkpt><trkpt lat="43.0148352" lon="13.370101"><ele>510.16666666666663</ele><time>2026-04-18T07:52:04.085Z</time></trkpt><trkpt lat="43.0147517" lon="13.3701217"><ele>509.0</ele><time>2026-04-18T07:52:05.078Z</time></trkpt><trkpt lat="43.014667" lon="13.3701227"><ele>506.99999999999994</ele><time>2026-04-18T07:52:06.045Z</time></trkpt><trkpt lat="43.0145872" lon="13.3701033"><ele>505.0</ele><time>2026-04-18T07:52:07.064Z</time></trkpt><trkpt lat="43.0145143" lon="13.3700562"><ele>503.0</ele><time>2026-04-18T07:52:08.092Z</time></trkpt><trkpt lat="43.0144548" lon="13.3699918"><ele>501.0</ele><time>2026-04-18T07:52:09.084Z</time></trkpt><trkpt lat="43.014399" lon="13.3699181"><ele>498.99999999999994</ele><time>2026-04-18T07:52:10.121Z</time></trkpt><trkpt lat="43.0143429" lon="13.3698582"><ele>497.0</ele><time>2026-04-18T07:52:11.091Z</time></trkpt><trkpt lat="43.0142347" lon="13.3698224"><ele>494.3333333333333</ele><time>2026-04-18T07:52:13.078Z</time></trkpt><trkpt lat="43.014111" lon="13.3698901"><ele>491.66666666666663</ele><time>2026-04-18T07:52:15.095Z</time></trkpt><trkpt lat="43.0140421" lon="13.3699371"><ele>489.0</ele><time>2026-04-18T07:52:16.142Z</time></trkpt><trkpt lat="43.013976" lon="13.3699906"><ele>486.33333333333337</ele><time>2026-04-18T07:52:17.079Z</time></trkpt><trkpt lat="43.0139081" lon="13.3700438"><ele>483.6666666666667</ele><time>2026-04-18T07:52:18.093Z</time></trkpt><trkpt lat="43.0138367" lon="13.3700953"><ele>481.0</ele><time>2026-04-18T07:52:19.058Z</time></trkpt><trkpt lat="43.0137582" lon="13.3701525"><ele>481.0</ele><time>2026-04-18T07:52:20.103Z</time></trkpt><trkpt lat="43.0136744" lon="13.3702104"><ele>481.0</ele><time>2026-04-18T07:52:21.08Z</time></trkpt><trkpt lat="43.0135894" lon="13.370274"><ele>481.0</ele><time>2026-04-18T07:52:22.084Z</time></trkpt><trkpt lat="43.0135057" lon="13.3703365"><ele>481.0</ele><time>2026-04-18T07:52:23.089Z</time></trkpt><trkpt lat="43.0134309" lon="13.3704131"><ele>481.0</ele><time>2026-04-18T07:52:24.097Z</time></trkpt><trkpt lat="43.0133568" lon="13.3704864"><ele>477.83333333333337</ele><time>2026-04-18T07:52:25.096Z</time></trkpt><trkpt lat="43.0132906" lon="13.3705729"><ele>474.6666666666667</ele><time>2026-04-18T07:52:26.092Z</time></trkpt><trkpt lat="43.0132264" lon="13.3706553"><ele>471.5</ele><time>2026-04-18T07:52:27.105Z</time></trkpt><trkpt lat="43.0131652" lon="13.3707376"><ele>468.33333333333337</ele><time>2026-04-18T07:52:28.087Z</time></trkpt><trkpt lat="43.0131053" lon="13.3708227"><ele>465.1666666666667</ele><time>2026-04-18T07:52:29.065Z</time></trkpt><trkpt lat="43.0130491" lon="13.3709102"><ele>462.0</ele><time>2026-04-18T07:52:30.073Z</time></trkpt><trkpt lat="43.0129902" lon="13.3709931"><ele>462.0</ele><time>2026-04-18T07:52:31.059Z</time></trkpt><trkpt lat="43.0129202" lon="13.3710817"><ele>462.00000000000006</ele><time>2026-04-18T07:52:32.092Z</time></trkpt><trkpt lat="43.0128528" lon="13.3711748"><ele>462.00000000000006</ele><time>2026-04-18T07:52:33.074Z</time></trkpt><trkpt lat="43.0127843" lon="13.3712665"><ele>462.0</ele><time>2026-04-18T07:52:34.067Z</time></trkpt><trkpt lat="43.0127194" lon="13.3713593"><ele>462.0</ele><time>2026-04-18T07:52:35.069Z</time></trkpt><trkpt lat="43.0126618" lon="13.3714556"><ele>461.6666666666667</ele><time>2026-04-18T07:52:36.061Z</time></trkpt><trkpt lat="43.0126101" lon="13.371553"><ele>461.33333333333337</ele><time>2026-04-18T07:52:37.077Z</time></trkpt><trkpt lat="43.0125623" lon="13.3716509"><ele>461.0</ele><time>2026-04-18T07:52:38.075Z</time></trkpt><trkpt lat="43.0125195" lon="13.3717525"><ele>460.6666666666667</ele><time>2026-04-18T07:52:39.076Z</time></trkpt><trkpt lat="43.0124787" lon="13.3718489"><ele>460.33333333333337</ele><time>2026-04-18T07:52:40.073Z</time></trkpt><trkpt lat="43.0124388" lon="13.3719466"><ele>460.0</ele><time>2026-04-18T07:52:41.067Z</time></trkpt><trkpt lat="43.0124078" lon="13.3720285"><ele>457.6</ele><time>2026-04-18T07:52:42.064Z</time></trkpt><trkpt lat="43.0123478" lon="13.3721401"><ele>455.2</ele><time>2026-04-18T07:52:44.033Z</time></trkpt><trkpt lat="43.0122145" lon="13.3721529"><ele>452.79999999999995</ele><time>2026-04-18T07:52:46.049Z</time></trkpt><trkpt lat="43.0121219" lon="13.3721296"><ele>450.4</ele><time>2026-04-18T07:52:47.091Z</time></trkpt><trkpt lat="43.0120155" lon="13.3721036"><ele>448.0</ele><time>2026-04-18T07:52:48.072Z</time></trkpt><trkpt lat="43.0119107" lon="13.3720803"><ele>448.00000000000006</ele><time>2026-04-18T07:52:49.061Z</time></trkpt><trkpt lat="43.011816" lon="13.3720596"><ele>448.0</ele><time>2026-04-18T07:52:50.082Z</time></trkpt><trkpt lat="43.0117217" lon="13.3720388"><ele>448.0</ele><time>2026-04-18T07:52:51.067Z</time></trkpt><trkpt lat="43.0116363" lon="13.3720354"><ele>448.0</ele><time>2026-04-18T07:52:52.061Z</time></trkpt><trkpt lat="43.0115581" lon="13.3720415"><ele>448.00000000000006</ele><time>2026-04-18T07:52:53.067Z</time></trkpt><trkpt lat="43.0114795" lon="13.3720568"><ele>448.0</ele><time>2026-04-18T07:52:54.059Z</time></trkpt><trkpt lat="43.011392" lon="13.3720834"><ele>445.79999999999995</ele><time>2026-04-18T07:52:55.065Z</time></trkpt><trkpt lat="43.0113034" lon="13.3721271"><ele>443.59999999999997</ele><time>2026-04-18T07:52:56.063Z</time></trkpt><trkpt lat="43.0112047" lon="13.3721937"><ele>441.40000000000003</ele><time>2026-04-18T07:52:57.085Z</time></trkpt><trkpt lat="43.0111079" lon="13.3722652"><ele>439.20000000000005</ele><time>2026-04-18T07:52:58.027Z</time></trkpt><trkpt lat="43.0110114" lon="13.3723331"><ele>437.0</ele><time>2026-04-18T07:52:59.038Z</time></trkpt><trkpt lat="43.010925" lon="13.3724001"><ele>437.0</ele><time>2026-04-18T07:53:00.035Z</time></trkpt><trkpt lat="43.0108359" lon="13.3724777"><ele>437.00000000000006</ele><time>2026-04-18T07:53:01.046Z</time></trkpt><trkpt lat="43.0107531" lon="13.3725664"><ele>437.00000000000006</ele><time>2026-04-18T07:53:02.05Z</time></trkpt><trkpt lat="43.0106712" lon="13.3726533"><ele>437.0</ele><time>2026-04-18T07:53:03.048Z</time></trkpt><trkpt lat="43.010612" lon="13.3727751"><ele>437.0</ele><time>2026-04-18T07:53:04.044Z</time></trkpt><trkpt lat="43.0105616" lon="13.3729098"><ele>433.25</ele><time>2026-04-18T07:53:05.074Z</time></trkpt><trkpt lat="43.0105081" lon="13.3730529"><ele>429.5</ele><time>2026-04-18T07:53:06.084Z</time></trkpt><trkpt lat="43.0104709" lon="13.3732326"><ele>425.75</ele><time>2026-04-18T07:53:07.075Z</time></trkpt><trkpt lat="43.0104367" lon="13.3734474"><ele>422.0</ele><time>2026-04-18T07:53:08.111Z</time></trkpt><trkpt lat="43.0104179" lon="13.3736482"><ele>422.0</ele><time>2026-04-18T07:53:09.101Z</time></trkpt><trkpt lat="43.0104017" lon="13.3738277"><ele>422.0</ele><time>2026-04-18T07:53:10.069Z</time></trkpt><trkpt lat="43.0103785" lon="13.3739809"><ele>422.0</ele><time>2026-04-18T07:53:11.069Z</time></trkpt><trkpt lat="43.0103417" lon="13.3741156"><ele>422.0</ele><time>2026-04-18T07:53:12.072Z</time></trkpt><trkpt lat="43.0102851" lon="13.3742481"><ele>421.0</ele><time>2026-04-18T07:53:13.073Z</time></trkpt><trkpt lat="43.0102058" lon="13.3743814"><ele>420.0</ele><time>2026-04-18T07:53:14.06Z</time></trkpt><trkpt lat="43.0101097" lon="13.3745178"><ele>419.0</ele><time>2026-04-18T07:53:15.071Z</time></trkpt><trkpt lat="43.0100174" lon="13.3746454"><ele>418.0</ele><time>2026-04-18T07:53:16.066Z</time></trkpt><trkpt lat="43.0099286" lon="13.3747682"><ele>414.25</ele><time>2026-04-18T07:53:17.069Z</time></trkpt><trkpt lat="43.0098422" lon="13.3748817"><ele>410.5</ele><time>2026-04-18T07:53:18.073Z</time></trkpt><trkpt lat="43.0097552" lon="13.3749921"><ele>406.75</ele><time>2026-04-18T07:53:19.117Z</time></trkpt><trkpt lat="43.0096729" lon="13.375102"><ele>403.0</ele><time>2026-04-18T07:53:20.067Z</time></trkpt><trkpt lat="43.0095972" lon="13.3752011"><ele>403.0</ele><time>2026-04-18T07:53:21.071Z</time></trkpt><trkpt lat="43.0095232" lon="13.375315"><ele>403.0</ele><time>2026-04-18T07:53:22.071Z</time></trkpt><trkpt lat="43.0094498" lon="13.3754639"><ele>403.0</ele><time>2026-04-18T07:53:23.066Z</time></trkpt><trkpt lat="43.0093769" lon="13.3756327"><ele>403.0</ele><time>2026-04-18T07:53:24.062Z</time></trkpt><trkpt lat="43.0093089" lon="13.3757788"><ele>402.50000000000006</ele><time>2026-04-18T07:53:25.085Z</time></trkpt><trkpt lat="43.0092436" lon="13.3759025"><ele>402.0</ele><time>2026-04-18T07:53:26.068Z</time></trkpt><trkpt lat="43.0091838" lon="13.3760074"><ele>401.5</ele><time>2026-04-18T07:53:27.066Z</time></trkpt><trkpt lat="43.0091291" lon="13.3760959"><ele>401.0</ele><time>2026-04-18T07:53:28.077Z</time></trkpt><trkpt lat="43.0090737" lon="13.3761775"><ele>400.50000000000006</ele><time>2026-04-18T07:53:29.065Z</time></trkpt><trkpt lat="43.0090235" lon="13.3762505"><ele>400.0</ele><time>2026-04-18T07:53:30.067Z</time></trkpt><trkpt lat="43.0089288" lon="13.3763311"><ele>397.2</ele><time>2026-04-18T07:53:32.063Z</time></trkpt><trkpt lat="43.0088587" lon="13.3763337"><ele>394.4</ele><time>2026-04-18T07:53:33.047Z</time></trkpt><trkpt lat="43.008775" lon="13.3762631"><ele>391.6</ele><time>2026-04-18T07:53:34.048Z</time></trkpt><trkpt lat="43.0086899" lon="13.3761892"><ele>388.8</ele><time>2026-04-18T07:53:35.034Z</time></trkpt><trkpt lat="43.0086039" lon="13.3761032"><ele>386.0</ele><time>2026-04-18T07:53:36.032Z</time></trkpt><trkpt lat="43.0085347" lon="13.3760277"><ele>386.0</ele><time>2026-04-18T07:53:37.037Z</time></trkpt><trkpt lat="43.0084779" lon="13.3759642"><ele>386.0</ele><time>2026-04-18T07:53:38.037Z</time></trkpt><trkpt lat="43.0084234" lon="13.3759151"><ele>386.0</ele><time>2026-04-18T07:53:39.025Z</time></trkpt><trkpt lat="43.0083197" lon="13.3758761"><ele>386.0</ele><time>2026-04-18T07:53:41.065Z</time></trkpt><trkpt lat="43.008217" lon="13.3759666"><ele>386.0</ele><time>2026-04-18T07:53:43.059Z</time></trkpt><trkpt lat="43.0081716" lon="13.3760662"><ele>382.8</ele><time>2026-04-18T07:53:44.043Z</time></trkpt><trkpt lat="43.0081365" lon="13.3761859"><ele>379.6</ele><time>2026-04-18T07:53:45.043Z</time></trkpt><trkpt lat="43.0081106" lon="13.3763246"><ele>376.4</ele><time>2026-04-18T07:53:46.05Z</time></trkpt><trkpt lat="43.0080874" lon="13.3764604"><ele>373.2</ele><time>2026-04-18T07:53:47.049Z</time></trkpt><trkpt lat="43.0080802" lon="13.376615"><ele>370.0</ele><time>2026-04-18T07:53:48.054Z</time></trkpt><trkpt lat="43.0080748" lon="13.3767676"><ele>369.4</ele><time>2026-04-18T07:53:49.068Z</time></trkpt><trkpt lat="43.0080692" lon="13.3768999"><ele>368.8</ele><time>2026-04-18T07:53:50.073Z</time></trkpt><trkpt lat="43.0080632" lon="13.3770359"><ele>368.20000000000005</ele><time>2026-04-18T07:53:51.084Z</time></trkpt><trkpt lat="43.0080614" lon="13.377181"><ele>367.6</ele><time>2026-04-18T07:53:52.088Z</time></trkpt><trkpt lat="43.0080528" lon="13.3773325"><ele>367.0</ele><time>2026-04-18T07:53:53.099Z</time></trkpt><trkpt lat="43.0080454" lon="13.3774658"><ele>366.16666666666663</ele><time>2026-04-18T07:53:54.097Z</time></trkpt><trkpt lat="43.0080423" lon="13.3775834"><ele>365.3333333333333</ele><time>2026-04-18T07:53:55.081Z</time></trkpt><trkpt lat="43.0080351" lon="13.3776744"><ele>364.5</ele><time>2026-04-18T07:53:56.081Z</time></trkpt><trkpt lat="43.0080254" lon="13.3777682"><ele>363.6666666666667</ele><time>2026-04-18T07:53:57.084Z</time></trkpt><trkpt lat="43.00799" lon="13.3778598"><ele>362.83333333333337</ele><time>2026-04-18T07:53:58.062Z</time></trkpt><trkpt lat="43.0079377" lon="13.3779379"><ele>362.0</ele><time>2026-04-18T07:53:59.093Z</time></trkpt><trkpt lat="43.007867" lon="13.3780135"><ele>361.0</ele><time>2026-04-18T07:54:00.073Z</time></trkpt><trkpt lat="43.007778" lon="13.3781059"><ele>360.0</ele><time>2026-04-18T07:54:01.093Z</time></trkpt><trkpt lat="43.0076881" lon="13.3781795"><ele>359.0</ele><time>2026-04-18T07:54:02.069Z</time></trkpt><trkpt lat="43.007602" lon="13.3782591"><ele>358.0</ele><time>2026-04-18T07:54:03.058Z</time></trkpt><trkpt lat="43.0075288" lon="13.3783446"><ele>357.0</ele><time>2026-04-18T07:54:04.058Z</time></trkpt><trkpt lat="43.0074639" lon="13.3784302"><ele>357.0</ele><time>2026-04-18T07:54:05.108Z</time></trkpt><trkpt lat="43.0074052" lon="13.3784976"><ele>357.0</ele><time>2026-04-18T07:54:06.097Z</time></trkpt><trkpt lat="43.007354" lon="13.3785549"><ele>357.0</ele><time>2026-04-18T07:54:07.041Z</time></trkpt><trkpt lat="43.0072763" lon="13.3786359"><ele>357.0</ele><time>2026-04-18T07:54:09.076Z</time></trkpt><trkpt lat="43.0072366" lon="13.3787307"><ele>357.0</ele><time>2026-04-18T07:54:12.036Z</time></trkpt><trkpt lat="43.0072226" lon="13.378825"><ele>357.0</ele><time>2026-04-18T07:55:07.996Z</time></trkpt><trkpt lat="43.00719" lon="13.3789236"><ele>357.0</ele><time>2026-04-18T07:55:10.021Z</time></trkpt><trkpt lat="43.0071331" lon="13.3789638"><ele>357.0</ele><time>2026-04-18T07:55:11.994Z</time></trkpt><trkpt lat="43.0070757" lon="13.3790069"><ele>357.0</ele><time>2026-04-18T07:55:15.025Z</time></trkpt><trkpt lat="43.0070015" lon="13.3790722"><ele>357.0</ele><time>2026-04-18T07:55:18Z</time></trkpt><trkpt lat="43.006894" lon="13.379115"><ele>357.0</ele><time>2026-04-18T07:55:20.022Z</time></trkpt><trkpt lat="43.0068092" lon="13.3791053"><ele>357.0</ele><time>2026-04-18T07:55:21.061Z</time></trkpt><trkpt lat="43.0067276" lon="13.3790799"><ele>357.0</ele><time>2026-04-18T07:55:22.066Z</time></trkpt><trkpt lat="43.0066656" lon="13.3790547"><ele>357.0</ele><time>2026-04-18T07:55:23.04Z</time></trkpt><trkpt lat="43.0065986" lon="13.3790317"><ele>357.0</ele><time>2026-04-18T07:55:25.083Z</time></trkpt><trkpt lat="43.006668" lon="13.379095"><ele>357.0</ele><time>2026-04-18T07:55:32.051Z</time></trkpt><trkpt lat="43.0067934" lon="13.3791202"><ele>357.0</ele><time>2026-04-18T07:55:34.023Z</time></trkpt><trkpt lat="43.006877" lon="13.3791213"><ele>357.0</ele><time>2026-04-18T07:55:35.064Z</time></trkpt><trkpt lat="43.0069672" lon="13.3790949"><ele>357.0</ele><time>2026-04-18T07:55:36.032Z</time></trkpt><trkpt lat="43.0070533" lon="13.3790697"><ele>357.0</ele><time>2026-04-18T07:55:37.079Z</time></trkpt><trkpt lat="43.0071184" lon="13.3790174"><ele>357.0</ele><time>2026-04-18T07:55:38.045Z</time></trkpt><trkpt lat="43.0071969" lon="13.3789667"><ele>357.0</ele><time>2026-04-18T07:55:40.037Z</time></trkpt><trkpt lat="43.0072751" lon="13.3789749"><ele>357.0</ele><time>2026-04-18T07:55:43.013Z</time></trkpt><trkpt lat="43.0073441" lon="13.3790472"><ele>357.0</ele><time>2026-04-18T07:55:44.998Z</time></trkpt><trkpt lat="43.0073785" lon="13.3791271"><ele>357.0</ele><time>2026-04-18T07:55:46.042Z</time></trkpt><trkpt lat="43.0074151" lon="13.3792076"><ele>357.0</ele><time>2026-04-18T07:55:47.066Z</time></trkpt><trkpt lat="43.0074605" lon="13.3792924"><ele>357.0</ele><time>2026-04-18T07:55:48.05Z</time></trkpt><trkpt lat="43.0075085" lon="13.3793829"><ele>357.0</ele><time>2026-04-18T07:55:49.062Z</time></trkpt><trkpt lat="43.0075609" lon="13.3794801"><ele>357.0</ele><time>2026-04-18T07:55:50.055Z</time></trkpt><trkpt lat="43.0076194" lon="13.3795767"><ele>357.0</ele><time>2026-04-18T07:55:51.069Z</time></trkpt><trkpt lat="43.0076794" lon="13.379675"><ele>356.40000000000003</ele><time>2026-04-18T07:55:52.073Z</time></trkpt><trkpt lat="43.0077466" lon="13.3797779"><ele>355.8</ele><time>2026-04-18T07:55:53.044Z</time></trkpt><trkpt lat="43.0078136" lon="13.3798782"><ele>355.2</ele><time>2026-04-18T07:55:54.11Z</time></trkpt><trkpt lat="43.0078733" lon="13.3799704"><ele>354.6</ele><time>2026-04-18T07:55:55.059Z</time></trkpt><trkpt lat="43.0079326" lon="13.3800632"><ele>354.0</ele><time>2026-04-18T07:55:56.071Z</time></trkpt><trkpt lat="43.0079924" lon="13.3801581"><ele>354.0</ele><time>2026-04-18T07:55:57.069Z</time></trkpt><trkpt lat="43.0080548" lon="13.3802564"><ele>354.0</ele><time>2026-04-18T07:55:58.049Z</time></trkpt><trkpt lat="43.008124" lon="13.3803548"><ele>354.0</ele><time>2026-04-18T07:55:59.071Z</time></trkpt><trkpt lat="43.0081857" lon="13.3804423"><ele>354.0</ele><time>2026-04-18T07:56:00.105Z</time></trkpt><trkpt lat="43.0082442" lon="13.3805249"><ele>354.0</ele><time>2026-04-18T07:56:01.06Z</time></trkpt><trkpt lat="43.0082969" lon="13.3806078"><ele>354.0</ele><time>2026-04-18T07:56:02.055Z</time></trkpt><trkpt lat="43.0083505" lon="13.3806883"><ele>353.8333333333333</ele><time>2026-04-18T07:56:03.051Z</time></trkpt><trkpt lat="43.0084087" lon="13.3807704"><ele>353.6666666666667</ele><time>2026-04-18T07:56:04.058Z</time></trkpt><trkpt lat="43.0084829" lon="13.380868"><ele>353.5</ele><time>2026-04-18T07:56:05.068Z</time></trkpt><trkpt lat="43.0085474" lon="13.3809562"><ele>353.33333333333337</ele><time>2026-04-18T07:56:06.048Z</time></trkpt><trkpt lat="43.008609" lon="13.3810391"><ele>353.1666666666667</ele><time>2026-04-18T07:56:07.079Z</time></trkpt><trkpt lat="43.008655" lon="13.3811043"><ele>353.0</ele><time>2026-04-18T07:56:08.056Z</time></trkpt><trkpt lat="43.0087523" lon="13.3812246"><ele>353.0</ele><time>2026-04-18T07:56:10.065Z</time></trkpt><trkpt lat="43.0087954" lon="13.381288"><ele>353.0</ele><time>2026-04-18T07:56:11.082Z</time></trkpt><trkpt lat="43.0088525" lon="13.3813474"><ele>353.0</ele><time>2026-04-18T07:56:12.074Z</time></trkpt><trkpt lat="43.0089113" lon="13.3813936"><ele>353.0</ele><time>2026-04-18T07:56:13.067Z</time></trkpt><trkpt lat="43.008979" lon="13.3814335"><ele>353.0</ele><time>2026-04-18T07:56:14.063Z</time></trkpt><trkpt lat="43.0090541" lon="13.381461"><ele>353.0</ele><time>2026-04-18T07:56:15.06Z</time></trkpt><trkpt lat="43.0091271" lon="13.3814839"><ele>353.0</ele><time>2026-04-18T07:56:16.053Z</time></trkpt><trkpt lat="43.0092082" lon="13.3815004"><ele>353.0</ele><time>2026-04-18T07:56:17.061Z</time></trkpt><trkpt lat="43.0092946" lon="13.3815279"><ele>353.0</ele><time>2026-04-18T07:56:18.055Z</time></trkpt><trkpt lat="43.0093869" lon="13.3815513"><ele>353.0</ele><time>2026-04-18T07:56:19.045Z</time></trkpt><trkpt lat="43.0094818" lon="13.3815747"><ele>353.0</ele><time>2026-04-18T07:56:20.038Z</time></trkpt><trkpt lat="43.0095784" lon="13.3815994"><ele>353.0</ele><time>2026-04-18T07:56:21.069Z</time></trkpt><trkpt lat="43.009671" lon="13.3816251"><ele>353.0</ele><time>2026-04-18T07:56:22.045Z</time></trkpt><trkpt lat="43.0097604" lon="13.3816568"><ele>353.0</ele><time>2026-04-18T07:56:23.051Z</time></trkpt><trkpt lat="43.0098557" lon="13.3816944"><ele>353.0</ele><time>2026-04-18T07:56:24.036Z</time></trkpt><trkpt lat="43.0099506" lon="13.3817503"><ele>353.0</ele><time>2026-04-18T07:56:25.06Z</time></trkpt><trkpt lat="43.0100423" lon="13.3818139"><ele>353.0</ele><time>2026-04-18T07:56:26.043Z</time></trkpt><trkpt lat="43.0101271" lon="13.3818826"><ele>353.5</ele><time>2026-04-18T07:56:27.062Z</time></trkpt><trkpt lat="43.0102056" lon="13.381956"><ele>354.0</ele><time>2026-04-18T07:56:28.06Z</time></trkpt><trkpt lat="43.0102825" lon="13.3820297"><ele>354.5</ele><time>2026-04-18T07:56:29.056Z</time></trkpt><trkpt lat="43.0103543" lon="13.382101"><ele>355.0</ele><time>2026-04-18T07:56:30.06Z</time></trkpt><trkpt lat="43.0104153" lon="13.3821789"><ele>355.5</ele><time>2026-04-18T07:56:31.055Z</time></trkpt><trkpt lat="43.0104697" lon="13.3822513"><ele>356.0</ele><time>2026-04-18T07:56:32.069Z</time></trkpt><trkpt lat="43.0105235" lon="13.3823148"><ele>355.0</ele><time>2026-04-18T07:56:33.096Z</time></trkpt><trkpt lat="43.0105787" lon="13.3823882"><ele>354.0</ele><time>2026-04-18T07:56:34.073Z</time></trkpt><trkpt lat="43.0106277" lon="13.3824481"><ele>353.0</ele><time>2026-04-18T07:56:35.061Z</time></trkpt><trkpt lat="43.0107122" lon="13.3825616"><ele>352.0</ele><time>2026-04-18T07:56:37.091Z</time></trkpt><trkpt lat="43.0107705" lon="13.3826495"><ele>351.0</ele><time>2026-04-18T07:56:39.091Z</time></trkpt><trkpt lat="43.010806" lon="13.3827379"><ele>350.0</ele><time>2026-04-18T07:56:41.038Z</time></trkpt><trkpt lat="43.0108212" lon="13.3828294"><ele>351.4</ele><time>2026-04-18T07:56:44.073Z</time></trkpt><trkpt lat="43.0108796" lon="13.3829039"><ele>352.8</ele><time>2026-04-18T07:56:59.049Z</time></trkpt><trkpt lat="43.0109154" lon="13.383051"><ele>354.20000000000005</ele><time>2026-04-18T07:57:02.045Z</time></trkpt><trkpt lat="43.0109941" lon="13.3832046"><ele>355.6</ele><time>2026-04-18T07:57:04.092Z</time></trkpt><trkpt lat="43.0110488" lon="13.3832714"><ele>357.0</ele><time>2026-04-18T07:57:05.096Z</time></trkpt><trkpt lat="43.0111069" lon="13.3833434"><ele>357.0</ele><time>2026-04-18T07:57:06.084Z</time></trkpt><trkpt lat="43.0111615" lon="13.3834186"><ele>357.0</ele><time>2026-04-18T07:57:07.071Z</time></trkpt><trkpt lat="43.0112208" lon="13.3834986"><ele>357.0</ele><time>2026-04-18T07:57:08.081Z</time></trkpt><trkpt lat="43.0112832" lon="13.3835779"><ele>357.0</ele><time>2026-04-18T07:57:09.071Z</time></trkpt><trkpt lat="43.0113492" lon="13.3836634"><ele>357.0</ele><time>2026-04-18T07:57:10.063Z</time></trkpt><trkpt lat="43.0114143" lon="13.3837498"><ele>357.0</ele><time>2026-04-18T07:57:11.07Z</time></trkpt><trkpt lat="43.0114805" lon="13.383821"><ele>358.6</ele><time>2026-04-18T07:57:12.068Z</time></trkpt><trkpt lat="43.011555" lon="13.3839081"><ele>360.20000000000005</ele><time>2026-04-18T07:57:13.065Z</time></trkpt><trkpt lat="43.0116231" lon="13.383999"><ele>361.8</ele><time>2026-04-18T07:57:14.07Z</time></trkpt><trkpt lat="43.0116914" lon="13.3841141"><ele>363.4</ele><time>2026-04-18T07:57:15.04Z</time></trkpt><trkpt lat="43.0117673" lon="13.3842334"><ele>365.0</ele><time>2026-04-18T07:57:16.06Z</time></trkpt><trkpt lat="43.0118434" lon="13.3843548"><ele>365.0</ele><time>2026-04-18T07:57:17.071Z</time></trkpt><trkpt lat="43.0119158" lon="13.3844595"><ele>365.0</ele><time>2026-04-18T07:57:18.076Z</time></trkpt><trkpt lat="43.0119824" lon="13.3845487"><ele>365.0</ele><time>2026-04-18T07:57:19.061Z</time></trkpt><trkpt lat="43.0120424" lon="13.3846428"><ele>365.0</ele><time>2026-04-18T07:57:20.073Z</time></trkpt><trkpt lat="43.0121012" lon="13.3847471"><ele>365.0</ele><time>2026-04-18T07:57:21.085Z</time></trkpt><trkpt lat="43.0121445" lon="13.3848592"><ele>362.4</ele><time>2026-04-18T07:57:22.064Z</time></trkpt><trkpt lat="43.0121783" lon="13.3849956"><ele>359.8</ele><time>2026-04-18T07:57:23.062Z</time></trkpt><trkpt lat="43.0122126" lon="13.3851388"><ele>357.20000000000005</ele><time>2026-04-18T07:57:24.051Z</time></trkpt><trkpt lat="43.0122187" lon="13.3853007"><ele>354.6</ele><time>2026-04-18T07:57:25.058Z</time></trkpt><trkpt lat="43.012231" lon="13.3854494"><ele>352.0</ele><time>2026-04-18T07:57:26.059Z</time></trkpt><trkpt lat="43.0122483" lon="13.3855945"><ele>351.75</ele><time>2026-04-18T07:57:27.057Z</time></trkpt><trkpt lat="43.012263" lon="13.385736"><ele>351.5</ele><time>2026-04-18T07:57:28.054Z</time></trkpt><trkpt lat="43.0122711" lon="13.385895"><ele>351.25</ele><time>2026-04-18T07:57:29.051Z</time></trkpt><trkpt lat="43.0122764" lon="13.3860671"><ele>351.0</ele><time>2026-04-18T07:57:30.058Z</time></trkpt><trkpt lat="43.01227" lon="13.3862277"><ele>350.0</ele><time>2026-04-18T07:57:31.067Z</time></trkpt><trkpt lat="43.0122691" lon="13.3863736"><ele>349.0</ele><time>2026-04-18T07:57:32.101Z</time></trkpt><trkpt lat="43.0122976" lon="13.3865371"><ele>348.0</ele><time>2026-04-18T07:57:33.095Z</time></trkpt><trkpt lat="43.0123244" lon="13.3867183"><ele>347.0</ele><time>2026-04-18T07:57:34.105Z</time></trkpt><trkpt lat="43.0123758" lon="13.3869135"><ele>347.0</ele><time>2026-04-18T07:57:35.061Z</time></trkpt><trkpt lat="43.0124127" lon="13.3871212"><ele>347.0</ele><time>2026-04-18T07:57:36.068Z</time></trkpt><trkpt lat="43.0124454" lon="13.3873159"><ele>347.0</ele><time>2026-04-18T07:57:37.058Z</time></trkpt><trkpt lat="43.0124476" lon="13.3875074"><ele>347.0</ele><time>2026-04-18T07:57:38.074Z</time></trkpt><trkpt lat="43.0124545" lon="13.3876903"><ele>346.6</ele><time>2026-04-18T07:57:39.074Z</time></trkpt><trkpt lat="43.0124731" lon="13.3878699"><ele>346.20000000000005</ele><time>2026-04-18T07:57:40.118Z</time></trkpt><trkpt lat="43.0124924" lon="13.3880198"><ele>345.8</ele><time>2026-04-18T07:57:41.061Z</time></trkpt><trkpt lat="43.0125117" lon="13.3881623"><ele>345.4</ele><time>2026-04-18T07:57:42.071Z</time></trkpt><trkpt lat="43.0125324" lon="13.3882929"><ele>345.0</ele><time>2026-04-18T07:57:43.065Z</time></trkpt><trkpt lat="43.0125575" lon="13.3884032"><ele>345.0</ele><time>2026-04-18T07:57:44.046Z</time></trkpt><trkpt lat="43.0125674" lon="13.3885351"><ele>345.0</ele><time>2026-04-18T07:57:45.067Z</time></trkpt><trkpt lat="43.0125282" lon="13.3886883"><ele>345.0</ele><time>2026-04-18T07:57:46.112Z</time></trkpt><trkpt lat="43.0124875" lon="13.3888582"><ele>345.0</ele><time>2026-04-18T07:57:47.085Z</time></trkpt><trkpt lat="43.0124515" lon="13.3890184"><ele>345.0</ele><time>2026-04-18T07:57:48.055Z</time></trkpt><trkpt lat="43.0124181" lon="13.3891671"><ele>345.0</ele><time>2026-04-18T07:57:49.054Z</time></trkpt><trkpt lat="43.0123838" lon="13.3893277"><ele>345.0</ele><time>2026-04-18T07:57:50.073Z</time></trkpt><trkpt lat="43.0123619" lon="13.3895255"><ele>345.0</ele><time>2026-04-18T07:57:51.034Z</time></trkpt><trkpt lat="43.0123496" lon="13.3897379"><ele>345.0</ele><time>2026-04-18T07:57:52.062Z</time></trkpt><trkpt lat="43.0123474" lon="13.3899333"><ele>345.0</ele><time>2026-04-18T07:57:53.064Z</time></trkpt><trkpt lat="43.0123487" lon="13.390111"><ele>345.0</ele><time>2026-04-18T07:57:54.056Z</time></trkpt><trkpt lat="43.0123393" lon="13.3902721"><ele>345.0</ele><time>2026-04-18T07:57:55.066Z</time></trkpt><trkpt lat="43.0123342" lon="13.3904203"><ele>345.0</ele><time>2026-04-18T07:57:56.06Z</time></trkpt><trkpt lat="43.0123371" lon="13.3905402"><ele>345.0</ele><time>2026-04-18T07:57:57.05Z</time></trkpt><trkpt lat="43.0123435" lon="13.3906462"><ele>345.0</ele><time>2026-04-18T07:57:58.133Z</time></trkpt><trkpt lat="43.0123515" lon="13.3907446"><ele>345.0</ele><time>2026-04-18T07:57:59.061Z</time></trkpt><trkpt lat="43.0123904" lon="13.3908201"><ele>345.0</ele><time>2026-04-18T07:58:00.064Z</time></trkpt><trkpt lat="43.0124386" lon="13.390876"><ele>345.0</ele><time>2026-04-18T07:58:01.051Z</time></trkpt><trkpt lat="43.0125099" lon="13.3909173"><ele>345.0</ele><time>2026-04-18T07:58:02.069Z</time></trkpt><trkpt lat="43.0125841" lon="13.3909322"><ele>347.0</ele><time>2026-04-18T07:58:03.061Z</time></trkpt><trkpt lat="43.0126498" lon="13.3909398"><ele>349.0</ele><time>2026-04-18T07:58:04.06Z</time></trkpt><trkpt lat="43.0127318" lon="13.3909997"><ele>351.0</ele><time>2026-04-18T07:58:06.073Z</time></trkpt><trkpt lat="43.0127519" lon="13.39114"><ele>353.0</ele><time>2026-04-18T07:58:08.064Z</time></trkpt><trkpt lat="43.0126985" lon="13.3912431"><ele>355.0</ele><time>2026-04-18T07:58:10.078Z</time></trkpt><trkpt lat="43.0126267" lon="13.3912586"><ele>357.0</ele><time>2026-04-18T07:58:11.024Z</time></trkpt><trkpt lat="43.0125539" lon="13.3912724"><ele>355.42857142857144</ele><time>2026-04-18T07:58:12.035Z</time></trkpt><trkpt lat="43.0124843" lon="13.3912757"><ele>353.8571428571429</ele><time>2026-04-18T07:58:13.038Z</time></trkpt><trkpt lat="43.0124197" lon="13.3912803"><ele>352.2857142857143</ele><time>2026-04-18T07:58:14.048Z</time></trkpt><trkpt lat="43.0123539" lon="13.3913025"><ele>350.7142857142857</ele><time>2026-04-18T07:58:15.035Z</time></trkpt><trkpt lat="43.0122945" lon="13.3913523"><ele>349.14285714285717</ele><time>2026-04-18T07:58:16.037Z</time></trkpt><trkpt lat="43.0122366" lon="13.3914066"><ele>347.57142857142856</ele><time>2026-04-18T07:58:17.071Z</time></trkpt><trkpt lat="43.0122025" lon="13.391509"><ele>346.0</ele><time>2026-04-18T07:58:18.053Z</time></trkpt><trkpt lat="43.012167" lon="13.3916143"><ele>346.0</ele><time>2026-04-18T07:58:19.075Z</time></trkpt><trkpt lat="43.0121382" lon="13.3917215"><ele>346.0</ele><time>2026-04-18T07:58:20.098Z</time></trkpt><trkpt lat="43.0121127" lon="13.391824"><ele>346.0</ele><time>2026-04-18T07:58:21.065Z</time></trkpt><trkpt lat="43.0120869" lon="13.3919317"><ele>346.0</ele><time>2026-04-18T07:58:22.083Z</time></trkpt><trkpt lat="43.012065" lon="13.3920435"><ele>346.0</ele><time>2026-04-18T07:58:23.071Z</time></trkpt><trkpt lat="43.0120409" lon="13.3921638"><ele>346.0</ele><time>2026-04-18T07:58:24.035Z</time></trkpt><trkpt lat="43.0120165" lon="13.3922873"><ele>346.0</ele><time>2026-04-18T07:58:25.064Z</time></trkpt><trkpt lat="43.0119876" lon="13.3923986"><ele>346.0</ele><time>2026-04-18T07:58:26.065Z</time></trkpt><trkpt lat="43.0119609" lon="13.392491"><ele>346.0</ele><time>2026-04-18T07:58:27.069Z</time></trkpt><trkpt lat="43.0119338" lon="13.3925704"><ele>346.0</ele><time>2026-04-18T07:58:28.081Z</time></trkpt><trkpt lat="43.0119126" lon="13.3927139"><ele>346.0</ele><time>2026-04-18T07:58:30.065Z</time></trkpt><trkpt lat="43.0119467" lon="13.392829"><ele>346.0</ele><time>2026-04-18T07:58:32.072Z</time></trkpt><trkpt lat="43.0120603" lon="13.3928459"><ele>346.0</ele><time>2026-04-18T07:58:34.023Z</time></trkpt><trkpt lat="43.0121638" lon="13.3928081"><ele>346.0</ele><time>2026-04-18T07:58:36.085Z</time></trkpt><trkpt lat="43.0122477" lon="13.39276"><ele>346.0</ele><time>2026-04-18T07:58:38.089Z</time></trkpt><trkpt lat="43.0123189" lon="13.392732"><ele>346.0</ele><time>2026-04-18T07:58:41.054Z</time></trkpt><trkpt lat="43.0124154" lon="13.3927657"><ele>346.0</ele><time>2026-04-18T07:58:43.032Z</time></trkpt><trkpt lat="43.0124822" lon="13.3927988"><ele>346.0</ele><time>2026-04-18T07:58:44.082Z</time></trkpt><trkpt lat="43.0125459" lon="13.39283"><ele>348.16666666666663</ele><time>2026-04-18T07:58:45.058Z</time></trkpt><trkpt lat="43.012653" lon="13.3928725"><ele>350.3333333333333</ele><time>2026-04-18T07:58:47.032Z</time></trkpt><trkpt lat="43.0127121" lon="13.3929811"><ele>352.5</ele><time>2026-04-18T07:58:49.061Z</time></trkpt><trkpt lat="43.0127348" lon="13.3930659"><ele>354.6666666666667</ele><time>2026-04-18T07:58:51.048Z</time></trkpt><trkpt lat="43.0126925" lon="13.3931714"><ele>356.83333333333337</ele><time>2026-04-18T07:58:53.03Z</time></trkpt><trkpt lat="43.0126278" lon="13.3932184"><ele>359.0</ele><time>2026-04-18T07:58:54.09Z</time></trkpt><trkpt lat="43.0125476" lon="13.3932651"><ele>356.4</ele><time>2026-04-18T07:58:55.065Z</time></trkpt><trkpt lat="43.0124613" lon="13.3933162"><ele>353.79999999999995</ele><time>2026-04-18T07:58:56.071Z</time></trkpt><trkpt lat="43.0123795" lon="13.3933649"><ele>351.20000000000005</ele><time>2026-04-18T07:58:57.067Z</time></trkpt><trkpt lat="43.0122955" lon="13.393416"><ele>348.6</ele><time>2026-04-18T07:58:58.064Z</time></trkpt><trkpt lat="43.0122083" lon="13.3934683"><ele>346.0</ele><time>2026-04-18T07:58:59.045Z</time></trkpt><trkpt lat="43.0121088" lon="13.393535"><ele>346.0</ele><time>2026-04-18T07:59:00.068Z</time></trkpt><trkpt lat="43.0120149" lon="13.3936048"><ele>346.0</ele><time>2026-04-18T07:59:01.086Z</time></trkpt><trkpt lat="43.0119353" lon="13.3936813"><ele>346.0</ele><time>2026-04-18T07:59:02.084Z</time></trkpt><trkpt lat="43.0118605" lon="13.3937567"><ele>346.0</ele><time>2026-04-18T07:59:03.06Z</time></trkpt><trkpt lat="43.0118062" lon="13.3938531"><ele>346.0</ele><time>2026-04-18T07:59:04.039Z</time></trkpt><trkpt lat="43.0117596" lon="13.3939655"><ele>345.20000000000005</ele><time>2026-04-18T07:59:05.072Z</time></trkpt><trkpt lat="43.0117124" lon="13.3940972"><ele>344.40000000000003</ele><time>2026-04-18T07:59:06.074Z</time></trkpt><trkpt lat="43.0116678" lon="13.3942309"><ele>343.6</ele><time>2026-04-18T07:59:07.083Z</time></trkpt><trkpt lat="43.0116318" lon="13.3943664"><ele>342.8</ele><time>2026-04-18T07:59:08.058Z</time></trkpt><trkpt lat="43.0115969" lon="13.394481"><ele>342.0</ele><time>2026-04-18T07:59:09.04Z</time></trkpt><trkpt lat="43.0115647" lon="13.394579"><ele>342.6666666666667</ele><time>2026-04-18T07:59:10.075Z</time></trkpt><trkpt lat="43.0115297" lon="13.3946731"><ele>343.3333333333333</ele><time>2026-04-18T07:59:11.058Z</time></trkpt><trkpt lat="43.0115012" lon="13.3947706"><ele>344.0</ele><time>2026-04-18T07:59:12.071Z</time></trkpt><trkpt lat="43.0114853" lon="13.3948802"><ele>344.66666666666663</ele><time>2026-04-18T07:59:13.095Z</time></trkpt><trkpt lat="43.0114809" lon="13.3949973"><ele>345.3333333333333</ele><time>2026-04-18T07:59:14.043Z</time></trkpt><trkpt lat="43.0114813" lon="13.3951057"><ele>346.0</ele><time>2026-04-18T07:59:15.081Z</time></trkpt><trkpt lat="43.0114852" lon="13.3952129"><ele>346.0</ele><time>2026-04-18T07:59:16.107Z</time></trkpt><trkpt lat="43.0114922" lon="13.3953222"><ele>346.0</ele><time>2026-04-18T07:59:17.078Z</time></trkpt><trkpt lat="43.0114962" lon="13.3954262"><ele>346.0</ele><time>2026-04-18T07:59:18.077Z</time></trkpt><trkpt lat="43.0114938" lon="13.3955236"><ele>346.0</ele><time>2026-04-18T07:59:19.043Z</time></trkpt><trkpt lat="43.0114827" lon="13.3956159"><ele>346.0</ele><time>2026-04-18T07:59:20.073Z</time></trkpt><trkpt lat="43.0114633" lon="13.3957081"><ele>346.0</ele><time>2026-04-18T07:59:21.061Z</time></trkpt><trkpt lat="43.0114382" lon="13.3957934"><ele>346.0</ele><time>2026-04-18T07:59:22.074Z</time></trkpt><trkpt lat="43.0114117" lon="13.3958773"><ele>346.66666666666663</ele><time>2026-04-18T07:59:23.079Z</time></trkpt><trkpt lat="43.0113749" lon="13.3959523"><ele>347.3333333333333</ele><time>2026-04-18T07:59:24.041Z</time></trkpt><trkpt lat="43.0113323" lon="13.3960328"><ele>348.0</ele><time>2026-04-18T07:59:25.087Z</time></trkpt><trkpt lat="43.0112931" lon="13.3961062"><ele>348.6666666666667</ele><time>2026-04-18T07:59:26.053Z</time></trkpt><trkpt lat="43.0112256" lon="13.3962182"><ele>349.33333333333337</ele><time>2026-04-18T07:59:28.059Z</time></trkpt><trkpt lat="43.0111802" lon="13.3963009"><ele>350.0</ele><time>2026-04-18T07:59:31.056Z</time></trkpt><trkpt lat="43.0111352" lon="13.3963774"><ele>350.0</ele><time>2026-04-18T08:00:02.027Z</time></trkpt><trkpt lat="43.0111677" lon="13.3962957"><ele>350.0</ele><time>2026-04-18T08:00:09.065Z</time></trkpt><trkpt lat="43.0112466" lon="13.3961894"><ele>350.0</ele><time>2026-04-18T08:00:11.061Z</time></trkpt><trkpt lat="43.0113119" lon="13.3962268"><ele>350.0</ele><time>2026-04-18T08:00:13.038Z</time></trkpt><trkpt lat="43.0112805" lon="13.3963863"><ele>350.0</ele><time>2026-04-18T08:00:15.025Z</time></trkpt><trkpt lat="43.0112479" lon="13.3964922"><ele>351.0</ele><time>2026-04-18T08:00:16.071Z</time></trkpt><trkpt lat="43.0112147" lon="13.3966282"><ele>352.0</ele><time>2026-04-18T08:00:17.119Z</time></trkpt><trkpt lat="43.0111844" lon="13.3967818"><ele>353.0</ele><time>2026-04-18T08:00:18.065Z</time></trkpt><trkpt lat="43.0111537" lon="13.3969375"><ele>354.0</ele><time>2026-04-18T08:00:19.073Z</time></trkpt><trkpt lat="43.0111274" lon="13.397085"><ele>353.75</ele><time>2026-04-18T08:00:20.074Z</time></trkpt><trkpt lat="43.0111141" lon="13.3972408"><ele>353.5</ele><time>2026-04-18T08:00:21.065Z</time></trkpt><trkpt lat="43.0111154" lon="13.3974169"><ele>353.25</ele><time>2026-04-18T08:00:22.072Z</time></trkpt><trkpt lat="43.0111187" lon="13.397605"><ele>353.0</ele><time>2026-04-18T08:00:23.098Z</time></trkpt><trkpt lat="43.011121" lon="13.3977925"><ele>353.0</ele><time>2026-04-18T08:00:24.068Z</time></trkpt><trkpt lat="43.0111237" lon="13.3979686"><ele>353.0</ele><time>2026-04-18T08:00:25.071Z</time></trkpt><trkpt lat="43.0111298" lon="13.3981329"><ele>353.0</ele><time>2026-04-18T08:00:26.075Z</time></trkpt><trkpt lat="43.0111359" lon="13.3982917"><ele>353.0</ele><time>2026-04-18T08:00:27.06Z</time></trkpt><trkpt lat="43.0111427" lon="13.3984383"><ele>351.79999999999995</ele><time>2026-04-18T08:00:28.067Z</time></trkpt><trkpt lat="43.0111521" lon="13.398579"><ele>350.6</ele><time>2026-04-18T08:00:29.081Z</time></trkpt><trkpt lat="43.0111618" lon="13.3987132"><ele>349.4</ele><time>2026-04-18T08:00:30.058Z</time></trkpt><trkpt lat="43.0111747" lon="13.3988403"><ele>348.20000000000005</ele><time>2026-04-18T08:00:31.068Z</time></trkpt><trkpt lat="43.0111925" lon="13.3989666"><ele>347.0</ele><time>2026-04-18T08:00:32.06Z</time></trkpt><trkpt lat="43.0112163" lon="13.3990874"><ele>345.6</ele><time>2026-04-18T08:00:33.063Z</time></trkpt><trkpt lat="43.0112444" lon="13.3992081"><ele>344.20000000000005</ele><time>2026-04-18T08:00:34.079Z</time></trkpt><trkpt lat="43.0112758" lon="13.3993393"><ele>342.8</ele><time>2026-04-18T08:00:35.065Z</time></trkpt><trkpt lat="43.011319" lon="13.3994885"><ele>341.4</ele><time>2026-04-18T08:00:36.058Z</time></trkpt><trkpt lat="43.0113686" lon="13.3996525"><ele>340.0</ele><time>2026-04-18T08:00:37.052Z</time></trkpt><trkpt lat="43.0114242" lon="13.3998383"><ele>338.5</ele><time>2026-04-18T08:00:38.059Z</time></trkpt><trkpt lat="43.0114804" lon="13.400026"><ele>337.0</ele><time>2026-04-18T08:00:39.062Z</time></trkpt><trkpt lat="43.011531" lon="13.40021"><ele>335.5</ele><time>2026-04-18T08:00:40.082Z</time></trkpt><trkpt lat="43.0115806" lon="13.4003855"><ele>334.0</ele><time>2026-04-18T08:00:41.066Z</time></trkpt><trkpt lat="43.0116235" lon="13.4005556"><ele>334.0</ele><time>2026-04-18T08:00:42.094Z</time></trkpt><trkpt lat="43.0116388" lon="13.4007094"><ele>334.0</ele><time>2026-04-18T08:00:43.091Z</time></trkpt><trkpt lat="43.0116607" lon="13.4008688"><ele>334.0</ele><time>2026-04-18T08:00:44.062Z</time></trkpt><trkpt lat="43.0116758" lon="13.4010433"><ele>334.0</ele><time>2026-04-18T08:00:45.064Z</time></trkpt><trkpt lat="43.0116953" lon="13.4012162"><ele>334.6</ele><time>2026-04-18T08:00:46.054Z</time></trkpt><trkpt lat="43.0116841" lon="13.4013769"><ele>335.2</ele><time>2026-04-18T08:00:47.02Z</time></trkpt><trkpt lat="43.011655" lon="13.4015273"><ele>335.8</ele><time>2026-04-18T08:00:48.062Z</time></trkpt><trkpt lat="43.0116184" lon="13.4016684"><ele>336.40000000000003</ele><time>2026-04-18T08:00:49.06Z</time></trkpt><trkpt lat="43.0115797" lon="13.4017905"><ele>337.0</ele><time>2026-04-18T08:00:50.113Z</time></trkpt><trkpt lat="43.0115472" lon="13.4018984"><ele>337.0</ele><time>2026-04-18T08:00:51.08Z</time></trkpt><trkpt lat="43.0115286" lon="13.4020045"><ele>337.0</ele><time>2026-04-18T08:00:52.075Z</time></trkpt><trkpt lat="43.0115263" lon="13.4021182"><ele>337.0</ele><time>2026-04-18T08:00:53.069Z</time></trkpt><trkpt lat="43.0115213" lon="13.4022352"><ele>337.0</ele><time>2026-04-18T08:00:54.09Z</time></trkpt><trkpt lat="43.0114945" lon="13.4023272"><ele>337.0</ele><time>2026-04-18T08:00:55.08Z</time></trkpt><trkpt lat="43.011458" lon="13.4024126"><ele>337.0</ele><time>2026-04-18T08:00:56.06Z</time></trkpt><trkpt lat="43.0114123" lon="13.4025091"><ele>337.0</ele><time>2026-04-18T08:00:57.053Z</time></trkpt><trkpt lat="43.011346" lon="13.4026272"><ele>337.0</ele><time>2026-04-18T08:00:58.059Z</time></trkpt><trkpt lat="43.0112778" lon="13.4027595"><ele>337.0</ele><time>2026-04-18T08:00:59.06Z</time></trkpt><trkpt lat="43.0112212" lon="13.4029095"><ele>337.0</ele><time>2026-04-18T08:01:00.072Z</time></trkpt><trkpt lat="43.011168" lon="13.403065"><ele>337.0</ele><time>2026-04-18T08:01:01.068Z</time></trkpt><trkpt lat="43.0111187" lon="13.4032291"><ele>337.0</ele><time>2026-04-18T08:01:02.098Z</time></trkpt><trkpt lat="43.0110727" lon="13.4034125"><ele>337.0</ele><time>2026-04-18T08:01:03.062Z</time></trkpt><trkpt lat="43.0110299" lon="13.4036019"><ele>337.0</ele><time>2026-04-18T08:01:04.056Z</time></trkpt><trkpt lat="43.0109916" lon="13.4037716"><ele>337.6</ele><time>2026-04-18T08:01:05.054Z</time></trkpt><trkpt lat="43.0109522" lon="13.4039253"><ele>338.20000000000005</ele><time>2026-04-18T08:01:06.06Z</time></trkpt><trkpt lat="43.0109111" lon="13.4040631"><ele>338.8</ele><time>2026-04-18T08:01:07.057Z</time></trkpt><trkpt lat="43.0108712" lon="13.4041993"><ele>339.4</ele><time>2026-04-18T08:01:08.057Z</time></trkpt><trkpt lat="43.010841" lon="13.4043423"><ele>340.0</ele><time>2026-04-18T08:01:09.059Z</time></trkpt><trkpt lat="43.0108286" lon="13.4045016"><ele>340.0</ele><time>2026-04-18T08:01:10.055Z</time></trkpt><trkpt lat="43.0108307" lon="13.4046698"><ele>340.0</ele><time>2026-04-18T08:01:11.096Z</time></trkpt><trkpt lat="43.0108419" lon="13.4048268"><ele>340.0</ele><time>2026-04-18T08:01:12.109Z</time></trkpt><trkpt lat="43.0108559" lon="13.4049734"><ele>340.0</ele><time>2026-04-18T08:01:13.042Z</time></trkpt><trkpt lat="43.0108627" lon="13.4051154"><ele>340.0</ele><time>2026-04-18T08:01:14.039Z</time></trkpt><trkpt lat="43.0108601" lon="13.4052532"><ele>340.0</ele><time>2026-04-18T08:01:15.036Z</time></trkpt><trkpt lat="43.0108432" lon="13.4053951"><ele>340.0</ele><time>2026-04-18T08:01:16.031Z</time></trkpt><trkpt lat="43.0108122" lon="13.4055458"><ele>340.0</ele><time>2026-04-18T08:01:17.045Z</time></trkpt><trkpt lat="43.0107677" lon="13.4056976"><ele>340.0</ele><time>2026-04-18T08:01:18.029Z</time></trkpt><trkpt lat="43.0107223" lon="13.4058428"><ele>338.0</ele><time>2026-04-18T08:01:19.098Z</time></trkpt><trkpt lat="43.0106909" lon="13.4059979"><ele>336.0</ele><time>2026-04-18T08:01:20.057Z</time></trkpt><trkpt lat="43.0106764" lon="13.4061727"><ele>334.0</ele><time>2026-04-18T08:01:21.042Z</time></trkpt><trkpt lat="43.0106725" lon="13.4063595"><ele>332.0</ele><time>2026-04-18T08:01:22.062Z</time></trkpt><trkpt lat="43.0106689" lon="13.4065451"><ele>331.8</ele><time>2026-04-18T08:01:23.066Z</time></trkpt><trkpt lat="43.010667" lon="13.406712"><ele>331.6</ele><time>2026-04-18T08:01:24.063Z</time></trkpt><trkpt lat="43.0106601" lon="13.406861"><ele>331.40000000000003</ele><time>2026-04-18T08:01:25.061Z</time></trkpt><trkpt lat="43.0106524" lon="13.4069869"><ele>331.20000000000005</ele><time>2026-04-18T08:01:26.071Z</time></trkpt><trkpt lat="43.0106474" lon="13.4070929"><ele>331.0</ele><time>2026-04-18T08:01:27.065Z</time></trkpt><trkpt lat="43.0106444" lon="13.4071898"><ele>331.0</ele><time>2026-04-18T08:01:28.108Z</time></trkpt><trkpt lat="43.0106469" lon="13.4072785"><ele>331.0</ele><time>2026-04-18T08:01:29.085Z</time></trkpt><trkpt lat="43.0106467" lon="13.4074386"><ele>331.0</ele><time>2026-04-18T08:01:31.08Z</time></trkpt><trkpt lat="43.010629" lon="13.407562"><ele>331.0</ele><time>2026-04-18T08:01:33.087Z</time></trkpt><trkpt lat="43.01062" lon="13.4076487"><ele>331.0</ele><time>2026-04-18T08:01:36.028Z</time></trkpt><trkpt lat="43.0105258" lon="13.4077141"><ele>331.0</ele><time>2026-04-18T08:01:40.054Z</time></trkpt><trkpt lat="43.0104586" lon="13.4077415"><ele>331.0</ele><time>2026-04-18T08:01:41.013Z</time></trkpt><trkpt lat="43.0103812" lon="13.4077825"><ele>331.0</ele><time>2026-04-18T08:01:42.038Z</time></trkpt><trkpt lat="43.0103019" lon="13.4078381"><ele>331.0</ele><time>2026-04-18T08:01:43.053Z</time></trkpt><trkpt lat="43.0102262" lon="13.4079009"><ele>331.0</ele><time>2026-04-18T08:01:44.053Z</time></trkpt><trkpt lat="43.0101586" lon="13.4079696"><ele>331.0</ele><time>2026-04-18T08:01:45.052Z</time></trkpt><trkpt lat="43.0101007" lon="13.4080572"><ele>331.0</ele><time>2026-04-18T08:01:46.061Z</time></trkpt><trkpt lat="43.0100484" lon="13.4081686"><ele>330.4</ele><time>2026-04-18T08:01:47.074Z</time></trkpt><trkpt lat="43.0099908" lon="13.408298"><ele>329.8</ele><time>2026-04-18T08:01:48.072Z</time></trkpt><trkpt lat="43.0099272" lon="13.4084283"><ele>329.2</ele><time>2026-04-18T08:01:49.059Z</time></trkpt><trkpt lat="43.0098692" lon="13.4085467"><ele>328.59999999999997</ele><time>2026-04-18T08:01:50.053Z</time></trkpt><trkpt lat="43.0098256" lon="13.4086506"><ele>328.0</ele><time>2026-04-18T08:01:51.071Z</time></trkpt><trkpt lat="43.0097876" lon="13.4087422"><ele>328.0</ele><time>2026-04-18T08:01:52.059Z</time></trkpt><trkpt lat="43.0097446" lon="13.4088128"><ele>328.0</ele><time>2026-04-18T08:01:53.074Z</time></trkpt><trkpt lat="43.009685" lon="13.408867"><ele>328.0</ele><time>2026-04-18T08:01:54.055Z</time></trkpt><trkpt lat="43.0096131" lon="13.4089096"><ele>328.0</ele><time>2026-04-18T08:01:55.067Z</time></trkpt><trkpt lat="43.0095456" lon="13.40895"><ele>328.0</ele><time>2026-04-18T08:01:56.05Z</time></trkpt><trkpt lat="43.0094864" lon="13.4089934"><ele>328.0</ele><time>2026-04-18T08:01:57.057Z</time></trkpt><trkpt lat="43.0093849" lon="13.4090499"><ele>327.8333333333333</ele><time>2026-04-18T08:01:59.042Z</time></trkpt><trkpt lat="43.0093176" lon="13.4090369"><ele>327.66666666666663</ele><time>2026-04-18T08:02:01.032Z</time></trkpt><trkpt lat="43.0092376" lon="13.408961"><ele>327.5</ele><time>2026-04-18T08:02:04.002Z</time></trkpt><trkpt lat="43.0091884" lon="13.4088936"><ele>327.3333333333333</ele><time>2026-04-18T08:02:05.999Z</time></trkpt><trkpt lat="43.009124" lon="13.4088112"><ele>327.1666666666667</ele><time>2026-04-18T08:02:08.032Z</time></trkpt><trkpt lat="43.0090604" lon="13.4087268"><ele>327.0</ele><time>2026-04-18T08:02:10.064Z</time></trkpt><trkpt lat="43.00901" lon="13.4086719"><ele>328.0</ele><time>2026-04-18T08:02:12.032Z</time></trkpt><trkpt lat="43.0089443" lon="13.4086045"><ele>329.0</ele><time>2026-04-18T08:02:14.033Z</time></trkpt><trkpt lat="43.0088776" lon="13.4085346"><ele>330.0</ele><time>2026-04-18T08:03:29.998Z</time></trkpt><trkpt lat="43.0088479" lon="13.4084409"><ele>331.0</ele><time>2026-04-18T08:03:40.001Z</time></trkpt><trkpt lat="43.0088322" lon="13.4083531"><ele>332.0</ele><time>2026-04-18T08:03:50.002Z</time></trkpt><trkpt lat="43.0087874" lon="13.4082841"><ele>333.0</ele><time>2026-04-18T08:03:54.03Z</time></trkpt><trkpt lat="43.0087062" lon="13.4082982"><ele>333.0</ele><time>2026-04-18T08:04:23.077Z</time></trkpt><trkpt lat="43.0086228" lon="13.4082224"><ele>333.0</ele><time>2026-04-18T08:04:25.02Z</time></trkpt><trkpt lat="43.0085596" lon="13.408151"><ele>333.0</ele><time>2026-04-18T08:04:26.082Z</time></trkpt><trkpt lat="43.0084869" lon="13.4080731"><ele>333.0</ele><time>2026-04-18T08:04:27.067Z</time></trkpt><trkpt lat="43.0084064" lon="13.4079913"><ele>333.0</ele><time>2026-04-18T08:04:28.044Z</time></trkpt><trkpt lat="43.0083302" lon="13.4078985"><ele>335.0</ele><time>2026-04-18T08:04:29.085Z</time></trkpt><trkpt lat="43.0082586" lon="13.4078112"><ele>337.0</ele><time>2026-04-18T08:04:30.11Z</time></trkpt><trkpt lat="43.0081983" lon="13.4077199"><ele>339.0</ele><time>2026-04-18T08:04:31.068Z</time></trkpt><trkpt lat="43.0081486" lon="13.407648"><ele>341.0</ele><time>2026-04-18T08:04:32.065Z</time></trkpt><trkpt lat="43.0081016" lon="13.4075761"><ele>343.0</ele><time>2026-04-18T08:04:33.07Z</time></trkpt><trkpt lat="43.0080226" lon="13.4075176"><ele>345.0</ele><time>2026-04-18T08:04:34.081Z</time></trkpt><trkpt lat="43.0079389" lon="13.4074584"><ele>345.0</ele><time>2026-04-18T08:04:35.053Z</time></trkpt><trkpt lat="43.0078756" lon="13.4074168"><ele>345.0</ele><time>2026-04-18T08:04:36.09Z</time></trkpt><trkpt lat="43.0078159" lon="13.4073737"><ele>345.0</ele><time>2026-04-18T08:04:37.057Z</time></trkpt><trkpt lat="43.0077436" lon="13.4073564"><ele>345.0</ele><time>2026-04-18T08:04:39.045Z</time></trkpt><trkpt lat="43.0076294" lon="13.4073408"><ele>345.0</ele><time>2026-04-18T08:05:11.016Z</time></trkpt><trkpt lat="43.0076462" lon="13.4071918"><ele>345.0</ele><time>2026-04-18T08:05:13.995Z</time></trkpt><trkpt lat="43.0076837" lon="13.4071072"><ele>345.5</ele><time>2026-04-18T08:05:15.066Z</time></trkpt><trkpt lat="43.0077283" lon="13.4070193"><ele>346.0</ele><time>2026-04-18T08:05:16.077Z</time></trkpt><trkpt lat="43.0077736" lon="13.4069194"><ele>346.5</ele><time>2026-04-18T08:05:17.083Z</time></trkpt><trkpt lat="43.007821" lon="13.4068117"><ele>347.0</ele><time>2026-04-18T08:05:18.087Z</time></trkpt><trkpt lat="43.0078723" lon="13.4067027"><ele>347.5</ele><time>2026-04-18T08:05:19.071Z</time></trkpt><trkpt lat="43.0079247" lon="13.406593"><ele>348.0</ele><time>2026-04-18T08:05:20.114Z</time></trkpt><trkpt lat="43.0079716" lon="13.4064833"><ele>348.0</ele><time>2026-04-18T08:05:21.038Z</time></trkpt><trkpt lat="43.0080175" lon="13.4063756"><ele>348.0</ele><time>2026-04-18T08:05:22.04Z</time></trkpt><trkpt lat="43.0080591" lon="13.4062636"><ele>348.0</ele><time>2026-04-18T08:05:23.087Z</time></trkpt><trkpt lat="43.0080922" lon="13.4061454"><ele>348.0</ele><time>2026-04-18T08:05:24.079Z</time></trkpt><trkpt lat="43.008119" lon="13.4060232"><ele>348.0</ele><time>2026-04-18T08:05:25.092Z</time></trkpt><trkpt lat="43.0081345" lon="13.405897"><ele>348.79999999999995</ele><time>2026-04-18T08:05:26.042Z</time></trkpt><trkpt lat="43.00814" lon="13.4057677"><ele>349.6</ele><time>2026-04-18T08:05:27.038Z</time></trkpt><trkpt lat="43.00814" lon="13.4056437"><ele>350.4</ele><time>2026-04-18T08:05:28.07Z</time></trkpt><trkpt lat="43.0081313" lon="13.4055204"><ele>351.20000000000005</ele><time>2026-04-18T08:05:29.075Z</time></trkpt><trkpt lat="43.0081199" lon="13.4053923"><ele>352.0</ele><time>2026-04-18T08:05:30.062Z</time></trkpt><trkpt lat="43.0081097" lon="13.4052584"><ele>352.6</ele><time>2026-04-18T08:05:31.052Z</time></trkpt><trkpt lat="43.0081001" lon="13.4051237"><ele>353.20000000000005</ele><time>2026-04-18T08:05:32.082Z</time></trkpt><trkpt lat="43.0080866" lon="13.4049788"><ele>353.8</ele><time>2026-04-18T08:05:33.065Z</time></trkpt><trkpt lat="43.0080732" lon="13.4048261"><ele>354.4</ele><time>2026-04-18T08:05:34.06Z</time></trkpt><trkpt lat="43.0080611" lon="13.4046575"><ele>355.0</ele><time>2026-04-18T08:05:35.066Z</time></trkpt><trkpt lat="43.0080477" lon="13.4044886"><ele>355.6</ele><time>2026-04-18T08:05:36.114Z</time></trkpt><trkpt lat="43.0080336" lon="13.4043314"><ele>356.2</ele><time>2026-04-18T08:05:37.075Z</time></trkpt><trkpt lat="43.00802" lon="13.404181"><ele>356.79999999999995</ele><time>2026-04-18T08:05:38.078Z</time></trkpt><trkpt lat="43.0080075" lon="13.4040316"><ele>357.4</ele><time>2026-04-18T08:05:39.078Z</time></trkpt><trkpt lat="43.0079946" lon="13.403884"><ele>358.0</ele><time>2026-04-18T08:05:40.071Z</time></trkpt><trkpt lat="43.0079816" lon="13.4037369"><ele>358.59999999999997</ele><time>2026-04-18T08:05:41.1Z</time></trkpt><trkpt lat="43.0079704" lon="13.4035913"><ele>359.2</ele><time>2026-04-18T08:05:42.136Z</time></trkpt><trkpt lat="43.0079601" lon="13.4034516"><ele>359.8</ele><time>2026-04-18T08:05:43.107Z</time></trkpt><trkpt lat="43.0079497" lon="13.4033143"><ele>360.4</ele><time>2026-04-18T08:05:44.04Z</time></trkpt><trkpt lat="43.0079383" lon="13.4031763"><ele>361.0</ele><time>2026-04-18T08:05:45.03Z</time></trkpt><trkpt lat="43.0079254" lon="13.4030368"><ele>360.8</ele><time>2026-04-18T08:05:46.027Z</time></trkpt><trkpt lat="43.0079124" lon="13.4028983"><ele>360.6</ele><time>2026-04-18T08:05:47.034Z</time></trkpt><trkpt lat="43.0079003" lon="13.4027578"><ele>360.4</ele><time>2026-04-18T08:05:48.043Z</time></trkpt><trkpt lat="43.0078901" lon="13.4026135"><ele>360.2</ele><time>2026-04-18T08:05:49.036Z</time></trkpt><trkpt lat="43.0078859" lon="13.4024657"><ele>360.0</ele><time>2026-04-18T08:05:50.052Z</time></trkpt><trkpt lat="43.0078967" lon="13.4023247"><ele>360.0</ele><time>2026-04-18T08:05:51.056Z</time></trkpt><trkpt lat="43.0079309" lon="13.4021881"><ele>360.0</ele><time>2026-04-18T08:05:52.033Z</time></trkpt><trkpt lat="43.0079823" lon="13.402058"><ele>360.0</ele><time>2026-04-18T08:05:53.043Z</time></trkpt><trkpt lat="43.0080478" lon="13.4019367"><ele>360.0</ele><time>2026-04-18T08:05:54.047Z</time></trkpt><trkpt lat="43.0081275" lon="13.4018152"><ele>360.0</ele><time>2026-04-18T08:05:55.068Z</time></trkpt><trkpt lat="43.0082085" lon="13.4016893"><ele>359.8</ele><time>2026-04-18T08:05:56.078Z</time></trkpt><trkpt lat="43.0082718" lon="13.401559"><ele>359.6</ele><time>2026-04-18T08:05:57.064Z</time></trkpt><trkpt lat="43.0083164" lon="13.4014265"><ele>359.4</ele><time>2026-04-18T08:05:58.054Z</time></trkpt><trkpt lat="43.0083577" lon="13.4013026"><ele>359.2</ele><time>2026-04-18T08:05:59.059Z</time></trkpt><trkpt lat="43.0083776" lon="13.4011761"><ele>359.0</ele><time>2026-04-18T08:06:00.069Z</time></trkpt><trkpt lat="43.0083879" lon="13.4010436"><ele>360.0</ele><time>2026-04-18T08:06:01.067Z</time></trkpt><trkpt lat="43.0083881" lon="13.4009131"><ele>361.0</ele><time>2026-04-18T08:06:02.071Z</time></trkpt><trkpt lat="43.0083873" lon="13.4007836"><ele>362.0</ele><time>2026-04-18T08:06:03.069Z</time></trkpt><trkpt lat="43.0083846" lon="13.400651"><ele>363.0</ele><time>2026-04-18T08:06:04.084Z</time></trkpt><trkpt lat="43.0083803" lon="13.400512"><ele>364.0</ele><time>2026-04-18T08:06:05.059Z</time></trkpt><trkpt lat="43.0083772" lon="13.4003672"><ele>364.4</ele><time>2026-04-18T08:06:06.075Z</time></trkpt><trkpt lat="43.0083767" lon="13.4002192"><ele>364.79999999999995</ele><time>2026-04-18T08:06:07.071Z</time></trkpt><trkpt lat="43.0083704" lon="13.4000744"><ele>365.20000000000005</ele><time>2026-04-18T08:06:08.074Z</time></trkpt><trkpt lat="43.0083604" lon="13.3999361"><ele>365.6</ele><time>2026-04-18T08:06:09.066Z</time></trkpt><trkpt lat="43.008353" lon="13.3998009"><ele>366.0</ele><time>2026-04-18T08:06:10.102Z</time></trkpt><trkpt lat="43.0083497" lon="13.3996648"><ele>366.20000000000005</ele><time>2026-04-18T08:06:11.081Z</time></trkpt><trkpt lat="43.0083515" lon="13.3995317"><ele>366.40000000000003</ele><time>2026-04-18T08:06:12.082Z</time></trkpt><trkpt lat="43.0083535" lon="13.3994113"><ele>366.6</ele><time>2026-04-18T08:06:13.037Z</time></trkpt><trkpt lat="43.0083547" lon="13.3993091"><ele>366.8</ele><time>2026-04-18T08:06:14.033Z</time></trkpt><trkpt lat="43.0083661" lon="13.3991552"><ele>367.0</ele><time>2026-04-18T08:06:16.055Z</time></trkpt><trkpt lat="43.008351" lon="13.3990244"><ele>367.0</ele><time>2026-04-18T08:06:40.066Z</time></trkpt><trkpt lat="43.0083136" lon="13.3991247"><ele>367.0</ele><time>2026-04-18T08:06:43.059Z</time></trkpt><trkpt lat="43.0083164" lon="13.3992241"><ele>367.0</ele><time>2026-04-18T08:06:44.06Z</time></trkpt><trkpt lat="43.0083193" lon="13.3993535"><ele>367.0</ele><time>2026-04-18T08:06:45.065Z</time></trkpt><trkpt lat="43.0083211" lon="13.3994962"><ele>367.0</ele><time>2026-04-18T08:06:46.099Z</time></trkpt><trkpt lat="43.0083226" lon="13.3996497"><ele>366.75</ele><time>2026-04-18T08:06:47.076Z</time></trkpt><trkpt lat="43.0083266" lon="13.3998105"><ele>366.5</ele><time>2026-04-18T08:06:48.054Z</time></trkpt><trkpt lat="43.0083317" lon="13.3999878"><ele>366.25</ele><time>2026-04-18T08:06:49.069Z</time></trkpt><trkpt lat="43.0083365" lon="13.4001621"><ele>366.0</ele><time>2026-04-18T08:06:50.063Z</time></trkpt><trkpt lat="43.0083404" lon="13.4003248"><ele>366.0</ele><time>2026-04-18T08:06:51.076Z</time></trkpt><trkpt lat="43.0083441" lon="13.4004825"><ele>366.0</ele><time>2026-04-18T08:06:52.075Z</time></trkpt><trkpt lat="43.0083491" lon="13.4006351"><ele>366.0</ele><time>2026-04-18T08:06:53.071Z</time></trkpt><trkpt lat="43.0083544" lon="13.4007804"><ele>366.0</ele><time>2026-04-18T08:06:54.063Z</time></trkpt><trkpt lat="43.0083564" lon="13.4009213"><ele>366.0</ele><time>2026-04-18T08:06:55.073Z</time></trkpt><trkpt lat="43.0083526" lon="13.4010549"><ele>365.6</ele><time>2026-04-18T08:06:56.046Z</time></trkpt><trkpt lat="43.0083412" lon="13.4011829"><ele>365.20000000000005</ele><time>2026-04-18T08:06:57.066Z</time></trkpt><trkpt lat="43.0083203" lon="13.4013064"><ele>364.79999999999995</ele><time>2026-04-18T08:06:58.084Z</time></trkpt><trkpt lat="43.0082843" lon="13.4014345"><ele>364.4</ele><time>2026-04-18T08:06:59.072Z</time></trkpt><trkpt lat="43.0082278" lon="13.4015669"><ele>364.0</ele><time>2026-04-18T08:07:00.074Z</time></trkpt><trkpt lat="43.0081579" lon="13.4016955"><ele>363.2</ele><time>2026-04-18T08:07:01.067Z</time></trkpt><trkpt lat="43.0080864" lon="13.4018141"><ele>362.4</ele><time>2026-04-18T08:07:02.065Z</time></trkpt><trkpt lat="43.0080219" lon="13.4019259"><ele>361.6</ele><time>2026-04-18T08:07:03.073Z</time></trkpt><trkpt lat="43.0079665" lon="13.4020333"><ele>360.8</ele><time>2026-04-18T08:07:04.093Z</time></trkpt><trkpt lat="43.0079203" lon="13.4021341"><ele>360.0</ele><time>2026-04-18T08:07:05.094Z</time></trkpt><trkpt lat="43.007879" lon="13.4022234"><ele>360.0</ele><time>2026-04-18T08:07:06.088Z</time></trkpt><trkpt lat="43.0078344" lon="13.4022947"><ele>360.0</ele><time>2026-04-18T08:07:07.093Z</time></trkpt><trkpt lat="43.0077395" lon="13.4023578"><ele>360.0</ele><time>2026-04-18T08:07:09.079Z</time></trkpt><trkpt lat="43.0076666" lon="13.4023911"><ele>360.0</ele><time>2026-04-18T08:07:50.033Z</time></trkpt><trkpt lat="43.0075521" lon="13.402434"><ele>360.0</ele><time>2026-04-18T08:07:51.993Z</time></trkpt><trkpt lat="43.0074631" lon="13.4024614"><ele>359.25</ele><time>2026-04-18T08:07:53.093Z</time></trkpt><trkpt lat="43.0073547" lon="13.4025073"><ele>358.5</ele><time>2026-04-18T08:07:54.056Z</time></trkpt><trkpt lat="43.0072361" lon="13.4025702"><ele>357.75</ele><time>2026-04-18T08:07:55.093Z</time></trkpt><trkpt lat="43.0071261" lon="13.4026345"><ele>357.0</ele><time>2026-04-18T08:07:56.076Z</time></trkpt><trkpt lat="43.0070189" lon="13.4026938"><ele>357.0</ele><time>2026-04-18T08:07:57.071Z</time></trkpt><trkpt lat="43.0069045" lon="13.402742"><ele>357.0</ele><time>2026-04-18T08:07:58.072Z</time></trkpt><trkpt lat="43.00679" lon="13.4027887"><ele>357.0</ele><time>2026-04-18T08:07:59.074Z</time></trkpt><trkpt lat="43.0066651" lon="13.4027793"><ele>357.0</ele><time>2026-04-18T08:08:00.071Z</time></trkpt><trkpt lat="43.0065331" lon="13.4027509"><ele>357.6</ele><time>2026-04-18T08:08:01.129Z</time></trkpt><trkpt lat="43.0064057" lon="13.402718"><ele>358.20000000000005</ele><time>2026-04-18T08:08:02.056Z</time></trkpt><trkpt lat="43.0062958" lon="13.4026828"><ele>358.8</ele><time>2026-04-18T08:08:03.089Z</time></trkpt><trkpt lat="43.0062" lon="13.4026504"><ele>359.4</ele><time>2026-04-18T08:08:04.101Z</time></trkpt><trkpt lat="43.0061131" lon="13.4026265"><ele>360.0</ele><time>2026-04-18T08:08:05.096Z</time></trkpt><trkpt lat="43.0060336" lon="13.4026082"><ele>360.0</ele><time>2026-04-18T08:08:06.068Z</time></trkpt><trkpt lat="43.0059551" lon="13.4025935"><ele>360.0</ele><time>2026-04-18T08:08:07.042Z</time></trkpt><trkpt lat="43.0058786" lon="13.4025764"><ele>360.0</ele><time>2026-04-18T08:08:08.092Z</time></trkpt><trkpt lat="43.0058137" lon="13.4025626"><ele>360.0</ele><time>2026-04-18T08:08:09.063Z</time></trkpt><trkpt lat="43.0057142" lon="13.4025436"><ele>360.0</ele><time>2026-04-18T08:08:11.074Z</time></trkpt><trkpt lat="43.0056501" lon="13.4025372"><ele>360.0</ele><time>2026-04-18T08:08:13.051Z</time></trkpt><trkpt lat="43.0055735" lon="13.4025499"><ele>361.4</ele><time>2026-04-18T08:08:15.044Z</time></trkpt><trkpt lat="43.005448" lon="13.4025891"><ele>362.8</ele><time>2026-04-18T08:08:17.065Z</time></trkpt><trkpt lat="43.0053728" lon="13.4026104"><ele>364.20000000000005</ele><time>2026-04-18T08:08:18.096Z</time></trkpt><trkpt lat="43.0052914" lon="13.4026323"><ele>365.6</ele><time>2026-04-18T08:08:19.085Z</time></trkpt><trkpt lat="43.0051968" lon="13.4026603"><ele>367.0</ele><time>2026-04-18T08:08:20.087Z</time></trkpt><trkpt lat="43.0050745" lon="13.4026986"><ele>370.0</ele><time>2026-04-18T08:08:21.089Z</time></trkpt><trkpt lat="43.0049431" lon="13.4027393"><ele>373.0</ele><time>2026-04-18T08:08:22.045Z</time></trkpt><trkpt lat="43.0048093" lon="13.4027822"><ele>376.0</ele><time>2026-04-18T08:08:23.14Z</time></trkpt><trkpt lat="43.004683" lon="13.4028268"><ele>379.0</ele><time>2026-04-18T08:08:24.092Z</time></trkpt><trkpt lat="43.0045653" lon="13.4028656"><ele>379.0</ele><time>2026-04-18T08:08:25.097Z</time></trkpt><trkpt lat="43.0044536" lon="13.4029015"><ele>379.0</ele><time>2026-04-18T08:08:26.103Z</time></trkpt><trkpt lat="43.0043449" lon="13.4029329"><ele>379.0</ele><time>2026-04-18T08:08:27.047Z</time></trkpt><trkpt lat="43.0042349" lon="13.4029657"><ele>379.0</ele><time>2026-04-18T08:08:28.093Z</time></trkpt><trkpt lat="43.0041175" lon="13.4030061"><ele>378.5</ele><time>2026-04-18T08:08:29.083Z</time></trkpt><trkpt lat="43.0039851" lon="13.4030522"><ele>378.0</ele><time>2026-04-18T08:08:30.084Z</time></trkpt><trkpt lat="43.003858" lon="13.403091"><ele>377.5</ele><time>2026-04-18T08:08:31.096Z</time></trkpt><trkpt lat="43.0037361" lon="13.4031165"><ele>377.0</ele><time>2026-04-18T08:08:32.04Z</time></trkpt><trkpt lat="43.003621" lon="13.4031333"><ele>377.0</ele><time>2026-04-18T08:08:33.076Z</time></trkpt><trkpt lat="43.0035148" lon="13.4031479"><ele>377.0</ele><time>2026-04-18T08:08:34.084Z</time></trkpt><trkpt lat="43.0034078" lon="13.4031627"><ele>377.0</ele><time>2026-04-18T08:08:35.081Z</time></trkpt><trkpt lat="43.0033043" lon="13.4031616"><ele>377.0</ele><time>2026-04-18T08:08:36.07Z</time></trkpt><trkpt lat="43.003192" lon="13.4031479"><ele>377.0</ele><time>2026-04-18T08:08:37.042Z</time></trkpt><trkpt lat="43.0030797" lon="13.4031344"><ele>378.5</ele><time>2026-04-18T08:08:38.079Z</time></trkpt><trkpt lat="43.0029828" lon="13.4031121"><ele>380.0</ele><time>2026-04-18T08:08:39.067Z</time></trkpt><trkpt lat="43.0028971" lon="13.4030869"><ele>381.5</ele><time>2026-04-18T08:08:40.083Z</time></trkpt><trkpt lat="43.0028257" lon="13.4030632"><ele>383.0</ele><time>2026-04-18T08:08:41.122Z</time></trkpt><trkpt lat="43.0027579" lon="13.4030479"><ele>384.49999999999994</ele><time>2026-04-18T08:08:42.044Z</time></trkpt><trkpt lat="43.0026881" lon="13.4030441"><ele>386.0</ele><time>2026-04-18T08:08:43.075Z</time></trkpt><trkpt lat="43.0026287" lon="13.4030743"><ele>386.00000000000006</ele><time>2026-04-18T08:08:44.079Z</time></trkpt><trkpt lat="43.0025857" lon="13.4031431"><ele>386.0</ele><time>2026-04-18T08:08:45.063Z</time></trkpt><trkpt lat="43.0025622" lon="13.4032386"><ele>386.0</ele><time>2026-04-18T08:08:46.081Z</time></trkpt><trkpt lat="43.002555" lon="13.4033472"><ele>386.0</ele><time>2026-04-18T08:08:47.047Z</time></trkpt><trkpt lat="43.0025325" lon="13.4034494"><ele>386.0</ele><time>2026-04-18T08:08:48.073Z</time></trkpt><trkpt lat="43.002479" lon="13.403515"><ele>386.00000000000006</ele><time>2026-04-18T08:08:49.072Z</time></trkpt><trkpt lat="43.0024028" lon="13.4035429"><ele>386.0</ele><time>2026-04-18T08:08:50.068Z</time></trkpt><trkpt lat="43.00231" lon="13.4035524"><ele>388.49999999999994</ele><time>2026-04-18T08:08:51.08Z</time></trkpt><trkpt lat="43.0022093" lon="13.4035606"><ele>391.0</ele><time>2026-04-18T08:08:52.085Z</time></trkpt><trkpt lat="43.0021091" lon="13.4035566"><ele>393.5</ele><time>2026-04-18T08:08:53.057Z</time></trkpt><trkpt lat="43.0020177" lon="13.4035614"><ele>396.0</ele><time>2026-04-18T08:08:54.075Z</time></trkpt><trkpt lat="43.0019386" lon="13.4035905"><ele>398.49999999999994</ele><time>2026-04-18T08:08:55.055Z</time></trkpt><trkpt lat="43.0018835" lon="13.4036436"><ele>401.0</ele><time>2026-04-18T08:08:56.034Z</time></trkpt><trkpt lat="43.0018533" lon="13.4037227"><ele>400.99999999999994</ele><time>2026-04-18T08:08:57.043Z</time></trkpt><trkpt lat="43.0018544" lon="13.4038165"><ele>401.0</ele><time>2026-04-18T08:08:58.068Z</time></trkpt><trkpt lat="43.0018576" lon="13.4039152"><ele>401.0</ele><time>2026-04-18T08:08:59.076Z</time></trkpt><trkpt lat="43.0019101" lon="13.404024"><ele>401.0</ele><time>2026-04-18T08:09:00.077Z</time></trkpt><trkpt lat="43.0019579" lon="13.4041264"><ele>400.99999999999994</ele><time>2026-04-18T08:09:01.071Z</time></trkpt><trkpt lat="43.0019974" lon="13.4042369"><ele>401.0</ele><time>2026-04-18T08:09:02.064Z</time></trkpt><trkpt lat="43.0019878" lon="13.4043498"><ele>400.8</ele><time>2026-04-18T08:09:03.074Z</time></trkpt><trkpt lat="43.0019788" lon="13.4044586"><ele>400.6</ele><time>2026-04-18T08:09:04.08Z</time></trkpt><trkpt lat="43.0019324" lon="13.4045272"><ele>400.4</ele><time>2026-04-18T08:09:05.088Z</time></trkpt><trkpt lat="43.0018319" lon="13.4045199"><ele>400.2</ele><time>2026-04-18T08:09:06.084Z</time></trkpt><trkpt lat="43.0017277" lon="13.4045078"><ele>400.0</ele><time>2026-04-18T08:09:07.061Z</time></trkpt><trkpt lat="43.0016487" lon="13.4044129"><ele>404.8</ele><time>2026-04-18T08:09:08.061Z</time></trkpt><trkpt lat="43.0015775" lon="13.40432"><ele>409.6</ele><time>2026-04-18T08:09:09.08Z</time></trkpt><trkpt lat="43.0015481" lon="13.4041882"><ele>414.4</ele><time>2026-04-18T08:09:10.1Z</time></trkpt><trkpt lat="43.0015227" lon="13.4040713"><ele>419.2</ele><time>2026-04-18T08:09:11.067Z</time></trkpt><trkpt lat="43.0014648" lon="13.4039557"><ele>424.0</ele><time>2026-04-18T08:09:13.037Z</time></trkpt><trkpt lat="43.0013869" lon="13.4038741"><ele>424.0</ele><time>2026-04-18T08:09:23.032Z</time></trkpt><trkpt lat="43.0012802" lon="13.4039005"><ele>424.0</ele><time>2026-04-18T08:09:25.043Z</time></trkpt><trkpt lat="43.0011977" lon="13.4039531"><ele>424.0</ele><time>2026-04-18T08:09:27.076Z</time></trkpt><trkpt lat="43.0011356" lon="13.4040695"><ele>424.0</ele><time>2026-04-18T08:09:54.061Z</time></trkpt><trkpt lat="43.001073" lon="13.4041176"><ele>424.0</ele><time>2026-04-18T08:09:56.047Z</time></trkpt><trkpt lat="43.000991" lon="13.4041602"><ele>424.0</ele><time>2026-04-18T08:09:58.041Z</time></trkpt><trkpt lat="43.000894" lon="13.404191"><ele>424.0</ele><time>2026-04-18T08:10:00.067Z</time></trkpt><trkpt lat="43.0007989" lon="13.4042308"><ele>424.0</ele><time>2026-04-18T08:10:02.079Z</time></trkpt><trkpt lat="43.0006754" lon="13.4042919"><ele>424.0</ele><time>2026-04-18T08:10:04.088Z</time></trkpt><trkpt lat="43.0005872" lon="13.4043047"><ele>424.0</ele><time>2026-04-18T08:10:05.089Z</time></trkpt><trkpt lat="43.0004846" lon="13.4042723"><ele>425.33333333333337</ele><time>2026-04-18T08:10:06.063Z</time></trkpt><trkpt lat="43.0004111" lon="13.404179"><ele>426.6666666666667</ele><time>2026-04-18T08:10:07.061Z</time></trkpt><trkpt lat="43.0003466" lon="13.4041116"><ele>428.0</ele><time>2026-04-18T08:10:08.052Z</time></trkpt><trkpt lat="43.0002836" lon="13.4040811"><ele>429.33333333333337</ele><time>2026-04-18T08:10:09.068Z</time></trkpt><trkpt lat="43.000189" lon="13.4040591"><ele>430.6666666666667</ele><time>2026-04-18T08:10:11.057Z</time></trkpt><trkpt lat="43.0000945" lon="13.4040392"><ele>432.0</ele><time>2026-04-18T08:10:13.048Z</time></trkpt><trkpt lat="43.000004" lon="13.4040111"><ele>432.0</ele><time>2026-04-18T08:10:15.022Z</time></trkpt><trkpt lat="42.9999607" lon="13.4039485"><ele>432.0</ele><time>2026-04-18T08:10:18.036Z</time></trkpt><trkpt lat="42.9999951" lon="13.4038511"><ele>432.0</ele><time>2026-04-18T08:10:25.049Z</time></trkpt><trkpt lat="43.0000085" lon="13.4037579"><ele>432.0</ele><time>2026-04-18T08:10:30.03Z</time></trkpt><trkpt lat="42.999999" lon="13.4036704"><ele>432.0</ele><time>2026-04-18T08:10:32.028Z</time></trkpt><trkpt lat="42.9999942" lon="13.4035791"><ele>432.0</ele><time>2026-04-18T08:10:34.036Z</time></trkpt><trkpt lat="42.9999667" lon="13.4034727"><ele>432.0</ele><time>2026-04-18T08:10:36.03Z</time></trkpt><trkpt lat="42.9999569" lon="13.4033534"><ele>434.8</ele><time>2026-04-18T08:11:01.058Z</time></trkpt><trkpt lat="42.9999248" lon="13.4032554"><ele>437.6</ele><time>2026-04-18T08:11:24.994Z</time></trkpt><trkpt lat="42.9998392" lon="13.4031737"><ele>440.40000000000003</ele><time>2026-04-18T08:11:28.033Z</time></trkpt><trkpt lat="42.9997605" lon="13.4030943"><ele>443.20000000000005</ele><time>2026-04-18T08:11:30.061Z</time></trkpt><trkpt lat="42.999666" lon="13.4030189"><ele>446.0</ele><time>2026-04-18T08:11:32.069Z</time></trkpt><trkpt lat="42.9995823" lon="13.4029648"><ele>446.6</ele><time>2026-04-18T08:11:34.056Z</time></trkpt><trkpt lat="42.999518" lon="13.4029332"><ele>447.20000000000005</ele><time>2026-04-18T08:11:35.045Z</time></trkpt><trkpt lat="42.999433" lon="13.4029025"><ele>447.79999999999995</ele><time>2026-04-18T08:11:37.074Z</time></trkpt><trkpt lat="42.999338" lon="13.402864"><ele>448.4</ele><time>2026-04-18T08:11:39.044Z</time></trkpt><trkpt lat="42.999243" lon="13.4027875"><ele>449.0</ele><time>2026-04-18T08:11:41.045Z</time></trkpt><trkpt lat="42.9991616" lon="13.4027329"><ele>453.6</ele><time>2026-04-18T08:11:43.035Z</time></trkpt><trkpt lat="42.9991172" lon="13.4026294"><ele>458.2</ele><time>2026-04-18T08:11:45.036Z</time></trkpt><trkpt lat="42.9991071" lon="13.4025044"><ele>462.80000000000007</ele><time>2026-04-18T08:11:47.043Z</time></trkpt><trkpt lat="42.999058" lon="13.4024087"><ele>467.40000000000003</ele><time>2026-04-18T08:11:49.034Z</time></trkpt><trkpt lat="42.9989755" lon="13.4023535"><ele>472.0</ele><time>2026-04-18T08:11:51.042Z</time></trkpt><trkpt lat="42.9988795" lon="13.4023243"><ele>472.0</ele><time>2026-04-18T08:11:53.112Z</time></trkpt><trkpt lat="42.9987627" lon="13.4022804"><ele>472.00000000000006</ele><time>2026-04-18T08:11:55.064Z</time></trkpt><trkpt lat="42.9986968" lon="13.4022598"><ele>472.00000000000006</ele><time>2026-04-18T08:11:56.061Z</time></trkpt><trkpt lat="42.9985955" lon="13.402207"><ele>472.0</ele><time>2026-04-18T08:11:58.033Z</time></trkpt><trkpt lat="42.9985074" lon="13.4021507"><ele>472.0</ele><time>2026-04-18T08:13:13.009Z</time></trkpt><trkpt lat="42.9984165" lon="13.4020598"><ele>476.33333333333337</ele><time>2026-04-18T08:13:15.08Z</time></trkpt><trkpt lat="42.998313" lon="13.4019591"><ele>480.6666666666667</ele><time>2026-04-18T08:13:17.096Z</time></trkpt><trkpt lat="42.9982487" lon="13.4019061"><ele>485.0</ele><time>2026-04-18T08:13:18.043Z</time></trkpt><trkpt lat="42.9981963" lon="13.401854"><ele>489.33333333333337</ele><time>2026-04-18T08:13:19.077Z</time></trkpt><trkpt lat="42.9981447" lon="13.4017672"><ele>493.6666666666667</ele><time>2026-04-18T08:13:21.08Z</time></trkpt><trkpt lat="42.9981649" lon="13.4016806"><ele>498.0</ele><time>2026-04-18T08:13:23.029Z</time></trkpt><trkpt lat="42.9982496" lon="13.4016096"><ele>498.0</ele><time>2026-04-18T08:13:26.032Z</time></trkpt><trkpt lat="42.9983333" lon="13.4015747"><ele>498.0</ele><time>2026-04-18T08:13:28.024Z</time></trkpt><trkpt lat="42.9983946" lon="13.401536"><ele>498.0</ele><time>2026-04-18T08:13:30.023Z</time></trkpt><trkpt lat="42.9984303" lon="13.4014649"><ele>498.0</ele><time>2026-04-18T08:13:31.998Z</time></trkpt><trkpt lat="42.9984473" lon="13.4013308"><ele>498.0</ele><time>2026-04-18T08:13:34.062Z</time></trkpt><trkpt lat="42.9984729" lon="13.4011662"><ele>498.0</ele><time>2026-04-18T08:13:36.081Z</time></trkpt><trkpt lat="42.9985051" lon="13.4010235"><ele>497.2</ele><time>2026-04-18T08:13:38.04Z</time></trkpt><trkpt lat="42.9985548" lon="13.4008903"><ele>496.4</ele><time>2026-04-18T08:13:40.06Z</time></trkpt><trkpt lat="42.9986013" lon="13.4007544"><ele>495.59999999999997</ele><time>2026-04-18T08:13:42.043Z</time></trkpt><trkpt lat="42.9986349" lon="13.4006049"><ele>494.79999999999995</ele><time>2026-04-18T08:13:44.131Z</time></trkpt><trkpt lat="42.9986379" lon="13.4005136"><ele>494.0</ele><time>2026-04-18T08:13:45.069Z</time></trkpt><trkpt lat="42.9986259" lon="13.4003816"><ele>495.8333333333333</ele><time>2026-04-18T08:13:47.064Z</time></trkpt><trkpt lat="42.9986008" lon="13.4002487"><ele>497.66666666666663</ele><time>2026-04-18T08:13:58.015Z</time></trkpt><trkpt lat="42.9985875" lon="13.4001554"><ele>499.5</ele><time>2026-04-18T08:14:00.047Z</time></trkpt><trkpt lat="42.9985605" lon="13.4000192"><ele>501.33333333333337</ele><time>2026-04-18T08:14:02.058Z</time></trkpt><trkpt lat="42.9985597" lon="13.399896"><ele>503.1666666666667</ele><time>2026-04-18T08:14:04.062Z</time></trkpt><trkpt lat="42.9985681" lon="13.3997908"><ele>505.0</ele><time>2026-04-18T08:14:06.057Z</time></trkpt><trkpt lat="42.9985811" lon="13.3997022"><ele>508.1666666666667</ele><time>2026-04-18T08:14:08.056Z</time></trkpt><trkpt lat="42.9986081" lon="13.3996077"><ele>511.33333333333337</ele><time>2026-04-18T08:14:10.053Z</time></trkpt><trkpt lat="42.9986356" lon="13.3994955"><ele>514.5</ele><time>2026-04-18T08:14:12.064Z</time></trkpt><trkpt lat="42.998633" lon="13.3993382"><ele>517.6666666666666</ele><time>2026-04-18T08:15:15.052Z</time></trkpt><trkpt lat="42.9986343" lon="13.3992048"><ele>520.8333333333333</ele><time>2026-04-18T08:15:18.043Z</time></trkpt><trkpt lat="42.9986342" lon="13.3991015"><ele>524.0</ele><time>2026-04-18T08:15:20.041Z</time></trkpt><trkpt lat="42.9986515" lon="13.399017"><ele>524.0</ele><time>2026-04-18T08:15:22.042Z</time></trkpt><trkpt lat="42.9986795" lon="13.3989356"><ele>524.0</ele><time>2026-04-18T08:15:24.051Z</time></trkpt><trkpt lat="42.9987143" lon="13.3988486"><ele>524.0</ele><time>2026-04-18T08:15:26.022Z</time></trkpt><trkpt lat="42.998725" lon="13.398761"><ele>524.0</ele><time>2026-04-18T08:15:29.014Z</time></trkpt><trkpt lat="42.9987408" lon="13.3986317"><ele>524.0</ele><time>2026-04-18T08:17:04.012Z</time></trkpt><trkpt lat="42.9987991" lon="13.3985717"><ele>524.0</ele><time>2026-04-18T08:18:11.028Z</time></trkpt><trkpt lat="42.9987758" lon="13.3986565"><ele>524.0</ele><time>2026-04-18T08:18:22.042Z</time></trkpt><trkpt lat="42.998757" lon="13.3987443"><ele>524.0</ele><time>2026-04-18T08:18:46.049Z</time></trkpt><trkpt lat="42.9987179" lon="13.3988144"><ele>524.0</ele><time>2026-04-18T08:18:54.005Z</time></trkpt><trkpt lat="42.9986596" lon="13.3988482"><ele>524.0</ele><time>2026-04-18T08:19:44.013Z</time></trkpt><trkpt lat="42.9986876" lon="13.3987176"><ele>524.0</ele><time>2026-04-18T08:32:32.018Z</time></trkpt><trkpt lat="42.9987116" lon="13.3986309"><ele>524.0</ele><time>2026-04-18T08:32:35.014Z</time></trkpt><trkpt lat="42.998753" lon="13.3985648"><ele>524.0</ele><time>2026-04-18T08:33:35.98Z</time></trkpt><trkpt lat="42.9987794" lon="13.3984853"><ele>524.0</ele><time>2026-04-18T08:36:57.99Z</time></trkpt><trkpt lat="42.998766" lon="13.3984006"><ele>528.1666666666666</ele><time>2026-04-18T08:39:19.987Z</time></trkpt><trkpt lat="42.9987283" lon="13.3983283"><ele>532.3333333333333</ele><time>2026-04-18T08:39:39.973Z</time></trkpt><trkpt lat="42.998774" lon="13.3982675"><ele>536.5</ele><time>2026-04-18T08:40:41.975Z</time></trkpt><trkpt lat="42.9987364" lon="13.39834"><ele>540.6666666666666</ele><time>2026-04-18T08:42:41.949Z</time></trkpt><trkpt lat="42.9986954" lon="13.3982384"><ele>544.8333333333334</ele><time>2026-04-18T08:43:21.008Z</time></trkpt><trkpt lat="42.9987486" lon="13.3983608"><ele>549.0</ele><time>2026-04-18T08:48:21.03Z</time></trkpt><trkpt lat="42.9987446" lon="13.3984524"><ele>549.0</ele><time>2026-04-18T08:50:29.959Z</time></trkpt><trkpt lat="42.9987157" lon="13.3983752"><ele>549.0</ele><time>2026-04-18T08:53:05.993Z</time></trkpt><trkpt lat="42.9987115" lon="13.3982891"><ele>549.0</ele><time>2026-04-18T09:01:59.99Z</time></trkpt><trkpt lat="42.9986955" lon="13.3982017"><ele>549.0</ele><time>2026-04-18T09:02:09.98Z</time></trkpt><trkpt lat="42.9987712" lon="13.398125"><ele>549.0</ele><time>2026-04-18T09:05:02.973Z</time></trkpt><trkpt lat="42.9987075" lon="13.3981512"><ele>549.0</ele><time>2026-04-18T09:06:52.97Z</time></trkpt><trkpt lat="42.9986605" lon="13.3980613"><ele>549.0</ele><time>2026-04-18T09:08:34.006Z</time></trkpt><trkpt lat="42.998624" lon="13.3979123"><ele>551.0</ele><time>2026-04-18T09:08:36.023Z</time></trkpt><trkpt lat="42.9985908" lon="13.3978031"><ele>553.0</ele><time>2026-04-18T09:08:38.055Z</time></trkpt><trkpt lat="42.998585" lon="13.397693"><ele>555.0</ele><time>2026-04-18T09:08:40.029Z</time></trkpt><trkpt lat="42.9985791" lon="13.3975867"><ele>557.0</ele><time>2026-04-18T09:08:41.035Z</time></trkpt><trkpt lat="42.9985643" lon="13.3974284"><ele>559.0</ele><time>2026-04-18T09:08:43.027Z</time></trkpt><trkpt lat="42.9985458" lon="13.3973436"><ele>561.0</ele><time>2026-04-18T09:08:44.015Z</time></trkpt><trkpt lat="42.9984763" lon="13.3972468"><ele>561.0</ele><time>2026-04-18T09:08:46.016Z</time></trkpt><trkpt lat="42.9983935" lon="13.3971872"><ele>561.0</ele><time>2026-04-18T09:08:48.017Z</time></trkpt><trkpt lat="42.9983157" lon="13.3971572"><ele>561.0</ele><time>2026-04-18T09:08:50.038Z</time></trkpt><trkpt lat="42.9982319" lon="13.397139"><ele>561.0</ele><time>2026-04-18T09:08:53.022Z</time></trkpt><trkpt lat="42.9981693" lon="13.3971101"><ele>561.0</ele><time>2026-04-18T09:08:55.024Z</time></trkpt><trkpt lat="42.9980969" lon="13.3971099"><ele>561.0</ele><time>2026-04-18T09:08:57.017Z</time></trkpt><trkpt lat="42.9979765" lon="13.3970777"><ele>560.6</ele><time>2026-04-18T09:08:59.015Z</time></trkpt><trkpt lat="42.9978616" lon="13.3970503"><ele>560.2</ele><time>2026-04-18T09:09:01.034Z</time></trkpt><trkpt lat="42.9977234" lon="13.3970184"><ele>559.8</ele><time>2026-04-18T09:09:03.04Z</time></trkpt><trkpt lat="42.9976582" lon="13.3970037"><ele>559.4</ele><time>2026-04-18T09:09:04.054Z</time></trkpt><trkpt lat="42.9975401" lon="13.3969959"><ele>559.0</ele><time>2026-04-18T09:09:06.026Z</time></trkpt><trkpt lat="42.9974757" lon="13.396988"><ele>561.8333333333334</ele><time>2026-04-18T09:09:07.053Z</time></trkpt><trkpt lat="42.9974105" lon="13.3969825"><ele>564.6666666666667</ele><time>2026-04-18T09:09:08.077Z</time></trkpt><trkpt lat="42.99734" lon="13.3969813"><ele>567.5</ele><time>2026-04-18T09:09:09.071Z</time></trkpt><trkpt lat="42.9972694" lon="13.3969808"><ele>570.3333333333334</ele><time>2026-04-18T09:09:10.082Z</time></trkpt><trkpt lat="42.9971496" lon="13.3969787"><ele>573.1666666666666</ele><time>2026-04-18T09:09:12.053Z</time></trkpt><trkpt lat="42.9970797" lon="13.3969601"><ele>576.0</ele><time>2026-04-18T09:09:13.058Z</time></trkpt><trkpt lat="42.9970146" lon="13.3969206"><ele>576.0</ele><time>2026-04-18T09:09:14.027Z</time></trkpt><trkpt lat="42.9969192" lon="13.3968479"><ele>576.0</ele><time>2026-04-18T09:09:16.089Z</time></trkpt><trkpt lat="42.9968521" lon="13.3968577"><ele>576.0</ele><time>2026-04-18T09:09:17.074Z</time></trkpt><trkpt lat="42.9967275" lon="13.3968806"><ele>576.0</ele><time>2026-04-18T09:09:19.067Z</time></trkpt><trkpt lat="42.9966185" lon="13.3968895"><ele>576.0</ele><time>2026-04-18T09:09:21.075Z</time></trkpt><trkpt lat="42.9965258" lon="13.3969153"><ele>577.6666666666666</ele><time>2026-04-18T09:09:23.099Z</time></trkpt><trkpt lat="42.9964236" lon="13.3969531"><ele>579.3333333333334</ele><time>2026-04-18T09:09:25.067Z</time></trkpt><trkpt lat="42.9963609" lon="13.3969669"><ele>581.0</ele><time>2026-04-18T09:09:26.075Z</time></trkpt><trkpt lat="42.9962712" lon="13.3969817"><ele>582.6666666666667</ele><time>2026-04-18T09:09:28.084Z</time></trkpt><trkpt lat="42.9961903" lon="13.3969962"><ele>584.3333333333334</ele><time>2026-04-18T09:09:30.027Z</time></trkpt><trkpt lat="42.996103" lon="13.3970203"><ele>586.0</ele><time>2026-04-18T09:09:32.034Z</time></trkpt><trkpt lat="42.9960035" lon="13.3970504"><ele>586.0</ele><time>2026-04-18T09:09:34.024Z</time></trkpt><trkpt lat="42.9958793" lon="13.3970732"><ele>586.0</ele><time>2026-04-18T09:09:36.068Z</time></trkpt><trkpt lat="42.9957521" lon="13.3970915"><ele>586.0</ele><time>2026-04-18T09:09:38.067Z</time></trkpt><trkpt lat="42.995685" lon="13.3970922"><ele>586.0</ele><time>2026-04-18T09:09:39.069Z</time></trkpt><trkpt lat="42.9956115" lon="13.3970857"><ele>586.0</ele><time>2026-04-18T09:09:40.063Z</time></trkpt><trkpt lat="42.9955063" lon="13.3970648"><ele>585.8333333333334</ele><time>2026-04-18T09:09:42.056Z</time></trkpt><trkpt lat="42.995416" lon="13.3970361"><ele>585.6666666666667</ele><time>2026-04-18T09:09:43.987Z</time></trkpt><trkpt lat="42.9953338" lon="13.3970352"><ele>585.5</ele><time>2026-04-18T09:09:46.015Z</time></trkpt><trkpt lat="42.9952608" lon="13.3970291"><ele>585.3333333333334</ele><time>2026-04-18T09:09:47.986Z</time></trkpt><trkpt lat="42.9951924" lon="13.3970183"><ele>585.1666666666666</ele><time>2026-04-18T09:09:50.987Z</time></trkpt><trkpt lat="42.9951029" lon="13.3970281"><ele>585.0</ele><time>2026-04-18T09:09:56.996Z</time></trkpt><trkpt lat="42.9950028" lon="13.3970248"><ele>585.2857142857143</ele><time>2026-04-18T09:09:59.012Z</time></trkpt><trkpt lat="42.9949427" lon="13.3969911"><ele>585.5714285714286</ele><time>2026-04-18T09:10:00.064Z</time></trkpt><trkpt lat="42.994888" lon="13.3969482"><ele>585.8571428571429</ele><time>2026-04-18T09:10:01.056Z</time></trkpt><trkpt lat="42.9948254" lon="13.3969014"><ele>586.1428571428571</ele><time>2026-04-18T09:10:02.057Z</time></trkpt><trkpt lat="42.9947579" lon="13.3968674"><ele>586.4285714285714</ele><time>2026-04-18T09:10:03.069Z</time></trkpt><trkpt lat="42.9946826" lon="13.3968391"><ele>586.7142857142858</ele><time>2026-04-18T09:10:04.076Z</time></trkpt><trkpt lat="42.9946039" lon="13.3968114"><ele>587.0</ele><time>2026-04-18T09:10:05.06Z</time></trkpt><trkpt lat="42.9945134" lon="13.3967659"><ele>587.0</ele><time>2026-04-18T09:10:06.071Z</time></trkpt><trkpt lat="42.9944268" lon="13.396709"><ele>587.0</ele><time>2026-04-18T09:10:07.075Z</time></trkpt><trkpt lat="42.9943466" lon="13.3966502"><ele>587.0</ele><time>2026-04-18T09:10:08.054Z</time></trkpt><trkpt lat="42.9942962" lon="13.3965627"><ele>587.0</ele><time>2026-04-18T09:10:09.069Z</time></trkpt><trkpt lat="42.9942574" lon="13.396473"><ele>587.0</ele><time>2026-04-18T09:10:10.075Z</time></trkpt><trkpt lat="42.9942123" lon="13.3964078"><ele>587.0</ele><time>2026-04-18T09:10:11.077Z</time></trkpt><trkpt lat="42.9941398" lon="13.3963519"><ele>585.4</ele><time>2026-04-18T09:10:12.061Z</time></trkpt><trkpt lat="42.9940433" lon="13.3963262"><ele>583.8000000000001</ele><time>2026-04-18T09:10:13.076Z</time></trkpt><trkpt lat="42.9939726" lon="13.3962664"><ele>582.2</ele><time>2026-04-18T09:10:14.076Z</time></trkpt><trkpt lat="42.9938927" lon="13.3961758"><ele>580.6</ele><time>2026-04-18T09:10:15.067Z</time></trkpt><trkpt lat="42.9938173" lon="13.396101"><ele>579.0</ele><time>2026-04-18T09:10:16.078Z</time></trkpt><trkpt lat="42.9937378" lon="13.396046"><ele>579.0</ele><time>2026-04-18T09:10:17.079Z</time></trkpt><trkpt lat="42.9936591" lon="13.3959847"><ele>579.0</ele><time>2026-04-18T09:10:18.081Z</time></trkpt><trkpt lat="42.9935848" lon="13.3959347"><ele>579.0</ele><time>2026-04-18T09:10:19.053Z</time></trkpt><trkpt lat="42.9935242" lon="13.3958762"><ele>579.0</ele><time>2026-04-18T09:10:20.034Z</time></trkpt><trkpt lat="42.9934303" lon="13.3957876"><ele>579.0</ele><time>2026-04-18T09:10:22.057Z</time></trkpt><trkpt lat="42.9933538" lon="13.3956474"><ele>579.0</ele><time>2026-04-18T09:10:24.075Z</time></trkpt><trkpt lat="42.9933213" lon="13.3955589"><ele>579.0</ele><time>2026-04-18T09:10:25.053Z</time></trkpt><trkpt lat="42.9932844" lon="13.3954718"><ele>579.0</ele><time>2026-04-18T09:10:26.022Z</time></trkpt><trkpt lat="42.9932399" lon="13.395402"><ele>579.0</ele><time>2026-04-18T09:10:27.076Z</time></trkpt><trkpt lat="42.9931688" lon="13.3952823"><ele>579.0</ele><time>2026-04-18T09:10:29.056Z</time></trkpt><trkpt lat="42.9931166" lon="13.3951791"><ele>579.0</ele><time>2026-04-18T09:10:31.021Z</time></trkpt><trkpt lat="42.9930718" lon="13.3951083"><ele>579.0</ele><time>2026-04-18T09:10:33.991Z</time></trkpt><trkpt lat="42.9930424" lon="13.3950308"><ele>579.0</ele><time>2026-04-18T09:10:41.985Z</time></trkpt><trkpt lat="42.9930232" lon="13.3949175"><ele>579.0</ele><time>2026-04-18T09:10:44.019Z</time></trkpt><trkpt lat="42.9929554" lon="13.3948167"><ele>579.0</ele><time>2026-04-18T09:10:46.067Z</time></trkpt><trkpt lat="42.9928605" lon="13.3947611"><ele>579.0</ele><time>2026-04-18T09:10:48.072Z</time></trkpt><trkpt lat="42.9927821" lon="13.3947131"><ele>579.0</ele><time>2026-04-18T09:10:50.054Z</time></trkpt><trkpt lat="42.9927231" lon="13.3946435"><ele>579.0</ele><time>2026-04-18T09:10:52.027Z</time></trkpt><trkpt lat="42.9926895" lon="13.3945257"><ele>579.0</ele><time>2026-04-18T09:10:54.009Z</time></trkpt><trkpt lat="42.9926603" lon="13.3944031"><ele>579.0</ele><time>2026-04-18T09:10:56.023Z</time></trkpt><trkpt lat="42.9926174" lon="13.3942592"><ele>579.0</ele><time>2026-04-18T09:10:58.052Z</time></trkpt><trkpt lat="42.9925852" lon="13.3941688"><ele>579.0</ele><time>2026-04-18T09:10:59.05Z</time></trkpt><trkpt lat="42.9925463" lon="13.3940566"><ele>581.2</ele><time>2026-04-18T09:11:00.066Z</time></trkpt><trkpt lat="42.9924896" lon="13.3939164"><ele>583.4</ele><time>2026-04-18T09:11:01.057Z</time></trkpt><trkpt lat="42.9924349" lon="13.3938044"><ele>585.6</ele><time>2026-04-18T09:11:02.055Z</time></trkpt><trkpt lat="42.9923973" lon="13.3937199"><ele>587.8</ele><time>2026-04-18T09:11:03.05Z</time></trkpt><trkpt lat="42.992377" lon="13.3936045"><ele>590.0</ele><time>2026-04-18T09:11:05.05Z</time></trkpt><trkpt lat="42.9924419" lon="13.3935329"><ele>591.3333333333333</ele><time>2026-04-18T09:11:08.021Z</time></trkpt><trkpt lat="42.9925192" lon="13.3935272"><ele>592.6666666666666</ele><time>2026-04-18T09:11:11.018Z</time></trkpt><trkpt lat="42.992529" lon="13.3934355"><ele>594.0</ele><time>2026-04-18T09:11:14.015Z</time></trkpt><trkpt lat="42.992452" lon="13.3934208"><ele>595.3333333333334</ele><time>2026-04-18T09:11:17.033Z</time></trkpt><trkpt lat="42.9924036" lon="13.393507"><ele>596.6666666666667</ele><time>2026-04-18T09:11:19.036Z</time></trkpt><trkpt lat="42.9923907" lon="13.3936283"><ele>598.0</ele><time>2026-04-18T09:11:21.039Z</time></trkpt><trkpt lat="42.9924208" lon="13.3937584"><ele>596.0</ele><time>2026-04-18T09:11:23.04Z</time></trkpt><trkpt lat="42.9924795" lon="13.3938942"><ele>594.0</ele><time>2026-04-18T09:11:25.031Z</time></trkpt><trkpt lat="42.9925382" lon="13.3940304"><ele>592.0</ele><time>2026-04-18T09:11:27.027Z</time></trkpt><trkpt lat="42.9925868" lon="13.3941642"><ele>590.0</ele><time>2026-04-18T09:11:29.058Z</time></trkpt><trkpt lat="42.9926343" lon="13.3943172"><ele>587.8</ele><time>2026-04-18T09:11:31.05Z</time></trkpt><trkpt lat="42.9926676" lon="13.394469"><ele>585.6</ele><time>2026-04-18T09:11:33.033Z</time></trkpt><trkpt lat="42.992698" lon="13.3945949"><ele>583.4</ele><time>2026-04-18T09:11:35.07Z</time></trkpt><trkpt lat="42.9927481" lon="13.3946904"><ele>581.2</ele><time>2026-04-18T09:11:37.034Z</time></trkpt><trkpt lat="42.9928178" lon="13.3947463"><ele>579.0</ele><time>2026-04-18T09:11:39.034Z</time></trkpt><trkpt lat="42.9929054" lon="13.3947836"><ele>579.0</ele><time>2026-04-18T09:11:40.987Z</time></trkpt><trkpt lat="42.9929896" lon="13.3948684"><ele>579.0</ele><time>2026-04-18T09:11:43.052Z</time></trkpt><trkpt lat="42.9930306" lon="13.3949699"><ele>579.0</ele><time>2026-04-18T09:11:45.077Z</time></trkpt><trkpt lat="42.992993" lon="13.3950629"><ele>579.0</ele><time>2026-04-18T09:11:47.988Z</time></trkpt><trkpt lat="42.9928799" lon="13.3950841"><ele>579.0</ele><time>2026-04-18T09:11:50.03Z</time></trkpt><trkpt lat="42.9927987" lon="13.3950975"><ele>579.0</ele><time>2026-04-18T09:11:51.074Z</time></trkpt><trkpt lat="42.9927154" lon="13.3951081"><ele>579.0</ele><time>2026-04-18T09:11:52.055Z</time></trkpt><trkpt lat="42.9926336" lon="13.3951179"><ele>579.0</ele><time>2026-04-18T09:11:53.059Z</time></trkpt><trkpt lat="42.9925514" lon="13.3951274"><ele>579.0</ele><time>2026-04-18T09:11:54.053Z</time></trkpt><trkpt lat="42.9924683" lon="13.3951253"><ele>579.0</ele><time>2026-04-18T09:11:55.049Z</time></trkpt><trkpt lat="42.9923739" lon="13.3951165"><ele>579.0</ele><time>2026-04-18T09:11:56.051Z</time></trkpt><trkpt lat="42.9922886" lon="13.3951054"><ele>578.8333333333334</ele><time>2026-04-18T09:11:57.059Z</time></trkpt><trkpt lat="42.9922086" lon="13.3950971"><ele>578.6666666666666</ele><time>2026-04-18T09:11:58.059Z</time></trkpt><trkpt lat="42.9921293" lon="13.395086"><ele>578.5</ele><time>2026-04-18T09:11:59.076Z</time></trkpt><trkpt lat="42.9920521" lon="13.3950661"><ele>578.3333333333333</ele><time>2026-04-18T09:12:00.063Z</time></trkpt><trkpt lat="42.991973" lon="13.3950345"><ele>578.1666666666666</ele><time>2026-04-18T09:12:01.06Z</time></trkpt><trkpt lat="42.9918973" lon="13.3950016"><ele>578.0</ele><time>2026-04-18T09:12:02.067Z</time></trkpt><trkpt lat="42.9918158" lon="13.3949692"><ele>578.0</ele><time>2026-04-18T09:12:03.05Z</time></trkpt><trkpt lat="42.9917213" lon="13.3949429"><ele>578.0</ele><time>2026-04-18T09:12:04.081Z</time></trkpt><trkpt lat="42.9916113" lon="13.3949251"><ele>578.0</ele><time>2026-04-18T09:12:05.083Z</time></trkpt><trkpt lat="42.9914918" lon="13.394917"><ele>578.0</ele><time>2026-04-18T09:12:06.055Z</time></trkpt><trkpt lat="42.9913771" lon="13.3949094"><ele>578.0</ele><time>2026-04-18T09:12:07.051Z</time></trkpt><trkpt lat="42.9912961" lon="13.394882"><ele>576.8333333333333</ele><time>2026-04-18T09:12:08.05Z</time></trkpt><trkpt lat="42.9912305" lon="13.3948286"><ele>575.6666666666666</ele><time>2026-04-18T09:12:09.05Z</time></trkpt><trkpt lat="42.9911888" lon="13.3947492"><ele>574.5</ele><time>2026-04-18T09:12:10.054Z</time></trkpt><trkpt lat="42.9911785" lon="13.3946448"><ele>573.3333333333334</ele><time>2026-04-18T09:12:11.049Z</time></trkpt><trkpt lat="42.9911981" lon="13.3945244"><ele>572.1666666666667</ele><time>2026-04-18T09:12:12.046Z</time></trkpt><trkpt lat="42.9912332" lon="13.3943956"><ele>571.0</ele><time>2026-04-18T09:12:13.053Z</time></trkpt><trkpt lat="42.9912694" lon="13.3942701"><ele>574.0</ele><time>2026-04-18T09:12:14.057Z</time></trkpt><trkpt lat="42.991283" lon="13.3941439"><ele>577.0</ele><time>2026-04-18T09:12:15.048Z</time></trkpt><trkpt lat="42.9912764" lon="13.39402"><ele>580.0</ele><time>2026-04-18T09:12:16.05Z</time></trkpt><trkpt lat="42.9912571" lon="13.3938853"><ele>583.0</ele><time>2026-04-18T09:12:17.066Z</time></trkpt><trkpt lat="42.9912301" lon="13.3937473"><ele>586.0</ele><time>2026-04-18T09:12:18.034Z</time></trkpt><trkpt lat="42.9911996" lon="13.3936171"><ele>588.2</ele><time>2026-04-18T09:12:19.06Z</time></trkpt><trkpt lat="42.9911662" lon="13.3935066"><ele>590.4000000000001</ele><time>2026-04-18T09:12:20.052Z</time></trkpt><trkpt lat="42.9911184" lon="13.3934068"><ele>592.6</ele><time>2026-04-18T09:12:21.055Z</time></trkpt><trkpt lat="42.9910502" lon="13.3933231"><ele>594.8000000000001</ele><time>2026-04-18T09:12:22.052Z</time></trkpt><trkpt lat="42.9909622" lon="13.3932575"><ele>597.0</ele><time>2026-04-18T09:12:23.032Z</time></trkpt><trkpt lat="42.9908628" lon="13.3932014"><ele>597.6</ele><time>2026-04-18T09:12:24.055Z</time></trkpt><trkpt lat="42.9907672" lon="13.3931586"><ele>598.2</ele><time>2026-04-18T09:12:25.032Z</time></trkpt><trkpt lat="42.9906886" lon="13.3931122"><ele>598.8</ele><time>2026-04-18T09:12:26.042Z</time></trkpt><trkpt lat="42.9906132" lon="13.3930653"><ele>599.4</ele><time>2026-04-18T09:12:27.059Z</time></trkpt><trkpt lat="42.9905664" lon="13.3929566"><ele>600.0</ele><time>2026-04-18T09:12:28.023Z</time></trkpt><trkpt lat="42.9905217" lon="13.3928293"><ele>600.0</ele><time>2026-04-18T09:12:29.031Z</time></trkpt><trkpt lat="42.9904662" lon="13.3927076"><ele>600.0</ele><time>2026-04-18T09:12:30.022Z</time></trkpt><trkpt lat="42.990397" lon="13.39259"><ele>600.0</ele><time>2026-04-18T09:12:31.073Z</time></trkpt><trkpt lat="42.9903128" lon="13.3924862"><ele>600.0</ele><time>2026-04-18T09:12:32.033Z</time></trkpt><trkpt lat="42.9902281" lon="13.392383"><ele>600.0</ele><time>2026-04-18T09:12:33.024Z</time></trkpt><trkpt lat="42.9901274" lon="13.3923022"><ele>600.0</ele><time>2026-04-18T09:12:34.053Z</time></trkpt><trkpt lat="42.9900342" lon="13.3922337"><ele>600.0</ele><time>2026-04-18T09:12:35.054Z</time></trkpt><trkpt lat="42.9899482" lon="13.39217"><ele>600.0</ele><time>2026-04-18T09:12:36.058Z</time></trkpt><trkpt lat="42.9898623" lon="13.3921159"><ele>600.0</ele><time>2026-04-18T09:12:37.05Z</time></trkpt><trkpt lat="42.9897787" lon="13.3920619"><ele>600.0</ele><time>2026-04-18T09:12:38.021Z</time></trkpt><trkpt lat="42.9896951" lon="13.3920117"><ele>600.8333333333334</ele><time>2026-04-18T09:12:39.074Z</time></trkpt><trkpt lat="42.9896193" lon="13.3919643"><ele>601.6666666666666</ele><time>2026-04-18T09:12:40.019Z</time></trkpt><trkpt lat="42.9895546" lon="13.3919244"><ele>602.5</ele><time>2026-04-18T09:12:41.03Z</time></trkpt><trkpt lat="42.9894958" lon="13.3918926"><ele>603.3333333333333</ele><time>2026-04-18T09:12:42.022Z</time></trkpt><trkpt lat="42.9893932" lon="13.3918358"><ele>604.1666666666666</ele><time>2026-04-18T09:12:44.059Z</time></trkpt><trkpt lat="42.989296" lon="13.3917872"><ele>605.0</ele><time>2026-04-18T09:12:46.03Z</time></trkpt><trkpt lat="42.9891734" lon="13.3917703"><ele>605.0</ele><time>2026-04-18T09:12:48.026Z</time></trkpt><trkpt lat="42.9891082" lon="13.3917868"><ele>605.0</ele><time>2026-04-18T09:12:49.075Z</time></trkpt><trkpt lat="42.9890448" lon="13.3918211"><ele>605.0</ele><time>2026-04-18T09:12:50.029Z</time></trkpt><trkpt lat="42.988991" lon="13.3918696"><ele>605.0</ele><time>2026-04-18T09:12:51.07Z</time></trkpt><trkpt lat="42.9889453" lon="13.3919467"><ele>605.0</ele><time>2026-04-18T09:12:52.072Z</time></trkpt><trkpt lat="42.9889065" lon="13.392049"><ele>605.0</ele><time>2026-04-18T09:12:53.026Z</time></trkpt><trkpt lat="42.9888707" lon="13.3921649"><ele>605.0</ele><time>2026-04-18T09:12:54.092Z</time></trkpt><trkpt lat="42.9888394" lon="13.3922852"><ele>603.5</ele><time>2026-04-18T09:12:55.085Z</time></trkpt><trkpt lat="42.9888127" lon="13.3924026"><ele>602.0</ele><time>2026-04-18T09:12:56.08Z</time></trkpt><trkpt lat="42.9887926" lon="13.3925214"><ele>600.5</ele><time>2026-04-18T09:12:57.089Z</time></trkpt><trkpt lat="42.9887688" lon="13.3926299"><ele>599.0</ele><time>2026-04-18T09:12:58.038Z</time></trkpt><trkpt lat="42.9887363" lon="13.3927251"><ele>597.5</ele><time>2026-04-18T09:12:59.055Z</time></trkpt><trkpt lat="42.9886923" lon="13.3928084"><ele>596.0</ele><time>2026-04-18T09:13:00.058Z</time></trkpt><trkpt lat="42.9886366" lon="13.3928873"><ele>596.0</ele><time>2026-04-18T09:13:01.063Z</time></trkpt><trkpt lat="42.9885728" lon="13.3929694"><ele>596.0</ele><time>2026-04-18T09:13:02.066Z</time></trkpt><trkpt lat="42.9884995" lon="13.3930615"><ele>596.0</ele><time>2026-04-18T09:13:03.024Z</time></trkpt><trkpt lat="42.9884215" lon="13.3931646"><ele>596.0</ele><time>2026-04-18T09:13:04.051Z</time></trkpt><trkpt lat="42.9883442" lon="13.3932673"><ele>596.0</ele><time>2026-04-18T09:13:05.056Z</time></trkpt><trkpt lat="42.9882701" lon="13.3933774"><ele>596.5</ele><time>2026-04-18T09:13:06.052Z</time></trkpt><trkpt lat="42.9882023" lon="13.3934796"><ele>597.0</ele><time>2026-04-18T09:13:07.053Z</time></trkpt><trkpt lat="42.9881414" lon="13.3935743"><ele>597.5</ele><time>2026-04-18T09:13:08.032Z</time></trkpt><trkpt lat="42.9880825" lon="13.3936516"><ele>598.0</ele><time>2026-04-18T09:13:09.074Z</time></trkpt><trkpt lat="42.9880165" lon="13.3937131"><ele>598.5</ele><time>2026-04-18T09:13:10.034Z</time></trkpt><trkpt lat="42.9879412" lon="13.3937509"><ele>599.0</ele><time>2026-04-18T09:13:11.08Z</time></trkpt><trkpt lat="42.987861" lon="13.3937708"><ele>599.0</ele><time>2026-04-18T09:13:12.045Z</time></trkpt><trkpt lat="42.9877765" lon="13.3937891"><ele>599.0</ele><time>2026-04-18T09:13:13.03Z</time></trkpt><trkpt lat="42.9876931" lon="13.3938194"><ele>599.0</ele><time>2026-04-18T09:13:14.055Z</time></trkpt><trkpt lat="42.9876121" lon="13.3938611"><ele>599.0</ele><time>2026-04-18T09:13:15.064Z</time></trkpt><trkpt lat="42.9875319" lon="13.3939073"><ele>599.0</ele><time>2026-04-18T09:13:16.057Z</time></trkpt><trkpt lat="42.9874524" lon="13.3939613"><ele>599.0</ele><time>2026-04-18T09:13:17.043Z</time></trkpt><trkpt lat="42.98737" lon="13.3940292"><ele>597.8</ele><time>2026-04-18T09:13:18.024Z</time></trkpt><trkpt lat="42.9872842" lon="13.3941001"><ele>596.5999999999999</ele><time>2026-04-18T09:13:19.063Z</time></trkpt><trkpt lat="42.987201" lon="13.3941628"><ele>595.4</ele><time>2026-04-18T09:13:20.054Z</time></trkpt><trkpt lat="42.9871159" lon="13.3942199"><ele>594.1999999999999</ele><time>2026-04-18T09:13:21.06Z</time></trkpt><trkpt lat="42.9870303" lon="13.3942689"><ele>593.0</ele><time>2026-04-18T09:13:22.037Z</time></trkpt><trkpt lat="42.9869402" lon="13.394316"><ele>593.0</ele><time>2026-04-18T09:13:23.035Z</time></trkpt><trkpt lat="42.9868435" lon="13.3943549"><ele>593.0</ele><time>2026-04-18T09:13:24.072Z</time></trkpt><trkpt lat="42.9867424" lon="13.3943873"><ele>593.0</ele><time>2026-04-18T09:13:25.027Z</time></trkpt><trkpt lat="42.9866415" lon="13.3944158"><ele>593.0</ele><time>2026-04-18T09:13:26.032Z</time></trkpt><trkpt lat="42.9865462" lon="13.3944425"><ele>593.0</ele><time>2026-04-18T09:13:27.076Z</time></trkpt><trkpt lat="42.9864537" lon="13.3944703"><ele>594.4</ele><time>2026-04-18T09:13:28.033Z</time></trkpt><trkpt lat="42.9863619" lon="13.3944997"><ele>595.8</ele><time>2026-04-18T09:13:29.025Z</time></trkpt><trkpt lat="42.9862694" lon="13.3945324"><ele>597.2</ele><time>2026-04-18T09:13:30.085Z</time></trkpt><trkpt lat="42.9861781" lon="13.3945686"><ele>598.6</ele><time>2026-04-18T09:13:31.053Z</time></trkpt><trkpt lat="42.9860963" lon="13.3946043"><ele>600.0</ele><time>2026-04-18T09:13:32.057Z</time></trkpt><trkpt lat="42.9860221" lon="13.3946427"><ele>599.3333333333334</ele><time>2026-04-18T09:13:33.035Z</time></trkpt><trkpt lat="42.9859532" lon="13.394684"><ele>598.6666666666666</ele><time>2026-04-18T09:13:34.066Z</time></trkpt><trkpt lat="42.9858856" lon="13.3947352"><ele>598.0</ele><time>2026-04-18T09:13:35.059Z</time></trkpt><trkpt lat="42.9858257" lon="13.3948049"><ele>597.3333333333333</ele><time>2026-04-18T09:13:36.058Z</time></trkpt><trkpt lat="42.9857782" lon="13.3948978"><ele>596.6666666666666</ele><time>2026-04-18T09:13:37.065Z</time></trkpt><trkpt lat="42.9857437" lon="13.3950112"><ele>596.0</ele><time>2026-04-18T09:13:38.035Z</time></trkpt><trkpt lat="42.9857156" lon="13.3951402"><ele>596.0</ele><time>2026-04-18T09:13:39.059Z</time></trkpt><trkpt lat="42.9856927" lon="13.395272"><ele>596.0</ele><time>2026-04-18T09:13:40.058Z</time></trkpt><trkpt lat="42.9856795" lon="13.3953867"><ele>596.0</ele><time>2026-04-18T09:13:41.06Z</time></trkpt><trkpt lat="42.9856772" lon="13.3954897"><ele>596.0</ele><time>2026-04-18T09:13:42.056Z</time></trkpt><trkpt lat="42.985682" lon="13.3955874"><ele>596.0</ele><time>2026-04-18T09:13:43.044Z</time></trkpt><trkpt lat="42.9856892" lon="13.3956762"><ele>596.0</ele><time>2026-04-18T09:13:44.057Z</time></trkpt><trkpt lat="42.9856944" lon="13.3958336"><ele>595.4</ele><time>2026-04-18T09:13:46.026Z</time></trkpt><trkpt lat="42.9856879" lon="13.3959591"><ele>594.8</ele><time>2026-04-18T09:13:48.048Z</time></trkpt><trkpt lat="42.9856652" lon="13.3960703"><ele>594.1999999999999</ele><time>2026-04-18T09:13:50.019Z</time></trkpt><trkpt lat="42.9856162" lon="13.3961999"><ele>593.6</ele><time>2026-04-18T09:13:52.049Z</time></trkpt><trkpt lat="42.9855341" lon="13.3963226"><ele>593.0</ele><time>2026-04-18T09:13:54.073Z</time></trkpt><trkpt lat="42.9854808" lon="13.3963745"><ele>591.8</ele><time>2026-04-18T09:13:55.052Z</time></trkpt><trkpt lat="42.9854228" lon="13.3964339"><ele>590.5999999999999</ele><time>2026-04-18T09:13:56.057Z</time></trkpt><trkpt lat="42.9853611" lon="13.396507"><ele>589.4000000000001</ele><time>2026-04-18T09:13:57.063Z</time></trkpt><trkpt lat="42.9852954" lon="13.3965932"><ele>588.2</ele><time>2026-04-18T09:13:58.067Z</time></trkpt><trkpt lat="42.9852205" lon="13.3966865"><ele>587.0</ele><time>2026-04-18T09:13:59.066Z</time></trkpt><trkpt lat="42.9851361" lon="13.396788"><ele>587.0</ele><time>2026-04-18T09:14:00.061Z</time></trkpt><trkpt lat="42.9850497" lon="13.3968967"><ele>587.0</ele><time>2026-04-18T09:14:01.061Z</time></trkpt><trkpt lat="42.9849663" lon="13.3970087"><ele>587.0</ele><time>2026-04-18T09:14:02.063Z</time></trkpt><trkpt lat="42.9848886" lon="13.3971112"><ele>587.0</ele><time>2026-04-18T09:14:03.062Z</time></trkpt><trkpt lat="42.9848111" lon="13.3972001"><ele>587.0</ele><time>2026-04-18T09:14:04.057Z</time></trkpt><trkpt lat="42.9847343" lon="13.3972785"><ele>589.3333333333333</ele><time>2026-04-18T09:14:05.059Z</time></trkpt><trkpt lat="42.984655" lon="13.397343"><ele>591.6666666666666</ele><time>2026-04-18T09:14:06.06Z</time></trkpt><trkpt lat="42.9845828" lon="13.3973851"><ele>594.0</ele><time>2026-04-18T09:14:07.057Z</time></trkpt><trkpt lat="42.984519" lon="13.3974221"><ele>596.3333333333334</ele><time>2026-04-18T09:14:08.062Z</time></trkpt><trkpt lat="42.9844639" lon="13.3974764"><ele>598.6666666666667</ele><time>2026-04-18T09:14:09.06Z</time></trkpt><trkpt lat="42.9844252" lon="13.3975527"><ele>601.0</ele><time>2026-04-18T09:14:10.025Z</time></trkpt><trkpt lat="42.9844079" lon="13.3976546"><ele>601.0</ele><time>2026-04-18T09:14:11.033Z</time></trkpt><trkpt lat="42.9844098" lon="13.3977758"><ele>601.0</ele><time>2026-04-18T09:14:12.085Z</time></trkpt><trkpt lat="42.9844271" lon="13.3979029"><ele>601.0</ele><time>2026-04-18T09:14:13.053Z</time></trkpt><trkpt lat="42.9844617" lon="13.3980262"><ele>601.0</ele><time>2026-04-18T09:14:14.075Z</time></trkpt><trkpt lat="42.9845147" lon="13.3981378"><ele>601.0</ele><time>2026-04-18T09:14:15.04Z</time></trkpt><trkpt lat="42.9845802" lon="13.398223"><ele>601.6666666666667</ele><time>2026-04-18T09:14:16.051Z</time></trkpt><trkpt lat="42.9846556" lon="13.3982856"><ele>602.3333333333334</ele><time>2026-04-18T09:14:17.039Z</time></trkpt><trkpt lat="42.9847403" lon="13.3983261"><ele>603.0</ele><time>2026-04-18T09:14:18.057Z</time></trkpt><trkpt lat="42.984836" lon="13.3983504"><ele>603.6666666666666</ele><time>2026-04-18T09:14:19.067Z</time></trkpt><trkpt lat="42.9849246" lon="13.3983726"><ele>604.3333333333333</ele><time>2026-04-18T09:14:20.064Z</time></trkpt><trkpt lat="42.9849981" lon="13.3984126"><ele>605.0</ele><time>2026-04-18T09:14:21.07Z</time></trkpt><trkpt lat="42.985048" lon="13.3984756"><ele>605.0</ele><time>2026-04-18T09:14:22.08Z</time></trkpt><trkpt lat="42.9850636" lon="13.3986404"><ele>605.0</ele><time>2026-04-18T09:14:24.087Z</time></trkpt><trkpt lat="42.9850187" lon="13.3987186"><ele>605.0</ele><time>2026-04-18T09:14:25.074Z</time></trkpt><trkpt lat="42.9849456" lon="13.3987831"><ele>605.0</ele><time>2026-04-18T09:14:26.067Z</time></trkpt><trkpt lat="42.9848552" lon="13.3988383"><ele>605.0</ele><time>2026-04-18T09:14:27.076Z</time></trkpt><trkpt lat="42.9847635" lon="13.3989087"><ele>604.6</ele><time>2026-04-18T09:14:28.064Z</time></trkpt><trkpt lat="42.9846867" lon="13.3990023"><ele>604.2</ele><time>2026-04-18T09:14:29.077Z</time></trkpt><trkpt lat="42.9846238" lon="13.3991122"><ele>603.8</ele><time>2026-04-18T09:14:30.084Z</time></trkpt><trkpt lat="42.9845647" lon="13.3992166"><ele>603.4</ele><time>2026-04-18T09:14:31.03Z</time></trkpt><trkpt lat="42.9845282" lon="13.3993252"><ele>603.0</ele><time>2026-04-18T09:14:32.028Z</time></trkpt><trkpt lat="42.9845135" lon="13.3994339"><ele>603.0</ele><time>2026-04-18T09:14:33.051Z</time></trkpt><trkpt lat="42.9845198" lon="13.3995492"><ele>603.0</ele><time>2026-04-18T09:14:34.058Z</time></trkpt><trkpt lat="42.984528" lon="13.3996664"><ele>603.0</ele><time>2026-04-18T09:14:35.053Z</time></trkpt><trkpt lat="42.9845658" lon="13.3997978"><ele>603.0</ele><time>2026-04-18T09:14:36.057Z</time></trkpt><trkpt lat="42.9846082" lon="13.3999261"><ele>603.0</ele><time>2026-04-18T09:14:37.075Z</time></trkpt><trkpt lat="42.9846468" lon="13.4000473"><ele>603.3333333333334</ele><time>2026-04-18T09:14:38.084Z</time></trkpt><trkpt lat="42.9846865" lon="13.400168"><ele>603.6666666666666</ele><time>2026-04-18T09:14:39.073Z</time></trkpt><trkpt lat="42.9847321" lon="13.4002745"><ele>604.0</ele><time>2026-04-18T09:14:40.056Z</time></trkpt><trkpt lat="42.9847808" lon="13.4003681"><ele>604.3333333333333</ele><time>2026-04-18T09:14:41.058Z</time></trkpt><trkpt lat="42.9848385" lon="13.4004559"><ele>604.6666666666666</ele><time>2026-04-18T09:14:42.086Z</time></trkpt><trkpt lat="42.9849043" lon="13.4005337"><ele>605.0</ele><time>2026-04-18T09:14:43.054Z</time></trkpt><trkpt lat="42.9849722" lon="13.4005985"><ele>603.8333333333333</ele><time>2026-04-18T09:14:44.052Z</time></trkpt><trkpt lat="42.9850386" lon="13.400646"><ele>602.6666666666666</ele><time>2026-04-18T09:14:45.074Z</time></trkpt><trkpt lat="42.9851027" lon="13.4006861"><ele>601.5</ele><time>2026-04-18T09:14:46.076Z</time></trkpt><trkpt lat="42.9851723" lon="13.400723"><ele>600.3333333333334</ele><time>2026-04-18T09:14:47.05Z</time></trkpt><trkpt lat="42.9852461" lon="13.4007588"><ele>599.1666666666667</ele><time>2026-04-18T09:14:48.019Z</time></trkpt><trkpt lat="42.9853253" lon="13.4007934"><ele>598.0</ele><time>2026-04-18T09:14:49.052Z</time></trkpt><trkpt lat="42.9854095" lon="13.4008299"><ele>598.0</ele><time>2026-04-18T09:14:50.033Z</time></trkpt><trkpt lat="42.9854988" lon="13.4008686"><ele>598.0</ele><time>2026-04-18T09:14:51.053Z</time></trkpt><trkpt lat="42.9855915" lon="13.4009113"><ele>598.0</ele><time>2026-04-18T09:14:52.049Z</time></trkpt><trkpt lat="42.9856884" lon="13.4009546"><ele>598.0</ele><time>2026-04-18T09:14:53.029Z</time></trkpt><trkpt lat="42.9857838" lon="13.4009974"><ele>598.0</ele><time>2026-04-18T09:14:54.048Z</time></trkpt><trkpt lat="42.9858735" lon="13.4010371"><ele>596.1666666666667</ele><time>2026-04-18T09:14:55.051Z</time></trkpt><trkpt lat="42.985962" lon="13.4010785"><ele>594.3333333333334</ele><time>2026-04-18T09:14:56.049Z</time></trkpt><trkpt lat="42.9860508" lon="13.4011195"><ele>592.5</ele><time>2026-04-18T09:14:57.063Z</time></trkpt><trkpt lat="42.9861377" lon="13.4011583"><ele>590.6666666666666</ele><time>2026-04-18T09:14:58.077Z</time></trkpt><trkpt lat="42.9862223" lon="13.4011946"><ele>588.8333333333333</ele><time>2026-04-18T09:14:59.025Z</time></trkpt><trkpt lat="42.9863" lon="13.4012287"><ele>587.0</ele><time>2026-04-18T09:15:00.024Z</time></trkpt><trkpt lat="42.986371" lon="13.4012617"><ele>587.0</ele><time>2026-04-18T09:15:01.026Z</time></trkpt><trkpt lat="42.9864438" lon="13.4012972"><ele>587.0</ele><time>2026-04-18T09:15:02.028Z</time></trkpt><trkpt lat="42.9865181" lon="13.401339"><ele>587.0</ele><time>2026-04-18T09:15:03.052Z</time></trkpt><trkpt lat="42.986598" lon="13.4013785"><ele>587.0</ele><time>2026-04-18T09:15:04.05Z</time></trkpt><trkpt lat="42.9866849" lon="13.4014152"><ele>587.0</ele><time>2026-04-18T09:15:05.05Z</time></trkpt><trkpt lat="42.9867733" lon="13.4014499"><ele>587.0</ele><time>2026-04-18T09:15:06.024Z</time></trkpt><trkpt lat="42.9868579" lon="13.4014914"><ele>589.0</ele><time>2026-04-18T09:15:07.025Z</time></trkpt><trkpt lat="42.986944" lon="13.4015384"><ele>591.0</ele><time>2026-04-18T09:15:08.066Z</time></trkpt><trkpt lat="42.9870336" lon="13.4015858"><ele>593.0</ele><time>2026-04-18T09:15:09.057Z</time></trkpt><trkpt lat="42.987124" lon="13.4016266"><ele>595.0</ele><time>2026-04-18T09:15:10.056Z</time></trkpt><trkpt lat="42.9872193" lon="13.4016509"><ele>597.0</ele><time>2026-04-18T09:15:11.063Z</time></trkpt><trkpt lat="42.9873247" lon="13.4016629"><ele>597.0</ele><time>2026-04-18T09:15:12.056Z</time></trkpt><trkpt lat="42.987443" lon="13.4016608"><ele>597.0</ele><time>2026-04-18T09:15:13.049Z</time></trkpt><trkpt lat="42.9875649" lon="13.4016551"><ele>597.0</ele><time>2026-04-18T09:15:14.055Z</time></trkpt><trkpt lat="42.9876752" lon="13.401652"><ele>597.0</ele><time>2026-04-18T09:15:15.049Z</time></trkpt><trkpt lat="42.9877765" lon="13.401653"><ele>593.2</ele><time>2026-04-18T09:15:16.05Z</time></trkpt><trkpt lat="42.987866" lon="13.4016657"><ele>589.4000000000001</ele><time>2026-04-18T09:15:17.053Z</time></trkpt><trkpt lat="42.98794" lon="13.4017047"><ele>585.5999999999999</ele><time>2026-04-18T09:15:18.069Z</time></trkpt><trkpt lat="42.9879896" lon="13.4017744"><ele>581.8</ele><time>2026-04-18T09:15:19.069Z</time></trkpt><trkpt lat="42.9880548" lon="13.4019199"><ele>578.0</ele><time>2026-04-18T09:15:21.048Z</time></trkpt><trkpt lat="42.9880607" lon="13.402041"><ele>578.0</ele><time>2026-04-18T09:15:22.056Z</time></trkpt><trkpt lat="42.988065" lon="13.4021538"><ele>578.0</ele><time>2026-04-18T09:15:23.053Z</time></trkpt><trkpt lat="42.9880671" lon="13.4022512"><ele>578.0</ele><time>2026-04-18T09:15:24.049Z</time></trkpt><trkpt lat="42.9880713" lon="13.4023474"><ele>578.0</ele><time>2026-04-18T09:15:25.05Z</time></trkpt><trkpt lat="42.9880627" lon="13.402453"><ele>578.0</ele><time>2026-04-18T09:15:26.048Z</time></trkpt><trkpt lat="42.9880291" lon="13.4025443"><ele>578.0</ele><time>2026-04-18T09:15:27.06Z</time></trkpt><trkpt lat="42.9879754" lon="13.4026002"><ele>578.0</ele><time>2026-04-18T09:15:28.068Z</time></trkpt><trkpt lat="42.9879087" lon="13.4026448"><ele>577.6666666666666</ele><time>2026-04-18T09:15:29.066Z</time></trkpt><trkpt lat="42.9878374" lon="13.4026571"><ele>577.3333333333333</ele><time>2026-04-18T09:15:30.063Z</time></trkpt><trkpt lat="42.9877627" lon="13.4026308"><ele>577.0</ele><time>2026-04-18T09:15:31.039Z</time></trkpt><trkpt lat="42.9876784" lon="13.4025991"><ele>576.6666666666666</ele><time>2026-04-18T09:15:32.029Z</time></trkpt><trkpt lat="42.9876" lon="13.4025808"><ele>576.3333333333334</ele><time>2026-04-18T09:15:33.082Z</time></trkpt><trkpt lat="42.9875262" lon="13.4025766"><ele>576.0</ele><time>2026-04-18T09:15:34.07Z</time></trkpt><trkpt lat="42.9874531" lon="13.4025904"><ele>578.8571428571429</ele><time>2026-04-18T09:15:35.072Z</time></trkpt><trkpt lat="42.9873814" lon="13.4026111"><ele>581.7142857142858</ele><time>2026-04-18T09:15:36.074Z</time></trkpt><trkpt lat="42.9873111" lon="13.4026452"><ele>584.5714285714286</ele><time>2026-04-18T09:15:37.072Z</time></trkpt><trkpt lat="42.9872465" lon="13.4026891"><ele>587.4285714285714</ele><time>2026-04-18T09:15:38.078Z</time></trkpt><trkpt lat="42.9871827" lon="13.4027361"><ele>590.2857142857142</ele><time>2026-04-18T09:15:39.07Z</time></trkpt><trkpt lat="42.9871205" lon="13.4027796"><ele>593.1428571428571</ele><time>2026-04-18T09:15:40.07Z</time></trkpt><trkpt lat="42.9870505" lon="13.4028187"><ele>596.0</ele><time>2026-04-18T09:15:41.074Z</time></trkpt><trkpt lat="42.9869803" lon="13.4028582"><ele>596.0</ele><time>2026-04-18T09:15:42.076Z</time></trkpt><trkpt lat="42.986906" lon="13.4028876"><ele>596.0</ele><time>2026-04-18T09:15:43.071Z</time></trkpt><trkpt lat="42.9868251" lon="13.4029131"><ele>596.0</ele><time>2026-04-18T09:15:44.077Z</time></trkpt><trkpt lat="42.9867486" lon="13.4029322"><ele>596.0</ele><time>2026-04-18T09:15:45.054Z</time></trkpt><trkpt lat="42.9866673" lon="13.4029552"><ele>596.0</ele><time>2026-04-18T09:15:46.049Z</time></trkpt><trkpt lat="42.9865887" lon="13.4029798"><ele>596.0</ele><time>2026-04-18T09:15:47.045Z</time></trkpt><trkpt lat="42.9865016" lon="13.4030074"><ele>591.8333333333333</ele><time>2026-04-18T09:15:48.052Z</time></trkpt><trkpt lat="42.9864102" lon="13.4030471"><ele>587.6666666666666</ele><time>2026-04-18T09:15:49.067Z</time></trkpt><trkpt lat="42.9863246" lon="13.4030836"><ele>583.5</ele><time>2026-04-18T09:15:50.022Z</time></trkpt><trkpt lat="42.9862416" lon="13.4031358"><ele>579.3333333333334</ele><time>2026-04-18T09:15:51.019Z</time></trkpt><trkpt lat="42.986167" lon="13.403187"><ele>575.1666666666667</ele><time>2026-04-18T09:15:52.044Z</time></trkpt><trkpt lat="42.9860881" lon="13.4032385"><ele>571.0</ele><time>2026-04-18T09:15:53.051Z</time></trkpt><trkpt lat="42.9860115" lon="13.4032877"><ele>571.0</ele><time>2026-04-18T09:15:54.074Z</time></trkpt><trkpt lat="42.9859433" lon="13.4033352"><ele>571.0</ele><time>2026-04-18T09:15:55.052Z</time></trkpt><trkpt lat="42.9858755" lon="13.4033806"><ele>571.0</ele><time>2026-04-18T09:15:56.048Z</time></trkpt><trkpt lat="42.9858103" lon="13.4034173"><ele>571.0</ele><time>2026-04-18T09:15:57.049Z</time></trkpt><trkpt lat="42.9857381" lon="13.4034499"><ele>571.0</ele><time>2026-04-18T09:15:58.049Z</time></trkpt><trkpt lat="42.9856674" lon="13.4034807"><ele>571.0</ele><time>2026-04-18T09:15:59.051Z</time></trkpt><trkpt lat="42.9855925" lon="13.4034707"><ele>571.0</ele><time>2026-04-18T09:16:00.049Z</time></trkpt><trkpt lat="42.9855113" lon="13.4034451"><ele>572.3333333333334</ele><time>2026-04-18T09:16:01.056Z</time></trkpt><trkpt lat="42.9854339" lon="13.4034341"><ele>573.6666666666667</ele><time>2026-04-18T09:16:02.048Z</time></trkpt><trkpt lat="42.985364" lon="13.4034152"><ele>575.0</ele><time>2026-04-18T09:16:03.053Z</time></trkpt><trkpt lat="42.985291" lon="13.4033792"><ele>576.3333333333334</ele><time>2026-04-18T09:16:04.052Z</time></trkpt><trkpt lat="42.9852152" lon="13.4033136"><ele>577.6666666666666</ele><time>2026-04-18T09:16:05.055Z</time></trkpt><trkpt lat="42.9851256" lon="13.4032407"><ele>579.0</ele><time>2026-04-18T09:16:06.049Z</time></trkpt><trkpt lat="42.9850301" lon="13.4031662"><ele>581.6</ele><time>2026-04-18T09:16:07.06Z</time></trkpt><trkpt lat="42.9849341" lon="13.4031134"><ele>584.2</ele><time>2026-04-18T09:16:08.075Z</time></trkpt><trkpt lat="42.9848384" lon="13.4030746"><ele>586.8000000000001</ele><time>2026-04-18T09:16:09.063Z</time></trkpt><trkpt lat="42.9847472" lon="13.4030386"><ele>589.4</ele><time>2026-04-18T09:16:10.052Z</time></trkpt><trkpt lat="42.9846607" lon="13.4030009"><ele>592.0</ele><time>2026-04-18T09:16:11.056Z</time></trkpt><trkpt lat="42.9845809" lon="13.402936"><ele>592.0</ele><time>2026-04-18T09:16:12.048Z</time></trkpt><trkpt lat="42.9845006" lon="13.4028423"><ele>592.0</ele><time>2026-04-18T09:16:13.046Z</time></trkpt><trkpt lat="42.9844236" lon="13.4027451"><ele>592.0</ele><time>2026-04-18T09:16:14.05Z</time></trkpt><trkpt lat="42.9843647" lon="13.4026596"><ele>592.0</ele><time>2026-04-18T09:16:15.047Z</time></trkpt><trkpt lat="42.984313" lon="13.4026012"><ele>592.0</ele><time>2026-04-18T09:16:16.047Z</time></trkpt><trkpt lat="42.9842007" lon="13.4025654"><ele>592.0</ele><time>2026-04-18T09:16:18.067Z</time></trkpt><trkpt lat="42.9841027" lon="13.4026352"><ele>592.0</ele><time>2026-04-18T09:16:20.05Z</time></trkpt><trkpt lat="42.9841193" lon="13.4027837"><ele>592.0</ele><time>2026-04-18T09:16:22.027Z</time></trkpt><trkpt lat="42.9841682" lon="13.4028551"><ele>592.0</ele><time>2026-04-18T09:16:23.055Z</time></trkpt><trkpt lat="42.9842418" lon="13.4029265"><ele>592.0</ele><time>2026-04-18T09:16:24.05Z</time></trkpt><trkpt lat="42.9843248" lon="13.4029975"><ele>586.4</ele><time>2026-04-18T09:16:25.049Z</time></trkpt><trkpt lat="42.9844168" lon="13.4030778"><ele>580.8000000000001</ele><time>2026-04-18T09:16:26.065Z</time></trkpt><trkpt lat="42.9845067" lon="13.4031638"><ele>575.2</ele><time>2026-04-18T09:16:27.074Z</time></trkpt><trkpt lat="42.9845892" lon="13.4032439"><ele>569.6</ele><time>2026-04-18T09:16:28.047Z</time></trkpt><trkpt lat="42.9846716" lon="13.4033174"><ele>564.0</ele><time>2026-04-18T09:16:29.07Z</time></trkpt><trkpt lat="42.9847503" lon="13.4033975"><ele>564.0</ele><time>2026-04-18T09:16:30.049Z</time></trkpt><trkpt lat="42.9848277" lon="13.4034716"><ele>564.0</ele><time>2026-04-18T09:16:31.047Z</time></trkpt><trkpt lat="42.9849038" lon="13.4035547"><ele>564.0</ele><time>2026-04-18T09:16:32.048Z</time></trkpt><trkpt lat="42.9849734" lon="13.4036525"><ele>564.0</ele><time>2026-04-18T09:16:33.049Z</time></trkpt><trkpt lat="42.9850189" lon="13.403758"><ele>564.0</ele><time>2026-04-18T09:16:34.052Z</time></trkpt><trkpt lat="42.9850666" lon="13.4038658"><ele>561.4</ele><time>2026-04-18T09:16:35.038Z</time></trkpt><trkpt lat="42.9850772" lon="13.4040019"><ele>558.8</ele><time>2026-04-18T09:16:36.053Z</time></trkpt><trkpt lat="42.9850854" lon="13.4041281"><ele>556.2</ele><time>2026-04-18T09:16:37.041Z</time></trkpt><trkpt lat="42.9851116" lon="13.4042472"><ele>553.6</ele><time>2026-04-18T09:16:38.05Z</time></trkpt><trkpt lat="42.9851548" lon="13.4043635"><ele>551.0</ele><time>2026-04-18T09:16:39.051Z</time></trkpt><trkpt lat="42.9852205" lon="13.4044823"><ele>551.0</ele><time>2026-04-18T09:16:40.06Z</time></trkpt><trkpt lat="42.9853096" lon="13.4045948"><ele>551.0</ele><time>2026-04-18T09:16:41.048Z</time></trkpt><trkpt lat="42.9854151" lon="13.4047052"><ele>551.0</ele><time>2026-04-18T09:16:42.054Z</time></trkpt><trkpt lat="42.9855151" lon="13.4048062"><ele>551.0</ele><time>2026-04-18T09:16:43.053Z</time></trkpt><trkpt lat="42.9856023" lon="13.4049212"><ele>546.2</ele><time>2026-04-18T09:16:44.059Z</time></trkpt><trkpt lat="42.9856833" lon="13.4050323"><ele>541.4000000000001</ele><time>2026-04-18T09:16:45.05Z</time></trkpt><trkpt lat="42.9857539" lon="13.4051435"><ele>536.6</ele><time>2026-04-18T09:16:46.077Z</time></trkpt><trkpt lat="42.9858205" lon="13.4052441"><ele>531.8000000000001</ele><time>2026-04-18T09:16:47.07Z</time></trkpt><trkpt lat="42.985878" lon="13.4053257"><ele>527.0</ele><time>2026-04-18T09:16:48.049Z</time></trkpt><trkpt lat="42.9859427" lon="13.4053803"><ele>525.8333333333333</ele><time>2026-04-18T09:16:49.075Z</time></trkpt><trkpt lat="42.9860098" lon="13.4054188"><ele>524.6666666666666</ele><time>2026-04-18T09:16:50.06Z</time></trkpt><trkpt lat="42.9860814" lon="13.4054645"><ele>523.5</ele><time>2026-04-18T09:16:51.05Z</time></trkpt><trkpt lat="42.9861538" lon="13.4054931"><ele>522.3333333333334</ele><time>2026-04-18T09:16:52.054Z</time></trkpt><trkpt lat="42.9862244" lon="13.4055238"><ele>521.1666666666667</ele><time>2026-04-18T09:16:53.075Z</time></trkpt><trkpt lat="42.986282" lon="13.4055673"><ele>520.0</ele><time>2026-04-18T09:16:54.063Z</time></trkpt><trkpt lat="42.9863449" lon="13.4056767"><ele>517.8</ele><time>2026-04-18T09:16:56.023Z</time></trkpt><trkpt lat="42.9862761" lon="13.405817"><ele>515.6</ele><time>2026-04-18T09:16:58.07Z</time></trkpt><trkpt lat="42.9861997" lon="13.4058341"><ele>513.4</ele><time>2026-04-18T09:16:59.069Z</time></trkpt><trkpt lat="42.9861056" lon="13.4058148"><ele>511.2</ele><time>2026-04-18T09:17:00.05Z</time></trkpt><trkpt lat="42.9860128" lon="13.4057943"><ele>509.0</ele><time>2026-04-18T09:17:01.072Z</time></trkpt><trkpt lat="42.9859045" lon="13.4057572"><ele>509.4</ele><time>2026-04-18T09:17:02.052Z</time></trkpt><trkpt lat="42.9857962" lon="13.4057048"><ele>509.79999999999995</ele><time>2026-04-18T09:17:03.052Z</time></trkpt><trkpt lat="42.9856981" lon="13.4056343"><ele>510.20000000000005</ele><time>2026-04-18T09:17:04.052Z</time></trkpt><trkpt lat="42.985609" lon="13.4055514"><ele>510.6</ele><time>2026-04-18T09:17:05.057Z</time></trkpt><trkpt lat="42.9855282" lon="13.405471"><ele>511.0</ele><time>2026-04-18T09:17:06.059Z</time></trkpt><trkpt lat="42.9854491" lon="13.4053901"><ele>511.6</ele><time>2026-04-18T09:17:07.057Z</time></trkpt><trkpt lat="42.9853654" lon="13.4053113"><ele>512.2</ele><time>2026-04-18T09:17:08.032Z</time></trkpt><trkpt lat="42.9852776" lon="13.4052325"><ele>512.8</ele><time>2026-04-18T09:17:09.034Z</time></trkpt><trkpt lat="42.9851805" lon="13.4051685"><ele>513.4</ele><time>2026-04-18T09:17:10.054Z</time></trkpt><trkpt lat="42.9850855" lon="13.405109"><ele>514.0</ele><time>2026-04-18T09:17:11.065Z</time></trkpt><trkpt lat="42.9849913" lon="13.4050523"><ele>514.0</ele><time>2026-04-18T09:17:12.049Z</time></trkpt><trkpt lat="42.9849019" lon="13.404998"><ele>514.0</ele><time>2026-04-18T09:17:13.061Z</time></trkpt><trkpt lat="42.9848082" lon="13.4049543"><ele>514.0</ele><time>2026-04-18T09:17:14.047Z</time></trkpt><trkpt lat="42.9847093" lon="13.4049313"><ele>514.0</ele><time>2026-04-18T09:17:15.058Z</time></trkpt><trkpt lat="42.9846127" lon="13.4049311"><ele>514.0</ele><time>2026-04-18T09:17:16.049Z</time></trkpt><trkpt lat="42.9845177" lon="13.4049384"><ele>514.0</ele><time>2026-04-18T09:17:17.034Z</time></trkpt><trkpt lat="42.9844206" lon="13.4049336"><ele>514.0</ele><time>2026-04-18T09:17:18.034Z</time></trkpt><trkpt lat="42.9843196" lon="13.4049116"><ele>514.0</ele><time>2026-04-18T09:17:19.067Z</time></trkpt><trkpt lat="42.9842133" lon="13.4048765"><ele>514.0</ele><time>2026-04-18T09:17:20.054Z</time></trkpt><trkpt lat="42.9841041" lon="13.4048298"><ele>514.0</ele><time>2026-04-18T09:17:21.049Z</time></trkpt><trkpt lat="42.9840003" lon="13.4047727"><ele>514.6666666666667</ele><time>2026-04-18T09:17:22.058Z</time></trkpt><trkpt lat="42.9839056" lon="13.4047063"><ele>515.3333333333334</ele><time>2026-04-18T09:17:23.057Z</time></trkpt><trkpt lat="42.9838188" lon="13.404636"><ele>516.0</ele><time>2026-04-18T09:17:24.053Z</time></trkpt><trkpt lat="42.9837455" lon="13.4045683"><ele>516.6666666666666</ele><time>2026-04-18T09:17:25.038Z</time></trkpt><trkpt lat="42.9836811" lon="13.4045063"><ele>517.3333333333333</ele><time>2026-04-18T09:17:26.057Z</time></trkpt><trkpt lat="42.9836208" lon="13.4044608"><ele>518.0</ele><time>2026-04-18T09:17:27.035Z</time></trkpt><trkpt lat="42.9835557" lon="13.4044474"><ele>518.0</ele><time>2026-04-18T09:17:28.05Z</time></trkpt><trkpt lat="42.9834922" lon="13.4044347"><ele>518.0</ele><time>2026-04-18T09:17:29.052Z</time></trkpt><trkpt lat="42.9834334" lon="13.4044824"><ele>518.0</ele><time>2026-04-18T09:17:30.05Z</time></trkpt><trkpt lat="42.983393" lon="13.4045971"><ele>518.0</ele><time>2026-04-18T09:17:31.049Z</time></trkpt><trkpt lat="42.9833639" lon="13.4047256"><ele>518.0</ele><time>2026-04-18T09:17:32.045Z</time></trkpt><trkpt lat="42.9833493" lon="13.4048609"><ele>518.0</ele><time>2026-04-18T09:17:33.047Z</time></trkpt><trkpt lat="42.9833516" lon="13.4050026"><ele>513.4</ele><time>2026-04-18T09:17:34.043Z</time></trkpt><trkpt lat="42.9833654" lon="13.4051447"><ele>508.79999999999995</ele><time>2026-04-18T09:17:35.072Z</time></trkpt><trkpt lat="42.9833839" lon="13.4052868"><ele>504.2</ele><time>2026-04-18T09:17:36.049Z</time></trkpt><trkpt lat="42.9834103" lon="13.4054263"><ele>499.6</ele><time>2026-04-18T09:17:37.051Z</time></trkpt><trkpt lat="42.9834325" lon="13.4055623"><ele>495.0</ele><time>2026-04-18T09:17:38.055Z</time></trkpt><trkpt lat="42.9834523" lon="13.4056838"><ele>493.8333333333333</ele><time>2026-04-18T09:17:39.032Z</time></trkpt><trkpt lat="42.9834674" lon="13.4057922"><ele>492.66666666666663</ele><time>2026-04-18T09:17:40.06Z</time></trkpt><trkpt lat="42.9834617" lon="13.4058861"><ele>491.5</ele><time>2026-04-18T09:17:41.071Z</time></trkpt><trkpt lat="42.9834347" lon="13.4059674"><ele>490.3333333333333</ele><time>2026-04-18T09:17:42.071Z</time></trkpt><trkpt lat="42.983382" lon="13.4060316"><ele>489.16666666666663</ele><time>2026-04-18T09:17:43.079Z</time></trkpt><trkpt lat="42.9833083" lon="13.4060611"><ele>488.0</ele><time>2026-04-18T09:17:44.071Z</time></trkpt><trkpt lat="42.9832188" lon="13.4060559"><ele>488.0</ele><time>2026-04-18T09:17:45.033Z</time></trkpt><trkpt lat="42.9831224" lon="13.4060294"><ele>487.99999999999994</ele><time>2026-04-18T09:17:46.038Z</time></trkpt><trkpt lat="42.9830278" lon="13.4059809"><ele>487.99999999999994</ele><time>2026-04-18T09:17:47.057Z</time></trkpt><trkpt lat="42.9829338" lon="13.4059107"><ele>488.0</ele><time>2026-04-18T09:17:48.05Z</time></trkpt><trkpt lat="42.9828372" lon="13.4058394"><ele>488.0</ele><time>2026-04-18T09:17:49.051Z</time></trkpt><trkpt lat="42.9827504" lon="13.4057496"><ele>488.0</ele><time>2026-04-18T09:17:50.051Z</time></trkpt><trkpt lat="42.9826703" lon="13.4056539"><ele>487.99999999999994</ele><time>2026-04-18T09:17:51.063Z</time></trkpt><trkpt lat="42.9826048" lon="13.4055498"><ele>487.99999999999994</ele><time>2026-04-18T09:17:52.076Z</time></trkpt><trkpt lat="42.9825539" lon="13.4054414"><ele>488.0</ele><time>2026-04-18T09:17:53.078Z</time></trkpt><trkpt lat="42.9825099" lon="13.4053406"><ele>488.0</ele><time>2026-04-18T09:17:54.032Z</time></trkpt><trkpt lat="42.9824631" lon="13.4052585"><ele>486.79999999999995</ele><time>2026-04-18T09:17:55.07Z</time></trkpt><trkpt lat="42.9823512" lon="13.40521"><ele>485.59999999999997</ele><time>2026-04-18T09:17:57.046Z</time></trkpt><trkpt lat="42.9822374" lon="13.4052911"><ele>484.40000000000003</ele><time>2026-04-18T09:17:59.065Z</time></trkpt><trkpt lat="42.9822153" lon="13.405411"><ele>483.20000000000005</ele><time>2026-04-18T09:18:00.053Z</time></trkpt><trkpt lat="42.9822084" lon="13.4055475"><ele>482.0</ele><time>2026-04-18T09:18:01.056Z</time></trkpt><trkpt lat="42.9821911" lon="13.405671"><ele>482.0</ele><time>2026-04-18T09:18:02.044Z</time></trkpt><trkpt lat="42.98215" lon="13.405782"><ele>482.00000000000006</ele><time>2026-04-18T09:18:03.053Z</time></trkpt><trkpt lat="42.9820901" lon="13.4058762"><ele>482.00000000000006</ele><time>2026-04-18T09:18:04.046Z</time></trkpt><trkpt lat="42.9820044" lon="13.4059352"><ele>482.0</ele><time>2026-04-18T09:18:05.024Z</time></trkpt><trkpt lat="42.981907" lon="13.4059651"><ele>482.0</ele><time>2026-04-18T09:18:06.038Z</time></trkpt><trkpt lat="42.9818134" lon="13.4060085"><ele>482.0</ele><time>2026-04-18T09:18:07.049Z</time></trkpt><trkpt lat="42.9817273" lon="13.4060858"><ele>482.00000000000006</ele><time>2026-04-18T09:18:08.077Z</time></trkpt><trkpt lat="42.9816517" lon="13.4061912"><ele>482.00000000000006</ele><time>2026-04-18T09:18:09.042Z</time></trkpt><trkpt lat="42.9815915" lon="13.4063019"><ele>482.0</ele><time>2026-04-18T09:18:10.053Z</time></trkpt><trkpt lat="42.9815482" lon="13.4063969"><ele>482.0</ele><time>2026-04-18T09:18:11.067Z</time></trkpt><trkpt lat="42.9815144" lon="13.406473"><ele>481.0</ele><time>2026-04-18T09:18:12.057Z</time></trkpt><trkpt lat="42.9814388" lon="13.4065822"><ele>480.00000000000006</ele><time>2026-04-18T09:18:14.053Z</time></trkpt><trkpt lat="42.981323" lon="13.4066017"><ele>479.00000000000006</ele><time>2026-04-18T09:18:16.06Z</time></trkpt><trkpt lat="42.9812556" lon="13.4065674"><ele>478.0</ele><time>2026-04-18T09:18:17.054Z</time></trkpt><trkpt lat="42.9811746" lon="13.4065261"><ele>477.0</ele><time>2026-04-18T09:18:18.054Z</time></trkpt><trkpt lat="42.9810867" lon="13.4064762"><ele>477.0</ele><time>2026-04-18T09:18:19.032Z</time></trkpt><trkpt lat="42.9809959" lon="13.4064253"><ele>477.0</ele><time>2026-04-18T09:18:20.089Z</time></trkpt><trkpt lat="42.9809126" lon="13.4063785"><ele>477.0</ele><time>2026-04-18T09:18:21.052Z</time></trkpt><trkpt lat="42.9808339" lon="13.4063365"><ele>477.0</ele><time>2026-04-18T09:18:22.051Z</time></trkpt><trkpt lat="42.9807564" lon="13.406302"><ele>477.0</ele><time>2026-04-18T09:18:23.072Z</time></trkpt><trkpt lat="42.9806792" lon="13.4062983"><ele>477.0</ele><time>2026-04-18T09:18:24.035Z</time></trkpt><trkpt lat="42.980604" lon="13.406339"><ele>477.6666666666667</ele><time>2026-04-18T09:18:25.048Z</time></trkpt><trkpt lat="42.9805404" lon="13.4064129"><ele>478.33333333333337</ele><time>2026-04-18T09:18:26.046Z</time></trkpt><trkpt lat="42.9804914" lon="13.4065076"><ele>479.0</ele><time>2026-04-18T09:18:27.051Z</time></trkpt><trkpt lat="42.9804491" lon="13.4066015"><ele>479.6666666666667</ele><time>2026-04-18T09:18:28.051Z</time></trkpt><trkpt lat="42.9804072" lon="13.4066771"><ele>480.33333333333337</ele><time>2026-04-18T09:18:29.033Z</time></trkpt><trkpt lat="42.9803567" lon="13.4067342"><ele>481.0</ele><time>2026-04-18T09:18:30.037Z</time></trkpt><trkpt lat="42.9802324" lon="13.4067524"><ele>481.00000000000006</ele><time>2026-04-18T09:18:32.05Z</time></trkpt><trkpt lat="42.9801644" lon="13.4067185"><ele>481.0</ele><time>2026-04-18T09:18:33.049Z</time></trkpt><trkpt lat="42.9801013" lon="13.4066683"><ele>481.0</ele><time>2026-04-18T09:18:34.029Z</time></trkpt><trkpt lat="42.9800428" lon="13.4066066"><ele>481.0</ele><time>2026-04-18T09:18:35.058Z</time></trkpt><trkpt lat="42.9799889" lon="13.406535"><ele>481.00000000000006</ele><time>2026-04-18T09:18:36.061Z</time></trkpt><trkpt lat="42.9799354" lon="13.4064495"><ele>481.0</ele><time>2026-04-18T09:18:37.05Z</time></trkpt><trkpt lat="42.9798814" lon="13.4063605"><ele>484.1666666666667</ele><time>2026-04-18T09:18:38.052Z</time></trkpt><trkpt lat="42.9798249" lon="13.4062696"><ele>487.33333333333337</ele><time>2026-04-18T09:18:39.025Z</time></trkpt><trkpt lat="42.9797719" lon="13.4061732"><ele>490.5</ele><time>2026-04-18T09:18:40.053Z</time></trkpt><trkpt lat="42.9797328" lon="13.4060682"><ele>493.66666666666663</ele><time>2026-04-18T09:18:41.055Z</time></trkpt><trkpt lat="42.9797122" lon="13.4059592"><ele>496.8333333333333</ele><time>2026-04-18T09:18:42.046Z</time></trkpt><trkpt lat="42.9796986" lon="13.4058488"><ele>500.0</ele><time>2026-04-18T09:18:43.069Z</time></trkpt><trkpt lat="42.9796675" lon="13.4057379"><ele>500.0</ele><time>2026-04-18T09:18:44.024Z</time></trkpt><trkpt lat="42.979609" lon="13.4056389"><ele>500.0</ele><time>2026-04-18T09:18:45.042Z</time></trkpt><trkpt lat="42.9795344" lon="13.4055428"><ele>500.0</ele><time>2026-04-18T09:18:46.037Z</time></trkpt><trkpt lat="42.9794557" lon="13.4054413"><ele>500.0</ele><time>2026-04-18T09:18:47.049Z</time></trkpt><trkpt lat="42.9793665" lon="13.4053195"><ele>500.0</ele><time>2026-04-18T09:18:48.047Z</time></trkpt><trkpt lat="42.979252" lon="13.4051312"><ele>501.66666666666663</ele><time>2026-04-18T09:18:49.024Z</time></trkpt><trkpt lat="42.9791234" lon="13.4049532"><ele>503.33333333333337</ele><time>2026-04-18T09:18:50.054Z</time></trkpt><trkpt lat="42.9790002" lon="13.404787"><ele>505.0</ele><time>2026-04-18T09:18:51.052Z</time></trkpt><trkpt lat="42.9788809" lon="13.4046559"><ele>510.2</ele><time>2026-04-18T09:18:52.034Z</time></trkpt><trkpt lat="42.9787912" lon="13.4045492"><ele>515.4</ele><time>2026-04-18T09:18:53.045Z</time></trkpt><trkpt lat="42.9787255" lon="13.4044299"><ele>520.6</ele><time>2026-04-18T09:18:54.018Z</time></trkpt><trkpt lat="42.9786719" lon="13.4043394"><ele>525.8</ele><time>2026-04-18T09:18:55.049Z</time></trkpt><trkpt lat="42.9786034" lon="13.4043112"><ele>531.0</ele><time>2026-04-18T09:18:56.046Z</time></trkpt><trkpt lat="42.9785265" lon="13.4042954"><ele>531.0</ele><time>2026-04-18T09:18:57.025Z</time></trkpt><trkpt lat="42.9784586" lon="13.4043193"><ele>531.0</ele><time>2026-04-18T09:18:58.029Z</time></trkpt><trkpt lat="42.9784034" lon="13.4043764"><ele>531.0</ele><time>2026-04-18T09:18:59.019Z</time></trkpt><trkpt lat="42.9783438" lon="13.4044821"><ele>531.0</ele><time>2026-04-18T09:19:00.023Z</time></trkpt><trkpt lat="42.9782683" lon="13.4045691"><ele>531.0</ele><time>2026-04-18T09:19:01.024Z</time></trkpt><trkpt lat="42.9781898" lon="13.4046447"><ele>531.0</ele><time>2026-04-18T09:19:02.046Z</time></trkpt><trkpt lat="42.9781103" lon="13.4047127"><ele>527.5</ele><time>2026-04-18T09:19:03.028Z</time></trkpt><trkpt lat="42.9780492" lon="13.4048014"><ele>524.0</ele><time>2026-04-18T09:19:04.022Z</time></trkpt><trkpt lat="42.9780191" lon="13.4049202"><ele>520.5</ele><time>2026-04-18T09:19:05.031Z</time></trkpt><trkpt lat="42.9780104" lon="13.4050528"><ele>517.0</ele><time>2026-04-18T09:19:06.035Z</time></trkpt><trkpt lat="42.9780041" lon="13.4051651"><ele>513.5</ele><time>2026-04-18T09:19:07.04Z</time></trkpt><trkpt lat="42.9779736" lon="13.4052604"><ele>510.0</ele><time>2026-04-18T09:19:08.037Z</time></trkpt><trkpt lat="42.9779161" lon="13.4053422"><ele>510.0</ele><time>2026-04-18T09:19:09.021Z</time></trkpt><trkpt lat="42.977834" lon="13.4054196"><ele>510.0</ele><time>2026-04-18T09:19:10.043Z</time></trkpt><trkpt lat="42.977749" lon="13.4054809"><ele>510.0</ele><time>2026-04-18T09:19:11.045Z</time></trkpt><trkpt lat="42.9776751" lon="13.4055234"><ele>510.0</ele><time>2026-04-18T09:19:12.057Z</time></trkpt><trkpt lat="42.9776002" lon="13.4054993"><ele>510.0</ele><time>2026-04-18T09:19:13.034Z</time></trkpt><trkpt lat="42.9775172" lon="13.4054636"><ele>510.0</ele><time>2026-04-18T09:19:14.024Z</time></trkpt><trkpt lat="42.9774511" lon="13.4053646"><ele>514.4</ele><time>2026-04-18T09:19:15.018Z</time></trkpt><trkpt lat="42.977388" lon="13.4052608"><ele>518.8</ele><time>2026-04-18T09:19:16.047Z</time></trkpt><trkpt lat="42.9773182" lon="13.4052144"><ele>523.2</ele><time>2026-04-18T09:19:17.075Z</time></trkpt><trkpt lat="42.9772282" lon="13.4052473"><ele>527.6</ele><time>2026-04-18T09:19:18.049Z</time></trkpt><trkpt lat="42.9771384" lon="13.4052927"><ele>532.0</ele><time>2026-04-18T09:19:19.026Z</time></trkpt><trkpt lat="42.9770485" lon="13.4053606"><ele>532.0</ele><time>2026-04-18T09:19:20.037Z</time></trkpt><trkpt lat="42.9769214" lon="13.4054018"><ele>532.0</ele><time>2026-04-18T09:19:21.04Z</time></trkpt><trkpt lat="42.9767868" lon="13.4054618"><ele>532.0</ele><time>2026-04-18T09:19:22.039Z</time></trkpt><trkpt lat="42.9766917" lon="13.4055337"><ele>532.0</ele><time>2026-04-18T09:19:23.041Z</time></trkpt><trkpt lat="42.976623" lon="13.4056111"><ele>531.4</ele><time>2026-04-18T09:19:24.027Z</time></trkpt><trkpt lat="42.9765394" lon="13.4056709"><ele>530.8000000000001</ele><time>2026-04-18T09:19:25.08Z</time></trkpt><trkpt lat="42.9764291" lon="13.4056568"><ele>530.2</ele><time>2026-04-18T09:19:26.052Z</time></trkpt><trkpt lat="42.9763251" lon="13.405625"><ele>529.6</ele><time>2026-04-18T09:19:27.068Z</time></trkpt><trkpt lat="42.9762331" lon="13.405557"><ele>529.0</ele><time>2026-04-18T09:19:28.077Z</time></trkpt><trkpt lat="42.9761119" lon="13.4054837"><ele>533.0</ele><time>2026-04-18T09:19:29.032Z</time></trkpt><trkpt lat="42.9759804" lon="13.4054381"><ele>537.0</ele><time>2026-04-18T09:19:30.074Z</time></trkpt><trkpt lat="42.9758746" lon="13.4053798"><ele>541.0</ele><time>2026-04-18T09:19:31.077Z</time></trkpt><trkpt lat="42.9757875" lon="13.4053385"><ele>545.0</ele><time>2026-04-18T09:19:32.048Z</time></trkpt><trkpt lat="42.9756717" lon="13.4052762"><ele>546.2</ele><time>2026-04-18T09:19:33.055Z</time></trkpt><trkpt lat="42.9755845" lon="13.4052188"><ele>547.4</ele><time>2026-04-18T09:19:34.034Z</time></trkpt><trkpt lat="42.9755073" lon="13.4051743"><ele>548.6</ele><time>2026-04-18T09:19:35.03Z</time></trkpt><trkpt lat="42.9753973" lon="13.4051695"><ele>549.8</ele><time>2026-04-18T09:19:36.056Z</time></trkpt><trkpt lat="42.9753017" lon="13.4052242"><ele>551.0</ele><time>2026-04-18T09:19:37.072Z</time></trkpt><trkpt lat="42.9752181" lon="13.4052946"><ele>551.0</ele><time>2026-04-18T09:19:38.065Z</time></trkpt><trkpt lat="42.9751425" lon="13.4053912"><ele>551.0</ele><time>2026-04-18T09:19:39.026Z</time></trkpt><trkpt lat="42.9750674" lon="13.4054847"><ele>551.0</ele><time>2026-04-18T09:19:40.071Z</time></trkpt><trkpt lat="42.975005" lon="13.4055688"><ele>551.0</ele><time>2026-04-18T09:19:41.059Z</time></trkpt><trkpt lat="42.9749512" lon="13.4056598"><ele>551.0</ele><time>2026-04-18T09:19:42.075Z</time></trkpt><trkpt lat="42.9749024" lon="13.4057485"><ele>550.1666666666666</ele><time>2026-04-18T09:19:43.084Z</time></trkpt><trkpt lat="42.9748534" lon="13.4058339"><ele>549.3333333333333</ele><time>2026-04-18T09:19:44.04Z</time></trkpt><trkpt lat="42.9748086" lon="13.4059101"><ele>548.5</ele><time>2026-04-18T09:19:45.048Z</time></trkpt><trkpt lat="42.9747268" lon="13.4059916"><ele>547.6666666666666</ele><time>2026-04-18T09:19:47.063Z</time></trkpt><trkpt lat="42.9746408" lon="13.4060336"><ele>546.8333333333334</ele><time>2026-04-18T09:19:50.018Z</time></trkpt><trkpt lat="42.9745756" lon="13.4060813"><ele>546.0</ele><time>2026-04-18T09:19:52.011Z</time></trkpt><trkpt lat="42.9745088" lon="13.4061109"><ele>546.0</ele><time>2026-04-18T09:19:53.996Z</time></trkpt><trkpt lat="42.9744232" lon="13.4061371"><ele>546.0</ele><time>2026-04-18T09:19:56.019Z</time></trkpt><trkpt lat="42.9743199" lon="13.4061546"><ele>546.0</ele><time>2026-04-18T09:19:58.023Z</time></trkpt><trkpt lat="42.974201" lon="13.4061551"><ele>546.0</ele><time>2026-04-18T09:20:00.055Z</time></trkpt><trkpt lat="42.9740796" lon="13.4061486"><ele>546.0</ele><time>2026-04-18T09:20:02.052Z</time></trkpt><trkpt lat="42.9739618" lon="13.4061286"><ele>549.0</ele><time>2026-04-18T09:20:04.049Z</time></trkpt><trkpt lat="42.9738311" lon="13.4060794"><ele>552.0</ele><time>2026-04-18T09:20:06.042Z</time></trkpt><trkpt lat="42.9737568" lon="13.4060766"><ele>555.0</ele><time>2026-04-18T09:20:07.05Z</time></trkpt><trkpt lat="42.973682" lon="13.4060527"><ele>558.0</ele><time>2026-04-18T09:20:08.02Z</time></trkpt><trkpt lat="42.9735997" lon="13.4060109"><ele>561.0</ele><time>2026-04-18T09:20:10.028Z</time></trkpt><trkpt lat="42.973534" lon="13.4060927"><ele>561.0</ele><time>2026-04-18T09:20:12.989Z</time></trkpt><trkpt lat="42.9735105" lon="13.4061882"><ele>561.0</ele><time>2026-04-18T09:20:16.011Z</time></trkpt><trkpt lat="42.9735682" lon="13.4062374"><ele>561.0</ele><time>2026-04-18T09:20:18.003Z</time></trkpt><trkpt lat="42.9736365" lon="13.4062845"><ele>561.0</ele><time>2026-04-18T09:20:20.031Z</time></trkpt><trkpt lat="42.9736973" lon="13.4063155"><ele>561.0</ele><time>2026-04-18T09:20:21.038Z</time></trkpt><trkpt lat="42.973769" lon="13.4063469"><ele>561.0</ele><time>2026-04-18T09:20:22.039Z</time></trkpt><trkpt lat="42.9738461" lon="13.4063704"><ele>561.0</ele><time>2026-04-18T09:20:23.048Z</time></trkpt><trkpt lat="42.9739179" lon="13.4064021"><ele>557.8333333333334</ele><time>2026-04-18T09:20:24.044Z</time></trkpt><trkpt lat="42.9739861" lon="13.4064331"><ele>554.6666666666666</ele><time>2026-04-18T09:20:25.032Z</time></trkpt><trkpt lat="42.9740869" lon="13.4064816"><ele>551.5</ele><time>2026-04-18T09:20:27.04Z</time></trkpt><trkpt lat="42.9741488" lon="13.4065022"><ele>548.3333333333333</ele><time>2026-04-18T09:20:28.979Z</time></trkpt><trkpt lat="42.9742064" lon="13.406567"><ele>545.1666666666666</ele><time>2026-04-18T09:20:30.982Z</time></trkpt><trkpt lat="42.9742729" lon="13.4066195"><ele>542.0</ele><time>2026-04-18T09:20:32.979Z</time></trkpt><trkpt lat="42.9743781" lon="13.4066095"><ele>542.0</ele><time>2026-04-18T09:20:35.07Z</time></trkpt><trkpt lat="42.9744468" lon="13.4066441"><ele>542.0</ele><time>2026-04-18T09:21:05.984Z</time></trkpt><trkpt lat="42.9743707" lon="13.4066532"><ele>542.0</ele><time>2026-04-18T09:21:09.008Z</time></trkpt><trkpt lat="42.9742144" lon="13.4067744"><ele>542.0</ele><time>2026-04-18T09:21:12.032Z</time></trkpt><trkpt lat="42.9741456" lon="13.4068022"><ele>542.0</ele><time>2026-04-18T09:21:13.049Z</time></trkpt><trkpt lat="42.9740757" lon="13.4068123"><ele>542.0</ele><time>2026-04-18T09:21:14.065Z</time></trkpt><trkpt lat="42.9739688" lon="13.4068095"><ele>542.0</ele><time>2026-04-18T09:21:16.029Z</time></trkpt><trkpt lat="42.97389" lon="13.4067786"><ele>542.0</ele><time>2026-04-18T09:21:18.012Z</time></trkpt><trkpt lat="42.9737088" lon="13.4066958"><ele>542.0</ele><time>2026-04-18T09:21:21.032Z</time></trkpt><trkpt lat="42.9736501" lon="13.4066567"><ele>542.0</ele><time>2026-04-18T09:21:23.055Z</time></trkpt><trkpt lat="42.9737175" lon="13.4067231"><ele>542.0</ele><time>2026-04-18T09:21:30.03Z</time></trkpt><trkpt lat="42.9737794" lon="13.4067604"><ele>542.0</ele><time>2026-04-18T09:21:31.06Z</time></trkpt><trkpt lat="42.9738585" lon="13.4068449"><ele>542.0</ele><time>2026-04-18T09:21:33.023Z</time></trkpt><trkpt lat="42.9738711" lon="13.4069887"><ele>542.0</ele><time>2026-04-18T09:21:35.033Z</time></trkpt><trkpt lat="42.9738491" lon="13.4070814"><ele>542.0</ele><time>2026-04-18T09:21:36.056Z</time></trkpt><trkpt lat="42.9738146" lon="13.4071912"><ele>542.0</ele><time>2026-04-18T09:21:37.041Z</time></trkpt><trkpt lat="42.9737814" lon="13.4073109"><ele>539.5</ele><time>2026-04-18T09:21:38.059Z</time></trkpt><trkpt lat="42.9737501" lon="13.4074213"><ele>537.0</ele><time>2026-04-18T09:21:39.037Z</time></trkpt><trkpt lat="42.9737255" lon="13.4075228"><ele>534.5</ele><time>2026-04-18T09:21:40.031Z</time></trkpt><trkpt lat="42.9737024" lon="13.4076095"><ele>532.0</ele><time>2026-04-18T09:21:41.032Z</time></trkpt><trkpt lat="42.9736375" lon="13.4077235"><ele>529.5</ele><time>2026-04-18T09:21:43.036Z</time></trkpt><trkpt lat="42.9735751" lon="13.4077983"><ele>527.0</ele><time>2026-04-18T09:21:45.059Z</time></trkpt><trkpt lat="42.9735151" lon="13.4078521"><ele>527.0</ele><time>2026-04-18T09:21:48.015Z</time></trkpt><trkpt lat="42.9734507" lon="13.407889"><ele>527.0</ele><time>2026-04-18T09:22:14.961Z</time></trkpt><trkpt lat="42.9733661" lon="13.4079035"><ele>527.0</ele><time>2026-04-18T09:22:18Z</time></trkpt><trkpt lat="42.9732773" lon="13.4079105"><ele>527.0</ele><time>2026-04-18T09:22:21Z</time></trkpt><trkpt lat="42.9732003" lon="13.4079082"><ele>527.0</ele><time>2026-04-18T09:22:22.995Z</time></trkpt><trkpt lat="42.9731058" lon="13.4079094"><ele>527.0</ele><time>2026-04-18T09:22:24.998Z</time></trkpt><trkpt lat="42.9729762" lon="13.4079127"><ele>527.0</ele><time>2026-04-18T09:22:27.047Z</time></trkpt><trkpt lat="42.9729127" lon="13.4079143"><ele>527.0</ele><time>2026-04-18T09:22:28.046Z</time></trkpt><trkpt lat="42.9728007" lon="13.4079313"><ele>527.0</ele><time>2026-04-18T09:22:30.051Z</time></trkpt><trkpt lat="42.972702" lon="13.4079816"><ele>527.0</ele><time>2026-04-18T09:22:32.048Z</time></trkpt><trkpt lat="42.9726266" lon="13.4080312"><ele>527.0</ele><time>2026-04-18T09:22:34.024Z</time></trkpt><trkpt lat="42.972574" lon="13.4080862"><ele>527.0</ele><time>2026-04-18T09:22:36.001Z</time></trkpt><trkpt lat="42.9725189" lon="13.4081901"><ele>526.3333333333333</ele><time>2026-04-18T09:22:38.983Z</time></trkpt><trkpt lat="42.972493" lon="13.4082762"><ele>525.6666666666666</ele><time>2026-04-18T09:22:40.996Z</time></trkpt><trkpt lat="42.9724677" lon="13.4083741"><ele>525.0</ele><time>2026-04-18T09:22:42.995Z</time></trkpt><trkpt lat="42.9724322" lon="13.4084737"><ele>524.3333333333334</ele><time>2026-04-18T09:22:44.996Z</time></trkpt><trkpt lat="42.9723918" lon="13.4086032"><ele>523.6666666666667</ele><time>2026-04-18T09:22:46.997Z</time></trkpt><trkpt lat="42.9723655" lon="13.4086877"><ele>523.0</ele><time>2026-04-18T09:22:48.033Z</time></trkpt><trkpt lat="42.9723327" lon="13.4087776"><ele>522.6666666666667</ele><time>2026-04-18T09:22:49.03Z</time></trkpt><trkpt lat="42.9723005" lon="13.4088633"><ele>522.3333333333334</ele><time>2026-04-18T09:22:50.072Z</time></trkpt><trkpt lat="42.9722678" lon="13.4089483"><ele>522.0</ele><time>2026-04-18T09:22:51.07Z</time></trkpt><trkpt lat="42.9722379" lon="13.4090254"><ele>521.6666666666666</ele><time>2026-04-18T09:22:52.082Z</time></trkpt><trkpt lat="42.9721821" lon="13.4091645"><ele>521.3333333333333</ele><time>2026-04-18T09:22:54.053Z</time></trkpt><trkpt lat="42.9721334" lon="13.4092899"><ele>521.0</ele><time>2026-04-18T09:22:56.052Z</time></trkpt><trkpt lat="42.972072" lon="13.4094246"><ele>521.0</ele><time>2026-04-18T09:22:58.049Z</time></trkpt><trkpt lat="42.9720383" lon="13.4094976"><ele>521.0</ele><time>2026-04-18T09:22:59.052Z</time></trkpt><trkpt lat="42.9719796" lon="13.4096233"><ele>521.0</ele><time>2026-04-18T09:23:01.052Z</time></trkpt><trkpt lat="42.971931" lon="13.4096964"><ele>521.0</ele><time>2026-04-18T09:23:03Z</time></trkpt><trkpt lat="42.9718875" lon="13.4097628"><ele>521.0</ele><time>2026-04-18T09:23:05Z</time></trkpt><trkpt lat="42.9718367" lon="13.4098453"><ele>521.0</ele><time>2026-04-18T09:23:07.995Z</time></trkpt><trkpt lat="42.9717789" lon="13.4099305"><ele>521.0</ele><time>2026-04-18T09:23:11.007Z</time></trkpt><trkpt lat="42.9717207" lon="13.4100352"><ele>521.0</ele><time>2026-04-18T09:23:13.004Z</time></trkpt><trkpt lat="42.9716656" lon="13.4101414"><ele>521.0</ele><time>2026-04-18T09:23:15.058Z</time></trkpt><trkpt lat="42.9716247" lon="13.4102293"><ele>521.0</ele><time>2026-04-18T09:23:17.001Z</time></trkpt><trkpt lat="42.9715916" lon="13.4103199"><ele>521.0</ele><time>2026-04-18T09:23:19.97Z</time></trkpt><trkpt lat="42.9715819" lon="13.4104204"><ele>521.0</ele><time>2026-04-18T09:23:37.967Z</time></trkpt><trkpt lat="42.9716103" lon="13.4105142"><ele>522.3333333333333</ele><time>2026-04-18T09:23:43.999Z</time></trkpt><trkpt lat="42.9716495" lon="13.4106012"><ele>523.6666666666666</ele><time>2026-04-18T09:23:48.003Z</time></trkpt><trkpt lat="42.9716783" lon="13.4106788"><ele>525.0</ele><time>2026-04-18T09:23:49.98Z</time></trkpt><trkpt lat="42.9717271" lon="13.4107606"><ele>526.3333333333334</ele><time>2026-04-18T09:23:58.006Z</time></trkpt><trkpt lat="42.9717791" lon="13.4108802"><ele>527.6666666666667</ele><time>2026-04-18T09:24:01.004Z</time></trkpt><trkpt lat="42.9718158" lon="13.4109738"><ele>529.0</ele><time>2026-04-18T09:24:02.999Z</time></trkpt><trkpt lat="42.9718539" lon="13.4110583"><ele>529.0</ele><time>2026-04-18T09:24:04.963Z</time></trkpt><trkpt lat="42.9718863" lon="13.4111572"><ele>529.0</ele><time>2026-04-18T09:24:07.007Z</time></trkpt><trkpt lat="42.9719157" lon="13.4112541"><ele>529.0</ele><time>2026-04-18T09:24:08.994Z</time></trkpt><trkpt lat="42.9719313" lon="13.4113629"><ele>529.0</ele><time>2026-04-18T09:24:11.007Z</time></trkpt><trkpt lat="42.9719308" lon="13.4114647"><ele>529.0</ele><time>2026-04-18T09:24:12.994Z</time></trkpt><trkpt lat="42.9718992" lon="13.411565"><ele>529.0</ele><time>2026-04-18T09:24:14.964Z</time></trkpt><trkpt lat="42.9718599" lon="13.4116569"><ele>530.5</ele><time>2026-04-18T09:24:17.003Z</time></trkpt><trkpt lat="42.9718064" lon="13.4117379"><ele>532.0</ele><time>2026-04-18T09:24:18.966Z</time></trkpt><trkpt lat="42.9717044" lon="13.4117909"><ele>533.5</ele><time>2026-04-18T09:24:21.037Z</time></trkpt><trkpt lat="42.9716233" lon="13.4118086"><ele>535.0</ele><time>2026-04-18T09:24:23.971Z</time></trkpt><trkpt lat="42.9715565" lon="13.4118044"><ele>536.5</ele><time>2026-04-18T09:24:25.972Z</time></trkpt><trkpt lat="42.9714774" lon="13.4117952"><ele>538.0</ele><time>2026-04-18T09:24:27.967Z</time></trkpt><trkpt lat="42.9714148" lon="13.4118282"><ele>539.4</ele><time>2026-04-18T09:24:29.968Z</time></trkpt><trkpt lat="42.9713493" lon="13.411934"><ele>540.8</ele><time>2026-04-18T09:24:31.975Z</time></trkpt><trkpt lat="42.9712682" lon="13.4120522"><ele>542.2</ele><time>2026-04-18T09:24:34.032Z</time></trkpt><trkpt lat="42.9711855" lon="13.412133"><ele>543.6</ele><time>2026-04-18T09:24:36.033Z</time></trkpt><trkpt lat="42.9711227" lon="13.4121741"><ele>545.0</ele><time>2026-04-18T09:24:37.029Z</time></trkpt><trkpt lat="42.9710639" lon="13.4122123"><ele>545.1428571428571</ele><time>2026-04-18T09:24:38.076Z</time></trkpt><trkpt lat="42.971003" lon="13.4122347"><ele>545.2857142857143</ele><time>2026-04-18T09:24:39.072Z</time></trkpt><trkpt lat="42.970941" lon="13.4122509"><ele>545.4285714285714</ele><time>2026-04-18T09:24:40.02Z</time></trkpt><trkpt lat="42.9708409" lon="13.4122679"><ele>545.5714285714286</ele><time>2026-04-18T09:24:42.038Z</time></trkpt><trkpt lat="42.9707726" lon="13.4122605"><ele>545.7142857142858</ele><time>2026-04-18T09:24:43.031Z</time></trkpt><trkpt lat="42.9706899" lon="13.4122504"><ele>545.8571428571429</ele><time>2026-04-18T09:24:44.067Z</time></trkpt><trkpt lat="42.9706231" lon="13.4122398"><ele>546.0</ele><time>2026-04-18T09:24:45.019Z</time></trkpt><trkpt lat="42.9705149" lon="13.4122659"><ele>546.0</ele><time>2026-04-18T09:24:47.072Z</time></trkpt><trkpt lat="42.970453" lon="13.4122963"><ele>546.0</ele><time>2026-04-18T09:24:48.059Z</time></trkpt><trkpt lat="42.97039" lon="13.4123405"><ele>546.0</ele><time>2026-04-18T09:24:49.051Z</time></trkpt><trkpt lat="42.9703172" lon="13.4123805"><ele>546.0</ele><time>2026-04-18T09:24:50.018Z</time></trkpt><trkpt lat="42.9702102" lon="13.4124316"><ele>546.0</ele><time>2026-04-18T09:24:52.07Z</time></trkpt><trkpt lat="42.9701022" lon="13.4124672"><ele>546.0</ele><time>2026-04-18T09:24:54.05Z</time></trkpt><trkpt lat="42.9700153" lon="13.41249"><ele>546.8</ele><time>2026-04-18T09:24:55.029Z</time></trkpt><trkpt lat="42.9699399" lon="13.4125096"><ele>547.6</ele><time>2026-04-18T09:24:56.05Z</time></trkpt><trkpt lat="42.9698658" lon="13.4125406"><ele>548.4</ele><time>2026-04-18T09:24:57.052Z</time></trkpt><trkpt lat="42.9698189" lon="13.4126042"><ele>549.2</ele><time>2026-04-18T09:24:58.053Z</time></trkpt><trkpt lat="42.9697407" lon="13.4127188"><ele>550.0</ele><time>2026-04-18T09:25:00.02Z</time></trkpt><trkpt lat="42.9696625" lon="13.4128396"><ele>550.0</ele><time>2026-04-18T09:25:02.049Z</time></trkpt><trkpt lat="42.9695728" lon="13.412889"><ele>550.0</ele><time>2026-04-18T09:25:04.024Z</time></trkpt><trkpt lat="42.9694764" lon="13.4128353"><ele>550.0</ele><time>2026-04-18T09:25:05.996Z</time></trkpt><trkpt lat="42.9693842" lon="13.4127361"><ele>550.0</ele><time>2026-04-18T09:25:08.053Z</time></trkpt><trkpt lat="42.9693137" lon="13.412638"><ele>550.0</ele><time>2026-04-18T09:25:09.964Z</time></trkpt><trkpt lat="42.9692589" lon="13.4125664"><ele>550.0</ele><time>2026-04-18T09:25:12Z</time></trkpt><trkpt lat="42.9692139" lon="13.4124908"><ele>550.0</ele><time>2026-04-18T09:25:20.995Z</time></trkpt><trkpt lat="42.9692518" lon="13.4123761"><ele>550.0</ele><time>2026-04-18T09:25:23.969Z</time></trkpt><trkpt lat="42.9693039" lon="13.4122507"><ele>550.0</ele><time>2026-04-18T09:25:25.993Z</time></trkpt><trkpt lat="42.9693666" lon="13.4121092"><ele>550.0</ele><time>2026-04-18T09:25:28.054Z</time></trkpt><trkpt lat="42.9694015" lon="13.4120344"><ele>550.8</ele><time>2026-04-18T09:25:29.048Z</time></trkpt><trkpt lat="42.9694631" lon="13.4118995"><ele>551.6</ele><time>2026-04-18T09:25:31.054Z</time></trkpt><trkpt lat="42.9695282" lon="13.4117494"><ele>552.4</ele><time>2026-04-18T09:25:33.049Z</time></trkpt><trkpt lat="42.9695734" lon="13.4116683"><ele>553.2</ele><time>2026-04-18T09:25:34.047Z</time></trkpt><trkpt lat="42.9696258" lon="13.4115928"><ele>554.0</ele><time>2026-04-18T09:25:35.016Z</time></trkpt><trkpt lat="42.9696815" lon="13.4115248"><ele>554.0</ele><time>2026-04-18T09:25:36.05Z</time></trkpt><trkpt lat="42.9697397" lon="13.4114705"><ele>554.0</ele><time>2026-04-18T09:25:37.047Z</time></trkpt><trkpt lat="42.9697962" lon="13.4114296"><ele>554.0</ele><time>2026-04-18T09:25:38.069Z</time></trkpt><trkpt lat="42.9698908" lon="13.4113754"><ele>554.0</ele><time>2026-04-18T09:25:40.024Z</time></trkpt><trkpt lat="42.9699868" lon="13.4113146"><ele>554.0</ele><time>2026-04-18T09:25:42.047Z</time></trkpt><trkpt lat="42.9701025" lon="13.411248"><ele>554.0</ele><time>2026-04-18T09:25:44.067Z</time></trkpt><trkpt lat="42.9701995" lon="13.4111942"><ele>554.0</ele><time>2026-04-18T09:25:46.051Z</time></trkpt><trkpt lat="42.9702765" lon="13.4111776"><ele>554.0</ele><time>2026-04-18T09:25:47.981Z</time></trkpt><trkpt lat="42.9703346" lon="13.4112492"><ele>554.0</ele><time>2026-04-18T09:25:50.975Z</time></trkpt><trkpt lat="42.9702838" lon="13.4113275"><ele>554.0</ele><time>2026-04-18T09:25:53.999Z</time></trkpt><trkpt lat="42.970219" lon="13.4113774"><ele>554.0</ele><time>2026-04-18T09:25:57.004Z</time></trkpt><trkpt lat="42.9701704" lon="13.4114363"><ele>554.0</ele><time>2026-04-18T09:25:59.998Z</time></trkpt><trkpt lat="42.9701197" lon="13.4115259"><ele>554.0</ele><time>2026-04-18T09:26:04.004Z</time></trkpt><trkpt lat="42.9700808" lon="13.4116144"><ele>554.0</ele><time>2026-04-18T09:26:06.998Z</time></trkpt><trkpt lat="42.9700542" lon="13.4117035"><ele>554.0</ele><time>2026-04-18T09:26:10.997Z</time></trkpt><trkpt lat="42.9700867" lon="13.4117817"><ele>554.0</ele><time>2026-04-18T09:28:14Z</time></trkpt><trkpt lat="42.9701085" lon="13.4116977"><ele>554.0</ele><time>2026-04-18T09:28:20Z</time></trkpt><trkpt lat="42.9700995" lon="13.4116049"><ele>554.0</ele><time>2026-04-18T09:28:34.001Z</time></trkpt><trkpt lat="42.9701537" lon="13.4114832"><ele>554.0</ele><time>2026-04-18T09:28:36.995Z</time></trkpt><trkpt lat="42.9702335" lon="13.4114082"><ele>554.0</ele><time>2026-04-18T09:28:39.03Z</time></trkpt><trkpt lat="42.9703006" lon="13.4113465"><ele>554.0</ele><time>2026-04-18T09:28:41Z</time></trkpt><trkpt lat="42.9703136" lon="13.4112308"><ele>554.0</ele><time>2026-04-18T09:28:44.01Z</time></trkpt><trkpt lat="42.9702539" lon="13.4111928"><ele>554.0</ele><time>2026-04-18T09:28:46Z</time></trkpt><trkpt lat="42.9701617" lon="13.4112269"><ele>554.0</ele><time>2026-04-18T09:28:48.007Z</time></trkpt><trkpt lat="42.9700922" lon="13.4112627"><ele>554.0</ele><time>2026-04-18T09:28:49.057Z</time></trkpt><trkpt lat="42.9699996" lon="13.4113144"><ele>554.0</ele><time>2026-04-18T09:28:50.049Z</time></trkpt><trkpt lat="42.9699075" lon="13.411363"><ele>554.0</ele><time>2026-04-18T09:28:51.048Z</time></trkpt><trkpt lat="42.9698258" lon="13.4114103"><ele>554.0</ele><time>2026-04-18T09:28:52.048Z</time></trkpt><trkpt lat="42.9697509" lon="13.4114671"><ele>554.0</ele><time>2026-04-18T09:28:53.051Z</time></trkpt><trkpt lat="42.9696827" lon="13.4115384"><ele>554.0</ele><time>2026-04-18T09:28:54.046Z</time></trkpt><trkpt lat="42.9696238" lon="13.4116203"><ele>554.0</ele><time>2026-04-18T09:28:55.052Z</time></trkpt><trkpt lat="42.969578" lon="13.4116989"><ele>554.0</ele><time>2026-04-18T09:28:56.05Z</time></trkpt><trkpt lat="42.9695153" lon="13.4118347"><ele>554.0</ele><time>2026-04-18T09:28:58.057Z</time></trkpt><trkpt lat="42.969461" lon="13.4119446"><ele>554.0</ele><time>2026-04-18T09:29:00.054Z</time></trkpt><trkpt lat="42.96941" lon="13.4120488"><ele>554.0</ele><time>2026-04-18T09:29:02.029Z</time></trkpt><trkpt lat="42.9693604" lon="13.4121517"><ele>554.0</ele><time>2026-04-18T09:29:04.025Z</time></trkpt><trkpt lat="42.9693121" lon="13.4122722"><ele>554.0</ele><time>2026-04-18T09:29:06.052Z</time></trkpt><trkpt lat="42.969251" lon="13.41237"><ele>554.0</ele><time>2026-04-18T09:29:08.049Z</time></trkpt><trkpt lat="42.9691371" lon="13.4124073"><ele>554.0</ele><time>2026-04-18T09:29:10.048Z</time></trkpt><trkpt lat="42.9690561" lon="13.4124104"><ele>551.4</ele><time>2026-04-18T09:29:11.074Z</time></trkpt><trkpt lat="42.9689494" lon="13.4124243"><ele>548.8</ele><time>2026-04-18T09:29:12.045Z</time></trkpt><trkpt lat="42.9688449" lon="13.4124434"><ele>546.2</ele><time>2026-04-18T09:29:13.051Z</time></trkpt><trkpt lat="42.9687476" lon="13.4124629"><ele>543.6</ele><time>2026-04-18T09:29:14.048Z</time></trkpt><trkpt lat="42.9686603" lon="13.412479"><ele>541.0</ele><time>2026-04-18T09:29:15.03Z</time></trkpt><trkpt lat="42.9685871" lon="13.412497"><ele>541.0</ele><time>2026-04-18T09:29:16.049Z</time></trkpt><trkpt lat="42.968489" lon="13.4125504"><ele>541.0</ele><time>2026-04-18T09:29:18.048Z</time></trkpt><trkpt lat="42.9684583" lon="13.412637"><ele>541.0</ele><time>2026-04-18T09:29:20.998Z</time></trkpt><trkpt lat="42.9683965" lon="13.4126542"><ele>541.0</ele><time>2026-04-18T09:29:30.998Z</time></trkpt><trkpt lat="42.9684767" lon="13.4125588"><ele>541.0</ele><time>2026-04-18T09:29:33.994Z</time></trkpt><trkpt lat="42.9685502" lon="13.4125214"><ele>541.0</ele><time>2026-04-18T09:29:36.049Z</time></trkpt><trkpt lat="42.9686173" lon="13.4125267"><ele>541.0</ele><time>2026-04-18T09:29:53.008Z</time></trkpt><trkpt lat="42.9685486" lon="13.4125208"><ele>541.0</ele><time>2026-04-18T09:30:04.999Z</time></trkpt><trkpt lat="42.968438" lon="13.4125692"><ele>541.0</ele><time>2026-04-18T09:30:07.052Z</time></trkpt><trkpt lat="42.9683351" lon="13.4125879"><ele>541.0</ele><time>2026-04-18T09:30:09.024Z</time></trkpt><trkpt lat="42.9682183" lon="13.4125807"><ele>541.0</ele><time>2026-04-18T09:30:11.058Z</time></trkpt><trkpt lat="42.9681437" lon="13.4125599"><ele>540.0</ele><time>2026-04-18T09:30:12.053Z</time></trkpt><trkpt lat="42.9680635" lon="13.4125316"><ele>539.0</ele><time>2026-04-18T09:30:13.047Z</time></trkpt><trkpt lat="42.96798" lon="13.4124994"><ele>538.0</ele><time>2026-04-18T09:30:14.048Z</time></trkpt><trkpt lat="42.9678947" lon="13.4124578"><ele>537.0</ele><time>2026-04-18T09:30:15.044Z</time></trkpt><trkpt lat="42.9678172" lon="13.4124041"><ele>536.0</ele><time>2026-04-18T09:30:16.044Z</time></trkpt><trkpt lat="42.9677564" lon="13.4123344"><ele>535.0</ele><time>2026-04-18T09:30:17.022Z</time></trkpt><trkpt lat="42.9677185" lon="13.4122532"><ele>535.0</ele><time>2026-04-18T09:30:18.021Z</time></trkpt><trkpt lat="42.9676841" lon="13.412177"><ele>535.0</ele><time>2026-04-18T09:30:19.041Z</time></trkpt><trkpt lat="42.9676771" lon="13.4120884"><ele>535.0</ele><time>2026-04-18T09:30:20.046Z</time></trkpt><trkpt lat="42.9676586" lon="13.4120058"><ele>535.0</ele><time>2026-04-18T09:30:21.059Z</time></trkpt><trkpt lat="42.9676198" lon="13.4119354"><ele>535.0</ele><time>2026-04-18T09:30:22.015Z</time></trkpt><trkpt lat="42.9675569" lon="13.4118703"><ele>535.0</ele><time>2026-04-18T09:30:23.049Z</time></trkpt><trkpt lat="42.9674788" lon="13.4117982"><ele>535.0</ele><time>2026-04-18T09:30:24.048Z</time></trkpt><trkpt lat="42.9674076" lon="13.4117222"><ele>534.75</ele><time>2026-04-18T09:30:25.043Z</time></trkpt><trkpt lat="42.9673525" lon="13.4116328"><ele>534.5</ele><time>2026-04-18T09:30:26.048Z</time></trkpt><trkpt lat="42.9673045" lon="13.4115076"><ele>534.25</ele><time>2026-04-18T09:30:27.041Z</time></trkpt><trkpt lat="42.9672469" lon="13.4113575"><ele>534.0</ele><time>2026-04-18T09:30:28.048Z</time></trkpt><trkpt lat="42.9671914" lon="13.4111575"><ele>533.5</ele><time>2026-04-18T09:30:29.046Z</time></trkpt><trkpt lat="42.9671315" lon="13.4109788"><ele>533.0</ele><time>2026-04-18T09:30:30.048Z</time></trkpt><trkpt lat="42.9670785" lon="13.4108159"><ele>532.5</ele><time>2026-04-18T09:30:31.048Z</time></trkpt><trkpt lat="42.9670232" lon="13.4106884"><ele>532.0</ele><time>2026-04-18T09:30:32.045Z</time></trkpt><trkpt lat="42.9669654" lon="13.4105808"><ele>532.1666666666667</ele><time>2026-04-18T09:30:33.062Z</time></trkpt><trkpt lat="42.966909" lon="13.4104844"><ele>532.3333333333334</ele><time>2026-04-18T09:30:34.045Z</time></trkpt><trkpt lat="42.9668592" lon="13.410404"><ele>532.5</ele><time>2026-04-18T09:30:35.021Z</time></trkpt><trkpt lat="42.9668223" lon="13.4103255"><ele>532.6666666666666</ele><time>2026-04-18T09:30:36.025Z</time></trkpt><trkpt lat="42.9667835" lon="13.4101816"><ele>532.8333333333333</ele><time>2026-04-18T09:30:38.049Z</time></trkpt><trkpt lat="42.9668222" lon="13.4100985"><ele>533.0</ele><time>2026-04-18T09:30:39.043Z</time></trkpt><trkpt lat="42.9668831" lon="13.4100234"><ele>533.0</ele><time>2026-04-18T09:30:40.047Z</time></trkpt><trkpt lat="42.9669496" lon="13.4099351"><ele>533.0</ele><time>2026-04-18T09:30:41.055Z</time></trkpt><trkpt lat="42.9670003" lon="13.4098354"><ele>533.0</ele><time>2026-04-18T09:30:42.05Z</time></trkpt><trkpt lat="42.9670291" lon="13.4097379"><ele>533.0</ele><time>2026-04-18T09:30:43.043Z</time></trkpt><trkpt lat="42.9670353" lon="13.4096454"><ele>533.0</ele><time>2026-04-18T09:30:44.047Z</time></trkpt><trkpt lat="42.9670172" lon="13.4095578"><ele>533.0</ele><time>2026-04-18T09:30:45.049Z</time></trkpt><trkpt lat="42.966974" lon="13.4094731"><ele>532.5</ele><time>2026-04-18T09:30:46.046Z</time></trkpt><trkpt lat="42.9669156" lon="13.4093925"><ele>532.0</ele><time>2026-04-18T09:30:47.046Z</time></trkpt><trkpt lat="42.9668423" lon="13.4093271"><ele>531.5</ele><time>2026-04-18T09:30:48.051Z</time></trkpt><trkpt lat="42.9667706" lon="13.4092633"><ele>531.0</ele><time>2026-04-18T09:30:49.044Z</time></trkpt><trkpt lat="42.9666981" lon="13.4092228"><ele>530.5</ele><time>2026-04-18T09:30:50.021Z</time></trkpt><trkpt lat="42.9666324" lon="13.4091694"><ele>530.0</ele><time>2026-04-18T09:30:51.027Z</time></trkpt><trkpt lat="42.9665788" lon="13.409104"><ele>531.3333333333333</ele><time>2026-04-18T09:30:52.053Z</time></trkpt><trkpt lat="42.9665344" lon="13.4090262"><ele>532.6666666666666</ele><time>2026-04-18T09:30:53.045Z</time></trkpt><trkpt lat="42.966502" lon="13.4089351"><ele>534.0</ele><time>2026-04-18T09:30:54.045Z</time></trkpt><trkpt lat="42.9664742" lon="13.4088522"><ele>535.3333333333334</ele><time>2026-04-18T09:30:55.044Z</time></trkpt><trkpt lat="42.9664596" lon="13.4087571"><ele>536.6666666666667</ele><time>2026-04-18T09:30:56.061Z</time></trkpt><trkpt lat="42.9664475" lon="13.408666"><ele>538.0</ele><time>2026-04-18T09:30:57.048Z</time></trkpt><trkpt lat="42.9664312" lon="13.4085123"><ele>538.3333333333334</ele><time>2026-04-18T09:30:59.044Z</time></trkpt><trkpt lat="42.9664094" lon="13.4083778"><ele>538.6666666666667</ele><time>2026-04-18T09:31:01.022Z</time></trkpt><trkpt lat="42.9663633" lon="13.4083106"><ele>539.0</ele><time>2026-04-18T09:31:02.992Z</time></trkpt><trkpt lat="42.9663028" lon="13.4082672"><ele>539.3333333333334</ele><time>2026-04-18T09:31:12.965Z</time></trkpt><trkpt lat="42.9662504" lon="13.4083267"><ele>539.6666666666666</ele><time>2026-04-18T09:31:17.012Z</time></trkpt><trkpt lat="42.9661881" lon="13.4084045"><ele>540.0</ele><time>2026-04-18T09:31:18.965Z</time></trkpt><trkpt lat="42.9661114" lon="13.408461"><ele>540.0</ele><time>2026-04-18T09:31:21.024Z</time></trkpt><trkpt lat="42.9660448" lon="13.4085029"><ele>540.0</ele><time>2026-04-18T09:31:22.982Z</time></trkpt><trkpt lat="42.9659655" lon="13.4084989"><ele>540.0</ele><time>2026-04-18T09:31:25.017Z</time></trkpt><trkpt lat="42.965902" lon="13.4084838"><ele>540.0</ele><time>2026-04-18T09:31:26.999Z</time></trkpt><trkpt lat="42.965807" lon="13.4084776"><ele>540.0</ele><time>2026-04-18T09:31:28.993Z</time></trkpt><trkpt lat="42.9657469" lon="13.4085176"><ele>540.0</ele><time>2026-04-18T09:31:30.052Z</time></trkpt><trkpt lat="42.9656902" lon="13.4085911"><ele>540.8333333333334</ele><time>2026-04-18T09:31:31.016Z</time></trkpt><trkpt lat="42.9656344" lon="13.4086646"><ele>541.6666666666666</ele><time>2026-04-18T09:31:32.044Z</time></trkpt><trkpt lat="42.9655909" lon="13.4087419"><ele>542.5</ele><time>2026-04-18T09:31:33.045Z</time></trkpt><trkpt lat="42.965561" lon="13.4088253"><ele>543.3333333333333</ele><time>2026-04-18T09:31:34.044Z</time></trkpt><trkpt lat="42.9655107" lon="13.408949"><ele>544.1666666666666</ele><time>2026-04-18T09:31:36.029Z</time></trkpt><trkpt lat="42.9654555" lon="13.4090237"><ele>545.0</ele><time>2026-04-18T09:31:37.992Z</time></trkpt><trkpt lat="42.9653474" lon="13.4090502"><ele>542.0</ele><time>2026-04-18T09:31:39.991Z</time></trkpt><trkpt lat="42.9652796" lon="13.4090629"><ele>539.0</ele><time>2026-04-18T09:31:41.011Z</time></trkpt><trkpt lat="42.9651675" lon="13.4090803"><ele>536.0</ele><time>2026-04-18T09:31:43.061Z</time></trkpt><trkpt lat="42.9650885" lon="13.4090963"><ele>533.0</ele><time>2026-04-18T09:31:44.051Z</time></trkpt><trkpt lat="42.9650092" lon="13.4091107"><ele>530.0</ele><time>2026-04-18T09:31:45.044Z</time></trkpt><trkpt lat="42.9649395" lon="13.4091388"><ele>527.0</ele><time>2026-04-18T09:31:46.019Z</time></trkpt><trkpt lat="42.9648469" lon="13.4091603"><ele>526.0</ele><time>2026-04-18T09:31:48.039Z</time></trkpt><trkpt lat="42.9647798" lon="13.4091699"><ele>525.0</ele><time>2026-04-18T09:31:48.992Z</time></trkpt><trkpt lat="42.9646543" lon="13.4091785"><ele>524.0</ele><time>2026-04-18T09:31:51.016Z</time></trkpt><trkpt lat="42.9645423" lon="13.4092057"><ele>523.0</ele><time>2026-04-18T09:31:53.061Z</time></trkpt><trkpt lat="42.9644439" lon="13.4092344"><ele>522.0</ele><time>2026-04-18T09:31:55.044Z</time></trkpt><trkpt lat="42.9643316" lon="13.4092698"><ele>522.0</ele><time>2026-04-18T09:31:57.057Z</time></trkpt><trkpt lat="42.9642471" lon="13.4093235"><ele>522.0</ele><time>2026-04-18T09:31:59.01Z</time></trkpt><trkpt lat="42.9641589" lon="13.4093663"><ele>522.0</ele><time>2026-04-18T09:32:00.977Z</time></trkpt><trkpt lat="42.9640872" lon="13.4094153"><ele>522.0</ele><time>2026-04-18T09:32:02.991Z</time></trkpt><trkpt lat="42.9640008" lon="13.4094839"><ele>522.0</ele><time>2026-04-18T09:32:04.995Z</time></trkpt><trkpt lat="42.9639099" lon="13.4095627"><ele>522.6666666666666</ele><time>2026-04-18T09:32:07.043Z</time></trkpt><trkpt lat="42.9637862" lon="13.4096119"><ele>523.3333333333334</ele><time>2026-04-18T09:32:09.044Z</time></trkpt><trkpt lat="42.9637175" lon="13.409653"><ele>524.0</ele><time>2026-04-18T09:32:10.042Z</time></trkpt><trkpt lat="42.9636497" lon="13.4096745"><ele>524.6666666666667</ele><time>2026-04-18T09:32:11.031Z</time></trkpt><trkpt lat="42.9635783" lon="13.4096801"><ele>525.3333333333334</ele><time>2026-04-18T09:32:12.05Z</time></trkpt><trkpt lat="42.9635085" lon="13.4096685"><ele>526.0</ele><time>2026-04-18T09:32:13.046Z</time></trkpt><trkpt lat="42.9633817" lon="13.4096501"><ele>522.6666666666667</ele><time>2026-04-18T09:32:13.997Z</time></trkpt><trkpt lat="42.9633051" lon="13.4096313"><ele>519.3333333333334</ele><time>2026-04-18T09:32:15.004Z</time></trkpt><trkpt lat="42.9631928" lon="13.4095891"><ele>516.0</ele><time>2026-04-18T09:32:16.995Z</time></trkpt><trkpt lat="42.9630924" lon="13.4095661"><ele>512.6666666666666</ele><time>2026-04-18T09:32:18.998Z</time></trkpt><trkpt lat="42.9630254" lon="13.4095573"><ele>509.3333333333333</ele><time>2026-04-18T09:32:21.008Z</time></trkpt><trkpt lat="42.9629438" lon="13.4095475"><ele>506.0</ele><time>2026-04-18T09:32:24.004Z</time></trkpt><trkpt lat="42.9628722" lon="13.4095776"><ele>505.99999999999994</ele><time>2026-04-18T09:32:27.006Z</time></trkpt><trkpt lat="42.9627974" lon="13.4095659"><ele>506.0</ele><time>2026-04-18T09:32:29.994Z</time></trkpt><trkpt lat="42.9627508" lon="13.4094719"><ele>506.0</ele><time>2026-04-18T09:32:34.004Z</time></trkpt><trkpt lat="42.9626928" lon="13.4094175"><ele>506.0</ele><time>2026-04-18T09:32:38.018Z</time></trkpt><trkpt lat="42.962655" lon="13.4092793"><ele>505.99999999999994</ele><time>2026-04-18T09:32:47.003Z</time></trkpt><trkpt lat="42.962601" lon="13.4091987"><ele>506.0</ele><time>2026-04-18T09:32:50.007Z</time></trkpt><trkpt lat="42.962529" lon="13.4092097"><ele>503.1428571428572</ele><time>2026-04-18T09:32:52.999Z</time></trkpt><trkpt lat="42.9624793" lon="13.409286"><ele>500.28571428571433</ele><time>2026-04-18T09:32:55.005Z</time></trkpt><trkpt lat="42.9624803" lon="13.4094047"><ele>497.42857142857144</ele><time>2026-04-18T09:32:57.054Z</time></trkpt><trkpt lat="42.9624826" lon="13.4094934"><ele>494.5714285714286</ele><time>2026-04-18T09:32:59Z</time></trkpt><trkpt lat="42.9624491" lon="13.4095741"><ele>491.7142857142858</ele><time>2026-04-18T09:33:00.96Z</time></trkpt><trkpt lat="42.9623879" lon="13.4096367"><ele>488.85714285714283</ele><time>2026-04-18T09:33:02.993Z</time></trkpt><trkpt lat="42.9623301" lon="13.4096973"><ele>486.0</ele><time>2026-04-18T09:33:03.999Z</time></trkpt><trkpt lat="42.9622568" lon="13.4097905"><ele>484.6</ele><time>2026-04-18T09:33:05.042Z</time></trkpt><trkpt lat="42.9621765" lon="13.4098942"><ele>483.20000000000005</ele><time>2026-04-18T09:33:06.018Z</time></trkpt><trkpt lat="42.9621004" lon="13.4099875"><ele>481.79999999999995</ele><time>2026-04-18T09:33:07.024Z</time></trkpt><trkpt lat="42.9620351" lon="13.4100681"><ele>480.4</ele><time>2026-04-18T09:33:08.037Z</time></trkpt><trkpt lat="42.9619727" lon="13.4101444"><ele>479.0</ele><time>2026-04-18T09:33:09.021Z</time></trkpt><trkpt lat="42.9619141" lon="13.4102145"><ele>478.99999999999994</ele><time>2026-04-18T09:33:10.071Z</time></trkpt><trkpt lat="42.9618584" lon="13.4102812"><ele>479.0</ele><time>2026-04-18T09:33:11.03Z</time></trkpt><trkpt lat="42.9618026" lon="13.4103461"><ele>479.0</ele><time>2026-04-18T09:33:12.071Z</time></trkpt><trkpt lat="42.9617506" lon="13.4104072"><ele>479.0</ele><time>2026-04-18T09:33:13.054Z</time></trkpt><trkpt lat="42.961702" lon="13.4104643"><ele>478.99999999999994</ele><time>2026-04-18T09:33:14.045Z</time></trkpt><trkpt lat="42.9616114" lon="13.4105746"><ele>479.0</ele><time>2026-04-18T09:33:16.053Z</time></trkpt><trkpt lat="42.9615277" lon="13.4106792"><ele>476.16666666666663</ele><time>2026-04-18T09:33:18.038Z</time></trkpt><trkpt lat="42.9614572" lon="13.4107818"><ele>473.3333333333333</ele><time>2026-04-18T09:33:20.025Z</time></trkpt><trkpt lat="42.9614116" lon="13.4108656"><ele>470.5</ele><time>2026-04-18T09:33:22.042Z</time></trkpt><trkpt lat="42.961353" lon="13.4109455"><ele>467.66666666666663</ele><time>2026-04-18T09:33:25.997Z</time></trkpt><trkpt lat="42.9612718" lon="13.4109631"><ele>464.8333333333333</ele><time>2026-04-18T09:33:28.964Z</time></trkpt><trkpt lat="42.9611926" lon="13.4109942"><ele>462.0</ele><time>2026-04-18T09:33:32.006Z</time></trkpt><trkpt lat="42.9611173" lon="13.4111274"><ele>462.0</ele><time>2026-04-18T09:33:33.997Z</time></trkpt><trkpt lat="42.9610815" lon="13.4112333"><ele>462.00000000000006</ele><time>2026-04-18T09:33:35.041Z</time></trkpt><trkpt lat="42.9610355" lon="13.411355"><ele>462.00000000000006</ele><time>2026-04-18T09:33:36.043Z</time></trkpt><trkpt lat="42.9609782" lon="13.4114855"><ele>462.0</ele><time>2026-04-18T09:33:37.043Z</time></trkpt><trkpt lat="42.9609171" lon="13.4116061"><ele>462.0</ele><time>2026-04-18T09:33:38.045Z</time></trkpt><trkpt lat="42.9608576" lon="13.4117123"><ele>461.5</ele><time>2026-04-18T09:33:39.044Z</time></trkpt><trkpt lat="42.9608025" lon="13.4118066"><ele>461.0</ele><time>2026-04-18T09:33:40.043Z</time></trkpt><trkpt lat="42.9607467" lon="13.4118959"><ele>460.5</ele><time>2026-04-18T09:33:41.045Z</time></trkpt><trkpt lat="42.9606887" lon="13.4119831"><ele>460.0</ele><time>2026-04-18T09:33:42.042Z</time></trkpt><trkpt lat="42.9606335" lon="13.4120649"><ele>459.5</ele><time>2026-04-18T09:33:43.04Z</time></trkpt><trkpt lat="42.9605844" lon="13.4121436"><ele>459.0</ele><time>2026-04-18T09:33:44.045Z</time></trkpt><trkpt lat="42.9605395" lon="13.4122155"><ele>459.0</ele><time>2026-04-18T09:33:45.066Z</time></trkpt><trkpt lat="42.9604969" lon="13.41228"><ele>459.0</ele><time>2026-04-18T09:33:46.069Z</time></trkpt><trkpt lat="42.9604222" lon="13.4124035"><ele>459.0</ele><time>2026-04-18T09:33:48.046Z</time></trkpt><trkpt lat="42.9603422" lon="13.4125245"><ele>459.0</ele><time>2026-04-18T09:33:50.019Z</time></trkpt><trkpt lat="42.960258" lon="13.4126372"><ele>459.0</ele><time>2026-04-18T09:33:52.021Z</time></trkpt><trkpt lat="42.9602099" lon="13.4127132"><ele>459.0</ele><time>2026-04-18T09:33:53.019Z</time></trkpt><trkpt lat="42.9601588" lon="13.4127885"><ele>459.0</ele><time>2026-04-18T09:33:54.039Z</time></trkpt><trkpt lat="42.9601044" lon="13.412869"><ele>459.0</ele><time>2026-04-18T09:33:55.046Z</time></trkpt><trkpt lat="42.9600456" lon="13.4129566"><ele>459.0</ele><time>2026-04-18T09:33:56.043Z</time></trkpt><trkpt lat="42.9599862" lon="13.4130496"><ele>459.0</ele><time>2026-04-18T09:33:57.042Z</time></trkpt><trkpt lat="42.9599312" lon="13.4131355"><ele>459.0</ele><time>2026-04-18T09:33:58.042Z</time></trkpt><trkpt lat="42.9598842" lon="13.4132047"><ele>457.2</ele><time>2026-04-18T09:33:59.016Z</time></trkpt><trkpt lat="42.9597921" lon="13.4132865"><ele>455.4</ele><time>2026-04-18T09:34:01.04Z</time></trkpt><trkpt lat="42.9597014" lon="13.4132682"><ele>453.6</ele><time>2026-04-18T09:34:03.044Z</time></trkpt><trkpt lat="42.9596037" lon="13.4132284"><ele>451.8</ele><time>2026-04-18T09:34:05.028Z</time></trkpt><trkpt lat="42.9595123" lon="13.4132302"><ele>450.0</ele><time>2026-04-18T09:34:07.044Z</time></trkpt><trkpt lat="42.9594211" lon="13.4132341"><ele>450.0</ele><time>2026-04-18T09:34:09.019Z</time></trkpt><trkpt lat="42.9593386" lon="13.4132275"><ele>450.0</ele><time>2026-04-18T09:34:10.979Z</time></trkpt><trkpt lat="42.9592624" lon="13.4132216"><ele>450.0</ele><time>2026-04-18T09:34:12.996Z</time></trkpt><trkpt lat="42.9591935" lon="13.4132155"><ele>450.0</ele><time>2026-04-18T09:34:14.968Z</time></trkpt><trkpt lat="42.9591112" lon="13.4132097"><ele>450.0</ele><time>2026-04-18T09:34:16.993Z</time></trkpt><trkpt lat="42.959038" lon="13.4132057"><ele>450.0</ele><time>2026-04-18T09:34:18.989Z</time></trkpt><trkpt lat="42.9589612" lon="13.4132051"><ele>450.1666666666667</ele><time>2026-04-18T09:34:20.963Z</time></trkpt><trkpt lat="42.9588896" lon="13.4132076"><ele>450.33333333333337</ele><time>2026-04-18T09:34:22.989Z</time></trkpt><trkpt lat="42.9588086" lon="13.4132562"><ele>450.5</ele><time>2026-04-18T09:34:24.994Z</time></trkpt><trkpt lat="42.9588002" lon="13.4134272"><ele>450.6666666666667</ele><time>2026-04-18T09:34:27.038Z</time></trkpt><trkpt lat="42.9588137" lon="13.4135428"><ele>450.83333333333337</ele><time>2026-04-18T09:34:29.046Z</time></trkpt><trkpt lat="42.9588843" lon="13.4135872"><ele>451.0</ele><time>2026-04-18T09:34:31.995Z</time></trkpt><trkpt lat="42.9589796" lon="13.4136191"><ele>451.0</ele><time>2026-04-18T09:39:12.994Z</time></trkpt><trkpt lat="42.9590086" lon="13.4137238"><ele>451.0</ele><time>2026-04-18T09:39:29.966Z</time></trkpt><trkpt lat="42.9589614" lon="13.4137974"><ele>451.0</ele><time>2026-04-18T09:39:36.968Z</time></trkpt><trkpt lat="42.9589728" lon="13.4138937"><ele>451.0</ele><time>2026-04-18T09:41:21.98Z</time></trkpt><trkpt lat="42.9590126" lon="13.4139613"><ele>451.0</ele><time>2026-04-18T09:41:25.976Z</time></trkpt><trkpt lat="42.9590483" lon="13.4140389"><ele>451.0</ele><time>2026-04-18T09:41:29.021Z</time></trkpt><trkpt lat="42.9590917" lon="13.4141319"><ele>451.0</ele><time>2026-04-18T09:41:32.972Z</time></trkpt><trkpt lat="42.9588945" lon="13.4139178"><ele>451.00000000000006</ele><time>2026-04-18T09:42:00.501Z</time></trkpt><trkpt lat="42.9589375" lon="13.4137773"><ele>451.0</ele><time>2026-04-18T09:51:13.992Z</time></trkpt><trkpt lat="42.95896" lon="13.4138655"><ele>451.0</ele><time>2026-04-18T09:51:42.038Z</time></trkpt><trkpt lat="42.9590241" lon="13.4138269"><ele>451.0</ele><time>2026-04-18T09:52:45.045Z</time></trkpt><trkpt lat="42.9591373" lon="13.413811"><ele>451.00000000000006</ele><time>2026-04-18T09:53:16.008Z</time></trkpt><trkpt lat="42.9590881" lon="13.4137569"><ele>451.0</ele><time>2026-04-18T09:54:27.985Z</time></trkpt><trkpt lat="42.9590703" lon="13.4136393"><ele>451.0</ele><time>2026-04-18T09:54:37Z</time></trkpt><trkpt lat="42.9591381" lon="13.4137233"><ele>451.0</ele><time>2026-04-18T09:55:14.04Z</time></trkpt><trkpt lat="42.959113" lon="13.4138077"><ele>451.0</ele><time>2026-04-18T09:55:27.044Z</time></trkpt><trkpt lat="42.9591145" lon="13.4138973"><ele>451.0</ele><time>2026-04-18T09:55:49.975Z</time></trkpt><trkpt lat="42.9590474" lon="13.4138966"><ele>451.0</ele><time>2026-04-18T09:56:12.037Z</time></trkpt><trkpt lat="42.9590266" lon="13.4140193"><ele>451.0</ele><time>2026-04-18T09:57:14.985Z</time></trkpt><trkpt lat="42.9589852" lon="13.4139501"><ele>451.0</ele><time>2026-04-18T09:57:44.056Z</time></trkpt><trkpt lat="42.9589753" lon="13.4138525"><ele>451.00000000000006</ele><time>2026-04-18T09:57:50.055Z</time></trkpt><trkpt lat="42.9589434" lon="13.4137764"><ele>451.0</ele><time>2026-04-18T09:57:59.054Z</time></trkpt><trkpt lat="42.9588706" lon="13.4136396"><ele>451.0</ele><time>2026-04-18T10:02:57.969Z</time></trkpt><trkpt lat="42.9588213" lon="13.413528"><ele>451.0</ele><time>2026-04-18T10:03:01.98Z</time></trkpt><trkpt lat="42.9588277" lon="13.4134336"><ele>451.00000000000006</ele><time>2026-04-18T10:03:04.044Z</time></trkpt><trkpt lat="42.9588486" lon="13.413321"><ele>451.0</ele><time>2026-04-18T10:03:09.965Z</time></trkpt><trkpt lat="42.9589006" lon="13.4132721"><ele>451.0</ele><time>2026-04-18T10:03:12.978Z</time></trkpt><trkpt lat="42.9589628" lon="13.4132348"><ele>451.0</ele><time>2026-04-18T10:03:17.03Z</time></trkpt><trkpt lat="42.9590315" lon="13.413237"><ele>451.0</ele><time>2026-04-18T10:03:21.013Z</time></trkpt><trkpt lat="42.9591032" lon="13.4132512"><ele>451.0</ele><time>2026-04-18T10:03:24.048Z</time></trkpt><trkpt lat="42.9591659" lon="13.4132641"><ele>451.0</ele><time>2026-04-18T10:03:30.044Z</time></trkpt><trkpt lat="42.959263" lon="13.4132504"><ele>451.0</ele><time>2026-04-18T10:03:45.04Z</time></trkpt><trkpt lat="42.9593361" lon="13.413271"><ele>451.0</ele><time>2026-04-18T10:03:47.031Z</time></trkpt><trkpt lat="42.9594145" lon="13.4132992"><ele>450.83333333333337</ele><time>2026-04-18T10:03:49.052Z</time></trkpt><trkpt lat="42.9594955" lon="13.4133335"><ele>450.6666666666667</ele><time>2026-04-18T10:03:51.04Z</time></trkpt><trkpt lat="42.9595594" lon="13.4133752"><ele>450.5</ele><time>2026-04-18T10:03:53.042Z</time></trkpt><trkpt lat="42.9596287" lon="13.4133952"><ele>450.33333333333337</ele><time>2026-04-18T10:03:55.045Z</time></trkpt><trkpt lat="42.959692" lon="13.4133397"><ele>450.1666666666667</ele><time>2026-04-18T10:03:56.04Z</time></trkpt><trkpt lat="42.9597537" lon="13.4132615"><ele>450.0</ele><time>2026-04-18T10:03:56.978Z</time></trkpt><trkpt lat="42.9598254" lon="13.413163"><ele>450.0</ele><time>2026-04-18T10:03:58.01Z</time></trkpt><trkpt lat="42.9598979" lon="13.413062"><ele>450.0</ele><time>2026-04-18T10:03:59.038Z</time></trkpt><trkpt lat="42.9599713" lon="13.4129528"><ele>450.0</ele><time>2026-04-18T10:04:00.057Z</time></trkpt><trkpt lat="42.960048" lon="13.4128414"><ele>450.0</ele><time>2026-04-18T10:04:01.057Z</time></trkpt><trkpt lat="42.9601272" lon="13.4127284"><ele>450.0</ele><time>2026-04-18T10:04:02.06Z</time></trkpt><trkpt lat="42.9602088" lon="13.4126076"><ele>451.6</ele><time>2026-04-18T10:04:03.045Z</time></trkpt><trkpt lat="42.9602842" lon="13.4124899"><ele>453.2</ele><time>2026-04-18T10:04:04.053Z</time></trkpt><trkpt lat="42.9603502" lon="13.4123842"><ele>454.79999999999995</ele><time>2026-04-18T10:04:05.062Z</time></trkpt><trkpt lat="42.9604087" lon="13.4122902"><ele>456.4</ele><time>2026-04-18T10:04:06.049Z</time></trkpt><trkpt lat="42.9604648" lon="13.4122002"><ele>458.0</ele><time>2026-04-18T10:04:07.059Z</time></trkpt><trkpt lat="42.9605225" lon="13.4121147"><ele>458.0</ele><time>2026-04-18T10:04:08.057Z</time></trkpt><trkpt lat="42.960579" lon="13.4120304"><ele>457.99999999999994</ele><time>2026-04-18T10:04:09.048Z</time></trkpt><trkpt lat="42.9606396" lon="13.4119382"><ele>457.99999999999994</ele><time>2026-04-18T10:04:10.051Z</time></trkpt><trkpt lat="42.9607049" lon="13.4118443"><ele>458.0</ele><time>2026-04-18T10:04:11.108Z</time></trkpt><trkpt lat="42.9607731" lon="13.4117392"><ele>458.0</ele><time>2026-04-18T10:04:12.055Z</time></trkpt><trkpt lat="42.9608424" lon="13.411632"><ele>458.79999999999995</ele><time>2026-04-18T10:04:13.067Z</time></trkpt><trkpt lat="42.9609051" lon="13.4115117"><ele>459.59999999999997</ele><time>2026-04-18T10:04:14.052Z</time></trkpt><trkpt lat="42.9609575" lon="13.4113935"><ele>460.40000000000003</ele><time>2026-04-18T10:04:15.053Z</time></trkpt><trkpt lat="42.9609984" lon="13.4112921"><ele>461.20000000000005</ele><time>2026-04-18T10:04:16.052Z</time></trkpt><trkpt lat="42.9610316" lon="13.4112112"><ele>462.0</ele><time>2026-04-18T10:04:17.028Z</time></trkpt><trkpt lat="42.9610838" lon="13.4110903"><ele>462.0</ele><time>2026-04-18T10:04:19.053Z</time></trkpt><trkpt lat="42.9611166" lon="13.4109974"><ele>462.0</ele><time>2026-04-18T10:04:21.005Z</time></trkpt><trkpt lat="42.9611975" lon="13.4109658"><ele>462.0</ele><time>2026-04-18T10:04:23.02Z</time></trkpt><trkpt lat="42.961297" lon="13.4109226"><ele>462.0</ele><time>2026-04-18T10:04:25.054Z</time></trkpt><trkpt lat="42.9613402" lon="13.4108458"><ele>462.0</ele><time>2026-04-18T10:04:26.058Z</time></trkpt><trkpt lat="42.9613835" lon="13.4107448"><ele>462.0</ele><time>2026-04-18T10:04:27.029Z</time></trkpt><trkpt lat="42.9614399" lon="13.4106549"><ele>462.0</ele><time>2026-04-18T10:04:28.089Z</time></trkpt><trkpt lat="42.9615226" lon="13.4105563"><ele>462.00000000000006</ele><time>2026-04-18T10:04:29.05Z</time></trkpt><trkpt lat="42.9616043" lon="13.4104652"><ele>462.00000000000006</ele><time>2026-04-18T10:04:30.021Z</time></trkpt><trkpt lat="42.961676" lon="13.4103883"><ele>462.0</ele><time>2026-04-18T10:04:31.04Z</time></trkpt><trkpt lat="42.9617438" lon="13.4103206"><ele>462.0</ele><time>2026-04-18T10:04:32.029Z</time></trkpt><trkpt lat="42.9618028" lon="13.4102614"><ele>464.8333333333333</ele><time>2026-04-18T10:04:33.043Z</time></trkpt><trkpt lat="42.9618607" lon="13.4102007"><ele>467.66666666666663</ele><time>2026-04-18T10:04:34.108Z</time></trkpt><trkpt lat="42.9619188" lon="13.4101408"><ele>470.5</ele><time>2026-04-18T10:04:35.038Z</time></trkpt><trkpt lat="42.9619775" lon="13.4100732"><ele>473.3333333333333</ele><time>2026-04-18T10:04:36.061Z</time></trkpt><trkpt lat="42.9620404" lon="13.4100018"><ele>476.16666666666663</ele><time>2026-04-18T10:04:37.036Z</time></trkpt><trkpt lat="42.9620994" lon="13.4099281"><ele>479.0</ele><time>2026-04-18T10:04:38.052Z</time></trkpt><trkpt lat="42.9621564" lon="13.4098524"><ele>478.99999999999994</ele><time>2026-04-18T10:04:39.066Z</time></trkpt><trkpt lat="42.9622101" lon="13.409786"><ele>479.0</ele><time>2026-04-18T10:04:40.1Z</time></trkpt><trkpt lat="42.962288" lon="13.4096952"><ele>479.0</ele><time>2026-04-18T10:04:42.03Z</time></trkpt><trkpt lat="42.9623641" lon="13.4096291"><ele>479.0</ele><time>2026-04-18T10:04:44.052Z</time></trkpt><trkpt lat="42.9624275" lon="13.4095667"><ele>478.99999999999994</ele><time>2026-04-18T10:04:46.057Z</time></trkpt><trkpt lat="42.9624587" lon="13.409465"><ele>479.0</ele><time>2026-04-18T10:04:48.021Z</time></trkpt><trkpt lat="42.9624495" lon="13.4093469"><ele>480.16666666666663</ele><time>2026-04-18T10:04:50.028Z</time></trkpt><trkpt lat="42.9624678" lon="13.4092341"><ele>481.3333333333333</ele><time>2026-04-18T10:04:51.974Z</time></trkpt><trkpt lat="42.9625245" lon="13.4091673"><ele>482.5</ele><time>2026-04-18T10:04:54.054Z</time></trkpt><trkpt lat="42.9626046" lon="13.4091628"><ele>483.66666666666663</ele><time>2026-04-18T10:04:56.013Z</time></trkpt><trkpt lat="42.9626561" lon="13.409235"><ele>484.8333333333333</ele><time>2026-04-18T10:04:59.024Z</time></trkpt><trkpt lat="42.9626456" lon="13.4093327"><ele>486.0</ele><time>2026-04-18T10:05:01.969Z</time></trkpt><trkpt lat="42.9627062" lon="13.4093608"><ele>489.3333333333333</ele><time>2026-04-18T10:05:06.98Z</time></trkpt><trkpt lat="42.9627325" lon="13.4094694"><ele>492.66666666666663</ele><time>2026-04-18T10:05:10.04Z</time></trkpt><trkpt lat="42.9628143" lon="13.4095118"><ele>496.0</ele><time>2026-04-18T10:05:11.985Z</time></trkpt><trkpt lat="42.9629028" lon="13.4094943"><ele>499.3333333333333</ele><time>2026-04-18T10:05:14.036Z</time></trkpt><trkpt lat="42.9629943" lon="13.4094916"><ele>502.66666666666663</ele><time>2026-04-18T10:05:16.053Z</time></trkpt><trkpt lat="42.9630749" lon="13.4094919"><ele>506.0</ele><time>2026-04-18T10:05:17.977Z</time></trkpt><trkpt lat="42.9631581" lon="13.4095079"><ele>505.99999999999994</ele><time>2026-04-18T10:05:20.007Z</time></trkpt><trkpt lat="42.9632391" lon="13.4095533"><ele>506.0</ele><time>2026-04-18T10:05:22.014Z</time></trkpt><trkpt lat="42.9633487" lon="13.409597"><ele>506.0</ele><time>2026-04-18T10:05:24.026Z</time></trkpt><trkpt lat="42.963414" lon="13.4095797"><ele>506.0</ele><time>2026-04-18T10:05:25.053Z</time></trkpt><trkpt lat="42.9634928" lon="13.409553"><ele>505.99999999999994</ele><time>2026-04-18T10:05:26.061Z</time></trkpt><trkpt lat="42.9635815" lon="13.4095299"><ele>506.0</ele><time>2026-04-18T10:05:27.043Z</time></trkpt><trkpt lat="42.9636539" lon="13.4095016"><ele>509.3333333333333</ele><time>2026-04-18T10:05:28.053Z</time></trkpt><trkpt lat="42.9637206" lon="13.4094712"><ele>512.6666666666666</ele><time>2026-04-18T10:05:29.059Z</time></trkpt><trkpt lat="42.9637896" lon="13.4094336"><ele>516.0</ele><time>2026-04-18T10:05:30.06Z</time></trkpt><trkpt lat="42.9638461" lon="13.4093871"><ele>519.3333333333334</ele><time>2026-04-18T10:05:31.055Z</time></trkpt><trkpt lat="42.9639514" lon="13.4093029"><ele>522.6666666666667</ele><time>2026-04-18T10:05:33.064Z</time></trkpt><trkpt lat="42.9640071" lon="13.4092586"><ele>526.0</ele><time>2026-04-18T10:05:34.04Z</time></trkpt><trkpt lat="42.964069" lon="13.4092077"><ele>526.0</ele><time>2026-04-18T10:05:35.048Z</time></trkpt><trkpt lat="42.9641478" lon="13.4091507"><ele>526.0</ele><time>2026-04-18T10:05:36.065Z</time></trkpt><trkpt lat="42.9642392" lon="13.4091047"><ele>526.0</ele><time>2026-04-18T10:05:37.025Z</time></trkpt><trkpt lat="42.9643291" lon="13.4090785"><ele>526.0</ele><time>2026-04-18T10:05:38.043Z</time></trkpt><trkpt lat="42.96442" lon="13.4090294"><ele>526.0</ele><time>2026-04-18T10:05:39.063Z</time></trkpt><trkpt lat="42.964502" lon="13.4090064"><ele>525.3333333333334</ele><time>2026-04-18T10:05:40.06Z</time></trkpt><trkpt lat="42.9645709" lon="13.4090129"><ele>524.6666666666667</ele><time>2026-04-18T10:05:41.049Z</time></trkpt><trkpt lat="42.9646424" lon="13.4090225"><ele>524.0</ele><time>2026-04-18T10:05:42.046Z</time></trkpt><trkpt lat="42.964709" lon="13.4090146"><ele>523.3333333333334</ele><time>2026-04-18T10:05:43.059Z</time></trkpt><trkpt lat="42.9648381" lon="13.4089915"><ele>522.6666666666666</ele><time>2026-04-18T10:05:45.053Z</time></trkpt><trkpt lat="42.9649113" lon="13.4090016"><ele>522.0</ele><time>2026-04-18T10:05:46.067Z</time></trkpt><trkpt lat="42.9649742" lon="13.4090162"><ele>523.25</ele><time>2026-04-18T10:05:47.043Z</time></trkpt><trkpt lat="42.9651051" lon="13.4090011"><ele>524.5</ele><time>2026-04-18T10:05:49.057Z</time></trkpt><trkpt lat="42.9651778" lon="13.408995"><ele>525.75</ele><time>2026-04-18T10:05:50.053Z</time></trkpt><trkpt lat="42.9653449" lon="13.4090031"><ele>527.0</ele><time>2026-04-18T10:05:54.042Z</time></trkpt><trkpt lat="42.9654069" lon="13.408883"><ele>530.6</ele><time>2026-04-18T10:05:56.04Z</time></trkpt><trkpt lat="42.9654674" lon="13.4088193"><ele>534.2</ele><time>2026-04-18T10:05:57.056Z</time></trkpt><trkpt lat="42.965516" lon="13.4087638"><ele>537.8</ele><time>2026-04-18T10:05:58.06Z</time></trkpt><trkpt lat="42.9656405" lon="13.4086769"><ele>541.4</ele><time>2026-04-18T10:06:00.052Z</time></trkpt><trkpt lat="42.9657199" lon="13.4086016"><ele>545.0</ele><time>2026-04-18T10:06:01.062Z</time></trkpt><trkpt lat="42.9658224" lon="13.408505"><ele>544.1666666666666</ele><time>2026-04-18T10:06:02.057Z</time></trkpt><trkpt lat="42.9658978" lon="13.4084893"><ele>543.3333333333333</ele><time>2026-04-18T10:06:03.065Z</time></trkpt><trkpt lat="42.9659791" lon="13.408485"><ele>542.5</ele><time>2026-04-18T10:06:04.067Z</time></trkpt><trkpt lat="42.9660513" lon="13.4084685"><ele>541.6666666666666</ele><time>2026-04-18T10:06:05.058Z</time></trkpt><trkpt lat="42.9661561" lon="13.4083869"><ele>540.8333333333334</ele><time>2026-04-18T10:06:07.081Z</time></trkpt><trkpt lat="42.9662038" lon="13.4083142"><ele>540.0</ele><time>2026-04-18T10:06:09.043Z</time></trkpt><trkpt lat="42.9662815" lon="13.4082506"><ele>540.0</ele><time>2026-04-18T10:06:12.016Z</time></trkpt><trkpt lat="42.9663738" lon="13.4083486"><ele>540.0</ele><time>2026-04-18T10:06:14.062Z</time></trkpt><trkpt lat="42.9664033" lon="13.4084356"><ele>540.0</ele><time>2026-04-18T10:06:15.071Z</time></trkpt><trkpt lat="42.9664199" lon="13.4085429"><ele>540.0</ele><time>2026-04-18T10:06:16.057Z</time></trkpt><trkpt lat="42.9664332" lon="13.4086555"><ele>540.0</ele><time>2026-04-18T10:06:17.053Z</time></trkpt><trkpt lat="42.9664536" lon="13.408764"><ele>540.0</ele><time>2026-04-18T10:06:18.09Z</time></trkpt><trkpt lat="42.9664721" lon="13.4088662"><ele>539.6666666666666</ele><time>2026-04-18T10:06:19.06Z</time></trkpt><trkpt lat="42.9664979" lon="13.4089483"><ele>539.3333333333334</ele><time>2026-04-18T10:06:20.055Z</time></trkpt><trkpt lat="42.9665509" lon="13.4090937"><ele>539.0</ele><time>2026-04-18T10:06:22.057Z</time></trkpt><trkpt lat="42.9666148" lon="13.4091486"><ele>538.6666666666667</ele><time>2026-04-18T10:06:23.027Z</time></trkpt><trkpt lat="42.9666935" lon="13.4092035"><ele>538.3333333333334</ele><time>2026-04-18T10:06:24.055Z</time></trkpt><trkpt lat="42.9667762" lon="13.4092574"><ele>538.0</ele><time>2026-04-18T10:06:25.053Z</time></trkpt><trkpt lat="42.9668546" lon="13.4093095"><ele>537.1666666666667</ele><time>2026-04-18T10:06:26.05Z</time></trkpt><trkpt lat="42.9669268" lon="13.4093774"><ele>536.3333333333334</ele><time>2026-04-18T10:06:27.056Z</time></trkpt><trkpt lat="42.9669874" lon="13.4094645"><ele>535.5</ele><time>2026-04-18T10:06:28.053Z</time></trkpt><trkpt lat="42.9670436" lon="13.409552"><ele>534.6666666666666</ele><time>2026-04-18T10:06:29.054Z</time></trkpt><trkpt lat="42.9670717" lon="13.4096399"><ele>533.8333333333333</ele><time>2026-04-18T10:06:30.061Z</time></trkpt><trkpt lat="42.9670583" lon="13.4097419"><ele>533.0</ele><time>2026-04-18T10:06:31.047Z</time></trkpt><trkpt lat="42.9670218" lon="13.4098297"><ele>533.0</ele><time>2026-04-18T10:06:32.048Z</time></trkpt><trkpt lat="42.9669853" lon="13.4099119"><ele>533.0</ele><time>2026-04-18T10:06:33.06Z</time></trkpt><trkpt lat="42.9669401" lon="13.4099755"><ele>533.0</ele><time>2026-04-18T10:06:34.066Z</time></trkpt><trkpt lat="42.966848" lon="13.4100896"><ele>533.0</ele><time>2026-04-18T10:06:36.081Z</time></trkpt><trkpt lat="42.9668032" lon="13.4102304"><ele>533.0</ele><time>2026-04-18T10:06:38.064Z</time></trkpt><trkpt lat="42.9668477" lon="13.410381"><ele>533.0</ele><time>2026-04-18T10:06:40.048Z</time></trkpt><trkpt lat="42.9668993" lon="13.4104489"><ele>533.0</ele><time>2026-04-18T10:06:41.067Z</time></trkpt><trkpt lat="42.9669526" lon="13.410529"><ele>533.0</ele><time>2026-04-18T10:06:42.045Z</time></trkpt><trkpt lat="42.9670052" lon="13.4106149"><ele>533.0</ele><time>2026-04-18T10:06:43.036Z</time></trkpt><trkpt lat="42.9670526" lon="13.4107221"><ele>533.0</ele><time>2026-04-18T10:06:44.054Z</time></trkpt><trkpt lat="42.9671012" lon="13.4108328"><ele>533.0</ele><time>2026-04-18T10:06:45.053Z</time></trkpt><trkpt lat="42.9671498" lon="13.4109417"><ele>532.8</ele><time>2026-04-18T10:06:46.083Z</time></trkpt><trkpt lat="42.9671889" lon="13.4110504"><ele>532.5999999999999</ele><time>2026-04-18T10:06:47.099Z</time></trkpt><trkpt lat="42.9672222" lon="13.4111736"><ele>532.4000000000001</ele><time>2026-04-18T10:06:48.056Z</time></trkpt><trkpt lat="42.967258" lon="13.4112993"><ele>532.2</ele><time>2026-04-18T10:06:49.055Z</time></trkpt><trkpt lat="42.9672925" lon="13.4114254"><ele>532.0</ele><time>2026-04-18T10:06:50.055Z</time></trkpt><trkpt lat="42.9673355" lon="13.4115462"><ele>532.4</ele><time>2026-04-18T10:06:51.053Z</time></trkpt><trkpt lat="42.96739" lon="13.4116542"><ele>532.8000000000001</ele><time>2026-04-18T10:06:52.052Z</time></trkpt><trkpt lat="42.9674479" lon="13.4117618"><ele>533.2</ele><time>2026-04-18T10:06:53.083Z</time></trkpt><trkpt lat="42.967535" lon="13.4118436"><ele>533.6</ele><time>2026-04-18T10:06:54.055Z</time></trkpt><trkpt lat="42.9676056" lon="13.4119263"><ele>534.0</ele><time>2026-04-18T10:06:55.056Z</time></trkpt><trkpt lat="42.9676494" lon="13.4120202"><ele>534.1666666666666</ele><time>2026-04-18T10:06:56.034Z</time></trkpt><trkpt lat="42.9676684" lon="13.4121231"><ele>534.3333333333334</ele><time>2026-04-18T10:06:57.06Z</time></trkpt><trkpt lat="42.9676855" lon="13.4122188"><ele>534.5</ele><time>2026-04-18T10:06:58.064Z</time></trkpt><trkpt lat="42.9677026" lon="13.4123104"><ele>534.6666666666667</ele><time>2026-04-18T10:06:59.056Z</time></trkpt><trkpt lat="42.9677507" lon="13.4123945"><ele>534.8333333333334</ele><time>2026-04-18T10:07:00.041Z</time></trkpt><trkpt lat="42.9678312" lon="13.4124598"><ele>535.0</ele><time>2026-04-18T10:07:01.038Z</time></trkpt><trkpt lat="42.967926" lon="13.4125002"><ele>535.0</ele><time>2026-04-18T10:07:02.05Z</time></trkpt><trkpt lat="42.9680218" lon="13.4125401"><ele>535.0</ele><time>2026-04-18T10:07:03.051Z</time></trkpt><trkpt lat="42.9681138" lon="13.4125794"><ele>535.0</ele><time>2026-04-18T10:07:04.108Z</time></trkpt><trkpt lat="42.9681974" lon="13.4126045"><ele>535.0</ele><time>2026-04-18T10:07:05.056Z</time></trkpt><trkpt lat="42.9682701" lon="13.4126152"><ele>535.0</ele><time>2026-04-18T10:07:06.054Z</time></trkpt><trkpt lat="42.9683911" lon="13.4125914"><ele>535.8571428571429</ele><time>2026-04-18T10:07:08.041Z</time></trkpt><trkpt lat="42.968455" lon="13.4125502"><ele>536.7142857142858</ele><time>2026-04-18T10:07:09.085Z</time></trkpt><trkpt lat="42.96852" lon="13.412509"><ele>537.5714285714287</ele><time>2026-04-18T10:07:10.055Z</time></trkpt><trkpt lat="42.9685933" lon="13.4124873"><ele>538.4285714285714</ele><time>2026-04-18T10:07:11.058Z</time></trkpt><trkpt lat="42.9686693" lon="13.4124698"><ele>539.2857142857143</ele><time>2026-04-18T10:07:12.068Z</time></trkpt><trkpt lat="42.9687448" lon="13.4124523"><ele>540.1428571428572</ele><time>2026-04-18T10:07:13.07Z</time></trkpt><trkpt lat="42.9688177" lon="13.4124361"><ele>541.0</ele><time>2026-04-18T10:07:14.072Z</time></trkpt><trkpt lat="42.9688892" lon="13.4124219"><ele>541.0</ele><time>2026-04-18T10:07:15.11Z</time></trkpt><trkpt lat="42.9690063" lon="13.4124084"><ele>541.0</ele><time>2026-04-18T10:07:17.065Z</time></trkpt><trkpt lat="42.9690714" lon="13.4124074"><ele>541.0</ele><time>2026-04-18T10:07:18.074Z</time></trkpt><trkpt lat="42.969136" lon="13.4124123"><ele>541.0</ele><time>2026-04-18T10:07:19.079Z</time></trkpt><trkpt lat="42.9692511" lon="13.4124714"><ele>541.0</ele><time>2026-04-18T10:07:21.074Z</time></trkpt><trkpt lat="42.969342" lon="13.4125814"><ele>542.5</ele><time>2026-04-18T10:07:23.044Z</time></trkpt><trkpt lat="42.9693838" lon="13.4126547"><ele>544.0</ele><time>2026-04-18T10:07:24.093Z</time></trkpt><trkpt lat="42.9694283" lon="13.412732"><ele>545.5</ele><time>2026-04-18T10:07:25.085Z</time></trkpt><trkpt lat="42.9694682" lon="13.4128026"><ele>547.0</ele><time>2026-04-18T10:07:26.098Z</time></trkpt><trkpt lat="42.9695412" lon="13.4128893"><ele>548.5</ele><time>2026-04-18T10:07:28.047Z</time></trkpt><trkpt lat="42.9696395" lon="13.4128735"><ele>550.0</ele><time>2026-04-18T10:07:30.066Z</time></trkpt><trkpt lat="42.9696743" lon="13.4128002"><ele>550.0</ele><time>2026-04-18T10:07:31.063Z</time></trkpt><trkpt lat="42.9697107" lon="13.4127044"><ele>550.0</ele><time>2026-04-18T10:07:32.051Z</time></trkpt><trkpt lat="42.9697648" lon="13.4126124"><ele>550.0</ele><time>2026-04-18T10:07:33.033Z</time></trkpt><trkpt lat="42.969847" lon="13.4125281"><ele>550.0</ele><time>2026-04-18T10:07:34.051Z</time></trkpt><trkpt lat="42.9699609" lon="13.4124408"><ele>550.0</ele><time>2026-04-18T10:07:35.076Z</time></trkpt><trkpt lat="42.9700701" lon="13.4124071"><ele>549.2</ele><time>2026-04-18T10:07:36.049Z</time></trkpt><trkpt lat="42.9701791" lon="13.4123979"><ele>548.4</ele><time>2026-04-18T10:07:37.115Z</time></trkpt><trkpt lat="42.9702825" lon="13.4123453"><ele>547.6</ele><time>2026-04-18T10:07:38.048Z</time></trkpt><trkpt lat="42.9703698" lon="13.4122683"><ele>546.8</ele><time>2026-04-18T10:07:39.048Z</time></trkpt><trkpt lat="42.9704494" lon="13.4122087"><ele>546.0</ele><time>2026-04-18T10:07:40.039Z</time></trkpt><trkpt lat="42.9705683" lon="13.4121623"><ele>545.8</ele><time>2026-04-18T10:07:41.048Z</time></trkpt><trkpt lat="42.9706855" lon="13.4121539"><ele>545.6</ele><time>2026-04-18T10:07:42.048Z</time></trkpt><trkpt lat="42.9707855" lon="13.4121562"><ele>545.4</ele><time>2026-04-18T10:07:43.046Z</time></trkpt><trkpt lat="42.9708766" lon="13.4121461"><ele>545.2</ele><time>2026-04-18T10:07:44.057Z</time></trkpt><trkpt lat="42.9709704" lon="13.4121331"><ele>545.0</ele><time>2026-04-18T10:07:45.044Z</time></trkpt><trkpt lat="42.9710559" lon="13.4121114"><ele>545.0</ele><time>2026-04-18T10:07:46.053Z</time></trkpt><trkpt lat="42.9711386" lon="13.4120817"><ele>545.0</ele><time>2026-04-18T10:07:47.043Z</time></trkpt><trkpt lat="42.9712204" lon="13.4120452"><ele>545.0</ele><time>2026-04-18T10:07:48.047Z</time></trkpt><trkpt lat="42.9712862" lon="13.4119967"><ele>545.0</ele><time>2026-04-18T10:07:49.089Z</time></trkpt><trkpt lat="42.9713362" lon="13.4119388"><ele>545.0</ele><time>2026-04-18T10:07:50.064Z</time></trkpt><trkpt lat="42.9713932" lon="13.4118681"><ele>545.0</ele><time>2026-04-18T10:07:51.092Z</time></trkpt><trkpt lat="42.9714727" lon="13.4118256"><ele>545.0</ele><time>2026-04-18T10:07:52.059Z</time></trkpt><trkpt lat="42.9715752" lon="13.4118174"><ele>545.0</ele><time>2026-04-18T10:07:53.096Z</time></trkpt><trkpt lat="42.9716632" lon="13.4117885"><ele>545.0</ele><time>2026-04-18T10:07:54.048Z</time></trkpt><trkpt lat="42.9717388" lon="13.4117657"><ele>545.0</ele><time>2026-04-18T10:07:55.073Z</time></trkpt><trkpt lat="42.9718262" lon="13.4117035"><ele>545.0</ele><time>2026-04-18T10:07:57.032Z</time></trkpt><trkpt lat="42.9718834" lon="13.4116135"><ele>543.8333333333333</ele><time>2026-04-18T10:08:00.019Z</time></trkpt><trkpt lat="42.9719179" lon="13.4114992"><ele>542.6666666666666</ele><time>2026-04-18T10:08:03.003Z</time></trkpt><trkpt lat="42.9719427" lon="13.4113627"><ele>541.5</ele><time>2026-04-18T10:08:06.029Z</time></trkpt><trkpt lat="42.9719303" lon="13.4112632"><ele>540.3333333333334</ele><time>2026-04-18T10:08:08.017Z</time></trkpt><trkpt lat="42.9719018" lon="13.4111848"><ele>539.1666666666667</ele><time>2026-04-18T10:08:10.043Z</time></trkpt><trkpt lat="42.971864" lon="13.4110741"><ele>538.0</ele><time>2026-04-18T10:08:12.054Z</time></trkpt><trkpt lat="42.971822" lon="13.4109745"><ele>537.4285714285714</ele><time>2026-04-18T10:08:14.049Z</time></trkpt><trkpt lat="42.9717769" lon="13.410881"><ele>536.8571428571429</ele><time>2026-04-18T10:08:17.058Z</time></trkpt><trkpt lat="42.971738" lon="13.4108057"><ele>536.2857142857143</ele><time>2026-04-18T10:08:20.049Z</time></trkpt><trkpt lat="42.9716987" lon="13.4107161"><ele>535.7142857142858</ele><time>2026-04-18T10:08:24.047Z</time></trkpt><trkpt lat="42.9716679" lon="13.4106381"><ele>535.1428571428571</ele><time>2026-04-18T10:08:27.039Z</time></trkpt><trkpt lat="42.9716203" lon="13.4105544"><ele>534.5714285714287</ele><time>2026-04-18T10:08:30.008Z</time></trkpt><trkpt lat="42.9715807" lon="13.4104728"><ele>534.0</ele><time>2026-04-18T10:08:34.06Z</time></trkpt><trkpt lat="42.9715647" lon="13.4103536"><ele>531.5</ele><time>2026-04-18T10:08:36.991Z</time></trkpt><trkpt lat="42.9715837" lon="13.4102661"><ele>529.0</ele><time>2026-04-18T10:08:39.006Z</time></trkpt><trkpt lat="42.9719018" lon="13.4111848"><ele>529.0</ele><time>2026-04-18T10:08:10.043Z</time></trkpt><trkpt lat="42.971864" lon="13.4110741"><ele>529.0</ele><time>2026-04-18T10:08:12.054Z</time></trkpt><trkpt lat="42.971822" lon="13.4109745"><ele>529.0</ele><time>2026-04-18T10:08:14.049Z</time></trkpt><trkpt lat="42.9717769" lon="13.410881"><ele>529.0</ele><time>2026-04-18T10:08:17.058Z</time></trkpt><trkpt lat="42.971738" lon="13.4108057"><ele>529.0</ele><time>2026-04-18T10:08:20.049Z</time></trkpt><trkpt lat="42.9716987" lon="13.4107161"><ele>529.0</ele><time>2026-04-18T10:08:24.047Z</time></trkpt><trkpt lat="42.9716679" lon="13.4106381"><ele>529.8333333333334</ele><time>2026-04-18T10:08:27.039Z</time></trkpt><trkpt lat="42.9716203" lon="13.4105544"><ele>530.6666666666667</ele><time>2026-04-18T10:08:30.008Z</time></trkpt><trkpt lat="42.9715807" lon="13.4104728"><ele>531.5</ele><time>2026-04-18T10:08:34.06Z</time></trkpt><trkpt lat="42.9715647" lon="13.4103536"><ele>532.3333333333334</ele><time>2026-04-18T10:08:36.991Z</time></trkpt><trkpt lat="42.9715837" lon="13.4102661"><ele>533.1666666666666</ele><time>2026-04-18T10:08:39.006Z</time></trkpt><trkpt lat="42.971613" lon="13.4101584"><ele>534.0</ele><time>2026-04-18T10:08:42.017Z</time></trkpt><trkpt lat="42.9716469" lon="13.4100715"><ele>531.6</ele><time>2026-04-18T10:08:45.027Z</time></trkpt><trkpt lat="42.9716776" lon="13.409982"><ele>529.2</ele><time>2026-04-18T10:08:47.994Z</time></trkpt><trkpt lat="42.9717151" lon="13.4098703"><ele>526.8000000000001</ele><time>2026-04-18T10:08:51.037Z</time></trkpt><trkpt lat="42.9717725" lon="13.4097685"><ele>524.4</ele><time>2026-04-18T10:08:52.989Z</time></trkpt><trkpt lat="42.9718339" lon="13.4096851"><ele>522.0</ele><time>2026-04-18T10:08:54.074Z</time></trkpt><trkpt lat="42.9719082" lon="13.4095764"><ele>521.8000000000001</ele><time>2026-04-18T10:08:55.03Z</time></trkpt><trkpt lat="42.9719692" lon="13.4094727"><ele>521.6</ele><time>2026-04-18T10:08:56.061Z</time></trkpt><trkpt lat="42.972019" lon="13.4093708"><ele>521.4000000000001</ele><time>2026-04-18T10:08:57.064Z</time></trkpt><trkpt lat="42.9720647" lon="13.409277"><ele>521.2</ele><time>2026-04-18T10:08:58.067Z</time></trkpt><trkpt lat="42.9721026" lon="13.4091588"><ele>521.0</ele><time>2026-04-18T10:08:59.046Z</time></trkpt><trkpt lat="42.9721417" lon="13.4090451"><ele>521.0</ele><time>2026-04-18T10:09:00.052Z</time></trkpt><trkpt lat="42.9722007" lon="13.4089041"><ele>521.0</ele><time>2026-04-18T10:09:01.045Z</time></trkpt><trkpt lat="42.9722588" lon="13.4087624"><ele>521.0</ele><time>2026-04-18T10:09:02.073Z</time></trkpt><trkpt lat="42.9723123" lon="13.4086197"><ele>521.0</ele><time>2026-04-18T10:09:03.069Z</time></trkpt><trkpt lat="42.9723607" lon="13.4084903"><ele>521.3333333333333</ele><time>2026-04-18T10:09:04.077Z</time></trkpt><trkpt lat="42.9724015" lon="13.4083798"><ele>521.6666666666666</ele><time>2026-04-18T10:09:05.057Z</time></trkpt><trkpt lat="42.9724395" lon="13.4082784"><ele>522.0</ele><time>2026-04-18T10:09:06.02Z</time></trkpt><trkpt lat="42.9724821" lon="13.408188"><ele>522.3333333333334</ele><time>2026-04-18T10:09:07.051Z</time></trkpt><trkpt lat="42.9725299" lon="13.4081027"><ele>522.6666666666667</ele><time>2026-04-18T10:09:08.08Z</time></trkpt><trkpt lat="42.972586" lon="13.4080332"><ele>523.0</ele><time>2026-04-18T10:09:09.049Z</time></trkpt><trkpt lat="42.972657" lon="13.4079825"><ele>523.8</ele><time>2026-04-18T10:09:10.059Z</time></trkpt><trkpt lat="42.9727392" lon="13.4079467"><ele>524.5999999999999</ele><time>2026-04-18T10:09:11.067Z</time></trkpt><trkpt lat="42.9728266" lon="13.4079202"><ele>525.4000000000001</ele><time>2026-04-18T10:09:12.059Z</time></trkpt><trkpt lat="42.9729101" lon="13.4079023"><ele>526.2</ele><time>2026-04-18T10:09:13.045Z</time></trkpt><trkpt lat="42.972999" lon="13.4078787"><ele>527.0</ele><time>2026-04-18T10:09:14.073Z</time></trkpt><trkpt lat="42.9731044" lon="13.4078636"><ele>527.0</ele><time>2026-04-18T10:09:15.059Z</time></trkpt><trkpt lat="42.9732121" lon="13.4078664"><ele>527.0</ele><time>2026-04-18T10:09:16.077Z</time></trkpt><trkpt lat="42.9733124" lon="13.4078561"><ele>527.0</ele><time>2026-04-18T10:09:17.033Z</time></trkpt><trkpt lat="42.973407" lon="13.4078393"><ele>527.0</ele><time>2026-04-18T10:09:18.057Z</time></trkpt><trkpt lat="42.9735071" lon="13.4078174"><ele>527.0</ele><time>2026-04-18T10:09:19.04Z</time></trkpt><trkpt lat="42.9735926" lon="13.4077625"><ele>527.0</ele><time>2026-04-18T10:09:20.052Z</time></trkpt><trkpt lat="42.9736529" lon="13.407688"><ele>527.0</ele><time>2026-04-18T10:09:21.062Z</time></trkpt><trkpt lat="42.9737059" lon="13.4075979"><ele>527.0</ele><time>2026-04-18T10:09:22.046Z</time></trkpt><trkpt lat="42.9737418" lon="13.4074856"><ele>527.0</ele><time>2026-04-18T10:09:23.054Z</time></trkpt><trkpt lat="42.9737789" lon="13.4073552"><ele>527.0</ele><time>2026-04-18T10:09:24.074Z</time></trkpt><trkpt lat="42.9738196" lon="13.4072223"><ele>529.5</ele><time>2026-04-18T10:09:25.028Z</time></trkpt><trkpt lat="42.9738551" lon="13.4070995"><ele>532.0</ele><time>2026-04-18T10:09:26.088Z</time></trkpt><trkpt lat="42.9738872" lon="13.4069907"><ele>534.5</ele><time>2026-04-18T10:09:27.095Z</time></trkpt><trkpt lat="42.9739173" lon="13.4069061"><ele>537.0</ele><time>2026-04-18T10:09:28.029Z</time></trkpt><trkpt lat="42.9739757" lon="13.4068151"><ele>539.5</ele><time>2026-04-18T10:09:30.059Z</time></trkpt><trkpt lat="42.9740658" lon="13.4067561"><ele>542.0</ele><time>2026-04-18T10:09:32.017Z</time></trkpt><trkpt lat="42.9741359" lon="13.4067579"><ele>542.0</ele><time>2026-04-18T10:09:33.057Z</time></trkpt><trkpt lat="42.9742389" lon="13.4067282"><ele>542.0</ele><time>2026-04-18T10:09:35.082Z</time></trkpt><trkpt lat="42.9742767" lon="13.4066079"><ele>542.0</ele><time>2026-04-18T10:09:37.064Z</time></trkpt><trkpt lat="42.9742042" lon="13.4065073"><ele>542.0</ele><time>2026-04-18T10:09:39.059Z</time></trkpt><trkpt lat="42.9741245" lon="13.4064933"><ele>542.0</ele><time>2026-04-18T10:09:40.046Z</time></trkpt><trkpt lat="42.9740206" lon="13.4064192"><ele>542.0</ele><time>2026-04-18T10:09:41.071Z</time></trkpt><trkpt lat="42.9739076" lon="13.4063384"><ele>542.0</ele><time>2026-04-18T10:09:42.029Z</time></trkpt><trkpt lat="42.973792" lon="13.4062873"><ele>542.0</ele><time>2026-04-18T10:09:43.063Z</time></trkpt><trkpt lat="42.9736793" lon="13.4062287"><ele>542.0</ele><time>2026-04-18T10:09:44.048Z</time></trkpt><trkpt lat="42.9735838" lon="13.4062032"><ele>545.8000000000001</ele><time>2026-04-18T10:09:45.053Z</time></trkpt><trkpt lat="42.973507" lon="13.4061519"><ele>549.6</ele><time>2026-04-18T10:09:46.078Z</time></trkpt><trkpt lat="42.9734524" lon="13.4060846"><ele>553.4000000000001</ele><time>2026-04-18T10:09:47.055Z</time></trkpt><trkpt lat="42.9734155" lon="13.4059862"><ele>557.2</ele><time>2026-04-18T10:09:49.068Z</time></trkpt><trkpt lat="42.9734951" lon="13.4059091"><ele>561.0</ele><time>2026-04-18T10:09:52.007Z</time></trkpt><trkpt lat="42.9737854" lon="13.4058972"><ele>561.0</ele><time>2026-04-18T10:09:56.031Z</time></trkpt><trkpt lat="42.9739366" lon="13.4059537"><ele>561.0</ele><time>2026-04-18T10:09:57.022Z</time></trkpt><trkpt lat="42.9742253" lon="13.4059918"><ele>561.0</ele><time>2026-04-18T10:09:59.051Z</time></trkpt><trkpt lat="42.9744544" lon="13.4058951"><ele>560.1666666666666</ele><time>2026-04-18T10:10:01.072Z</time></trkpt><trkpt lat="42.9745239" lon="13.4057957"><ele>559.3333333333334</ele><time>2026-04-18T10:10:02.07Z</time></trkpt><trkpt lat="42.9745752" lon="13.4057039"><ele>558.5</ele><time>2026-04-18T10:10:03.077Z</time></trkpt><trkpt lat="42.9746064" lon="13.405605"><ele>557.6666666666667</ele><time>2026-04-18T10:10:04.039Z</time></trkpt><trkpt lat="42.9746387" lon="13.4055047"><ele>556.8333333333334</ele><time>2026-04-18T10:10:05.067Z</time></trkpt><trkpt lat="42.9746673" lon="13.405415"><ele>556.0</ele><time>2026-04-18T10:10:06.086Z</time></trkpt><trkpt lat="42.9746933" lon="13.4053353"><ele>556.0</ele><time>2026-04-18T10:10:07.068Z</time></trkpt><trkpt lat="42.9747112" lon="13.4052454"><ele>556.0</ele><time>2026-04-18T10:10:08.058Z</time></trkpt><trkpt lat="42.9747414" lon="13.4050759"><ele>556.0</ele><time>2026-04-18T10:10:10.056Z</time></trkpt><trkpt lat="42.9747639" lon="13.4049847"><ele>556.0</ele><time>2026-04-18T10:10:11.052Z</time></trkpt><trkpt lat="42.9747857" lon="13.404889"><ele>556.0</ele><time>2026-04-18T10:10:12.059Z</time></trkpt><trkpt lat="42.9748084" lon="13.4047968"><ele>556.0</ele><time>2026-04-18T10:10:13.022Z</time></trkpt><trkpt lat="42.974826" lon="13.4047139"><ele>557.6666666666667</ele><time>2026-04-18T10:10:14.029Z</time></trkpt><trkpt lat="42.9748426" lon="13.4046141"><ele>559.3333333333334</ele><time>2026-04-18T10:10:15.058Z</time></trkpt><trkpt lat="42.974845" lon="13.4044381"><ele>561.0</ele><time>2026-04-18T10:10:17.053Z</time></trkpt><trkpt lat="42.9748105" lon="13.4043624"><ele>562.6666666666666</ele><time>2026-04-18T10:10:18.076Z</time></trkpt><trkpt lat="42.9747527" lon="13.4043081"><ele>564.3333333333333</ele><time>2026-04-18T10:10:19.077Z</time></trkpt><trkpt lat="42.9746666" lon="13.4042145"><ele>566.0</ele><time>2026-04-18T10:10:21.082Z</time></trkpt><trkpt lat="42.9746402" lon="13.4040813"><ele>566.0</ele><time>2026-04-18T10:10:23.028Z</time></trkpt><trkpt lat="42.9746626" lon="13.4039958"><ele>566.0</ele><time>2026-04-18T10:10:24.042Z</time></trkpt><trkpt lat="42.9747194" lon="13.4038498"><ele>566.0</ele><time>2026-04-18T10:10:26.044Z</time></trkpt><trkpt lat="42.9747677" lon="13.4037277"><ele>566.0</ele><time>2026-04-18T10:10:28.053Z</time></trkpt><trkpt lat="42.9748181" lon="13.4035682"><ele>566.0</ele><time>2026-04-18T10:10:30.066Z</time></trkpt><trkpt lat="42.9748441" lon="13.4034788"><ele>565.4</ele><time>2026-04-18T10:10:31.064Z</time></trkpt><trkpt lat="42.9748764" lon="13.4033646"><ele>564.8</ele><time>2026-04-18T10:10:32.119Z</time></trkpt><trkpt lat="42.9749096" lon="13.4032377"><ele>564.1999999999999</ele><time>2026-04-18T10:10:33.036Z</time></trkpt><trkpt lat="42.9749374" lon="13.4031123"><ele>563.6</ele><time>2026-04-18T10:10:34.041Z</time></trkpt><trkpt lat="42.9749664" lon="13.4029796"><ele>563.0</ele><time>2026-04-18T10:10:35.091Z</time></trkpt><trkpt lat="42.97499" lon="13.4028522"><ele>561.8333333333333</ele><time>2026-04-18T10:10:36.065Z</time></trkpt><trkpt lat="42.9750088" lon="13.4027306"><ele>560.6666666666666</ele><time>2026-04-18T10:10:37.08Z</time></trkpt><trkpt lat="42.975028" lon="13.4026141"><ele>559.5</ele><time>2026-04-18T10:10:38.027Z</time></trkpt><trkpt lat="42.9750508" lon="13.4024923"><ele>558.3333333333334</ele><time>2026-04-18T10:10:39.047Z</time></trkpt><trkpt lat="42.9750741" lon="13.4023824"><ele>557.1666666666667</ele><time>2026-04-18T10:10:40.104Z</time></trkpt><trkpt lat="42.9750943" lon="13.4022839"><ele>556.0</ele><time>2026-04-18T10:10:41.068Z</time></trkpt><trkpt lat="42.9751152" lon="13.4021805"><ele>558.0</ele><time>2026-04-18T10:10:42.05Z</time></trkpt><trkpt lat="42.9751437" lon="13.4020811"><ele>560.0</ele><time>2026-04-18T10:10:43.085Z</time></trkpt><trkpt lat="42.9752083" lon="13.401982"><ele>562.0</ele><time>2026-04-18T10:10:44.034Z</time></trkpt><trkpt lat="42.9752812" lon="13.4018939"><ele>564.0</ele><time>2026-04-18T10:10:45.049Z</time></trkpt><trkpt lat="42.9753541" lon="13.4018178"><ele>566.0</ele><time>2026-04-18T10:10:46.073Z</time></trkpt><trkpt lat="42.9754252" lon="13.4017457"><ele>566.0</ele><time>2026-04-18T10:10:47.043Z</time></trkpt><trkpt lat="42.975503" lon="13.4016995"><ele>566.0</ele><time>2026-04-18T10:10:48.056Z</time></trkpt><trkpt lat="42.9755925" lon="13.4016587"><ele>566.0</ele><time>2026-04-18T10:10:49.032Z</time></trkpt><trkpt lat="42.9757009" lon="13.4016467"><ele>566.0</ele><time>2026-04-18T10:10:50.055Z</time></trkpt><trkpt lat="42.9758073" lon="13.401632"><ele>566.0</ele><time>2026-04-18T10:10:51.066Z</time></trkpt><trkpt lat="42.9759115" lon="13.4015752"><ele>568.6</ele><time>2026-04-18T10:10:52.056Z</time></trkpt><trkpt lat="42.9760116" lon="13.4014613"><ele>571.2</ele><time>2026-04-18T10:10:53.051Z</time></trkpt><trkpt lat="42.9760883" lon="13.4013464"><ele>573.8</ele><time>2026-04-18T10:10:54.061Z</time></trkpt><trkpt lat="42.9761575" lon="13.4012467"><ele>576.4</ele><time>2026-04-18T10:10:55.081Z</time></trkpt><trkpt lat="42.976225" lon="13.4011452"><ele>579.0</ele><time>2026-04-18T10:10:56.07Z</time></trkpt><trkpt lat="42.9762811" lon="13.4010453"><ele>579.1666666666666</ele><time>2026-04-18T10:10:57.045Z</time></trkpt><trkpt lat="42.9763258" lon="13.4009485"><ele>579.3333333333334</ele><time>2026-04-18T10:10:58.054Z</time></trkpt><trkpt lat="42.9763329" lon="13.4008598"><ele>579.5</ele><time>2026-04-18T10:10:59.036Z</time></trkpt><trkpt lat="42.9763353" lon="13.400769"><ele>579.6666666666667</ele><time>2026-04-18T10:11:00.06Z</time></trkpt><trkpt lat="42.9762941" lon="13.4006383"><ele>579.8333333333334</ele><time>2026-04-18T10:11:02.067Z</time></trkpt><trkpt lat="42.976231" lon="13.4006184"><ele>580.0</ele><time>2026-04-18T10:11:03.048Z</time></trkpt><trkpt lat="42.9761562" lon="13.4006453"><ele>580.0</ele><time>2026-04-18T10:11:04.031Z</time></trkpt><trkpt lat="42.9760875" lon="13.4007043"><ele>580.0</ele><time>2026-04-18T10:11:05.088Z</time></trkpt><trkpt lat="42.9760017" lon="13.4007378"><ele>580.0</ele><time>2026-04-18T10:11:06.068Z</time></trkpt><trkpt lat="42.9759085" lon="13.400729"><ele>580.0</ele><time>2026-04-18T10:11:07.075Z</time></trkpt><trkpt lat="42.9758153" lon="13.4006666"><ele>580.0</ele><time>2026-04-18T10:11:08.049Z</time></trkpt><trkpt lat="42.9757206" lon="13.4005541"><ele>583.3333333333334</ele><time>2026-04-18T10:11:09.034Z</time></trkpt><trkpt lat="42.9756145" lon="13.4004037"><ele>586.6666666666666</ele><time>2026-04-18T10:11:10.064Z</time></trkpt><trkpt lat="42.9755025" lon="13.4002427"><ele>590.0</ele><time>2026-04-18T10:11:11.11Z</time></trkpt><trkpt lat="42.9754067" lon="13.4001004"><ele>590.0</ele><time>2026-04-18T10:11:12.06Z</time></trkpt><trkpt lat="42.9753374" lon="13.3999896"><ele>590.0</ele><time>2026-04-18T10:11:13.055Z</time></trkpt><trkpt lat="42.9752787" lon="13.3998815"><ele>590.0</ele><time>2026-04-18T10:11:14.031Z</time></trkpt><trkpt lat="42.9752289" lon="13.3997759"><ele>590.0</ele><time>2026-04-18T10:11:15.059Z</time></trkpt><trkpt lat="42.9751864" lon="13.3996689"><ele>590.0</ele><time>2026-04-18T10:11:16.077Z</time></trkpt><trkpt lat="42.9751547" lon="13.3995569"><ele>594.0</ele><time>2026-04-18T10:11:17.111Z</time></trkpt><trkpt lat="42.9751382" lon="13.3994353"><ele>598.0</ele><time>2026-04-18T10:11:18.089Z</time></trkpt><trkpt lat="42.9751312" lon="13.3992914"><ele>602.0</ele><time>2026-04-18T10:11:19.035Z</time></trkpt><trkpt lat="42.9751284" lon="13.3991231"><ele>606.0</ele><time>2026-04-18T10:11:20.085Z</time></trkpt><trkpt lat="42.975119" lon="13.3989334"><ele>610.6666666666666</ele><time>2026-04-18T10:11:21.101Z</time></trkpt><trkpt lat="42.9751092" lon="13.3987304"><ele>615.3333333333333</ele><time>2026-04-18T10:11:22.059Z</time></trkpt><trkpt lat="42.9750976" lon="13.3985086"><ele>620.0</ele><time>2026-04-18T10:11:23.027Z</time></trkpt><trkpt lat="42.9750851" lon="13.3982751"><ele>620.0</ele><time>2026-04-18T10:11:24.043Z</time></trkpt><trkpt lat="42.9750734" lon="13.3980282"><ele>620.0</ele><time>2026-04-18T10:11:25.081Z</time></trkpt><trkpt lat="42.9750551" lon="13.3977922"><ele>620.0</ele><time>2026-04-18T10:11:26.084Z</time></trkpt><trkpt lat="42.9750401" lon="13.3975966"><ele>620.25</ele><time>2026-04-18T10:11:27.079Z</time></trkpt><trkpt lat="42.9750343" lon="13.3974193"><ele>620.5</ele><time>2026-04-18T10:11:28.072Z</time></trkpt><trkpt lat="42.9750431" lon="13.3972526"><ele>620.75</ele><time>2026-04-18T10:11:29.038Z</time></trkpt><trkpt lat="42.97508" lon="13.3971143"><ele>621.0</ele><time>2026-04-18T10:11:30.072Z</time></trkpt><trkpt lat="42.9751374" lon="13.396995"><ele>621.0</ele><time>2026-04-18T10:11:31.091Z</time></trkpt><trkpt lat="42.9751948" lon="13.3968711"><ele>621.0</ele><time>2026-04-18T10:11:32.068Z</time></trkpt><trkpt lat="42.9752536" lon="13.3967505"><ele>621.0</ele><time>2026-04-18T10:11:33.049Z</time></trkpt><trkpt lat="42.9753331" lon="13.3966233"><ele>621.0</ele><time>2026-04-18T10:11:34.078Z</time></trkpt><trkpt lat="42.9754257" lon="13.3965148"><ele>621.0</ele><time>2026-04-18T10:11:35.061Z</time></trkpt><trkpt lat="42.9755149" lon="13.3964111"><ele>621.0</ele><time>2026-04-18T10:11:36.05Z</time></trkpt><trkpt lat="42.9755976" lon="13.39629"><ele>621.0</ele><time>2026-04-18T10:11:37.047Z</time></trkpt><trkpt lat="42.9756446" lon="13.3961179"><ele>621.0</ele><time>2026-04-18T10:11:38.025Z</time></trkpt><trkpt lat="42.9756916" lon="13.3959497"><ele>622.4</ele><time>2026-04-18T10:11:39.034Z</time></trkpt><trkpt lat="42.9757316" lon="13.3958269"><ele>623.8</ele><time>2026-04-18T10:11:40.051Z</time></trkpt><trkpt lat="42.9757698" lon="13.3957215"><ele>625.1999999999999</ele><time>2026-04-18T10:11:41.062Z</time></trkpt><trkpt lat="42.9758086" lon="13.3956"><ele>626.6</ele><time>2026-04-18T10:11:43.076Z</time></trkpt><trkpt lat="42.9758428" lon="13.3953953"><ele>628.0</ele><time>2026-04-18T10:11:47.024Z</time></trkpt><trkpt lat="42.9758863" lon="13.3952753"><ele>628.0</ele><time>2026-04-18T10:11:48.059Z</time></trkpt><trkpt lat="42.9759372" lon="13.3951551"><ele>628.0</ele><time>2026-04-18T10:11:49.047Z</time></trkpt><trkpt lat="42.9759939" lon="13.395047"><ele>628.0</ele><time>2026-04-18T10:11:50.085Z</time></trkpt><trkpt lat="42.9760549" lon="13.3949683"><ele>628.0</ele><time>2026-04-18T10:11:51.051Z</time></trkpt><trkpt lat="42.976117" lon="13.3949077"><ele>628.0</ele><time>2026-04-18T10:11:52.056Z</time></trkpt><trkpt lat="42.9762088" lon="13.3948168"><ele>628.0</ele><time>2026-04-18T10:11:55.992Z</time></trkpt><trkpt lat="42.9763021" lon="13.3947328"><ele>628.0</ele><time>2026-04-18T10:12:00.03Z</time></trkpt><trkpt lat="42.9764133" lon="13.3946661"><ele>628.0</ele><time>2026-04-18T10:12:01.999Z</time></trkpt><trkpt lat="42.9764991" lon="13.3945802"><ele>628.0</ele><time>2026-04-18T10:12:04.045Z</time></trkpt><trkpt lat="42.9765411" lon="13.3945004"><ele>628.0</ele><time>2026-04-18T10:12:06.034Z</time></trkpt><trkpt lat="42.976585" lon="13.3944358"><ele>625.6</ele><time>2026-04-18T10:12:06.993Z</time></trkpt><trkpt lat="42.9766344" lon="13.3943177"><ele>623.1999999999999</ele><time>2026-04-18T10:12:09.084Z</time></trkpt><trkpt lat="42.9765611" lon="13.3941756"><ele>620.8</ele><time>2026-04-18T10:12:11.062Z</time></trkpt><trkpt lat="42.9764784" lon="13.3941098"><ele>618.4</ele><time>2026-04-18T10:12:12.043Z</time></trkpt><trkpt lat="42.9764082" lon="13.3940796"><ele>616.0</ele><time>2026-04-18T10:12:13.031Z</time></trkpt><trkpt lat="42.9763467" lon="13.3940447"><ele>616.0</ele><time>2026-04-18T10:12:14.02Z</time></trkpt><trkpt lat="42.9762574" lon="13.3940105"><ele>616.0</ele><time>2026-04-18T10:12:16.053Z</time></trkpt><trkpt lat="42.9761722" lon="13.3939469"><ele>616.0</ele><time>2026-04-18T10:12:20.025Z</time></trkpt><trkpt lat="42.9760846" lon="13.3938608"><ele>616.0</ele><time>2026-04-18T10:15:14.028Z</time></trkpt><trkpt lat="42.9760166" lon="13.3937956"><ele>616.0</ele><time>2026-04-18T10:15:16.027Z</time></trkpt><trkpt lat="42.9759121" lon="13.3937272"><ele>618.0</ele><time>2026-04-18T10:15:18.058Z</time></trkpt><trkpt lat="42.9758527" lon="13.3936945"><ele>620.0</ele><time>2026-04-18T10:15:19.047Z</time></trkpt><trkpt lat="42.9757453" lon="13.3936489"><ele>622.0</ele><time>2026-04-18T10:15:21.062Z</time></trkpt><trkpt lat="42.9756393" lon="13.3936173"><ele>624.0</ele><time>2026-04-18T10:15:23.053Z</time></trkpt><trkpt lat="42.9755232" lon="13.3935864"><ele>626.0</ele><time>2026-04-18T10:15:25.039Z</time></trkpt><trkpt lat="42.9754088" lon="13.3935329"><ele>626.0</ele><time>2026-04-18T10:15:27.049Z</time></trkpt><trkpt lat="42.9753488" lon="13.393493"><ele>626.0</ele><time>2026-04-18T10:15:28.059Z</time></trkpt><trkpt lat="42.975287" lon="13.3934324"><ele>626.0</ele><time>2026-04-18T10:15:29.058Z</time></trkpt><trkpt lat="42.9752307" lon="13.3933506"><ele>626.0</ele><time>2026-04-18T10:15:30.03Z</time></trkpt><trkpt lat="42.9751797" lon="13.3932751"><ele>626.0</ele><time>2026-04-18T10:15:31.08Z</time></trkpt><trkpt lat="42.9751242" lon="13.3932225"><ele>626.0</ele><time>2026-04-18T10:15:32.078Z</time></trkpt><trkpt lat="42.9750119" lon="13.3932281"><ele>623.6666666666666</ele><time>2026-04-18T10:15:34.078Z</time></trkpt><trkpt lat="42.9749636" lon="13.3932833"><ele>621.3333333333333</ele><time>2026-04-18T10:15:35.023Z</time></trkpt><trkpt lat="42.9749134" lon="13.3933556"><ele>619.0</ele><time>2026-04-18T10:15:36.063Z</time></trkpt><trkpt lat="42.9748497" lon="13.3934346"><ele>616.6666666666666</ele><time>2026-04-18T10:15:37.056Z</time></trkpt><trkpt lat="42.9747687" lon="13.3935033"><ele>614.3333333333334</ele><time>2026-04-18T10:15:38.055Z</time></trkpt><trkpt lat="42.9746676" lon="13.393558"><ele>612.0</ele><time>2026-04-18T10:15:39.058Z</time></trkpt><trkpt lat="42.9745517" lon="13.3935901"><ele>612.0</ele><time>2026-04-18T10:15:40.032Z</time></trkpt><trkpt lat="42.9744276" lon="13.3936225"><ele>612.0</ele><time>2026-04-18T10:15:41.055Z</time></trkpt><trkpt lat="42.9742872" lon="13.3936034"><ele>612.0</ele><time>2026-04-18T10:15:42.074Z</time></trkpt><trkpt lat="42.9741416" lon="13.3935733"><ele>612.0</ele><time>2026-04-18T10:15:43.049Z</time></trkpt><trkpt lat="42.9740015" lon="13.3935486"><ele>610.5</ele><time>2026-04-18T10:15:44.055Z</time></trkpt><trkpt lat="42.9738672" lon="13.3935246"><ele>609.0</ele><time>2026-04-18T10:15:45.033Z</time></trkpt><trkpt lat="42.9737336" lon="13.3935014"><ele>607.5</ele><time>2026-04-18T10:15:46.059Z</time></trkpt><trkpt lat="42.9736003" lon="13.3934775"><ele>606.0</ele><time>2026-04-18T10:15:47.065Z</time></trkpt><trkpt lat="42.9734696" lon="13.3934534"><ele>603.75</ele><time>2026-04-18T10:15:48.024Z</time></trkpt><trkpt lat="42.9733406" lon="13.3934335"><ele>601.5</ele><time>2026-04-18T10:15:49.028Z</time></trkpt><trkpt lat="42.9732135" lon="13.3934035"><ele>599.25</ele><time>2026-04-18T10:15:50.026Z</time></trkpt><trkpt lat="42.9730802" lon="13.3933712"><ele>597.0</ele><time>2026-04-18T10:15:51.046Z</time></trkpt><trkpt lat="42.9729305" lon="13.3933326"><ele>597.0</ele><time>2026-04-18T10:15:52.066Z</time></trkpt><trkpt lat="42.9727923" lon="13.3932575"><ele>597.0</ele><time>2026-04-18T10:15:53.073Z</time></trkpt><trkpt lat="42.9726681" lon="13.3931928"><ele>597.0</ele><time>2026-04-18T10:15:54.084Z</time></trkpt><trkpt lat="42.972578" lon="13.3931226"><ele>597.0</ele><time>2026-04-18T10:15:55.038Z</time></trkpt><trkpt lat="42.9725119" lon="13.3929945"><ele>598.0</ele><time>2026-04-18T10:15:56.086Z</time></trkpt><trkpt lat="42.9724666" lon="13.3928652"><ele>599.0</ele><time>2026-04-18T10:15:57.084Z</time></trkpt><trkpt lat="42.9724293" lon="13.3927118"><ele>600.0</ele><time>2026-04-18T10:15:58.068Z</time></trkpt><trkpt lat="42.9723914" lon="13.392547"><ele>601.0</ele><time>2026-04-18T10:15:59.058Z</time></trkpt><trkpt lat="42.9723494" lon="13.3923958"><ele>601.0</ele><time>2026-04-18T10:16:00.041Z</time></trkpt><trkpt lat="42.9723077" lon="13.3922642"><ele>601.0</ele><time>2026-04-18T10:16:01.057Z</time></trkpt><trkpt lat="42.9722687" lon="13.3921518"><ele>601.0</ele><time>2026-04-18T10:16:02.053Z</time></trkpt><trkpt lat="42.9722444" lon="13.3920487"><ele>601.0</ele><time>2026-04-18T10:16:03.056Z</time></trkpt><trkpt lat="42.9722323" lon="13.3919419"><ele>601.0</ele><time>2026-04-18T10:16:04.07Z</time></trkpt><trkpt lat="42.9722358" lon="13.3918383"><ele>601.0</ele><time>2026-04-18T10:16:05.037Z</time></trkpt><trkpt lat="42.9722491" lon="13.3917436"><ele>600.8</ele><time>2026-04-18T10:16:06.058Z</time></trkpt><trkpt lat="42.9722613" lon="13.3916555"><ele>600.6</ele><time>2026-04-18T10:16:07.038Z</time></trkpt><trkpt lat="42.9722809" lon="13.3915075"><ele>600.4</ele><time>2026-04-18T10:16:09.031Z</time></trkpt><trkpt lat="42.9722829" lon="13.39137"><ele>600.2</ele><time>2026-04-18T10:16:11.052Z</time></trkpt><trkpt lat="42.9722257" lon="13.3912495"><ele>600.0</ele><time>2026-04-18T10:16:13.038Z</time></trkpt><trkpt lat="42.9721645" lon="13.3911982"><ele>601.2</ele><time>2026-04-18T10:16:14.046Z</time></trkpt><trkpt lat="42.9720992" lon="13.3911474"><ele>602.4</ele><time>2026-04-18T10:16:15.061Z</time></trkpt><trkpt lat="42.9720089" lon="13.3911303"><ele>603.6</ele><time>2026-04-18T10:16:16.067Z</time></trkpt><trkpt lat="42.9719152" lon="13.3911322"><ele>604.8</ele><time>2026-04-18T10:16:17.039Z</time></trkpt><trkpt lat="42.9718189" lon="13.3911672"><ele>606.0</ele><time>2026-04-18T10:16:18.046Z</time></trkpt><trkpt lat="42.9717142" lon="13.3912078"><ele>606.0</ele><time>2026-04-18T10:16:19.051Z</time></trkpt><trkpt lat="42.9716076" lon="13.3913009"><ele>606.0</ele><time>2026-04-18T10:16:20.06Z</time></trkpt><trkpt lat="42.9715066" lon="13.3914191"><ele>606.0</ele><time>2026-04-18T10:16:21.048Z</time></trkpt><trkpt lat="42.9714047" lon="13.3915564"><ele>606.0</ele><time>2026-04-18T10:16:22.042Z</time></trkpt><trkpt lat="42.9713064" lon="13.3916838"><ele>602.4</ele><time>2026-04-18T10:16:23.051Z</time></trkpt><trkpt lat="42.9712152" lon="13.3917988"><ele>598.8</ele><time>2026-04-18T10:16:24.051Z</time></trkpt><trkpt lat="42.9711296" lon="13.3918994"><ele>595.1999999999999</ele><time>2026-04-18T10:16:25.056Z</time></trkpt><trkpt lat="42.9710393" lon="13.3919776"><ele>591.6</ele><time>2026-04-18T10:16:26.047Z</time></trkpt><trkpt lat="42.9709409" lon="13.3920277"><ele>588.0</ele><time>2026-04-18T10:16:27.069Z</time></trkpt><trkpt lat="42.9708379" lon="13.3920481"><ele>587.4</ele><time>2026-04-18T10:16:28.056Z</time></trkpt><trkpt lat="42.9707331" lon="13.3920337"><ele>586.8</ele><time>2026-04-18T10:16:29.058Z</time></trkpt><trkpt lat="42.9706263" lon="13.3920184"><ele>586.2</ele><time>2026-04-18T10:16:30.056Z</time></trkpt><trkpt lat="42.9705262" lon="13.3919696"><ele>585.6</ele><time>2026-04-18T10:16:31.065Z</time></trkpt><trkpt lat="42.9704164" lon="13.3919145"><ele>585.0</ele><time>2026-04-18T10:16:32.057Z</time></trkpt><trkpt lat="42.9703095" lon="13.3918582"><ele>585.0</ele><time>2026-04-18T10:16:33.051Z</time></trkpt><trkpt lat="42.9701922" lon="13.391792"><ele>585.0</ele><time>2026-04-18T10:16:34.044Z</time></trkpt><trkpt lat="42.9700821" lon="13.3917197"><ele>585.0</ele><time>2026-04-18T10:16:35.068Z</time></trkpt><trkpt lat="42.969969" lon="13.3916376"><ele>585.0</ele><time>2026-04-18T10:16:36.039Z</time></trkpt><trkpt lat="42.9698684" lon="13.3915614"><ele>585.0</ele><time>2026-04-18T10:16:37.053Z</time></trkpt><trkpt lat="42.9697698" lon="13.3914886"><ele>585.0</ele><time>2026-04-18T10:16:38.076Z</time></trkpt><trkpt lat="42.969672" lon="13.3914073"><ele>585.0</ele><time>2026-04-18T10:16:39.134Z</time></trkpt><trkpt lat="42.9695994" lon="13.3912997"><ele>585.0</ele><time>2026-04-18T10:16:40.068Z</time></trkpt><trkpt lat="42.9695468" lon="13.3911819"><ele>585.0</ele><time>2026-04-18T10:16:41.064Z</time></trkpt><trkpt lat="42.9695193" lon="13.3910684"><ele>585.0</ele><time>2026-04-18T10:16:42.057Z</time></trkpt><trkpt lat="42.9695103" lon="13.3909568"><ele>585.0</ele><time>2026-04-18T10:16:43.057Z</time></trkpt><trkpt lat="42.9695179" lon="13.3908564"><ele>585.0</ele><time>2026-04-18T10:16:44.069Z</time></trkpt><trkpt lat="42.9695429" lon="13.3907564"><ele>585.0</ele><time>2026-04-18T10:16:45.071Z</time></trkpt><trkpt lat="42.96958" lon="13.3906561"><ele>585.0</ele><time>2026-04-18T10:16:46.065Z</time></trkpt><trkpt lat="42.9696276" lon="13.3905505"><ele>585.0</ele><time>2026-04-18T10:16:47.051Z</time></trkpt><trkpt lat="42.9696711" lon="13.3904415"><ele>585.6666666666666</ele><time>2026-04-18T10:16:48.064Z</time></trkpt><trkpt lat="42.9697136" lon="13.3903432"><ele>586.3333333333334</ele><time>2026-04-18T10:16:49.052Z</time></trkpt><trkpt lat="42.9697528" lon="13.3902496"><ele>587.0</ele><time>2026-04-18T10:16:50.108Z</time></trkpt><trkpt lat="42.969782" lon="13.3901717"><ele>587.6666666666667</ele><time>2026-04-18T10:16:51.05Z</time></trkpt><trkpt lat="42.9698096" lon="13.3900931"><ele>588.3333333333334</ele><time>2026-04-18T10:16:52.072Z</time></trkpt><trkpt lat="42.9698423" lon="13.3899483"><ele>589.0</ele><time>2026-04-18T10:16:54.048Z</time></trkpt><trkpt lat="42.9698174" lon="13.3898073"><ele>589.0</ele><time>2026-04-18T10:16:56.07Z</time></trkpt><trkpt lat="42.9697477" lon="13.389705"><ele>589.0</ele><time>2026-04-18T10:16:58.044Z</time></trkpt><trkpt lat="42.9696822" lon="13.3897256"><ele>589.0</ele><time>2026-04-18T10:16:59.078Z</time></trkpt><trkpt lat="42.9696083" lon="13.3897754"><ele>589.0</ele><time>2026-04-18T10:17:00.057Z</time></trkpt><trkpt lat="42.9695273" lon="13.3898338"><ele>589.0</ele><time>2026-04-18T10:17:01.066Z</time></trkpt><trkpt lat="42.9694483" lon="13.3898906"><ele>589.0</ele><time>2026-04-18T10:17:02.058Z</time></trkpt><trkpt lat="42.9693747" lon="13.3899229"><ele>589.0</ele><time>2026-04-18T10:17:03.057Z</time></trkpt><trkpt lat="42.9693035" lon="13.389938"><ele>589.0</ele><time>2026-04-18T10:17:04.061Z</time></trkpt><trkpt lat="42.9692299" lon="13.3899537"><ele>589.0</ele><time>2026-04-18T10:17:05.073Z</time></trkpt><trkpt lat="42.9691562" lon="13.3899455"><ele>589.0</ele><time>2026-04-18T10:17:06.058Z</time></trkpt><trkpt lat="42.9690643" lon="13.3899045"><ele>589.0</ele><time>2026-04-18T10:17:07.053Z</time></trkpt><trkpt lat="42.9689701" lon="13.3898542"><ele>589.0</ele><time>2026-04-18T10:17:08.056Z</time></trkpt><trkpt lat="42.9688835" lon="13.3897991"><ele>587.0</ele><time>2026-04-18T10:17:09.058Z</time></trkpt><trkpt lat="42.9688001" lon="13.3897605"><ele>585.0</ele><time>2026-04-18T10:17:10.068Z</time></trkpt><trkpt lat="42.9687189" lon="13.3897529"><ele>583.0</ele><time>2026-04-18T10:17:11.059Z</time></trkpt><trkpt lat="42.9686416" lon="13.3897723"><ele>581.0</ele><time>2026-04-18T10:17:12.068Z</time></trkpt><trkpt lat="42.9685624" lon="13.3897931"><ele>579.0</ele><time>2026-04-18T10:17:13.103Z</time></trkpt><trkpt lat="42.9684938" lon="13.3898535"><ele>577.0</ele><time>2026-04-18T10:17:14.061Z</time></trkpt><trkpt lat="42.9684259" lon="13.3899221"><ele>577.1428571428571</ele><time>2026-04-18T10:17:15.069Z</time></trkpt><trkpt lat="42.9683575" lon="13.3899876"><ele>577.2857142857143</ele><time>2026-04-18T10:17:16.056Z</time></trkpt><trkpt lat="42.9682944" lon="13.3900431"><ele>577.4285714285714</ele><time>2026-04-18T10:17:17.062Z</time></trkpt><trkpt lat="42.9682309" lon="13.3900956"><ele>577.5714285714286</ele><time>2026-04-18T10:17:18.051Z</time></trkpt><trkpt lat="42.9681722" lon="13.3901456"><ele>577.7142857142857</ele><time>2026-04-18T10:17:19.045Z</time></trkpt><trkpt lat="42.9681115" lon="13.3901937"><ele>577.8571428571429</ele><time>2026-04-18T10:17:20.067Z</time></trkpt><trkpt lat="42.9680483" lon="13.3902415"><ele>578.0</ele><time>2026-04-18T10:17:21.036Z</time></trkpt><trkpt lat="42.967981" lon="13.3902825"><ele>578.0</ele><time>2026-04-18T10:17:22.063Z</time></trkpt><trkpt lat="42.9679067" lon="13.3903135"><ele>578.0</ele><time>2026-04-18T10:17:23.059Z</time></trkpt><trkpt lat="42.9678247" lon="13.3903423"><ele>578.0</ele><time>2026-04-18T10:17:24.053Z</time></trkpt><trkpt lat="42.9677381" lon="13.3903664"><ele>578.0</ele><time>2026-04-18T10:17:25.106Z</time></trkpt><trkpt lat="42.96765" lon="13.3903859"><ele>578.0</ele><time>2026-04-18T10:17:26.07Z</time></trkpt><trkpt lat="42.9675609" lon="13.3904045"><ele>578.0</ele><time>2026-04-18T10:17:27.057Z</time></trkpt><trkpt lat="42.9674681" lon="13.3904169"><ele>578.4</ele><time>2026-04-18T10:17:28.059Z</time></trkpt><trkpt lat="42.9673735" lon="13.3904302"><ele>578.8</ele><time>2026-04-18T10:17:29.074Z</time></trkpt><trkpt lat="42.9672803" lon="13.3904439"><ele>579.2</ele><time>2026-04-18T10:17:30.066Z</time></trkpt><trkpt lat="42.9671875" lon="13.3904634"><ele>579.6</ele><time>2026-04-18T10:17:31.067Z</time></trkpt><trkpt lat="42.9670968" lon="13.3904823"><ele>580.0</ele><time>2026-04-18T10:17:32.066Z</time></trkpt><trkpt lat="42.9670088" lon="13.3905027"><ele>578.3333333333334</ele><time>2026-04-18T10:17:33.067Z</time></trkpt><trkpt lat="42.9669218" lon="13.3905226"><ele>576.6666666666667</ele><time>2026-04-18T10:17:34.078Z</time></trkpt><trkpt lat="42.9668345" lon="13.3905414"><ele>575.0</ele><time>2026-04-18T10:17:35.071Z</time></trkpt><trkpt lat="42.9667457" lon="13.3905599"><ele>573.3333333333334</ele><time>2026-04-18T10:17:36.037Z</time></trkpt><trkpt lat="42.9666591" lon="13.3905756"><ele>571.6666666666666</ele><time>2026-04-18T10:17:37.077Z</time></trkpt><trkpt lat="42.9665761" lon="13.3905872"><ele>570.0</ele><time>2026-04-18T10:17:38.072Z</time></trkpt><trkpt lat="42.9664972" lon="13.390595"><ele>570.0</ele><time>2026-04-18T10:17:39.073Z</time></trkpt><trkpt lat="42.9664181" lon="13.3905885"><ele>570.0</ele><time>2026-04-18T10:17:40.067Z</time></trkpt><trkpt lat="42.9663376" lon="13.390565"><ele>570.0</ele><time>2026-04-18T10:17:41.071Z</time></trkpt><trkpt lat="42.9662556" lon="13.390525"><ele>570.0</ele><time>2026-04-18T10:17:42.059Z</time></trkpt><trkpt lat="42.9661733" lon="13.3904839"><ele>570.0</ele><time>2026-04-18T10:17:43.051Z</time></trkpt><trkpt lat="42.9660943" lon="13.3904477"><ele>570.0</ele><time>2026-04-18T10:17:44.065Z</time></trkpt><trkpt lat="42.9660149" lon="13.3904094"><ele>570.0</ele><time>2026-04-18T10:17:45.03Z</time></trkpt><trkpt lat="42.9659337" lon="13.3903665"><ele>570.0</ele><time>2026-04-18T10:17:46.031Z</time></trkpt><trkpt lat="42.9658506" lon="13.3903179"><ele>570.0</ele><time>2026-04-18T10:17:47.064Z</time></trkpt><trkpt lat="42.9657588" lon="13.3902745"><ele>570.0</ele><time>2026-04-18T10:17:48.059Z</time></trkpt><trkpt lat="42.9656553" lon="13.3902426"><ele>570.0</ele><time>2026-04-18T10:17:49.061Z</time></trkpt><trkpt lat="42.9655464" lon="13.3902276"><ele>570.0</ele><time>2026-04-18T10:17:50.054Z</time></trkpt><trkpt lat="42.9654313" lon="13.3902272"><ele>570.0</ele><time>2026-04-18T10:17:51.075Z</time></trkpt><trkpt lat="42.9653039" lon="13.390242"><ele>570.0</ele><time>2026-04-18T10:17:52.061Z</time></trkpt><trkpt lat="42.9651687" lon="13.3902742"><ele>570.0</ele><time>2026-04-18T10:17:53.076Z</time></trkpt><trkpt lat="42.9650383" lon="13.3903123"><ele>568.0</ele><time>2026-04-18T10:17:54.078Z</time></trkpt><trkpt lat="42.964911" lon="13.3903486"><ele>566.0</ele><time>2026-04-18T10:17:55.076Z</time></trkpt><trkpt lat="42.964799" lon="13.3903805"><ele>564.0</ele><time>2026-04-18T10:17:56.067Z</time></trkpt><trkpt lat="42.9646983" lon="13.3904077"><ele>562.0</ele><time>2026-04-18T10:17:57.055Z</time></trkpt><trkpt lat="42.9646091" lon="13.3904291"><ele>560.0</ele><time>2026-04-18T10:17:58.03Z</time></trkpt><trkpt lat="42.9645345" lon="13.3904402"><ele>560.0</ele><time>2026-04-18T10:17:59.066Z</time></trkpt><trkpt lat="42.9644344" lon="13.3904198"><ele>560.0</ele><time>2026-04-18T10:18:01.017Z</time></trkpt><trkpt lat="42.9644198" lon="13.3903296"><ele>560.0</ele><time>2026-04-18T10:18:03.026Z</time></trkpt><trkpt lat="42.9644923" lon="13.390177"><ele>560.0</ele><time>2026-04-18T10:18:05.059Z</time></trkpt><trkpt lat="42.9645351" lon="13.3900653"><ele>560.0</ele><time>2026-04-18T10:18:06.053Z</time></trkpt><trkpt lat="42.9645857" lon="13.389933"><ele>560.0</ele><time>2026-04-18T10:18:07.031Z</time></trkpt><trkpt lat="42.9646466" lon="13.3897795"><ele>560.0</ele><time>2026-04-18T10:18:08.075Z</time></trkpt><trkpt lat="42.964707" lon="13.3896273"><ele>560.0</ele><time>2026-04-18T10:18:09.06Z</time></trkpt><trkpt lat="42.964777" lon="13.3894832"><ele>560.0</ele><time>2026-04-18T10:18:10.041Z</time></trkpt><trkpt lat="42.9648542" lon="13.3893604"><ele>559.25</ele><time>2026-04-18T10:18:11.056Z</time></trkpt><trkpt lat="42.9649258" lon="13.389247"><ele>558.5</ele><time>2026-04-18T10:18:12.055Z</time></trkpt><trkpt lat="42.9649979" lon="13.3891317"><ele>557.75</ele><time>2026-04-18T10:18:13.06Z</time></trkpt><trkpt lat="42.9650548" lon="13.3889988"><ele>557.0</ele><time>2026-04-18T10:18:14.031Z</time></trkpt><trkpt lat="42.9651128" lon="13.3888542"><ele>562.5</ele><time>2026-04-18T10:18:15.052Z</time></trkpt><trkpt lat="42.9651432" lon="13.3886765"><ele>568.0</ele><time>2026-04-18T10:18:16.06Z</time></trkpt><trkpt lat="42.9651806" lon="13.3884985"><ele>573.5</ele><time>2026-04-18T10:18:17.043Z</time></trkpt><trkpt lat="42.9652062" lon="13.3883407"><ele>579.0</ele><time>2026-04-18T10:18:18.073Z</time></trkpt><trkpt lat="42.9652075" lon="13.3881787"><ele>581.3333333333334</ele><time>2026-04-18T10:18:19.08Z</time></trkpt><trkpt lat="42.9651597" lon="13.3880022"><ele>583.6666666666667</ele><time>2026-04-18T10:18:20.031Z</time></trkpt><trkpt lat="42.9651153" lon="13.3877759"><ele>586.0</ele><time>2026-04-18T10:18:21.026Z</time></trkpt><trkpt lat="42.9650807" lon="13.3875142"><ele>580.6666666666667</ele><time>2026-04-18T10:18:22.07Z</time></trkpt><trkpt lat="42.9650209" lon="13.3872433"><ele>575.3333333333334</ele><time>2026-04-18T10:18:23.05Z</time></trkpt><trkpt lat="42.9649846" lon="13.386977"><ele>570.0</ele><time>2026-04-18T10:18:24.069Z</time></trkpt><trkpt lat="42.9649723" lon="13.3867087"><ele>570.0</ele><time>2026-04-18T10:18:25.038Z</time></trkpt><trkpt lat="42.9649766" lon="13.3864268"><ele>570.0</ele><time>2026-04-18T10:18:26.044Z</time></trkpt><trkpt lat="42.9649689" lon="13.3861681"><ele>570.0</ele><time>2026-04-18T10:18:27.044Z</time></trkpt><trkpt lat="42.9649327" lon="13.3859364"><ele>572.25</ele><time>2026-04-18T10:18:28.05Z</time></trkpt><trkpt lat="42.9648999" lon="13.3857298"><ele>574.5</ele><time>2026-04-18T10:18:29.057Z</time></trkpt><trkpt lat="42.9648744" lon="13.3855283"><ele>576.75</ele><time>2026-04-18T10:18:30.06Z</time></trkpt><trkpt lat="42.964853" lon="13.3853382"><ele>579.0</ele><time>2026-04-18T10:18:31.03Z</time></trkpt><trkpt lat="42.9648494" lon="13.3851739"><ele>579.6</ele><time>2026-04-18T10:18:32.06Z</time></trkpt><trkpt lat="42.9648434" lon="13.3850043"><ele>580.2</ele><time>2026-04-18T10:18:33.018Z</time></trkpt><trkpt lat="42.9648522" lon="13.3848493"><ele>580.8000000000001</ele><time>2026-04-18T10:18:34.046Z</time></trkpt><trkpt lat="42.9648651" lon="13.3847167"><ele>581.4</ele><time>2026-04-18T10:18:35.076Z</time></trkpt><trkpt lat="42.9648711" lon="13.3846123"><ele>582.0</ele><time>2026-04-18T10:18:36.035Z</time></trkpt><trkpt lat="42.9648767" lon="13.3845124"><ele>582.0</ele><time>2026-04-18T10:18:37.045Z</time></trkpt><trkpt lat="42.9649165" lon="13.3843847"><ele>582.0</ele><time>2026-04-18T10:18:39.059Z</time></trkpt><trkpt lat="42.9649493" lon="13.3843064"><ele>582.0</ele><time>2026-04-18T10:18:40.073Z</time></trkpt><trkpt lat="42.9649784" lon="13.3842192"><ele>582.0</ele><time>2026-04-18T10:18:41.048Z</time></trkpt><trkpt lat="42.9650003" lon="13.3841264"><ele>582.0</ele><time>2026-04-18T10:18:42.032Z</time></trkpt><trkpt lat="42.9650272" lon="13.3840276"><ele>582.0</ele><time>2026-04-18T10:18:43.113Z</time></trkpt><trkpt lat="42.9650469" lon="13.3838952"><ele>584.8333333333334</ele><time>2026-04-18T10:18:44.043Z</time></trkpt><trkpt lat="42.9650669" lon="13.3837677"><ele>587.6666666666666</ele><time>2026-04-18T10:18:45.028Z</time></trkpt><trkpt lat="42.9650734" lon="13.3836369"><ele>590.5</ele><time>2026-04-18T10:18:46.025Z</time></trkpt><trkpt lat="42.9650833" lon="13.3835278"><ele>593.3333333333333</ele><time>2026-04-18T10:18:47.031Z</time></trkpt><trkpt lat="42.9650967" lon="13.3834167"><ele>596.1666666666666</ele><time>2026-04-18T10:18:48.033Z</time></trkpt><trkpt lat="42.9651033" lon="13.3833033"><ele>599.0</ele><time>2026-04-18T10:18:49.037Z</time></trkpt><trkpt lat="42.965058" lon="13.3831368"><ele>597.0</ele><time>2026-04-18T10:18:51.026Z</time></trkpt><trkpt lat="42.9650503" lon="13.3829508"><ele>595.0</ele><time>2026-04-18T10:18:53.048Z</time></trkpt><trkpt lat="42.9650831" lon="13.3828331"><ele>593.0</ele><time>2026-04-18T10:18:54.048Z</time></trkpt><trkpt lat="42.9651333" lon="13.3826689"><ele>591.0</ele><time>2026-04-18T10:18:55.064Z</time></trkpt><trkpt lat="42.9651922" lon="13.382504"><ele>591.0</ele><time>2026-04-18T10:18:56.031Z</time></trkpt><trkpt lat="42.9652338" lon="13.3823733"><ele>591.0</ele><time>2026-04-18T10:18:57.059Z</time></trkpt><trkpt lat="42.965309" lon="13.3822506"><ele>591.0</ele><time>2026-04-18T10:18:58.044Z</time></trkpt><trkpt lat="42.9653974" lon="13.3821376"><ele>591.0</ele><time>2026-04-18T10:18:59.07Z</time></trkpt><trkpt lat="42.9654726" lon="13.3820522"><ele>591.0</ele><time>2026-04-18T10:19:00.091Z</time></trkpt><trkpt lat="42.9655414" lon="13.3819956"><ele>588.8</ele><time>2026-04-18T10:19:01.038Z</time></trkpt><trkpt lat="42.9656244" lon="13.3819044"><ele>586.6</ele><time>2026-04-18T10:19:03.061Z</time></trkpt><trkpt lat="42.9656619" lon="13.3817711"><ele>584.4</ele><time>2026-04-18T10:19:05.069Z</time></trkpt><trkpt lat="42.965716" lon="13.3816533"><ele>582.2</ele><time>2026-04-18T10:19:06.024Z</time></trkpt><trkpt lat="42.9657839" lon="13.3815226"><ele>580.0</ele><time>2026-04-18T10:19:07.073Z</time></trkpt><trkpt lat="42.9658272" lon="13.3813907"><ele>581.6666666666667</ele><time>2026-04-18T10:19:08.056Z</time></trkpt><trkpt lat="42.9658754" lon="13.3813237"><ele>583.3333333333334</ele><time>2026-04-18T10:19:09.062Z</time></trkpt><trkpt lat="42.9659551" lon="13.3812841"><ele>585.0</ele><time>2026-04-18T10:19:10.058Z</time></trkpt><trkpt lat="42.9660481" lon="13.3812601"><ele>586.6666666666666</ele><time>2026-04-18T10:19:11.029Z</time></trkpt><trkpt lat="42.9661285" lon="13.381229"><ele>588.3333333333333</ele><time>2026-04-18T10:19:12.079Z</time></trkpt><trkpt lat="42.9661843" lon="13.381177"><ele>590.0</ele><time>2026-04-18T10:19:13.086Z</time></trkpt><trkpt lat="42.9662186" lon="13.3810526"><ele>590.0</ele><time>2026-04-18T10:19:14.058Z</time></trkpt><trkpt lat="42.9662548" lon="13.3809277"><ele>590.0</ele><time>2026-04-18T10:19:15.055Z</time></trkpt><trkpt lat="42.9662743" lon="13.3807933"><ele>590.0</ele><time>2026-04-18T10:19:16.027Z</time></trkpt><trkpt lat="42.9662766" lon="13.3806449"><ele>590.0</ele><time>2026-04-18T10:19:17.06Z</time></trkpt><trkpt lat="42.9662738" lon="13.3805071"><ele>590.0</ele><time>2026-04-18T10:19:18.054Z</time></trkpt><trkpt lat="42.9662817" lon="13.3803876"><ele>587.6666666666666</ele><time>2026-04-18T10:19:19.045Z</time></trkpt><trkpt lat="42.96628" lon="13.3802943"><ele>585.3333333333333</ele><time>2026-04-18T10:19:20.049Z</time></trkpt><trkpt lat="42.9662686" lon="13.3801957"><ele>583.0</ele><time>2026-04-18T10:19:21.049Z</time></trkpt><trkpt lat="42.9662874" lon="13.3800309"><ele>580.6666666666666</ele><time>2026-04-18T10:19:23.06Z</time></trkpt><trkpt lat="42.9663388" lon="13.3799463"><ele>578.3333333333334</ele><time>2026-04-18T10:19:24.054Z</time></trkpt><trkpt lat="42.966402" lon="13.3798475"><ele>576.0</ele><time>2026-04-18T10:19:25.063Z</time></trkpt><trkpt lat="42.9664904" lon="13.3797562"><ele>575.0</ele><time>2026-04-18T10:19:26.041Z</time></trkpt><trkpt lat="42.9665963" lon="13.3796694"><ele>574.0</ele><time>2026-04-18T10:19:27.06Z</time></trkpt><trkpt lat="42.9666676" lon="13.3796068"><ele>573.0</ele><time>2026-04-18T10:19:28.052Z</time></trkpt><trkpt lat="42.9667431" lon="13.3795478"><ele>572.0</ele><time>2026-04-18T10:19:29.071Z</time></trkpt><trkpt lat="42.9667904" lon="13.3794719"><ele>571.0</ele><time>2026-04-18T10:19:30.079Z</time></trkpt><trkpt lat="42.9668328" lon="13.3793936"><ele>570.0</ele><time>2026-04-18T10:19:31.034Z</time></trkpt><trkpt lat="42.9668686" lon="13.3793214"><ele>570.0</ele><time>2026-04-18T10:19:32.07Z</time></trkpt><trkpt lat="42.966892" lon="13.3792149"><ele>570.0</ele><time>2026-04-18T10:19:33.051Z</time></trkpt><trkpt lat="42.9669272" lon="13.3791034"><ele>570.0</ele><time>2026-04-18T10:19:34.041Z</time></trkpt><trkpt lat="42.9669518" lon="13.3790029"><ele>570.0</ele><time>2026-04-18T10:19:35.06Z</time></trkpt><trkpt lat="42.9669768" lon="13.3789039"><ele>570.0</ele><time>2026-04-18T10:19:36.034Z</time></trkpt><trkpt lat="42.9670189" lon="13.3787612"><ele>570.0</ele><time>2026-04-18T10:19:37.055Z</time></trkpt><trkpt lat="42.9670705" lon="13.3786124"><ele>566.6666666666666</ele><time>2026-04-18T10:19:38.048Z</time></trkpt><trkpt lat="42.9671244" lon="13.3784877"><ele>563.3333333333334</ele><time>2026-04-18T10:19:39.053Z</time></trkpt><trkpt lat="42.9671663" lon="13.3783787"><ele>560.0</ele><time>2026-04-18T10:19:40.047Z</time></trkpt><trkpt lat="42.9672073" lon="13.3782863"><ele>556.6666666666667</ele><time>2026-04-18T10:19:41.032Z</time></trkpt><trkpt lat="42.9672511" lon="13.3782021"><ele>553.3333333333334</ele><time>2026-04-18T10:19:42.062Z</time></trkpt><trkpt lat="42.9672951" lon="13.3781084"><ele>550.0</ele><time>2026-04-18T10:19:44.055Z</time></trkpt><trkpt lat="42.9672629" lon="13.3780112"><ele>550.0</ele><time>2026-04-18T10:20:01.02Z</time></trkpt><trkpt lat="42.9672039" lon="13.3779713"><ele>550.0</ele><time>2026-04-18T10:20:03.033Z</time></trkpt><trkpt lat="42.9671229" lon="13.3779463"><ele>550.0</ele><time>2026-04-18T10:20:06.052Z</time></trkpt><trkpt lat="42.967055" lon="13.3779934"><ele>550.0</ele><time>2026-04-18T10:20:08.028Z</time></trkpt><trkpt lat="42.9669825" lon="13.3780611"><ele>550.0</ele><time>2026-04-18T10:20:10.042Z</time></trkpt><trkpt lat="42.9669267" lon="13.3781271"><ele>550.0</ele><time>2026-04-18T10:20:12.043Z</time></trkpt><trkpt lat="42.9668601" lon="13.3781705"><ele>550.0</ele><time>2026-04-18T10:20:14.035Z</time></trkpt><trkpt lat="42.9667905" lon="13.3781597"><ele>550.0</ele><time>2026-04-18T10:20:16.056Z</time></trkpt><trkpt lat="42.9667194" lon="13.3781524"><ele>550.0</ele><time>2026-04-18T10:20:18.055Z</time></trkpt><trkpt lat="42.9666117" lon="13.3781689"><ele>550.0</ele><time>2026-04-18T10:20:30.008Z</time></trkpt><trkpt lat="42.9667245" lon="13.3781546"><ele>550.0</ele><time>2026-04-18T10:20:53.038Z</time></trkpt><trkpt lat="42.9668417" lon="13.3781634"><ele>550.0</ele><time>2026-04-18T10:20:55.066Z</time></trkpt><trkpt lat="42.9669268" lon="13.3781003"><ele>550.0</ele><time>2026-04-18T10:20:57.054Z</time></trkpt><trkpt lat="42.967009" lon="13.377978"><ele>550.0</ele><time>2026-04-18T10:20:59.06Z</time></trkpt><trkpt lat="42.9670656" lon="13.3779084"><ele>550.0</ele><time>2026-04-18T10:21:01.056Z</time></trkpt><trkpt lat="42.9671392" lon="13.3779009"><ele>550.0</ele><time>2026-04-18T10:21:03.023Z</time></trkpt><trkpt lat="42.9672473" lon="13.3779625"><ele>550.4</ele><time>2026-04-18T10:21:05.064Z</time></trkpt><trkpt lat="42.9673606" lon="13.3779841"><ele>550.8</ele><time>2026-04-18T10:21:07.07Z</time></trkpt><trkpt lat="42.9674269" lon="13.3779785"><ele>551.2</ele><time>2026-04-18T10:21:08.044Z</time></trkpt><trkpt lat="42.9675408" lon="13.3779725"><ele>551.6</ele><time>2026-04-18T10:21:10.055Z</time></trkpt><trkpt lat="42.9676145" lon="13.3779986"><ele>552.0</ele><time>2026-04-18T10:21:12.065Z</time></trkpt><trkpt lat="42.9677009" lon="13.3780407"><ele>552.2857142857143</ele><time>2026-04-18T10:21:15.025Z</time></trkpt><trkpt lat="42.9677547" lon="13.3780906"><ele>552.5714285714287</ele><time>2026-04-18T10:21:17.05Z</time></trkpt><trkpt lat="42.9677895" lon="13.3782019"><ele>552.8571428571429</ele><time>2026-04-18T10:21:20.059Z</time></trkpt><trkpt lat="42.9677754" lon="13.3783119"><ele>553.1428571428571</ele><time>2026-04-18T10:21:21.993Z</time></trkpt><trkpt lat="42.9677447" lon="13.378399"><ele>553.4285714285713</ele><time>2026-04-18T10:21:24.041Z</time></trkpt><trkpt lat="42.9676867" lon="13.3784532"><ele>553.7142857142857</ele><time>2026-04-18T10:21:56.063Z</time></trkpt><trkpt lat="42.9676185" lon="13.3784829"><ele>554.0</ele><time>2026-04-18T10:21:58.99Z</time></trkpt><trkpt lat="42.9676964" lon="13.3784755"><ele>554.0</ele><time>2026-04-18T10:22:03.031Z</time></trkpt><trkpt lat="42.9677558" lon="13.3783855"><ele>554.0</ele><time>2026-04-18T10:22:05.057Z</time></trkpt><trkpt lat="42.9677829" lon="13.3783042"><ele>554.0</ele><time>2026-04-18T10:22:08.026Z</time></trkpt><trkpt lat="42.9677842" lon="13.3782119"><ele>554.0</ele><time>2026-04-18T10:22:13.036Z</time></trkpt><trkpt lat="42.9677428" lon="13.3781286"><ele>554.0</ele><time>2026-04-18T10:22:23.039Z</time></trkpt><trkpt lat="42.9676876" lon="13.3780761"><ele>554.0</ele><time>2026-04-18T10:22:25.013Z</time></trkpt><trkpt lat="42.9675695" lon="13.378024"><ele>553.3333333333333</ele><time>2026-04-18T10:22:28.041Z</time></trkpt><trkpt lat="42.9674664" lon="13.3780092"><ele>552.6666666666666</ele><time>2026-04-18T10:22:30.049Z</time></trkpt><trkpt lat="42.9673887" lon="13.378016"><ele>552.0</ele><time>2026-04-18T10:22:32.036Z</time></trkpt><trkpt lat="42.9673653" lon="13.3781053"><ele>551.3333333333334</ele><time>2026-04-18T10:22:56.991Z</time></trkpt><trkpt lat="42.9673138" lon="13.3782508"><ele>550.6666666666667</ele><time>2026-04-18T10:23:00.063Z</time></trkpt><trkpt lat="42.9672682" lon="13.3783369"><ele>550.0</ele><time>2026-04-18T10:23:01.067Z</time></trkpt><trkpt lat="42.9672217" lon="13.3784414"><ele>550.0</ele><time>2026-04-18T10:23:02.032Z</time></trkpt><trkpt lat="42.9671696" lon="13.3785718"><ele>550.0</ele><time>2026-04-18T10:23:03.069Z</time></trkpt><trkpt lat="42.9671059" lon="13.3787295"><ele>550.0</ele><time>2026-04-18T10:23:04.101Z</time></trkpt><trkpt lat="42.967039" lon="13.3788937"><ele>550.0</ele><time>2026-04-18T10:23:05.05Z</time></trkpt><trkpt lat="42.9669757" lon="13.3790812"><ele>554.0</ele><time>2026-04-18T10:23:06.062Z</time></trkpt><trkpt lat="42.966931" lon="13.3792496"><ele>558.0</ele><time>2026-04-18T10:23:07.029Z</time></trkpt><trkpt lat="42.9668957" lon="13.3793507"><ele>562.0</ele><time>2026-04-18T10:23:08.042Z</time></trkpt><trkpt lat="42.9668321" lon="13.3795069"><ele>566.0</ele><time>2026-04-18T10:23:10.051Z</time></trkpt><trkpt lat="42.9667885" lon="13.3795877"><ele>570.0</ele><time>2026-04-18T10:23:11.054Z</time></trkpt><trkpt lat="42.9667195" lon="13.3796718"><ele>571.0</ele><time>2026-04-18T10:23:12.039Z</time></trkpt><trkpt lat="42.9666376" lon="13.3797416"><ele>572.0</ele><time>2026-04-18T10:23:13.042Z</time></trkpt><trkpt lat="42.9665808" lon="13.379818"><ele>573.0</ele><time>2026-04-18T10:23:14.055Z</time></trkpt><trkpt lat="42.966518" lon="13.3798911"><ele>574.0</ele><time>2026-04-18T10:23:15.049Z</time></trkpt><trkpt lat="42.9664689" lon="13.379969"><ele>575.0</ele><time>2026-04-18T10:23:16.024Z</time></trkpt><trkpt lat="42.9664144" lon="13.3800458"><ele>576.0</ele><time>2026-04-18T10:23:17.035Z</time></trkpt><trkpt lat="42.9663718" lon="13.3801169"><ele>576.0</ele><time>2026-04-18T10:23:18.06Z</time></trkpt><trkpt lat="42.9663466" lon="13.3802727"><ele>576.0</ele><time>2026-04-18T10:23:20.049Z</time></trkpt><trkpt lat="42.9663654" lon="13.3803923"><ele>576.0</ele><time>2026-04-18T10:23:21.085Z</time></trkpt><trkpt lat="42.9663782" lon="13.3805151"><ele>576.0</ele><time>2026-04-18T10:23:22.025Z</time></trkpt><trkpt lat="42.9663757" lon="13.3806786"><ele>576.0</ele><time>2026-04-18T10:23:23.046Z</time></trkpt><trkpt lat="42.9663635" lon="13.380804"><ele>578.8</ele><time>2026-04-18T10:23:24.059Z</time></trkpt><trkpt lat="42.9663355" lon="13.3809478"><ele>581.6</ele><time>2026-04-18T10:23:25.05Z</time></trkpt><trkpt lat="42.9662937" lon="13.3810863"><ele>584.4</ele><time>2026-04-18T10:23:26.053Z</time></trkpt><trkpt lat="42.9662194" lon="13.3811814"><ele>587.2</ele><time>2026-04-18T10:23:27.033Z</time></trkpt><trkpt lat="42.9661529" lon="13.381264"><ele>590.0</ele><time>2026-04-18T10:23:28.063Z</time></trkpt><trkpt lat="42.9660666" lon="13.3813072"><ele>590.0</ele><time>2026-04-18T10:23:29.083Z</time></trkpt><trkpt lat="42.9660009" lon="13.3813284"><ele>590.0</ele><time>2026-04-18T10:23:30.057Z</time></trkpt><trkpt lat="42.9659187" lon="13.3813828"><ele>590.0</ele><time>2026-04-18T10:23:32.019Z</time></trkpt><trkpt lat="42.9658754" lon="13.3814591"><ele>590.0</ele><time>2026-04-18T10:23:34.02Z</time></trkpt><trkpt lat="42.965836" lon="13.3815722"><ele>590.0</ele><time>2026-04-18T10:23:36.045Z</time></trkpt><trkpt lat="42.9657935" lon="13.3816424"><ele>590.0</ele><time>2026-04-18T10:23:37.021Z</time></trkpt><trkpt lat="42.9657479" lon="13.3817097"><ele>588.0</ele><time>2026-04-18T10:23:38.071Z</time></trkpt><trkpt lat="42.9656747" lon="13.3818151"><ele>586.0</ele><time>2026-04-18T10:23:40.049Z</time></trkpt><trkpt lat="42.9656241" lon="13.3819013"><ele>584.0</ele><time>2026-04-18T10:23:42.032Z</time></trkpt><trkpt lat="42.9655443" lon="13.3819802"><ele>582.0</ele><time>2026-04-18T10:23:44.057Z</time></trkpt><trkpt lat="42.9654883" lon="13.3820414"><ele>580.0</ele><time>2026-04-18T10:23:45.042Z</time></trkpt><trkpt lat="42.965418" lon="13.3821361"><ele>581.8333333333334</ele><time>2026-04-18T10:23:46.058Z</time></trkpt><trkpt lat="42.9653503" lon="13.3822372"><ele>583.6666666666667</ele><time>2026-04-18T10:23:47.064Z</time></trkpt><trkpt lat="42.9652906" lon="13.382349"><ele>585.5</ele><time>2026-04-18T10:23:48.043Z</time></trkpt><trkpt lat="42.9652439" lon="13.382456"><ele>587.3333333333334</ele><time>2026-04-18T10:23:49.06Z</time></trkpt><trkpt lat="42.9652113" lon="13.3825643"><ele>589.1666666666666</ele><time>2026-04-18T10:23:50.065Z</time></trkpt><trkpt lat="42.9651852" lon="13.3826522"><ele>591.0</ele><time>2026-04-18T10:23:51.052Z</time></trkpt><trkpt lat="42.9651381" lon="13.3828042"><ele>591.0</ele><time>2026-04-18T10:23:53.113Z</time></trkpt><trkpt lat="42.9651002" lon="13.3829335"><ele>591.0</ele><time>2026-04-18T10:23:55.069Z</time></trkpt><trkpt lat="42.9650776" lon="13.3831047"><ele>591.0</ele><time>2026-04-18T10:23:57.062Z</time></trkpt><trkpt lat="42.9650888" lon="13.3832065"><ele>591.0</ele><time>2026-04-18T10:23:58.08Z</time></trkpt><trkpt lat="42.9651086" lon="13.3833127"><ele>591.0</ele><time>2026-04-18T10:23:59.063Z</time></trkpt><trkpt lat="42.9651179" lon="13.3834194"><ele>593.0</ele><time>2026-04-18T10:24:00.048Z</time></trkpt><trkpt lat="42.9651198" lon="13.3835466"><ele>595.0</ele><time>2026-04-18T10:24:01.055Z</time></trkpt><trkpt lat="42.9650972" lon="13.3836991"><ele>597.0</ele><time>2026-04-18T10:24:02.057Z</time></trkpt><trkpt lat="42.9650818" lon="13.3838683"><ele>599.0</ele><time>2026-04-18T10:24:03.065Z</time></trkpt><trkpt lat="42.9650481" lon="13.3840373"><ele>595.6</ele><time>2026-04-18T10:24:04.057Z</time></trkpt><trkpt lat="42.9650199" lon="13.3841635"><ele>592.2</ele><time>2026-04-18T10:24:05.066Z</time></trkpt><trkpt lat="42.9650008" lon="13.3842583"><ele>588.8000000000001</ele><time>2026-04-18T10:24:06.068Z</time></trkpt><trkpt lat="42.9649888" lon="13.3843958"><ele>585.4</ele><time>2026-04-18T10:24:08.063Z</time></trkpt><trkpt lat="42.9649976" lon="13.3845196"><ele>582.0</ele><time>2026-04-18T10:24:10.065Z</time></trkpt><trkpt lat="42.9649932" lon="13.3846671"><ele>582.3333333333334</ele><time>2026-04-18T10:24:12.079Z</time></trkpt><trkpt lat="42.9649805" lon="13.3847929"><ele>582.6666666666666</ele><time>2026-04-18T10:24:14.021Z</time></trkpt><trkpt lat="42.9650011" lon="13.3848834"><ele>583.0</ele><time>2026-04-18T10:24:39.033Z</time></trkpt><trkpt lat="42.9650595" lon="13.3849547"><ele>583.3333333333333</ele><time>2026-04-18T10:24:42.029Z</time></trkpt><trkpt lat="42.9651423" lon="13.3849271"><ele>583.6666666666666</ele><time>2026-04-18T10:25:27.033Z</time></trkpt><trkpt lat="42.9651891" lon="13.3848246"><ele>584.0</ele><time>2026-04-18T10:25:29.035Z</time></trkpt><trkpt lat="42.965251" lon="13.3846907"><ele>588.4</ele><time>2026-04-18T10:25:31.046Z</time></trkpt><trkpt lat="42.9652966" lon="13.3846094"><ele>592.8</ele><time>2026-04-18T10:25:32.07Z</time></trkpt><trkpt lat="42.9653531" lon="13.384505"><ele>597.2</ele><time>2026-04-18T10:25:33.057Z</time></trkpt><trkpt lat="42.9654319" lon="13.3843739"><ele>601.6</ele><time>2026-04-18T10:25:34.052Z</time></trkpt><trkpt lat="42.9655072" lon="13.3842481"><ele>606.0</ele><time>2026-04-18T10:25:35.066Z</time></trkpt><trkpt lat="42.9655851" lon="13.3841107"><ele>606.0</ele><time>2026-04-18T10:25:36.03Z</time></trkpt><trkpt lat="42.9656551" lon="13.3839566"><ele>606.0</ele><time>2026-04-18T10:25:37.048Z</time></trkpt><trkpt lat="42.9657257" lon="13.3837956"><ele>606.0</ele><time>2026-04-18T10:25:38.059Z</time></trkpt><trkpt lat="42.96578" lon="13.3836183"><ele>606.0</ele><time>2026-04-18T10:25:39.035Z</time></trkpt><trkpt lat="42.9658324" lon="13.3834682"><ele>607.4</ele><time>2026-04-18T10:25:40.05Z</time></trkpt><trkpt lat="42.9658911" lon="13.3833479"><ele>608.8</ele><time>2026-04-18T10:25:41.042Z</time></trkpt><trkpt lat="42.9659591" lon="13.3832433"><ele>610.1999999999999</ele><time>2026-04-18T10:25:42.067Z</time></trkpt><trkpt lat="42.9660452" lon="13.3831434"><ele>611.6</ele><time>2026-04-18T10:25:43.05Z</time></trkpt><trkpt lat="42.9661474" lon="13.3830502"><ele>613.0</ele><time>2026-04-18T10:25:44.047Z</time></trkpt><trkpt lat="42.9662525" lon="13.382977"><ele>613.0</ele><time>2026-04-18T10:25:45.068Z</time></trkpt><trkpt lat="42.9663536" lon="13.3829283"><ele>613.0</ele><time>2026-04-18T10:25:46.05Z</time></trkpt><trkpt lat="42.9664465" lon="13.3828859"><ele>613.0</ele><time>2026-04-18T10:25:47.06Z</time></trkpt><trkpt lat="42.9665234" lon="13.3828257"><ele>613.0</ele><time>2026-04-18T10:25:48.051Z</time></trkpt><trkpt lat="42.9665787" lon="13.3827408"><ele>613.0</ele><time>2026-04-18T10:25:49.051Z</time></trkpt><trkpt lat="42.9666211" lon="13.3826306"><ele>613.0</ele><time>2026-04-18T10:25:50.05Z</time></trkpt><trkpt lat="42.966663" lon="13.3825068"><ele>613.0</ele><time>2026-04-18T10:25:51.056Z</time></trkpt><trkpt lat="42.9667286" lon="13.3823856"><ele>613.0</ele><time>2026-04-18T10:25:52.054Z</time></trkpt><trkpt lat="42.9668006" lon="13.3822511"><ele>613.0</ele><time>2026-04-18T10:25:53.065Z</time></trkpt><trkpt lat="42.9669047" lon="13.3821108"><ele>620.3333333333334</ele><time>2026-04-18T10:25:54.052Z</time></trkpt><trkpt lat="42.9670264" lon="13.3819382"><ele>627.6666666666666</ele><time>2026-04-18T10:25:55.052Z</time></trkpt><trkpt lat="42.9671715" lon="13.3817735"><ele>635.0</ele><time>2026-04-18T10:25:56.061Z</time></trkpt><trkpt lat="42.9673007" lon="13.3815994"><ele>635.0</ele><time>2026-04-18T10:25:57.075Z</time></trkpt><trkpt lat="42.9674206" lon="13.3814317"><ele>635.0</ele><time>2026-04-18T10:25:58.049Z</time></trkpt><trkpt lat="42.9675121" lon="13.3812567"><ele>635.0</ele><time>2026-04-18T10:25:59.047Z</time></trkpt><trkpt lat="42.9676001" lon="13.3810906"><ele>635.25</ele><time>2026-04-18T10:26:00.034Z</time></trkpt><trkpt lat="42.9676967" lon="13.3809421"><ele>635.5</ele><time>2026-04-18T10:26:01.049Z</time></trkpt><trkpt lat="42.9678037" lon="13.380811"><ele>635.75</ele><time>2026-04-18T10:26:02.043Z</time></trkpt><trkpt lat="42.9678965" lon="13.3807055"><ele>636.0</ele><time>2026-04-18T10:26:03.045Z</time></trkpt><trkpt lat="42.9679803" lon="13.3806215"><ele>636.0</ele><time>2026-04-18T10:26:04.067Z</time></trkpt><trkpt lat="42.9680506" lon="13.3805531"><ele>636.0</ele><time>2026-04-18T10:26:05.061Z</time></trkpt><trkpt lat="42.9681724" lon="13.3805494"><ele>636.0</ele><time>2026-04-18T10:26:07.053Z</time></trkpt><trkpt lat="42.9682363" lon="13.3806315"><ele>636.0</ele><time>2026-04-18T10:26:08.042Z</time></trkpt><trkpt lat="42.9682857" lon="13.3807435"><ele>636.0</ele><time>2026-04-18T10:26:09.052Z</time></trkpt><trkpt lat="42.9683333" lon="13.380842"><ele>632.5</ele><time>2026-04-18T10:26:10.064Z</time></trkpt><trkpt lat="42.9684102" lon="13.3809382"><ele>629.0</ele><time>2026-04-18T10:26:11.115Z</time></trkpt><trkpt lat="42.9685118" lon="13.3810628"><ele>625.5</ele><time>2026-04-18T10:26:12.048Z</time></trkpt><trkpt lat="42.9686069" lon="13.3811715"><ele>622.0</ele><time>2026-04-18T10:26:13.038Z</time></trkpt><trkpt lat="42.9687065" lon="13.3812818"><ele>626.2</ele><time>2026-04-18T10:26:14.065Z</time></trkpt><trkpt lat="42.968797" lon="13.3813932"><ele>630.4000000000001</ele><time>2026-04-18T10:26:15.062Z</time></trkpt><trkpt lat="42.9688751" lon="13.3814935"><ele>634.5999999999999</ele><time>2026-04-18T10:26:16.03Z</time></trkpt><trkpt lat="42.9689426" lon="13.3816125"><ele>638.8</ele><time>2026-04-18T10:26:17.049Z</time></trkpt><trkpt lat="42.9689969" lon="13.3817262"><ele>643.0</ele><time>2026-04-18T10:26:18.046Z</time></trkpt><trkpt lat="42.96905" lon="13.3818208"><ele>643.0</ele><time>2026-04-18T10:26:19.061Z</time></trkpt><trkpt lat="42.9691117" lon="13.3818951"><ele>643.0</ele><time>2026-04-18T10:26:20.068Z</time></trkpt><trkpt lat="42.9691819" lon="13.3819686"><ele>643.0</ele><time>2026-04-18T10:26:21.046Z</time></trkpt><trkpt lat="42.9692678" lon="13.3819799"><ele>643.0</ele><time>2026-04-18T10:26:22.041Z</time></trkpt><trkpt lat="42.9693584" lon="13.3819659"><ele>643.0</ele><time>2026-04-18T10:26:23.032Z</time></trkpt><trkpt lat="42.9694713" lon="13.3819221"><ele>647.0</ele><time>2026-04-18T10:26:24.049Z</time></trkpt><trkpt lat="42.9695951" lon="13.3818735"><ele>651.0</ele><time>2026-04-18T10:26:25.057Z</time></trkpt><trkpt lat="42.9697006" lon="13.3818333"><ele>655.0</ele><time>2026-04-18T10:26:26.046Z</time></trkpt><trkpt lat="42.969785" lon="13.381786"><ele>659.0</ele><time>2026-04-18T10:26:27.065Z</time></trkpt><trkpt lat="42.969848" lon="13.3817171"><ele>663.0</ele><time>2026-04-18T10:26:28.029Z</time></trkpt><trkpt lat="42.9699003" lon="13.3816466"><ele>663.0</ele><time>2026-04-18T10:26:29.07Z</time></trkpt><trkpt lat="42.9699108" lon="13.3815267"><ele>663.0</ele><time>2026-04-18T10:26:30.052Z</time></trkpt><trkpt lat="42.9699263" lon="13.3813782"><ele>663.0</ele><time>2026-04-18T10:26:31.07Z</time></trkpt><trkpt lat="42.969958" lon="13.3811678"><ele>663.0</ele><time>2026-04-18T10:26:32.068Z</time></trkpt><trkpt lat="42.9700128" lon="13.3809913"><ele>663.5999999999999</ele><time>2026-04-18T10:26:33.021Z</time></trkpt><trkpt lat="42.9700636" lon="13.3808617"><ele>664.1999999999999</ele><time>2026-04-18T10:26:34.042Z</time></trkpt><trkpt lat="42.9701197" lon="13.3807688"><ele>664.8</ele><time>2026-04-18T10:26:35.039Z</time></trkpt><trkpt lat="42.9702017" lon="13.3807065"><ele>665.4</ele><time>2026-04-18T10:26:36.067Z</time></trkpt><trkpt lat="42.9703007" lon="13.3806746"><ele>666.0</ele><time>2026-04-18T10:26:37.068Z</time></trkpt><trkpt lat="42.9704143" lon="13.3806636"><ele>666.0</ele><time>2026-04-18T10:26:38.069Z</time></trkpt><trkpt lat="42.970537" lon="13.3806614"><ele>666.0</ele><time>2026-04-18T10:26:39.065Z</time></trkpt><trkpt lat="42.9706576" lon="13.380663"><ele>666.0</ele><time>2026-04-18T10:26:40.056Z</time></trkpt><trkpt lat="42.9707725" lon="13.3806668"><ele>666.0</ele><time>2026-04-18T10:26:41.053Z</time></trkpt><trkpt lat="42.9708747" lon="13.3806361"><ele>664.1999999999999</ele><time>2026-04-18T10:26:42.05Z</time></trkpt><trkpt lat="42.9709785" lon="13.3805678"><ele>662.4</ele><time>2026-04-18T10:26:43.055Z</time></trkpt><trkpt lat="42.9710702" lon="13.3804789"><ele>660.6</ele><time>2026-04-18T10:26:44.057Z</time></trkpt><trkpt lat="42.9711533" lon="13.3804295"><ele>658.8</ele><time>2026-04-18T10:26:45.053Z</time></trkpt><trkpt lat="42.9712053" lon="13.3803717"><ele>657.0</ele><time>2026-04-18T10:26:46.039Z</time></trkpt><trkpt lat="42.9712656" lon="13.3803302"><ele>657.0</ele><time>2026-04-18T10:26:47.071Z</time></trkpt><trkpt lat="42.9713242" lon="13.3802936"><ele>657.0</ele><time>2026-04-18T10:26:48.03Z</time></trkpt><trkpt lat="42.9714207" lon="13.3802452"><ele>657.0</ele><time>2026-04-18T10:26:50.023Z</time></trkpt><trkpt lat="42.9714905" lon="13.380227"><ele>657.0</ele><time>2026-04-18T10:26:52.025Z</time></trkpt><trkpt lat="42.9716311" lon="13.3801909"><ele>657.0</ele><time>2026-04-18T10:28:51.016Z</time></trkpt><trkpt lat="42.971696" lon="13.3802101"><ele>657.0</ele><time>2026-04-18T10:28:56.014Z</time></trkpt><trkpt lat="42.9716476" lon="13.380266"><ele>657.0</ele><time>2026-04-18T10:29:09.075Z</time></trkpt><trkpt lat="42.9715676" lon="13.3802389"><ele>657.0</ele><time>2026-04-18T10:29:12.066Z</time></trkpt><trkpt lat="42.9715046" lon="13.3802154"><ele>657.0</ele><time>2026-04-18T10:29:14.018Z</time></trkpt><trkpt lat="42.9714347" lon="13.3802393"><ele>657.0</ele><time>2026-04-18T10:29:16.046Z</time></trkpt><trkpt lat="42.971361" lon="13.3802701"><ele>657.0</ele><time>2026-04-18T10:29:18.055Z</time></trkpt><trkpt lat="42.9712761" lon="13.3803027"><ele>657.0</ele><time>2026-04-18T10:29:20.049Z</time></trkpt><trkpt lat="42.9711986" lon="13.3803438"><ele>657.0</ele><time>2026-04-18T10:29:24.038Z</time></trkpt><trkpt lat="42.9711354" lon="13.3804025"><ele>657.0</ele><time>2026-04-18T10:29:27.052Z</time></trkpt><trkpt lat="42.9710633" lon="13.380472"><ele>657.0</ele><time>2026-04-18T10:29:30.025Z</time></trkpt><trkpt lat="42.9709834" lon="13.3805427"><ele>657.0</ele><time>2026-04-18T10:29:33.048Z</time></trkpt><trkpt lat="42.9708868" lon="13.380608"><ele>657.0</ele><time>2026-04-18T10:29:34.987Z</time></trkpt><trkpt lat="42.9708125" lon="13.38065"><ele>657.0</ele><time>2026-04-18T10:29:37.033Z</time></trkpt><trkpt lat="42.9707377" lon="13.3806767"><ele>658.5</ele><time>2026-04-18T10:29:39.05Z</time></trkpt><trkpt lat="42.9706667" lon="13.380696"><ele>660.0</ele><time>2026-04-18T10:29:41.018Z</time></trkpt><trkpt lat="42.9705911" lon="13.3807008"><ele>661.5</ele><time>2026-04-18T10:29:42.981Z</time></trkpt><trkpt lat="42.9705046" lon="13.3807038"><ele>663.0</ele><time>2026-04-18T10:29:44.983Z</time></trkpt><trkpt lat="42.9704183" lon="13.3807169"><ele>664.5</ele><time>2026-04-18T10:29:46.985Z</time></trkpt><trkpt lat="42.9703551" lon="13.3807228"><ele>666.0</ele><time>2026-04-18T10:29:48.066Z</time></trkpt><trkpt lat="42.9702703" lon="13.3807257"><ele>666.0</ele><time>2026-04-18T10:29:50.01Z</time></trkpt><trkpt lat="42.9701987" lon="13.3807455"><ele>666.0</ele><time>2026-04-18T10:29:53.038Z</time></trkpt><trkpt lat="42.9701357" lon="13.3808099"><ele>666.0</ele><time>2026-04-18T10:29:57.042Z</time></trkpt><trkpt lat="42.9700721" lon="13.3809364"><ele>666.0</ele><time>2026-04-18T10:29:59.07Z</time></trkpt><trkpt lat="42.9700366" lon="13.381038"><ele>666.0</ele><time>2026-04-18T10:30:00.064Z</time></trkpt><trkpt lat="42.9700083" lon="13.3811505"><ele>666.0</ele><time>2026-04-18T10:30:01.11Z</time></trkpt><trkpt lat="42.9699827" lon="13.3812846"><ele>665.5</ele><time>2026-04-18T10:30:02.071Z</time></trkpt><trkpt lat="42.969962" lon="13.3814084"><ele>665.0</ele><time>2026-04-18T10:30:03.052Z</time></trkpt><trkpt lat="42.9699467" lon="13.3815153"><ele>664.5</ele><time>2026-04-18T10:30:04.07Z</time></trkpt><trkpt lat="42.9699365" lon="13.3816076"><ele>664.0</ele><time>2026-04-18T10:30:05.044Z</time></trkpt><trkpt lat="42.9698965" lon="13.3817473"><ele>663.5</ele><time>2026-04-18T10:30:07.027Z</time></trkpt><trkpt lat="42.9698212" lon="13.3818292"><ele>663.0</ele><time>2026-04-18T10:30:09.062Z</time></trkpt><trkpt lat="42.9697533" lon="13.381846"><ele>663.0</ele><time>2026-04-18T10:30:10.057Z</time></trkpt><trkpt lat="42.9696884" lon="13.3818639"><ele>663.0</ele><time>2026-04-18T10:30:11.067Z</time></trkpt><trkpt lat="42.9696057" lon="13.3818858"><ele>663.0</ele><time>2026-04-18T10:30:13.022Z</time></trkpt><trkpt lat="42.9696889" lon="13.3818781"><ele>663.0</ele><time>2026-04-18T10:30:21.047Z</time></trkpt><trkpt lat="42.9697985" lon="13.3818473"><ele>663.0</ele><time>2026-04-18T10:30:23.06Z</time></trkpt><trkpt lat="42.9698917" lon="13.3817237"><ele>663.0</ele><time>2026-04-18T10:30:25.053Z</time></trkpt><trkpt lat="42.9699216" lon="13.3816106"><ele>663.0</ele><time>2026-04-18T10:30:26.063Z</time></trkpt><trkpt lat="42.9699427" lon="13.3814642"><ele>663.0</ele><time>2026-04-18T10:30:27.044Z</time></trkpt><trkpt lat="42.9699689" lon="13.3812978"><ele>663.0</ele><time>2026-04-18T10:30:28.043Z</time></trkpt><trkpt lat="42.970001" lon="13.3811399"><ele>663.0</ele><time>2026-04-18T10:30:29.026Z</time></trkpt><trkpt lat="42.9700455" lon="13.3809907"><ele>663.5999999999999</ele><time>2026-04-18T10:30:30.048Z</time></trkpt><trkpt lat="42.9700983" lon="13.3808722"><ele>664.1999999999999</ele><time>2026-04-18T10:30:31.044Z</time></trkpt><trkpt lat="42.9701593" lon="13.3807845"><ele>664.8</ele><time>2026-04-18T10:30:32.05Z</time></trkpt><trkpt lat="42.970233" lon="13.3807292"><ele>665.4</ele><time>2026-04-18T10:30:33.058Z</time></trkpt><trkpt lat="42.9703093" lon="13.3806717"><ele>666.0</ele><time>2026-04-18T10:30:34.024Z</time></trkpt><trkpt lat="42.9704173" lon="13.3806567"><ele>666.0</ele><time>2026-04-18T10:30:35.056Z</time></trkpt><trkpt lat="42.970542" lon="13.3806543"><ele>666.0</ele><time>2026-04-18T10:30:36.061Z</time></trkpt><trkpt lat="42.9706681" lon="13.3806514"><ele>666.0</ele><time>2026-04-18T10:30:37.047Z</time></trkpt><trkpt lat="42.9707876" lon="13.3806563"><ele>666.0</ele><time>2026-04-18T10:30:38.061Z</time></trkpt><trkpt lat="42.9708892" lon="13.3806371"><ele>663.75</ele><time>2026-04-18T10:30:39.069Z</time></trkpt><trkpt lat="42.9709826" lon="13.3805808"><ele>661.5</ele><time>2026-04-18T10:30:40.069Z</time></trkpt><trkpt lat="42.9710883" lon="13.3804963"><ele>659.25</ele><time>2026-04-18T10:30:41.026Z</time></trkpt><trkpt lat="42.9712021" lon="13.3804109"><ele>657.0</ele><time>2026-04-18T10:30:42.06Z</time></trkpt><trkpt lat="42.9713008" lon="13.3803331"><ele>657.0</ele><time>2026-04-18T10:30:43.042Z</time></trkpt><trkpt lat="42.9713805" lon="13.380288"><ele>657.0</ele><time>2026-04-18T10:30:44.027Z</time></trkpt><trkpt lat="42.9714471" lon="13.3802595"><ele>657.0</ele><time>2026-04-18T10:30:45.062Z</time></trkpt><trkpt lat="42.9715255" lon="13.3802393"><ele>657.0</ele><time>2026-04-18T10:30:47.056Z</time></trkpt><trkpt lat="42.9715855" lon="13.3802114"><ele>657.0</ele><time>2026-04-18T10:30:51.023Z</time></trkpt><trkpt lat="42.971638" lon="13.3801243"><ele>657.0</ele><time>2026-04-18T10:31:32.061Z</time></trkpt><trkpt lat="42.9716914" lon="13.3800474"><ele>657.0</ele><time>2026-04-18T10:31:35.041Z</time></trkpt><trkpt lat="42.971635" lon="13.3801059"><ele>657.0</ele><time>2026-04-18T10:33:02Z</time></trkpt><trkpt lat="42.9716086" lon="13.3802068"><ele>657.0</ele><time>2026-04-18T10:33:04.995Z</time></trkpt><trkpt lat="42.9716273" lon="13.3803277"><ele>657.0</ele><time>2026-04-18T10:33:08.012Z</time></trkpt><trkpt lat="42.9716161" lon="13.3804271"><ele>657.0</ele><time>2026-04-18T10:33:09.999Z</time></trkpt><trkpt lat="42.9715954" lon="13.3805437"><ele>657.0</ele><time>2026-04-18T10:33:12.001Z</time></trkpt><trkpt lat="42.9715621" lon="13.3806992"><ele>656.6</ele><time>2026-04-18T10:33:14.057Z</time></trkpt><trkpt lat="42.9715425" lon="13.3808376"><ele>656.2</ele><time>2026-04-18T10:33:16.041Z</time></trkpt><trkpt lat="42.9715238" lon="13.3809664"><ele>655.8</ele><time>2026-04-18T10:33:18.054Z</time></trkpt><trkpt lat="42.9715017" lon="13.3811243"><ele>655.4</ele><time>2026-04-18T10:33:20.042Z</time></trkpt><trkpt lat="42.9714952" lon="13.3812112"><ele>655.0</ele><time>2026-04-18T10:33:21.052Z</time></trkpt><trkpt lat="42.9715043" lon="13.3813573"><ele>655.0</ele><time>2026-04-18T10:33:23.05Z</time></trkpt><trkpt lat="42.9715247" lon="13.3814766"><ele>655.0</ele><time>2026-04-18T10:33:25.031Z</time></trkpt><trkpt lat="42.9715625" lon="13.3815817"><ele>655.0</ele><time>2026-04-18T10:33:27.025Z</time></trkpt><trkpt lat="42.9716105" lon="13.3816855"><ele>655.0</ele><time>2026-04-18T10:33:29.055Z</time></trkpt><trkpt lat="42.9716485" lon="13.3817792"><ele>655.0</ele><time>2026-04-18T10:33:31.065Z</time></trkpt><trkpt lat="42.9716797" lon="13.3818547"><ele>655.0</ele><time>2026-04-18T10:33:33.042Z</time></trkpt><trkpt lat="42.9717246" lon="13.3819336"><ele>651.2</ele><time>2026-04-18T10:33:36.054Z</time></trkpt><trkpt lat="42.9717732" lon="13.3820405"><ele>647.4</ele><time>2026-04-18T10:33:39.046Z</time></trkpt><trkpt lat="42.9718099" lon="13.3821321"><ele>643.6</ele><time>2026-04-18T10:33:41.043Z</time></trkpt><trkpt lat="42.9718476" lon="13.3822401"><ele>639.8</ele><time>2026-04-18T10:33:43.048Z</time></trkpt><trkpt lat="42.9719091" lon="13.3823653"><ele>636.0</ele><time>2026-04-18T10:33:45.028Z</time></trkpt><trkpt lat="42.9719705" lon="13.3824862"><ele>636.0</ele><time>2026-04-18T10:33:47.086Z</time></trkpt><trkpt lat="42.9720241" lon="13.3826087"><ele>636.0</ele><time>2026-04-18T10:33:49.063Z</time></trkpt><trkpt lat="42.9720786" lon="13.3827316"><ele>636.0</ele><time>2026-04-18T10:33:51.05Z</time></trkpt><trkpt lat="42.9721607" lon="13.3828606"><ele>636.0</ele><time>2026-04-18T10:33:53.106Z</time></trkpt><trkpt lat="42.9722377" lon="13.3829756"><ele>636.0</ele><time>2026-04-18T10:33:55.023Z</time></trkpt><trkpt lat="42.9723227" lon="13.3830835"><ele>638.5</ele><time>2026-04-18T10:33:57.061Z</time></trkpt><trkpt lat="42.9724071" lon="13.3831846"><ele>641.0</ele><time>2026-04-18T10:33:59.047Z</time></trkpt><trkpt lat="42.9724955" lon="13.3832967"><ele>643.5</ele><time>2026-04-18T10:34:01.049Z</time></trkpt><trkpt lat="42.9725979" lon="13.3833937"><ele>646.0</ele><time>2026-04-18T10:34:03.066Z</time></trkpt><trkpt lat="42.9727106" lon="13.3834277"><ele>646.4</ele><time>2026-04-18T10:34:05.028Z</time></trkpt><trkpt lat="42.9728334" lon="13.3834265"><ele>646.8</ele><time>2026-04-18T10:34:07.068Z</time></trkpt><trkpt lat="42.9729026" lon="13.3834001"><ele>647.1999999999999</ele><time>2026-04-18T10:34:08.066Z</time></trkpt><trkpt lat="42.9729777" lon="13.3833647"><ele>647.5999999999999</ele><time>2026-04-18T10:34:09.068Z</time></trkpt><trkpt lat="42.9730614" lon="13.383319"><ele>648.0</ele><time>2026-04-18T10:34:10.023Z</time></trkpt><trkpt lat="42.9731507" lon="13.3832718"><ele>648.0</ele><time>2026-04-18T10:34:11.058Z</time></trkpt><trkpt lat="42.9732537" lon="13.3832171"><ele>648.0</ele><time>2026-04-18T10:34:12.059Z</time></trkpt><trkpt lat="42.973375" lon="13.3831477"><ele>648.0</ele><time>2026-04-18T10:34:13.066Z</time></trkpt><trkpt lat="42.9734844" lon="13.3830848"><ele>648.0</ele><time>2026-04-18T10:34:14.074Z</time></trkpt><trkpt lat="42.9735835" lon="13.3830274"><ele>642.8</ele><time>2026-04-18T10:34:15.022Z</time></trkpt><trkpt lat="42.9736805" lon="13.3829745"><ele>637.5999999999999</ele><time>2026-04-18T10:34:16.058Z</time></trkpt><trkpt lat="42.973775" lon="13.3829296"><ele>632.4000000000001</ele><time>2026-04-18T10:34:17.069Z</time></trkpt><trkpt lat="42.973863" lon="13.382896"><ele>627.2</ele><time>2026-04-18T10:34:18.047Z</time></trkpt><trkpt lat="42.9739512" lon="13.3828617"><ele>622.0</ele><time>2026-04-18T10:34:19.06Z</time></trkpt><trkpt lat="42.9740448" lon="13.3828332"><ele>622.0</ele><time>2026-04-18T10:34:20.038Z</time></trkpt><trkpt lat="42.9741294" lon="13.3828066"><ele>622.0</ele><time>2026-04-18T10:34:21.044Z</time></trkpt><trkpt lat="42.9742062" lon="13.3827803"><ele>622.0</ele><time>2026-04-18T10:34:22.056Z</time></trkpt><trkpt lat="42.9742766" lon="13.3827566"><ele>622.0</ele><time>2026-04-18T10:34:23.057Z</time></trkpt><trkpt lat="42.9743423" lon="13.3827356"><ele>622.0</ele><time>2026-04-18T10:34:24.046Z</time></trkpt><trkpt lat="42.9744623" lon="13.3827043"><ele>622.0</ele><time>2026-04-18T10:34:26.056Z</time></trkpt><trkpt lat="42.9745754" lon="13.3826973"><ele>620.6</ele><time>2026-04-18T10:34:28.061Z</time></trkpt><trkpt lat="42.9746855" lon="13.3827439"><ele>619.2</ele><time>2026-04-18T10:34:30.026Z</time></trkpt><trkpt lat="42.9747938" lon="13.3828499"><ele>617.8</ele><time>2026-04-18T10:34:32.108Z</time></trkpt><trkpt lat="42.9748442" lon="13.3829168"><ele>616.4</ele><time>2026-04-18T10:34:33.059Z</time></trkpt><trkpt lat="42.9748928" lon="13.3829831"><ele>615.0</ele><time>2026-04-18T10:34:34.031Z</time></trkpt><trkpt lat="42.9749442" lon="13.3830374"><ele>615.1428571428571</ele><time>2026-04-18T10:34:35.02Z</time></trkpt><trkpt lat="42.9750031" lon="13.3830756"><ele>615.2857142857143</ele><time>2026-04-18T10:34:36.057Z</time></trkpt><trkpt lat="42.9750686" lon="13.3830942"><ele>615.4285714285714</ele><time>2026-04-18T10:34:37.053Z</time></trkpt><trkpt lat="42.9751349" lon="13.3830905"><ele>615.5714285714286</ele><time>2026-04-18T10:34:38.048Z</time></trkpt><trkpt lat="42.9752016" lon="13.383069"><ele>615.7142857142858</ele><time>2026-04-18T10:34:39.065Z</time></trkpt><trkpt lat="42.9752657" lon="13.3830327"><ele>615.8571428571429</ele><time>2026-04-18T10:34:40.019Z</time></trkpt><trkpt lat="42.9753372" lon="13.3829938"><ele>616.0</ele><time>2026-04-18T10:34:41.053Z</time></trkpt><trkpt lat="42.9754107" lon="13.3829743"><ele>616.0</ele><time>2026-04-18T10:34:42.066Z</time></trkpt><trkpt lat="42.9754816" lon="13.3829581"><ele>616.0</ele><time>2026-04-18T10:34:43.023Z</time></trkpt><trkpt lat="42.9755517" lon="13.3829328"><ele>616.0</ele><time>2026-04-18T10:34:44.063Z</time></trkpt><trkpt lat="42.9756221" lon="13.382908"><ele>616.0</ele><time>2026-04-18T10:34:45.029Z</time></trkpt><trkpt lat="42.9756753" lon="13.3828559"><ele>616.0</ele><time>2026-04-18T10:34:46.047Z</time></trkpt><trkpt lat="42.9757572" lon="13.3827567"><ele>616.0</ele><time>2026-04-18T10:34:48.056Z</time></trkpt><trkpt lat="42.9758137" lon="13.382686"><ele>616.0</ele><time>2026-04-18T10:34:50.002Z</time></trkpt><trkpt lat="42.9758511" lon="13.3825919"><ele>616.0</ele><time>2026-04-18T10:34:54.035Z</time></trkpt><trkpt lat="42.9758929" lon="13.3824755"><ele>616.0</ele><time>2026-04-18T10:34:57.045Z</time></trkpt><trkpt lat="42.9759471" lon="13.3823561"><ele>616.0</ele><time>2026-04-18T10:34:59.053Z</time></trkpt><trkpt lat="42.9760099" lon="13.382253"><ele>616.0</ele><time>2026-04-18T10:35:01.067Z</time></trkpt><trkpt lat="42.9760635" lon="13.3822047"><ele>616.0</ele><time>2026-04-18T10:35:03.054Z</time></trkpt><trkpt lat="42.9761351" lon="13.3821713"><ele>614.0</ele><time>2026-04-18T10:35:05.04Z</time></trkpt><trkpt lat="42.9762013" lon="13.3821624"><ele>612.0</ele><time>2026-04-18T10:35:07.04Z</time></trkpt><trkpt lat="42.9762751" lon="13.3822215"><ele>610.0</ele><time>2026-04-18T10:35:12.036Z</time></trkpt><trkpt lat="42.9763272" lon="13.3823066"><ele>608.0</ele><time>2026-04-18T10:35:14.033Z</time></trkpt><trkpt lat="42.976348" lon="13.3823997"><ele>606.0</ele><time>2026-04-18T10:35:16.028Z</time></trkpt><trkpt lat="42.9763078" lon="13.382313"><ele>604.0</ele><time>2026-04-18T10:35:40.037Z</time></trkpt><trkpt lat="42.9762534" lon="13.3822342"><ele>604.0</ele><time>2026-04-18T10:35:42.025Z</time></trkpt><trkpt lat="42.976176" lon="13.382172"><ele>604.0</ele><time>2026-04-18T10:35:44.018Z</time></trkpt><trkpt lat="42.9760772" lon="13.3822081"><ele>604.0</ele><time>2026-04-18T10:35:46.064Z</time></trkpt><trkpt lat="42.9760118" lon="13.3822877"><ele>604.0</ele><time>2026-04-18T10:35:48.073Z</time></trkpt><trkpt lat="42.9759412" lon="13.382356"><ele>604.0</ele><time>2026-04-18T10:36:44.027Z</time></trkpt><trkpt lat="42.9760189" lon="13.3822865"><ele>604.0</ele><time>2026-04-18T10:37:01.028Z</time></trkpt><trkpt lat="42.9761033" lon="13.3821987"><ele>604.0</ele><time>2026-04-18T10:37:03.053Z</time></trkpt><trkpt lat="42.9762044" lon="13.3821944"><ele>604.0</ele><time>2026-04-18T10:37:05.057Z</time></trkpt><trkpt lat="42.9763188" lon="13.3823009"><ele>604.0</ele><time>2026-04-18T10:37:07.06Z</time></trkpt><trkpt lat="42.9763865" lon="13.382411"><ele>604.0</ele><time>2026-04-18T10:37:08.056Z</time></trkpt><trkpt lat="42.976452" lon="13.3825187"><ele>604.0</ele><time>2026-04-18T10:37:09.046Z</time></trkpt><trkpt lat="42.9765133" lon="13.3826212"><ele>604.0</ele><time>2026-04-18T10:37:10.062Z</time></trkpt><trkpt lat="42.9765743" lon="13.3826964"><ele>604.0</ele><time>2026-04-18T10:37:11.066Z</time></trkpt><trkpt lat="42.9766337" lon="13.3827457"><ele>604.0</ele><time>2026-04-18T10:37:12.049Z</time></trkpt><trkpt lat="42.9766912" lon="13.3827943"><ele>604.0</ele><time>2026-04-18T10:37:13.07Z</time></trkpt><trkpt lat="42.976805" lon="13.3828134"><ele>602.6</ele><time>2026-04-18T10:37:15.052Z</time></trkpt><trkpt lat="42.9769199" lon="13.3827814"><ele>601.2</ele><time>2026-04-18T10:37:17.066Z</time></trkpt><trkpt lat="42.9769771" lon="13.3827363"><ele>599.8000000000001</ele><time>2026-04-18T10:37:18.044Z</time></trkpt><trkpt lat="42.9770764" lon="13.3826396"><ele>598.4</ele><time>2026-04-18T10:37:20.059Z</time></trkpt><trkpt lat="42.9771247" lon="13.3825824"><ele>597.0</ele><time>2026-04-18T10:37:21.051Z</time></trkpt><trkpt lat="42.9772142" lon="13.3824641"><ele>597.0</ele><time>2026-04-18T10:37:23.053Z</time></trkpt><trkpt lat="42.9772757" lon="13.3824045"><ele>597.0</ele><time>2026-04-18T10:37:24.048Z</time></trkpt><trkpt lat="42.9773454" lon="13.3823496"><ele>597.0</ele><time>2026-04-18T10:37:25.059Z</time></trkpt><trkpt lat="42.9774264" lon="13.3823009"><ele>597.0</ele><time>2026-04-18T10:37:26.064Z</time></trkpt><trkpt lat="42.9775133" lon="13.382263"><ele>597.0</ele><time>2026-04-18T10:37:27.042Z</time></trkpt><trkpt lat="42.9776015" lon="13.3822352"><ele>597.0</ele><time>2026-04-18T10:37:28.055Z</time></trkpt><trkpt lat="42.9776942" lon="13.3822145"><ele>596.0</ele><time>2026-04-18T10:37:29.077Z</time></trkpt><trkpt lat="42.977794" lon="13.3821976"><ele>595.0</ele><time>2026-04-18T10:37:30.043Z</time></trkpt><trkpt lat="42.9778957" lon="13.3821816"><ele>594.0</ele><time>2026-04-18T10:37:31.047Z</time></trkpt><trkpt lat="42.9779869" lon="13.3821598"><ele>593.0</ele><time>2026-04-18T10:37:32.065Z</time></trkpt><trkpt lat="42.9780697" lon="13.3821439"><ele>592.0</ele><time>2026-04-18T10:37:33.061Z</time></trkpt><trkpt lat="42.9781428" lon="13.3821547"><ele>592.0</ele><time>2026-04-18T10:37:34.047Z</time></trkpt><trkpt lat="42.9782114" lon="13.3822031"><ele>592.0</ele><time>2026-04-18T10:37:35.016Z</time></trkpt><trkpt lat="42.9782766" lon="13.382281"><ele>592.0</ele><time>2026-04-18T10:37:36.058Z</time></trkpt><trkpt lat="42.9783438" lon="13.3823866"><ele>592.0</ele><time>2026-04-18T10:37:37.034Z</time></trkpt><trkpt lat="42.9784071" lon="13.3825132"><ele>592.0</ele><time>2026-04-18T10:37:38.053Z</time></trkpt><trkpt lat="42.9784659" lon="13.3826379"><ele>593.1666666666667</ele><time>2026-04-18T10:37:39.042Z</time></trkpt><trkpt lat="42.9785231" lon="13.3827413"><ele>594.3333333333334</ele><time>2026-04-18T10:37:40.06Z</time></trkpt><trkpt lat="42.9785774" lon="13.382834"><ele>595.5</ele><time>2026-04-18T10:37:41.028Z</time></trkpt><trkpt lat="42.978638" lon="13.3829146"><ele>596.6666666666666</ele><time>2026-04-18T10:37:42.056Z</time></trkpt><trkpt lat="42.9787061" lon="13.3829671"><ele>597.8333333333333</ele><time>2026-04-18T10:37:43.058Z</time></trkpt><trkpt lat="42.978796" lon="13.3829965"><ele>599.0</ele><time>2026-04-18T10:37:44.053Z</time></trkpt><trkpt lat="42.978899" lon="13.3830254"><ele>599.0</ele><time>2026-04-18T10:37:45.056Z</time></trkpt><trkpt lat="42.9790354" lon="13.3830161"><ele>599.0</ele><time>2026-04-18T10:37:46.055Z</time></trkpt><trkpt lat="42.9791899" lon="13.3829924"><ele>599.0</ele><time>2026-04-18T10:37:47.065Z</time></trkpt><trkpt lat="42.9793236" lon="13.3829684"><ele>599.0</ele><time>2026-04-18T10:37:48.054Z</time></trkpt><trkpt lat="42.9794511" lon="13.3829491"><ele>596.4</ele><time>2026-04-18T10:37:49.043Z</time></trkpt><trkpt lat="42.9795634" lon="13.3829342"><ele>593.8</ele><time>2026-04-18T10:37:50.058Z</time></trkpt><trkpt lat="42.9796522" lon="13.3829271"><ele>591.2</ele><time>2026-04-18T10:37:51.057Z</time></trkpt><trkpt lat="42.9797361" lon="13.3829247"><ele>588.6</ele><time>2026-04-18T10:37:52.056Z</time></trkpt><trkpt lat="42.9798377" lon="13.3828853"><ele>586.0</ele><time>2026-04-18T10:37:54.048Z</time></trkpt><trkpt lat="42.9798777" lon="13.3828028"><ele>585.9999999999999</ele><time>2026-04-18T10:37:55.049Z</time></trkpt><trkpt lat="42.9799017" lon="13.3827034"><ele>586.0</ele><time>2026-04-18T10:37:56.029Z</time></trkpt><trkpt lat="42.9799199" lon="13.3825988"><ele>586.0</ele><time>2026-04-18T10:37:57.059Z</time></trkpt><trkpt lat="42.9799422" lon="13.3824998"><ele>586.0</ele><time>2026-04-18T10:37:58.055Z</time></trkpt><trkpt lat="42.9799613" lon="13.3824077"><ele>586.0</ele><time>2026-04-18T10:37:59.048Z</time></trkpt><trkpt lat="42.9799848" lon="13.3823123"><ele>585.9999999999999</ele><time>2026-04-18T10:38:00.066Z</time></trkpt><trkpt lat="42.9800103" lon="13.382219"><ele>586.0</ele><time>2026-04-18T10:38:01.028Z</time></trkpt><trkpt lat="42.9800441" lon="13.3821341"><ele>583.2</ele><time>2026-04-18T10:38:02.118Z</time></trkpt><trkpt lat="42.9800792" lon="13.3820569"><ele>580.4000000000001</ele><time>2026-04-18T10:38:03.056Z</time></trkpt><trkpt lat="42.9801208" lon="13.3819811"><ele>577.6</ele><time>2026-04-18T10:38:04.065Z</time></trkpt><trkpt lat="42.9802128" lon="13.381869"><ele>574.8000000000001</ele><time>2026-04-18T10:38:06.032Z</time></trkpt><trkpt lat="42.9803441" lon="13.3818226"><ele>572.0</ele><time>2026-04-18T10:38:08.046Z</time></trkpt><trkpt lat="42.9804281" lon="13.3818181"><ele>572.0</ele><time>2026-04-18T10:38:09.06Z</time></trkpt><trkpt lat="42.980509" lon="13.3818113"><ele>572.0</ele><time>2026-04-18T10:38:10.056Z</time></trkpt><trkpt lat="42.9805848" lon="13.3817922"><ele>572.0</ele><time>2026-04-18T10:38:11.037Z</time></trkpt><trkpt lat="42.980657" lon="13.3817539"><ele>572.0</ele><time>2026-04-18T10:38:12.072Z</time></trkpt><trkpt lat="42.980731" lon="13.3817134"><ele>572.0</ele><time>2026-04-18T10:38:13.063Z</time></trkpt><trkpt lat="42.9808028" lon="13.3816729"><ele>572.0</ele><time>2026-04-18T10:38:14.064Z</time></trkpt><trkpt lat="42.9808646" lon="13.3816224"><ele>573.8000000000001</ele><time>2026-04-18T10:38:15.078Z</time></trkpt><trkpt lat="42.9809286" lon="13.3815575"><ele>575.6</ele><time>2026-04-18T10:38:16.035Z</time></trkpt><trkpt lat="42.9810065" lon="13.3814755"><ele>577.4000000000001</ele><time>2026-04-18T10:38:17.072Z</time></trkpt><trkpt lat="42.9810943" lon="13.3813793"><ele>579.2</ele><time>2026-04-18T10:38:18.066Z</time></trkpt><trkpt lat="42.9811826" lon="13.3812919"><ele>581.0</ele><time>2026-04-18T10:38:19.055Z</time></trkpt><trkpt lat="42.9812848" lon="13.3811896"><ele>576.25</ele><time>2026-04-18T10:38:20.061Z</time></trkpt><trkpt lat="42.9814057" lon="13.3810718"><ele>571.5</ele><time>2026-04-18T10:38:21.021Z</time></trkpt><trkpt lat="42.9815156" lon="13.3809679"><ele>566.75</ele><time>2026-04-18T10:38:22.065Z</time></trkpt><trkpt lat="42.9816159" lon="13.3808752"><ele>562.0</ele><time>2026-04-18T10:38:23.061Z</time></trkpt><trkpt lat="42.98171" lon="13.3807668"><ele>562.0</ele><time>2026-04-18T10:38:24.068Z</time></trkpt><trkpt lat="42.9817944" lon="13.380658"><ele>562.0</ele><time>2026-04-18T10:38:25.063Z</time></trkpt><trkpt lat="42.981867" lon="13.3805634"><ele>562.0</ele><time>2026-04-18T10:38:26.028Z</time></trkpt><trkpt lat="42.9819328" lon="13.380481"><ele>562.0</ele><time>2026-04-18T10:38:27.063Z</time></trkpt><trkpt lat="42.9819998" lon="13.3804144"><ele>562.0</ele><time>2026-04-18T10:38:28.091Z</time></trkpt><trkpt lat="42.9820719" lon="13.3803535"><ele>559.8333333333334</ele><time>2026-04-18T10:38:29.077Z</time></trkpt><trkpt lat="42.982143" lon="13.3803123"><ele>557.6666666666667</ele><time>2026-04-18T10:38:30.082Z</time></trkpt><trkpt lat="42.9822136" lon="13.3802933"><ele>555.5</ele><time>2026-04-18T10:38:31.071Z</time></trkpt><trkpt lat="42.982291" lon="13.3802988"><ele>553.3333333333334</ele><time>2026-04-18T10:38:32.051Z</time></trkpt><trkpt lat="42.982366" lon="13.3803169"><ele>551.1666666666666</ele><time>2026-04-18T10:38:33.081Z</time></trkpt><trkpt lat="42.9824405" lon="13.3803328"><ele>549.0</ele><time>2026-04-18T10:38:34.057Z</time></trkpt><trkpt lat="42.9825157" lon="13.3803262"><ele>549.0</ele><time>2026-04-18T10:38:35.064Z</time></trkpt><trkpt lat="42.9825907" lon="13.380294"><ele>549.0</ele><time>2026-04-18T10:38:36.032Z</time></trkpt><trkpt lat="42.9826749" lon="13.3802558"><ele>549.0</ele><time>2026-04-18T10:38:37.069Z</time></trkpt><trkpt lat="42.9827528" lon="13.3801668"><ele>549.0</ele><time>2026-04-18T10:38:38.061Z</time></trkpt><trkpt lat="42.9828199" lon="13.3800779"><ele>549.0</ele><time>2026-04-18T10:38:39.071Z</time></trkpt><trkpt lat="42.9828766" lon="13.3799809"><ele>549.0</ele><time>2026-04-18T10:38:40.08Z</time></trkpt><trkpt lat="42.982933" lon="13.3798826"><ele>549.0</ele><time>2026-04-18T10:38:41.042Z</time></trkpt><trkpt lat="42.9829696" lon="13.3797345"><ele>549.0</ele><time>2026-04-18T10:38:42.052Z</time></trkpt><trkpt lat="42.9830008" lon="13.379598"><ele>549.0</ele><time>2026-04-18T10:38:43.076Z</time></trkpt><trkpt lat="42.9830226" lon="13.3794669"><ele>549.0</ele><time>2026-04-18T10:38:44.083Z</time></trkpt><trkpt lat="42.9830565" lon="13.3793535"><ele>547.2857142857142</ele><time>2026-04-18T10:38:45.054Z</time></trkpt><trkpt lat="42.9830965" lon="13.3792583"><ele>545.5714285714286</ele><time>2026-04-18T10:38:46.03Z</time></trkpt><trkpt lat="42.9831462" lon="13.3791952"><ele>543.8571428571429</ele><time>2026-04-18T10:38:47.067Z</time></trkpt><trkpt lat="42.9832089" lon="13.3791566"><ele>542.1428571428571</ele><time>2026-04-18T10:38:48.074Z</time></trkpt><trkpt lat="42.9832836" lon="13.3791371"><ele>540.4285714285714</ele><time>2026-04-18T10:38:49.058Z</time></trkpt><trkpt lat="42.9833541" lon="13.3791418"><ele>538.7142857142857</ele><time>2026-04-18T10:38:50.05Z</time></trkpt><trkpt lat="42.983428" lon="13.3791691"><ele>537.0</ele><time>2026-04-18T10:38:51.023Z</time></trkpt><trkpt lat="42.9835004" lon="13.3792224"><ele>535.0</ele><time>2026-04-18T10:38:52.051Z</time></trkpt><trkpt lat="42.9835695" lon="13.3792752"><ele>533.0</ele><time>2026-04-18T10:38:53.078Z</time></trkpt><trkpt lat="42.9836407" lon="13.3793096"><ele>531.0</ele><time>2026-04-18T10:38:54.122Z</time></trkpt><trkpt lat="42.9837243" lon="13.3793135"><ele>529.0</ele><time>2026-04-18T10:38:55.059Z</time></trkpt><trkpt lat="42.9838282" lon="13.3792949"><ele>527.0</ele><time>2026-04-18T10:38:56.042Z</time></trkpt><trkpt lat="42.9839597" lon="13.3792478"><ele>527.0</ele><time>2026-04-18T10:38:57.068Z</time></trkpt><trkpt lat="42.9840837" lon="13.379194"><ele>527.0</ele><time>2026-04-18T10:38:58.086Z</time></trkpt><trkpt lat="42.9841925" lon="13.3791484"><ele>527.0</ele><time>2026-04-18T10:38:59.043Z</time></trkpt><trkpt lat="42.9842705" lon="13.3791154"><ele>527.0</ele><time>2026-04-18T10:39:00.124Z</time></trkpt><trkpt lat="42.9843354" lon="13.3790911"><ele>527.0</ele><time>2026-04-18T10:39:01.043Z</time></trkpt><trkpt lat="42.9843997" lon="13.3791039"><ele>524.4</ele><time>2026-04-18T10:39:02.059Z</time></trkpt><trkpt lat="42.9844696" lon="13.3791263"><ele>521.8000000000001</ele><time>2026-04-18T10:39:03.058Z</time></trkpt><trkpt lat="42.9845422" lon="13.3792273"><ele>519.2</ele><time>2026-04-18T10:39:04.058Z</time></trkpt><trkpt lat="42.9846265" lon="13.3793476"><ele>516.6</ele><time>2026-04-18T10:39:05.079Z</time></trkpt><trkpt lat="42.9847129" lon="13.3794501"><ele>514.0</ele><time>2026-04-18T10:39:06.068Z</time></trkpt><trkpt lat="42.9847982" lon="13.3795301"><ele>514.0</ele><time>2026-04-18T10:39:07.027Z</time></trkpt><trkpt lat="42.9848755" lon="13.3796006"><ele>514.0</ele><time>2026-04-18T10:39:08.028Z</time></trkpt><trkpt lat="42.984951" lon="13.3796503"><ele>514.0</ele><time>2026-04-18T10:39:09.033Z</time></trkpt><trkpt lat="42.9850225" lon="13.3796805"><ele>514.0</ele><time>2026-04-18T10:39:10.021Z</time></trkpt><trkpt lat="42.9850909" lon="13.3796909"><ele>514.0</ele><time>2026-04-18T10:39:11.033Z</time></trkpt><trkpt lat="42.9851586" lon="13.3796855"><ele>514.0</ele><time>2026-04-18T10:39:12.035Z</time></trkpt><trkpt lat="42.985234" lon="13.3796583"><ele>511.00000000000006</ele><time>2026-04-18T10:39:13.071Z</time></trkpt><trkpt lat="42.9853045" lon="13.3796194"><ele>508.0</ele><time>2026-04-18T10:39:14.057Z</time></trkpt><trkpt lat="42.9853607" lon="13.3795756"><ele>505.0</ele><time>2026-04-18T10:39:15.053Z</time></trkpt><trkpt lat="42.9854335" lon="13.3794656"><ele>502.0</ele><time>2026-04-18T10:39:17.064Z</time></trkpt><trkpt lat="42.9854582" lon="13.3792987"><ele>499.00000000000006</ele><time>2026-04-18T10:39:19.071Z</time></trkpt><trkpt lat="42.9854613" lon="13.379203"><ele>496.0</ele><time>2026-04-18T10:39:20.1Z</time></trkpt><trkpt lat="42.9854645" lon="13.3791064"><ele>496.0</ele><time>2026-04-18T10:39:21.078Z</time></trkpt><trkpt lat="42.9854703" lon="13.3790133"><ele>496.00000000000006</ele><time>2026-04-18T10:39:22.066Z</time></trkpt><trkpt lat="42.9854756" lon="13.3789226"><ele>496.0</ele><time>2026-04-18T10:39:23.067Z</time></trkpt><trkpt lat="42.9854824" lon="13.3788315"><ele>496.0</ele><time>2026-04-18T10:39:24.084Z</time></trkpt><trkpt lat="42.9854912" lon="13.378743"><ele>496.00000000000006</ele><time>2026-04-18T10:39:25.071Z</time></trkpt><trkpt lat="42.9855084" lon="13.3786563"><ele>496.0</ele><time>2026-04-18T10:39:26.081Z</time></trkpt><trkpt lat="42.9855303" lon="13.3785722"><ele>496.0</ele><time>2026-04-18T10:39:27.034Z</time></trkpt><trkpt lat="42.9855535" lon="13.3784806"><ele>496.0</ele><time>2026-04-18T10:39:28.021Z</time></trkpt><trkpt lat="42.9855768" lon="13.3783854"><ele>496.00000000000006</ele><time>2026-04-18T10:39:29.042Z</time></trkpt><trkpt lat="42.9856049" lon="13.3782939"><ele>496.0</ele><time>2026-04-18T10:39:30.027Z</time></trkpt><trkpt lat="42.985637" lon="13.378205"><ele>496.0</ele><time>2026-04-18T10:39:31.042Z</time></trkpt><trkpt lat="42.9856682" lon="13.3781186"><ele>496.00000000000006</ele><time>2026-04-18T10:39:32.024Z</time></trkpt><trkpt lat="42.9856953" lon="13.3780294"><ele>496.0</ele><time>2026-04-18T10:39:33.026Z</time></trkpt><trkpt lat="42.9857213" lon="13.3779396"><ele>496.0</ele><time>2026-04-18T10:39:34.023Z</time></trkpt><trkpt lat="42.9857326" lon="13.3777633"><ele>494.6666666666667</ele><time>2026-04-18T10:39:36.054Z</time></trkpt><trkpt lat="42.9857183" lon="13.3776763"><ele>493.33333333333337</ele><time>2026-04-18T10:39:37.041Z</time></trkpt><trkpt lat="42.9856849" lon="13.3775841"><ele>492.0</ele><time>2026-04-18T10:39:38.109Z</time></trkpt><trkpt lat="42.9856391" lon="13.3774872"><ele>490.66666666666663</ele><time>2026-04-18T10:39:39.033Z</time></trkpt><trkpt lat="42.9855833" lon="13.3773867"><ele>489.3333333333333</ele><time>2026-04-18T10:39:40.081Z</time></trkpt><trkpt lat="42.9855245" lon="13.3772925"><ele>488.0</ele><time>2026-04-18T10:39:41.072Z</time></trkpt><trkpt lat="42.9854667" lon="13.3771987"><ele>485.99999999999994</ele><time>2026-04-18T10:39:42.031Z</time></trkpt><trkpt lat="42.9854186" lon="13.3771004"><ele>484.0</ele><time>2026-04-18T10:39:43.045Z</time></trkpt><trkpt lat="42.9853849" lon="13.3769907"><ele>482.0</ele><time>2026-04-18T10:39:44.056Z</time></trkpt><trkpt lat="42.985358" lon="13.3768811"><ele>480.0</ele><time>2026-04-18T10:39:45.074Z</time></trkpt><trkpt lat="42.9853291" lon="13.3767832"><ele>477.99999999999994</ele><time>2026-04-18T10:39:46.073Z</time></trkpt><trkpt lat="42.9852893" lon="13.3766947"><ele>476.0</ele><time>2026-04-18T10:39:47.056Z</time></trkpt><trkpt lat="42.9852367" lon="13.3766134"><ele>476.0</ele><time>2026-04-18T10:39:48.082Z</time></trkpt><trkpt lat="42.9851734" lon="13.376546"><ele>476.0</ele><time>2026-04-18T10:39:49.03Z</time></trkpt><trkpt lat="42.9850879" lon="13.3764718"><ele>476.0</ele><time>2026-04-18T10:39:50.066Z</time></trkpt><trkpt lat="42.984999" lon="13.3763844"><ele>476.0</ele><time>2026-04-18T10:39:51.06Z</time></trkpt><trkpt lat="42.9849179" lon="13.3762706"><ele>476.0</ele><time>2026-04-18T10:39:52.074Z</time></trkpt><trkpt lat="42.9848519" lon="13.3761432"><ele>473.99999999999994</ele><time>2026-04-18T10:39:53.074Z</time></trkpt><trkpt lat="42.9847959" lon="13.3760326"><ele>472.0</ele><time>2026-04-18T10:39:54.064Z</time></trkpt><trkpt lat="42.984742" lon="13.3759433"><ele>470.0</ele><time>2026-04-18T10:39:55.061Z</time></trkpt><trkpt lat="42.9846903" lon="13.3758614"><ele>468.0</ele><time>2026-04-18T10:39:56.076Z</time></trkpt><trkpt lat="42.9846152" lon="13.3758397"><ele>465.99999999999994</ele><time>2026-04-18T10:39:57.046Z</time></trkpt><trkpt lat="42.9845227" lon="13.3758452"><ele>464.0</ele><time>2026-04-18T10:39:58.069Z</time></trkpt><trkpt lat="42.9844121" lon="13.3758801"><ele>464.0</ele><time>2026-04-18T10:39:59.06Z</time></trkpt><trkpt lat="42.9843007" lon="13.3759168"><ele>464.0</ele><time>2026-04-18T10:40:00.062Z</time></trkpt><trkpt lat="42.9841998" lon="13.3759547"><ele>464.0</ele><time>2026-04-18T10:40:01.057Z</time></trkpt><trkpt lat="42.9841123" lon="13.375977"><ele>464.0</ele><time>2026-04-18T10:40:02.074Z</time></trkpt><trkpt lat="42.9840399" lon="13.3759817"><ele>464.0</ele><time>2026-04-18T10:40:03.071Z</time></trkpt><trkpt lat="42.9839325" lon="13.3759638"><ele>464.0</ele><time>2026-04-18T10:40:05.06Z</time></trkpt><trkpt lat="42.983893" lon="13.3758331"><ele>464.0</ele><time>2026-04-18T10:40:07.03Z</time></trkpt><trkpt lat="42.9840011" lon="13.3757189"><ele>464.0</ele><time>2026-04-18T10:40:09.04Z</time></trkpt><trkpt lat="42.9840984" lon="13.3756789"><ele>464.0</ele><time>2026-04-18T10:40:10.049Z</time></trkpt><trkpt lat="42.9842125" lon="13.3756335"><ele>464.0</ele><time>2026-04-18T10:40:11.037Z</time></trkpt><trkpt lat="42.9843424" lon="13.375582"><ele>464.0</ele><time>2026-04-18T10:40:12.056Z</time></trkpt><trkpt lat="42.9844546" lon="13.3754948"><ele>464.0</ele><time>2026-04-18T10:40:13.056Z</time></trkpt><trkpt lat="42.9845534" lon="13.3754159"><ele>464.0</ele><time>2026-04-18T10:40:14.064Z</time></trkpt><trkpt lat="42.984649" lon="13.3753823"><ele>461.49999999999994</ele><time>2026-04-18T10:40:15.057Z</time></trkpt><trkpt lat="42.9847287" lon="13.3753462"><ele>459.0</ele><time>2026-04-18T10:40:16.059Z</time></trkpt><trkpt lat="42.9848003" lon="13.375309"><ele>456.5</ele><time>2026-04-18T10:40:17.102Z</time></trkpt><trkpt lat="42.984864" lon="13.3752605"><ele>454.0</ele><time>2026-04-18T10:40:18.095Z</time></trkpt><trkpt lat="42.9849249" lon="13.3751897"><ele>451.49999999999994</ele><time>2026-04-18T10:40:19.051Z</time></trkpt><trkpt lat="42.984992" lon="13.3750882"><ele>449.0</ele><time>2026-04-18T10:40:20.06Z</time></trkpt><trkpt lat="42.985073" lon="13.3749754"><ele>448.2</ele><time>2026-04-18T10:40:21.056Z</time></trkpt><trkpt lat="42.9851484" lon="13.3748745"><ele>447.4</ele><time>2026-04-18T10:40:22.066Z</time></trkpt><trkpt lat="42.9852172" lon="13.3747799"><ele>446.6</ele><time>2026-04-18T10:40:23.036Z</time></trkpt><trkpt lat="42.9852857" lon="13.3746862"><ele>445.8</ele><time>2026-04-18T10:40:24.098Z</time></trkpt><trkpt lat="42.9853992" lon="13.3746053"><ele>445.0</ele><time>2026-04-18T10:40:25.073Z</time></trkpt><trkpt lat="42.985508" lon="13.3745467"><ele>442.4</ele><time>2026-04-18T10:40:26.078Z</time></trkpt><trkpt lat="42.9856107" lon="13.3745082"><ele>439.8</ele><time>2026-04-18T10:40:27.067Z</time></trkpt><trkpt lat="42.985711" lon="13.3744827"><ele>437.20000000000005</ele><time>2026-04-18T10:40:28.07Z</time></trkpt><trkpt lat="42.985804" lon="13.374466"><ele>434.6</ele><time>2026-04-18T10:40:29.063Z</time></trkpt><trkpt lat="42.9858863" lon="13.3744547"><ele>432.0</ele><time>2026-04-18T10:40:30.071Z</time></trkpt><trkpt lat="42.9859586" lon="13.3744408"><ele>431.20000000000005</ele><time>2026-04-18T10:40:31.069Z</time></trkpt><trkpt lat="42.986024" lon="13.3744205"><ele>430.40000000000003</ele><time>2026-04-18T10:40:32.068Z</time></trkpt><trkpt lat="42.9861221" lon="13.3743467"><ele>429.59999999999997</ele><time>2026-04-18T10:40:34.051Z</time></trkpt><trkpt lat="42.9861855" lon="13.3742348"><ele>428.79999999999995</ele><time>2026-04-18T10:40:36.066Z</time></trkpt><trkpt lat="42.986225" lon="13.3741215"><ele>428.0</ele><time>2026-04-18T10:40:38.067Z</time></trkpt><trkpt lat="42.9862518" lon="13.3740081"><ele>428.0</ele><time>2026-04-18T10:40:39.992Z</time></trkpt><trkpt lat="42.9862746" lon="13.3739078"><ele>427.99999999999994</ele><time>2026-04-18T10:40:42.038Z</time></trkpt><trkpt lat="42.9863108" lon="13.3738113"><ele>427.99999999999994</ele><time>2026-04-18T10:40:44.011Z</time></trkpt><trkpt lat="42.9863488" lon="13.3737106"><ele>428.0</ele><time>2026-04-18T10:40:46.042Z</time></trkpt><trkpt lat="42.9863883" lon="13.3735884"><ele>428.0</ele><time>2026-04-18T10:40:48.045Z</time></trkpt><trkpt lat="42.9864137" lon="13.3734146"><ele>425.79999999999995</ele><time>2026-04-18T10:40:50.044Z</time></trkpt><trkpt lat="42.9864318" lon="13.3732737"><ele>423.59999999999997</ele><time>2026-04-18T10:40:51.05Z</time></trkpt><trkpt lat="42.9864663" lon="13.3731195"><ele>421.4</ele><time>2026-04-18T10:40:52.069Z</time></trkpt><trkpt lat="42.9865018" lon="13.3729827"><ele>419.20000000000005</ele><time>2026-04-18T10:40:53.139Z</time></trkpt><trkpt lat="42.9865267" lon="13.3728495"><ele>417.0</ele><time>2026-04-18T10:40:54.067Z</time></trkpt><trkpt lat="42.9865366" lon="13.3727198"><ele>415.6666666666667</ele><time>2026-04-18T10:40:55.059Z</time></trkpt><trkpt lat="42.9865354" lon="13.3726066"><ele>414.33333333333337</ele><time>2026-04-18T10:40:56.066Z</time></trkpt><trkpt lat="42.9865423" lon="13.3724935"><ele>413.0</ele><time>2026-04-18T10:40:57.066Z</time></trkpt><trkpt lat="42.9865693" lon="13.3723899"><ele>411.6666666666667</ele><time>2026-04-18T10:40:58.078Z</time></trkpt><trkpt lat="42.9865998" lon="13.3723008"><ele>410.33333333333337</ele><time>2026-04-18T10:40:59.119Z</time></trkpt><trkpt lat="42.9866331" lon="13.3722172"><ele>409.0</ele><time>2026-04-18T10:41:00.066Z</time></trkpt><trkpt lat="42.9866645" lon="13.3721315"><ele>407.6666666666667</ele><time>2026-04-18T10:41:01.044Z</time></trkpt><trkpt lat="42.9866949" lon="13.3720464"><ele>406.33333333333337</ele><time>2026-04-18T10:41:02.065Z</time></trkpt><trkpt lat="42.986724" lon="13.3719571"><ele>405.0</ele><time>2026-04-18T10:41:03.078Z</time></trkpt><trkpt lat="42.9867504" lon="13.3718753"><ele>403.66666666666663</ele><time>2026-04-18T10:41:04.065Z</time></trkpt><trkpt lat="42.9867872" lon="13.3717321"><ele>402.3333333333333</ele><time>2026-04-18T10:41:06.078Z</time></trkpt><trkpt lat="42.986808" lon="13.3716366"><ele>401.0</ele><time>2026-04-18T10:41:08.076Z</time></trkpt><trkpt lat="42.9867854" lon="13.3715555"><ele>400.99999999999994</ele><time>2026-04-18T10:41:12.031Z</time></trkpt><trkpt lat="42.9867325" lon="13.3714821"><ele>401.0</ele><time>2026-04-18T10:41:31.029Z</time></trkpt><trkpt lat="42.9866388" lon="13.3714791"><ele>401.0</ele><time>2026-04-18T10:41:33.034Z</time></trkpt><trkpt lat="42.986576" lon="13.3714958"><ele>401.0</ele><time>2026-04-18T10:41:34.056Z</time></trkpt><trkpt lat="42.9865061" lon="13.3715148"><ele>400.99999999999994</ele><time>2026-04-18T10:41:35.071Z</time></trkpt><trkpt lat="42.9864231" lon="13.3715342"><ele>401.0</ele><time>2026-04-18T10:41:36.049Z</time></trkpt><trkpt lat="42.9863345" lon="13.3715581"><ele>400.4</ele><time>2026-04-18T10:41:37.027Z</time></trkpt><trkpt lat="42.9862417" lon="13.3715821"><ele>399.8</ele><time>2026-04-18T10:41:38.094Z</time></trkpt><trkpt lat="42.9861489" lon="13.3716058"><ele>399.2</ele><time>2026-04-18T10:41:39.024Z</time></trkpt><trkpt lat="42.9860568" lon="13.3716286"><ele>398.59999999999997</ele><time>2026-04-18T10:41:40.021Z</time></trkpt><trkpt lat="42.9859696" lon="13.3716525"><ele>398.0</ele><time>2026-04-18T10:41:41.023Z</time></trkpt><trkpt lat="42.9858864" lon="13.3716791"><ele>396.99999999999994</ele><time>2026-04-18T10:41:42.06Z</time></trkpt><trkpt lat="42.9858021" lon="13.371704"><ele>396.0</ele><time>2026-04-18T10:41:43.065Z</time></trkpt><trkpt lat="42.9857175" lon="13.3717265"><ele>395.0</ele><time>2026-04-18T10:41:44.089Z</time></trkpt><trkpt lat="42.9856376" lon="13.3717461"><ele>394.0</ele><time>2026-04-18T10:41:45.026Z</time></trkpt><trkpt lat="42.9855568" lon="13.3717697"><ele>392.99999999999994</ele><time>2026-04-18T10:41:46.034Z</time></trkpt><trkpt lat="42.9854728" lon="13.3717917"><ele>392.0</ele><time>2026-04-18T10:41:47.023Z</time></trkpt><trkpt lat="42.9853873" lon="13.3718078"><ele>391.99999999999994</ele><time>2026-04-18T10:41:48.048Z</time></trkpt><trkpt lat="42.9853006" lon="13.3718102"><ele>392.0</ele><time>2026-04-18T10:41:49.057Z</time></trkpt><trkpt lat="42.9852215" lon="13.371787"><ele>392.0</ele><time>2026-04-18T10:41:50.059Z</time></trkpt><trkpt lat="42.985152" lon="13.3717331"><ele>392.0</ele><time>2026-04-18T10:41:51.052Z</time></trkpt><trkpt lat="42.985092" lon="13.3716624"><ele>391.99999999999994</ele><time>2026-04-18T10:41:52.022Z</time></trkpt><trkpt lat="42.985039" lon="13.3715884"><ele>392.0</ele><time>2026-04-18T10:41:53.055Z</time></trkpt><trkpt lat="42.9849903" lon="13.3715076"><ele>392.0</ele><time>2026-04-18T10:41:54.07Z</time></trkpt><trkpt lat="42.9849433" lon="13.3714126"><ele>392.0</ele><time>2026-04-18T10:41:55.056Z</time></trkpt><trkpt lat="42.984893" lon="13.3713066"><ele>392.0</ele><time>2026-04-18T10:41:56.067Z</time></trkpt><trkpt lat="42.9848368" lon="13.3711944"><ele>392.0</ele><time>2026-04-18T10:41:57.041Z</time></trkpt><trkpt lat="42.9847759" lon="13.3710729"><ele>392.0</ele><time>2026-04-18T10:41:58.052Z</time></trkpt><trkpt lat="42.9847152" lon="13.3709512"><ele>392.0</ele><time>2026-04-18T10:41:59.058Z</time></trkpt><trkpt lat="42.984654" lon="13.3708183"><ele>392.0</ele><time>2026-04-18T10:42:00.078Z</time></trkpt><trkpt lat="42.9845882" lon="13.3706815"><ele>392.0</ele><time>2026-04-18T10:42:01.068Z</time></trkpt><trkpt lat="42.9845205" lon="13.3705441"><ele>392.0</ele><time>2026-04-18T10:42:02.027Z</time></trkpt><trkpt lat="42.9844551" lon="13.3704099"><ele>391.8</ele><time>2026-04-18T10:42:03.066Z</time></trkpt><trkpt lat="42.9843942" lon="13.3702763"><ele>391.6</ele><time>2026-04-18T10:42:04.08Z</time></trkpt><trkpt lat="42.984337" lon="13.3701479"><ele>391.40000000000003</ele><time>2026-04-18T10:42:05.05Z</time></trkpt><trkpt lat="42.9842796" lon="13.3700271"><ele>391.20000000000005</ele><time>2026-04-18T10:42:06.044Z</time></trkpt><trkpt lat="42.9842225" lon="13.3699051"><ele>391.0</ele><time>2026-04-18T10:42:07.026Z</time></trkpt><trkpt lat="42.9841608" lon="13.3697713"><ele>389.8</ele><time>2026-04-18T10:42:08.057Z</time></trkpt><trkpt lat="42.9840958" lon="13.3696315"><ele>388.6</ele><time>2026-04-18T10:42:09.053Z</time></trkpt><trkpt lat="42.9840346" lon="13.3694972"><ele>387.4</ele><time>2026-04-18T10:42:10.048Z</time></trkpt><trkpt lat="42.9839773" lon="13.3693737"><ele>386.2</ele><time>2026-04-18T10:42:11.048Z</time></trkpt><trkpt lat="42.983919" lon="13.3692565"><ele>385.0</ele><time>2026-04-18T10:42:12.031Z</time></trkpt><trkpt lat="42.9838625" lon="13.3691415"><ele>385.0</ele><time>2026-04-18T10:42:13.068Z</time></trkpt><trkpt lat="42.983809" lon="13.3690328"><ele>385.0</ele><time>2026-04-18T10:42:14.093Z</time></trkpt><trkpt lat="42.9837541" lon="13.3689271"><ele>385.0</ele><time>2026-04-18T10:42:15.073Z</time></trkpt><trkpt lat="42.983701" lon="13.3688237"><ele>385.0</ele><time>2026-04-18T10:42:16.054Z</time></trkpt><trkpt lat="42.9836521" lon="13.3687183"><ele>385.0</ele><time>2026-04-18T10:42:17.05Z</time></trkpt><trkpt lat="42.9836075" lon="13.3686126"><ele>385.00000000000006</ele><time>2026-04-18T10:42:18.048Z</time></trkpt><trkpt lat="42.9835603" lon="13.3685093"><ele>385.0</ele><time>2026-04-18T10:42:19.043Z</time></trkpt><trkpt lat="42.9835124" lon="13.3684128"><ele>385.0</ele><time>2026-04-18T10:42:20.069Z</time></trkpt><trkpt lat="42.9834665" lon="13.3683141"><ele>385.0</ele><time>2026-04-18T10:42:21.066Z</time></trkpt><trkpt lat="42.9834203" lon="13.3682133"><ele>385.00000000000006</ele><time>2026-04-18T10:42:22.038Z</time></trkpt><trkpt lat="42.9833667" lon="13.3681106"><ele>385.0</ele><time>2026-04-18T10:42:23.027Z</time></trkpt><trkpt lat="42.983301" lon="13.3680153"><ele>389.8</ele><time>2026-04-18T10:42:24.06Z</time></trkpt><trkpt lat="42.9832258" lon="13.3679329"><ele>394.6</ele><time>2026-04-18T10:42:25.058Z</time></trkpt><trkpt lat="42.9831523" lon="13.3678527"><ele>399.4</ele><time>2026-04-18T10:42:26.051Z</time></trkpt><trkpt lat="42.9830717" lon="13.3677923"><ele>404.2</ele><time>2026-04-18T10:42:27.038Z</time></trkpt><trkpt lat="42.9829868" lon="13.3677481"><ele>409.0</ele><time>2026-04-18T10:42:28.065Z</time></trkpt><trkpt lat="42.9828963" lon="13.3677034"><ele>409.00000000000006</ele><time>2026-04-18T10:42:29.044Z</time></trkpt><trkpt lat="42.9828087" lon="13.3676551"><ele>409.0</ele><time>2026-04-18T10:42:30.053Z</time></trkpt><trkpt lat="42.9827258" lon="13.3676111"><ele>409.0</ele><time>2026-04-18T10:42:31.023Z</time></trkpt><trkpt lat="42.9826485" lon="13.3675765"><ele>409.0</ele><time>2026-04-18T10:42:32.047Z</time></trkpt><trkpt lat="42.9825726" lon="13.3675417"><ele>409.00000000000006</ele><time>2026-04-18T10:42:33.037Z</time></trkpt><trkpt lat="42.9824991" lon="13.3675053"><ele>409.0</ele><time>2026-04-18T10:42:34.055Z</time></trkpt><trkpt lat="42.9824247" lon="13.3674671"><ele>407.79999999999995</ele><time>2026-04-18T10:42:35.052Z</time></trkpt><trkpt lat="42.9823448" lon="13.3674337"><ele>406.59999999999997</ele><time>2026-04-18T10:42:36.046Z</time></trkpt><trkpt lat="42.9822532" lon="13.3674114"><ele>405.4</ele><time>2026-04-18T10:42:37.041Z</time></trkpt><trkpt lat="42.9821441" lon="13.3673994"><ele>404.2</ele><time>2026-04-18T10:42:38.089Z</time></trkpt><trkpt lat="42.9820131" lon="13.3673977"><ele>403.0</ele><time>2026-04-18T10:42:39.125Z</time></trkpt><trkpt lat="42.9818818" lon="13.3673987"><ele>403.0</ele><time>2026-04-18T10:42:40.052Z</time></trkpt><trkpt lat="42.9817659" lon="13.3673873"><ele>403.0</ele><time>2026-04-18T10:42:41.049Z</time></trkpt><trkpt lat="42.9816599" lon="13.3673755"><ele>403.0</ele><time>2026-04-18T10:42:42.038Z</time></trkpt><trkpt lat="42.9815696" lon="13.3673359"><ele>403.0</ele><time>2026-04-18T10:42:43.05Z</time></trkpt><trkpt lat="42.9814938" lon="13.3672526"><ele>403.0</ele><time>2026-04-18T10:42:44.046Z</time></trkpt><trkpt lat="42.9814348" lon="13.3671297"><ele>403.5</ele><time>2026-04-18T10:42:45.041Z</time></trkpt><trkpt lat="42.9813987" lon="13.3669621"><ele>404.0</ele><time>2026-04-18T10:42:46.047Z</time></trkpt><trkpt lat="42.9813758" lon="13.3667524"><ele>404.5</ele><time>2026-04-18T10:42:47.054Z</time></trkpt><trkpt lat="42.9813507" lon="13.3665282"><ele>405.0</ele><time>2026-04-18T10:42:48.053Z</time></trkpt><trkpt lat="42.9813201" lon="13.3663078"><ele>408.25</ele><time>2026-04-18T10:42:49.063Z</time></trkpt><trkpt lat="42.9812827" lon="13.366113"><ele>411.5</ele><time>2026-04-18T10:42:50.079Z</time></trkpt><trkpt lat="42.9812334" lon="13.3659372"><ele>414.75</ele><time>2026-04-18T10:42:51.104Z</time></trkpt><trkpt lat="42.9811637" lon="13.3657886"><ele>418.0</ele><time>2026-04-18T10:42:52.045Z</time></trkpt><trkpt lat="42.981072" lon="13.3656674"><ele>418.0</ele><time>2026-04-18T10:42:53.059Z</time></trkpt><trkpt lat="42.9809651" lon="13.3655815"><ele>418.0</ele><time>2026-04-18T10:42:54.062Z</time></trkpt><trkpt lat="42.9808435" lon="13.3655289"><ele>418.0</ele><time>2026-04-18T10:42:55.058Z</time></trkpt><trkpt lat="42.9807111" lon="13.3655174"><ele>418.0</ele><time>2026-04-18T10:42:56.069Z</time></trkpt><trkpt lat="42.9805799" lon="13.3655371"><ele>415.79999999999995</ele><time>2026-04-18T10:42:57.077Z</time></trkpt><trkpt lat="42.9804652" lon="13.365584"><ele>413.6</ele><time>2026-04-18T10:42:58.061Z</time></trkpt><trkpt lat="42.9803674" lon="13.3656162"><ele>411.4</ele><time>2026-04-18T10:42:59.064Z</time></trkpt><trkpt lat="42.9802918" lon="13.3656495"><ele>409.20000000000005</ele><time>2026-04-18T10:43:00.062Z</time></trkpt><trkpt lat="42.9802124" lon="13.3656739"><ele>407.0</ele><time>2026-04-18T10:43:01.046Z</time></trkpt><trkpt lat="42.9801502" lon="13.3656101"><ele>410.20000000000005</ele><time>2026-04-18T10:43:02.049Z</time></trkpt><trkpt lat="42.9801262" lon="13.3655166"><ele>413.4</ele><time>2026-04-18T10:43:03.076Z</time></trkpt><trkpt lat="42.9801244" lon="13.3654094"><ele>416.6</ele><time>2026-04-18T10:43:04.06Z</time></trkpt><trkpt lat="42.9802027" lon="13.3653138"><ele>419.79999999999995</ele><time>2026-04-18T10:43:05.065Z</time></trkpt><trkpt lat="42.9803077" lon="13.3652524"><ele>423.0</ele><time>2026-04-18T10:43:06.058Z</time></trkpt><trkpt lat="42.9804449" lon="13.3652075"><ele>423.0</ele><time>2026-04-18T10:43:07.035Z</time></trkpt><trkpt lat="42.9806009" lon="13.3651711"><ele>423.0</ele><time>2026-04-18T10:43:08.052Z</time></trkpt><trkpt lat="42.9807852" lon="13.3651631"><ele>423.0</ele><time>2026-04-18T10:43:09.045Z</time></trkpt><trkpt lat="42.9809693" lon="13.3652024"><ele>421.75</ele><time>2026-04-18T10:43:10.036Z</time></trkpt><trkpt lat="42.9811279" lon="13.3652653"><ele>420.5</ele><time>2026-04-18T10:43:11.052Z</time></trkpt><trkpt lat="42.9812629" lon="13.3653495"><ele>419.25</ele><time>2026-04-18T10:43:12.061Z</time></trkpt><trkpt lat="42.981375" lon="13.3654475"><ele>418.0</ele><time>2026-04-18T10:43:13.048Z</time></trkpt><trkpt lat="42.9814702" lon="13.3655368"><ele>418.00000000000006</ele><time>2026-04-18T10:43:14.112Z</time></trkpt><trkpt lat="42.9815518" lon="13.3656105"><ele>418.0</ele><time>2026-04-18T10:43:15.065Z</time></trkpt><trkpt lat="42.9816236" lon="13.3656744"><ele>418.0</ele><time>2026-04-18T10:43:16.059Z</time></trkpt><trkpt lat="42.9816911" lon="13.3657192"><ele>418.0</ele><time>2026-04-18T10:43:17.056Z</time></trkpt><trkpt lat="42.9817547" lon="13.3657417"><ele>418.00000000000006</ele><time>2026-04-18T10:43:18.024Z</time></trkpt><trkpt lat="42.981866" lon="13.3657147"><ele>418.0</ele><time>2026-04-18T10:43:20.059Z</time></trkpt><trkpt lat="42.9819379" lon="13.365644"><ele>419.50000000000006</ele><time>2026-04-18T10:43:22.07Z</time></trkpt><trkpt lat="42.9819716" lon="13.3655464"><ele>421.0</ele><time>2026-04-18T10:43:24.053Z</time></trkpt><trkpt lat="42.981952" lon="13.3653858"><ele>422.5</ele><time>2026-04-18T10:43:26.062Z</time></trkpt><trkpt lat="42.9819124" lon="13.3653114"><ele>424.0</ele><time>2026-04-18T10:43:27.062Z</time></trkpt><trkpt lat="42.9818587" lon="13.3652661"><ele>425.50000000000006</ele><time>2026-04-18T10:43:28.061Z</time></trkpt><trkpt lat="42.9817458" lon="13.3652327"><ele>427.0</ele><time>2026-04-18T10:43:30.049Z</time></trkpt><trkpt lat="42.9816311" lon="13.3652659"><ele>429.8</ele><time>2026-04-18T10:43:57.029Z</time></trkpt><trkpt lat="42.9816014" lon="13.3653593"><ele>432.6</ele><time>2026-04-18T10:43:59.032Z</time></trkpt><trkpt lat="42.98156" lon="13.3654762"><ele>435.40000000000003</ele><time>2026-04-18T10:44:01.078Z</time></trkpt><trkpt lat="42.9814232" lon="13.3654532"><ele>438.20000000000005</ele><time>2026-04-18T10:44:03.024Z</time></trkpt><trkpt lat="42.9813285" lon="13.3653792"><ele>441.0</ele><time>2026-04-18T10:44:04.059Z</time></trkpt><trkpt lat="42.9812171" lon="13.3653064"><ele>441.0</ele><time>2026-04-18T10:44:05.07Z</time></trkpt><trkpt lat="42.9810846" lon="13.3652438"><ele>441.0</ele><time>2026-04-18T10:44:06.063Z</time></trkpt><trkpt lat="42.9809512" lon="13.365184"><ele>441.0</ele><time>2026-04-18T10:44:07.061Z</time></trkpt><trkpt lat="42.9808268" lon="13.3651568"><ele>441.0</ele><time>2026-04-18T10:44:08.027Z</time></trkpt><trkpt lat="42.9807054" lon="13.3651413"><ele>437.4</ele><time>2026-04-18T10:44:09.05Z</time></trkpt><trkpt lat="42.9805933" lon="13.36515"><ele>433.8</ele><time>2026-04-18T10:44:10.05Z</time></trkpt><trkpt lat="42.9804765" lon="13.3651753"><ele>430.2</ele><time>2026-04-18T10:44:11.05Z</time></trkpt><trkpt lat="42.9803732" lon="13.3652059"><ele>426.59999999999997</ele><time>2026-04-18T10:44:12.054Z</time></trkpt><trkpt lat="42.9802792" lon="13.3652504"><ele>423.0</ele><time>2026-04-18T10:44:13.033Z</time></trkpt><trkpt lat="42.9802006" lon="13.3652998"><ele>423.0</ele><time>2026-04-18T10:44:14.056Z</time></trkpt><trkpt lat="42.9801346" lon="13.3653471"><ele>423.0</ele><time>2026-04-18T10:44:15.064Z</time></trkpt><trkpt lat="42.9801095" lon="13.3654275"><ele>423.0</ele><time>2026-04-18T10:44:16.07Z</time></trkpt><trkpt lat="42.9801232" lon="13.3655888"><ele>423.0</ele><time>2026-04-18T10:44:18.025Z</time></trkpt><trkpt lat="42.9801832" lon="13.3656363"><ele>423.0</ele><time>2026-04-18T10:44:19.041Z</time></trkpt><trkpt lat="42.9802584" lon="13.3656564"><ele>423.0</ele><time>2026-04-18T10:44:20.053Z</time></trkpt><trkpt lat="42.9803457" lon="13.3656381"><ele>423.0</ele><time>2026-04-18T10:44:21.047Z</time></trkpt><trkpt lat="42.9804338" lon="13.3655889"><ele>423.0</ele><time>2026-04-18T10:44:22.048Z</time></trkpt><trkpt lat="42.9805197" lon="13.365535"><ele>423.0</ele><time>2026-04-18T10:44:23.064Z</time></trkpt><trkpt lat="42.9806181" lon="13.3654978"><ele>423.0</ele><time>2026-04-18T10:44:24.06Z</time></trkpt><trkpt lat="42.9807226" lon="13.3654834"><ele>423.0</ele><time>2026-04-18T10:44:25.045Z</time></trkpt><trkpt lat="42.980831" lon="13.3654963"><ele>421.75</ele><time>2026-04-18T10:44:26.045Z</time></trkpt><trkpt lat="42.9809416" lon="13.3655328"><ele>420.5</ele><time>2026-04-18T10:44:27.063Z</time></trkpt><trkpt lat="42.98104" lon="13.3655968"><ele>419.25</ele><time>2026-04-18T10:44:28.025Z</time></trkpt><trkpt lat="42.9811289" lon="13.3657034"><ele>418.0</ele><time>2026-04-18T10:44:29.05Z</time></trkpt><trkpt lat="42.9812053" lon="13.3658507"><ele>418.0</ele><time>2026-04-18T10:44:30.061Z</time></trkpt><trkpt lat="42.9812693" lon="13.3660364"><ele>418.0</ele><time>2026-04-18T10:44:31.064Z</time></trkpt><trkpt lat="42.981315" lon="13.3662553"><ele>418.0</ele><time>2026-04-18T10:44:32.076Z</time></trkpt><trkpt lat="42.9813423" lon="13.3664728"><ele>414.75</ele><time>2026-04-18T10:44:33.029Z</time></trkpt><trkpt lat="42.9813652" lon="13.3666735"><ele>411.5</ele><time>2026-04-18T10:44:34.027Z</time></trkpt><trkpt lat="42.98139" lon="13.3668539"><ele>408.25</ele><time>2026-04-18T10:44:35.068Z</time></trkpt><trkpt lat="42.9814231" lon="13.3670183"><ele>405.0</ele><time>2026-04-18T10:44:36.048Z</time></trkpt><trkpt lat="42.98147" lon="13.3671609"><ele>404.5</ele><time>2026-04-18T10:44:37.063Z</time></trkpt><trkpt lat="42.9815209" lon="13.367293"><ele>404.0</ele><time>2026-04-18T10:44:38.032Z</time></trkpt><trkpt lat="42.9815991" lon="13.3673863"><ele>403.5</ele><time>2026-04-18T10:44:39.05Z</time></trkpt><trkpt lat="42.9817042" lon="13.3674363"><ele>403.0</ele><time>2026-04-18T10:44:40.061Z</time></trkpt><trkpt lat="42.9818302" lon="13.3674141"><ele>403.0</ele><time>2026-04-18T10:44:41.046Z</time></trkpt><trkpt lat="42.981962" lon="13.3674159"><ele>403.0</ele><time>2026-04-18T10:44:42.041Z</time></trkpt><trkpt lat="42.9820783" lon="13.3674183"><ele>403.0</ele><time>2026-04-18T10:44:43.03Z</time></trkpt><trkpt lat="42.9821898" lon="13.3674382"><ele>403.0</ele><time>2026-04-18T10:44:44.057Z</time></trkpt><trkpt lat="42.9822917" lon="13.3674595"><ele>403.00000000000006</ele><time>2026-04-18T10:44:45.058Z</time></trkpt><trkpt lat="42.9823828" lon="13.3674926"><ele>403.0</ele><time>2026-04-18T10:44:46.093Z</time></trkpt><trkpt lat="42.9824617" lon="13.3675214"><ele>403.0</ele><time>2026-04-18T10:44:47.077Z</time></trkpt><trkpt lat="42.9825265" lon="13.3675585"><ele>403.0</ele><time>2026-04-18T10:44:48.031Z</time></trkpt><trkpt lat="42.9826053" lon="13.3676115"><ele>403.00000000000006</ele><time>2026-04-18T10:44:50.045Z</time></trkpt><trkpt lat="42.9827021" lon="13.3676827"><ele>403.0</ele><time>2026-04-18T10:45:12.032Z</time></trkpt><trkpt lat="42.9828302" lon="13.3677365"><ele>404.5</ele><time>2026-04-18T10:45:14.037Z</time></trkpt><trkpt lat="42.982926" lon="13.367781"><ele>406.0</ele><time>2026-04-18T10:45:15.065Z</time></trkpt><trkpt lat="42.983035" lon="13.3678418"><ele>407.5</ele><time>2026-04-18T10:45:16.063Z</time></trkpt><trkpt lat="42.9831491" lon="13.3679161"><ele>409.0</ele><time>2026-04-18T10:45:17.072Z</time></trkpt><trkpt lat="42.9832555" lon="13.3680201"><ele>401.0</ele><time>2026-04-18T10:45:18.035Z</time></trkpt><trkpt lat="42.9833707" lon="13.3681337"><ele>393.0</ele><time>2026-04-18T10:45:19.056Z</time></trkpt><trkpt lat="42.983466" lon="13.3683198"><ele>385.0</ele><time>2026-04-18T10:45:20.054Z</time></trkpt><trkpt lat="42.9835487" lon="13.3685096"><ele>385.0</ele><time>2026-04-18T10:45:21.057Z</time></trkpt><trkpt lat="42.9836303" lon="13.3686765"><ele>385.0</ele><time>2026-04-18T10:45:22.052Z</time></trkpt><trkpt lat="42.9837086" lon="13.3688181"><ele>385.0</ele><time>2026-04-18T10:45:23.076Z</time></trkpt><trkpt lat="42.9837735" lon="13.368953"><ele>385.0</ele><time>2026-04-18T10:45:24.049Z</time></trkpt><trkpt lat="42.9838262" lon="13.36907"><ele>385.0</ele><time>2026-04-18T10:45:25.073Z</time></trkpt><trkpt lat="42.9838659" lon="13.3691653"><ele>385.0</ele><time>2026-04-18T10:45:26.067Z</time></trkpt><trkpt lat="42.9838914" lon="13.369248"><ele>385.0</ele><time>2026-04-18T10:45:27.072Z</time></trkpt><trkpt lat="42.983879" lon="13.3693836"><ele>385.0</ele><time>2026-04-18T10:45:29.077Z</time></trkpt><trkpt lat="42.9837691" lon="13.3694887"><ele>385.0</ele><time>2026-04-18T10:45:31.088Z</time></trkpt><trkpt lat="42.9836819" lon="13.3695508"><ele>385.0</ele><time>2026-04-18T10:45:32.065Z</time></trkpt><trkpt lat="42.9835782" lon="13.3696198"><ele>385.0</ele><time>2026-04-18T10:45:33.059Z</time></trkpt><trkpt lat="42.9834675" lon="13.3696815"><ele>385.0</ele><time>2026-04-18T10:45:34.063Z</time></trkpt><trkpt lat="42.9833647" lon="13.369755"><ele>385.0</ele><time>2026-04-18T10:45:35.065Z</time></trkpt><trkpt lat="42.983257" lon="13.3698282"><ele>385.8</ele><time>2026-04-18T10:45:36.052Z</time></trkpt><trkpt lat="42.9831526" lon="13.369896"><ele>386.6</ele><time>2026-04-18T10:45:37.063Z</time></trkpt><trkpt lat="42.9830482" lon="13.3699439"><ele>387.4</ele><time>2026-04-18T10:45:38.046Z</time></trkpt><trkpt lat="42.9829474" lon="13.3699691"><ele>388.2</ele><time>2026-04-18T10:45:39.07Z</time></trkpt><trkpt lat="42.9828545" lon="13.3699631"><ele>389.0</ele><time>2026-04-18T10:45:40.064Z</time></trkpt><trkpt lat="42.9827635" lon="13.3699335"><ele>388.99999999999994</ele><time>2026-04-18T10:45:41.052Z</time></trkpt><trkpt lat="42.9826808" lon="13.3698822"><ele>389.0</ele><time>2026-04-18T10:45:42.058Z</time></trkpt><trkpt lat="42.9826024" lon="13.3698222"><ele>389.0</ele><time>2026-04-18T10:45:43.027Z</time></trkpt><trkpt lat="42.9825292" lon="13.3697618"><ele>389.0</ele><time>2026-04-18T10:45:44.021Z</time></trkpt><trkpt lat="42.982457" lon="13.3697037"><ele>388.99999999999994</ele><time>2026-04-18T10:45:45.06Z</time></trkpt><trkpt lat="42.9823855" lon="13.3696451"><ele>389.0</ele><time>2026-04-18T10:45:46.046Z</time></trkpt><trkpt lat="42.9823108" lon="13.3695853"><ele>387.8333333333333</ele><time>2026-04-18T10:45:47.042Z</time></trkpt><trkpt lat="42.9822378" lon="13.3695235"><ele>386.66666666666663</ele><time>2026-04-18T10:45:48.072Z</time></trkpt><trkpt lat="42.9821686" lon="13.3694576"><ele>385.5</ele><time>2026-04-18T10:45:49.058Z</time></trkpt><trkpt lat="42.9820995" lon="13.3693892"><ele>384.3333333333333</ele><time>2026-04-18T10:45:50.064Z</time></trkpt><trkpt lat="42.9820335" lon="13.3693176"><ele>383.16666666666663</ele><time>2026-04-18T10:45:51.021Z</time></trkpt><trkpt lat="42.9819712" lon="13.3692673"><ele>382.0</ele><time>2026-04-18T10:45:52.024Z</time></trkpt><trkpt lat="42.9818769" lon="13.3692141"><ele>382.0</ele><time>2026-04-18T10:45:54.056Z</time></trkpt><trkpt lat="42.981782" lon="13.3691916"><ele>382.0</ele><time>2026-04-18T10:46:02.991Z</time></trkpt><trkpt lat="42.9816809" lon="13.3692101"><ele>382.0</ele><time>2026-04-18T10:46:10.012Z</time></trkpt><trkpt lat="42.9816155" lon="13.3692288"><ele>382.0</ele><time>2026-04-18T10:46:11.037Z</time></trkpt><trkpt lat="42.9815146" lon="13.3692173"><ele>382.0</ele><time>2026-04-18T10:46:13.979Z</time></trkpt><trkpt lat="42.9814116" lon="13.3691745"><ele>382.5</ele><time>2026-04-18T10:46:16.07Z</time></trkpt><trkpt lat="42.9813508" lon="13.3691411"><ele>383.0</ele><time>2026-04-18T10:46:17.044Z</time></trkpt><trkpt lat="42.9812858" lon="13.3691075"><ele>383.5</ele><time>2026-04-18T10:46:18.036Z</time></trkpt><trkpt lat="42.9812116" lon="13.3690671"><ele>384.0</ele><time>2026-04-18T10:46:19.045Z</time></trkpt><trkpt lat="42.9811294" lon="13.3690219"><ele>384.50000000000006</ele><time>2026-04-18T10:46:20.059Z</time></trkpt><trkpt lat="42.9810465" lon="13.3689776"><ele>385.0</ele><time>2026-04-18T10:46:21.054Z</time></trkpt><trkpt lat="42.9809625" lon="13.3689513"><ele>385.00000000000006</ele><time>2026-04-18T10:46:22.063Z</time></trkpt><trkpt lat="42.980882" lon="13.3689222"><ele>385.0</ele><time>2026-04-18T10:46:23.043Z</time></trkpt><trkpt lat="42.9808095" lon="13.3689355"><ele>385.0</ele><time>2026-04-18T10:46:24.047Z</time></trkpt><trkpt lat="42.9806909" lon="13.3689753"><ele>385.0</ele><time>2026-04-18T10:46:26.093Z</time></trkpt><trkpt lat="42.980609" lon="13.3689992"><ele>385.00000000000006</ele><time>2026-04-18T10:46:28.015Z</time></trkpt><trkpt lat="42.980541" lon="13.3689684"><ele>385.0</ele><time>2026-04-18T10:46:30.063Z</time></trkpt><trkpt lat="42.9804627" lon="13.3689508"><ele>387.0</ele><time>2026-04-18T10:46:31.987Z</time></trkpt><trkpt lat="42.980392" lon="13.3689494"><ele>389.0</ele><time>2026-04-18T10:46:34.021Z</time></trkpt><trkpt lat="42.9802879" lon="13.368964"><ele>391.0</ele><time>2026-04-18T10:46:42.01Z</time></trkpt><trkpt lat="42.9801742" lon="13.3689855"><ele>393.0</ele><time>2026-04-18T10:46:44.027Z</time></trkpt><trkpt lat="42.9800939" lon="13.3690043"><ele>395.0</ele><time>2026-04-18T10:46:45.065Z</time></trkpt><trkpt lat="42.9799995" lon="13.3690291"><ele>397.99999999999994</ele><time>2026-04-18T10:46:46.053Z</time></trkpt><trkpt lat="42.9799236" lon="13.3690498"><ele>401.0</ele><time>2026-04-18T10:46:47.023Z</time></trkpt><trkpt lat="42.9798546" lon="13.3690611"><ele>404.0</ele><time>2026-04-18T10:46:48.045Z</time></trkpt><trkpt lat="42.9797887" lon="13.3690677"><ele>407.0</ele><time>2026-04-18T10:46:49.057Z</time></trkpt><trkpt lat="42.979732" lon="13.3690079"><ele>409.99999999999994</ele><time>2026-04-18T10:46:50.063Z</time></trkpt><trkpt lat="42.9796758" lon="13.3689375"><ele>413.0</ele><time>2026-04-18T10:46:51.045Z</time></trkpt><trkpt lat="42.979601" lon="13.3688703"><ele>410.8333333333333</ele><time>2026-04-18T10:46:53.052Z</time></trkpt><trkpt lat="42.9795382" lon="13.3688258"><ele>408.66666666666663</ele><time>2026-04-18T10:46:55.006Z</time></trkpt><trkpt lat="42.9794524" lon="13.36877"><ele>406.5</ele><time>2026-04-18T10:46:57.002Z</time></trkpt><trkpt lat="42.979369" lon="13.3686769"><ele>404.33333333333337</ele><time>2026-04-18T10:46:59.033Z</time></trkpt><trkpt lat="42.9793135" lon="13.36858"><ele>402.1666666666667</ele><time>2026-04-18T10:47:01.027Z</time></trkpt><trkpt lat="42.9792558" lon="13.368495"><ele>400.0</ele><time>2026-04-18T10:47:03.019Z</time></trkpt><trkpt lat="42.9791864" lon="13.3684267"><ele>400.0</ele><time>2026-04-18T10:47:36.035Z</time></trkpt><trkpt lat="42.9792655" lon="13.3684648"><ele>400.0</ele><time>2026-04-18T10:47:48.991Z</time></trkpt><trkpt lat="42.9793481" lon="13.3685764"><ele>400.0</ele><time>2026-04-18T10:47:51.022Z</time></trkpt><trkpt lat="42.9794128" lon="13.3686979"><ele>400.0</ele><time>2026-04-18T10:47:53.048Z</time></trkpt><trkpt lat="42.979506" lon="13.3687966"><ele>400.0</ele><time>2026-04-18T10:47:55.052Z</time></trkpt><trkpt lat="42.9795694" lon="13.3688385"><ele>399.1666666666667</ele><time>2026-04-18T10:47:56.045Z</time></trkpt><trkpt lat="42.9796325" lon="13.3688813"><ele>398.33333333333337</ele><time>2026-04-18T10:47:57.057Z</time></trkpt><trkpt lat="42.9796814" lon="13.3689379"><ele>397.5</ele><time>2026-04-18T10:47:58.054Z</time></trkpt><trkpt lat="42.9797662" lon="13.3690295"><ele>396.66666666666663</ele><time>2026-04-18T10:48:00.065Z</time></trkpt><trkpt lat="42.9798632" lon="13.369045"><ele>395.8333333333333</ele><time>2026-04-18T10:48:02.057Z</time></trkpt><trkpt lat="42.9799569" lon="13.3690088"><ele>395.0</ele><time>2026-04-18T10:48:04.039Z</time></trkpt><trkpt lat="42.9800448" lon="13.3689781"><ele>395.0</ele><time>2026-04-18T10:48:06.061Z</time></trkpt><trkpt lat="42.9801459" lon="13.3689565"><ele>395.0</ele><time>2026-04-18T10:48:08.062Z</time></trkpt><trkpt lat="42.9802542" lon="13.3689356"><ele>395.0</ele><time>2026-04-18T10:48:10.051Z</time></trkpt><trkpt lat="42.980318" lon="13.3689253"><ele>395.0</ele><time>2026-04-18T10:48:11.052Z</time></trkpt><trkpt lat="42.9803824" lon="13.3689177"><ele>395.0</ele><time>2026-04-18T10:48:12.095Z</time></trkpt><trkpt lat="42.9805084" lon="13.368918"><ele>395.0</ele><time>2026-04-18T10:48:14.026Z</time></trkpt><trkpt lat="42.9805715" lon="13.368922"><ele>395.0</ele><time>2026-04-18T10:48:15.053Z</time></trkpt><trkpt lat="42.9806892" lon="13.3689257"><ele>395.0</ele><time>2026-04-18T10:48:17.049Z</time></trkpt><trkpt lat="42.9807737" lon="13.3689177"><ele>395.0</ele><time>2026-04-18T10:48:19.032Z</time></trkpt><trkpt lat="42.9809164" lon="13.3689169"><ele>395.0</ele><time>2026-04-18T10:48:21.059Z</time></trkpt><trkpt lat="42.9810075" lon="13.3689461"><ele>393.0</ele><time>2026-04-18T10:48:22.044Z</time></trkpt><trkpt lat="42.9811111" lon="13.3689783"><ele>391.0</ele><time>2026-04-18T10:48:23.048Z</time></trkpt><trkpt lat="42.9812263" lon="13.3690326"><ele>389.0</ele><time>2026-04-18T10:48:24.035Z</time></trkpt><trkpt lat="42.981328" lon="13.3690917"><ele>387.0</ele><time>2026-04-18T10:48:25.045Z</time></trkpt><trkpt lat="42.9814189" lon="13.369147"><ele>385.0</ele><time>2026-04-18T10:48:26.053Z</time></trkpt><trkpt lat="42.981511" lon="13.3691908"><ele>385.0</ele><time>2026-04-18T10:48:27.052Z</time></trkpt><trkpt lat="42.9816224" lon="13.3691886"><ele>385.0</ele><time>2026-04-18T10:48:28.045Z</time></trkpt><trkpt lat="42.9817379" lon="13.3691863"><ele>385.0</ele><time>2026-04-18T10:48:29.068Z</time></trkpt><trkpt lat="42.9818473" lon="13.3692072"><ele>385.0</ele><time>2026-04-18T10:48:30.034Z</time></trkpt><trkpt lat="42.9819451" lon="13.3692519"><ele>385.0</ele><time>2026-04-18T10:48:31.061Z</time></trkpt><trkpt lat="42.9820491" lon="13.3693422"><ele>384.0</ele><time>2026-04-18T10:48:32.06Z</time></trkpt><trkpt lat="42.9821663" lon="13.3694555"><ele>383.0</ele><time>2026-04-18T10:48:33.032Z</time></trkpt><trkpt lat="42.9822957" lon="13.3695636"><ele>382.0</ele><time>2026-04-18T10:48:34.039Z</time></trkpt><trkpt lat="42.9824372" lon="13.3696726"><ele>383.75</ele><time>2026-04-18T10:48:35.06Z</time></trkpt><trkpt lat="42.9825656" lon="13.3697789"><ele>385.5</ele><time>2026-04-18T10:48:36.059Z</time></trkpt><trkpt lat="42.9826719" lon="13.3698654"><ele>387.25</ele><time>2026-04-18T10:48:37.056Z</time></trkpt><trkpt lat="42.9827678" lon="13.3699183"><ele>389.0</ele><time>2026-04-18T10:48:38.058Z</time></trkpt><trkpt lat="42.9828663" lon="13.3699689"><ele>389.0</ele><time>2026-04-18T10:48:39.051Z</time></trkpt><trkpt lat="42.9829795" lon="13.3699639"><ele>389.0</ele><time>2026-04-18T10:48:40.048Z</time></trkpt><trkpt lat="42.9830952" lon="13.3699221"><ele>389.0</ele><time>2026-04-18T10:48:41.046Z</time></trkpt><trkpt lat="42.9832358" lon="13.3698436"><ele>389.0</ele><time>2026-04-18T10:48:42.047Z</time></trkpt><trkpt lat="42.9834" lon="13.3697388"><ele>388.0</ele><time>2026-04-18T10:48:43.033Z</time></trkpt><trkpt lat="42.983559" lon="13.3696447"><ele>387.0</ele><time>2026-04-18T10:48:44.039Z</time></trkpt><trkpt lat="42.983692" lon="13.3695661"><ele>386.0</ele><time>2026-04-18T10:48:45.11Z</time></trkpt><trkpt lat="42.9837888" lon="13.3695016"><ele>385.0</ele><time>2026-04-18T10:48:46.057Z</time></trkpt><trkpt lat="42.9838482" lon="13.3694517"><ele>385.00000000000006</ele><time>2026-04-18T10:48:47.061Z</time></trkpt><trkpt lat="42.9839061" lon="13.3693812"><ele>385.0</ele><time>2026-04-18T10:48:50.05Z</time></trkpt><trkpt lat="42.9838849" lon="13.3692454"><ele>385.0</ele><time>2026-04-18T10:48:53.016Z</time></trkpt><trkpt lat="42.9838553" lon="13.3691589"><ele>385.0</ele><time>2026-04-18T10:48:54.032Z</time></trkpt><trkpt lat="42.9838129" lon="13.3690583"><ele>385.00000000000006</ele><time>2026-04-18T10:48:55.047Z</time></trkpt><trkpt lat="42.9837587" lon="13.3689413"><ele>385.0</ele><time>2026-04-18T10:48:56.046Z</time></trkpt><trkpt lat="42.9836817" lon="13.3687841"><ele>385.0</ele><time>2026-04-18T10:48:57.051Z</time></trkpt><trkpt lat="42.9835912" lon="13.3685952"><ele>385.0</ele><time>2026-04-18T10:48:58.049Z</time></trkpt><trkpt lat="42.9835025" lon="13.3683991"><ele>385.0</ele><time>2026-04-18T10:48:59.066Z</time></trkpt><trkpt lat="42.9834203" lon="13.3682264"><ele>386.5</ele><time>2026-04-18T10:49:00.05Z</time></trkpt><trkpt lat="42.9833401" lon="13.3680809"><ele>388.0</ele><time>2026-04-18T10:49:01.068Z</time></trkpt><trkpt lat="42.9832479" lon="13.3679643"><ele>389.5</ele><time>2026-04-18T10:49:02.097Z</time></trkpt><trkpt lat="42.9831513" lon="13.3678833"><ele>391.0</ele><time>2026-04-18T10:49:03.059Z</time></trkpt><trkpt lat="42.9830578" lon="13.3678054"><ele>394.00000000000006</ele><time>2026-04-18T10:49:04.044Z</time></trkpt><trkpt lat="42.9829716" lon="13.3677493"><ele>397.0</ele><time>2026-04-18T10:49:05.023Z</time></trkpt><trkpt lat="42.9828984" lon="13.3677113"><ele>400.0</ele><time>2026-04-18T10:49:06.047Z</time></trkpt><trkpt lat="42.9828383" lon="13.3676811"><ele>403.0</ele><time>2026-04-18T10:49:07.052Z</time></trkpt><trkpt lat="42.9827721" lon="13.3677129"><ele>406.00000000000006</ele><time>2026-04-18T10:49:10.036Z</time></trkpt><trkpt lat="42.9827789" lon="13.3678131"><ele>409.0</ele><time>2026-04-18T10:49:12.043Z</time></trkpt><trkpt lat="42.9828327" lon="13.3679163"><ele>405.4</ele><time>2026-04-18T10:49:14.056Z</time></trkpt><trkpt lat="42.9829077" lon="13.3680449"><ele>401.79999999999995</ele><time>2026-04-18T10:49:16.06Z</time></trkpt><trkpt lat="42.9829471" lon="13.3681179"><ele>398.20000000000005</ele><time>2026-04-18T10:49:17.033Z</time></trkpt><trkpt lat="42.983007" lon="13.3682496"><ele>394.6</ele><time>2026-04-18T10:49:19.033Z</time></trkpt><trkpt lat="42.9830699" lon="13.3683921"><ele>391.0</ele><time>2026-04-18T10:49:21.035Z</time></trkpt><trkpt lat="42.9830892" lon="13.3684756"><ele>391.00000000000006</ele><time>2026-04-18T10:49:22.064Z</time></trkpt><trkpt lat="42.9830975" lon="13.3686372"><ele>391.0</ele><time>2026-04-18T10:49:24.057Z</time></trkpt><trkpt lat="42.9830933" lon="13.3687542"><ele>391.0</ele><time>2026-04-18T10:49:26.027Z</time></trkpt><trkpt lat="42.9831131" lon="13.3688428"><ele>391.0</ele><time>2026-04-18T10:49:28.028Z</time></trkpt><trkpt lat="42.9831451" lon="13.3689178"><ele>391.00000000000006</ele><time>2026-04-18T10:49:30.036Z</time></trkpt><trkpt lat="42.9831561" lon="13.3690075"><ele>391.0</ele><time>2026-04-18T10:49:34.043Z</time></trkpt><trkpt lat="42.9830661" lon="13.3690529"><ele>389.83333333333337</ele><time>2026-04-18T10:49:37.045Z</time></trkpt><trkpt lat="42.9829751" lon="13.3690914"><ele>388.6666666666667</ele><time>2026-04-18T10:49:39.054Z</time></trkpt><trkpt lat="42.9829" lon="13.3691456"><ele>387.5</ele><time>2026-04-18T10:49:41.031Z</time></trkpt><trkpt lat="42.982838" lon="13.3691932"><ele>386.33333333333337</ele><time>2026-04-18T10:49:43.037Z</time></trkpt><trkpt lat="42.9827681" lon="13.369233"><ele>385.1666666666667</ele><time>2026-04-18T10:49:45.057Z</time></trkpt><trkpt lat="42.9827097" lon="13.3692726"><ele>384.0</ele><time>2026-04-18T10:49:47.015Z</time></trkpt><trkpt lat="42.9826319" lon="13.3692504"><ele>384.0</ele><time>2026-04-18T10:49:49.074Z</time></trkpt><trkpt lat="42.9825343" lon="13.3691899"><ele>384.0</ele><time>2026-04-18T10:49:51.063Z</time></trkpt><trkpt lat="42.9824405" lon="13.3691103"><ele>384.0</ele><time>2026-04-18T10:49:53.04Z</time></trkpt><trkpt lat="42.9823558" lon="13.3690402"><ele>384.0</ele><time>2026-04-18T10:49:55.063Z</time></trkpt><trkpt lat="42.9822849" lon="13.368995"><ele>384.0</ele><time>2026-04-18T10:49:57.042Z</time></trkpt><trkpt lat="42.982207" lon="13.3689553"><ele>383.6666666666667</ele><time>2026-04-18T10:50:00.001Z</time></trkpt><trkpt lat="42.982144" lon="13.3689116"><ele>383.3333333333333</ele><time>2026-04-18T10:50:33.049Z</time></trkpt><trkpt lat="42.9820617" lon="13.3688876"><ele>383.0</ele><time>2026-04-18T10:50:34.981Z</time></trkpt><trkpt lat="42.9819956" lon="13.3688782"><ele>382.66666666666663</ele><time>2026-04-18T10:50:37.082Z</time></trkpt><trkpt lat="42.9819157" lon="13.3688854"><ele>382.3333333333333</ele><time>2026-04-18T10:50:39.043Z</time></trkpt><trkpt lat="42.9818165" lon="13.3688918"><ele>382.0</ele><time>2026-04-18T10:50:41.053Z</time></trkpt><trkpt lat="42.9817252" lon="13.3688935"><ele>382.6</ele><time>2026-04-18T10:50:44.048Z</time></trkpt><trkpt lat="42.981642" lon="13.3688827"><ele>383.20000000000005</ele><time>2026-04-18T10:50:47.002Z</time></trkpt><trkpt lat="42.9815345" lon="13.3688478"><ele>383.8</ele><time>2026-04-18T10:50:50Z</time></trkpt><trkpt lat="42.9814415" lon="13.368793"><ele>384.4</ele><time>2026-04-18T10:50:52.044Z</time></trkpt><trkpt lat="42.9813551" lon="13.368734"><ele>385.0</ele><time>2026-04-18T10:50:54.085Z</time></trkpt><trkpt lat="42.9812805" lon="13.3686774"><ele>385.42857142857144</ele><time>2026-04-18T10:50:55.996Z</time></trkpt><trkpt lat="42.9812193" lon="13.3686258"><ele>385.8571428571429</ele><time>2026-04-18T10:50:58.023Z</time></trkpt><trkpt lat="42.9811689" lon="13.3685714"><ele>386.2857142857143</ele><time>2026-04-18T10:51:00.013Z</time></trkpt><trkpt lat="42.9810982" lon="13.3685022"><ele>386.7142857142857</ele><time>2026-04-18T10:51:03.041Z</time></trkpt><trkpt lat="42.9810481" lon="13.3684378"><ele>387.14285714285717</ele><time>2026-04-18T10:51:06.026Z</time></trkpt><trkpt lat="42.981012" lon="13.3683501"><ele>387.57142857142856</ele><time>2026-04-18T10:51:09.994Z</time></trkpt><trkpt lat="42.9810165" lon="13.3682554"><ele>388.0</ele><time>2026-04-18T10:51:20.012Z</time></trkpt><trkpt lat="42.9810613" lon="13.3681277"><ele>388.00000000000006</ele><time>2026-04-18T10:51:23.015Z</time></trkpt><trkpt lat="42.9811371" lon="13.3680526"><ele>388.0</ele><time>2026-04-18T10:51:25.018Z</time></trkpt><trkpt lat="42.9812059" lon="13.368011"><ele>388.0</ele><time>2026-04-18T10:51:27.035Z</time></trkpt><trkpt lat="42.9812767" lon="13.3679723"><ele>388.0</ele><time>2026-04-18T10:51:28.989Z</time></trkpt><trkpt lat="42.9813434" lon="13.3679479"><ele>388.00000000000006</ele><time>2026-04-18T10:51:31.019Z</time></trkpt><trkpt lat="42.9814069" lon="13.3679218"><ele>388.0</ele><time>2026-04-18T10:51:33.035Z</time></trkpt><trkpt lat="42.9814684" lon="13.3678714"><ele>389.83333333333337</ele><time>2026-04-18T10:51:36.028Z</time></trkpt><trkpt lat="42.9814904" lon="13.3677691"><ele>391.6666666666667</ele><time>2026-04-18T10:51:39.029Z</time></trkpt><trkpt lat="42.981529" lon="13.3676478"><ele>393.5</ele><time>2026-04-18T10:53:04.032Z</time></trkpt><trkpt lat="42.9815864" lon="13.3675397"><ele>395.33333333333337</ele><time>2026-04-18T10:53:06.041Z</time></trkpt><trkpt lat="42.9816352" lon="13.3674611"><ele>397.1666666666667</ele><time>2026-04-18T10:53:08.046Z</time></trkpt><trkpt lat="42.9815966" lon="13.3673486"><ele>399.0</ele><time>2026-04-18T10:53:19.04Z</time></trkpt><trkpt lat="42.9814995" lon="13.3672476"><ele>400.5</ele><time>2026-04-18T10:53:21.056Z</time></trkpt><trkpt lat="42.9814441" lon="13.3671375"><ele>402.0</ele><time>2026-04-18T10:53:22.056Z</time></trkpt><trkpt lat="42.9814058" lon="13.3669856"><ele>403.5</ele><time>2026-04-18T10:53:23.062Z</time></trkpt><trkpt lat="42.9813806" lon="13.3667745"><ele>405.0</ele><time>2026-04-18T10:53:24.064Z</time></trkpt><trkpt lat="42.9813537" lon="13.3665436"><ele>409.33333333333337</ele><time>2026-04-18T10:53:25.06Z</time></trkpt><trkpt lat="42.9813179" lon="13.3663036"><ele>413.6666666666667</ele><time>2026-04-18T10:53:26.054Z</time></trkpt><trkpt lat="42.9812715" lon="13.3660962"><ele>418.0</ele><time>2026-04-18T10:53:27.05Z</time></trkpt><trkpt lat="42.981214" lon="13.365925"><ele>418.0</ele><time>2026-04-18T10:53:28.069Z</time></trkpt><trkpt lat="42.9811487" lon="13.3657866"><ele>418.0</ele><time>2026-04-18T10:53:29.037Z</time></trkpt><trkpt lat="42.9810726" lon="13.3656767"><ele>418.0</ele><time>2026-04-18T10:53:30.069Z</time></trkpt><trkpt lat="42.9809846" lon="13.3656014"><ele>418.0</ele><time>2026-04-18T10:53:31.054Z</time></trkpt><trkpt lat="42.9808851" lon="13.3655475"><ele>418.0</ele><time>2026-04-18T10:53:32.049Z</time></trkpt><trkpt lat="42.9807745" lon="13.3655202"><ele>419.0</ele><time>2026-04-18T10:53:33.059Z</time></trkpt><trkpt lat="42.9806561" lon="13.3655162"><ele>420.0</ele><time>2026-04-18T10:53:34.061Z</time></trkpt><trkpt lat="42.9805489" lon="13.3655414"><ele>421.0</ele><time>2026-04-18T10:53:35.063Z</time></trkpt><trkpt lat="42.9804545" lon="13.3655852"><ele>422.0</ele><time>2026-04-18T10:53:36.049Z</time></trkpt><trkpt lat="42.9803764" lon="13.3656211"><ele>423.0</ele><time>2026-04-18T10:53:37.043Z</time></trkpt><trkpt lat="42.9802999" lon="13.36565"><ele>423.0</ele><time>2026-04-18T10:53:38.107Z</time></trkpt><trkpt lat="42.9802275" lon="13.3656752"><ele>423.0</ele><time>2026-04-18T10:53:39.052Z</time></trkpt><trkpt lat="42.9801605" lon="13.3656381"><ele>423.0</ele><time>2026-04-18T10:53:40.064Z</time></trkpt><trkpt lat="42.9801102" lon="13.3654899"><ele>423.0</ele><time>2026-04-18T10:53:42.047Z</time></trkpt><trkpt lat="42.9801581" lon="13.3653847"><ele>423.0</ele><time>2026-04-18T10:53:43.041Z</time></trkpt><trkpt lat="42.9802376" lon="13.3653114"><ele>423.0</ele><time>2026-04-18T10:53:44.054Z</time></trkpt><trkpt lat="42.9803375" lon="13.3652648"><ele>423.0</ele><time>2026-04-18T10:53:45.064Z</time></trkpt><trkpt lat="42.9804438" lon="13.3652278"><ele>423.0</ele><time>2026-04-18T10:53:46.043Z</time></trkpt><trkpt lat="42.980555" lon="13.3651977"><ele>423.0</ele><time>2026-04-18T10:53:47.068Z</time></trkpt><trkpt lat="42.9806736" lon="13.3651763"><ele>423.0</ele><time>2026-04-18T10:53:48.036Z</time></trkpt><trkpt lat="42.980788" lon="13.3651777"><ele>427.5</ele><time>2026-04-18T10:53:49.05Z</time></trkpt><trkpt lat="42.980906" lon="13.3651982"><ele>432.0</ele><time>2026-04-18T10:53:50.079Z</time></trkpt><trkpt lat="42.9810346" lon="13.365243"><ele>436.5</ele><time>2026-04-18T10:53:51.027Z</time></trkpt><trkpt lat="42.9811483" lon="13.3652999"><ele>441.0</ele><time>2026-04-18T10:53:52.041Z</time></trkpt><trkpt lat="42.9812446" lon="13.3653626"><ele>441.0</ele><time>2026-04-18T10:53:53.064Z</time></trkpt><trkpt lat="42.9813283" lon="13.3654302"><ele>441.0</ele><time>2026-04-18T10:53:54.049Z</time></trkpt><trkpt lat="42.981396" lon="13.3654964"><ele>441.0</ele><time>2026-04-18T10:53:55.03Z</time></trkpt><trkpt lat="42.9814537" lon="13.365551"><ele>441.0</ele><time>2026-04-18T10:53:56.047Z</time></trkpt><trkpt lat="42.9815674" lon="13.3656333"><ele>441.0</ele><time>2026-04-18T10:53:58.054Z</time></trkpt><trkpt lat="42.9816758" lon="13.3657232"><ele>442.3333333333333</ele><time>2026-04-18T10:54:00.053Z</time></trkpt><trkpt lat="42.9817426" lon="13.3657512"><ele>443.66666666666663</ele><time>2026-04-18T10:54:01.033Z</time></trkpt><trkpt lat="42.9818103" lon="13.3657494"><ele>445.0</ele><time>2026-04-18T10:54:02.044Z</time></trkpt><trkpt lat="42.9818729" lon="13.3657126"><ele>446.3333333333333</ele><time>2026-04-18T10:54:03.051Z</time></trkpt><trkpt lat="42.9819239" lon="13.3656506"><ele>447.66666666666663</ele><time>2026-04-18T10:54:04.061Z</time></trkpt><trkpt lat="42.9819536" lon="13.3655695"><ele>449.0</ele><time>2026-04-18T10:54:05.048Z</time></trkpt><trkpt lat="42.9819294" lon="13.3653977"><ele>449.0</ele><time>2026-04-18T10:54:07.048Z</time></trkpt><trkpt lat="42.9818787" lon="13.3653275"><ele>449.0</ele><time>2026-04-18T10:54:08.056Z</time></trkpt><trkpt lat="42.9818022" lon="13.3652778"><ele>449.0</ele><time>2026-04-18T10:54:09.058Z</time></trkpt><trkpt lat="42.9816984" lon="13.3652322"><ele>449.0</ele><time>2026-04-18T10:54:10.035Z</time></trkpt><trkpt lat="42.9815717" lon="13.3651741"><ele>449.0</ele><time>2026-04-18T10:54:11.031Z</time></trkpt><trkpt lat="42.981422" lon="13.3651041"><ele>446.3333333333333</ele><time>2026-04-18T10:54:12.1Z</time></trkpt><trkpt lat="42.9812678" lon="13.3650157"><ele>443.66666666666663</ele><time>2026-04-18T10:54:13.06Z</time></trkpt><trkpt lat="42.9811093" lon="13.364906"><ele>441.0</ele><time>2026-04-18T10:54:14.049Z</time></trkpt><trkpt lat="42.9809603" lon="13.3647951"><ele>443.33333333333337</ele><time>2026-04-18T10:54:15.058Z</time></trkpt><trkpt lat="42.9808245" lon="13.3646867"><ele>445.6666666666667</ele><time>2026-04-18T10:54:16.022Z</time></trkpt><trkpt lat="42.9807012" lon="13.3645664"><ele>448.0</ele><time>2026-04-18T10:54:17.06Z</time></trkpt><trkpt lat="42.980596" lon="13.3644277"><ele>448.0</ele><time>2026-04-18T10:54:18.102Z</time></trkpt><trkpt lat="42.9805058" lon="13.3642666"><ele>448.0</ele><time>2026-04-18T10:54:19.058Z</time></trkpt><trkpt lat="42.9804289" lon="13.3640788"><ele>448.0</ele><time>2026-04-18T10:54:20.044Z</time></trkpt><trkpt lat="42.9803619" lon="13.3638519"><ele>455.0</ele><time>2026-04-18T10:54:21.025Z</time></trkpt><trkpt lat="42.9803003" lon="13.3635896"><ele>462.0</ele><time>2026-04-18T10:54:22.058Z</time></trkpt><trkpt lat="42.9802361" lon="13.3633292"><ele>469.0</ele><time>2026-04-18T10:54:23.06Z</time></trkpt><trkpt lat="42.9801683" lon="13.3630745"><ele>476.33333333333337</ele><time>2026-04-18T10:54:24.046Z</time></trkpt><trkpt lat="42.9801059" lon="13.3628435"><ele>483.66666666666663</ele><time>2026-04-18T10:54:25.051Z</time></trkpt><trkpt lat="42.9800438" lon="13.3626359"><ele>491.0</ele><time>2026-04-18T10:54:26.027Z</time></trkpt><trkpt lat="42.979971" lon="13.3624454"><ele>484.3333333333333</ele><time>2026-04-18T10:54:27.063Z</time></trkpt><trkpt lat="42.9798795" lon="13.3622691"><ele>477.66666666666663</ele><time>2026-04-18T10:54:28.048Z</time></trkpt><trkpt lat="42.9797711" lon="13.3621045"><ele>471.0</ele><time>2026-04-18T10:54:29.041Z</time></trkpt><trkpt lat="42.9796517" lon="13.3619651"><ele>471.0</ele><time>2026-04-18T10:54:30.059Z</time></trkpt><trkpt lat="42.9795275" lon="13.3618577"><ele>471.0</ele><time>2026-04-18T10:54:31.021Z</time></trkpt><trkpt lat="42.9794038" lon="13.3617672"><ele>471.0</ele><time>2026-04-18T10:54:32.015Z</time></trkpt><trkpt lat="42.9792841" lon="13.3616744"><ele>471.0</ele><time>2026-04-18T10:54:33.013Z</time></trkpt><trkpt lat="42.9791731" lon="13.3615666"><ele>467.25</ele><time>2026-04-18T10:54:34.014Z</time></trkpt><trkpt lat="42.9790825" lon="13.3614465"><ele>463.5</ele><time>2026-04-18T10:54:35.014Z</time></trkpt><trkpt lat="42.9790068" lon="13.3613048"><ele>459.75</ele><time>2026-04-18T10:54:36.011Z</time></trkpt><trkpt lat="42.9789513" lon="13.3611465"><ele>456.0</ele><time>2026-04-18T10:54:37.017Z</time></trkpt><trkpt lat="42.9789031" lon="13.3609895"><ele>456.0</ele><time>2026-04-18T10:54:38.024Z</time></trkpt><trkpt lat="42.978889" lon="13.3608161"><ele>456.0</ele><time>2026-04-18T10:54:38.999Z</time></trkpt><trkpt lat="42.9788895" lon="13.3606421"><ele>456.0</ele><time>2026-04-18T10:54:39.984Z</time></trkpt><trkpt lat="42.9789109" lon="13.3604661"><ele>456.0</ele><time>2026-04-18T10:54:41.019Z</time></trkpt><trkpt lat="42.9789343" lon="13.3603009"><ele>457.4</ele><time>2026-04-18T10:54:42.011Z</time></trkpt><trkpt lat="42.9789516" lon="13.3601458"><ele>458.8</ele><time>2026-04-18T10:54:43.026Z</time></trkpt><trkpt lat="42.9789641" lon="13.3600018"><ele>460.19999999999993</ele><time>2026-04-18T10:54:44.018Z</time></trkpt><trkpt lat="42.9789636" lon="13.3598615"><ele>461.59999999999997</ele><time>2026-04-18T10:54:45.021Z</time></trkpt><trkpt lat="42.9789476" lon="13.3597291"><ele>463.0</ele><time>2026-04-18T10:54:46.013Z</time></trkpt><trkpt lat="42.9789187" lon="13.3596083"><ele>464.57142857142856</ele><time>2026-04-18T10:54:47.013Z</time></trkpt><trkpt lat="42.9788986" lon="13.3595045"><ele>466.1428571428571</ele><time>2026-04-18T10:54:48.015Z</time></trkpt><trkpt lat="42.9788729" lon="13.3594151"><ele>467.71428571428567</ele><time>2026-04-18T10:54:49.02Z</time></trkpt><trkpt lat="42.9788459" lon="13.3593311"><ele>469.2857142857142</ele><time>2026-04-18T10:54:50.013Z</time></trkpt><trkpt lat="42.9788226" lon="13.3592431"><ele>470.85714285714283</ele><time>2026-04-18T10:54:51.011Z</time></trkpt><trkpt lat="42.9787938" lon="13.3591534"><ele>472.42857142857133</ele><time>2026-04-18T10:54:52.013Z</time></trkpt><trkpt lat="42.9787575" lon="13.3590563"><ele>473.99999999999994</ele><time>2026-04-18T10:54:53.017Z</time></trkpt><trkpt lat="42.9786813" lon="13.3589667"><ele>474.0</ele><time>2026-04-18T10:54:54.017Z</time></trkpt><trkpt lat="42.9786081" lon="13.3588687"><ele>474.0</ele><time>2026-04-18T10:54:55.02Z</time></trkpt><trkpt lat="42.9785492" lon="13.3587658"><ele>474.0</ele><time>2026-04-18T10:54:56.011Z</time></trkpt><trkpt lat="42.978495" lon="13.3586595"><ele>474.0</ele><time>2026-04-18T10:54:57.017Z</time></trkpt><trkpt lat="42.9784449" lon="13.3585546"><ele>474.0</ele><time>2026-04-18T10:54:58.07Z</time></trkpt><trkpt lat="42.9783922" lon="13.358446"><ele>471.1666666666667</ele><time>2026-04-18T10:54:59.029Z</time></trkpt><trkpt lat="42.9783434" lon="13.358331"><ele>468.33333333333337</ele><time>2026-04-18T10:55:00.031Z</time></trkpt><trkpt lat="42.9782866" lon="13.3582223"><ele>465.5</ele><time>2026-04-18T10:55:01.034Z</time></trkpt><trkpt lat="42.9782491" lon="13.3581123"><ele>462.6666666666667</ele><time>2026-04-18T10:55:02.021Z</time></trkpt><trkpt lat="42.9782204" lon="13.3580117"><ele>459.83333333333337</ele><time>2026-04-18T10:55:03.062Z</time></trkpt><trkpt lat="42.9781973" lon="13.3579212"><ele>457.0</ele><time>2026-04-18T10:55:04.071Z</time></trkpt><trkpt lat="42.9781644" lon="13.3577635"><ele>457.00000000000006</ele><time>2026-04-18T10:55:06.025Z</time></trkpt><trkpt lat="42.9781237" lon="13.3576179"><ele>457.0</ele><time>2026-04-18T10:55:08.032Z</time></trkpt><trkpt lat="42.9780896" lon="13.3575133"><ele>457.0</ele><time>2026-04-18T10:55:10.056Z</time></trkpt><trkpt lat="42.9780659" lon="13.3574029"><ele>457.0</ele><time>2026-04-18T10:55:13.031Z</time></trkpt><trkpt lat="42.9780308" lon="13.3573246"><ele>457.00000000000006</ele><time>2026-04-18T10:55:15.993Z</time></trkpt><trkpt lat="42.9779673" lon="13.357317"><ele>457.0</ele><time>2026-04-18T10:55:19.05Z</time></trkpt><trkpt lat="42.9780342" lon="13.3574668"><ele>457.0</ele><time>2026-04-18T10:55:21.015Z</time></trkpt><trkpt lat="42.9780841" lon="13.3575866"><ele>457.0</ele><time>2026-04-18T10:55:22.065Z</time></trkpt><trkpt lat="42.9781283" lon="13.3577299"><ele>457.0</ele><time>2026-04-18T10:55:23.073Z</time></trkpt><trkpt lat="42.9781674" lon="13.3578925"><ele>457.0</ele><time>2026-04-18T10:55:24.068Z</time></trkpt><trkpt lat="42.9782139" lon="13.3580411"><ele>454.20000000000005</ele><time>2026-04-18T10:55:25.05Z</time></trkpt><trkpt lat="42.9782636" lon="13.358187"><ele>451.40000000000003</ele><time>2026-04-18T10:55:26.034Z</time></trkpt><trkpt lat="42.9783263" lon="13.358299"><ele>448.59999999999997</ele><time>2026-04-18T10:55:27.064Z</time></trkpt><trkpt lat="42.9783854" lon="13.3583955"><ele>445.79999999999995</ele><time>2026-04-18T10:55:28.056Z</time></trkpt><trkpt lat="42.9784364" lon="13.3584923"><ele>443.0</ele><time>2026-04-18T10:55:29.041Z</time></trkpt><trkpt lat="42.9784845" lon="13.3585886"><ele>448.16666666666663</ele><time>2026-04-18T10:55:30.056Z</time></trkpt><trkpt lat="42.9785223" lon="13.3586931"><ele>453.3333333333333</ele><time>2026-04-18T10:55:31.035Z</time></trkpt><trkpt lat="42.9785637" lon="13.3587721"><ele>458.5</ele><time>2026-04-18T10:55:32.055Z</time></trkpt><trkpt lat="42.9786188" lon="13.3588491"><ele>463.66666666666663</ele><time>2026-04-18T10:55:33.057Z</time></trkpt><trkpt lat="42.9786745" lon="13.3589271"><ele>468.8333333333333</ele><time>2026-04-18T10:55:34.056Z</time></trkpt><trkpt lat="42.978731" lon="13.3590019"><ele>474.0</ele><time>2026-04-18T10:55:35.049Z</time></trkpt><trkpt lat="42.9787781" lon="13.3590784"><ele>474.0</ele><time>2026-04-18T10:55:36.037Z</time></trkpt><trkpt lat="42.9788166" lon="13.3591506"><ele>474.0</ele><time>2026-04-18T10:55:37.067Z</time></trkpt><trkpt lat="42.9788508" lon="13.35926"><ele>474.0</ele><time>2026-04-18T10:55:39.049Z</time></trkpt><trkpt lat="42.9788378" lon="13.3593492"><ele>474.0</ele><time>2026-04-18T10:55:41.02Z</time></trkpt><trkpt lat="42.9788443" lon="13.359486"><ele>474.0</ele><time>2026-04-18T10:55:43.035Z</time></trkpt><trkpt lat="42.9788698" lon="13.3595989"><ele>474.0</ele><time>2026-04-18T10:55:44.057Z</time></trkpt><trkpt lat="42.9788749" lon="13.3597019"><ele>472.1666666666667</ele><time>2026-04-18T10:55:45.043Z</time></trkpt><trkpt lat="42.9788693" lon="13.3597996"><ele>470.33333333333337</ele><time>2026-04-18T10:55:46.046Z</time></trkpt><trkpt lat="42.9788633" lon="13.3598942"><ele>468.5</ele><time>2026-04-18T10:55:47.063Z</time></trkpt><trkpt lat="42.9788563" lon="13.3599832"><ele>466.6666666666667</ele><time>2026-04-18T10:55:48.058Z</time></trkpt><trkpt lat="42.9788201" lon="13.3601033"><ele>464.83333333333337</ele><time>2026-04-18T10:55:50.055Z</time></trkpt><trkpt lat="42.9787555" lon="13.3601248"><ele>463.0</ele><time>2026-04-18T10:55:52.035Z</time></trkpt><trkpt lat="42.9786358" lon="13.3600504"><ele>463.0</ele><time>2026-04-18T10:55:54.013Z</time></trkpt><trkpt lat="42.9785663" lon="13.3599517"><ele>462.99999999999994</ele><time>2026-04-18T10:55:55.045Z</time></trkpt><trkpt lat="42.9784957" lon="13.3598476"><ele>462.99999999999994</ele><time>2026-04-18T10:55:56.043Z</time></trkpt><trkpt lat="42.9784279" lon="13.3597525"><ele>463.0</ele><time>2026-04-18T10:55:57.049Z</time></trkpt><trkpt lat="42.9783702" lon="13.3596729"><ele>463.0</ele><time>2026-04-18T10:55:58.046Z</time></trkpt><trkpt lat="42.9783175" lon="13.3596005"><ele>457.33333333333337</ele><time>2026-04-18T10:55:59.078Z</time></trkpt><trkpt lat="42.9782679" lon="13.3595341"><ele>451.6666666666667</ele><time>2026-04-18T10:56:00.041Z</time></trkpt><trkpt lat="42.9782181" lon="13.3594712"><ele>446.0</ele><time>2026-04-18T10:56:01.047Z</time></trkpt><trkpt lat="42.9781726" lon="13.3594072"><ele>440.33333333333337</ele><time>2026-04-18T10:56:02.037Z</time></trkpt><trkpt lat="42.9780778" lon="13.3593209"><ele>434.6666666666667</ele><time>2026-04-18T10:56:04.064Z</time></trkpt><trkpt lat="42.977978" lon="13.3593456"><ele>429.0</ele><time>2026-04-18T10:56:06.063Z</time></trkpt><trkpt lat="42.9778968" lon="13.3594529"><ele>429.0</ele><time>2026-04-18T10:56:08.039Z</time></trkpt><trkpt lat="42.977843" lon="13.359591"><ele>429.0</ele><time>2026-04-18T10:56:10.065Z</time></trkpt><trkpt lat="42.9777975" lon="13.3596958"><ele>429.0</ele><time>2026-04-18T10:56:12.053Z</time></trkpt><trkpt lat="42.9777589" lon="13.3597894"><ele>429.0</ele><time>2026-04-18T10:56:14.022Z</time></trkpt><trkpt lat="42.9777069" lon="13.3598752"><ele>429.0</ele><time>2026-04-18T10:56:16.023Z</time></trkpt><trkpt lat="42.9776575" lon="13.359956"><ele>429.0</ele><time>2026-04-18T10:56:17.991Z</time></trkpt><trkpt lat="42.977602" lon="13.3600235"><ele>424.6</ele><time>2026-04-18T10:56:20.035Z</time></trkpt><trkpt lat="42.9775122" lon="13.3601061"><ele>420.2</ele><time>2026-04-18T10:56:22.058Z</time></trkpt><trkpt lat="42.9774214" lon="13.3601982"><ele>415.8</ele><time>2026-04-18T10:56:24.051Z</time></trkpt><trkpt lat="42.9773188" lon="13.360273"><ele>411.40000000000003</ele><time>2026-04-18T10:56:26.055Z</time></trkpt><trkpt lat="42.9772126" lon="13.360317"><ele>407.0</ele><time>2026-04-18T10:56:28.061Z</time></trkpt><trkpt lat="42.977093" lon="13.3602415"><ele>407.0</ele><time>2026-04-18T10:56:30.016Z</time></trkpt><trkpt lat="42.9770119" lon="13.360131"><ele>407.0</ele><time>2026-04-18T10:56:32.064Z</time></trkpt><trkpt lat="42.9769883" lon="13.3600423"><ele>407.0</ele><time>2026-04-18T10:56:34.035Z</time></trkpt><trkpt lat="42.9769612" lon="13.3599301"><ele>407.0</ele><time>2026-04-18T10:56:36.03Z</time></trkpt><trkpt lat="42.9768962" lon="13.3597714"><ele>407.0</ele><time>2026-04-18T10:56:38.061Z</time></trkpt><trkpt lat="42.9768429" lon="13.3597124"><ele>407.99999999999994</ele><time>2026-04-18T10:56:39.114Z</time></trkpt><trkpt lat="42.9767854" lon="13.3596704"><ele>409.0</ele><time>2026-04-18T10:56:40.065Z</time></trkpt><trkpt lat="42.9766986" lon="13.3596204"><ele>410.0</ele><time>2026-04-18T10:56:42.049Z</time></trkpt><trkpt lat="42.9766898" lon="13.3595189"><ele>411.0</ele><time>2026-04-18T10:56:43.997Z</time></trkpt><trkpt lat="42.9767639" lon="13.359424"><ele>411.99999999999994</ele><time>2026-04-18T10:56:46.011Z</time></trkpt><trkpt lat="42.9768291" lon="13.3592993"><ele>413.0</ele><time>2026-04-18T10:56:48.042Z</time></trkpt><trkpt lat="42.9768633" lon="13.3592218"><ele>413.0</ele><time>2026-04-18T10:56:50.034Z</time></trkpt><trkpt lat="42.9767983" lon="13.3592198"><ele>413.0</ele><time>2026-04-18T10:56:57.003Z</time></trkpt><trkpt lat="42.9767304" lon="13.3591521"><ele>413.0</ele><time>2026-04-18T10:56:58.017Z</time></trkpt><trkpt lat="42.9766587" lon="13.3590686"><ele>413.0</ele><time>2026-04-18T10:56:59.045Z</time></trkpt><trkpt lat="42.9766144" lon="13.3589979"><ele>413.0</ele><time>2026-04-18T10:56:59.993Z</time></trkpt><trkpt lat="42.9765683" lon="13.3589357"><ele>413.0</ele><time>2026-04-18T10:57:01.038Z</time></trkpt><trkpt lat="42.9765231" lon="13.3588597"><ele>413.0</ele><time>2026-04-18T10:57:02.061Z</time></trkpt><trkpt lat="42.9764793" lon="13.3587834"><ele>418.59999999999997</ele><time>2026-04-18T10:57:03.055Z</time></trkpt><trkpt lat="42.9764276" lon="13.3586924"><ele>424.2</ele><time>2026-04-18T10:57:04.057Z</time></trkpt><trkpt lat="42.9763621" lon="13.3585974"><ele>429.8</ele><time>2026-04-18T10:57:05.055Z</time></trkpt><trkpt lat="42.9762811" lon="13.3584798"><ele>435.4</ele><time>2026-04-18T10:57:06.049Z</time></trkpt><trkpt lat="42.9762062" lon="13.3583739"><ele>441.0</ele><time>2026-04-18T10:57:07.028Z</time></trkpt><trkpt lat="42.976136" lon="13.3582835"><ele>441.0</ele><time>2026-04-18T10:57:08.058Z</time></trkpt><trkpt lat="42.9760749" lon="13.3581902"><ele>441.0</ele><time>2026-04-18T10:57:09.053Z</time></trkpt><trkpt lat="42.976023" lon="13.3581159"><ele>441.0</ele><time>2026-04-18T10:57:10.043Z</time></trkpt><trkpt lat="42.9759067" lon="13.3580318"><ele>441.0</ele><time>2026-04-18T10:57:12.023Z</time></trkpt><trkpt lat="42.9758202" lon="13.3580338"><ele>441.0</ele><time>2026-04-18T10:57:13.054Z</time></trkpt><trkpt lat="42.9757272" lon="13.3580169"><ele>441.20000000000005</ele><time>2026-04-18T10:57:14.037Z</time></trkpt><trkpt lat="42.9756545" lon="13.3580029"><ele>441.40000000000003</ele><time>2026-04-18T10:57:15.039Z</time></trkpt><trkpt lat="42.9755206" lon="13.3580147"><ele>441.6</ele><time>2026-04-18T10:57:17.027Z</time></trkpt><trkpt lat="42.9754371" lon="13.3580365"><ele>441.8</ele><time>2026-04-18T10:57:18.042Z</time></trkpt><trkpt lat="42.9753297" lon="13.3580642"><ele>442.0</ele><time>2026-04-18T10:57:19.101Z</time></trkpt><trkpt lat="42.9752314" lon="13.3580893"><ele>441.6</ele><time>2026-04-18T10:57:20.059Z</time></trkpt><trkpt lat="42.9751351" lon="13.3581111"><ele>441.20000000000005</ele><time>2026-04-18T10:57:21.059Z</time></trkpt><trkpt lat="42.9750366" lon="13.3581404"><ele>440.8</ele><time>2026-04-18T10:57:22.025Z</time></trkpt><trkpt lat="42.9749335" lon="13.3582075"><ele>440.4</ele><time>2026-04-18T10:57:23.055Z</time></trkpt><trkpt lat="42.9748282" lon="13.3582739"><ele>440.0</ele><time>2026-04-18T10:57:24.055Z</time></trkpt><trkpt lat="42.9747296" lon="13.3583406"><ele>441.4</ele><time>2026-04-18T10:57:25.111Z</time></trkpt><trkpt lat="42.9746342" lon="13.3584007"><ele>442.8</ele><time>2026-04-18T10:57:26.067Z</time></trkpt><trkpt lat="42.9745519" lon="13.3584505"><ele>444.20000000000005</ele><time>2026-04-18T10:57:27.025Z</time></trkpt><trkpt lat="42.9744756" lon="13.3585047"><ele>445.6</ele><time>2026-04-18T10:57:28.066Z</time></trkpt><trkpt lat="42.9744144" lon="13.3585489"><ele>447.0</ele><time>2026-04-18T10:57:29.069Z</time></trkpt><trkpt lat="42.9742964" lon="13.3585759"><ele>447.0</ele><time>2026-04-18T10:57:31.119Z</time></trkpt><trkpt lat="42.9742291" lon="13.3585493"><ele>447.0</ele><time>2026-04-18T10:57:32.027Z</time></trkpt><trkpt lat="42.9741672" lon="13.3585048"><ele>447.0</ele><time>2026-04-18T10:57:33.075Z</time></trkpt><trkpt lat="42.9740969" lon="13.3584394"><ele>447.0</ele><time>2026-04-18T10:57:34.058Z</time></trkpt><trkpt lat="42.9740247" lon="13.3583621"><ele>447.0</ele><time>2026-04-18T10:57:35.066Z</time></trkpt><trkpt lat="42.9739583" lon="13.3582943"><ele>447.0</ele><time>2026-04-18T10:57:36.052Z</time></trkpt><trkpt lat="42.9739005" lon="13.3582352"><ele>448.3333333333333</ele><time>2026-04-18T10:57:37.021Z</time></trkpt><trkpt lat="42.9738464" lon="13.3581886"><ele>449.66666666666663</ele><time>2026-04-18T10:57:38.035Z</time></trkpt><trkpt lat="42.9737822" lon="13.35815"><ele>451.0</ele><time>2026-04-18T10:57:39.056Z</time></trkpt><trkpt lat="42.973703" lon="13.3581242"><ele>452.3333333333333</ele><time>2026-04-18T10:57:40.067Z</time></trkpt><trkpt lat="42.9736145" lon="13.3581018"><ele>453.66666666666663</ele><time>2026-04-18T10:57:41.06Z</time></trkpt><trkpt lat="42.9735213" lon="13.358077"><ele>455.0</ele><time>2026-04-18T10:57:42.028Z</time></trkpt><trkpt lat="42.9734191" lon="13.3580462"><ele>455.5</ele><time>2026-04-18T10:57:43.057Z</time></trkpt><trkpt lat="42.9733132" lon="13.3580144"><ele>456.0</ele><time>2026-04-18T10:57:44.058Z</time></trkpt><trkpt lat="42.9731915" lon="13.3579822"><ele>456.5</ele><time>2026-04-18T10:57:45.044Z</time></trkpt><trkpt lat="42.9730681" lon="13.3579411"><ele>457.0</ele><time>2026-04-18T10:57:46.042Z</time></trkpt><trkpt lat="42.9729567" lon="13.3578858"><ele>457.0</ele><time>2026-04-18T10:57:47.062Z</time></trkpt><trkpt lat="42.9728598" lon="13.3578136"><ele>457.0</ele><time>2026-04-18T10:57:48.051Z</time></trkpt><trkpt lat="42.9727619" lon="13.3577097"><ele>457.0</ele><time>2026-04-18T10:57:49.07Z</time></trkpt><trkpt lat="42.972663" lon="13.3575819"><ele>457.0</ele><time>2026-04-18T10:57:50.072Z</time></trkpt><trkpt lat="42.9725811" lon="13.3574561"><ele>457.25</ele><time>2026-04-18T10:57:51.08Z</time></trkpt><trkpt lat="42.9725096" lon="13.3573327"><ele>457.5</ele><time>2026-04-18T10:57:52.027Z</time></trkpt><trkpt lat="42.9724406" lon="13.3572189"><ele>457.75</ele><time>2026-04-18T10:57:53.074Z</time></trkpt><trkpt lat="42.9723581" lon="13.3571022"><ele>458.0</ele><time>2026-04-18T10:57:54.035Z</time></trkpt><trkpt lat="42.97226" lon="13.3569865"><ele>458.0</ele><time>2026-04-18T10:57:55.033Z</time></trkpt><trkpt lat="42.9721573" lon="13.356888"><ele>458.0</ele><time>2026-04-18T10:57:56.05Z</time></trkpt><trkpt lat="42.9720546" lon="13.3568056"><ele>458.0</ele><time>2026-04-18T10:57:57.033Z</time></trkpt><trkpt lat="42.9719589" lon="13.3567348"><ele>458.0</ele><time>2026-04-18T10:57:58.07Z</time></trkpt><trkpt lat="42.9718579" lon="13.3566626"><ele>458.0</ele><time>2026-04-18T10:57:59.059Z</time></trkpt><trkpt lat="42.971746" lon="13.3566102"><ele>457.99999999999994</ele><time>2026-04-18T10:58:00.068Z</time></trkpt><trkpt lat="42.9716362" lon="13.3565696"><ele>457.99999999999994</ele><time>2026-04-18T10:58:01.049Z</time></trkpt><trkpt lat="42.9715269" lon="13.3565321"><ele>458.0</ele><time>2026-04-18T10:58:02.017Z</time></trkpt><trkpt lat="42.9714262" lon="13.356496"><ele>458.0</ele><time>2026-04-18T10:58:03.062Z</time></trkpt><trkpt lat="42.9713311" lon="13.356462"><ele>457.99999999999994</ele><time>2026-04-18T10:58:04.081Z</time></trkpt><trkpt lat="42.9712381" lon="13.3564275"><ele>458.0</ele><time>2026-04-18T10:58:05.076Z</time></trkpt><trkpt lat="42.9711477" lon="13.3563946"><ele>458.0</ele><time>2026-04-18T10:58:06.051Z</time></trkpt><trkpt lat="42.9710615" lon="13.3563636"><ele>458.0</ele><time>2026-04-18T10:58:07.03Z</time></trkpt><trkpt lat="42.9709807" lon="13.3563218"><ele>457.99999999999994</ele><time>2026-04-18T10:58:08.077Z</time></trkpt><trkpt lat="42.9709094" lon="13.3562639"><ele>458.0</ele><time>2026-04-18T10:58:09.05Z</time></trkpt><trkpt lat="42.9708492" lon="13.356197"><ele>459.0</ele><time>2026-04-18T10:58:10.07Z</time></trkpt><trkpt lat="42.9707939" lon="13.3561111"><ele>459.99999999999994</ele><time>2026-04-18T10:58:11.059Z</time></trkpt><trkpt lat="42.970752" lon="13.3560068"><ele>460.99999999999994</ele><time>2026-04-18T10:58:12.032Z</time></trkpt><trkpt lat="42.9707233" lon="13.3558865"><ele>462.0</ele><time>2026-04-18T10:58:13.058Z</time></trkpt><trkpt lat="42.9707085" lon="13.3557503"><ele>463.0</ele><time>2026-04-18T10:58:14.055Z</time></trkpt><trkpt lat="42.9707153" lon="13.3555915"><ele>463.6666666666667</ele><time>2026-04-18T10:58:15.048Z</time></trkpt><trkpt lat="42.9707408" lon="13.3554018"><ele>464.33333333333337</ele><time>2026-04-18T10:58:16.06Z</time></trkpt><trkpt lat="42.9707721" lon="13.355192"><ele>465.0</ele><time>2026-04-18T10:58:17.017Z</time></trkpt><trkpt lat="42.9708049" lon="13.3549707"><ele>465.0</ele><time>2026-04-18T10:58:18.056Z</time></trkpt><trkpt lat="42.9708299" lon="13.354747"><ele>465.0</ele><time>2026-04-18T10:58:19.047Z</time></trkpt><trkpt lat="42.9708504" lon="13.3545464"><ele>465.0</ele><time>2026-04-18T10:58:20.056Z</time></trkpt><trkpt lat="42.9708759" lon="13.3543653"><ele>465.0</ele><time>2026-04-18T10:58:21.052Z</time></trkpt><trkpt lat="42.9709027" lon="13.3542002"><ele>464.6</ele><time>2026-04-18T10:58:22.044Z</time></trkpt><trkpt lat="42.9709271" lon="13.3540471"><ele>464.2</ele><time>2026-04-18T10:58:23.054Z</time></trkpt><trkpt lat="42.9709531" lon="13.353905"><ele>463.79999999999995</ele><time>2026-04-18T10:58:24.055Z</time></trkpt><trkpt lat="42.9709859" lon="13.3537692"><ele>463.4</ele><time>2026-04-18T10:58:25.07Z</time></trkpt><trkpt lat="42.9710357" lon="13.3536322"><ele>463.0</ele><time>2026-04-18T10:58:26.067Z</time></trkpt><trkpt lat="42.9710955" lon="13.3535049"><ele>462.0</ele><time>2026-04-18T10:58:27.038Z</time></trkpt><trkpt lat="42.9711931" lon="13.3533964"><ele>461.0</ele><time>2026-04-18T10:58:28.063Z</time></trkpt><trkpt lat="42.9712932" lon="13.3532893"><ele>460.0</ele><time>2026-04-18T10:58:29.046Z</time></trkpt><trkpt lat="42.9713885" lon="13.3531825"><ele>459.0</ele><time>2026-04-18T10:58:30.067Z</time></trkpt><trkpt lat="42.971472" lon="13.3530909"><ele>458.0</ele><time>2026-04-18T10:58:31.056Z</time></trkpt><trkpt lat="42.9715483" lon="13.3530073"><ele>457.0</ele><time>2026-04-18T10:58:32.037Z</time></trkpt><trkpt lat="42.9716244" lon="13.3529297"><ele>456.0</ele><time>2026-04-18T10:58:33.043Z</time></trkpt><trkpt lat="42.9716952" lon="13.3528537"><ele>455.0</ele><time>2026-04-18T10:58:34.07Z</time></trkpt><trkpt lat="42.9717611" lon="13.3527816"><ele>454.0</ele><time>2026-04-18T10:58:35.058Z</time></trkpt><trkpt lat="42.9718211" lon="13.3527096"><ele>453.0</ele><time>2026-04-18T10:58:36.053Z</time></trkpt><trkpt lat="42.9718886" lon="13.3526482"><ele>452.99999999999994</ele><time>2026-04-18T10:58:37.07Z</time></trkpt><trkpt lat="42.9719431" lon="13.35259"><ele>453.0</ele><time>2026-04-18T10:58:38.048Z</time></trkpt><trkpt lat="42.9719967" lon="13.3525267"><ele>452.99999999999994</ele><time>2026-04-18T10:58:39.054Z</time></trkpt><trkpt lat="42.9720539" lon="13.3524575"><ele>452.99999999999994</ele><time>2026-04-18T10:58:40.05Z</time></trkpt><trkpt lat="42.9721074" lon="13.3523949"><ele>453.0</ele><time>2026-04-18T10:58:41.047Z</time></trkpt><trkpt lat="42.9721661" lon="13.3523386"><ele>452.99999999999994</ele><time>2026-04-18T10:58:42.076Z</time></trkpt><trkpt lat="42.972223" lon="13.3522719"><ele>452.99999999999994</ele><time>2026-04-18T10:58:43.015Z</time></trkpt><trkpt lat="42.9722776" lon="13.3522135"><ele>450.4</ele><time>2026-04-18T10:58:44.024Z</time></trkpt><trkpt lat="42.9723612" lon="13.3521214"><ele>447.79999999999995</ele><time>2026-04-18T10:58:46.078Z</time></trkpt><trkpt lat="42.9723893" lon="13.3520439"><ele>445.2</ele><time>2026-04-18T10:58:48.01Z</time></trkpt><trkpt lat="42.9722944" lon="13.352026"><ele>442.6</ele><time>2026-04-18T10:58:52.048Z</time></trkpt><trkpt lat="42.9722042" lon="13.3520835"><ele>440.0</ele><time>2026-04-18T10:58:53.1Z</time></trkpt><trkpt lat="42.972117" lon="13.3521285"><ele>439.99999999999994</ele><time>2026-04-18T10:58:54.041Z</time></trkpt><trkpt lat="42.9720379" lon="13.352167"><ele>440.0</ele><time>2026-04-18T10:58:55.063Z</time></trkpt><trkpt lat="42.9719703" lon="13.3521742"><ele>440.0</ele><time>2026-04-18T10:58:56.064Z</time></trkpt><trkpt lat="42.9718901" lon="13.3521716"><ele>440.0</ele><time>2026-04-18T10:58:57.066Z</time></trkpt><trkpt lat="42.9718" lon="13.3521598"><ele>439.99999999999994</ele><time>2026-04-18T10:58:58.047Z</time></trkpt><trkpt lat="42.971718" lon="13.3521469"><ele>440.0</ele><time>2026-04-18T10:58:59.07Z</time></trkpt><trkpt lat="42.9716252" lon="13.3521266"><ele>440.66666666666663</ele><time>2026-04-18T10:59:00.039Z</time></trkpt><trkpt lat="42.9715567" lon="13.3521311"><ele>441.3333333333333</ele><time>2026-04-18T10:59:01.055Z</time></trkpt><trkpt lat="42.9714717" lon="13.3520547"><ele>442.0</ele><time>2026-04-18T10:59:03.061Z</time></trkpt><trkpt lat="42.971443" lon="13.3519774"><ele>442.66666666666663</ele><time>2026-04-18T10:59:04.05Z</time></trkpt><trkpt lat="42.9714217" lon="13.3518894"><ele>443.3333333333333</ele><time>2026-04-18T10:59:05.065Z</time></trkpt><trkpt lat="42.9714077" lon="13.3518008"><ele>444.0</ele><time>2026-04-18T10:59:06.061Z</time></trkpt><trkpt lat="42.9714216" lon="13.3516328"><ele>444.0</ele><time>2026-04-18T10:59:08.046Z</time></trkpt><trkpt lat="42.9714552" lon="13.3515321"><ele>444.0</ele><time>2026-04-18T10:59:09.055Z</time></trkpt><trkpt lat="42.9714939" lon="13.3514463"><ele>444.0</ele><time>2026-04-18T10:59:10.051Z</time></trkpt><trkpt lat="42.9715497" lon="13.3513387"><ele>444.0</ele><time>2026-04-18T10:59:11.059Z</time></trkpt><trkpt lat="42.9716103" lon="13.3511878"><ele>444.0</ele><time>2026-04-18T10:59:12.049Z</time></trkpt><trkpt lat="42.9716688" lon="13.3510727"><ele>441.6</ele><time>2026-04-18T10:59:13.031Z</time></trkpt><trkpt lat="42.9717285" lon="13.3509942"><ele>439.2</ele><time>2026-04-18T10:59:14.056Z</time></trkpt><trkpt lat="42.9718032" lon="13.3508905"><ele>436.80000000000007</ele><time>2026-04-18T10:59:16.045Z</time></trkpt><trkpt lat="42.9718667" lon="13.3507593"><ele>434.40000000000003</ele><time>2026-04-18T10:59:18.022Z</time></trkpt><trkpt lat="42.9718912" lon="13.3506796"><ele>432.0</ele><time>2026-04-18T10:59:20.037Z</time></trkpt><trkpt lat="42.9719022" lon="13.3505247"><ele>432.0</ele><time>2026-04-18T10:59:22.13Z</time></trkpt><trkpt lat="42.9718575" lon="13.3503961"><ele>432.00000000000006</ele><time>2026-04-18T10:59:24.04Z</time></trkpt><trkpt lat="42.9717635" lon="13.3502941"><ele>432.00000000000006</ele><time>2026-04-18T10:59:26.056Z</time></trkpt><trkpt lat="42.9717059" lon="13.3502527"><ele>432.0</ele><time>2026-04-18T10:59:27.037Z</time></trkpt><trkpt lat="42.9716417" lon="13.3501862"><ele>432.0</ele><time>2026-04-18T10:59:28.031Z</time></trkpt><trkpt lat="42.971597" lon="13.3500911"><ele>433.8</ele><time>2026-04-18T10:59:29.04Z</time></trkpt><trkpt lat="42.9715341" lon="13.3499879"><ele>435.6</ele><time>2026-04-18T10:59:30.034Z</time></trkpt><trkpt lat="42.9714566" lon="13.3498952"><ele>437.40000000000003</ele><time>2026-04-18T10:59:31.028Z</time></trkpt><trkpt lat="42.971375" lon="13.349805"><ele>439.20000000000005</ele><time>2026-04-18T10:59:32.01Z</time></trkpt><trkpt lat="42.9713081" lon="13.3497219"><ele>441.0</ele><time>2026-04-18T10:59:33.04Z</time></trkpt><trkpt lat="42.9712852" lon="13.3496353"><ele>441.0</ele><time>2026-04-18T10:59:34.077Z</time></trkpt><trkpt lat="42.9712564" lon="13.3495144"><ele>441.0</ele><time>2026-04-18T10:59:35.043Z</time></trkpt><trkpt lat="42.9712303" lon="13.3493841"><ele>441.0</ele><time>2026-04-18T10:59:36.044Z</time></trkpt><trkpt lat="42.9712182" lon="13.3495884"><ele>441.0</ele><time>2026-04-18T10:59:46.127Z</time></trkpt><trkpt lat="42.971175" lon="13.3496598"><ele>441.0</ele><time>2026-04-18T10:59:47.044Z</time></trkpt><trkpt lat="42.9711281" lon="13.3497317"><ele>441.6</ele><time>2026-04-18T10:59:48.072Z</time></trkpt><trkpt lat="42.9709783" lon="13.3497929"><ele>442.20000000000005</ele><time>2026-04-18T10:59:50.041Z</time></trkpt><trkpt lat="42.970872" lon="13.3497992"><ele>442.79999999999995</ele><time>2026-04-18T10:59:52.04Z</time></trkpt><trkpt lat="42.9708092" lon="13.3497396"><ele>443.4</ele><time>2026-04-18T10:59:53.054Z</time></trkpt><trkpt lat="42.9707318" lon="13.349652"><ele>444.0</ele><time>2026-04-18T10:59:54.044Z</time></trkpt><trkpt lat="42.9706625" lon="13.3495768"><ele>446.0</ele><time>2026-04-18T10:59:55.049Z</time></trkpt><trkpt lat="42.9705812" lon="13.3495286"><ele>448.0</ele><time>2026-04-18T10:59:56.048Z</time></trkpt><trkpt lat="42.9704903" lon="13.3494774"><ele>450.0</ele><time>2026-04-18T10:59:57.05Z</time></trkpt><trkpt lat="42.970409" lon="13.3494376"><ele>452.0</ele><time>2026-04-18T10:59:58.056Z</time></trkpt><trkpt lat="42.9703458" lon="13.3494031"><ele>454.0</ele><time>2026-04-18T10:59:59.048Z</time></trkpt><trkpt lat="42.9702655" lon="13.3493742"><ele>456.0</ele><time>2026-04-18T11:00:00.034Z</time></trkpt><trkpt lat="42.9701887" lon="13.3493429"><ele>456.0</ele><time>2026-04-18T11:00:01.053Z</time></trkpt><trkpt lat="42.9700928" lon="13.3492873"><ele>456.0</ele><time>2026-04-18T11:00:03.045Z</time></trkpt><trkpt lat="42.9700177" lon="13.3492335"><ele>456.0</ele><time>2026-04-18T11:00:04.055Z</time></trkpt><trkpt lat="42.969934" lon="13.3491755"><ele>456.0</ele><time>2026-04-18T11:00:05.041Z</time></trkpt><trkpt lat="42.9698425" lon="13.3491245"><ele>456.0</ele><time>2026-04-18T11:00:06.049Z</time></trkpt><trkpt lat="42.9697402" lon="13.3490524"><ele>455.6666666666667</ele><time>2026-04-18T11:00:07.041Z</time></trkpt><trkpt lat="42.9696561" lon="13.3489786"><ele>455.33333333333337</ele><time>2026-04-18T11:00:08.04Z</time></trkpt><trkpt lat="42.9695839" lon="13.3489216"><ele>455.0</ele><time>2026-04-18T11:00:09.04Z</time></trkpt><trkpt lat="42.9695287" lon="13.3488363"><ele>454.6666666666667</ele><time>2026-04-18T11:00:10.047Z</time></trkpt><trkpt lat="42.9694519" lon="13.3487704"><ele>454.33333333333337</ele><time>2026-04-18T11:00:11.056Z</time></trkpt><trkpt lat="42.9693764" lon="13.3487349"><ele>454.0</ele><time>2026-04-18T11:00:12.03Z</time></trkpt><trkpt lat="42.9692903" lon="13.3487058"><ele>454.0</ele><time>2026-04-18T11:00:13.044Z</time></trkpt><trkpt lat="42.9691968" lon="13.3486742"><ele>454.0</ele><time>2026-04-18T11:00:14.044Z</time></trkpt><trkpt lat="42.9690879" lon="13.3486425"><ele>454.0</ele><time>2026-04-18T11:00:15.11Z</time></trkpt><trkpt lat="42.9690021" lon="13.3486272"><ele>454.0</ele><time>2026-04-18T11:00:16.041Z</time></trkpt><trkpt lat="42.9689155" lon="13.3485819"><ele>454.0</ele><time>2026-04-18T11:00:18.022Z</time></trkpt><trkpt lat="42.9688458" lon="13.3485712"><ele>459.0</ele><time>2026-04-18T11:00:19.049Z</time></trkpt><trkpt lat="42.9687401" lon="13.348499"><ele>464.0</ele><time>2026-04-18T11:00:33Z</time></trkpt><trkpt lat="42.9686481" lon="13.3484466"><ele>469.0</ele><time>2026-04-18T11:00:38.001Z</time></trkpt><trkpt lat="42.9685135" lon="13.348462"><ele>474.0</ele><time>2026-04-18T11:00:40.049Z</time></trkpt><trkpt lat="42.968403" lon="13.3484833"><ele>474.4</ele><time>2026-04-18T11:00:41.04Z</time></trkpt><trkpt lat="42.9683142" lon="13.3485001"><ele>474.79999999999995</ele><time>2026-04-18T11:00:42.045Z</time></trkpt><trkpt lat="42.9682222" lon="13.3485196"><ele>475.20000000000005</ele><time>2026-04-18T11:00:43.039Z</time></trkpt><trkpt lat="42.9681144" lon="13.3485305"><ele>475.6</ele><time>2026-04-18T11:00:44.061Z</time></trkpt><trkpt lat="42.9679977" lon="13.3485314"><ele>476.0</ele><time>2026-04-18T11:00:45.047Z</time></trkpt><trkpt lat="42.967886" lon="13.3485235"><ele>476.0</ele><time>2026-04-18T11:00:46.046Z</time></trkpt><trkpt lat="42.9677873" lon="13.3485154"><ele>476.0</ele><time>2026-04-18T11:00:47.049Z</time></trkpt><trkpt lat="42.967704" lon="13.3485127"><ele>476.0</ele><time>2026-04-18T11:00:48.032Z</time></trkpt><trkpt lat="42.9676097" lon="13.3485093"><ele>476.0</ele><time>2026-04-18T11:00:49.052Z</time></trkpt><trkpt lat="42.9675127" lon="13.3485063"><ele>476.0</ele><time>2026-04-18T11:00:50.045Z</time></trkpt><trkpt lat="42.9674245" lon="13.3485067"><ele>475.66666666666663</ele><time>2026-04-18T11:00:51.04Z</time></trkpt><trkpt lat="42.9673436" lon="13.348502"><ele>475.3333333333333</ele><time>2026-04-18T11:00:52.049Z</time></trkpt><trkpt lat="42.9672574" lon="13.3484958"><ele>475.0</ele><time>2026-04-18T11:00:53.033Z</time></trkpt><trkpt lat="42.9671674" lon="13.3484854"><ele>474.66666666666663</ele><time>2026-04-18T11:00:54.049Z</time></trkpt><trkpt lat="42.9670741" lon="13.3484797"><ele>474.3333333333333</ele><time>2026-04-18T11:00:55.046Z</time></trkpt><trkpt lat="42.9669875" lon="13.3484625"><ele>474.0</ele><time>2026-04-18T11:00:56.051Z</time></trkpt><trkpt lat="42.9669251" lon="13.3484463"><ele>474.0</ele><time>2026-04-18T11:00:57.046Z</time></trkpt><trkpt lat="42.9668537" lon="13.3484168"><ele>474.0</ele><time>2026-04-18T11:00:59.018Z</time></trkpt><trkpt lat="42.9667617" lon="13.3484132"><ele>474.0</ele><time>2026-04-18T11:01:01.027Z</time></trkpt><trkpt lat="42.9666259" lon="13.3484005"><ele>474.0</ele><time>2026-04-18T11:01:03.042Z</time></trkpt><trkpt lat="42.9665419" lon="13.3483917"><ele>474.0</ele><time>2026-04-18T11:01:04.035Z</time></trkpt><trkpt lat="42.9664253" lon="13.3484011"><ele>475.75</ele><time>2026-04-18T11:01:06.109Z</time></trkpt><trkpt lat="42.9663129" lon="13.3484278"><ele>477.5</ele><time>2026-04-18T11:01:08.036Z</time></trkpt><trkpt lat="42.9662041" lon="13.3484288"><ele>479.25</ele><time>2026-04-18T11:01:10.06Z</time></trkpt><trkpt lat="42.9660629" lon="13.3483705"><ele>481.0</ele><time>2026-04-18T11:01:12.056Z</time></trkpt><trkpt lat="42.9659668" lon="13.3483303"><ele>481.00000000000006</ele><time>2026-04-18T11:01:13.074Z</time></trkpt><trkpt lat="42.9658898" lon="13.3482855"><ele>481.0</ele><time>2026-04-18T11:01:14.053Z</time></trkpt><trkpt lat="42.9658139" lon="13.3482275"><ele>481.0</ele><time>2026-04-18T11:01:15.056Z</time></trkpt><trkpt lat="42.9657373" lon="13.3481653"><ele>481.0</ele><time>2026-04-18T11:01:16.048Z</time></trkpt><trkpt lat="42.9656708" lon="13.348111"><ele>481.00000000000006</ele><time>2026-04-18T11:01:17.055Z</time></trkpt><trkpt lat="42.965585" lon="13.3480526"><ele>481.0</ele><time>2026-04-18T11:01:19.033Z</time></trkpt><trkpt lat="42.9655032" lon="13.3480137"><ele>481.00000000000006</ele><time>2026-04-18T11:01:21.012Z</time></trkpt><trkpt lat="42.9654325" lon="13.3480091"><ele>481.0</ele><time>2026-04-18T11:01:22.029Z</time></trkpt><trkpt lat="42.9653519" lon="13.348003"><ele>481.0</ele><time>2026-04-18T11:01:23.073Z</time></trkpt><trkpt lat="42.9652553" lon="13.3479958"><ele>481.0</ele><time>2026-04-18T11:01:24.041Z</time></trkpt><trkpt lat="42.9651614" lon="13.3479696"><ele>481.00000000000006</ele><time>2026-04-18T11:01:25.041Z</time></trkpt><trkpt lat="42.9650656" lon="13.3479517"><ele>481.0</ele><time>2026-04-18T11:01:26.037Z</time></trkpt><trkpt lat="42.9649826" lon="13.3479464"><ele>481.0</ele><time>2026-04-18T11:01:27.046Z</time></trkpt><trkpt lat="42.9648957" lon="13.3479462"><ele>481.0</ele><time>2026-04-18T11:01:28.047Z</time></trkpt><trkpt lat="42.9647788" lon="13.3479458"><ele>481.0</ele><time>2026-04-18T11:01:29.035Z</time></trkpt><trkpt lat="42.9646821" lon="13.3479583"><ele>481.0</ele><time>2026-04-18T11:01:30.044Z</time></trkpt><trkpt lat="42.9645733" lon="13.347976"><ele>481.0</ele><time>2026-04-18T11:01:31.038Z</time></trkpt><trkpt lat="42.9644917" lon="13.3479877"><ele>481.0</ele><time>2026-04-18T11:01:32.052Z</time></trkpt><trkpt lat="42.9643701" lon="13.3480082"><ele>481.0</ele><time>2026-04-18T11:01:33.038Z</time></trkpt><trkpt lat="42.9642776" lon="13.3480337"><ele>481.0</ele><time>2026-04-18T11:01:34.046Z</time></trkpt><trkpt lat="42.9641976" lon="13.3480528"><ele>481.0</ele><time>2026-04-18T11:01:35.046Z</time></trkpt><trkpt lat="42.9640964" lon="13.3480592"><ele>481.0</ele><time>2026-04-18T11:01:36.046Z</time></trkpt><trkpt lat="42.9639888" lon="13.3480431"><ele>481.0</ele><time>2026-04-18T11:01:37.043Z</time></trkpt><trkpt lat="42.9638717" lon="13.3480153"><ele>481.0</ele><time>2026-04-18T11:01:38.058Z</time></trkpt><trkpt lat="42.9637522" lon="13.3479882"><ele>481.0</ele><time>2026-04-18T11:01:39.104Z</time></trkpt><trkpt lat="42.9636825" lon="13.3479784"><ele>481.0</ele><time>2026-04-18T11:01:40.064Z</time></trkpt><trkpt lat="42.9635604" lon="13.3479589"><ele>481.0</ele><time>2026-04-18T11:01:42.042Z</time></trkpt><trkpt lat="42.9634909" lon="13.347954"><ele>481.00000000000006</ele><time>2026-04-18T11:01:43.059Z</time></trkpt><trkpt lat="42.9633917" lon="13.3479743"><ele>481.0</ele><time>2026-04-18T11:01:45.12Z</time></trkpt><trkpt lat="42.9633021" lon="13.3479723"><ele>481.0</ele><time>2026-04-18T11:01:46.054Z</time></trkpt><trkpt lat="42.9632057" lon="13.3479362"><ele>481.0</ele><time>2026-04-18T11:01:47.085Z</time></trkpt><trkpt lat="42.9631347" lon="13.3478927"><ele>481.00000000000006</ele><time>2026-04-18T11:01:48.055Z</time></trkpt><trkpt lat="42.9630692" lon="13.3478448"><ele>481.0</ele><time>2026-04-18T11:01:50.06Z</time></trkpt><trkpt lat="42.9629977" lon="13.3477913"><ele>481.33333333333337</ele><time>2026-04-18T11:01:53.025Z</time></trkpt><trkpt lat="42.9629301" lon="13.3477417"><ele>481.6666666666667</ele><time>2026-04-18T11:01:56.044Z</time></trkpt><trkpt lat="42.9628343" lon="13.3477067"><ele>482.0</ele><time>2026-04-18T11:02:01.043Z</time></trkpt><trkpt lat="42.962767" lon="13.3476771"><ele>482.33333333333337</ele><time>2026-04-18T11:02:02.014Z</time></trkpt><trkpt lat="42.9626723" lon="13.3476185"><ele>482.6666666666667</ele><time>2026-04-18T11:02:03.046Z</time></trkpt><trkpt lat="42.9626015" lon="13.3475288"><ele>483.0</ele><time>2026-04-18T11:02:04.061Z</time></trkpt><trkpt lat="42.9625469" lon="13.3474326"><ele>482.59999999999997</ele><time>2026-04-18T11:02:05.049Z</time></trkpt><trkpt lat="42.9625084" lon="13.3473451"><ele>482.19999999999993</ele><time>2026-04-18T11:02:06.059Z</time></trkpt><trkpt lat="42.9624071" lon="13.3472348"><ele>481.8</ele><time>2026-04-18T11:02:08.025Z</time></trkpt><trkpt lat="42.9623418" lon="13.3471835"><ele>481.4</ele><time>2026-04-18T11:02:09.062Z</time></trkpt><trkpt lat="42.9622657" lon="13.3471296"><ele>481.0</ele><time>2026-04-18T11:02:10.05Z</time></trkpt><trkpt lat="42.9621719" lon="13.3470831"><ele>481.0</ele><time>2026-04-18T11:02:11.029Z</time></trkpt><trkpt lat="42.9620753" lon="13.3470523"><ele>481.0</ele><time>2026-04-18T11:02:12.049Z</time></trkpt><trkpt lat="42.961975" lon="13.3470326"><ele>481.0</ele><time>2026-04-18T11:02:13.043Z</time></trkpt><trkpt lat="42.9618625" lon="13.347029"><ele>481.0</ele><time>2026-04-18T11:02:14.041Z</time></trkpt><trkpt lat="42.9617611" lon="13.3470197"><ele>481.0</ele><time>2026-04-18T11:02:15.039Z</time></trkpt><trkpt lat="42.9616633" lon="13.3469853"><ele>482.20000000000005</ele><time>2026-04-18T11:02:16.028Z</time></trkpt><trkpt lat="42.961584" lon="13.3469228"><ele>483.40000000000003</ele><time>2026-04-18T11:02:17.024Z</time></trkpt><trkpt lat="42.961464" lon="13.346909"><ele>484.6</ele><time>2026-04-18T11:02:18.095Z</time></trkpt><trkpt lat="42.9613549" lon="13.3469128"><ele>485.8</ele><time>2026-04-18T11:02:19.056Z</time></trkpt><trkpt lat="42.9612555" lon="13.3469043"><ele>487.0</ele><time>2026-04-18T11:02:20.039Z</time></trkpt><trkpt lat="42.9611529" lon="13.3468838"><ele>487.0</ele><time>2026-04-18T11:02:22.012Z</time></trkpt><trkpt lat="42.9610411" lon="13.3468451"><ele>487.00000000000006</ele><time>2026-04-18T11:02:24.004Z</time></trkpt><trkpt lat="42.9609465" lon="13.3468144"><ele>487.00000000000006</ele><time>2026-04-18T11:02:25.06Z</time></trkpt><trkpt lat="42.9608673" lon="13.34676"><ele>487.0</ele><time>2026-04-18T11:02:26.05Z</time></trkpt><trkpt lat="42.9607859" lon="13.3467169"><ele>487.0</ele><time>2026-04-18T11:02:27.045Z</time></trkpt><trkpt lat="42.9607165" lon="13.3466913"><ele>488.50000000000006</ele><time>2026-04-18T11:02:28.044Z</time></trkpt><trkpt lat="42.9606414" lon="13.3466901"><ele>490.0</ele><time>2026-04-18T11:02:29.053Z</time></trkpt><trkpt lat="42.9605583" lon="13.3467116"><ele>491.5</ele><time>2026-04-18T11:02:30.043Z</time></trkpt><trkpt lat="42.9604773" lon="13.3467301"><ele>493.0</ele><time>2026-04-18T11:02:31.043Z</time></trkpt><trkpt lat="42.9603917" lon="13.346743"><ele>494.50000000000006</ele><time>2026-04-18T11:02:32.034Z</time></trkpt><trkpt lat="42.9603074" lon="13.3467547"><ele>496.0</ele><time>2026-04-18T11:02:33.025Z</time></trkpt><trkpt lat="42.9602167" lon="13.3467575"><ele>496.00000000000006</ele><time>2026-04-18T11:02:34.056Z</time></trkpt><trkpt lat="42.9601364" lon="13.3467605"><ele>496.0</ele><time>2026-04-18T11:02:35.013Z</time></trkpt><trkpt lat="42.9599846" lon="13.3467458"><ele>496.0</ele><time>2026-04-18T11:02:37.018Z</time></trkpt><trkpt lat="42.959911" lon="13.3467298"><ele>496.0</ele><time>2026-04-18T11:02:38.017Z</time></trkpt><trkpt lat="42.9598464" lon="13.3467084"><ele>496.00000000000006</ele><time>2026-04-18T11:02:39.02Z</time></trkpt><trkpt lat="42.9597728" lon="13.3466961"><ele>496.0</ele><time>2026-04-18T11:02:40.02Z</time></trkpt><trkpt lat="42.9597097" lon="13.346674"><ele>497.50000000000006</ele><time>2026-04-18T11:02:41.027Z</time></trkpt><trkpt lat="42.9596472" lon="13.3466467"><ele>499.0</ele><time>2026-04-18T11:02:42.011Z</time></trkpt><trkpt lat="42.9595899" lon="13.3466109"><ele>500.5</ele><time>2026-04-18T11:02:43.015Z</time></trkpt><trkpt lat="42.9594596" lon="13.3465599"><ele>502.0</ele><time>2026-04-18T11:02:45.021Z</time></trkpt><trkpt lat="42.9593929" lon="13.3465259"><ele>503.50000000000006</ele><time>2026-04-18T11:02:46.036Z</time></trkpt><trkpt lat="42.9593292" lon="13.3464903"><ele>505.0</ele><time>2026-04-18T11:02:47.017Z</time></trkpt><trkpt lat="42.9591817" lon="13.3464358"><ele>507.33333333333337</ele><time>2026-04-18T11:02:49.064Z</time></trkpt><trkpt lat="42.9591161" lon="13.3464199"><ele>509.6666666666667</ele><time>2026-04-18T11:02:50.037Z</time></trkpt><trkpt lat="42.9589928" lon="13.3463747"><ele>512.0</ele><time>2026-04-18T11:02:52.039Z</time></trkpt><trkpt lat="42.9589173" lon="13.346356"><ele>514.3333333333334</ele><time>2026-04-18T11:02:53.033Z</time></trkpt><trkpt lat="42.9588358" lon="13.3463377"><ele>516.6666666666666</ele><time>2026-04-18T11:02:54.06Z</time></trkpt><trkpt lat="42.9587658" lon="13.3463225"><ele>519.0</ele><time>2026-04-18T11:02:55.05Z</time></trkpt><trkpt lat="42.9586713" lon="13.3463132"><ele>515.0</ele><time>2026-04-18T11:02:56.046Z</time></trkpt><trkpt lat="42.9585697" lon="13.3462593"><ele>511.0</ele><time>2026-04-18T11:02:58.035Z</time></trkpt><trkpt lat="42.9584476" lon="13.3461934"><ele>507.0</ele><time>2026-04-18T11:03:00.038Z</time></trkpt><trkpt lat="42.9583495" lon="13.3461713"><ele>503.0</ele><time>2026-04-18T11:03:01.024Z</time></trkpt><trkpt lat="42.9582508" lon="13.3461451"><ele>499.0</ele><time>2026-04-18T11:03:02.042Z</time></trkpt><trkpt lat="42.9581564" lon="13.3460986"><ele>499.0</ele><time>2026-04-18T11:03:03.056Z</time></trkpt><trkpt lat="42.9580569" lon="13.3460552"><ele>499.0</ele><time>2026-04-18T11:03:04.048Z</time></trkpt><trkpt lat="42.9579509" lon="13.3460105"><ele>499.0</ele><time>2026-04-18T11:03:05.052Z</time></trkpt><trkpt lat="42.957854" lon="13.3459698"><ele>499.0</ele><time>2026-04-18T11:03:06.048Z</time></trkpt><trkpt lat="42.9577601" lon="13.3459323"><ele>499.0</ele><time>2026-04-18T11:03:07.045Z</time></trkpt><trkpt lat="42.9576749" lon="13.3459071"><ele>499.00000000000006</ele><time>2026-04-18T11:03:08.049Z</time></trkpt><trkpt lat="42.9576056" lon="13.3458862"><ele>499.0</ele><time>2026-04-18T11:03:09.045Z</time></trkpt><trkpt lat="42.9575349" lon="13.3458559"><ele>499.0</ele><time>2026-04-18T11:03:11.034Z</time></trkpt><trkpt lat="42.9574679" lon="13.3457743"><ele>499.0</ele><time>2026-04-18T11:03:13.001Z</time></trkpt><trkpt lat="42.9574325" lon="13.3456867"><ele>499.00000000000006</ele><time>2026-04-18T11:03:13.987Z</time></trkpt><trkpt lat="42.9573884" lon="13.3455837"><ele>499.0</ele><time>2026-04-18T11:03:15.062Z</time></trkpt><trkpt lat="42.9573495" lon="13.3454815"><ele>496.4</ele><time>2026-04-18T11:03:16.06Z</time></trkpt><trkpt lat="42.9572936" lon="13.3453802"><ele>493.79999999999995</ele><time>2026-04-18T11:03:17.038Z</time></trkpt><trkpt lat="42.9572515" lon="13.3452881"><ele>491.20000000000005</ele><time>2026-04-18T11:03:18.05Z</time></trkpt><trkpt lat="42.9572013" lon="13.3452028"><ele>488.6</ele><time>2026-04-18T11:03:19.033Z</time></trkpt><trkpt lat="42.9571406" lon="13.3451121"><ele>486.0</ele><time>2026-04-18T11:03:20.051Z</time></trkpt><trkpt lat="42.9570368" lon="13.3450466"><ele>486.0</ele><time>2026-04-18T11:03:21.045Z</time></trkpt><trkpt lat="42.9569344" lon="13.3449909"><ele>486.0</ele><time>2026-04-18T11:03:22.048Z</time></trkpt><trkpt lat="42.9568478" lon="13.3449334"><ele>486.0</ele><time>2026-04-18T11:03:23.035Z</time></trkpt><trkpt lat="42.95679" lon="13.3448695"><ele>486.0</ele><time>2026-04-18T11:03:24.025Z</time></trkpt><trkpt lat="42.9567484" lon="13.3447859"><ele>486.0</ele><time>2026-04-18T11:03:25.043Z</time></trkpt><trkpt lat="42.956727" lon="13.3446773"><ele>486.0</ele><time>2026-04-18T11:03:26.053Z</time></trkpt><trkpt lat="42.9566937" lon="13.3445361"><ele>485.20000000000005</ele><time>2026-04-18T11:03:27.047Z</time></trkpt><trkpt lat="42.9566614" lon="13.3444002"><ele>484.40000000000003</ele><time>2026-04-18T11:03:28.048Z</time></trkpt><trkpt lat="42.9566254" lon="13.3442835"><ele>483.6</ele><time>2026-04-18T11:03:29.024Z</time></trkpt><trkpt lat="42.9566101" lon="13.3441858"><ele>482.8</ele><time>2026-04-18T11:03:30.036Z</time></trkpt><trkpt lat="42.9565699" lon="13.3440363"><ele>482.0</ele><time>2026-04-18T11:03:32.042Z</time></trkpt><trkpt lat="42.9564716" lon="13.3439923"><ele>481.99999999999994</ele><time>2026-04-18T11:03:34.019Z</time></trkpt><trkpt lat="42.956409" lon="13.3440175"><ele>482.0</ele><time>2026-04-18T11:03:35.054Z</time></trkpt><trkpt lat="42.9563518" lon="13.3440971"><ele>482.0</ele><time>2026-04-18T11:03:36.042Z</time></trkpt><trkpt lat="42.9562971" lon="13.3441971"><ele>482.0</ele><time>2026-04-18T11:03:37.039Z</time></trkpt><trkpt lat="42.9562414" lon="13.3442963"><ele>481.99999999999994</ele><time>2026-04-18T11:03:38.046Z</time></trkpt><trkpt lat="42.956169" lon="13.3443791"><ele>482.0</ele><time>2026-04-18T11:03:39.023Z</time></trkpt><trkpt lat="42.9561022" lon="13.3444475"><ele>482.0</ele><time>2026-04-18T11:03:40.044Z</time></trkpt><trkpt lat="42.9560359" lon="13.3445061"><ele>482.00000000000006</ele><time>2026-04-18T11:03:41.046Z</time></trkpt><trkpt lat="42.9559638" lon="13.3445248"><ele>482.00000000000006</ele><time>2026-04-18T11:03:42.035Z</time></trkpt><trkpt lat="42.9558838" lon="13.3444937"><ele>482.0</ele><time>2026-04-18T11:03:43.035Z</time></trkpt><trkpt lat="42.9557741" lon="13.3444479"><ele>482.0</ele><time>2026-04-18T11:03:44.016Z</time></trkpt><trkpt lat="42.9556665" lon="13.3444236"><ele>481.0</ele><time>2026-04-18T11:03:45.036Z</time></trkpt><trkpt lat="42.9555735" lon="13.3444048"><ele>480.00000000000006</ele><time>2026-04-18T11:03:46.047Z</time></trkpt><trkpt lat="42.9554865" lon="13.3443884"><ele>479.00000000000006</ele><time>2026-04-18T11:03:47.058Z</time></trkpt><trkpt lat="42.9553755" lon="13.344368"><ele>478.0</ele><time>2026-04-18T11:03:48.099Z</time></trkpt><trkpt lat="42.9552667" lon="13.344339"><ele>477.0</ele><time>2026-04-18T11:03:49.025Z</time></trkpt><trkpt lat="42.9551817" lon="13.3443011"><ele>477.0</ele><time>2026-04-18T11:03:50.059Z</time></trkpt><trkpt lat="42.9550915" lon="13.3442447"><ele>477.00000000000006</ele><time>2026-04-18T11:03:51.042Z</time></trkpt><trkpt lat="42.9550063" lon="13.3441645"><ele>477.00000000000006</ele><time>2026-04-18T11:03:52.053Z</time></trkpt><trkpt lat="42.9549489" lon="13.344066"><ele>477.0</ele><time>2026-04-18T11:03:53.034Z</time></trkpt><trkpt lat="42.9548887" lon="13.3439572"><ele>477.0</ele><time>2026-04-18T11:03:54.025Z</time></trkpt><trkpt lat="42.9548162" lon="13.3438276"><ele>476.1666666666667</ele><time>2026-04-18T11:03:55.048Z</time></trkpt><trkpt lat="42.9547699" lon="13.3436966"><ele>475.33333333333337</ele><time>2026-04-18T11:03:56.053Z</time></trkpt><trkpt lat="42.9547188" lon="13.3436118"><ele>474.5</ele><time>2026-04-18T11:03:57.043Z</time></trkpt><trkpt lat="42.9546569" lon="13.3435698"><ele>473.6666666666667</ele><time>2026-04-18T11:03:58.038Z</time></trkpt><trkpt lat="42.9545889" lon="13.3435718"><ele>472.83333333333337</ele><time>2026-04-18T11:03:59.023Z</time></trkpt><trkpt lat="42.954486" lon="13.3435844"><ele>472.0</ele><time>2026-04-18T11:04:01.045Z</time></trkpt><trkpt lat="42.9544043" lon="13.343667"><ele>472.00000000000006</ele><time>2026-04-18T11:04:03.031Z</time></trkpt><trkpt lat="42.9543278" lon="13.3437159"><ele>472.0</ele><time>2026-04-18T11:04:05.039Z</time></trkpt><trkpt lat="42.9542449" lon="13.3436535"><ele>472.0</ele><time>2026-04-18T11:04:06.995Z</time></trkpt><trkpt lat="42.9542264" lon="13.3435687"><ele>472.0</ele><time>2026-04-18T11:04:08.015Z</time></trkpt><trkpt lat="42.9542348" lon="13.3434713"><ele>472.00000000000006</ele><time>2026-04-18T11:04:09.013Z</time></trkpt><trkpt lat="42.9542464" lon="13.3433757"><ele>472.0</ele><time>2026-04-18T11:04:10.074Z</time></trkpt><trkpt lat="42.9542717" lon="13.3432297"><ele>472.00000000000006</ele><time>2026-04-18T11:04:12.068Z</time></trkpt><trkpt lat="42.9543082" lon="13.343156"><ele>472.0</ele><time>2026-04-18T11:04:13.028Z</time></trkpt><trkpt lat="42.9543844" lon="13.3431127"><ele>472.0</ele><time>2026-04-18T11:04:13.98Z</time></trkpt><trkpt lat="42.9544723" lon="13.3430977"><ele>472.0</ele><time>2026-04-18T11:04:15.041Z</time></trkpt><trkpt lat="42.9545751" lon="13.3430804"><ele>472.00000000000006</ele><time>2026-04-18T11:04:16.042Z</time></trkpt><trkpt lat="42.9546823" lon="13.343071"><ele>472.0</ele><time>2026-04-18T11:04:17.048Z</time></trkpt><trkpt lat="42.9547763" lon="13.343059"><ele>472.0</ele><time>2026-04-18T11:04:18.053Z</time></trkpt><trkpt lat="42.9548659" lon="13.3430522"><ele>472.0</ele><time>2026-04-18T11:04:19.024Z</time></trkpt><trkpt lat="42.9549412" lon="13.3430466"><ele>472.0</ele><time>2026-04-18T11:04:20.053Z</time></trkpt><trkpt lat="42.9550088" lon="13.343029"><ele>472.0</ele><time>2026-04-18T11:04:21.052Z</time></trkpt><trkpt lat="42.9550755" lon="13.3429969"><ele>472.0</ele><time>2026-04-18T11:04:22.041Z</time></trkpt><trkpt lat="42.9551307" lon="13.342943"><ele>472.0</ele><time>2026-04-18T11:04:23.062Z</time></trkpt><trkpt lat="42.9551644" lon="13.3428642"><ele>472.0</ele><time>2026-04-18T11:04:24.023Z</time></trkpt><trkpt lat="42.9551729" lon="13.3427652"><ele>472.0</ele><time>2026-04-18T11:04:25.045Z</time></trkpt><trkpt lat="42.9551613" lon="13.3426559"><ele>472.00000000000006</ele><time>2026-04-18T11:04:26.043Z</time></trkpt><trkpt lat="42.955142" lon="13.3425299"><ele>472.00000000000006</ele><time>2026-04-18T11:04:27.057Z</time></trkpt><trkpt lat="42.955126" lon="13.3423966"><ele>472.0</ele><time>2026-04-18T11:04:28.06Z</time></trkpt><trkpt lat="42.9551509" lon="13.3422039"><ele>472.0</ele><time>2026-04-18T11:04:29.029Z</time></trkpt><trkpt lat="42.9551784" lon="13.3420196"><ele>474.40000000000003</ele><time>2026-04-18T11:04:30.047Z</time></trkpt><trkpt lat="42.9552233" lon="13.3418608"><ele>476.80000000000007</ele><time>2026-04-18T11:04:31.053Z</time></trkpt><trkpt lat="42.955283" lon="13.3417356"><ele>479.2</ele><time>2026-04-18T11:04:32.075Z</time></trkpt><trkpt lat="42.9553496" lon="13.3416433"><ele>481.6</ele><time>2026-04-18T11:04:33.045Z</time></trkpt><trkpt lat="42.9554274" lon="13.3415809"><ele>484.0</ele><time>2026-04-18T11:04:34.021Z</time></trkpt><trkpt lat="42.9555213" lon="13.3415628"><ele>484.0</ele><time>2026-04-18T11:04:35.061Z</time></trkpt><trkpt lat="42.9556306" lon="13.341581"><ele>484.0</ele><time>2026-04-18T11:04:36.045Z</time></trkpt><trkpt lat="42.9557604" lon="13.3416181"><ele>484.0</ele><time>2026-04-18T11:04:37.038Z</time></trkpt><trkpt lat="42.9559167" lon="13.3416321"><ele>484.0</ele><time>2026-04-18T11:04:38.063Z</time></trkpt><trkpt lat="42.9560735" lon="13.3416316"><ele>486.0</ele><time>2026-04-18T11:04:39.027Z</time></trkpt><trkpt lat="42.9562201" lon="13.3416344"><ele>488.0</ele><time>2026-04-18T11:04:40.048Z</time></trkpt><trkpt lat="42.9563527" lon="13.3416583"><ele>490.0</ele><time>2026-04-18T11:04:41.056Z</time></trkpt><trkpt lat="42.956476" lon="13.3417068"><ele>492.0</ele><time>2026-04-18T11:04:42.051Z</time></trkpt><trkpt lat="42.9565851" lon="13.3417998"><ele>492.0</ele><time>2026-04-18T11:04:43.044Z</time></trkpt><trkpt lat="42.956688" lon="13.3419387"><ele>492.0</ele><time>2026-04-18T11:04:44.069Z</time></trkpt><trkpt lat="42.9567873" lon="13.3421039"><ele>492.0</ele><time>2026-04-18T11:04:45.063Z</time></trkpt><trkpt lat="42.9568833" lon="13.3422582"><ele>492.0</ele><time>2026-04-18T11:04:46.056Z</time></trkpt><trkpt lat="42.9569775" lon="13.3423994"><ele>488.25</ele><time>2026-04-18T11:04:47.041Z</time></trkpt><trkpt lat="42.95707" lon="13.3425304"><ele>484.5</ele><time>2026-04-18T11:04:48.026Z</time></trkpt><trkpt lat="42.9571591" lon="13.3426529"><ele>480.75</ele><time>2026-04-18T11:04:49.037Z</time></trkpt><trkpt lat="42.9572464" lon="13.3427572"><ele>477.0</ele><time>2026-04-18T11:04:50.059Z</time></trkpt><trkpt lat="42.9573322" lon="13.3428487"><ele>477.0</ele><time>2026-04-18T11:04:51.049Z</time></trkpt><trkpt lat="42.9574156" lon="13.342926"><ele>477.00000000000006</ele><time>2026-04-18T11:04:52.052Z</time></trkpt><trkpt lat="42.9574978" lon="13.3429944"><ele>477.00000000000006</ele><time>2026-04-18T11:04:53.045Z</time></trkpt><trkpt lat="42.957582" lon="13.3430599"><ele>477.0</ele><time>2026-04-18T11:04:54.035Z</time></trkpt><trkpt lat="42.9576647" lon="13.3431186"><ele>477.0</ele><time>2026-04-18T11:04:55.014Z</time></trkpt><trkpt lat="42.9577409" lon="13.3431737"><ele>477.8</ele><time>2026-04-18T11:04:56.074Z</time></trkpt><trkpt lat="42.9578105" lon="13.343224"><ele>478.6</ele><time>2026-04-18T11:04:57.045Z</time></trkpt><trkpt lat="42.9578923" lon="13.343288"><ele>479.40000000000003</ele><time>2026-04-18T11:04:59.043Z</time></trkpt><trkpt lat="42.9579633" lon="13.3432809"><ele>480.20000000000005</ele><time>2026-04-18T11:05:13.031Z</time></trkpt><trkpt lat="42.9579898" lon="13.343153"><ele>481.0</ele><time>2026-04-18T11:05:16.043Z</time></trkpt><trkpt lat="42.9579527" lon="13.3429901"><ele>481.00000000000006</ele><time>2026-04-18T11:05:18.089Z</time></trkpt><trkpt lat="42.957931" lon="13.3428786"><ele>481.0</ele><time>2026-04-18T11:05:19.046Z</time></trkpt><trkpt lat="42.9578974" lon="13.3427608"><ele>481.0</ele><time>2026-04-18T11:05:20.06Z</time></trkpt><trkpt lat="42.9578692" lon="13.3426637"><ele>481.0</ele><time>2026-04-18T11:05:21.044Z</time></trkpt><trkpt lat="42.9577934" lon="13.3425665"><ele>481.00000000000006</ele><time>2026-04-18T11:05:23.061Z</time></trkpt><trkpt lat="42.9577803" lon="13.3424665"><ele>481.0</ele><time>2026-04-18T11:05:25.044Z</time></trkpt><trkpt lat="42.9578089" lon="13.3423818"><ele>481.0</ele><time>2026-04-18T11:05:27.009Z</time></trkpt><trkpt lat="42.9579356" lon="13.3423976"><ele>481.0</ele><time>2026-04-18T11:05:29.044Z</time></trkpt><trkpt lat="42.9580063" lon="13.3424095"><ele>481.0</ele><time>2026-04-18T11:05:30.041Z</time></trkpt><trkpt lat="42.9580931" lon="13.3424266"><ele>481.0</ele><time>2026-04-18T11:05:31.061Z</time></trkpt><trkpt lat="42.9581785" lon="13.3424446"><ele>481.0</ele><time>2026-04-18T11:05:32.064Z</time></trkpt><trkpt lat="42.9582558" lon="13.3424563"><ele>481.00000000000006</ele><time>2026-04-18T11:05:33.049Z</time></trkpt><trkpt lat="42.9583393" lon="13.3424699"><ele>481.0</ele><time>2026-04-18T11:05:34.05Z</time></trkpt><trkpt lat="42.9584146" lon="13.3424834"><ele>481.0</ele><time>2026-04-18T11:05:35.049Z</time></trkpt><trkpt lat="42.9584883" lon="13.3425136"><ele>481.0</ele><time>2026-04-18T11:05:36.061Z</time></trkpt><trkpt lat="42.9585621" lon="13.3425522"><ele>481.00000000000006</ele><time>2026-04-18T11:05:37.053Z</time></trkpt><trkpt lat="42.9586289" lon="13.3426013"><ele>481.0</ele><time>2026-04-18T11:05:38.064Z</time></trkpt><trkpt lat="42.9586967" lon="13.3426647"><ele>481.83333333333337</ele><time>2026-04-18T11:05:39.06Z</time></trkpt><trkpt lat="42.9587568" lon="13.3427377"><ele>482.6666666666667</ele><time>2026-04-18T11:05:40.117Z</time></trkpt><trkpt lat="42.9588097" lon="13.3428232"><ele>483.5</ele><time>2026-04-18T11:05:41.063Z</time></trkpt><trkpt lat="42.9588531" lon="13.3429033"><ele>484.33333333333337</ele><time>2026-04-18T11:05:42.051Z</time></trkpt><trkpt lat="42.9588978" lon="13.3429923"><ele>485.1666666666667</ele><time>2026-04-18T11:05:43.048Z</time></trkpt><trkpt lat="42.9589365" lon="13.343068"><ele>486.0</ele><time>2026-04-18T11:05:44.057Z</time></trkpt><trkpt lat="42.9589986" lon="13.3431888"><ele>484.3333333333333</ele><time>2026-04-18T11:05:46.028Z</time></trkpt><trkpt lat="42.9590516" lon="13.3432614"><ele>482.66666666666663</ele><time>2026-04-18T11:05:48.03Z</time></trkpt><trkpt lat="42.9590889" lon="13.3433539"><ele>481.0</ele><time>2026-04-18T11:05:51.062Z</time></trkpt><trkpt lat="42.9590991" lon="13.3434394"><ele>479.3333333333333</ele><time>2026-04-18T11:07:29.988Z</time></trkpt><trkpt lat="42.9591491" lon="13.3435156"><ele>477.66666666666663</ele><time>2026-04-18T11:07:33.026Z</time></trkpt><trkpt lat="42.9592231" lon="13.343507"><ele>476.0</ele><time>2026-04-18T11:07:34.976Z</time></trkpt><trkpt lat="42.9593024" lon="13.3434369"><ele>475.66666666666663</ele><time>2026-04-18T11:07:37.022Z</time></trkpt><trkpt lat="42.9593604" lon="13.3433388"><ele>475.3333333333333</ele><time>2026-04-18T11:07:39.053Z</time></trkpt><trkpt lat="42.9594127" lon="13.3432399"><ele>475.0</ele><time>2026-04-18T11:07:41.047Z</time></trkpt><trkpt lat="42.9594718" lon="13.3431566"><ele>474.66666666666663</ele><time>2026-04-18T11:07:43.035Z</time></trkpt><trkpt lat="42.9595375" lon="13.3430914"><ele>474.3333333333333</ele><time>2026-04-18T11:07:44.991Z</time></trkpt><trkpt lat="42.9596127" lon="13.3430466"><ele>474.0</ele><time>2026-04-18T11:07:47.026Z</time></trkpt><trkpt lat="42.9597152" lon="13.3430365"><ele>474.0</ele><time>2026-04-18T11:07:49.04Z</time></trkpt><trkpt lat="42.9598368" lon="13.343049"><ele>474.0</ele><time>2026-04-18T11:07:51.038Z</time></trkpt><trkpt lat="42.9599161" lon="13.343074"><ele>474.0</ele><time>2026-04-18T11:07:53.036Z</time></trkpt><trkpt lat="42.9599931" lon="13.3431256"><ele>474.0</ele><time>2026-04-18T11:07:56.033Z</time></trkpt><trkpt lat="42.9600654" lon="13.3431894"><ele>474.0</ele><time>2026-04-18T11:07:58.038Z</time></trkpt><trkpt lat="42.9601682" lon="13.3432401"><ele>472.6</ele><time>2026-04-18T11:08:00.032Z</time></trkpt><trkpt lat="42.960272" lon="13.3432825"><ele>471.2</ele><time>2026-04-18T11:08:02.063Z</time></trkpt><trkpt lat="42.9603523" lon="13.343297"><ele>469.80000000000007</ele><time>2026-04-18T11:08:04.011Z</time></trkpt><trkpt lat="42.9604769" lon="13.3432845"><ele>468.40000000000003</ele><time>2026-04-18T11:08:06.052Z</time></trkpt><trkpt lat="42.9605413" lon="13.3432813"><ele>467.0</ele><time>2026-04-18T11:08:07.058Z</time></trkpt><trkpt lat="42.9606267" lon="13.3432739"><ele>466.99999999999994</ele><time>2026-04-18T11:08:09.067Z</time></trkpt><trkpt lat="42.9607187" lon="13.3432701"><ele>467.0</ele><time>2026-04-18T11:08:11.038Z</time></trkpt><trkpt lat="42.9608093" lon="13.3432219"><ele>467.0</ele><time>2026-04-18T11:08:13.045Z</time></trkpt><trkpt lat="42.9608507" lon="13.3431402"><ele>467.0</ele><time>2026-04-18T11:08:15.007Z</time></trkpt><trkpt lat="42.9608843" lon="13.343023"><ele>466.99999999999994</ele><time>2026-04-18T11:08:17.023Z</time></trkpt><trkpt lat="42.9609347" lon="13.342942"><ele>467.0</ele><time>2026-04-18T11:08:19.046Z</time></trkpt><trkpt lat="42.9609978" lon="13.3428908"><ele>469.5714285714285</ele><time>2026-04-18T11:08:22.046Z</time></trkpt><trkpt lat="42.9610633" lon="13.3428576"><ele>472.1428571428571</ele><time>2026-04-18T11:08:26.036Z</time></trkpt><trkpt lat="42.96112" lon="13.3429002"><ele>474.7142857142857</ele><time>2026-04-18T11:08:28.027Z</time></trkpt><trkpt lat="42.9612066" lon="13.342941"><ele>477.2857142857143</ele><time>2026-04-18T11:08:30.037Z</time></trkpt><trkpt lat="42.9612746" lon="13.3429493"><ele>479.8571428571429</ele><time>2026-04-18T11:08:31.082Z</time></trkpt><trkpt lat="42.9613426" lon="13.3429628"><ele>482.4285714285715</ele><time>2026-04-18T11:08:32.052Z</time></trkpt><trkpt lat="42.9614133" lon="13.3429798"><ele>485.00000000000006</ele><time>2026-04-18T11:08:33.051Z</time></trkpt><trkpt lat="42.9614925" lon="13.3429842"><ele>484.99999999999994</ele><time>2026-04-18T11:08:34.058Z</time></trkpt><trkpt lat="42.961586" lon="13.3429848"><ele>485.0</ele><time>2026-04-18T11:08:35.048Z</time></trkpt><trkpt lat="42.9616748" lon="13.3430113"><ele>485.0</ele><time>2026-04-18T11:08:36.056Z</time></trkpt><trkpt lat="42.9617601" lon="13.3430328"><ele>485.0</ele><time>2026-04-18T11:08:37.043Z</time></trkpt><trkpt lat="42.9618319" lon="13.3430559"><ele>484.99999999999994</ele><time>2026-04-18T11:08:38.066Z</time></trkpt><trkpt lat="42.961914" lon="13.3430943"><ele>485.0</ele><time>2026-04-18T11:08:39.055Z</time></trkpt><trkpt lat="42.9619985" lon="13.3431165"><ele>483.7142857142858</ele><time>2026-04-18T11:08:40.049Z</time></trkpt><trkpt lat="42.9620642" lon="13.3431357"><ele>482.42857142857144</ele><time>2026-04-18T11:08:41.047Z</time></trkpt><trkpt lat="42.9621366" lon="13.3431339"><ele>481.14285714285717</ele><time>2026-04-18T11:08:42.053Z</time></trkpt><trkpt lat="42.9622169" lon="13.3431284"><ele>479.8571428571429</ele><time>2026-04-18T11:08:43.059Z</time></trkpt><trkpt lat="42.9622915" lon="13.343105"><ele>478.57142857142856</ele><time>2026-04-18T11:08:44.077Z</time></trkpt><trkpt lat="42.9623706" lon="13.343089"><ele>477.2857142857143</ele><time>2026-04-18T11:08:45.059Z</time></trkpt><trkpt lat="42.9624431" lon="13.3430852"><ele>476.0</ele><time>2026-04-18T11:08:46.067Z</time></trkpt><trkpt lat="42.9625078" lon="13.3430615"><ele>477.8333333333333</ele><time>2026-04-18T11:08:47.061Z</time></trkpt><trkpt lat="42.9626083" lon="13.3429691"><ele>479.66666666666663</ele><time>2026-04-18T11:08:49.062Z</time></trkpt><trkpt lat="42.9626622" lon="13.342889"><ele>481.5</ele><time>2026-04-18T11:08:50.087Z</time></trkpt><trkpt lat="42.9627131" lon="13.3428231"><ele>483.33333333333337</ele><time>2026-04-18T11:08:51.059Z</time></trkpt><trkpt lat="42.9627726" lon="13.3427648"><ele>485.1666666666667</ele><time>2026-04-18T11:08:52.035Z</time></trkpt><trkpt lat="42.9628478" lon="13.3427197"><ele>487.0</ele><time>2026-04-18T11:08:53.048Z</time></trkpt><trkpt lat="42.9629271" lon="13.3426857"><ele>487.0</ele><time>2026-04-18T11:08:54.04Z</time></trkpt><trkpt lat="42.9629952" lon="13.3426656"><ele>487.00000000000006</ele><time>2026-04-18T11:08:55.052Z</time></trkpt><trkpt lat="42.9630891" lon="13.3426293"><ele>487.00000000000006</ele><time>2026-04-18T11:08:57.028Z</time></trkpt><trkpt lat="42.9631684" lon="13.3425914"><ele>487.0</ele><time>2026-04-18T11:08:59.012Z</time></trkpt><trkpt lat="42.9632646" lon="13.342572"><ele>487.0</ele><time>2026-04-18T11:09:01.055Z</time></trkpt><trkpt lat="42.9633711" lon="13.3425912"><ele>486.20000000000005</ele><time>2026-04-18T11:09:03.044Z</time></trkpt><trkpt lat="42.9634555" lon="13.34264"><ele>485.40000000000003</ele><time>2026-04-18T11:09:05.063Z</time></trkpt><trkpt lat="42.9635357" lon="13.3426221"><ele>484.59999999999997</ele><time>2026-04-18T11:09:07.02Z</time></trkpt><trkpt lat="42.9636138" lon="13.3425257"><ele>483.79999999999995</ele><time>2026-04-18T11:09:09.049Z</time></trkpt><trkpt lat="42.9637051" lon="13.3424028"><ele>483.0</ele><time>2026-04-18T11:09:11.055Z</time></trkpt><trkpt lat="42.963779" lon="13.342296"><ele>486.2</ele><time>2026-04-18T11:09:13.041Z</time></trkpt><trkpt lat="42.9638631" lon="13.342173"><ele>489.4</ele><time>2026-04-18T11:09:15.056Z</time></trkpt><trkpt lat="42.9639304" lon="13.3420757"><ele>492.59999999999997</ele><time>2026-04-18T11:09:16.049Z</time></trkpt><trkpt lat="42.9640004" lon="13.3419767"><ele>495.79999999999995</ele><time>2026-04-18T11:09:17.042Z</time></trkpt><trkpt lat="42.9640782" lon="13.3418616"><ele>499.0</ele><time>2026-04-18T11:09:18.05Z</time></trkpt><trkpt lat="42.964158" lon="13.341757"><ele>496.75</ele><time>2026-04-18T11:09:19.063Z</time></trkpt><trkpt lat="42.9642568" lon="13.3416616"><ele>494.5</ele><time>2026-04-18T11:09:20.06Z</time></trkpt><trkpt lat="42.96437" lon="13.341566"><ele>492.25</ele><time>2026-04-18T11:09:21.035Z</time></trkpt><trkpt lat="42.9644812" lon="13.3414875"><ele>490.0</ele><time>2026-04-18T11:09:22.042Z</time></trkpt><trkpt lat="42.9645966" lon="13.3414245"><ele>489.5</ele><time>2026-04-18T11:09:23.028Z</time></trkpt><trkpt lat="42.964715" lon="13.3413629"><ele>489.0</ele><time>2026-04-18T11:09:24.061Z</time></trkpt><trkpt lat="42.9648469" lon="13.3413276"><ele>488.5</ele><time>2026-04-18T11:09:25.057Z</time></trkpt><trkpt lat="42.9649634" lon="13.3412922"><ele>488.0</ele><time>2026-04-18T11:09:26.06Z</time></trkpt><trkpt lat="42.9650618" lon="13.341265"><ele>487.99999999999994</ele><time>2026-04-18T11:09:27.134Z</time></trkpt><trkpt lat="42.9651359" lon="13.3412428"><ele>488.0</ele><time>2026-04-18T11:09:28.057Z</time></trkpt><trkpt lat="42.9652118" lon="13.3412057"><ele>488.0</ele><time>2026-04-18T11:09:29.055Z</time></trkpt><trkpt lat="42.9652755" lon="13.3411348"><ele>488.0</ele><time>2026-04-18T11:09:30.058Z</time></trkpt><trkpt lat="42.9653222" lon="13.3410648"><ele>487.99999999999994</ele><time>2026-04-18T11:09:31.057Z</time></trkpt><trkpt lat="42.9653675" lon="13.3409919"><ele>488.0</ele><time>2026-04-18T11:09:32.036Z</time></trkpt><trkpt lat="42.9654117" lon="13.3409013"><ele>488.0</ele><time>2026-04-18T11:09:33.05Z</time></trkpt><trkpt lat="42.9654502" lon="13.3407989"><ele>487.99999999999994</ele><time>2026-04-18T11:09:34.062Z</time></trkpt><trkpt lat="42.9654863" lon="13.3406415"><ele>487.99999999999994</ele><time>2026-04-18T11:09:36.045Z</time></trkpt><trkpt lat="42.9655549" lon="13.3404957"><ele>488.0</ele><time>2026-04-18T11:09:38.021Z</time></trkpt><trkpt lat="42.9656044" lon="13.3404309"><ele>488.0</ele><time>2026-04-18T11:09:39.011Z</time></trkpt><trkpt lat="42.9657287" lon="13.3403513"><ele>487.75</ele><time>2026-04-18T11:09:41.024Z</time></trkpt><trkpt lat="42.9658722" lon="13.3403213"><ele>487.5</ele><time>2026-04-18T11:09:42.045Z</time></trkpt><trkpt lat="42.966024" lon="13.3402591"><ele>487.25</ele><time>2026-04-18T11:09:43.052Z</time></trkpt><trkpt lat="42.9661231" lon="13.3402384"><ele>487.0</ele><time>2026-04-18T11:09:44.044Z</time></trkpt><trkpt lat="42.9662168" lon="13.3402083"><ele>487.0</ele><time>2026-04-18T11:09:45.055Z</time></trkpt><trkpt lat="42.9663095" lon="13.3401658"><ele>487.00000000000006</ele><time>2026-04-18T11:09:46.073Z</time></trkpt><trkpt lat="42.9663988" lon="13.3400999"><ele>487.00000000000006</ele><time>2026-04-18T11:09:47.051Z</time></trkpt><trkpt lat="42.9664934" lon="13.3400504"><ele>487.0</ele><time>2026-04-18T11:09:48.046Z</time></trkpt><trkpt lat="42.9666052" lon="13.340032"><ele>487.0</ele><time>2026-04-18T11:09:49.043Z</time></trkpt><trkpt lat="42.9667107" lon="13.3400164"><ele>485.0</ele><time>2026-04-18T11:09:50.044Z</time></trkpt><trkpt lat="42.9668172" lon="13.3399752"><ele>483.00000000000006</ele><time>2026-04-18T11:09:51.075Z</time></trkpt><trkpt lat="42.9669085" lon="13.3399178"><ele>481.00000000000006</ele><time>2026-04-18T11:09:52.064Z</time></trkpt><trkpt lat="42.967" lon="13.339827"><ele>479.0</ele><time>2026-04-18T11:09:53.056Z</time></trkpt><trkpt lat="42.9670862" lon="13.339728"><ele>477.0</ele><time>2026-04-18T11:09:54.06Z</time></trkpt><trkpt lat="42.9671739" lon="13.3396356"><ele>478.20000000000005</ele><time>2026-04-18T11:09:55.06Z</time></trkpt><trkpt lat="42.967273" lon="13.3395769"><ele>479.40000000000003</ele><time>2026-04-18T11:09:56.043Z</time></trkpt><trkpt lat="42.9673823" lon="13.3395085"><ele>480.59999999999997</ele><time>2026-04-18T11:09:57.052Z</time></trkpt><trkpt lat="42.9674872" lon="13.3394395"><ele>481.79999999999995</ele><time>2026-04-18T11:09:58.055Z</time></trkpt><trkpt lat="42.9675632" lon="13.3393797"><ele>483.0</ele><time>2026-04-18T11:09:59.052Z</time></trkpt><trkpt lat="42.9676493" lon="13.3392938"><ele>483.0</ele><time>2026-04-18T11:10:01.107Z</time></trkpt><trkpt lat="42.9676927" lon="13.3392126"><ele>482.99999999999994</ele><time>2026-04-18T11:10:02.053Z</time></trkpt><trkpt lat="42.9677568" lon="13.3391038"><ele>482.99999999999994</ele><time>2026-04-18T11:10:03.055Z</time></trkpt><trkpt lat="42.967823" lon="13.3389753"><ele>483.0</ele><time>2026-04-18T11:10:04.045Z</time></trkpt><trkpt lat="42.9678573" lon="13.3389009"><ele>483.0</ele><time>2026-04-18T11:10:05.063Z</time></trkpt><trkpt lat="42.9679421" lon="13.3387834"><ele>487.0</ele><time>2026-04-18T11:10:07.057Z</time></trkpt><trkpt lat="42.9680303" lon="13.3386954"><ele>490.99999999999994</ele><time>2026-04-18T11:10:09.06Z</time></trkpt><trkpt lat="42.9681028" lon="13.3385931"><ele>494.99999999999994</ele><time>2026-04-18T11:10:11.054Z</time></trkpt><trkpt lat="42.9681609" lon="13.3384675"><ele>499.0</ele><time>2026-04-18T11:10:13.03Z</time></trkpt><trkpt lat="42.9682241" lon="13.3383405"><ele>503.0</ele><time>2026-04-18T11:10:15.068Z</time></trkpt><trkpt lat="42.9682753" lon="13.3382139"><ele>502.99999999999994</ele><time>2026-04-18T11:10:17.042Z</time></trkpt><trkpt lat="42.9682953" lon="13.3381223"><ele>503.0</ele><time>2026-04-18T11:10:21.002Z</time></trkpt><trkpt lat="42.9682974" lon="13.3380217"><ele>503.0</ele><time>2026-04-18T11:10:24.109Z</time></trkpt><trkpt lat="42.9683626" lon="13.3379574"><ele>503.0</ele><time>2026-04-18T11:10:28.016Z</time></trkpt><trkpt lat="42.9684328" lon="13.3378895"><ele>502.99999999999994</ele><time>2026-04-18T11:10:30.981Z</time></trkpt><trkpt lat="42.968493" lon="13.3378299"><ele>503.0</ele><time>2026-04-18T11:10:33.032Z</time></trkpt><trkpt lat="42.9685438" lon="13.337769"><ele>497.59999999999997</ele><time>2026-04-18T11:10:35.041Z</time></trkpt><trkpt lat="42.9686152" lon="13.337656"><ele>492.19999999999993</ele><time>2026-04-18T11:10:38.04Z</time></trkpt><trkpt lat="42.9686749" lon="13.3375895"><ele>486.8</ele><time>2026-04-18T11:10:40.028Z</time></trkpt><trkpt lat="42.96874" lon="13.3374813"><ele>481.4</ele><time>2026-04-18T11:10:42.031Z</time></trkpt><trkpt lat="42.9688089" lon="13.3373498"><ele>476.0</ele><time>2026-04-18T11:10:44.066Z</time></trkpt><trkpt lat="42.9688309" lon="13.3372598"><ele>479.0</ele><time>2026-04-18T11:10:45.073Z</time></trkpt><trkpt lat="42.9688601" lon="13.3371771"><ele>482.0</ele><time>2026-04-18T11:10:46.03Z</time></trkpt><trkpt lat="42.9689057" lon="13.3370749"><ele>485.0</ele><time>2026-04-18T11:10:48.045Z</time></trkpt><trkpt lat="42.9689534" lon="13.3369679"><ele>488.0</ele><time>2026-04-18T11:10:50.031Z</time></trkpt><trkpt lat="42.9690095" lon="13.336833"><ele>491.0</ele><time>2026-04-18T11:10:52.071Z</time></trkpt><trkpt lat="42.9690709" lon="13.3367093"><ele>491.0</ele><time>2026-04-18T11:10:54.051Z</time></trkpt><trkpt lat="42.9691203" lon="13.3365718"><ele>491.0</ele><time>2026-04-18T11:10:56.031Z</time></trkpt><trkpt lat="42.9691723" lon="13.3364408"><ele>491.0</ele><time>2026-04-18T11:10:58.106Z</time></trkpt><trkpt lat="42.9692249" lon="13.3363374"><ele>491.0</ele><time>2026-04-18T11:11:00.019Z</time></trkpt><trkpt lat="42.9692792" lon="13.336231"><ele>491.0</ele><time>2026-04-18T11:11:02.045Z</time></trkpt><trkpt lat="42.9693087" lon="13.3361483"><ele>489.49999999999994</ele><time>2026-04-18T11:11:03.051Z</time></trkpt><trkpt lat="42.96935" lon="13.3360424"><ele>488.0</ele><time>2026-04-18T11:11:05.033Z</time></trkpt><trkpt lat="42.9693929" lon="13.3359541"><ele>486.5</ele><time>2026-04-18T11:11:07.051Z</time></trkpt><trkpt lat="42.9694301" lon="13.3358696"><ele>485.0</ele><time>2026-04-18T11:11:10.031Z</time></trkpt><trkpt lat="42.9694465" lon="13.3357641"><ele>483.49999999999994</ele><time>2026-04-18T11:11:12.031Z</time></trkpt><trkpt lat="42.9694618" lon="13.335648"><ele>482.0</ele><time>2026-04-18T11:11:15.025Z</time></trkpt><trkpt lat="42.9694725" lon="13.3355368"><ele>482.0</ele><time>2026-04-18T11:11:18.058Z</time></trkpt><trkpt lat="42.9694841" lon="13.3354138"><ele>482.00000000000006</ele><time>2026-04-18T11:11:21.01Z</time></trkpt><trkpt lat="42.9694813" lon="13.3353271"><ele>482.00000000000006</ele><time>2026-04-18T11:11:23.039Z</time></trkpt><trkpt lat="42.9694577" lon="13.3352435"><ele>482.0</ele><time>2026-04-18T11:11:25.04Z</time></trkpt><trkpt lat="42.9694286" lon="13.3350942"><ele>482.0</ele><time>2026-04-18T11:11:27.007Z</time></trkpt><trkpt lat="42.9694287" lon="13.3349171"><ele>482.0</ele><time>2026-04-18T11:11:30.037Z</time></trkpt><trkpt lat="42.9694695" lon="13.3347405"><ele>482.00000000000006</ele><time>2026-04-18T11:11:33.044Z</time></trkpt><trkpt lat="42.9695594" lon="13.3347098"><ele>482.00000000000006</ele><time>2026-04-18T11:11:35.039Z</time></trkpt><trkpt lat="42.9696335" lon="13.3347634"><ele>482.0</ele><time>2026-04-18T11:11:37.034Z</time></trkpt><trkpt lat="42.9696963" lon="13.334844"><ele>482.0</ele><time>2026-04-18T11:11:39.028Z</time></trkpt><trkpt lat="42.9697738" lon="13.3349158"><ele>482.0</ele><time>2026-04-18T11:11:42.03Z</time></trkpt><trkpt lat="42.9698657" lon="13.3349622"><ele>482.00000000000006</ele><time>2026-04-18T11:11:44.031Z</time></trkpt><trkpt lat="42.9699497" lon="13.3349915"><ele>482.00000000000006</ele><time>2026-04-18T11:11:45.056Z</time></trkpt><trkpt lat="42.9700128" lon="13.3350064"><ele>482.0</ele><time>2026-04-18T11:11:46.034Z</time></trkpt><trkpt lat="42.9701079" lon="13.3350652"><ele>482.0</ele><time>2026-04-18T11:11:48.098Z</time></trkpt><trkpt lat="42.9702309" lon="13.3350848"><ele>481.8333333333333</ele><time>2026-04-18T11:11:50.046Z</time></trkpt><trkpt lat="42.970298" lon="13.3350648"><ele>481.66666666666663</ele><time>2026-04-18T11:11:51.037Z</time></trkpt><trkpt lat="42.9703849" lon="13.3350788"><ele>481.5</ele><time>2026-04-18T11:11:52.045Z</time></trkpt><trkpt lat="42.9704798" lon="13.3351003"><ele>481.33333333333337</ele><time>2026-04-18T11:11:53.046Z</time></trkpt><trkpt lat="42.970571" lon="13.3351192"><ele>481.1666666666667</ele><time>2026-04-18T11:11:54.094Z</time></trkpt><trkpt lat="42.9706585" lon="13.3351613"><ele>481.0</ele><time>2026-04-18T11:11:55.05Z</time></trkpt><trkpt lat="42.9707479" lon="13.3352004"><ele>481.0</ele><time>2026-04-18T11:11:56.029Z</time></trkpt><trkpt lat="42.9708432" lon="13.3352355"><ele>481.0</ele><time>2026-04-18T11:11:57.049Z</time></trkpt><trkpt lat="42.9709348" lon="13.3352554"><ele>481.0</ele><time>2026-04-18T11:11:58.055Z</time></trkpt><trkpt lat="42.9710252" lon="13.3352862"><ele>481.0</ele><time>2026-04-18T11:11:59.062Z</time></trkpt><trkpt lat="42.9711233" lon="13.3352746"><ele>481.0</ele><time>2026-04-18T11:12:01.035Z</time></trkpt><trkpt lat="42.9711789" lon="13.3351957"><ele>482.83333333333337</ele><time>2026-04-18T11:12:03.049Z</time></trkpt><trkpt lat="42.9712406" lon="13.3350818"><ele>484.6666666666667</ele><time>2026-04-18T11:12:05.021Z</time></trkpt><trkpt lat="42.9713124" lon="13.3349584"><ele>486.5</ele><time>2026-04-18T11:12:07.062Z</time></trkpt><trkpt lat="42.9713499" lon="13.3348871"><ele>488.33333333333337</ele><time>2026-04-18T11:12:08.063Z</time></trkpt><trkpt lat="42.9713913" lon="13.3348083"><ele>490.1666666666667</ele><time>2026-04-18T11:12:09.062Z</time></trkpt><trkpt lat="42.9714318" lon="13.3347265"><ele>492.0</ele><time>2026-04-18T11:12:10.038Z</time></trkpt><trkpt lat="42.9714645" lon="13.334649"><ele>492.0</ele><time>2026-04-18T11:12:11.046Z</time></trkpt><trkpt lat="42.9715214" lon="13.3345607"><ele>492.0</ele><time>2026-04-18T11:12:13.061Z</time></trkpt><trkpt lat="42.9715849" lon="13.3346706"><ele>492.0</ele><time>2026-04-18T11:12:16.017Z</time></trkpt><trkpt lat="42.9715606" lon="13.3347622"><ele>492.0</ele><time>2026-04-18T11:12:16.988Z</time></trkpt><trkpt lat="42.9715239" lon="13.334857"><ele>492.0</ele><time>2026-04-18T11:12:18.043Z</time></trkpt><trkpt lat="42.9714929" lon="13.3349479"><ele>492.0</ele><time>2026-04-18T11:12:19.052Z</time></trkpt><trkpt lat="42.9714764" lon="13.3350718"><ele>492.0</ele><time>2026-04-18T11:12:21.031Z</time></trkpt><trkpt lat="42.971531" lon="13.3351167"><ele>492.00000000000006</ele><time>2026-04-18T11:12:24.025Z</time></trkpt><trkpt lat="42.9715636" lon="13.3349961"><ele>492.00000000000006</ele><time>2026-04-18T11:12:26.045Z</time></trkpt><trkpt lat="42.971586" lon="13.3349041"><ele>492.0</ele><time>2026-04-18T11:12:27.06Z</time></trkpt><trkpt lat="42.9716229" lon="13.3347523"><ele>492.0</ele><time>2026-04-18T11:12:28.052Z</time></trkpt><trkpt lat="42.9716777" lon="13.3345629"><ele>503.33333333333337</ele><time>2026-04-18T11:12:29.065Z</time></trkpt><trkpt lat="42.9717511" lon="13.3343595"><ele>514.6666666666667</ele><time>2026-04-18T11:12:30.052Z</time></trkpt><trkpt lat="42.9718315" lon="13.3341452"><ele>526.0</ele><time>2026-04-18T11:12:31.048Z</time></trkpt><trkpt lat="42.9719448" lon="13.3339374"><ele>520.3333333333334</ele><time>2026-04-18T11:12:32.047Z</time></trkpt><trkpt lat="42.9720611" lon="13.333714"><ele>514.6666666666666</ele><time>2026-04-18T11:12:33.055Z</time></trkpt><trkpt lat="42.9721536" lon="13.3334903"><ele>509.0</ele><time>2026-04-18T11:12:34.053Z</time></trkpt><trkpt lat="42.9722377" lon="13.3333033"><ele>509.0</ele><time>2026-04-18T11:12:35.057Z</time></trkpt><trkpt lat="42.9723249" lon="13.3331355"><ele>509.0</ele><time>2026-04-18T11:12:36.053Z</time></trkpt><trkpt lat="42.9724242" lon="13.3330442"><ele>509.0</ele><time>2026-04-18T11:12:37.111Z</time></trkpt><trkpt lat="42.9725426" lon="13.332995"><ele>509.0</ele><time>2026-04-18T11:12:38.053Z</time></trkpt><trkpt lat="42.9726888" lon="13.3329615"><ele>506.66666666666663</ele><time>2026-04-18T11:12:39.009Z</time></trkpt><trkpt lat="42.9728477" lon="13.3329026"><ele>504.33333333333337</ele><time>2026-04-18T11:12:40.009Z</time></trkpt><trkpt lat="42.9729921" lon="13.3328071"><ele>502.0</ele><time>2026-04-18T11:12:41.033Z</time></trkpt><trkpt lat="42.9731269" lon="13.3326857"><ele>502.0</ele><time>2026-04-18T11:12:42.021Z</time></trkpt><trkpt lat="42.9732435" lon="13.3325842"><ele>502.0</ele><time>2026-04-18T11:12:43.014Z</time></trkpt><trkpt lat="42.9733521" lon="13.3324956"><ele>502.0</ele><time>2026-04-18T11:12:44.007Z</time></trkpt><trkpt lat="42.973479" lon="13.3324692"><ele>502.0</ele><time>2026-04-18T11:12:45.015Z</time></trkpt><trkpt lat="42.9736122" lon="13.3324491"><ele>504.8</ele><time>2026-04-18T11:12:46.011Z</time></trkpt><trkpt lat="42.973754" lon="13.3324962"><ele>507.6</ele><time>2026-04-18T11:12:47.014Z</time></trkpt><trkpt lat="42.9738694" lon="13.332547"><ele>510.40000000000003</ele><time>2026-04-18T11:12:48.013Z</time></trkpt><trkpt lat="42.9739481" lon="13.3326092"><ele>513.2</ele><time>2026-04-18T11:12:49.049Z</time></trkpt><trkpt lat="42.974012" lon="13.3326727"><ele>516.0</ele><time>2026-04-18T11:12:50.043Z</time></trkpt><trkpt lat="42.9740845" lon="13.3326619"><ele>516.0</ele><time>2026-04-18T11:12:51.043Z</time></trkpt><trkpt lat="42.9741482" lon="13.3326195"><ele>516.0</ele><time>2026-04-18T11:12:52.035Z</time></trkpt><trkpt lat="42.974172" lon="13.3325161"><ele>516.0</ele><time>2026-04-18T11:12:53.04Z</time></trkpt><trkpt lat="42.9741412" lon="13.3323294"><ele>516.0</ele><time>2026-04-18T11:12:55.041Z</time></trkpt><trkpt lat="42.9740742" lon="13.3322879"><ele>516.0</ele><time>2026-04-18T11:12:56.054Z</time></trkpt><trkpt lat="42.9739967" lon="13.3322544"><ele>516.0</ele><time>2026-04-18T11:12:57.028Z</time></trkpt><trkpt lat="42.973922" lon="13.3321909"><ele>515.0</ele><time>2026-04-18T11:12:58.033Z</time></trkpt><trkpt lat="42.9738724" lon="13.3321006"><ele>514.0</ele><time>2026-04-18T11:12:59.036Z</time></trkpt><trkpt lat="42.9738765" lon="13.332009"><ele>513.0</ele><time>2026-04-18T11:13:00.087Z</time></trkpt><trkpt lat="42.9738895" lon="13.3319024"><ele>512.0</ele><time>2026-04-18T11:13:01.037Z</time></trkpt><trkpt lat="42.9739635" lon="13.3317904"><ele>511.0</ele><time>2026-04-18T11:13:02.043Z</time></trkpt><trkpt lat="42.9740602" lon="13.3316771"><ele>511.0</ele><time>2026-04-18T11:13:03.042Z</time></trkpt><trkpt lat="42.9741505" lon="13.3315346"><ele>511.0</ele><time>2026-04-18T11:13:04.043Z</time></trkpt><trkpt lat="42.9742519" lon="13.3313747"><ele>511.0</ele><time>2026-04-18T11:13:05.052Z</time></trkpt><trkpt lat="42.9743916" lon="13.3312149"><ele>512.3333333333334</ele><time>2026-04-18T11:13:06.086Z</time></trkpt><trkpt lat="42.9745586" lon="13.3310644"><ele>513.6666666666666</ele><time>2026-04-18T11:13:07.047Z</time></trkpt><trkpt lat="42.9747389" lon="13.3309085"><ele>515.0</ele><time>2026-04-18T11:13:08.053Z</time></trkpt><trkpt lat="42.9749277" lon="13.3307527"><ele>512.6666666666666</ele><time>2026-04-18T11:13:09.05Z</time></trkpt><trkpt lat="42.9750978" lon="13.3306095"><ele>510.33333333333337</ele><time>2026-04-18T11:13:10.051Z</time></trkpt><trkpt lat="42.9752647" lon="13.3304712"><ele>508.0</ele><time>2026-04-18T11:13:11.049Z</time></trkpt><trkpt lat="42.9754022" lon="13.3303453"><ele>508.0</ele><time>2026-04-18T11:13:12.047Z</time></trkpt><trkpt lat="42.9755267" lon="13.3302455"><ele>508.0</ele><time>2026-04-18T11:13:13.04Z</time></trkpt><trkpt lat="42.9756663" lon="13.3301884"><ele>508.0</ele><time>2026-04-18T11:13:14.052Z</time></trkpt><trkpt lat="42.9758105" lon="13.3301391"><ele>508.0</ele><time>2026-04-18T11:13:15.041Z</time></trkpt><trkpt lat="42.9759321" lon="13.3301014"><ele>508.5</ele><time>2026-04-18T11:13:16.044Z</time></trkpt><trkpt lat="42.9760324" lon="13.3300362"><ele>509.0</ele><time>2026-04-18T11:13:17.041Z</time></trkpt><trkpt lat="42.9761167" lon="13.3299272"><ele>509.5</ele><time>2026-04-18T11:13:18.052Z</time></trkpt><trkpt lat="42.9762022" lon="13.3297968"><ele>510.0</ele><time>2026-04-18T11:13:19.053Z</time></trkpt><trkpt lat="42.9763082" lon="13.3296351"><ele>510.0</ele><time>2026-04-18T11:13:20.05Z</time></trkpt><trkpt lat="42.9764299" lon="13.3294965"><ele>510.0</ele><time>2026-04-18T11:13:21.067Z</time></trkpt><trkpt lat="42.9765478" lon="13.3293655"><ele>510.0</ele><time>2026-04-18T11:13:22.038Z</time></trkpt><trkpt lat="42.9766514" lon="13.3292764"><ele>510.0</ele><time>2026-04-18T11:13:23.05Z</time></trkpt><trkpt lat="42.9767721" lon="13.329166"><ele>510.0</ele><time>2026-04-18T11:13:24.051Z</time></trkpt><trkpt lat="42.9769" lon="13.3290519"><ele>510.0</ele><time>2026-04-18T11:13:25.048Z</time></trkpt><trkpt lat="42.977025" lon="13.3289401"><ele>510.0</ele><time>2026-04-18T11:13:26.054Z</time></trkpt><trkpt lat="42.9771457" lon="13.328849"><ele>510.0</ele><time>2026-04-18T11:13:27.054Z</time></trkpt><trkpt lat="42.9772721" lon="13.3287663"><ele>510.0</ele><time>2026-04-18T11:13:28.062Z</time></trkpt><trkpt lat="42.9773958" lon="13.3286901"><ele>510.0</ele><time>2026-04-18T11:13:29.071Z</time></trkpt><trkpt lat="42.9775203" lon="13.3286046"><ele>510.0</ele><time>2026-04-18T11:13:30.03Z</time></trkpt><trkpt lat="42.9776402" lon="13.3285088"><ele>510.0</ele><time>2026-04-18T11:13:31.03Z</time></trkpt><trkpt lat="42.977753" lon="13.3284014"><ele>510.5</ele><time>2026-04-18T11:13:32.043Z</time></trkpt><trkpt lat="42.9778628" lon="13.3283027"><ele>511.0</ele><time>2026-04-18T11:13:33.048Z</time></trkpt><trkpt lat="42.97796" lon="13.3281977"><ele>511.5</ele><time>2026-04-18T11:13:34.052Z</time></trkpt><trkpt lat="42.9780542" lon="13.3281"><ele>512.0</ele><time>2026-04-18T11:13:35.033Z</time></trkpt><trkpt lat="42.9781414" lon="13.3280226"><ele>512.0</ele><time>2026-04-18T11:13:36.034Z</time></trkpt><trkpt lat="42.9782217" lon="13.3279584"><ele>512.0</ele><time>2026-04-18T11:13:37.052Z</time></trkpt><trkpt lat="42.9782992" lon="13.3278915"><ele>512.0</ele><time>2026-04-18T11:13:38.051Z</time></trkpt><trkpt lat="42.9783724" lon="13.3278028"><ele>512.0</ele><time>2026-04-18T11:13:39.049Z</time></trkpt><trkpt lat="42.9784435" lon="13.3277127"><ele>512.0</ele><time>2026-04-18T11:13:40.08Z</time></trkpt><trkpt lat="42.9784856" lon="13.327577"><ele>514.0</ele><time>2026-04-18T11:13:41.056Z</time></trkpt><trkpt lat="42.9785288" lon="13.3274508"><ele>516.0</ele><time>2026-04-18T11:13:42.064Z</time></trkpt><trkpt lat="42.9785741" lon="13.3273058"><ele>518.0</ele><time>2026-04-18T11:13:43.048Z</time></trkpt><trkpt lat="42.9786384" lon="13.3271619"><ele>520.0</ele><time>2026-04-18T11:13:44.056Z</time></trkpt><trkpt lat="42.9787328" lon="13.327052"><ele>520.0</ele><time>2026-04-18T11:13:45.051Z</time></trkpt><trkpt lat="42.9788344" lon="13.3269485"><ele>520.0</ele><time>2026-04-18T11:13:46.045Z</time></trkpt><trkpt lat="42.9789285" lon="13.3268497"><ele>520.0</ele><time>2026-04-18T11:13:47.046Z</time></trkpt><trkpt lat="42.9790139" lon="13.3267722"><ele>520.0</ele><time>2026-04-18T11:13:48.043Z</time></trkpt><trkpt lat="42.9790933" lon="13.3267056"><ele>520.0</ele><time>2026-04-18T11:13:49.053Z</time></trkpt><trkpt lat="42.9791669" lon="13.3266491"><ele>520.2</ele><time>2026-04-18T11:13:50.056Z</time></trkpt><trkpt lat="42.9792482" lon="13.3266055"><ele>520.4</ele><time>2026-04-18T11:13:51.044Z</time></trkpt><trkpt lat="42.9793301" lon="13.3265473"><ele>520.6</ele><time>2026-04-18T11:13:52.06Z</time></trkpt><trkpt lat="42.9794174" lon="13.3264753"><ele>520.8</ele><time>2026-04-18T11:13:53.05Z</time></trkpt><trkpt lat="42.9795032" lon="13.3263908"><ele>521.0</ele><time>2026-04-18T11:13:54.051Z</time></trkpt><trkpt lat="42.979583" lon="13.3263103"><ele>521.0</ele><time>2026-04-18T11:13:55.059Z</time></trkpt><trkpt lat="42.9796487" lon="13.3262214"><ele>521.0</ele><time>2026-04-18T11:13:56.091Z</time></trkpt><trkpt lat="42.9797012" lon="13.3261325"><ele>521.0</ele><time>2026-04-18T11:13:57.052Z</time></trkpt><trkpt lat="42.9797669" lon="13.3260342"><ele>521.0</ele><time>2026-04-18T11:13:58.083Z</time></trkpt><trkpt lat="42.9798719" lon="13.3259485"><ele>521.0</ele><time>2026-04-18T11:13:59.069Z</time></trkpt><trkpt lat="42.9799805" lon="13.3258572"><ele>525.0</ele><time>2026-04-18T11:14:00.067Z</time></trkpt><trkpt lat="42.980114" lon="13.3257618"><ele>529.0</ele><time>2026-04-18T11:14:01.05Z</time></trkpt><trkpt lat="42.9802675" lon="13.3256746"><ele>533.0</ele><time>2026-04-18T11:14:02.046Z</time></trkpt><trkpt lat="42.9804302" lon="13.3255879"><ele>530.5</ele><time>2026-04-18T11:14:03.052Z</time></trkpt><trkpt lat="42.9805808" lon="13.3255185"><ele>528.0</ele><time>2026-04-18T11:14:04.05Z</time></trkpt><trkpt lat="42.9807194" lon="13.3254624"><ele>525.5</ele><time>2026-04-18T11:14:05.05Z</time></trkpt><trkpt lat="42.9808398" lon="13.3254135"><ele>523.0</ele><time>2026-04-18T11:14:06.022Z</time></trkpt><trkpt lat="42.9809496" lon="13.3253662"><ele>523.0</ele><time>2026-04-18T11:14:07.056Z</time></trkpt><trkpt lat="42.981048" lon="13.3253279"><ele>523.0</ele><time>2026-04-18T11:14:08.034Z</time></trkpt><trkpt lat="42.9811337" lon="13.3252997"><ele>523.0</ele><time>2026-04-18T11:14:09.035Z</time></trkpt><trkpt lat="42.9812113" lon="13.3252755"><ele>523.0</ele><time>2026-04-18T11:14:10.048Z</time></trkpt><trkpt lat="42.981285" lon="13.3252599"><ele>523.0</ele><time>2026-04-18T11:14:11.054Z</time></trkpt><trkpt lat="42.9813635" lon="13.3252449"><ele>523.0</ele><time>2026-04-18T11:14:12.05Z</time></trkpt><trkpt lat="42.9814459" lon="13.3252217"><ele>523.0</ele><time>2026-04-18T11:14:13.087Z</time></trkpt><trkpt lat="42.9815345" lon="13.3251635"><ele>523.0</ele><time>2026-04-18T11:14:14.075Z</time></trkpt><trkpt lat="42.9816309" lon="13.3250677"><ele>523.0</ele><time>2026-04-18T11:14:15.038Z</time></trkpt><trkpt lat="42.981734" lon="13.3249419"><ele>523.0</ele><time>2026-04-18T11:14:16.058Z</time></trkpt><trkpt lat="42.9818338" lon="13.3248019"><ele>523.75</ele><time>2026-04-18T11:14:17.085Z</time></trkpt><trkpt lat="42.9819315" lon="13.3246743"><ele>524.5</ele><time>2026-04-18T11:14:18.047Z</time></trkpt><trkpt lat="42.9820317" lon="13.3245846"><ele>525.25</ele><time>2026-04-18T11:14:19.062Z</time></trkpt><trkpt lat="42.9821463" lon="13.3245286"><ele>526.0</ele><time>2026-04-18T11:14:20.066Z</time></trkpt><trkpt lat="42.9822783" lon="13.3245057"><ele>526.0</ele><time>2026-04-18T11:14:21.053Z</time></trkpt><trkpt lat="42.9824116" lon="13.3244889"><ele>526.0</ele><time>2026-04-18T11:14:22.033Z</time></trkpt><trkpt lat="42.9825454" lon="13.3245146"><ele>526.0</ele><time>2026-04-18T11:14:23.046Z</time></trkpt><trkpt lat="42.9826654" lon="13.3245403"><ele>526.0</ele><time>2026-04-18T11:14:24.051Z</time></trkpt><trkpt lat="42.9827734" lon="13.324522"><ele>527.6</ele><time>2026-04-18T11:14:25.054Z</time></trkpt><trkpt lat="42.9828724" lon="13.3244797"><ele>529.2</ele><time>2026-04-18T11:14:26.054Z</time></trkpt><trkpt lat="42.9829588" lon="13.3244279"><ele>530.8</ele><time>2026-04-18T11:14:27.049Z</time></trkpt><trkpt lat="42.983026" lon="13.3242969"><ele>532.4</ele><time>2026-04-18T11:14:28.044Z</time></trkpt><trkpt lat="42.9830756" lon="13.3241592"><ele>534.0</ele><time>2026-04-18T11:14:29.04Z</time></trkpt><trkpt lat="42.9831429" lon="13.3240415"><ele>534.0</ele><time>2026-04-18T11:14:30.051Z</time></trkpt><trkpt lat="42.9832269" lon="13.3239651"><ele>534.0</ele><time>2026-04-18T11:14:31.036Z</time></trkpt><trkpt lat="42.9833296" lon="13.3239215"><ele>534.0</ele><time>2026-04-18T11:14:32.039Z</time></trkpt><trkpt lat="42.9834351" lon="13.3239112"><ele>534.0</ele><time>2026-04-18T11:14:33.047Z</time></trkpt><trkpt lat="42.9835314" lon="13.3238978"><ele>534.0</ele><time>2026-04-18T11:14:34.05Z</time></trkpt><trkpt lat="42.983622" lon="13.3238836"><ele>534.0</ele><time>2026-04-18T11:14:35.052Z</time></trkpt><trkpt lat="42.9836985" lon="13.3238744"><ele>534.0</ele><time>2026-04-18T11:14:36.046Z</time></trkpt><trkpt lat="42.9837954" lon="13.3238469"><ele>534.0</ele><time>2026-04-18T11:14:38.019Z</time></trkpt><trkpt lat="42.9838665" lon="13.3238117"><ele>534.0</ele><time>2026-04-18T11:14:40.031Z</time></trkpt><trkpt lat="42.9839522" lon="13.3237677"><ele>534.0</ele><time>2026-04-18T11:14:41.988Z</time></trkpt><trkpt lat="42.9838499" lon="13.3238539"><ele>534.0</ele><time>2026-04-18T11:14:56.049Z</time></trkpt><trkpt lat="42.9837645" lon="13.3238903"><ele>534.0</ele><time>2026-04-18T11:14:57.024Z</time></trkpt><trkpt lat="42.9836846" lon="13.3239199"><ele>534.0</ele><time>2026-04-18T11:14:58.052Z</time></trkpt><trkpt lat="42.9836146" lon="13.3239403"><ele>534.0</ele><time>2026-04-18T11:14:59.046Z</time></trkpt><trkpt lat="42.9835477" lon="13.3239578"><ele>534.0</ele><time>2026-04-18T11:15:00.042Z</time></trkpt><trkpt lat="42.9834896" lon="13.3239953"><ele>534.0</ele><time>2026-04-18T11:15:01.054Z</time></trkpt><trkpt lat="42.9833822" lon="13.3240055"><ele>534.0</ele><time>2026-04-18T11:15:03.052Z</time></trkpt><trkpt lat="42.9833122" lon="13.3240242"><ele>534.0</ele><time>2026-04-18T11:15:04.027Z</time></trkpt><trkpt lat="42.9832669" lon="13.3241017"><ele>534.0</ele><time>2026-04-18T11:15:06.005Z</time></trkpt><trkpt lat="42.9832414" lon="13.3242937"><ele>534.0</ele><time>2026-04-18T11:15:08.065Z</time></trkpt><trkpt lat="42.983217" lon="13.324386"><ele>534.0</ele><time>2026-04-18T11:15:09.044Z</time></trkpt><trkpt lat="42.9832168" lon="13.3245517"><ele>534.0</ele><time>2026-04-18T11:15:11.054Z</time></trkpt><trkpt lat="42.9832232" lon="13.3246374"><ele>534.0</ele><time>2026-04-18T11:15:12.045Z</time></trkpt><trkpt lat="42.983222" lon="13.3247253"><ele>534.0</ele><time>2026-04-18T11:15:13.048Z</time></trkpt><trkpt lat="42.9832233" lon="13.3248284"><ele>534.0</ele><time>2026-04-18T11:15:14.048Z</time></trkpt><trkpt lat="42.9831904" lon="13.3249129"><ele>534.0</ele><time>2026-04-18T11:15:16.018Z</time></trkpt><trkpt lat="42.9831094" lon="13.3250209"><ele>534.0</ele><time>2026-04-18T11:15:18.05Z</time></trkpt><trkpt lat="42.9830503" lon="13.32512"><ele>536.6</ele><time>2026-04-18T11:15:20.04Z</time></trkpt><trkpt lat="42.98297" lon="13.3252238"><ele>539.2</ele><time>2026-04-18T11:15:21.986Z</time></trkpt><trkpt lat="42.9828786" lon="13.3253276"><ele>541.8000000000001</ele><time>2026-04-18T11:15:24.031Z</time></trkpt><trkpt lat="42.9828276" lon="13.3253939"><ele>544.4</ele><time>2026-04-18T11:15:25.03Z</time></trkpt><trkpt lat="42.9827757" lon="13.3254504"><ele>547.0</ele><time>2026-04-18T11:15:26.039Z</time></trkpt><trkpt lat="42.9826807" lon="13.3255795"><ele>548.6</ele><time>2026-04-18T11:15:29.019Z</time></trkpt><trkpt lat="42.9826208" lon="13.3256516"><ele>550.2</ele><time>2026-04-18T11:15:30.011Z</time></trkpt><trkpt lat="42.9825577" lon="13.3257245"><ele>551.8</ele><time>2026-04-18T11:15:31.042Z</time></trkpt><trkpt lat="42.9824811" lon="13.3258028"><ele>553.4</ele><time>2026-04-18T11:15:32.045Z</time></trkpt><trkpt lat="42.9823721" lon="13.3258964"><ele>555.0</ele><time>2026-04-18T11:15:33.055Z</time></trkpt><trkpt lat="42.9822911" lon="13.3259576"><ele>555.0</ele><time>2026-04-18T11:15:34.05Z</time></trkpt><trkpt lat="42.9822216" lon="13.3260071"><ele>555.0</ele><time>2026-04-18T11:15:35.056Z</time></trkpt><trkpt lat="42.9821569" lon="13.3260745"><ele>555.0</ele><time>2026-04-18T11:15:36.038Z</time></trkpt><trkpt lat="42.9820803" lon="13.3261195"><ele>555.0</ele><time>2026-04-18T11:15:37.052Z</time></trkpt><trkpt lat="42.981961" lon="13.3261304"><ele>555.0</ele><time>2026-04-18T11:15:39.035Z</time></trkpt><trkpt lat="42.9818755" lon="13.3261435"><ele>555.0</ele><time>2026-04-18T11:15:41.025Z</time></trkpt><trkpt lat="42.9818248" lon="13.3262251"><ele>555.0</ele><time>2026-04-18T11:15:43.026Z</time></trkpt><trkpt lat="42.981838" lon="13.3263213"><ele>555.0</ele><time>2026-04-18T11:15:48.982Z</time></trkpt><trkpt lat="42.9818594" lon="13.326412"><ele>555.0</ele><time>2026-04-18T11:15:51.006Z</time></trkpt><trkpt lat="42.9818933" lon="13.3265506"><ele>555.0</ele><time>2026-04-18T11:15:53.052Z</time></trkpt><trkpt lat="42.981936" lon="13.3266958"><ele>555.0</ele><time>2026-04-18T11:15:55.037Z</time></trkpt><trkpt lat="42.9819742" lon="13.3267813"><ele>555.0</ele><time>2026-04-18T11:15:57.023Z</time></trkpt><trkpt lat="42.9820294" lon="13.3268306"><ele>559.0</ele><time>2026-04-18T11:15:59.012Z</time></trkpt><trkpt lat="42.9821114" lon="13.3268166"><ele>563.0</ele><time>2026-04-18T11:16:01.051Z</time></trkpt><trkpt lat="42.982215" lon="13.3267325"><ele>567.0</ele><time>2026-04-18T11:16:03.068Z</time></trkpt><trkpt lat="42.9822656" lon="13.3266767"><ele>571.0</ele><time>2026-04-18T11:16:04.058Z</time></trkpt><trkpt lat="42.9823278" lon="13.3266039"><ele>575.0</ele><time>2026-04-18T11:16:05.056Z</time></trkpt><trkpt lat="42.9823885" lon="13.3265352"><ele>579.0</ele><time>2026-04-18T11:16:06.04Z</time></trkpt><trkpt lat="42.9824885" lon="13.3264636"><ele>582.8333333333334</ele><time>2026-04-18T11:16:08.065Z</time></trkpt><trkpt lat="42.9825551" lon="13.3264598"><ele>586.6666666666666</ele><time>2026-04-18T11:16:09.046Z</time></trkpt><trkpt lat="42.9826281" lon="13.3264974"><ele>590.5</ele><time>2026-04-18T11:16:11.043Z</time></trkpt><trkpt lat="42.9826364" lon="13.3266012"><ele>594.3333333333333</ele><time>2026-04-18T11:16:13.044Z</time></trkpt><trkpt lat="42.9825958" lon="13.3267437"><ele>598.1666666666666</ele><time>2026-04-18T11:16:15.036Z</time></trkpt><trkpt lat="42.982583" lon="13.3268466"><ele>602.0</ele><time>2026-04-18T11:16:17.006Z</time></trkpt><trkpt lat="42.9825921" lon="13.3269984"><ele>602.0</ele><time>2026-04-18T11:16:19.039Z</time></trkpt><trkpt lat="42.9825941" lon="13.3270882"><ele>602.0</ele><time>2026-04-18T11:16:20.052Z</time></trkpt><trkpt lat="42.9825831" lon="13.3272209"><ele>602.0</ele><time>2026-04-18T11:16:22.024Z</time></trkpt><trkpt lat="42.9825708" lon="13.3273538"><ele>602.0</ele><time>2026-04-18T11:16:24.016Z</time></trkpt><trkpt lat="42.9825672" lon="13.3275026"><ele>602.0</ele><time>2026-04-18T11:16:26.025Z</time></trkpt><trkpt lat="42.9825519" lon="13.3276185"><ele>601.2</ele><time>2026-04-18T11:16:28.052Z</time></trkpt><trkpt lat="42.9825547" lon="13.3277969"><ele>600.4000000000001</ele><time>2026-04-18T11:16:30.048Z</time></trkpt><trkpt lat="42.9825422" lon="13.3279388"><ele>599.5999999999999</ele><time>2026-04-18T11:16:31.972Z</time></trkpt><trkpt lat="42.982513" lon="13.3280487"><ele>598.8</ele><time>2026-04-18T11:16:34.077Z</time></trkpt><trkpt lat="42.9824586" lon="13.3281411"><ele>598.0</ele><time>2026-04-18T11:16:36.01Z</time></trkpt><trkpt lat="42.9823633" lon="13.3281879"><ele>598.0</ele><time>2026-04-18T11:16:36.994Z</time></trkpt><trkpt lat="42.9822408" lon="13.32816"><ele>598.0</ele><time>2026-04-18T11:16:38.997Z</time></trkpt><trkpt lat="42.9821659" lon="13.3281104"><ele>598.0</ele><time>2026-04-18T11:16:40.036Z</time></trkpt><trkpt lat="42.9820778" lon="13.3280494"><ele>598.0</ele><time>2026-04-18T11:16:42.008Z</time></trkpt><trkpt lat="42.9819753" lon="13.3280618"><ele>598.0</ele><time>2026-04-18T11:16:44.023Z</time></trkpt><trkpt lat="42.9818685" lon="13.3281469"><ele>600.0</ele><time>2026-04-18T11:16:46.049Z</time></trkpt><trkpt lat="42.9818088" lon="13.3281949"><ele>602.0</ele><time>2026-04-18T11:16:47.041Z</time></trkpt><trkpt lat="42.981731" lon="13.328238"><ele>604.0</ele><time>2026-04-18T11:16:48.044Z</time></trkpt><trkpt lat="42.9816688" lon="13.3282689"><ele>606.0</ele><time>2026-04-18T11:16:49.056Z</time></trkpt><trkpt lat="42.9816273" lon="13.3283455"><ele>608.0</ele><time>2026-04-18T11:16:51.005Z</time></trkpt><trkpt lat="42.9816603" lon="13.3284918"><ele>610.0</ele><time>2026-04-18T11:16:53.043Z</time></trkpt><trkpt lat="42.9816881" lon="13.3286164"><ele>611.0</ele><time>2026-04-18T11:16:55.055Z</time></trkpt><trkpt lat="42.9816865" lon="13.328723"><ele>612.0</ele><time>2026-04-18T11:16:57.018Z</time></trkpt><trkpt lat="42.9817647" lon="13.328795"><ele>613.0</ele><time>2026-04-18T11:16:59.009Z</time></trkpt><trkpt lat="42.9818334" lon="13.3288216"><ele>614.0</ele><time>2026-04-18T11:17:00.047Z</time></trkpt><trkpt lat="42.9819011" lon="13.328848"><ele>615.0</ele><time>2026-04-18T11:17:01.049Z</time></trkpt><trkpt lat="42.9820213" lon="13.3288801"><ele>616.0</ele><time>2026-04-18T11:17:03.044Z</time></trkpt><trkpt lat="42.9820879" lon="13.3288788"><ele>616.0</ele><time>2026-04-18T11:17:04.091Z</time></trkpt><trkpt lat="42.9822193" lon="13.3288731"><ele>616.0</ele><time>2026-04-18T11:17:06.044Z</time></trkpt><trkpt lat="42.9822886" lon="13.3288788"><ele>616.0</ele><time>2026-04-18T11:17:07.041Z</time></trkpt><trkpt lat="42.9823533" lon="13.3288734"><ele>616.0</ele><time>2026-04-18T11:17:08.062Z</time></trkpt><trkpt lat="42.9824756" lon="13.3288454"><ele>616.0</ele><time>2026-04-18T11:17:10.046Z</time></trkpt><trkpt lat="42.9825352" lon="13.3288085"><ele>618.8333333333334</ele><time>2026-04-18T11:17:11.037Z</time></trkpt><trkpt lat="42.982599" lon="13.3287678"><ele>621.6666666666667</ele><time>2026-04-18T11:17:12.051Z</time></trkpt><trkpt lat="42.9826827" lon="13.3287204"><ele>624.5</ele><time>2026-04-18T11:17:13.04Z</time></trkpt><trkpt lat="42.982766" lon="13.3286599"><ele>627.3333333333334</ele><time>2026-04-18T11:17:14.044Z</time></trkpt><trkpt lat="42.9828466" lon="13.3285868"><ele>630.1666666666666</ele><time>2026-04-18T11:17:15.039Z</time></trkpt><trkpt lat="42.9829223" lon="13.3285125"><ele>633.0</ele><time>2026-04-18T11:17:16.011Z</time></trkpt><trkpt lat="42.9829909" lon="13.3284506"><ele>633.0</ele><time>2026-04-18T11:17:17.035Z</time></trkpt><trkpt lat="42.9830453" lon="13.3283958"><ele>633.0</ele><time>2026-04-18T11:17:18.072Z</time></trkpt><trkpt lat="42.9830899" lon="13.3283274"><ele>633.0</ele><time>2026-04-18T11:17:19.04Z</time></trkpt><trkpt lat="42.9831514" lon="13.3282783"><ele>633.0</ele><time>2026-04-18T11:17:20.033Z</time></trkpt><trkpt lat="42.9832192" lon="13.3282228"><ele>633.0</ele><time>2026-04-18T11:17:21.992Z</time></trkpt><trkpt lat="42.9832835" lon="13.3282081"><ele>633.0</ele><time>2026-04-18T11:17:32.007Z</time></trkpt><trkpt lat="42.9833074" lon="13.3283244"><ele>633.0</ele><time>2026-04-18T11:17:35.022Z</time></trkpt><trkpt lat="42.9832869" lon="13.3284496"><ele>633.0</ele><time>2026-04-18T11:17:38.005Z</time></trkpt><trkpt lat="42.9832977" lon="13.3285624"><ele>633.0</ele><time>2026-04-18T11:17:40.007Z</time></trkpt><trkpt lat="42.9833128" lon="13.3286646"><ele>633.0</ele><time>2026-04-18T11:17:42.047Z</time></trkpt><trkpt lat="42.9833598" lon="13.3287808"><ele>633.0</ele><time>2026-04-18T11:17:44.979Z</time></trkpt><trkpt lat="42.9834066" lon="13.3288557"><ele>633.0</ele><time>2026-04-18T11:17:47.009Z</time></trkpt><trkpt lat="42.9834981" lon="13.3288646"><ele>633.0</ele><time>2026-04-18T11:17:49.02Z</time></trkpt><trkpt lat="42.9835744" lon="13.3288574"><ele>631.0</ele><time>2026-04-18T11:17:51.015Z</time></trkpt><trkpt lat="42.9836619" lon="13.328835"><ele>629.0</ele><time>2026-04-18T11:17:54.013Z</time></trkpt><trkpt lat="42.9837453" lon="13.3288645"><ele>627.0</ele><time>2026-04-18T11:17:57.02Z</time></trkpt><trkpt lat="42.9837855" lon="13.3289507"><ele>625.0</ele><time>2026-04-18T11:17:59.019Z</time></trkpt><trkpt lat="42.9838021" lon="13.3290499"><ele>623.0</ele><time>2026-04-18T11:18:00.022Z</time></trkpt><trkpt lat="42.9838231" lon="13.3291519"><ele>621.0</ele><time>2026-04-18T11:18:01.004Z</time></trkpt><trkpt lat="42.9838381" lon="13.3292369"><ele>620.6666666666666</ele><time>2026-04-18T11:18:02.012Z</time></trkpt><trkpt lat="42.9838341" lon="13.3294162"><ele>620.3333333333334</ele><time>2026-04-18T11:18:04.007Z</time></trkpt><trkpt lat="42.9838273" lon="13.3295133"><ele>620.0</ele><time>2026-04-18T11:18:05.052Z</time></trkpt><trkpt lat="42.9838308" lon="13.3296193"><ele>619.6666666666667</ele><time>2026-04-18T11:18:06.034Z</time></trkpt><trkpt lat="42.9838379" lon="13.3297091"><ele>619.3333333333334</ele><time>2026-04-18T11:18:07.037Z</time></trkpt><trkpt lat="42.9838355" lon="13.32982"><ele>619.0</ele><time>2026-04-18T11:18:08.055Z</time></trkpt><trkpt lat="42.9838248" lon="13.3299259"><ele>619.0</ele><time>2026-04-18T11:18:09.035Z</time></trkpt><trkpt lat="42.9838028" lon="13.3300952"><ele>619.0</ele><time>2026-04-18T11:18:11.036Z</time></trkpt><trkpt lat="42.9838172" lon="13.3302168"><ele>619.0</ele><time>2026-04-18T11:18:13.04Z</time></trkpt><trkpt lat="42.9838353" lon="13.3303113"><ele>619.0</ele><time>2026-04-18T11:18:14.999Z</time></trkpt><trkpt lat="42.9839209" lon="13.3303736"><ele>619.0</ele><time>2026-04-18T11:18:17.006Z</time></trkpt><trkpt lat="42.9840263" lon="13.3303938"><ele>619.0</ele><time>2026-04-18T11:18:19.049Z</time></trkpt><trkpt lat="42.9841189" lon="13.3304201"><ele>619.0</ele><time>2026-04-18T11:18:21.008Z</time></trkpt><trkpt lat="42.9841978" lon="13.3304481"><ele>619.0</ele><time>2026-04-18T11:18:23.001Z</time></trkpt><trkpt lat="42.9842636" lon="13.3304913"><ele>619.0</ele><time>2026-04-18T11:18:25.011Z</time></trkpt><trkpt lat="42.9843403" lon="13.3305333"><ele>619.0</ele><time>2026-04-18T11:18:27.02Z</time></trkpt><trkpt lat="42.9844406" lon="13.3306205"><ele>624.0</ele><time>2026-04-18T11:18:29.046Z</time></trkpt><trkpt lat="42.9845772" lon="13.3306856"><ele>629.0</ele><time>2026-04-18T11:18:31.062Z</time></trkpt><trkpt lat="42.9846651" lon="13.330726"><ele>634.0</ele><time>2026-04-18T11:18:32.057Z</time></trkpt><trkpt lat="42.9847488" lon="13.3307547"><ele>639.0</ele><time>2026-04-18T11:18:33.049Z</time></trkpt><trkpt lat="42.9848089" lon="13.3308243"><ele>644.0</ele><time>2026-04-18T11:18:34.038Z</time></trkpt><trkpt lat="42.9848637" lon="13.3308891"><ele>644.0</ele><time>2026-04-18T11:18:35.053Z</time></trkpt><trkpt lat="42.9849422" lon="13.3309369"><ele>644.0</ele><time>2026-04-18T11:18:37.052Z</time></trkpt><trkpt lat="42.9850393" lon="13.3309014"><ele>644.0</ele><time>2026-04-18T11:18:39.001Z</time></trkpt><trkpt lat="42.9851066" lon="13.330874"><ele>644.0</ele><time>2026-04-18T11:18:40.038Z</time></trkpt><trkpt lat="42.9852078" lon="13.3308492"><ele>644.0</ele><time>2026-04-18T11:18:42.038Z</time></trkpt><trkpt lat="42.9852988" lon="13.3308931"><ele>645.0</ele><time>2026-04-18T11:18:44.013Z</time></trkpt><trkpt lat="42.9853512" lon="13.3309546"><ele>646.0</ele><time>2026-04-18T11:18:45.041Z</time></trkpt><trkpt lat="42.9854186" lon="13.3310067"><ele>647.0</ele><time>2026-04-18T11:18:46.04Z</time></trkpt><trkpt lat="42.9854742" lon="13.3310487"><ele>648.0</ele><time>2026-04-18T11:18:47.069Z</time></trkpt><trkpt lat="42.9855842" lon="13.3311017"><ele>649.0</ele><time>2026-04-18T11:18:49.059Z</time></trkpt><trkpt lat="42.9856511" lon="13.3311159"><ele>650.0</ele><time>2026-04-18T11:18:50.061Z</time></trkpt><trkpt lat="42.985727" lon="13.3311135"><ele>650.0</ele><time>2026-04-18T11:18:51.054Z</time></trkpt><trkpt lat="42.985796" lon="13.3310987"><ele>650.0</ele><time>2026-04-18T11:18:52.065Z</time></trkpt><trkpt lat="42.9858725" lon="13.3310676"><ele>650.0</ele><time>2026-04-18T11:18:53.045Z</time></trkpt><trkpt lat="42.9859458" lon="13.3310672"><ele>650.0</ele><time>2026-04-18T11:18:54.042Z</time></trkpt><trkpt lat="42.9860119" lon="13.3310803"><ele>650.0</ele><time>2026-04-18T11:18:55.04Z</time></trkpt><trkpt lat="42.9861039" lon="13.3311838"><ele>650.0</ele><time>2026-04-18T11:18:57.041Z</time></trkpt><trkpt lat="42.9861459" lon="13.3312759"><ele>649.5</ele><time>2026-04-18T11:18:58.052Z</time></trkpt><trkpt lat="42.9861677" lon="13.3313894"><ele>649.0</ele><time>2026-04-18T11:18:59.084Z</time></trkpt><trkpt lat="42.9861841" lon="13.3314795"><ele>648.5</ele><time>2026-04-18T11:19:00.04Z</time></trkpt><trkpt lat="42.9862093" lon="13.3315766"><ele>648.0</ele><time>2026-04-18T11:19:01.049Z</time></trkpt><trkpt lat="42.9862519" lon="13.3316886"><ele>647.5</ele><time>2026-04-18T11:19:02.045Z</time></trkpt><trkpt lat="42.986318" lon="13.3317631"><ele>647.0</ele><time>2026-04-18T11:19:03.04Z</time></trkpt><trkpt lat="42.9863782" lon="13.3318344"><ele>647.0</ele><time>2026-04-18T11:19:04.038Z</time></trkpt><trkpt lat="42.9864331" lon="13.3318901"><ele>647.0</ele><time>2026-04-18T11:19:05.084Z</time></trkpt><trkpt lat="42.9864898" lon="13.3319417"><ele>647.0</ele><time>2026-04-18T11:19:06.033Z</time></trkpt><trkpt lat="42.9865532" lon="13.3319968"><ele>647.0</ele><time>2026-04-18T11:19:07.048Z</time></trkpt><trkpt lat="42.9866368" lon="13.3320282"><ele>647.0</ele><time>2026-04-18T11:19:08.047Z</time></trkpt><trkpt lat="42.9867305" lon="13.3320348"><ele>647.0</ele><time>2026-04-18T11:19:09.039Z</time></trkpt><trkpt lat="42.9868492" lon="13.3320564"><ele>647.8</ele><time>2026-04-18T11:19:10.046Z</time></trkpt><trkpt lat="42.9869546" lon="13.3320556"><ele>648.6</ele><time>2026-04-18T11:19:11.062Z</time></trkpt><trkpt lat="42.9870313" lon="13.332048"><ele>649.4</ele><time>2026-04-18T11:19:12.041Z</time></trkpt><trkpt lat="42.9871207" lon="13.3320341"><ele>650.1999999999999</ele><time>2026-04-18T11:19:14.04Z</time></trkpt><trkpt lat="42.9871993" lon="13.3319315"><ele>651.0</ele><time>2026-04-18T11:19:16.055Z</time></trkpt><trkpt lat="42.9872349" lon="13.3318173"><ele>651.0</ele><time>2026-04-18T11:19:17.095Z</time></trkpt><trkpt lat="42.9872762" lon="13.3317196"><ele>651.0</ele><time>2026-04-18T11:19:18.02Z</time></trkpt><trkpt lat="42.9873341" lon="13.3316346"><ele>651.0</ele><time>2026-04-18T11:19:19.067Z</time></trkpt><trkpt lat="42.9874026" lon="13.3315369"><ele>651.0</ele><time>2026-04-18T11:19:20.059Z</time></trkpt><trkpt lat="42.987542" lon="13.3314507"><ele>651.0</ele><time>2026-04-18T11:19:21.08Z</time></trkpt><trkpt lat="42.9877006" lon="13.3313775"><ele>653.5</ele><time>2026-04-18T11:19:22.076Z</time></trkpt><trkpt lat="42.9878574" lon="13.3313071"><ele>656.0</ele><time>2026-04-18T11:19:23.024Z</time></trkpt><trkpt lat="42.987977" lon="13.3312457"><ele>658.5</ele><time>2026-04-18T11:19:24.042Z</time></trkpt><trkpt lat="42.9880736" lon="13.3311962"><ele>661.0</ele><time>2026-04-18T11:19:25.043Z</time></trkpt><trkpt lat="42.9881408" lon="13.3312054"><ele>661.0</ele><time>2026-04-18T11:19:26.066Z</time></trkpt><trkpt lat="42.988206" lon="13.3312575"><ele>661.0</ele><time>2026-04-18T11:19:27.039Z</time></trkpt><trkpt lat="42.9882664" lon="13.3313457"><ele>661.0</ele><time>2026-04-18T11:19:28.021Z</time></trkpt><trkpt lat="42.9883263" lon="13.3314491"><ele>661.0</ele><time>2026-04-18T11:19:29.064Z</time></trkpt><trkpt lat="42.9883999" lon="13.3315379"><ele>661.0</ele><time>2026-04-18T11:19:30.069Z</time></trkpt><trkpt lat="42.9884751" lon="13.3315994"><ele>661.0</ele><time>2026-04-18T11:19:31.057Z</time></trkpt><trkpt lat="42.9885513" lon="13.3316331"><ele>658.8</ele><time>2026-04-18T11:19:32.077Z</time></trkpt><trkpt lat="42.9886297" lon="13.3316318"><ele>656.5999999999999</ele><time>2026-04-18T11:19:33.078Z</time></trkpt><trkpt lat="42.9887178" lon="13.3316307"><ele>654.4</ele><time>2026-04-18T11:19:34.028Z</time></trkpt><trkpt lat="42.9888142" lon="13.3315822"><ele>652.2</ele><time>2026-04-18T11:19:35.043Z</time></trkpt><trkpt lat="42.9889131" lon="13.3315115"><ele>650.0</ele><time>2026-04-18T11:19:36.044Z</time></trkpt><trkpt lat="42.9890087" lon="13.3314459"><ele>649.0</ele><time>2026-04-18T11:19:37.044Z</time></trkpt><trkpt lat="42.9891098" lon="13.3313846"><ele>648.0</ele><time>2026-04-18T11:19:38.021Z</time></trkpt><trkpt lat="42.9892132" lon="13.3313322"><ele>647.0</ele><time>2026-04-18T11:19:39.066Z</time></trkpt><trkpt lat="42.9893298" lon="13.331291"><ele>646.0</ele><time>2026-04-18T11:19:40.091Z</time></trkpt><trkpt lat="42.9894518" lon="13.3312556"><ele>644.0</ele><time>2026-04-18T11:19:41.065Z</time></trkpt><trkpt lat="42.98957" lon="13.3312231"><ele>642.0</ele><time>2026-04-18T11:19:42.05Z</time></trkpt><trkpt lat="42.9896844" lon="13.3311947"><ele>640.0</ele><time>2026-04-18T11:19:43.026Z</time></trkpt><trkpt lat="42.989787" lon="13.3311705"><ele>638.0</ele><time>2026-04-18T11:19:44.051Z</time></trkpt><trkpt lat="42.9898829" lon="13.3311538"><ele>636.0</ele><time>2026-04-18T11:19:45.073Z</time></trkpt><trkpt lat="42.9899735" lon="13.3311504"><ele>636.1666666666666</ele><time>2026-04-18T11:19:46.07Z</time></trkpt><trkpt lat="42.9900552" lon="13.331159"><ele>636.3333333333334</ele><time>2026-04-18T11:19:47.05Z</time></trkpt><trkpt lat="42.9901286" lon="13.3311615"><ele>636.5</ele><time>2026-04-18T11:19:48.021Z</time></trkpt><trkpt lat="42.9902033" lon="13.3311499"><ele>636.6666666666667</ele><time>2026-04-18T11:19:49.023Z</time></trkpt><trkpt lat="42.9902774" lon="13.3311188"><ele>636.8333333333334</ele><time>2026-04-18T11:19:50.018Z</time></trkpt><trkpt lat="42.9903431" lon="13.3310772"><ele>637.0</ele><time>2026-04-18T11:19:51.052Z</time></trkpt><trkpt lat="42.9904055" lon="13.3310366"><ele>637.0</ele><time>2026-04-18T11:19:52.023Z</time></trkpt><trkpt lat="42.9904683" lon="13.3309969"><ele>637.0</ele><time>2026-04-18T11:19:53.037Z</time></trkpt><trkpt lat="42.9905302" lon="13.3309586"><ele>637.0</ele><time>2026-04-18T11:19:54.027Z</time></trkpt><trkpt lat="42.9905904" lon="13.3309334"><ele>637.0</ele><time>2026-04-18T11:19:55.018Z</time></trkpt><trkpt lat="42.9906522" lon="13.3309128"><ele>637.0</ele><time>2026-04-18T11:19:56.081Z</time></trkpt><trkpt lat="42.9907152" lon="13.3308882"><ele>637.0</ele><time>2026-04-18T11:19:57.055Z</time></trkpt><trkpt lat="42.9908305" lon="13.330833"><ele>636.6666666666667</ele><time>2026-04-18T11:19:59.052Z</time></trkpt><trkpt lat="42.9908891" lon="13.3307933"><ele>636.3333333333334</ele><time>2026-04-18T11:20:00.037Z</time></trkpt><trkpt lat="42.9909524" lon="13.330749"><ele>636.0</ele><time>2026-04-18T11:20:01.047Z</time></trkpt><trkpt lat="42.9910347" lon="13.3306984"><ele>635.6666666666666</ele><time>2026-04-18T11:20:02.048Z</time></trkpt><trkpt lat="42.9911252" lon="13.3306447"><ele>635.3333333333333</ele><time>2026-04-18T11:20:03.02Z</time></trkpt><trkpt lat="42.9912337" lon="13.3305836"><ele>635.0</ele><time>2026-04-18T11:20:04.054Z</time></trkpt><trkpt lat="42.9913486" lon="13.3305216"><ele>635.6</ele><time>2026-04-18T11:20:05.06Z</time></trkpt><trkpt lat="42.9914692" lon="13.3304731"><ele>636.2</ele><time>2026-04-18T11:20:06.041Z</time></trkpt><trkpt lat="42.9915889" lon="13.3304573"><ele>636.8</ele><time>2026-04-18T11:20:07.103Z</time></trkpt><trkpt lat="42.9916941" lon="13.330443"><ele>637.4</ele><time>2026-04-18T11:20:08.019Z</time></trkpt><trkpt lat="42.9917792" lon="13.3304239"><ele>638.0</ele><time>2026-04-18T11:20:09.043Z</time></trkpt><trkpt lat="42.9918586" lon="13.3303871"><ele>638.0</ele><time>2026-04-18T11:20:10.043Z</time></trkpt><trkpt lat="42.9919299" lon="13.3303142"><ele>638.0</ele><time>2026-04-18T11:20:11.043Z</time></trkpt><trkpt lat="42.9919969" lon="13.3302292"><ele>638.0</ele><time>2026-04-18T11:20:12.053Z</time></trkpt><trkpt lat="42.9920677" lon="13.3301414"><ele>638.0</ele><time>2026-04-18T11:20:13.025Z</time></trkpt><trkpt lat="42.9921471" lon="13.3300495"><ele>638.0</ele><time>2026-04-18T11:20:14.049Z</time></trkpt><trkpt lat="42.9922469" lon="13.3299833"><ele>638.0</ele><time>2026-04-18T11:20:15.03Z</time></trkpt><trkpt lat="42.9923394" lon="13.3299336"><ele>638.0</ele><time>2026-04-18T11:20:16.024Z</time></trkpt><trkpt lat="42.9924368" lon="13.3298839"><ele>638.0</ele><time>2026-04-18T11:20:17.035Z</time></trkpt><trkpt lat="42.9925374" lon="13.3298415"><ele>638.0</ele><time>2026-04-18T11:20:18.021Z</time></trkpt><trkpt lat="42.9926263" lon="13.3297982"><ele>638.0</ele><time>2026-04-18T11:20:19.051Z</time></trkpt><trkpt lat="42.9927331" lon="13.3297683"><ele>637.5</ele><time>2026-04-18T11:20:20.037Z</time></trkpt><trkpt lat="42.9928533" lon="13.329758"><ele>637.0</ele><time>2026-04-18T11:20:21.023Z</time></trkpt><trkpt lat="42.992982" lon="13.3297506"><ele>636.5</ele><time>2026-04-18T11:20:22.048Z</time></trkpt><trkpt lat="42.993118" lon="13.3297392"><ele>636.0</ele><time>2026-04-18T11:20:23.024Z</time></trkpt><trkpt lat="42.9932539" lon="13.3297021"><ele>636.0</ele><time>2026-04-18T11:20:24.049Z</time></trkpt><trkpt lat="42.9933753" lon="13.3296585"><ele>636.0</ele><time>2026-04-18T11:20:25.046Z</time></trkpt><trkpt lat="42.9934914" lon="13.3296309"><ele>636.0</ele><time>2026-04-18T11:20:26.059Z</time></trkpt><trkpt lat="42.9936066" lon="13.3296252"><ele>636.0</ele><time>2026-04-18T11:20:27.029Z</time></trkpt><trkpt lat="42.9937243" lon="13.3296359"><ele>636.0</ele><time>2026-04-18T11:20:28.05Z</time></trkpt><trkpt lat="42.993839" lon="13.329658"><ele>636.0</ele><time>2026-04-18T11:20:29.035Z</time></trkpt><trkpt lat="42.9939524" lon="13.3296898"><ele>636.0</ele><time>2026-04-18T11:20:30.062Z</time></trkpt><trkpt lat="42.9940685" lon="13.3297246"><ele>636.0</ele><time>2026-04-18T11:20:31.062Z</time></trkpt><trkpt lat="42.9941867" lon="13.3297589"><ele>635.25</ele><time>2026-04-18T11:20:32.066Z</time></trkpt><trkpt lat="42.9943017" lon="13.3297945"><ele>634.5</ele><time>2026-04-18T11:20:33.056Z</time></trkpt><trkpt lat="42.9944111" lon="13.3298324"><ele>633.75</ele><time>2026-04-18T11:20:34.078Z</time></trkpt><trkpt lat="42.9945239" lon="13.3298692"><ele>633.0</ele><time>2026-04-18T11:20:35.049Z</time></trkpt><trkpt lat="42.9946372" lon="13.3299012"><ele>633.0</ele><time>2026-04-18T11:20:36.052Z</time></trkpt><trkpt lat="42.9947514" lon="13.3299336"><ele>633.0</ele><time>2026-04-18T11:20:37.06Z</time></trkpt><trkpt lat="42.9948686" lon="13.3299666"><ele>633.0</ele><time>2026-04-18T11:20:38.042Z</time></trkpt><trkpt lat="42.9949901" lon="13.3300036"><ele>633.0</ele><time>2026-04-18T11:20:39.051Z</time></trkpt><trkpt lat="42.9951128" lon="13.3300466"><ele>634.25</ele><time>2026-04-18T11:20:40.056Z</time></trkpt><trkpt lat="42.9952332" lon="13.330102"><ele>635.5</ele><time>2026-04-18T11:20:41.049Z</time></trkpt><trkpt lat="42.9953522" lon="13.3301684"><ele>636.75</ele><time>2026-04-18T11:20:42.061Z</time></trkpt><trkpt lat="42.9954669" lon="13.3302389"><ele>638.0</ele><time>2026-04-18T11:20:43.043Z</time></trkpt><trkpt lat="42.9955732" lon="13.33031"><ele>638.0</ele><time>2026-04-18T11:20:44.054Z</time></trkpt><trkpt lat="42.995666" lon="13.3303771"><ele>638.0</ele><time>2026-04-18T11:20:45.049Z</time></trkpt><trkpt lat="42.995743" lon="13.3304422"><ele>638.0</ele><time>2026-04-18T11:20:46.053Z</time></trkpt><trkpt lat="42.9958065" lon="13.3305027"><ele>638.0</ele><time>2026-04-18T11:20:47.059Z</time></trkpt><trkpt lat="42.9958573" lon="13.3305597"><ele>638.0</ele><time>2026-04-18T11:20:48.04Z</time></trkpt><trkpt lat="42.9959326" lon="13.3306647"><ele>638.0</ele><time>2026-04-18T11:20:50.04Z</time></trkpt><trkpt lat="42.9959988" lon="13.3307556"><ele>637.0</ele><time>2026-04-18T11:20:52.069Z</time></trkpt><trkpt lat="42.9960842" lon="13.3308846"><ele>636.0</ele><time>2026-04-18T11:20:54.04Z</time></trkpt><trkpt lat="42.9961315" lon="13.3310064"><ele>635.0</ele><time>2026-04-18T11:20:55.09Z</time></trkpt><trkpt lat="42.9961796" lon="13.3311336"><ele>634.0</ele><time>2026-04-18T11:20:56.059Z</time></trkpt><trkpt lat="42.99623" lon="13.3312487"><ele>633.0</ele><time>2026-04-18T11:20:57.056Z</time></trkpt><trkpt lat="42.9962777" lon="13.3313474"><ele>633.0</ele><time>2026-04-18T11:20:58.052Z</time></trkpt><trkpt lat="42.9963224" lon="13.3314358"><ele>633.0</ele><time>2026-04-18T11:20:59.036Z</time></trkpt><trkpt lat="42.9963729" lon="13.3315002"><ele>633.0</ele><time>2026-04-18T11:21:00.037Z</time></trkpt><trkpt lat="42.9964712" lon="13.331561"><ele>633.0</ele><time>2026-04-18T11:21:02.059Z</time></trkpt><trkpt lat="42.996572" lon="13.331519"><ele>633.0</ele><time>2026-04-18T11:21:04.059Z</time></trkpt><trkpt lat="42.9966572" lon="13.3313657"><ele>632.5</ele><time>2026-04-18T11:21:06.046Z</time></trkpt><trkpt lat="42.9967122" lon="13.3312763"><ele>632.0</ele><time>2026-04-18T11:21:07.053Z</time></trkpt><trkpt lat="42.9967637" lon="13.3312004"><ele>631.5</ele><time>2026-04-18T11:21:08.035Z</time></trkpt><trkpt lat="42.9968112" lon="13.3311224"><ele>631.0</ele><time>2026-04-18T11:21:09.052Z</time></trkpt><trkpt lat="42.996856" lon="13.3310608"><ele>630.5</ele><time>2026-04-18T11:21:10.061Z</time></trkpt><trkpt lat="42.9969157" lon="13.3309835"><ele>630.0</ele><time>2026-04-18T11:21:11.045Z</time></trkpt><trkpt lat="42.9969852" lon="13.330915"><ele>630.0</ele><time>2026-04-18T11:21:12.054Z</time></trkpt><trkpt lat="42.9970584" lon="13.3308622"><ele>630.0</ele><time>2026-04-18T11:21:13.041Z</time></trkpt><trkpt lat="42.9971329" lon="13.3308138"><ele>630.0</ele><time>2026-04-18T11:21:14.036Z</time></trkpt><trkpt lat="42.9972145" lon="13.33077"><ele>630.0</ele><time>2026-04-18T11:21:15.042Z</time></trkpt><trkpt lat="42.9973094" lon="13.3307363"><ele>630.0</ele><time>2026-04-18T11:21:16.055Z</time></trkpt><trkpt lat="42.997423" lon="13.3307324"><ele>631.8</ele><time>2026-04-18T11:21:17.057Z</time></trkpt><trkpt lat="42.9975213" lon="13.3307271"><ele>633.6</ele><time>2026-04-18T11:21:18.058Z</time></trkpt><trkpt lat="42.9975997" lon="13.3307327"><ele>635.4</ele><time>2026-04-18T11:21:19.033Z</time></trkpt><trkpt lat="42.9976712" lon="13.3307367"><ele>637.2</ele><time>2026-04-18T11:21:20.057Z</time></trkpt><trkpt lat="42.9977596" lon="13.3307015"><ele>639.0</ele><time>2026-04-18T11:21:21.052Z</time></trkpt><trkpt lat="42.9978571" lon="13.3306278"><ele>639.0</ele><time>2026-04-18T11:21:22.042Z</time></trkpt><trkpt lat="42.9979409" lon="13.3305637"><ele>639.0</ele><time>2026-04-18T11:21:23.047Z</time></trkpt><trkpt lat="42.9980219" lon="13.3305151"><ele>639.0</ele><time>2026-04-18T11:21:24.052Z</time></trkpt><trkpt lat="42.9981107" lon="13.3305006"><ele>639.0</ele><time>2026-04-18T11:21:25.039Z</time></trkpt><trkpt lat="42.9981927" lon="13.3304825"><ele>639.0</ele><time>2026-04-18T11:21:26.044Z</time></trkpt><trkpt lat="42.9982665" lon="13.3304464"><ele>639.0</ele><time>2026-04-18T11:21:27.035Z</time></trkpt><trkpt lat="42.9983266" lon="13.3303997"><ele>633.2</ele><time>2026-04-18T11:21:28.045Z</time></trkpt><trkpt lat="42.9984104" lon="13.3303131"><ele>627.4</ele><time>2026-04-18T11:21:30.056Z</time></trkpt><trkpt lat="42.9984749" lon="13.3302975"><ele>621.6</ele><time>2026-04-18T11:21:38.014Z</time></trkpt><trkpt lat="42.9985564" lon="13.3302916"><ele>615.8</ele><time>2026-04-18T11:21:40.027Z</time></trkpt><trkpt lat="42.9986428" lon="13.3302852"><ele>610.0</ele><time>2026-04-18T11:21:42.068Z</time></trkpt><trkpt lat="42.9987613" lon="13.3302703"><ele>610.0</ele><time>2026-04-18T11:21:44.034Z</time></trkpt><trkpt lat="42.9988373" lon="13.3302763"><ele>610.0</ele><time>2026-04-18T11:21:45.044Z</time></trkpt><trkpt lat="42.9989143" lon="13.3302887"><ele>610.0</ele><time>2026-04-18T11:21:46.049Z</time></trkpt><trkpt lat="42.9989926" lon="13.3303172"><ele>610.0</ele><time>2026-04-18T11:21:47.05Z</time></trkpt><trkpt lat="42.999078" lon="13.3303383"><ele>610.0</ele><time>2026-04-18T11:21:48.081Z</time></trkpt><trkpt lat="42.9991781" lon="13.3303551"><ele>610.0</ele><time>2026-04-18T11:21:49.07Z</time></trkpt><trkpt lat="42.9992853" lon="13.3303592"><ele>611.2</ele><time>2026-04-18T11:21:50.048Z</time></trkpt><trkpt lat="42.9993962" lon="13.3303652"><ele>612.4</ele><time>2026-04-18T11:21:51.043Z</time></trkpt><trkpt lat="42.9994925" lon="13.330358"><ele>613.6</ele><time>2026-04-18T11:21:52.034Z</time></trkpt><trkpt lat="42.9995866" lon="13.3303491"><ele>614.8</ele><time>2026-04-18T11:21:53.048Z</time></trkpt><trkpt lat="42.9996689" lon="13.3303251"><ele>616.0</ele><time>2026-04-18T11:21:54.025Z</time></trkpt><trkpt lat="42.9997747" lon="13.3302711"><ele>616.0</ele><time>2026-04-18T11:21:55.052Z</time></trkpt><trkpt lat="42.9998754" lon="13.3301907"><ele>616.0</ele><time>2026-04-18T11:21:56.066Z</time></trkpt><trkpt lat="42.9999639" lon="13.3301201"><ele>616.0</ele><time>2026-04-18T11:21:57.057Z</time></trkpt><trkpt lat="43.0000425" lon="13.3300668"><ele>616.0</ele><time>2026-04-18T11:21:58.047Z</time></trkpt><trkpt lat="43.0001287" lon="13.3300042"><ele>616.0</ele><time>2026-04-18T11:21:59.098Z</time></trkpt><trkpt lat="43.0002354" lon="13.3299678"><ele>616.0</ele><time>2026-04-18T11:22:00.024Z</time></trkpt><trkpt lat="43.000338" lon="13.3299446"><ele>616.0</ele><time>2026-04-18T11:22:01.038Z</time></trkpt><trkpt lat="43.0004424" lon="13.3299191"><ele>616.0</ele><time>2026-04-18T11:22:02.053Z</time></trkpt><trkpt lat="43.0005517" lon="13.329906"><ele>616.0</ele><time>2026-04-18T11:22:03.05Z</time></trkpt><trkpt lat="43.000633" lon="13.3298783"><ele>616.0</ele><time>2026-04-18T11:22:04.062Z</time></trkpt><trkpt lat="43.0006974" lon="13.3298462"><ele>616.0</ele><time>2026-04-18T11:22:05.046Z</time></trkpt><trkpt lat="43.0007674" lon="13.3297645"><ele>616.0</ele><time>2026-04-18T11:22:07.042Z</time></trkpt><trkpt lat="43.0008381" lon="13.3296531"><ele>616.0</ele><time>2026-04-18T11:22:09.019Z</time></trkpt><trkpt lat="43.0008993" lon="13.3295775"><ele>616.0</ele><time>2026-04-18T11:22:10.044Z</time></trkpt><trkpt lat="43.0009817" lon="13.3295194"><ele>616.0</ele><time>2026-04-18T11:22:11.043Z</time></trkpt><trkpt lat="43.0010593" lon="13.3294404"><ele>613.6</ele><time>2026-04-18T11:22:12.032Z</time></trkpt><trkpt lat="43.001141" lon="13.3293478"><ele>611.2</ele><time>2026-04-18T11:22:13.038Z</time></trkpt><trkpt lat="43.0012114" lon="13.3292435"><ele>608.8</ele><time>2026-04-18T11:22:14.013Z</time></trkpt><trkpt lat="43.0012961" lon="13.3291477"><ele>606.4</ele><time>2026-04-18T11:22:15.028Z</time></trkpt><trkpt lat="43.0013719" lon="13.3290615"><ele>604.0</ele><time>2026-04-18T11:22:16.055Z</time></trkpt><trkpt lat="43.0014548" lon="13.3289738"><ele>603.3333333333334</ele><time>2026-04-18T11:22:17.013Z</time></trkpt><trkpt lat="43.0015466" lon="13.3288818"><ele>602.6666666666667</ele><time>2026-04-18T11:22:18.051Z</time></trkpt><trkpt lat="43.0016264" lon="13.3288036"><ele>602.0</ele><time>2026-04-18T11:22:19.017Z</time></trkpt><trkpt lat="43.0017054" lon="13.3287497"><ele>601.3333333333334</ele><time>2026-04-18T11:22:20.041Z</time></trkpt><trkpt lat="43.001778" lon="13.3287159"><ele>600.6666666666666</ele><time>2026-04-18T11:22:21.04Z</time></trkpt><trkpt lat="43.0018465" lon="13.3286862"><ele>600.0</ele><time>2026-04-18T11:22:22.046Z</time></trkpt><trkpt lat="43.0019145" lon="13.3286741"><ele>600.0</ele><time>2026-04-18T11:22:23.045Z</time></trkpt><trkpt lat="43.0019954" lon="13.3286579"><ele>600.0</ele><time>2026-04-18T11:22:24.014Z</time></trkpt><trkpt lat="43.0020941" lon="13.3286522"><ele>600.0</ele><time>2026-04-18T11:22:25.045Z</time></trkpt><trkpt lat="43.0021838" lon="13.3286398"><ele>600.0</ele><time>2026-04-18T11:22:26.046Z</time></trkpt><trkpt lat="43.002269" lon="13.3286344"><ele>600.0</ele><time>2026-04-18T11:22:27.042Z</time></trkpt><trkpt lat="43.002356" lon="13.3286369"><ele>600.0</ele><time>2026-04-18T11:22:28.033Z</time></trkpt><trkpt lat="43.0024311" lon="13.3286616"><ele>601.3333333333334</ele><time>2026-04-18T11:22:29.03Z</time></trkpt><trkpt lat="43.0024995" lon="13.3286877"><ele>602.6666666666666</ele><time>2026-04-18T11:22:30.052Z</time></trkpt><trkpt lat="43.0025789" lon="13.3286864"><ele>604.0</ele><time>2026-04-18T11:22:31.048Z</time></trkpt><trkpt lat="43.0026735" lon="13.3286751"><ele>605.3333333333333</ele><time>2026-04-18T11:22:32.039Z</time></trkpt><trkpt lat="43.0027531" lon="13.3286437"><ele>606.6666666666666</ele><time>2026-04-18T11:22:33.046Z</time></trkpt><trkpt lat="43.0028392" lon="13.3286068"><ele>608.0</ele><time>2026-04-18T11:22:34.018Z</time></trkpt><trkpt lat="43.002933" lon="13.328543"><ele>608.0</ele><time>2026-04-18T11:22:35.076Z</time></trkpt><trkpt lat="43.0030238" lon="13.3284912"><ele>608.0</ele><time>2026-04-18T11:22:36.075Z</time></trkpt><trkpt lat="43.0031115" lon="13.3284229"><ele>608.0</ele><time>2026-04-18T11:22:37.05Z</time></trkpt><trkpt lat="43.0031984" lon="13.3283407"><ele>608.0</ele><time>2026-04-18T11:22:38.086Z</time></trkpt><trkpt lat="43.0032982" lon="13.3282495"><ele>608.0</ele><time>2026-04-18T11:22:39.028Z</time></trkpt><trkpt lat="43.0033801" lon="13.3281638"><ele>608.1999999999999</ele><time>2026-04-18T11:22:40.047Z</time></trkpt><trkpt lat="43.0034535" lon="13.3280813"><ele>608.4</ele><time>2026-04-18T11:22:41.063Z</time></trkpt><trkpt lat="43.0035198" lon="13.3280062"><ele>608.5999999999999</ele><time>2026-04-18T11:22:42.059Z</time></trkpt><trkpt lat="43.0035761" lon="13.3279439"><ele>608.8</ele><time>2026-04-18T11:22:43.064Z</time></trkpt><trkpt lat="43.0036804" lon="13.3278646"><ele>609.0</ele><time>2026-04-18T11:22:45.036Z</time></trkpt><trkpt lat="43.0037802" lon="13.3277439"><ele>608.6</ele><time>2026-04-18T11:22:47.042Z</time></trkpt><trkpt lat="43.0038485" lon="13.3276458"><ele>608.2</ele><time>2026-04-18T11:22:48.043Z</time></trkpt><trkpt lat="43.0039399" lon="13.3275514"><ele>607.8000000000001</ele><time>2026-04-18T11:22:49.023Z</time></trkpt><trkpt lat="43.0040286" lon="13.327472"><ele>607.4</ele><time>2026-04-18T11:22:50.069Z</time></trkpt><trkpt lat="43.0041062" lon="13.3274056"><ele>607.0</ele><time>2026-04-18T11:22:51.066Z</time></trkpt><trkpt lat="43.0041824" lon="13.3273303"><ele>607.6666666666667</ele><time>2026-04-18T11:22:52.046Z</time></trkpt><trkpt lat="43.0042484" lon="13.3272555"><ele>608.3333333333334</ele><time>2026-04-18T11:22:53.07Z</time></trkpt><trkpt lat="43.0042915" lon="13.3271613"><ele>609.0</ele><time>2026-04-18T11:22:54.032Z</time></trkpt><trkpt lat="43.0043326" lon="13.3270716"><ele>609.6666666666666</ele><time>2026-04-18T11:22:55.049Z</time></trkpt><trkpt lat="43.004381" lon="13.3269747"><ele>610.3333333333333</ele><time>2026-04-18T11:22:56.116Z</time></trkpt><trkpt lat="43.0044488" lon="13.3268843"><ele>611.0</ele><time>2026-04-18T11:22:57.038Z</time></trkpt><trkpt lat="43.0045347" lon="13.3268311"><ele>611.0</ele><time>2026-04-18T11:22:58.042Z</time></trkpt><trkpt lat="43.0046176" lon="13.3267917"><ele>611.0</ele><time>2026-04-18T11:22:59.026Z</time></trkpt><trkpt lat="43.0047011" lon="13.3267553"><ele>611.0</ele><time>2026-04-18T11:23:00.039Z</time></trkpt><trkpt lat="43.004787" lon="13.3267192"><ele>611.0</ele><time>2026-04-18T11:23:01.08Z</time></trkpt><trkpt lat="43.0048798" lon="13.3266757"><ele>611.0</ele><time>2026-04-18T11:23:02.076Z</time></trkpt><trkpt lat="43.0049708" lon="13.3266162"><ele>610.6</ele><time>2026-04-18T11:23:03.023Z</time></trkpt><trkpt lat="43.0050671" lon="13.3265767"><ele>610.2</ele><time>2026-04-18T11:23:04.032Z</time></trkpt><trkpt lat="43.0051651" lon="13.3265416"><ele>609.8</ele><time>2026-04-18T11:23:05.028Z</time></trkpt><trkpt lat="43.0052734" lon="13.3265032"><ele>609.4</ele><time>2026-04-18T11:23:06.065Z</time></trkpt><trkpt lat="43.0053791" lon="13.3264695"><ele>609.0</ele><time>2026-04-18T11:23:07.046Z</time></trkpt><trkpt lat="43.0054743" lon="13.3264398"><ele>609.0</ele><time>2026-04-18T11:23:08.079Z</time></trkpt><trkpt lat="43.0055493" lon="13.3264336"><ele>609.0</ele><time>2026-04-18T11:23:09.024Z</time></trkpt><trkpt lat="43.0056263" lon="13.3264287"><ele>609.0</ele><time>2026-04-18T11:23:10.05Z</time></trkpt><trkpt lat="43.0057149" lon="13.3264126"><ele>609.0</ele><time>2026-04-18T11:23:11.051Z</time></trkpt><trkpt lat="43.0058048" lon="13.3263918"><ele>609.0</ele><time>2026-04-18T11:23:12.051Z</time></trkpt><trkpt lat="43.0059001" lon="13.3263644"><ele>609.0</ele><time>2026-04-18T11:23:13.056Z</time></trkpt><trkpt lat="43.0059794" lon="13.3263496"><ele>610.2</ele><time>2026-04-18T11:23:14.018Z</time></trkpt><trkpt lat="43.0060774" lon="13.3263479"><ele>611.4</ele><time>2026-04-18T11:23:15.052Z</time></trkpt><trkpt lat="43.0061784" lon="13.3263441"><ele>612.6</ele><time>2026-04-18T11:23:16.057Z</time></trkpt><trkpt lat="43.0062758" lon="13.3263311"><ele>613.8</ele><time>2026-04-18T11:23:17.02Z</time></trkpt><trkpt lat="43.0063608" lon="13.3263231"><ele>615.0</ele><time>2026-04-18T11:23:18.044Z</time></trkpt><trkpt lat="43.0064372" lon="13.3263122"><ele>615.0</ele><time>2026-04-18T11:23:19.034Z</time></trkpt><trkpt lat="43.0065057" lon="13.3262975"><ele>615.0</ele><time>2026-04-18T11:23:20.019Z</time></trkpt><trkpt lat="43.0066162" lon="13.3262532"><ele>615.0</ele><time>2026-04-18T11:23:22.068Z</time></trkpt><trkpt lat="43.0066819" lon="13.3262086"><ele>615.0</ele><time>2026-04-18T11:23:23.059Z</time></trkpt><trkpt lat="43.0067439" lon="13.3261606"><ele>615.0</ele><time>2026-04-18T11:23:24.054Z</time></trkpt><trkpt lat="43.0067996" lon="13.3261007"><ele>615.0</ele><time>2026-04-18T11:23:25.038Z</time></trkpt><trkpt lat="43.006887" lon="13.325982"><ele>613.0</ele><time>2026-04-18T11:23:27.059Z</time></trkpt><trkpt lat="43.0069678" lon="13.3258798"><ele>611.0</ele><time>2026-04-18T11:23:29.048Z</time></trkpt><trkpt lat="43.0070631" lon="13.3257812"><ele>609.0</ele><time>2026-04-18T11:23:31.054Z</time></trkpt><trkpt lat="43.0071535" lon="13.3256651"><ele>607.0</ele><time>2026-04-18T11:23:33.092Z</time></trkpt><trkpt lat="43.0072351" lon="13.3255487"><ele>606.8000000000001</ele><time>2026-04-18T11:23:35.064Z</time></trkpt><trkpt lat="43.0073075" lon="13.3254793"><ele>606.6</ele><time>2026-04-18T11:23:37.079Z</time></trkpt><trkpt lat="43.0073685" lon="13.3254342"><ele>606.4000000000001</ele><time>2026-04-18T11:23:40.047Z</time></trkpt><trkpt lat="43.0072733" lon="13.3253677"><ele>606.2</ele><time>2026-04-18T11:23:44.029Z</time></trkpt><trkpt lat="43.0071618" lon="13.3253303"><ele>606.0</ele><time>2026-04-18T11:23:46.02Z</time></trkpt><trkpt lat="43.0070971" lon="13.3252504"><ele>606.0</ele><time>2026-04-18T11:23:48.07Z</time></trkpt><trkpt lat="43.0070587" lon="13.3251379"><ele>606.0</ele><time>2026-04-18T11:23:50.048Z</time></trkpt><trkpt lat="43.0070443" lon="13.3249748"><ele>606.0</ele><time>2026-04-18T11:23:52.074Z</time></trkpt><trkpt lat="43.0070369" lon="13.3248815"><ele>606.0</ele><time>2026-04-18T11:23:53.08Z</time></trkpt><trkpt lat="43.0070378" lon="13.3247947"><ele>606.0</ele><time>2026-04-18T11:23:54.05Z</time></trkpt><trkpt lat="43.0070474" lon="13.3246379"><ele>603.0</ele><time>2026-04-18T11:23:56.053Z</time></trkpt><trkpt lat="43.0070598" lon="13.3245036"><ele>600.0</ele><time>2026-04-18T11:23:58.056Z</time></trkpt><trkpt lat="43.0070638" lon="13.3243739"><ele>597.0</ele><time>2026-04-18T11:24:00.062Z</time></trkpt><trkpt lat="43.0070631" lon="13.3242873"><ele>594.0</ele><time>2026-04-18T11:24:02.053Z</time></trkpt><trkpt lat="43.0070456" lon="13.3241849"><ele>591.0</ele><time>2026-04-18T11:24:05.031Z</time></trkpt><trkpt lat="43.0070083" lon="13.324105"><ele>588.0</ele><time>2026-04-18T11:24:07.043Z</time></trkpt><trkpt lat="43.0069701" lon="13.3240213"><ele>588.0</ele><time>2026-04-18T11:24:09.108Z</time></trkpt><trkpt lat="43.0069324" lon="13.3239286"><ele>588.0</ele><time>2026-04-18T11:24:11.016Z</time></trkpt><trkpt lat="43.0068717" lon="13.3238355"><ele>588.0</ele><time>2026-04-18T11:24:13.013Z</time></trkpt><trkpt lat="43.0068086" lon="13.3237465"><ele>588.0</ele><time>2026-04-18T11:24:15.008Z</time></trkpt><trkpt lat="43.0067482" lon="13.3236803"><ele>588.0</ele><time>2026-04-18T11:24:17.034Z</time></trkpt><trkpt lat="43.006677" lon="13.3236062"><ele>588.0</ele><time>2026-04-18T11:24:19.022Z</time></trkpt><trkpt lat="43.0065837" lon="13.323534"><ele>581.0</ele><time>2026-04-18T11:24:21Z</time></trkpt><trkpt lat="43.0064953" lon="13.3235053"><ele>574.0</ele><time>2026-04-18T11:24:23.023Z</time></trkpt><trkpt lat="43.0064344" lon="13.3234815"><ele>567.0</ele><time>2026-04-18T11:24:25.024Z</time></trkpt><trkpt lat="43.0063414" lon="13.3233895"><ele>560.0</ele><time>2026-04-18T11:24:41.978Z</time></trkpt><trkpt lat="43.0064097" lon="13.323311"><ele>553.0</ele><time>2026-04-18T11:24:49.968Z</time></trkpt><trkpt lat="43.0064653" lon="13.3232438"><ele>546.0</ele><time>2026-04-18T11:24:51.965Z</time></trkpt><trkpt lat="43.0065545" lon="13.3231927"><ele>546.0</ele><time>2026-04-18T11:24:53.98Z</time></trkpt><trkpt lat="43.0066253" lon="13.3231864"><ele>546.0</ele><time>2026-04-18T11:24:55.052Z</time></trkpt><trkpt lat="43.0067379" lon="13.3231504"><ele>546.0</ele><time>2026-04-18T11:24:57.053Z</time></trkpt><trkpt lat="43.0068493" lon="13.3231098"><ele>546.0</ele><time>2026-04-18T11:24:59.033Z</time></trkpt><trkpt lat="43.0069622" lon="13.323037"><ele>546.0</ele><time>2026-04-18T11:25:01.054Z</time></trkpt><trkpt lat="43.0070536" lon="13.3229789"><ele>543.6</ele><time>2026-04-18T11:25:03.042Z</time></trkpt><trkpt lat="43.0071519" lon="13.3230188"><ele>541.2</ele><time>2026-04-18T11:25:05.044Z</time></trkpt><trkpt lat="43.0072434" lon="13.3231054"><ele>538.8</ele><time>2026-04-18T11:25:07.03Z</time></trkpt><trkpt lat="43.0073174" lon="13.3231539"><ele>536.4</ele><time>2026-04-18T11:25:09.056Z</time></trkpt><trkpt lat="43.0073784" lon="13.3232196"><ele>534.0</ele><time>2026-04-18T11:25:11.02Z</time></trkpt><trkpt lat="43.0074576" lon="13.3232846"><ele>534.0000000000001</ele><time>2026-04-18T11:25:13.077Z</time></trkpt><trkpt lat="43.0074724" lon="13.323369"><ele>534.0</ele><time>2026-04-18T11:25:19.981Z</time></trkpt><trkpt lat="43.0074023" lon="13.3233315"><ele>534.0</ele><time>2026-04-18T11:25:22.015Z</time></trkpt><trkpt lat="43.0073725" lon="13.3232385"><ele>534.0</ele><time>2026-04-18T11:25:22.999Z</time></trkpt><trkpt lat="43.0073394" lon="13.3231418"><ele>534.0</ele><time>2026-04-18T11:25:24.042Z</time></trkpt><trkpt lat="43.0073141" lon="13.3230577"><ele>534.0000000000001</ele><time>2026-04-18T11:25:25.041Z</time></trkpt><trkpt lat="43.0072698" lon="13.3229861"><ele>534.0</ele><time>2026-04-18T11:25:27.062Z</time></trkpt><trkpt lat="43.007222" lon="13.3228987"><ele>534.0</ele><time>2026-04-18T11:25:29.974Z</time></trkpt><trkpt lat="43.0071613" lon="13.3228095"><ele>534.0</ele><time>2026-04-18T11:25:33.02Z</time></trkpt><trkpt lat="43.0071007" lon="13.3227594"><ele>534.0</ele><time>2026-04-18T11:25:34.977Z</time></trkpt><trkpt lat="43.0070054" lon="13.3226723"><ele>534.0</ele><time>2026-04-18T11:25:37.023Z</time></trkpt><trkpt lat="43.0069011" lon="13.3226004"><ele>534.0</ele><time>2026-04-18T11:25:39.05Z</time></trkpt><trkpt lat="43.0068014" lon="13.3225168"><ele>534.0</ele><time>2026-04-18T11:25:40.987Z</time></trkpt><trkpt lat="43.0067518" lon="13.3224449"><ele>534.0</ele><time>2026-04-18T11:25:42.037Z</time></trkpt><trkpt lat="43.0067101" lon="13.322332"><ele>534.0</ele><time>2026-04-18T11:25:43.041Z</time></trkpt><trkpt lat="43.0066843" lon="13.32221"><ele>534.0</ele><time>2026-04-18T11:25:44.048Z</time></trkpt><trkpt lat="43.0066538" lon="13.3220961"><ele>534.0</ele><time>2026-04-18T11:25:45.018Z</time></trkpt><trkpt lat="43.0066291" lon="13.3220153"><ele>534.0</ele><time>2026-04-18T11:25:46.049Z</time></trkpt><trkpt lat="43.0066025" lon="13.3219068"><ele>529.0</ele><time>2026-04-18T11:25:47.062Z</time></trkpt><trkpt lat="43.0065498" lon="13.3217772"><ele>524.0</ele><time>2026-04-18T11:25:49.056Z</time></trkpt><trkpt lat="43.0064673" lon="13.3217185"><ele>519.0</ele><time>2026-04-18T11:25:51.089Z</time></trkpt><trkpt lat="43.0063486" lon="13.3217701"><ele>514.0</ele><time>2026-04-18T11:25:53.03Z</time></trkpt><trkpt lat="43.0062584" lon="13.3218652"><ele>509.0</ele><time>2026-04-18T11:25:54.012Z</time></trkpt><trkpt lat="43.0061793" lon="13.3219506"><ele>509.0</ele><time>2026-04-18T11:25:55.062Z</time></trkpt><trkpt lat="43.0060865" lon="13.3220291"><ele>509.0</ele><time>2026-04-18T11:25:56.059Z</time></trkpt><trkpt lat="43.0059943" lon="13.3221088"><ele>509.0</ele><time>2026-04-18T11:25:57.06Z</time></trkpt><trkpt lat="43.0059034" lon="13.322188"><ele>509.0</ele><time>2026-04-18T11:25:58.043Z</time></trkpt><trkpt lat="43.0058309" lon="13.322268"><ele>509.0</ele><time>2026-04-18T11:25:59.059Z</time></trkpt><trkpt lat="43.0057591" lon="13.3223457"><ele>510.6</ele><time>2026-04-18T11:26:00.042Z</time></trkpt><trkpt lat="43.0056956" lon="13.3224103"><ele>512.2</ele><time>2026-04-18T11:26:01.048Z</time></trkpt><trkpt lat="43.0056414" lon="13.3224557"><ele>513.8000000000001</ele><time>2026-04-18T11:26:02.048Z</time></trkpt><trkpt lat="43.0055225" lon="13.3225048"><ele>515.4</ele><time>2026-04-18T11:26:04.041Z</time></trkpt><trkpt lat="43.0054493" lon="13.3225063"><ele>517.0</ele><time>2026-04-18T11:26:05.052Z</time></trkpt><trkpt lat="43.0053345" lon="13.3224682"><ele>517.0</ele><time>2026-04-18T11:26:07.049Z</time></trkpt><trkpt lat="43.0053" lon="13.3223927"><ele>517.0</ele><time>2026-04-18T11:26:08.054Z</time></trkpt><trkpt lat="43.0052299" lon="13.3222547"><ele>517.0</ele><time>2026-04-18T11:26:10.052Z</time></trkpt><trkpt lat="43.0051608" lon="13.3222024"><ele>517.0</ele><time>2026-04-18T11:26:11.049Z</time></trkpt><trkpt lat="43.0050787" lon="13.3221602"><ele>517.0</ele><time>2026-04-18T11:26:12.044Z</time></trkpt><trkpt lat="43.005004" lon="13.32213"><ele>517.0</ele><time>2026-04-18T11:26:13.049Z</time></trkpt><trkpt lat="43.0049362" lon="13.3221193"><ele>515.6666666666667</ele><time>2026-04-18T11:26:14.052Z</time></trkpt><trkpt lat="43.0048719" lon="13.3221095"><ele>514.3333333333334</ele><time>2026-04-18T11:26:15.052Z</time></trkpt><trkpt lat="43.0047534" lon="13.3221248"><ele>513.0</ele><time>2026-04-18T11:26:17.025Z</time></trkpt><trkpt lat="43.0046857" lon="13.3221328"><ele>511.66666666666663</ele><time>2026-04-18T11:26:18.117Z</time></trkpt><trkpt lat="43.0046097" lon="13.322152"><ele>510.3333333333333</ele><time>2026-04-18T11:26:19.045Z</time></trkpt><trkpt lat="43.0045101" lon="13.3221893"><ele>509.0</ele><time>2026-04-18T11:26:20.037Z</time></trkpt><trkpt lat="43.0044072" lon="13.3222541"><ele>508.99999999999994</ele><time>2026-04-18T11:26:21.049Z</time></trkpt><trkpt lat="43.0043033" lon="13.3223082"><ele>509.0</ele><time>2026-04-18T11:26:22.041Z</time></trkpt><trkpt lat="43.0042216" lon="13.3223455"><ele>509.0</ele><time>2026-04-18T11:26:23.039Z</time></trkpt><trkpt lat="43.0041613" lon="13.3223805"><ele>509.0</ele><time>2026-04-18T11:26:24.102Z</time></trkpt><trkpt lat="43.0040744" lon="13.3224204"><ele>508.99999999999994</ele><time>2026-04-18T11:26:26.039Z</time></trkpt><trkpt lat="43.0039886" lon="13.3224303"><ele>509.0</ele><time>2026-04-18T11:26:29.025Z</time></trkpt><trkpt lat="43.0038974" lon="13.3223777"><ele>509.2</ele><time>2026-04-18T11:26:31.04Z</time></trkpt><trkpt lat="43.0038405" lon="13.3222963"><ele>509.4</ele><time>2026-04-18T11:26:32.049Z</time></trkpt><trkpt lat="43.0037784" lon="13.3222204"><ele>509.6</ele><time>2026-04-18T11:26:33.033Z</time></trkpt><trkpt lat="43.0037062" lon="13.3221256"><ele>509.8</ele><time>2026-04-18T11:26:34.063Z</time></trkpt><trkpt lat="43.0036531" lon="13.3220046"><ele>510.0</ele><time>2026-04-18T11:26:35.05Z</time></trkpt><trkpt lat="43.0036425" lon="13.3218703"><ele>514.0</ele><time>2026-04-18T11:26:36.043Z</time></trkpt><trkpt lat="43.0036514" lon="13.321731"><ele>518.0</ele><time>2026-04-18T11:26:37.059Z</time></trkpt><trkpt lat="43.0036926" lon="13.3215947"><ele>522.0</ele><time>2026-04-18T11:26:38.061Z</time></trkpt><trkpt lat="43.003743" lon="13.3214903"><ele>526.0</ele><time>2026-04-18T11:26:39.06Z</time></trkpt><trkpt lat="43.0037918" lon="13.3214031"><ele>530.0</ele><time>2026-04-18T11:26:40.039Z</time></trkpt><trkpt lat="43.0038648" lon="13.3213138"><ele>535.1666666666666</ele><time>2026-04-18T11:26:41.036Z</time></trkpt><trkpt lat="43.0039231" lon="13.321236"><ele>540.3333333333333</ele><time>2026-04-18T11:26:42.067Z</time></trkpt><trkpt lat="43.0039738" lon="13.3211367"><ele>545.5</ele><time>2026-04-18T11:26:43.055Z</time></trkpt><trkpt lat="43.0040147" lon="13.3210187"><ele>550.6666666666666</ele><time>2026-04-18T11:26:44.051Z</time></trkpt><trkpt lat="43.0040308" lon="13.3209096"><ele>555.8333333333334</ele><time>2026-04-18T11:26:45.04Z</time></trkpt><trkpt lat="43.0040447" lon="13.3208132"><ele>561.0</ele><time>2026-04-18T11:26:46.058Z</time></trkpt><trkpt lat="43.0040627" lon="13.3207064"><ele>561.0</ele><time>2026-04-18T11:26:47.044Z</time></trkpt><trkpt lat="43.0041054" lon="13.3205899"><ele>561.0</ele><time>2026-04-18T11:26:48.053Z</time></trkpt><trkpt lat="43.0041985" lon="13.3204933"><ele>561.0</ele><time>2026-04-18T11:26:49.047Z</time></trkpt><trkpt lat="43.004285" lon="13.3204345"><ele>561.0</ele><time>2026-04-18T11:26:50.041Z</time></trkpt><trkpt lat="43.0043453" lon="13.3203705"><ele>561.0</ele><time>2026-04-18T11:26:51.054Z</time></trkpt><trkpt lat="43.0044028" lon="13.3202866"><ele>563.2</ele><time>2026-04-18T11:26:52.04Z</time></trkpt><trkpt lat="43.0044357" lon="13.3201501"><ele>565.4000000000001</ele><time>2026-04-18T11:26:53.045Z</time></trkpt><trkpt lat="43.0044788" lon="13.3200139"><ele>567.6</ele><time>2026-04-18T11:26:54.039Z</time></trkpt><trkpt lat="43.0045317" lon="13.3199046"><ele>569.8000000000001</ele><time>2026-04-18T11:26:55.053Z</time></trkpt><trkpt lat="43.0046155" lon="13.3198071"><ele>572.0</ele><time>2026-04-18T11:26:56.048Z</time></trkpt><trkpt lat="43.0047485" lon="13.3197072"><ele>572.0</ele><time>2026-04-18T11:26:57.048Z</time></trkpt><trkpt lat="43.0049073" lon="13.3196066"><ele>572.0</ele><time>2026-04-18T11:26:58.038Z</time></trkpt><trkpt lat="43.0050705" lon="13.3195266"><ele>572.0</ele><time>2026-04-18T11:26:59.056Z</time></trkpt><trkpt lat="43.0052028" lon="13.3194493"><ele>566.4</ele><time>2026-04-18T11:27:00.053Z</time></trkpt><trkpt lat="43.0053208" lon="13.3193785"><ele>560.8000000000001</ele><time>2026-04-18T11:27:01.051Z</time></trkpt><trkpt lat="43.0054272" lon="13.3193245"><ele>555.2</ele><time>2026-04-18T11:27:02.039Z</time></trkpt><trkpt lat="43.0055257" lon="13.3192739"><ele>549.6</ele><time>2026-04-18T11:27:03.055Z</time></trkpt><trkpt lat="43.0056254" lon="13.3192469"><ele>544.0</ele><time>2026-04-18T11:27:04.047Z</time></trkpt><trkpt lat="43.0057264" lon="13.3192416"><ele>538.0</ele><time>2026-04-18T11:27:05.041Z</time></trkpt><trkpt lat="43.0058349" lon="13.319255"><ele>532.0</ele><time>2026-04-18T11:27:06.051Z</time></trkpt><trkpt lat="43.0059464" lon="13.3192154"><ele>526.0</ele><time>2026-04-18T11:27:07.049Z</time></trkpt><trkpt lat="43.0060683" lon="13.3191266"><ele>520.0</ele><time>2026-04-18T11:27:08.084Z</time></trkpt><trkpt lat="43.0061818" lon="13.3190363"><ele>520.0</ele><time>2026-04-18T11:27:09.056Z</time></trkpt><trkpt lat="43.006292" lon="13.3189331"><ele>520.0</ele><time>2026-04-18T11:27:10.083Z</time></trkpt><trkpt lat="43.0064209" lon="13.3188614"><ele>520.0</ele><time>2026-04-18T11:27:11.02Z</time></trkpt><trkpt lat="43.0065497" lon="13.3187971"><ele>520.0</ele><time>2026-04-18T11:27:12.045Z</time></trkpt><trkpt lat="43.00669" lon="13.3187187"><ele>520.25</ele><time>2026-04-18T11:27:13.045Z</time></trkpt><trkpt lat="43.00679" lon="13.3186389"><ele>520.5</ele><time>2026-04-18T11:27:14.04Z</time></trkpt><trkpt lat="43.0069011" lon="13.3185963"><ele>520.75</ele><time>2026-04-18T11:27:15.041Z</time></trkpt><trkpt lat="43.0070177" lon="13.3185208"><ele>521.0</ele><time>2026-04-18T11:27:16.029Z</time></trkpt><trkpt lat="43.0071326" lon="13.3184297"><ele>521.0</ele><time>2026-04-18T11:27:17.063Z</time></trkpt><trkpt lat="43.0072453" lon="13.3183732"><ele>521.0</ele><time>2026-04-18T11:27:18.018Z</time></trkpt><trkpt lat="43.0073139" lon="13.3183223"><ele>521.0</ele><time>2026-04-18T11:27:19.041Z</time></trkpt><trkpt lat="43.0073832" lon="13.3181847"><ele>521.0</ele><time>2026-04-18T11:27:21.045Z</time></trkpt><trkpt lat="43.0074147" lon="13.318089"><ele>521.0</ele><time>2026-04-18T11:27:22.049Z</time></trkpt><trkpt lat="43.0074229" lon="13.317955"><ele>522.8</ele><time>2026-04-18T11:27:23.053Z</time></trkpt><trkpt lat="43.0074197" lon="13.3178201"><ele>524.6</ele><time>2026-04-18T11:27:24.051Z</time></trkpt><trkpt lat="43.0074291" lon="13.3176856"><ele>526.4</ele><time>2026-04-18T11:27:25.051Z</time></trkpt><trkpt lat="43.0074482" lon="13.31756"><ele>528.2</ele><time>2026-04-18T11:27:26.043Z</time></trkpt><trkpt lat="43.0074364" lon="13.3174121"><ele>530.0</ele><time>2026-04-18T11:27:27.039Z</time></trkpt><trkpt lat="43.0074281" lon="13.3172669"><ele>529.25</ele><time>2026-04-18T11:27:28.068Z</time></trkpt><trkpt lat="43.0074801" lon="13.3170916"><ele>528.5</ele><time>2026-04-18T11:27:29.048Z</time></trkpt><trkpt lat="43.0075264" lon="13.3169513"><ele>527.75</ele><time>2026-04-18T11:27:30.057Z</time></trkpt><trkpt lat="43.0075738" lon="13.3168273"><ele>527.0</ele><time>2026-04-18T11:27:31.039Z</time></trkpt><trkpt lat="43.0076317" lon="13.3167196"><ele>523.6</ele><time>2026-04-18T11:27:32.044Z</time></trkpt><trkpt lat="43.0077035" lon="13.3166326"><ele>520.2</ele><time>2026-04-18T11:27:33.053Z</time></trkpt><trkpt lat="43.0077883" lon="13.3165368"><ele>516.8</ele><time>2026-04-18T11:27:34.036Z</time></trkpt><trkpt lat="43.0078773" lon="13.3164919"><ele>513.4</ele><time>2026-04-18T11:27:35.041Z</time></trkpt><trkpt lat="43.0079676" lon="13.3164008"><ele>510.0</ele><time>2026-04-18T11:27:36.05Z</time></trkpt><trkpt lat="43.0080485" lon="13.3163091"><ele>510.0</ele><time>2026-04-18T11:27:37.042Z</time></trkpt><trkpt lat="43.0081079" lon="13.316217"><ele>510.0</ele><time>2026-04-18T11:27:38.04Z</time></trkpt><trkpt lat="43.0081445" lon="13.3161109"><ele>510.0</ele><time>2026-04-18T11:27:39.056Z</time></trkpt><trkpt lat="43.008167" lon="13.3159787"><ele>510.0</ele><time>2026-04-18T11:27:40.044Z</time></trkpt><trkpt lat="43.0081735" lon="13.3158686"><ele>510.0</ele><time>2026-04-18T11:27:41.058Z</time></trkpt><trkpt lat="43.0081731" lon="13.3157715"><ele>510.0</ele><time>2026-04-18T11:27:42.035Z</time></trkpt><trkpt lat="43.0081445" lon="13.3156727"><ele>506.25</ele><time>2026-04-18T11:27:43.11Z</time></trkpt><trkpt lat="43.0080591" lon="13.3155622"><ele>502.5</ele><time>2026-04-18T11:27:44.033Z</time></trkpt><trkpt lat="43.0079915" lon="13.315443"><ele>498.75</ele><time>2026-04-18T11:27:45.042Z</time></trkpt><trkpt lat="43.0079467" lon="13.3152884"><ele>495.0</ele><time>2026-04-18T11:27:46.071Z</time></trkpt><trkpt lat="43.0079381" lon="13.3151318"><ele>495.0</ele><time>2026-04-18T11:27:47.04Z</time></trkpt><trkpt lat="43.0079499" lon="13.3149626"><ele>495.0</ele><time>2026-04-18T11:27:48.055Z</time></trkpt><trkpt lat="43.0079853" lon="13.3147695"><ele>495.0</ele><time>2026-04-18T11:27:49.028Z</time></trkpt><trkpt lat="43.0080355" lon="13.3146126"><ele>495.0</ele><time>2026-04-18T11:27:50.022Z</time></trkpt><trkpt lat="43.008089" lon="13.3144558"><ele>495.75</ele><time>2026-04-18T11:27:51.032Z</time></trkpt><trkpt lat="43.0081427" lon="13.3142956"><ele>496.5</ele><time>2026-04-18T11:27:52.019Z</time></trkpt><trkpt lat="43.0081902" lon="13.3141205"><ele>497.25</ele><time>2026-04-18T11:27:53.055Z</time></trkpt><trkpt lat="43.0081994" lon="13.3139553"><ele>498.0</ele><time>2026-04-18T11:27:54.044Z</time></trkpt><trkpt lat="43.0082198" lon="13.3137792"><ele>498.0</ele><time>2026-04-18T11:27:55.077Z</time></trkpt><trkpt lat="43.0082426" lon="13.3136231"><ele>497.99999999999994</ele><time>2026-04-18T11:27:56.062Z</time></trkpt><trkpt lat="43.0082654" lon="13.3134933"><ele>497.99999999999994</ele><time>2026-04-18T11:27:57.035Z</time></trkpt><trkpt lat="43.008288" lon="13.3133566"><ele>498.0</ele><time>2026-04-18T11:27:58.053Z</time></trkpt><trkpt lat="43.0083269" lon="13.3132477"><ele>498.0</ele><time>2026-04-18T11:27:59.039Z</time></trkpt><trkpt lat="43.0083865" lon="13.3131217"><ele>498.59999999999997</ele><time>2026-04-18T11:28:00.071Z</time></trkpt><trkpt lat="43.0084528" lon="13.3130132"><ele>499.19999999999993</ele><time>2026-04-18T11:28:01.032Z</time></trkpt><trkpt lat="43.0085204" lon="13.3129228"><ele>499.8</ele><time>2026-04-18T11:28:02.032Z</time></trkpt><trkpt lat="43.0086041" lon="13.3128451"><ele>500.4</ele><time>2026-04-18T11:28:03.041Z</time></trkpt><trkpt lat="43.0087048" lon="13.312769"><ele>501.0</ele><time>2026-04-18T11:28:04.062Z</time></trkpt><trkpt lat="43.0088196" lon="13.312704"><ele>501.0</ele><time>2026-04-18T11:28:05.016Z</time></trkpt><trkpt lat="43.0089173" lon="13.3126411"><ele>501.0</ele><time>2026-04-18T11:28:06.009Z</time></trkpt><trkpt lat="43.0090267" lon="13.3125948"><ele>501.0</ele><time>2026-04-18T11:28:07.062Z</time></trkpt><trkpt lat="43.0091344" lon="13.3125125"><ele>501.0</ele><time>2026-04-18T11:28:08.013Z</time></trkpt><trkpt lat="43.0092363" lon="13.3124128"><ele>501.8</ele><time>2026-04-18T11:28:09.05Z</time></trkpt><trkpt lat="43.0093034" lon="13.3123483"><ele>502.6</ele><time>2026-04-18T11:28:10.018Z</time></trkpt><trkpt lat="43.0093489" lon="13.3122503"><ele>503.4</ele><time>2026-04-18T11:28:11.047Z</time></trkpt><trkpt lat="43.009366" lon="13.3121306"><ele>504.2</ele><time>2026-04-18T11:28:12.05Z</time></trkpt><trkpt lat="43.0093751" lon="13.3119728"><ele>505.0</ele><time>2026-04-18T11:28:13.048Z</time></trkpt><trkpt lat="43.0094074" lon="13.3117645"><ele>507.5</ele><time>2026-04-18T11:28:14.061Z</time></trkpt><trkpt lat="43.009449" lon="13.3115744"><ele>510.0</ele><time>2026-04-18T11:28:15.05Z</time></trkpt><trkpt lat="43.0095035" lon="13.3114037"><ele>512.5</ele><time>2026-04-18T11:28:16.04Z</time></trkpt><trkpt lat="43.009577" lon="13.3112286"><ele>515.0</ele><time>2026-04-18T11:28:17.052Z</time></trkpt><trkpt lat="43.0096321" lon="13.3110646"><ele>518.8</ele><time>2026-04-18T11:28:18.064Z</time></trkpt><trkpt lat="43.0096746" lon="13.3109323"><ele>522.6</ele><time>2026-04-18T11:28:19.029Z</time></trkpt><trkpt lat="43.0097009" lon="13.3108241"><ele>526.4</ele><time>2026-04-18T11:28:20.058Z</time></trkpt><trkpt lat="43.0097334" lon="13.3107107"><ele>530.2</ele><time>2026-04-18T11:28:21.058Z</time></trkpt><trkpt lat="43.0097652" lon="13.3105642"><ele>534.0</ele><time>2026-04-18T11:28:22.102Z</time></trkpt><trkpt lat="43.009816" lon="13.3104472"><ele>535.0</ele><time>2026-04-18T11:28:23.046Z</time></trkpt><trkpt lat="43.0098906" lon="13.3103507"><ele>536.0</ele><time>2026-04-18T11:28:24.041Z</time></trkpt><trkpt lat="43.0100256" lon="13.3103017"><ele>537.0</ele><time>2026-04-18T11:28:25.053Z</time></trkpt><trkpt lat="43.0101807" lon="13.310258"><ele>538.0</ele><time>2026-04-18T11:28:26.06Z</time></trkpt><trkpt lat="43.0103424" lon="13.3102087"><ele>538.0</ele><time>2026-04-18T11:28:27.061Z</time></trkpt><trkpt lat="43.0104891" lon="13.3101628"><ele>538.0</ele><time>2026-04-18T11:28:28.101Z</time></trkpt><trkpt lat="43.0106243" lon="13.3101466"><ele>538.0</ele><time>2026-04-18T11:28:29.051Z</time></trkpt><trkpt lat="43.0107543" lon="13.3101285"><ele>538.0</ele><time>2026-04-18T11:28:30.055Z</time></trkpt><trkpt lat="43.010875" lon="13.3100747"><ele>536.75</ele><time>2026-04-18T11:28:31.016Z</time></trkpt><trkpt lat="43.0109866" lon="13.3100012"><ele>535.5</ele><time>2026-04-18T11:28:32.066Z</time></trkpt><trkpt lat="43.0111004" lon="13.3099042"><ele>534.25</ele><time>2026-04-18T11:28:33.047Z</time></trkpt><trkpt lat="43.0112287" lon="13.3098278"><ele>533.0</ele><time>2026-04-18T11:28:34.033Z</time></trkpt><trkpt lat="43.0113545" lon="13.3097974"><ele>533.0</ele><time>2026-04-18T11:28:35.047Z</time></trkpt><trkpt lat="43.0114965" lon="13.3098157"><ele>533.0</ele><time>2026-04-18T11:28:36.032Z</time></trkpt><trkpt lat="43.0116332" lon="13.3098425"><ele>533.0</ele><time>2026-04-18T11:28:37.053Z</time></trkpt><trkpt lat="43.011753" lon="13.3098507"><ele>533.0</ele><time>2026-04-18T11:28:38.058Z</time></trkpt><trkpt lat="43.0118623" lon="13.3098815"><ele>532.25</ele><time>2026-04-18T11:28:39.063Z</time></trkpt><trkpt lat="43.0120102" lon="13.3098621"><ele>531.5</ele><time>2026-04-18T11:28:40.1Z</time></trkpt><trkpt lat="43.0121631" lon="13.3098362"><ele>530.75</ele><time>2026-04-18T11:28:41.019Z</time></trkpt><trkpt lat="43.0122944" lon="13.3098214"><ele>530.0</ele><time>2026-04-18T11:28:42.078Z</time></trkpt><trkpt lat="43.0123999" lon="13.309828"><ele>530.2</ele><time>2026-04-18T11:28:43.037Z</time></trkpt><trkpt lat="43.0125124" lon="13.3098264"><ele>530.4</ele><time>2026-04-18T11:28:44.026Z</time></trkpt><trkpt lat="43.0126144" lon="13.3098278"><ele>530.6</ele><time>2026-04-18T11:28:45.059Z</time></trkpt><trkpt lat="43.012703" lon="13.3098815"><ele>530.8</ele><time>2026-04-18T11:28:46.02Z</time></trkpt><trkpt lat="43.0127985" lon="13.3099284"><ele>531.0</ele><time>2026-04-18T11:28:47.039Z</time></trkpt><trkpt lat="43.0128867" lon="13.31002"><ele>531.0</ele><time>2026-04-18T11:28:48.054Z</time></trkpt><trkpt lat="43.0129627" lon="13.3101263"><ele>531.0</ele><time>2026-04-18T11:28:49.01Z</time></trkpt><trkpt lat="43.0130305" lon="13.3102296"><ele>531.0</ele><time>2026-04-18T11:28:50.057Z</time></trkpt><trkpt lat="43.0131002" lon="13.3103653"><ele>531.0</ele><time>2026-04-18T11:28:51.013Z</time></trkpt><trkpt lat="43.0131777" lon="13.3104879"><ele>530.4</ele><time>2026-04-18T11:28:52.044Z</time></trkpt><trkpt lat="43.0132495" lon="13.3105918"><ele>529.8</ele><time>2026-04-18T11:28:53.053Z</time></trkpt><trkpt lat="43.0133255" lon="13.3106449"><ele>529.1999999999999</ele><time>2026-04-18T11:28:54.052Z</time></trkpt><trkpt lat="43.0133866" lon="13.3106869"><ele>528.6</ele><time>2026-04-18T11:28:55.053Z</time></trkpt><trkpt lat="43.0135041" lon="13.3107005"><ele>528.0</ele><time>2026-04-18T11:28:57.058Z</time></trkpt><trkpt lat="43.0135671" lon="13.310585"><ele>530.6</ele><time>2026-04-18T11:28:59.056Z</time></trkpt><trkpt lat="43.0135827" lon="13.3104713"><ele>533.1999999999999</ele><time>2026-04-18T11:29:00.054Z</time></trkpt><trkpt lat="43.0136036" lon="13.3103388"><ele>535.8</ele><time>2026-04-18T11:29:01.023Z</time></trkpt><trkpt lat="43.0136263" lon="13.3102386"><ele>538.4</ele><time>2026-04-18T11:29:02.046Z</time></trkpt><trkpt lat="43.0136341" lon="13.3101449"><ele>541.0</ele><time>2026-04-18T11:29:03.035Z</time></trkpt><trkpt lat="43.0135755" lon="13.3099876"><ele>541.0</ele><time>2026-04-18T11:29:05.055Z</time></trkpt><trkpt lat="43.0135068" lon="13.3098845"><ele>541.0</ele><time>2026-04-18T11:29:06.022Z</time></trkpt><trkpt lat="43.0134369" lon="13.3098022"><ele>541.0</ele><time>2026-04-18T11:29:07.028Z</time></trkpt><trkpt lat="43.0133794" lon="13.3097162"><ele>541.0</ele><time>2026-04-18T11:29:08.107Z</time></trkpt><trkpt lat="43.0132866" lon="13.3096729"><ele>541.0</ele><time>2026-04-18T11:29:09.044Z</time></trkpt><trkpt lat="43.0131734" lon="13.3096195"><ele>546.6666666666667</ele><time>2026-04-18T11:29:10.054Z</time></trkpt><trkpt lat="43.0129847" lon="13.3095605"><ele>552.3333333333334</ele><time>2026-04-18T11:29:11.013Z</time></trkpt><trkpt lat="43.012782" lon="13.309486"><ele>558.0</ele><time>2026-04-18T11:29:12.027Z</time></trkpt><trkpt lat="43.0125848" lon="13.3094214"><ele>555.5</ele><time>2026-04-18T11:29:13.029Z</time></trkpt><trkpt lat="43.0124196" lon="13.3093706"><ele>553.0</ele><time>2026-04-18T11:29:14.099Z</time></trkpt><trkpt lat="43.0122876" lon="13.3093472"><ele>550.5</ele><time>2026-04-18T11:29:15.051Z</time></trkpt><trkpt lat="43.0121722" lon="13.3093564"><ele>548.0</ele><time>2026-04-18T11:29:16.029Z</time></trkpt><trkpt lat="43.0120631" lon="13.309369"><ele>548.0</ele><time>2026-04-18T11:29:17.043Z</time></trkpt><trkpt lat="43.0119621" lon="13.3093561"><ele>548.0</ele><time>2026-04-18T11:29:18.051Z</time></trkpt><trkpt lat="43.0118831" lon="13.3093439"><ele>548.0</ele><time>2026-04-18T11:29:19.045Z</time></trkpt><trkpt lat="43.0117905" lon="13.309235"><ele>548.0</ele><time>2026-04-18T11:29:21.03Z</time></trkpt><trkpt lat="43.0117599" lon="13.3091447"><ele>548.0</ele><time>2026-04-18T11:29:22.016Z</time></trkpt><trkpt lat="43.0117291" lon="13.3090295"><ele>548.0</ele><time>2026-04-18T11:29:23.024Z</time></trkpt><trkpt lat="43.0116994" lon="13.3089254"><ele>548.0</ele><time>2026-04-18T11:29:24.021Z</time></trkpt><trkpt lat="43.0116214" lon="13.3088842"><ele>548.0</ele><time>2026-04-18T11:29:26.016Z</time></trkpt><trkpt lat="43.0115286" lon="13.3088763"><ele>548.0</ele><time>2026-04-18T11:29:27.981Z</time></trkpt><trkpt lat="43.0114246" lon="13.30892"><ele>548.0</ele><time>2026-04-18T11:29:30.024Z</time></trkpt><trkpt lat="43.011332" lon="13.3089504"><ele>547.4</ele><time>2026-04-18T11:29:32.078Z</time></trkpt><trkpt lat="43.011243" lon="13.308991"><ele>546.8</ele><time>2026-04-18T11:29:34.051Z</time></trkpt><trkpt lat="43.011145" lon="13.3090982"><ele>546.2</ele><time>2026-04-18T11:29:36.02Z</time></trkpt><trkpt lat="43.011084" lon="13.3091477"><ele>545.6</ele><time>2026-04-18T11:29:37.056Z</time></trkpt><trkpt lat="43.0109784" lon="13.3092265"><ele>545.0</ele><time>2026-04-18T11:29:39.057Z</time></trkpt><trkpt lat="43.0108706" lon="13.309281"><ele>543.8</ele><time>2026-04-18T11:29:41.047Z</time></trkpt><trkpt lat="43.0107674" lon="13.3093044"><ele>542.6</ele><time>2026-04-18T11:29:43.072Z</time></trkpt><trkpt lat="43.0106851" lon="13.3093383"><ele>541.4</ele><time>2026-04-18T11:29:45.06Z</time></trkpt><trkpt lat="43.0105919" lon="13.309353"><ele>540.2</ele><time>2026-04-18T11:29:47.08Z</time></trkpt><trkpt lat="43.0104943" lon="13.3093905"><ele>539.0</ele><time>2026-04-18T11:29:49.014Z</time></trkpt><trkpt lat="43.0104291" lon="13.3094055"><ele>539.0</ele><time>2026-04-18T11:29:50.993Z</time></trkpt><trkpt lat="43.010378" lon="13.3093472"><ele>539.0</ele><time>2026-04-18T11:29:53.017Z</time></trkpt><trkpt lat="43.0103888" lon="13.3091716"><ele>539.0</ele><time>2026-04-18T11:29:55.08Z</time></trkpt><trkpt lat="43.0104112" lon="13.3090682"><ele>539.0</ele><time>2026-04-18T11:29:56.077Z</time></trkpt><trkpt lat="43.0104333" lon="13.3089728"><ele>539.0</ele><time>2026-04-18T11:29:57.066Z</time></trkpt><trkpt lat="43.0104565" lon="13.308878"><ele>539.0</ele><time>2026-04-18T11:29:58.065Z</time></trkpt><trkpt lat="43.0104855" lon="13.3087843"><ele>539.0</ele><time>2026-04-18T11:29:59.054Z</time></trkpt><trkpt lat="43.010515" lon="13.3086881"><ele>539.0</ele><time>2026-04-18T11:30:00.033Z</time></trkpt><trkpt lat="43.0105491" lon="13.3085746"><ele>539.0</ele><time>2026-04-18T11:30:01.052Z</time></trkpt><trkpt lat="43.0105839" lon="13.3084415"><ele>539.0</ele><time>2026-04-18T11:30:02.069Z</time></trkpt><trkpt lat="43.0106202" lon="13.3082871"><ele>539.0</ele><time>2026-04-18T11:30:03.017Z</time></trkpt><trkpt lat="43.0106483" lon="13.3081419"><ele>540.75</ele><time>2026-04-18T11:30:04.016Z</time></trkpt><trkpt lat="43.0106659" lon="13.3079901"><ele>542.5</ele><time>2026-04-18T11:30:05.088Z</time></trkpt><trkpt lat="43.0106705" lon="13.30783"><ele>544.25</ele><time>2026-04-18T11:30:06.028Z</time></trkpt><trkpt lat="43.0106654" lon="13.3076711"><ele>546.0</ele><time>2026-04-18T11:30:07.05Z</time></trkpt><trkpt lat="43.0106538" lon="13.3075253"><ele>546.0</ele><time>2026-04-18T11:30:08.064Z</time></trkpt><trkpt lat="43.0106368" lon="13.3073971"><ele>546.0</ele><time>2026-04-18T11:30:09.038Z</time></trkpt><trkpt lat="43.0106216" lon="13.3072827"><ele>546.0</ele><time>2026-04-18T11:30:10.033Z</time></trkpt><trkpt lat="43.0106095" lon="13.3071645"><ele>546.0</ele><time>2026-04-18T11:30:11.027Z</time></trkpt><trkpt lat="43.010603" lon="13.3070245"><ele>546.0</ele><time>2026-04-18T11:30:12.053Z</time></trkpt><trkpt lat="43.0106069" lon="13.3068611"><ele>545.8</ele><time>2026-04-18T11:30:13.052Z</time></trkpt><trkpt lat="43.0106175" lon="13.3067103"><ele>545.6</ele><time>2026-04-18T11:30:14.071Z</time></trkpt><trkpt lat="43.0106326" lon="13.3065772"><ele>545.4</ele><time>2026-04-18T11:30:15.066Z</time></trkpt><trkpt lat="43.010655" lon="13.306457"><ele>545.2</ele><time>2026-04-18T11:30:16.033Z</time></trkpt><trkpt lat="43.0106963" lon="13.3063376"><ele>545.0</ele><time>2026-04-18T11:30:17.079Z</time></trkpt><trkpt lat="43.0107659" lon="13.3062176"><ele>543.5</ele><time>2026-04-18T11:30:18.054Z</time></trkpt><trkpt lat="43.0108595" lon="13.3060959"><ele>542.0</ele><time>2026-04-18T11:30:19.046Z</time></trkpt><trkpt lat="43.01096" lon="13.3059682"><ele>540.5</ele><time>2026-04-18T11:30:20.063Z</time></trkpt><trkpt lat="43.0110495" lon="13.3058331"><ele>539.0</ele><time>2026-04-18T11:30:21.057Z</time></trkpt><trkpt lat="43.0111179" lon="13.3056976"><ele>539.4</ele><time>2026-04-18T11:30:22.059Z</time></trkpt><trkpt lat="43.0111622" lon="13.3055654"><ele>539.8</ele><time>2026-04-18T11:30:23.058Z</time></trkpt><trkpt lat="43.0111858" lon="13.3054394"><ele>540.2</ele><time>2026-04-18T11:30:24.053Z</time></trkpt><trkpt lat="43.011198" lon="13.3053109"><ele>540.6</ele><time>2026-04-18T11:30:25.064Z</time></trkpt><trkpt lat="43.0111627" lon="13.3051642"><ele>541.0</ele><time>2026-04-18T11:30:26.053Z</time></trkpt><trkpt lat="43.011147" lon="13.3050187"><ele>541.0</ele><time>2026-04-18T11:30:27.046Z</time></trkpt><trkpt lat="43.011152" lon="13.3048675"><ele>541.0</ele><time>2026-04-18T11:30:28.055Z</time></trkpt><trkpt lat="43.0111858" lon="13.3047143"><ele>541.0</ele><time>2026-04-18T11:30:29.068Z</time></trkpt><trkpt lat="43.0112517" lon="13.3045841"><ele>541.0</ele><time>2026-04-18T11:30:30.024Z</time></trkpt><trkpt lat="43.0113234" lon="13.304443"><ele>540.75</ele><time>2026-04-18T11:30:31.055Z</time></trkpt><trkpt lat="43.0114381" lon="13.3043189"><ele>540.5</ele><time>2026-04-18T11:30:32.054Z</time></trkpt><trkpt lat="43.011546" lon="13.3041993"><ele>540.25</ele><time>2026-04-18T11:30:33.052Z</time></trkpt><trkpt lat="43.0116562" lon="13.3041004"><ele>540.0</ele><time>2026-04-18T11:30:34.055Z</time></trkpt><trkpt lat="43.0117659" lon="13.3040055"><ele>540.0</ele><time>2026-04-18T11:30:35.062Z</time></trkpt><trkpt lat="43.0118801" lon="13.3039188"><ele>540.0</ele><time>2026-04-18T11:30:36.054Z</time></trkpt><trkpt lat="43.0119853" lon="13.3038377"><ele>540.0</ele><time>2026-04-18T11:30:37.06Z</time></trkpt><trkpt lat="43.0120922" lon="13.3037539"><ele>540.0</ele><time>2026-04-18T11:30:38.059Z</time></trkpt><trkpt lat="43.0121967" lon="13.3036667"><ele>540.75</ele><time>2026-04-18T11:30:39.116Z</time></trkpt><trkpt lat="43.012313" lon="13.3035814"><ele>541.5</ele><time>2026-04-18T11:30:40.065Z</time></trkpt><trkpt lat="43.0124179" lon="13.3034834"><ele>542.25</ele><time>2026-04-18T11:30:41.039Z</time></trkpt><trkpt lat="43.0125161" lon="13.3033962"><ele>543.0</ele><time>2026-04-18T11:30:42.077Z</time></trkpt><trkpt lat="43.0126091" lon="13.3033229"><ele>543.0</ele><time>2026-04-18T11:30:43.059Z</time></trkpt><trkpt lat="43.0127046" lon="13.3032516"><ele>543.0</ele><time>2026-04-18T11:30:44.062Z</time></trkpt><trkpt lat="43.0128004" lon="13.3031801"><ele>543.0</ele><time>2026-04-18T11:30:45.048Z</time></trkpt><trkpt lat="43.0128981" lon="13.3031048"><ele>543.0</ele><time>2026-04-18T11:30:46.056Z</time></trkpt><trkpt lat="43.0129882" lon="13.3030287"><ele>543.0</ele><time>2026-04-18T11:30:47.065Z</time></trkpt><trkpt lat="43.0130721" lon="13.3029568"><ele>543.1999999999999</ele><time>2026-04-18T11:30:48.065Z</time></trkpt><trkpt lat="43.0131522" lon="13.3028897"><ele>543.4</ele><time>2026-04-18T11:30:49.061Z</time></trkpt><trkpt lat="43.0132365" lon="13.3028248"><ele>543.5999999999999</ele><time>2026-04-18T11:30:50.06Z</time></trkpt><trkpt lat="43.0133281" lon="13.3027571"><ele>543.8</ele><time>2026-04-18T11:30:51.117Z</time></trkpt><trkpt lat="43.0134227" lon="13.3026992"><ele>544.0</ele><time>2026-04-18T11:30:52.066Z</time></trkpt><trkpt lat="43.0135165" lon="13.3026494"><ele>544.0</ele><time>2026-04-18T11:30:53.067Z</time></trkpt><trkpt lat="43.0136063" lon="13.3025963"><ele>544.0</ele><time>2026-04-18T11:30:54.062Z</time></trkpt><trkpt lat="43.013692" lon="13.3025294"><ele>544.0</ele><time>2026-04-18T11:30:55.078Z</time></trkpt><trkpt lat="43.0137814" lon="13.3024458"><ele>544.0</ele><time>2026-04-18T11:30:56.072Z</time></trkpt><trkpt lat="43.0138751" lon="13.3023462"><ele>544.0</ele><time>2026-04-18T11:30:57.06Z</time></trkpt><trkpt lat="43.0139759" lon="13.3022329"><ele>544.0</ele><time>2026-04-18T11:30:58.066Z</time></trkpt><trkpt lat="43.014078" lon="13.3021254"><ele>544.0</ele><time>2026-04-18T11:30:59.05Z</time></trkpt><trkpt lat="43.0141788" lon="13.3020289"><ele>544.0</ele><time>2026-04-18T11:31:00.032Z</time></trkpt><trkpt lat="43.0142884" lon="13.3019561"><ele>544.0</ele><time>2026-04-18T11:31:01.042Z</time></trkpt><trkpt lat="43.014404" lon="13.3019053"><ele>542.25</ele><time>2026-04-18T11:31:02.069Z</time></trkpt><trkpt lat="43.0145127" lon="13.3018846"><ele>540.5</ele><time>2026-04-18T11:31:03.056Z</time></trkpt><trkpt lat="43.0146281" lon="13.3018707"><ele>538.75</ele><time>2026-04-18T11:31:04.052Z</time></trkpt><trkpt lat="43.0147494" lon="13.3018958"><ele>537.0</ele><time>2026-04-18T11:31:05.066Z</time></trkpt><trkpt lat="43.0148781" lon="13.3019415"><ele>535.0</ele><time>2026-04-18T11:31:06.062Z</time></trkpt><trkpt lat="43.0150142" lon="13.3019891"><ele>533.0</ele><time>2026-04-18T11:31:07.063Z</time></trkpt><trkpt lat="43.0151367" lon="13.302035"><ele>531.0</ele><time>2026-04-18T11:31:08.053Z</time></trkpt><trkpt lat="43.0152556" lon="13.3020716"><ele>529.0</ele><time>2026-04-18T11:31:09.078Z</time></trkpt><trkpt lat="43.0153646" lon="13.3021029"><ele>529.0</ele><time>2026-04-18T11:31:10.054Z</time></trkpt><trkpt lat="43.0154675" lon="13.3021294"><ele>529.0</ele><time>2026-04-18T11:31:11.025Z</time></trkpt><trkpt lat="43.0155675" lon="13.3021534"><ele>529.0</ele><time>2026-04-18T11:31:12.051Z</time></trkpt><trkpt lat="43.0156662" lon="13.3021755"><ele>529.0</ele><time>2026-04-18T11:31:13.011Z</time></trkpt><trkpt lat="43.0157652" lon="13.3022004"><ele>529.0</ele><time>2026-04-18T11:31:14.077Z</time></trkpt><trkpt lat="43.0158602" lon="13.3022251"><ele>528.0</ele><time>2026-04-18T11:31:15.06Z</time></trkpt><trkpt lat="43.0159564" lon="13.3022381"><ele>527.0</ele><time>2026-04-18T11:31:16.051Z</time></trkpt><trkpt lat="43.0160626" lon="13.3022325"><ele>526.0</ele><time>2026-04-18T11:31:17.049Z</time></trkpt><trkpt lat="43.0161742" lon="13.3021966"><ele>525.0</ele><time>2026-04-18T11:31:18.058Z</time></trkpt><trkpt lat="43.0162887" lon="13.3021344"><ele>524.0</ele><time>2026-04-18T11:31:19.029Z</time></trkpt><trkpt lat="43.0164244" lon="13.3020601"><ele>524.0</ele><time>2026-04-18T11:31:20.047Z</time></trkpt><trkpt lat="43.0165723" lon="13.3019928"><ele>524.0</ele><time>2026-04-18T11:31:21.054Z</time></trkpt><trkpt lat="43.0167175" lon="13.3019313"><ele>524.0</ele><time>2026-04-18T11:31:22.037Z</time></trkpt><trkpt lat="43.0168651" lon="13.3018682"><ele>523.0</ele><time>2026-04-18T11:31:23.014Z</time></trkpt><trkpt lat="43.0170253" lon="13.3018258"><ele>522.0</ele><time>2026-04-18T11:31:24.014Z</time></trkpt><trkpt lat="43.0171776" lon="13.3017935"><ele>521.0</ele><time>2026-04-18T11:31:25.011Z</time></trkpt><trkpt lat="43.0173248" lon="13.3017753"><ele>521.0</ele><time>2026-04-18T11:31:26.055Z</time></trkpt><trkpt lat="43.0174757" lon="13.3017535"><ele>521.0</ele><time>2026-04-18T11:31:27.063Z</time></trkpt><trkpt lat="43.0176272" lon="13.3017357"><ele>521.0</ele><time>2026-04-18T11:31:28.073Z</time></trkpt><trkpt lat="43.0177888" lon="13.301747"><ele>520.75</ele><time>2026-04-18T11:31:29.059Z</time></trkpt><trkpt lat="43.017939" lon="13.301758"><ele>520.5</ele><time>2026-04-18T11:31:30.051Z</time></trkpt><trkpt lat="43.0180855" lon="13.3017744"><ele>520.25</ele><time>2026-04-18T11:31:31.055Z</time></trkpt><trkpt lat="43.0182372" lon="13.3017797"><ele>520.0</ele><time>2026-04-18T11:31:32.039Z</time></trkpt><trkpt lat="43.0184035" lon="13.3017845"><ele>517.6666666666667</ele><time>2026-04-18T11:31:33.04Z</time></trkpt><trkpt lat="43.0185719" lon="13.3017778"><ele>515.3333333333334</ele><time>2026-04-18T11:31:34.058Z</time></trkpt><trkpt lat="43.0187417" lon="13.3017642"><ele>513.0</ele><time>2026-04-18T11:31:35.055Z</time></trkpt><trkpt lat="43.0189023" lon="13.3017486"><ele>513.0</ele><time>2026-04-18T11:31:36.066Z</time></trkpt><trkpt lat="43.0190583" lon="13.3017479"><ele>513.0</ele><time>2026-04-18T11:31:37.094Z</time></trkpt><trkpt lat="43.0192054" lon="13.3017476"><ele>513.0</ele><time>2026-04-18T11:31:38.048Z</time></trkpt><trkpt lat="43.0193519" lon="13.3017488"><ele>511.75</ele><time>2026-04-18T11:31:39.037Z</time></trkpt><trkpt lat="43.0194986" lon="13.3017494"><ele>510.5</ele><time>2026-04-18T11:31:40.044Z</time></trkpt><trkpt lat="43.0196429" lon="13.3017579"><ele>509.25</ele><time>2026-04-18T11:31:41.038Z</time></trkpt><trkpt lat="43.0197827" lon="13.3017718"><ele>508.0</ele><time>2026-04-18T11:31:42.04Z</time></trkpt><trkpt lat="43.0199242" lon="13.3017937"><ele>505.5</ele><time>2026-04-18T11:31:43.105Z</time></trkpt><trkpt lat="43.0200611" lon="13.3018298"><ele>503.0</ele><time>2026-04-18T11:31:44.058Z</time></trkpt><trkpt lat="43.0201944" lon="13.3018697"><ele>500.5</ele><time>2026-04-18T11:31:45.058Z</time></trkpt><trkpt lat="43.0203192" lon="13.3019124"><ele>498.0</ele><time>2026-04-18T11:31:46.059Z</time></trkpt><trkpt lat="43.0204405" lon="13.3019537"><ele>498.0</ele><time>2026-04-18T11:31:47.053Z</time></trkpt><trkpt lat="43.0205562" lon="13.3019964"><ele>497.99999999999994</ele><time>2026-04-18T11:31:48.057Z</time></trkpt><trkpt lat="43.020658" lon="13.3020234"><ele>497.99999999999994</ele><time>2026-04-18T11:31:49.11Z</time></trkpt><trkpt lat="43.0207552" lon="13.3020341"><ele>498.0</ele><time>2026-04-18T11:31:50.066Z</time></trkpt><trkpt lat="43.020855" lon="13.3020211"><ele>498.0</ele><time>2026-04-18T11:31:51.046Z</time></trkpt><trkpt lat="43.0209626" lon="13.3019829"><ele>497.0</ele><time>2026-04-18T11:31:52.02Z</time></trkpt><trkpt lat="43.0210812" lon="13.3019284"><ele>496.0</ele><time>2026-04-18T11:31:53.061Z</time></trkpt><trkpt lat="43.0212152" lon="13.3018624"><ele>495.0</ele><time>2026-04-18T11:31:54.053Z</time></trkpt><trkpt lat="43.021368" lon="13.3018205"><ele>494.0</ele><time>2026-04-18T11:31:55.05Z</time></trkpt><trkpt lat="43.0215126" lon="13.3017963"><ele>494.0</ele><time>2026-04-18T11:31:56.064Z</time></trkpt><trkpt lat="43.0216381" lon="13.301761"><ele>494.0</ele><time>2026-04-18T11:31:57.018Z</time></trkpt><trkpt lat="43.02175" lon="13.3017077"><ele>494.0</ele><time>2026-04-18T11:31:58.068Z</time></trkpt><trkpt lat="43.0218473" lon="13.3016254"><ele>494.0</ele><time>2026-04-18T11:31:59.044Z</time></trkpt><trkpt lat="43.021944" lon="13.3015113"><ele>495.25</ele><time>2026-04-18T11:32:00.055Z</time></trkpt><trkpt lat="43.0220475" lon="13.3013916"><ele>496.5</ele><time>2026-04-18T11:32:01.062Z</time></trkpt><trkpt lat="43.0221464" lon="13.3012539"><ele>497.75</ele><time>2026-04-18T11:32:02.022Z</time></trkpt><trkpt lat="43.0222357" lon="13.3011245"><ele>499.0</ele><time>2026-04-18T11:32:03.044Z</time></trkpt><trkpt lat="43.0223166" lon="13.3010056"><ele>499.0</ele><time>2026-04-18T11:32:04.052Z</time></trkpt><trkpt lat="43.0223965" lon="13.3009032"><ele>499.0</ele><time>2026-04-18T11:32:05.068Z</time></trkpt><trkpt lat="43.0224909" lon="13.3008265"><ele>499.0</ele><time>2026-04-18T11:32:06.064Z</time></trkpt><trkpt lat="43.0226103" lon="13.3007736"><ele>499.0</ele><time>2026-04-18T11:32:07.026Z</time></trkpt><trkpt lat="43.0227483" lon="13.3007442"><ele>498.2</ele><time>2026-04-18T11:32:08.057Z</time></trkpt><trkpt lat="43.0228796" lon="13.3007298"><ele>497.4</ele><time>2026-04-18T11:32:09.059Z</time></trkpt><trkpt lat="43.022996" lon="13.3007163"><ele>496.6</ele><time>2026-04-18T11:32:10.059Z</time></trkpt><trkpt lat="43.0230767" lon="13.3007377"><ele>495.8</ele><time>2026-04-18T11:32:11.058Z</time></trkpt><trkpt lat="43.0231544" lon="13.3007941"><ele>495.0</ele><time>2026-04-18T11:32:12.025Z</time></trkpt><trkpt lat="43.0232202" lon="13.3008682"><ele>495.0</ele><time>2026-04-18T11:32:13.045Z</time></trkpt><trkpt lat="43.0232869" lon="13.3009225"><ele>495.0</ele><time>2026-04-18T11:32:14.059Z</time></trkpt><trkpt lat="43.0233512" lon="13.3009691"><ele>495.0</ele><time>2026-04-18T11:32:15.05Z</time></trkpt><trkpt lat="43.0234404" lon="13.300982"><ele>495.0</ele><time>2026-04-18T11:32:16.048Z</time></trkpt><trkpt lat="43.0235367" lon="13.3009613"><ele>495.0</ele><time>2026-04-18T11:32:17.017Z</time></trkpt><trkpt lat="43.0236296" lon="13.3009357"><ele>495.0</ele><time>2026-04-18T11:32:18.084Z</time></trkpt><trkpt lat="43.0237179" lon="13.3008967"><ele>494.0</ele><time>2026-04-18T11:32:19.041Z</time></trkpt><trkpt lat="43.0238021" lon="13.3008893"><ele>493.0</ele><time>2026-04-18T11:32:20.048Z</time></trkpt><trkpt lat="43.0238946" lon="13.3009057"><ele>492.0</ele><time>2026-04-18T11:32:21.051Z</time></trkpt><trkpt lat="43.0239764" lon="13.3009494"><ele>491.0</ele><time>2026-04-18T11:32:22.024Z</time></trkpt><trkpt lat="43.0240668" lon="13.3010055"><ele>490.0</ele><time>2026-04-18T11:32:23.066Z</time></trkpt><trkpt lat="43.0241445" lon="13.3011212"><ele>489.33333333333337</ele><time>2026-04-18T11:32:24.027Z</time></trkpt><trkpt lat="43.0242271" lon="13.3012209"><ele>488.6666666666667</ele><time>2026-04-18T11:32:25.038Z</time></trkpt><trkpt lat="43.0243072" lon="13.3012867"><ele>488.0</ele><time>2026-04-18T11:32:26.034Z</time></trkpt><trkpt lat="43.0243848" lon="13.3012975"><ele>487.33333333333337</ele><time>2026-04-18T11:32:27.019Z</time></trkpt><trkpt lat="43.0244656" lon="13.3012695"><ele>486.6666666666667</ele><time>2026-04-18T11:32:28.049Z</time></trkpt><trkpt lat="43.0245435" lon="13.3012246"><ele>486.0</ele><time>2026-04-18T11:32:29.055Z</time></trkpt><trkpt lat="43.0246181" lon="13.3011264"><ele>486.0</ele><time>2026-04-18T11:32:30.095Z</time></trkpt><trkpt lat="43.0246937" lon="13.3010249"><ele>486.0</ele><time>2026-04-18T11:32:31.053Z</time></trkpt><trkpt lat="43.0247732" lon="13.3009246"><ele>486.0</ele><time>2026-04-18T11:32:32.023Z</time></trkpt><trkpt lat="43.0248795" lon="13.3008576"><ele>486.0</ele><time>2026-04-18T11:32:33.052Z</time></trkpt><trkpt lat="43.0249998" lon="13.300801"><ele>485.5</ele><time>2026-04-18T11:32:34.046Z</time></trkpt><trkpt lat="43.025135" lon="13.3007616"><ele>485.0</ele><time>2026-04-18T11:32:35.048Z</time></trkpt><trkpt lat="43.0252772" lon="13.3007382"><ele>484.5</ele><time>2026-04-18T11:32:36.041Z</time></trkpt><trkpt lat="43.0254212" lon="13.3007153"><ele>484.0</ele><time>2026-04-18T11:32:37.028Z</time></trkpt><trkpt lat="43.0255534" lon="13.3006834"><ele>484.0</ele><time>2026-04-18T11:32:38.071Z</time></trkpt><trkpt lat="43.0256917" lon="13.3006522"><ele>484.0</ele><time>2026-04-18T11:32:39.053Z</time></trkpt><trkpt lat="43.0258397" lon="13.3006245"><ele>484.0</ele><time>2026-04-18T11:32:40.059Z</time></trkpt><trkpt lat="43.0259823" lon="13.3006123"><ele>484.0</ele><time>2026-04-18T11:32:41.053Z</time></trkpt><trkpt lat="43.0261156" lon="13.3006003"><ele>483.25</ele><time>2026-04-18T11:32:42.023Z</time></trkpt><trkpt lat="43.0262559" lon="13.300607"><ele>482.5</ele><time>2026-04-18T11:32:43.053Z</time></trkpt><trkpt lat="43.0263972" lon="13.3006314"><ele>481.75</ele><time>2026-04-18T11:32:44.052Z</time></trkpt><trkpt lat="43.0265366" lon="13.3006624"><ele>481.0</ele><time>2026-04-18T11:32:45.053Z</time></trkpt><trkpt lat="43.0266628" lon="13.3006954"><ele>480.6</ele><time>2026-04-18T11:32:46.05Z</time></trkpt><trkpt lat="43.0267783" lon="13.3007251"><ele>480.20000000000005</ele><time>2026-04-18T11:32:47.015Z</time></trkpt><trkpt lat="43.0268899" lon="13.3007511"><ele>479.79999999999995</ele><time>2026-04-18T11:32:48.055Z</time></trkpt><trkpt lat="43.0269986" lon="13.3007775"><ele>479.4</ele><time>2026-04-18T11:32:49.051Z</time></trkpt><trkpt lat="43.0271017" lon="13.3008042"><ele>479.0</ele><time>2026-04-18T11:32:50.045Z</time></trkpt><trkpt lat="43.0271924" lon="13.3008291"><ele>479.0</ele><time>2026-04-18T11:32:51.037Z</time></trkpt><trkpt lat="43.0272754" lon="13.3008691"><ele>479.0</ele><time>2026-04-18T11:32:52.027Z</time></trkpt><trkpt lat="43.027351" lon="13.3009353"><ele>479.0</ele><time>2026-04-18T11:32:53.048Z</time></trkpt><trkpt lat="43.0274272" lon="13.3010422"><ele>479.0</ele><time>2026-04-18T11:32:54.062Z</time></trkpt><trkpt lat="43.0274973" lon="13.3011816"><ele>479.0</ele><time>2026-04-18T11:32:55.057Z</time></trkpt><trkpt lat="43.0275794" lon="13.3013372"><ele>478.75</ele><time>2026-04-18T11:32:56.048Z</time></trkpt><trkpt lat="43.0276644" lon="13.3014936"><ele>478.5</ele><time>2026-04-18T11:32:57.022Z</time></trkpt><trkpt lat="43.0277461" lon="13.3016512"><ele>478.25</ele><time>2026-04-18T11:32:58.044Z</time></trkpt><trkpt lat="43.0278281" lon="13.3018095"><ele>478.0</ele><time>2026-04-18T11:32:59.067Z</time></trkpt><trkpt lat="43.0279179" lon="13.3019692"><ele>478.0</ele><time>2026-04-18T11:33:00.032Z</time></trkpt><trkpt lat="43.0280041" lon="13.3021363"><ele>478.0</ele><time>2026-04-18T11:33:01.049Z</time></trkpt><trkpt lat="43.0280936" lon="13.302293"><ele>478.0</ele><time>2026-04-18T11:33:02.03Z</time></trkpt><trkpt lat="43.0281856" lon="13.3024542"><ele>478.0</ele><time>2026-04-18T11:33:03.044Z</time></trkpt><trkpt lat="43.0282748" lon="13.3026194"><ele>476.5</ele><time>2026-04-18T11:33:04.049Z</time></trkpt><trkpt lat="43.0283502" lon="13.3027685"><ele>475.0</ele><time>2026-04-18T11:33:05.078Z</time></trkpt><trkpt lat="43.0284228" lon="13.3029039"><ele>473.5</ele><time>2026-04-18T11:33:06.005Z</time></trkpt><trkpt lat="43.0284894" lon="13.3030359"><ele>472.0</ele><time>2026-04-18T11:33:07.008Z</time></trkpt><trkpt lat="43.0285508" lon="13.3031559"><ele>471.6666666666667</ele><time>2026-04-18T11:33:08.018Z</time></trkpt><trkpt lat="43.0286073" lon="13.3032629"><ele>471.33333333333337</ele><time>2026-04-18T11:33:09.015Z</time></trkpt><trkpt lat="43.0286559" lon="13.3033575"><ele>471.0</ele><time>2026-04-18T11:33:10.025Z</time></trkpt><trkpt lat="43.028698" lon="13.3034409"><ele>470.66666666666663</ele><time>2026-04-18T11:33:11.017Z</time></trkpt><trkpt lat="43.0287972" lon="13.3035364"><ele>470.3333333333333</ele><time>2026-04-18T11:33:13.041Z</time></trkpt><trkpt lat="43.028862" lon="13.3035404"><ele>470.0</ele><time>2026-04-18T11:33:14.031Z</time></trkpt><trkpt lat="43.0289332" lon="13.3035056"><ele>470.0</ele><time>2026-04-18T11:33:15.056Z</time></trkpt><trkpt lat="43.0290171" lon="13.303424"><ele>470.0</ele><time>2026-04-18T11:33:16.067Z</time></trkpt><trkpt lat="43.0291178" lon="13.3033327"><ele>470.0</ele><time>2026-04-18T11:33:17.043Z</time></trkpt><trkpt lat="43.0292093" lon="13.3032559"><ele>470.0</ele><time>2026-04-18T11:33:18.056Z</time></trkpt><trkpt lat="43.0292891" lon="13.3031919"><ele>470.0</ele><time>2026-04-18T11:33:19.047Z</time></trkpt><trkpt lat="43.0293556" lon="13.3031371"><ele>469.8</ele><time>2026-04-18T11:33:20.049Z</time></trkpt><trkpt lat="43.0294149" lon="13.3030939"><ele>469.6</ele><time>2026-04-18T11:33:21.055Z</time></trkpt><trkpt lat="43.0294787" lon="13.3029843"><ele>469.4</ele><time>2026-04-18T11:33:23.052Z</time></trkpt><trkpt lat="43.0294898" lon="13.3028382"><ele>469.2</ele><time>2026-04-18T11:33:25.045Z</time></trkpt><trkpt lat="43.0295181" lon="13.3026498"><ele>469.0</ele><time>2026-04-18T11:33:27.047Z</time></trkpt><trkpt lat="43.0295619" lon="13.3025227"><ele>469.0</ele><time>2026-04-18T11:33:28.048Z</time></trkpt><trkpt lat="43.0296411" lon="13.3023305"><ele>469.0</ele><time>2026-04-18T11:33:29.04Z</time></trkpt><trkpt lat="43.0296899" lon="13.302132"><ele>469.0</ele><time>2026-04-18T11:33:30.053Z</time></trkpt><trkpt lat="43.0297257" lon="13.3019628"><ele>469.0</ele><time>2026-04-18T11:33:31.069Z</time></trkpt><trkpt lat="43.0297577" lon="13.3018286"><ele>468.6</ele><time>2026-04-18T11:33:32.048Z</time></trkpt><trkpt lat="43.0297879" lon="13.3017055"><ele>468.2</ele><time>2026-04-18T11:33:33.061Z</time></trkpt><trkpt lat="43.0298267" lon="13.3015831"><ele>467.80000000000007</ele><time>2026-04-18T11:33:34.062Z</time></trkpt><trkpt lat="43.0298994" lon="13.3014415"><ele>467.40000000000003</ele><time>2026-04-18T11:33:35.037Z</time></trkpt><trkpt lat="43.0299772" lon="13.3013163"><ele>467.0</ele><time>2026-04-18T11:33:36.061Z</time></trkpt><trkpt lat="43.0300351" lon="13.3012084"><ele>465.0</ele><time>2026-04-18T11:33:37.053Z</time></trkpt><trkpt lat="43.0300905" lon="13.3011314"><ele>463.00000000000006</ele><time>2026-04-18T11:33:38.045Z</time></trkpt><trkpt lat="43.0301929" lon="13.3010577"><ele>461.00000000000006</ele><time>2026-04-18T11:33:40.077Z</time></trkpt><trkpt lat="43.0302741" lon="13.3009751"><ele>459.0</ele><time>2026-04-18T11:33:42.038Z</time></trkpt><trkpt lat="43.0302966" lon="13.3008361"><ele>457.0</ele><time>2026-04-18T11:33:44.05Z</time></trkpt><trkpt lat="43.0302278" lon="13.3006805"><ele>457.0</ele><time>2026-04-18T11:33:46.061Z</time></trkpt><trkpt lat="43.0301759" lon="13.3006223"><ele>457.00000000000006</ele><time>2026-04-18T11:33:47.043Z</time></trkpt><trkpt lat="43.030117" lon="13.3005623"><ele>457.00000000000006</ele><time>2026-04-18T11:33:48.061Z</time></trkpt><trkpt lat="43.0300426" lon="13.3004501"><ele>457.0</ele><time>2026-04-18T11:33:50.034Z</time></trkpt><trkpt lat="43.030001" lon="13.3003053"><ele>457.0</ele><time>2026-04-18T11:33:52.063Z</time></trkpt><trkpt lat="43.0300088" lon="13.3001614"><ele>458.0</ele><time>2026-04-18T11:33:54.053Z</time></trkpt><trkpt lat="43.0300451" lon="13.3000752"><ele>459.00000000000006</ele><time>2026-04-18T11:33:55.064Z</time></trkpt><trkpt lat="43.0300842" lon="13.2999582"><ele>460.00000000000006</ele><time>2026-04-18T11:33:56.059Z</time></trkpt><trkpt lat="43.0301076" lon="13.2998139"><ele>461.0</ele><time>2026-04-18T11:33:57.056Z</time></trkpt><trkpt lat="43.0301158" lon="13.299655"><ele>462.0</ele><time>2026-04-18T11:33:58.05Z</time></trkpt><trkpt lat="43.0301488" lon="13.2995137"><ele>463.6</ele><time>2026-04-18T11:33:59.103Z</time></trkpt><trkpt lat="43.0301739" lon="13.2993653"><ele>465.20000000000005</ele><time>2026-04-18T11:34:00.028Z</time></trkpt><trkpt lat="43.0301718" lon="13.2992397"><ele>466.8</ele><time>2026-04-18T11:34:01.049Z</time></trkpt><trkpt lat="43.0301905" lon="13.2991254"><ele>468.4</ele><time>2026-04-18T11:34:02.041Z</time></trkpt><trkpt lat="43.0302325" lon="13.2989926"><ele>470.0</ele><time>2026-04-18T11:34:03.041Z</time></trkpt><trkpt lat="43.0302714" lon="13.2988513"><ele>472.0</ele><time>2026-04-18T11:34:04.037Z</time></trkpt><trkpt lat="43.0303059" lon="13.2987039"><ele>474.0</ele><time>2026-04-18T11:34:05.028Z</time></trkpt><trkpt lat="43.030346" lon="13.2985593"><ele>476.0</ele><time>2026-04-18T11:34:06.035Z</time></trkpt><trkpt lat="43.0304043" lon="13.2984309"><ele>478.0</ele><time>2026-04-18T11:34:07.048Z</time></trkpt><trkpt lat="43.0304754" lon="13.298308"><ele>478.00000000000006</ele><time>2026-04-18T11:34:08.059Z</time></trkpt><trkpt lat="43.0305423" lon="13.2982049"><ele>478.0</ele><time>2026-04-18T11:34:09.035Z</time></trkpt><trkpt lat="43.030591" lon="13.2981112"><ele>478.0</ele><time>2026-04-18T11:34:10.034Z</time></trkpt><trkpt lat="43.0306432" lon="13.2980014"><ele>478.0</ele><time>2026-04-18T11:34:11.04Z</time></trkpt><trkpt lat="43.0306849" lon="13.2979056"><ele>478.00000000000006</ele><time>2026-04-18T11:34:12.038Z</time></trkpt><trkpt lat="43.0307258" lon="13.2978374"><ele>478.0</ele><time>2026-04-18T11:34:13.06Z</time></trkpt><trkpt lat="43.030791" lon="13.2977674"><ele>480.33333333333337</ele><time>2026-04-18T11:34:15.039Z</time></trkpt><trkpt lat="43.0308527" lon="13.2977101"><ele>482.6666666666667</ele><time>2026-04-18T11:34:17.059Z</time></trkpt><trkpt lat="43.0308859" lon="13.2976318"><ele>485.0</ele><time>2026-04-18T11:34:18.039Z</time></trkpt><trkpt lat="43.0309277" lon="13.2975422"><ele>487.33333333333337</ele><time>2026-04-18T11:34:19.041Z</time></trkpt><trkpt lat="43.0309728" lon="13.2974445"><ele>489.6666666666667</ele><time>2026-04-18T11:34:20.056Z</time></trkpt><trkpt lat="43.0310186" lon="13.297339"><ele>492.0</ele><time>2026-04-18T11:34:21.077Z</time></trkpt><trkpt lat="43.0310622" lon="13.2972366"><ele>493.0</ele><time>2026-04-18T11:34:22.053Z</time></trkpt><trkpt lat="43.031097" lon="13.297145"><ele>494.00000000000006</ele><time>2026-04-18T11:34:23.049Z</time></trkpt><trkpt lat="43.0311795" lon="13.297022"><ele>495.00000000000006</ele><time>2026-04-18T11:34:25.064Z</time></trkpt><trkpt lat="43.0312552" lon="13.296952"><ele>496.0</ele><time>2026-04-18T11:34:27.038Z</time></trkpt><trkpt lat="43.0313285" lon="13.2968737"><ele>497.0</ele><time>2026-04-18T11:34:29.01Z</time></trkpt><trkpt lat="43.0313856" lon="13.2967865"><ele>497.0</ele><time>2026-04-18T11:34:30.063Z</time></trkpt><trkpt lat="43.0314487" lon="13.2966852"><ele>497.0</ele><time>2026-04-18T11:34:31.027Z</time></trkpt><trkpt lat="43.0315194" lon="13.2965607"><ele>497.0</ele><time>2026-04-18T11:34:32.071Z</time></trkpt><trkpt lat="43.0316045" lon="13.2964232"><ele>497.0</ele><time>2026-04-18T11:34:33.027Z</time></trkpt><trkpt lat="43.0316738" lon="13.296294"><ele>501.5</ele><time>2026-04-18T11:34:34.063Z</time></trkpt><trkpt lat="43.0317566" lon="13.2961647"><ele>506.0</ele><time>2026-04-18T11:34:35.054Z</time></trkpt><trkpt lat="43.0318273" lon="13.2960441"><ele>510.5</ele><time>2026-04-18T11:34:36.049Z</time></trkpt><trkpt lat="43.0319006" lon="13.2959366"><ele>515.0</ele><time>2026-04-18T11:34:37.047Z</time></trkpt><trkpt lat="43.0319736" lon="13.2958328"><ele>515.0</ele><time>2026-04-18T11:34:38.102Z</time></trkpt><trkpt lat="43.0320554" lon="13.2957292"><ele>515.0</ele><time>2026-04-18T11:34:39.078Z</time></trkpt><trkpt lat="43.0321524" lon="13.295664"><ele>515.0</ele><time>2026-04-18T11:34:40.057Z</time></trkpt><trkpt lat="43.0322512" lon="13.2956018"><ele>515.0</ele><time>2026-04-18T11:34:41.019Z</time></trkpt><trkpt lat="43.0323445" lon="13.2955488"><ele>515.0</ele><time>2026-04-18T11:34:42.047Z</time></trkpt><trkpt lat="43.032436" lon="13.2954946"><ele>517.2</ele><time>2026-04-18T11:34:43.067Z</time></trkpt><trkpt lat="43.0325236" lon="13.2954531"><ele>519.4</ele><time>2026-04-18T11:34:44.03Z</time></trkpt><trkpt lat="43.0326039" lon="13.2954205"><ele>521.6</ele><time>2026-04-18T11:34:45.056Z</time></trkpt><trkpt lat="43.0326866" lon="13.2953824"><ele>523.8</ele><time>2026-04-18T11:34:46.038Z</time></trkpt><trkpt lat="43.0327578" lon="13.2953389"><ele>526.0</ele><time>2026-04-18T11:34:47.059Z</time></trkpt><trkpt lat="43.0328559" lon="13.2952718"><ele>526.0</ele><time>2026-04-18T11:34:49.044Z</time></trkpt><trkpt lat="43.0327885" lon="13.295305"><ele>526.0</ele><time>2026-04-18T11:39:03.009Z</time></trkpt><trkpt lat="43.0327181" lon="13.2953679"><ele>526.0</ele><time>2026-04-18T11:39:05.039Z</time></trkpt><trkpt lat="43.0326599" lon="13.2954049"><ele>526.0</ele><time>2026-04-18T11:39:06.034Z</time></trkpt><trkpt lat="43.0325526" lon="13.2954534"><ele>526.0</ele><time>2026-04-18T11:39:08.062Z</time></trkpt><trkpt lat="43.0324688" lon="13.2954772"><ele>526.0</ele><time>2026-04-18T11:39:10.086Z</time></trkpt><trkpt lat="43.032378" lon="13.2955025"><ele>525.2</ele><time>2026-04-18T11:39:23.031Z</time></trkpt><trkpt lat="43.0322697" lon="13.2955446"><ele>524.4000000000001</ele><time>2026-04-18T11:40:10.993Z</time></trkpt><trkpt lat="43.0321625" lon="13.2956166"><ele>523.6</ele><time>2026-04-18T11:40:13.079Z</time></trkpt><trkpt lat="43.0321121" lon="13.2956737"><ele>522.8000000000001</ele><time>2026-04-18T11:40:14.011Z</time></trkpt><trkpt lat="43.0320563" lon="13.2957458"><ele>522.0</ele><time>2026-04-18T11:40:15.023Z</time></trkpt><trkpt lat="43.0319923" lon="13.295835"><ele>520.6</ele><time>2026-04-18T11:40:16.083Z</time></trkpt><trkpt lat="43.0319313" lon="13.2959282"><ele>519.2</ele><time>2026-04-18T11:40:17.025Z</time></trkpt><trkpt lat="43.0318691" lon="13.2960215"><ele>517.8</ele><time>2026-04-18T11:40:18.055Z</time></trkpt><trkpt lat="43.0318084" lon="13.2961172"><ele>516.4</ele><time>2026-04-18T11:40:19.066Z</time></trkpt><trkpt lat="43.031747" lon="13.2962119"><ele>515.0</ele><time>2026-04-18T11:40:20.021Z</time></trkpt><trkpt lat="43.0316842" lon="13.2963051"><ele>513.6666666666666</ele><time>2026-04-18T11:40:21.053Z</time></trkpt><trkpt lat="43.0316265" lon="13.2963948"><ele>512.3333333333333</ele><time>2026-04-18T11:40:22.051Z</time></trkpt><trkpt lat="43.031577" lon="13.2964771"><ele>511.0</ele><time>2026-04-18T11:40:23.087Z</time></trkpt><trkpt lat="43.0315343" lon="13.2965538"><ele>509.66666666666663</ele><time>2026-04-18T11:40:24.057Z</time></trkpt><trkpt lat="43.031496" lon="13.296624"><ele>508.3333333333333</ele><time>2026-04-18T11:40:25.039Z</time></trkpt><trkpt lat="43.0314328" lon="13.2967509"><ele>507.0</ele><time>2026-04-18T11:40:27.02Z</time></trkpt><trkpt lat="43.0313861" lon="13.2968348"><ele>505.0</ele><time>2026-04-18T11:40:29.056Z</time></trkpt><trkpt lat="43.0313254" lon="13.2969094"><ele>503.00000000000006</ele><time>2026-04-18T11:40:32.032Z</time></trkpt><trkpt lat="43.0312527" lon="13.2969881"><ele>501.00000000000006</ele><time>2026-04-18T11:40:35.019Z</time></trkpt><trkpt lat="43.0311894" lon="13.2970764"><ele>499.0</ele><time>2026-04-18T11:40:37.055Z</time></trkpt><trkpt lat="43.0311306" lon="13.2972009"><ele>497.0</ele><time>2026-04-18T11:40:39.039Z</time></trkpt><trkpt lat="43.0310659" lon="13.2973436"><ele>496.16666666666663</ele><time>2026-04-18T11:40:41.03Z</time></trkpt><trkpt lat="43.0309994" lon="13.2974773"><ele>495.3333333333333</ele><time>2026-04-18T11:40:43.058Z</time></trkpt><trkpt lat="43.0309498" lon="13.2975837"><ele>494.5</ele><time>2026-04-18T11:40:45.018Z</time></trkpt><trkpt lat="43.0309119" lon="13.2976611"><ele>493.66666666666663</ele><time>2026-04-18T11:40:47.033Z</time></trkpt><trkpt lat="43.0308757" lon="13.2977414"><ele>492.8333333333333</ele><time>2026-04-18T11:40:50.006Z</time></trkpt><trkpt lat="43.0308124" lon="13.2978142"><ele>492.0</ele><time>2026-04-18T11:40:52.049Z</time></trkpt><trkpt lat="43.0307378" lon="13.297966"><ele>490.5</ele><time>2026-04-18T11:40:54.046Z</time></trkpt><trkpt lat="43.0307061" lon="13.2980426"><ele>489.0</ele><time>2026-04-18T11:40:55.03Z</time></trkpt><trkpt lat="43.0306658" lon="13.298178"><ele>487.5</ele><time>2026-04-18T11:40:57.048Z</time></trkpt><trkpt lat="43.0306147" lon="13.2982751"><ele>486.0</ele><time>2026-04-18T11:40:59.074Z</time></trkpt><trkpt lat="43.0305495" lon="13.2983468"><ele>484.5</ele><time>2026-04-18T11:41:10.002Z</time></trkpt><trkpt lat="43.0305198" lon="13.2984403"><ele>483.0</ele><time>2026-04-18T11:41:13.019Z</time></trkpt><trkpt lat="43.0304812" lon="13.2985322"><ele>482.1666666666667</ele><time>2026-04-18T11:41:15.008Z</time></trkpt><trkpt lat="43.0304452" lon="13.2986082"><ele>481.33333333333337</ele><time>2026-04-18T11:41:17.05Z</time></trkpt><trkpt lat="43.030411" lon="13.298697"><ele>480.5</ele><time>2026-04-18T11:41:19.043Z</time></trkpt><trkpt lat="43.0303773" lon="13.2987812"><ele>479.6666666666667</ele><time>2026-04-18T11:41:21.026Z</time></trkpt><trkpt lat="43.0303298" lon="13.2988768"><ele>478.83333333333337</ele><time>2026-04-18T11:41:24.023Z</time></trkpt><trkpt lat="43.0302801" lon="13.2989843"><ele>478.0</ele><time>2026-04-18T11:41:27.031Z</time></trkpt><trkpt lat="43.0302474" lon="13.2990764"><ele>476.6666666666667</ele><time>2026-04-18T11:41:28.993Z</time></trkpt><trkpt lat="43.0302246" lon="13.2991591"><ele>475.33333333333337</ele><time>2026-04-18T11:41:31.031Z</time></trkpt><trkpt lat="43.0302095" lon="13.2992857"><ele>474.0</ele><time>2026-04-18T11:41:34.042Z</time></trkpt><trkpt lat="43.0301987" lon="13.2994157"><ele>472.66666666666663</ele><time>2026-04-18T11:41:37.036Z</time></trkpt><trkpt lat="43.0301777" lon="13.2995266"><ele>471.3333333333333</ele><time>2026-04-18T11:41:39.016Z</time></trkpt><trkpt lat="43.0301539" lon="13.2996135"><ele>470.0</ele><time>2026-04-18T11:41:41.005Z</time></trkpt><trkpt lat="43.0301338" lon="13.2997444"><ele>468.66666666666663</ele><time>2026-04-18T11:41:44.032Z</time></trkpt><trkpt lat="43.0301207" lon="13.2998699"><ele>467.3333333333333</ele><time>2026-04-18T11:41:46.078Z</time></trkpt><trkpt lat="43.0300957" lon="13.2999982"><ele>466.0</ele><time>2026-04-18T11:41:48.04Z</time></trkpt><trkpt lat="43.0300657" lon="13.3000897"><ele>464.66666666666663</ele><time>2026-04-18T11:41:49.992Z</time></trkpt><trkpt lat="43.0300432" lon="13.3001775"><ele>463.3333333333333</ele><time>2026-04-18T11:41:52.076Z</time></trkpt><trkpt lat="43.0300503" lon="13.3002932"><ele>462.0</ele><time>2026-04-18T11:41:56.046Z</time></trkpt><trkpt lat="43.0300653" lon="13.3003886"><ele>462.0</ele><time>2026-04-18T11:41:58.03Z</time></trkpt><trkpt lat="43.0301304" lon="13.3004912"><ele>462.0</ele><time>2026-04-18T11:42:00.989Z</time></trkpt><trkpt lat="43.0302041" lon="13.3005736"><ele>462.0</ele><time>2026-04-18T11:42:03.046Z</time></trkpt><trkpt lat="43.0302615" lon="13.3006691"><ele>462.0</ele><time>2026-04-18T11:42:05.048Z</time></trkpt><trkpt lat="43.0302917" lon="13.3007633"><ele>462.0</ele><time>2026-04-18T11:42:07.037Z</time></trkpt><trkpt lat="43.0303006" lon="13.3008578"><ele>462.0</ele><time>2026-04-18T11:42:09.026Z</time></trkpt><trkpt lat="43.030272" lon="13.3009789"><ele>462.5</ele><time>2026-04-18T11:42:12.036Z</time></trkpt><trkpt lat="43.0302107" lon="13.3010438"><ele>463.0</ele><time>2026-04-18T11:42:14.039Z</time></trkpt><trkpt lat="43.0301421" lon="13.3010795"><ele>463.5</ele><time>2026-04-18T11:42:16.022Z</time></trkpt><trkpt lat="43.0300685" lon="13.3011343"><ele>464.0</ele><time>2026-04-18T11:42:19.041Z</time></trkpt><trkpt lat="43.0300289" lon="13.3012013"><ele>464.5</ele><time>2026-04-18T11:43:36.017Z</time></trkpt><trkpt lat="43.0299742" lon="13.301337"><ele>465.0</ele><time>2026-04-18T11:43:37.995Z</time></trkpt><trkpt lat="43.0299389" lon="13.3014176"><ele>465.3333333333333</ele><time>2026-04-18T11:43:39.028Z</time></trkpt><trkpt lat="43.0298988" lon="13.3014968"><ele>465.66666666666663</ele><time>2026-04-18T11:43:40.023Z</time></trkpt><trkpt lat="43.029859" lon="13.3015724"><ele>466.0</ele><time>2026-04-18T11:43:41.027Z</time></trkpt><trkpt lat="43.0298249" lon="13.3016514"><ele>466.3333333333333</ele><time>2026-04-18T11:43:42.059Z</time></trkpt><trkpt lat="43.0298022" lon="13.3017447"><ele>466.66666666666663</ele><time>2026-04-18T11:43:43.065Z</time></trkpt><trkpt lat="43.0297778" lon="13.301854"><ele>467.0</ele><time>2026-04-18T11:43:44.06Z</time></trkpt><trkpt lat="43.029749" lon="13.3019762"><ele>467.0</ele><time>2026-04-18T11:43:45.038Z</time></trkpt><trkpt lat="43.0297151" lon="13.3021151"><ele>467.00000000000006</ele><time>2026-04-18T11:43:46.069Z</time></trkpt><trkpt lat="43.0296778" lon="13.3022477"><ele>467.00000000000006</ele><time>2026-04-18T11:43:47.056Z</time></trkpt><trkpt lat="43.0296401" lon="13.3023774"><ele>467.0</ele><time>2026-04-18T11:43:48.056Z</time></trkpt><trkpt lat="43.0296013" lon="13.3024924"><ele>467.0</ele><time>2026-04-18T11:43:49.047Z</time></trkpt><trkpt lat="43.0295637" lon="13.3026017"><ele>467.3333333333333</ele><time>2026-04-18T11:43:50.097Z</time></trkpt><trkpt lat="43.0295321" lon="13.3026904"><ele>467.66666666666663</ele><time>2026-04-18T11:43:51.072Z</time></trkpt><trkpt lat="43.0295178" lon="13.3027755"><ele>468.0</ele><time>2026-04-18T11:43:52.053Z</time></trkpt><trkpt lat="43.0295024" lon="13.3029151"><ele>468.33333333333337</ele><time>2026-04-18T11:43:54.08Z</time></trkpt><trkpt lat="43.0294875" lon="13.3030232"><ele>468.6666666666667</ele><time>2026-04-18T11:43:56.036Z</time></trkpt><trkpt lat="43.0294077" lon="13.3031124"><ele>469.0</ele><time>2026-04-18T11:43:58.053Z</time></trkpt><trkpt lat="43.0293418" lon="13.3031634"><ele>469.1666666666667</ele><time>2026-04-18T11:43:59.058Z</time></trkpt><trkpt lat="43.0292708" lon="13.3032181"><ele>469.33333333333337</ele><time>2026-04-18T11:44:00.038Z</time></trkpt><trkpt lat="43.0291993" lon="13.3032771"><ele>469.5</ele><time>2026-04-18T11:44:01.06Z</time></trkpt><trkpt lat="43.0291281" lon="13.3033407"><ele>469.66666666666663</ele><time>2026-04-18T11:44:02.057Z</time></trkpt><trkpt lat="43.0290522" lon="13.3034034"><ele>469.8333333333333</ele><time>2026-04-18T11:44:03.044Z</time></trkpt><trkpt lat="43.028981" lon="13.3034586"><ele>470.0</ele><time>2026-04-18T11:44:04.043Z</time></trkpt><trkpt lat="43.0289127" lon="13.303491"><ele>470.0</ele><time>2026-04-18T11:44:05.045Z</time></trkpt><trkpt lat="43.0288474" lon="13.3034921"><ele>470.0</ele><time>2026-04-18T11:44:06.019Z</time></trkpt><trkpt lat="43.0287846" lon="13.3034591"><ele>470.0</ele><time>2026-04-18T11:44:07.038Z</time></trkpt><trkpt lat="43.0287212" lon="13.3033829"><ele>470.0</ele><time>2026-04-18T11:44:08.083Z</time></trkpt><trkpt lat="43.0286514" lon="13.3032624"><ele>470.0</ele><time>2026-04-18T11:44:09.053Z</time></trkpt><trkpt lat="43.0285707" lon="13.3031137"><ele>470.5</ele><time>2026-04-18T11:44:10.017Z</time></trkpt><trkpt lat="43.0284811" lon="13.302955"><ele>471.0</ele><time>2026-04-18T11:44:11.024Z</time></trkpt><trkpt lat="43.0283891" lon="13.3027897"><ele>471.5</ele><time>2026-04-18T11:44:12.057Z</time></trkpt><trkpt lat="43.0283046" lon="13.3026329"><ele>472.0</ele><time>2026-04-18T11:44:13.032Z</time></trkpt><trkpt lat="43.0282207" lon="13.3024736"><ele>472.75</ele><time>2026-04-18T11:44:14.058Z</time></trkpt><trkpt lat="43.0281352" lon="13.3023123"><ele>473.5</ele><time>2026-04-18T11:44:15.059Z</time></trkpt><trkpt lat="43.0280563" lon="13.3021651"><ele>474.25</ele><time>2026-04-18T11:44:16.032Z</time></trkpt><trkpt lat="43.0279831" lon="13.3020279"><ele>475.0</ele><time>2026-04-18T11:44:17.058Z</time></trkpt><trkpt lat="43.0279127" lon="13.3018923"><ele>475.0</ele><time>2026-04-18T11:44:18.066Z</time></trkpt><trkpt lat="43.0278441" lon="13.3017566"><ele>475.0</ele><time>2026-04-18T11:44:19.039Z</time></trkpt><trkpt lat="43.0277736" lon="13.301623"><ele>475.0</ele><time>2026-04-18T11:44:20.057Z</time></trkpt><trkpt lat="43.0277011" lon="13.3014876"><ele>475.0</ele><time>2026-04-18T11:44:21.03Z</time></trkpt><trkpt lat="43.0276301" lon="13.3013537"><ele>475.0</ele><time>2026-04-18T11:44:22.058Z</time></trkpt><trkpt lat="43.027564" lon="13.3012304"><ele>475.0</ele><time>2026-04-18T11:44:23.013Z</time></trkpt><trkpt lat="43.0275013" lon="13.3011112"><ele>475.0</ele><time>2026-04-18T11:44:24.012Z</time></trkpt><trkpt lat="43.0274371" lon="13.3009992"><ele>475.0</ele><time>2026-04-18T11:44:25.055Z</time></trkpt><trkpt lat="43.0273676" lon="13.3009081"><ele>475.0</ele><time>2026-04-18T11:44:26.015Z</time></trkpt><trkpt lat="43.027288" lon="13.3008406"><ele>475.8</ele><time>2026-04-18T11:44:27.038Z</time></trkpt><trkpt lat="43.0271963" lon="13.3007983"><ele>476.6</ele><time>2026-04-18T11:44:28.045Z</time></trkpt><trkpt lat="43.0270994" lon="13.3007546"><ele>477.4</ele><time>2026-04-18T11:44:29.058Z</time></trkpt><trkpt lat="43.0269871" lon="13.3007353"><ele>478.2</ele><time>2026-04-18T11:44:30.056Z</time></trkpt><trkpt lat="43.0268575" lon="13.3007208"><ele>479.0</ele><time>2026-04-18T11:44:31.044Z</time></trkpt><trkpt lat="43.0267172" lon="13.3006853"><ele>479.5</ele><time>2026-04-18T11:44:32.05Z</time></trkpt><trkpt lat="43.026578" lon="13.3006406"><ele>480.0</ele><time>2026-04-18T11:44:33.048Z</time></trkpt><trkpt lat="43.0264417" lon="13.3006084"><ele>480.5</ele><time>2026-04-18T11:44:34.055Z</time></trkpt><trkpt lat="43.0263192" lon="13.3005893"><ele>481.0</ele><time>2026-04-18T11:44:35.056Z</time></trkpt><trkpt lat="43.0261874" lon="13.3005804"><ele>481.0</ele><time>2026-04-18T11:44:36.074Z</time></trkpt><trkpt lat="43.0260551" lon="13.3005876"><ele>481.0</ele><time>2026-04-18T11:44:37.058Z</time></trkpt><trkpt lat="43.0259195" lon="13.3006042"><ele>481.0</ele><time>2026-04-18T11:44:38.06Z</time></trkpt><trkpt lat="43.0257816" lon="13.3006259"><ele>481.0</ele><time>2026-04-18T11:44:39.064Z</time></trkpt><trkpt lat="43.0256441" lon="13.3006479"><ele>481.75</ele><time>2026-04-18T11:44:40.057Z</time></trkpt><trkpt lat="43.0255192" lon="13.3006688"><ele>482.5</ele><time>2026-04-18T11:44:41.057Z</time></trkpt><trkpt lat="43.0253962" lon="13.3006914"><ele>483.25</ele><time>2026-04-18T11:44:42.05Z</time></trkpt><trkpt lat="43.0252771" lon="13.3007091"><ele>484.0</ele><time>2026-04-18T11:44:43.084Z</time></trkpt><trkpt lat="43.0251581" lon="13.3007385"><ele>484.0</ele><time>2026-04-18T11:44:44.057Z</time></trkpt><trkpt lat="43.0250375" lon="13.3007706"><ele>484.0</ele><time>2026-04-18T11:44:45.078Z</time></trkpt><trkpt lat="43.0249302" lon="13.3008177"><ele>484.0</ele><time>2026-04-18T11:44:46.085Z</time></trkpt><trkpt lat="43.0248326" lon="13.3008766"><ele>484.0</ele><time>2026-04-18T11:44:47.076Z</time></trkpt><trkpt lat="43.0247384" lon="13.3009268"><ele>484.0</ele><time>2026-04-18T11:44:48.059Z</time></trkpt><trkpt lat="43.0246711" lon="13.3010123"><ele>484.33333333333337</ele><time>2026-04-18T11:44:49.055Z</time></trkpt><trkpt lat="43.024601" lon="13.3011044"><ele>484.6666666666667</ele><time>2026-04-18T11:44:50.06Z</time></trkpt><trkpt lat="43.0245297" lon="13.3011875"><ele>485.0</ele><time>2026-04-18T11:44:51.064Z</time></trkpt><trkpt lat="43.0244627" lon="13.3012591"><ele>485.33333333333337</ele><time>2026-04-18T11:44:52.067Z</time></trkpt><trkpt lat="43.0243833" lon="13.3012722"><ele>485.6666666666667</ele><time>2026-04-18T11:44:53.059Z</time></trkpt><trkpt lat="43.0243111" lon="13.3012484"><ele>486.0</ele><time>2026-04-18T11:44:54.067Z</time></trkpt><trkpt lat="43.0242343" lon="13.3011828"><ele>486.0</ele><time>2026-04-18T11:44:55.071Z</time></trkpt><trkpt lat="43.0241616" lon="13.3010953"><ele>486.0</ele><time>2026-04-18T11:44:56.071Z</time></trkpt><trkpt lat="43.0240882" lon="13.3010099"><ele>486.0</ele><time>2026-04-18T11:44:57.064Z</time></trkpt><trkpt lat="43.0240096" lon="13.3009328"><ele>486.0</ele><time>2026-04-18T11:44:58.057Z</time></trkpt><trkpt lat="43.0239201" lon="13.3008829"><ele>486.0</ele><time>2026-04-18T11:44:59.037Z</time></trkpt><trkpt lat="43.0238196" lon="13.3008637"><ele>486.8</ele><time>2026-04-18T11:45:00.067Z</time></trkpt><trkpt lat="43.0237076" lon="13.300875"><ele>487.6</ele><time>2026-04-18T11:45:01.064Z</time></trkpt><trkpt lat="43.0235997" lon="13.3009042"><ele>488.4</ele><time>2026-04-18T11:45:02.052Z</time></trkpt><trkpt lat="43.0234999" lon="13.30093"><ele>489.2</ele><time>2026-04-18T11:45:03.059Z</time></trkpt><trkpt lat="43.0234091" lon="13.3009476"><ele>490.0</ele><time>2026-04-18T11:45:04.041Z</time></trkpt><trkpt lat="43.0233197" lon="13.3009474"><ele>491.0</ele><time>2026-04-18T11:45:05.049Z</time></trkpt><trkpt lat="43.023235" lon="13.3008946"><ele>492.0</ele><time>2026-04-18T11:45:06.039Z</time></trkpt><trkpt lat="43.0231515" lon="13.3008391"><ele>493.0</ele><time>2026-04-18T11:45:07.058Z</time></trkpt><trkpt lat="43.0230712" lon="13.3007747"><ele>494.0</ele><time>2026-04-18T11:45:08.023Z</time></trkpt><trkpt lat="43.0229711" lon="13.300725"><ele>495.0</ele><time>2026-04-18T11:45:09.06Z</time></trkpt><trkpt lat="43.0228499" lon="13.3007365"><ele>495.0</ele><time>2026-04-18T11:45:10.03Z</time></trkpt><trkpt lat="43.0227351" lon="13.3007489"><ele>495.0</ele><time>2026-04-18T11:45:11.041Z</time></trkpt><trkpt lat="43.0226201" lon="13.3007654"><ele>495.0</ele><time>2026-04-18T11:45:12.05Z</time></trkpt><trkpt lat="43.0225259" lon="13.3007961"><ele>495.0</ele><time>2026-04-18T11:45:13.057Z</time></trkpt><trkpt lat="43.0224421" lon="13.3008488"><ele>495.0</ele><time>2026-04-18T11:45:14.08Z</time></trkpt><trkpt lat="43.0223659" lon="13.3009335"><ele>494.25</ele><time>2026-04-18T11:45:15.075Z</time></trkpt><trkpt lat="43.0222779" lon="13.3010544"><ele>493.5</ele><time>2026-04-18T11:45:16.082Z</time></trkpt><trkpt lat="43.0221824" lon="13.3012015"><ele>492.75</ele><time>2026-04-18T11:45:17.046Z</time></trkpt><trkpt lat="43.0220934" lon="13.3013287"><ele>492.0</ele><time>2026-04-18T11:45:18.048Z</time></trkpt><trkpt lat="43.0220042" lon="13.3014326"><ele>492.0</ele><time>2026-04-18T11:45:19.047Z</time></trkpt><trkpt lat="43.0219173" lon="13.3015392"><ele>492.00000000000006</ele><time>2026-04-18T11:45:20.048Z</time></trkpt><trkpt lat="43.0218373" lon="13.3016283"><ele>492.00000000000006</ele><time>2026-04-18T11:45:21.051Z</time></trkpt><trkpt lat="43.0217518" lon="13.3016945"><ele>492.0</ele><time>2026-04-18T11:45:22.065Z</time></trkpt><trkpt lat="43.0216587" lon="13.3017364"><ele>492.0</ele><time>2026-04-18T11:45:23.066Z</time></trkpt><trkpt lat="43.0215579" lon="13.301755"><ele>492.5</ele><time>2026-04-18T11:45:24.073Z</time></trkpt><trkpt lat="43.0214532" lon="13.3017714"><ele>493.0</ele><time>2026-04-18T11:45:25.05Z</time></trkpt><trkpt lat="43.0213421" lon="13.3018003"><ele>493.5</ele><time>2026-04-18T11:45:26.028Z</time></trkpt><trkpt lat="43.021226" lon="13.3018468"><ele>494.0</ele><time>2026-04-18T11:45:27.071Z</time></trkpt><trkpt lat="43.0211141" lon="13.301906"><ele>494.0</ele><time>2026-04-18T11:45:28.061Z</time></trkpt><trkpt lat="43.0209995" lon="13.3019653"><ele>494.0</ele><time>2026-04-18T11:45:29.064Z</time></trkpt><trkpt lat="43.0208765" lon="13.3019993"><ele>494.0</ele><time>2026-04-18T11:45:30.05Z</time></trkpt><trkpt lat="43.0207473" lon="13.3020072"><ele>494.0</ele><time>2026-04-18T11:45:31.059Z</time></trkpt><trkpt lat="43.0206061" lon="13.3019846"><ele>495.3333333333333</ele><time>2026-04-18T11:45:32.081Z</time></trkpt><trkpt lat="43.020451" lon="13.3019327"><ele>496.66666666666663</ele><time>2026-04-18T11:45:33.055Z</time></trkpt><trkpt lat="43.0202751" lon="13.3018688"><ele>498.0</ele><time>2026-04-18T11:45:34.063Z</time></trkpt><trkpt lat="43.0200952" lon="13.3018164"><ele>501.33333333333337</ele><time>2026-04-18T11:45:35.069Z</time></trkpt><trkpt lat="43.0199188" lon="13.3017734"><ele>504.6666666666667</ele><time>2026-04-18T11:45:36.121Z</time></trkpt><trkpt lat="43.0197469" lon="13.3017563"><ele>508.0</ele><time>2026-04-18T11:45:37.031Z</time></trkpt><trkpt lat="43.0195839" lon="13.3017468"><ele>508.0</ele><time>2026-04-18T11:45:38.021Z</time></trkpt><trkpt lat="43.0194244" lon="13.3017411"><ele>508.0</ele><time>2026-04-18T11:45:39.069Z</time></trkpt><trkpt lat="43.0192757" lon="13.3017575"><ele>508.0</ele><time>2026-04-18T11:45:40.059Z</time></trkpt><trkpt lat="43.0191299" lon="13.3017623"><ele>509.25</ele><time>2026-04-18T11:45:41.051Z</time></trkpt><trkpt lat="43.018992" lon="13.3017486"><ele>510.5</ele><time>2026-04-18T11:45:42.03Z</time></trkpt><trkpt lat="43.018848" lon="13.3017517"><ele>511.75</ele><time>2026-04-18T11:45:43.053Z</time></trkpt><trkpt lat="43.0187057" lon="13.301745"><ele>513.0</ele><time>2026-04-18T11:45:44.068Z</time></trkpt><trkpt lat="43.0185655" lon="13.3017477"><ele>513.0</ele><time>2026-04-18T11:45:45.048Z</time></trkpt><trkpt lat="43.0184105" lon="13.3017574"><ele>513.0</ele><time>2026-04-18T11:45:46.073Z</time></trkpt><trkpt lat="43.0182602" lon="13.3017693"><ele>513.0</ele><time>2026-04-18T11:45:47.088Z</time></trkpt><trkpt lat="43.0181432" lon="13.3017733"><ele>513.0</ele><time>2026-04-18T11:45:48.07Z</time></trkpt><trkpt lat="43.0180202" lon="13.3017713"><ele>514.75</ele><time>2026-04-18T11:45:49.073Z</time></trkpt><trkpt lat="43.0178983" lon="13.3017687"><ele>516.5</ele><time>2026-04-18T11:45:50.07Z</time></trkpt><trkpt lat="43.0177774" lon="13.3017642"><ele>518.25</ele><time>2026-04-18T11:45:51.064Z</time></trkpt><trkpt lat="43.0176538" lon="13.301754"><ele>520.0</ele><time>2026-04-18T11:45:52.085Z</time></trkpt><trkpt lat="43.0175355" lon="13.3017486"><ele>520.2</ele><time>2026-04-18T11:45:53.048Z</time></trkpt><trkpt lat="43.0174303" lon="13.3017544"><ele>520.4</ele><time>2026-04-18T11:45:54.05Z</time></trkpt><trkpt lat="43.0173281" lon="13.301782"><ele>520.6</ele><time>2026-04-18T11:45:55.054Z</time></trkpt><trkpt lat="43.0172213" lon="13.3018035"><ele>520.8</ele><time>2026-04-18T11:45:56.019Z</time></trkpt><trkpt lat="43.0171321" lon="13.301814"><ele>521.0</ele><time>2026-04-18T11:45:57.058Z</time></trkpt><trkpt lat="43.017057" lon="13.3018269"><ele>521.0</ele><time>2026-04-18T11:45:58.054Z</time></trkpt><trkpt lat="43.0169667" lon="13.301837"><ele>521.0</ele><time>2026-04-18T11:45:59.101Z</time></trkpt><trkpt lat="43.0168681" lon="13.3018732"><ele>521.0</ele><time>2026-04-18T11:46:00.062Z</time></trkpt><trkpt lat="43.0167739" lon="13.3019141"><ele>521.0</ele><time>2026-04-18T11:46:01.068Z</time></trkpt><trkpt lat="43.0166682" lon="13.3019586"><ele>521.0</ele><time>2026-04-18T11:46:02.072Z</time></trkpt><trkpt lat="43.0165599" lon="13.3020044"><ele>521.6</ele><time>2026-04-18T11:46:03.062Z</time></trkpt><trkpt lat="43.0164538" lon="13.3020509"><ele>522.2</ele><time>2026-04-18T11:46:04.058Z</time></trkpt><trkpt lat="43.0163472" lon="13.302104"><ele>522.8</ele><time>2026-04-18T11:46:05.116Z</time></trkpt><trkpt lat="43.0162527" lon="13.3021636"><ele>523.4</ele><time>2026-04-18T11:46:06.048Z</time></trkpt><trkpt lat="43.0161573" lon="13.3022118"><ele>524.0</ele><time>2026-04-18T11:46:07.037Z</time></trkpt><trkpt lat="43.0160619" lon="13.3022311"><ele>524.0</ele><time>2026-04-18T11:46:08.053Z</time></trkpt><trkpt lat="43.0159658" lon="13.3022269"><ele>524.0</ele><time>2026-04-18T11:46:09.056Z</time></trkpt><trkpt lat="43.0158544" lon="13.3022149"><ele>524.0</ele><time>2026-04-18T11:46:10.055Z</time></trkpt><trkpt lat="43.0157433" lon="13.3021936"><ele>524.0</ele><time>2026-04-18T11:46:11.146Z</time></trkpt><trkpt lat="43.0155187" lon="13.3021319"><ele>525.0</ele><time>2026-04-18T11:46:13.051Z</time></trkpt><trkpt lat="43.0154051" lon="13.3021045"><ele>526.0</ele><time>2026-04-18T11:46:14.05Z</time></trkpt><trkpt lat="43.015295" lon="13.3020795"><ele>527.0</ele><time>2026-04-18T11:46:15.064Z</time></trkpt><trkpt lat="43.0151924" lon="13.3020454"><ele>528.0</ele><time>2026-04-18T11:46:16.074Z</time></trkpt><trkpt lat="43.0150953" lon="13.3020114"><ele>529.0</ele><time>2026-04-18T11:46:17.024Z</time></trkpt><trkpt lat="43.0150051" lon="13.3019823"><ele>530.6</ele><time>2026-04-18T11:46:18.073Z</time></trkpt><trkpt lat="43.0149135" lon="13.3019513"><ele>532.2</ele><time>2026-04-18T11:46:19.075Z</time></trkpt><trkpt lat="43.0148164" lon="13.3019253"><ele>533.8000000000001</ele><time>2026-04-18T11:46:20.049Z</time></trkpt><trkpt lat="43.0147201" lon="13.301903"><ele>535.4</ele><time>2026-04-18T11:46:21.057Z</time></trkpt><trkpt lat="43.014616" lon="13.3018874"><ele>537.0</ele><time>2026-04-18T11:46:22.052Z</time></trkpt><trkpt lat="43.0145173" lon="13.3018787"><ele>537.0</ele><time>2026-04-18T11:46:23.049Z</time></trkpt><trkpt lat="43.0144287" lon="13.3018976"><ele>537.0</ele><time>2026-04-18T11:46:24.057Z</time></trkpt><trkpt lat="43.014342" lon="13.3019215"><ele>537.0</ele><time>2026-04-18T11:46:25.056Z</time></trkpt><trkpt lat="43.0142417" lon="13.301991"><ele>537.0</ele><time>2026-04-18T11:46:26.054Z</time></trkpt><trkpt lat="43.0141484" lon="13.3020787"><ele>537.0</ele><time>2026-04-18T11:46:27.024Z</time></trkpt><trkpt lat="43.0140472" lon="13.3021854"><ele>538.4</ele><time>2026-04-18T11:46:28.082Z</time></trkpt><trkpt lat="43.0139594" lon="13.3022851"><ele>539.8000000000001</ele><time>2026-04-18T11:46:29.057Z</time></trkpt><trkpt lat="43.0138762" lon="13.3023782"><ele>541.2</ele><time>2026-04-18T11:46:30.055Z</time></trkpt><trkpt lat="43.0137956" lon="13.3024614"><ele>542.6</ele><time>2026-04-18T11:46:31.059Z</time></trkpt><trkpt lat="43.0137124" lon="13.3025316"><ele>544.0</ele><time>2026-04-18T11:46:32.025Z</time></trkpt><trkpt lat="43.0136264" lon="13.3025872"><ele>544.0</ele><time>2026-04-18T11:46:33.058Z</time></trkpt><trkpt lat="43.0135362" lon="13.3026208"><ele>544.0</ele><time>2026-04-18T11:46:34.074Z</time></trkpt><trkpt lat="43.0134459" lon="13.3026705"><ele>544.0</ele><time>2026-04-18T11:46:35.044Z</time></trkpt><trkpt lat="43.0133588" lon="13.3027254"><ele>544.0</ele><time>2026-04-18T11:46:36.053Z</time></trkpt><trkpt lat="43.0132744" lon="13.3027907"><ele>544.0</ele><time>2026-04-18T11:46:37.028Z</time></trkpt><trkpt lat="43.0131877" lon="13.3028604"><ele>543.8</ele><time>2026-04-18T11:46:38.051Z</time></trkpt><trkpt lat="43.0131144" lon="13.3029313"><ele>543.5999999999999</ele><time>2026-04-18T11:46:39.116Z</time></trkpt><trkpt lat="43.0130327" lon="13.3030075"><ele>543.4</ele><time>2026-04-18T11:46:40.035Z</time></trkpt><trkpt lat="43.0129482" lon="13.3030792"><ele>543.1999999999999</ele><time>2026-04-18T11:46:41.06Z</time></trkpt><trkpt lat="43.0128659" lon="13.3031424"><ele>543.0</ele><time>2026-04-18T11:46:42.022Z</time></trkpt><trkpt lat="43.0127864" lon="13.303201"><ele>543.0</ele><time>2026-04-18T11:46:43.037Z</time></trkpt><trkpt lat="43.0127092" lon="13.3032647"><ele>543.0</ele><time>2026-04-18T11:46:44.064Z</time></trkpt><trkpt lat="43.0126274" lon="13.3033289"><ele>543.0</ele><time>2026-04-18T11:46:45.071Z</time></trkpt><trkpt lat="43.0125417" lon="13.3033967"><ele>543.0</ele><time>2026-04-18T11:46:46.079Z</time></trkpt><trkpt lat="43.012455" lon="13.30347"><ele>543.0</ele><time>2026-04-18T11:46:47.03Z</time></trkpt><trkpt lat="43.0123645" lon="13.3035444"><ele>544.6</ele><time>2026-04-18T11:46:48.06Z</time></trkpt><trkpt lat="43.0122672" lon="13.3036175"><ele>546.1999999999999</ele><time>2026-04-18T11:46:49.065Z</time></trkpt><trkpt lat="43.0121729" lon="13.3036895"><ele>547.8</ele><time>2026-04-18T11:46:50.064Z</time></trkpt><trkpt lat="43.0120798" lon="13.3037618"><ele>549.4</ele><time>2026-04-18T11:46:51.071Z</time></trkpt><trkpt lat="43.0119852" lon="13.3038316"><ele>551.0</ele><time>2026-04-18T11:46:52.022Z</time></trkpt><trkpt lat="43.0118926" lon="13.3038999"><ele>550.4</ele><time>2026-04-18T11:46:53.069Z</time></trkpt><trkpt lat="43.0118023" lon="13.3039733"><ele>549.8</ele><time>2026-04-18T11:46:54.055Z</time></trkpt><trkpt lat="43.0117146" lon="13.30405"><ele>549.1999999999999</ele><time>2026-04-18T11:46:55.057Z</time></trkpt><trkpt lat="43.011632" lon="13.3041261"><ele>548.6</ele><time>2026-04-18T11:46:56.069Z</time></trkpt><trkpt lat="43.0115555" lon="13.3041998"><ele>548.0</ele><time>2026-04-18T11:46:57.026Z</time></trkpt><trkpt lat="43.0114842" lon="13.3042723"><ele>548.0</ele><time>2026-04-18T11:46:58.061Z</time></trkpt><trkpt lat="43.0114125" lon="13.3043517"><ele>548.0</ele><time>2026-04-18T11:46:59.062Z</time></trkpt><trkpt lat="43.0113418" lon="13.3044238"><ele>548.0</ele><time>2026-04-18T11:47:00.03Z</time></trkpt><trkpt lat="43.0112777" lon="13.304509"><ele>548.0</ele><time>2026-04-18T11:47:01.061Z</time></trkpt><trkpt lat="43.0112179" lon="13.3046054"><ele>548.0</ele><time>2026-04-18T11:47:02.035Z</time></trkpt><trkpt lat="43.0111683" lon="13.3047237"><ele>546.6</ele><time>2026-04-18T11:47:03.038Z</time></trkpt><trkpt lat="43.0111397" lon="13.3048484"><ele>545.1999999999999</ele><time>2026-04-18T11:47:04.066Z</time></trkpt><trkpt lat="43.0111352" lon="13.3049822"><ele>543.8</ele><time>2026-04-18T11:47:05.053Z</time></trkpt><trkpt lat="43.0111447" lon="13.3051206"><ele>542.4</ele><time>2026-04-18T11:47:06.059Z</time></trkpt><trkpt lat="43.0111557" lon="13.3052518"><ele>541.0</ele><time>2026-04-18T11:47:07.03Z</time></trkpt><trkpt lat="43.0111771" lon="13.3053645"><ele>541.0</ele><time>2026-04-18T11:47:08.018Z</time></trkpt><trkpt lat="43.0111843" lon="13.3054708"><ele>541.0</ele><time>2026-04-18T11:47:09.021Z</time></trkpt><trkpt lat="43.0111689" lon="13.3056008"><ele>541.0</ele><time>2026-04-18T11:47:10.043Z</time></trkpt><trkpt lat="43.0111181" lon="13.3057143"><ele>541.0</ele><time>2026-04-18T11:47:11.07Z</time></trkpt><trkpt lat="43.0110614" lon="13.3058224"><ele>541.0</ele><time>2026-04-18T11:47:12.041Z</time></trkpt><trkpt lat="43.0109844" lon="13.3059308"><ele>540.6</ele><time>2026-04-18T11:47:13.051Z</time></trkpt><trkpt lat="43.0109025" lon="13.3060338"><ele>540.2</ele><time>2026-04-18T11:47:14.049Z</time></trkpt><trkpt lat="43.0108197" lon="13.3061393"><ele>539.8</ele><time>2026-04-18T11:47:15.053Z</time></trkpt><trkpt lat="43.0107484" lon="13.3062443"><ele>539.4</ele><time>2026-04-18T11:47:16.063Z</time></trkpt><trkpt lat="43.0106868" lon="13.3063661"><ele>539.0</ele><time>2026-04-18T11:47:17.039Z</time></trkpt><trkpt lat="43.0106452" lon="13.3064936"><ele>540.0</ele><time>2026-04-18T11:47:18.062Z</time></trkpt><trkpt lat="43.0106238" lon="13.3066344"><ele>541.0</ele><time>2026-04-18T11:47:19.048Z</time></trkpt><trkpt lat="43.010614" lon="13.3067682"><ele>542.0</ele><time>2026-04-18T11:47:20.054Z</time></trkpt><trkpt lat="43.0106017" lon="13.3068945"><ele>543.0</ele><time>2026-04-18T11:47:21.054Z</time></trkpt><trkpt lat="43.0105981" lon="13.3070201"><ele>544.0</ele><time>2026-04-18T11:47:22.043Z</time></trkpt><trkpt lat="43.0106011" lon="13.3071449"><ele>544.3333333333334</ele><time>2026-04-18T11:47:23.117Z</time></trkpt><trkpt lat="43.0106122" lon="13.3072718"><ele>544.6666666666667</ele><time>2026-04-18T11:47:24.055Z</time></trkpt><trkpt lat="43.0106329" lon="13.3073861"><ele>545.0</ele><time>2026-04-18T11:47:25.054Z</time></trkpt><trkpt lat="43.0106422" lon="13.3074755"><ele>545.3333333333334</ele><time>2026-04-18T11:47:26.058Z</time></trkpt><trkpt lat="43.0106417" lon="13.3075981"><ele>545.6666666666666</ele><time>2026-04-18T11:47:28.063Z</time></trkpt><trkpt lat="43.0106512" lon="13.3077422"><ele>546.0</ele><time>2026-04-18T11:48:37.013Z</time></trkpt><trkpt lat="43.0106552" lon="13.307852"><ele>546.0</ele><time>2026-04-18T11:48:38.06Z</time></trkpt><trkpt lat="43.0106442" lon="13.3080048"><ele>546.0</ele><time>2026-04-18T11:48:39.05Z</time></trkpt><trkpt lat="43.010631" lon="13.308182"><ele>546.0</ele><time>2026-04-18T11:48:40.047Z</time></trkpt><trkpt lat="43.0105816" lon="13.3084138"><ele>546.0</ele><time>2026-04-18T11:48:41.062Z</time></trkpt><trkpt lat="43.0105158" lon="13.3086369"><ele>544.25</ele><time>2026-04-18T11:48:42.087Z</time></trkpt><trkpt lat="43.0104549" lon="13.3088391"><ele>542.5</ele><time>2026-04-18T11:48:43.06Z</time></trkpt><trkpt lat="43.0104124" lon="13.3090126"><ele>540.75</ele><time>2026-04-18T11:48:44.053Z</time></trkpt><trkpt lat="43.0103762" lon="13.3091649"><ele>539.0</ele><time>2026-04-18T11:48:45.057Z</time></trkpt><trkpt lat="43.0103598" lon="13.30928"><ele>539.0</ele><time>2026-04-18T11:48:46.078Z</time></trkpt><trkpt lat="43.0103814" lon="13.3094288"><ele>539.0</ele><time>2026-04-18T11:48:48.041Z</time></trkpt><trkpt lat="43.0104381" lon="13.3094682"><ele>539.0</ele><time>2026-04-18T11:48:49.977Z</time></trkpt><trkpt lat="43.0105133" lon="13.3093928"><ele>539.0</ele><time>2026-04-18T11:48:53.027Z</time></trkpt><trkpt lat="43.0106534" lon="13.3093379"><ele>539.0</ele><time>2026-04-18T11:48:55.048Z</time></trkpt><trkpt lat="43.0107592" lon="13.3093081"><ele>540.2</ele><time>2026-04-18T11:48:56.074Z</time></trkpt><trkpt lat="43.0108475" lon="13.3092748"><ele>541.4</ele><time>2026-04-18T11:48:57.057Z</time></trkpt><trkpt lat="43.0109259" lon="13.3092328"><ele>542.6</ele><time>2026-04-18T11:48:58.05Z</time></trkpt><trkpt lat="43.0110111" lon="13.3091846"><ele>543.8</ele><time>2026-04-18T11:48:59.078Z</time></trkpt><trkpt lat="43.0111076" lon="13.3091198"><ele>545.0</ele><time>2026-04-18T11:49:00.059Z</time></trkpt><trkpt lat="43.0111968" lon="13.3090428"><ele>545.0</ele><time>2026-04-18T11:49:01.057Z</time></trkpt><trkpt lat="43.0112953" lon="13.3089764"><ele>545.0</ele><time>2026-04-18T11:49:02.052Z</time></trkpt><trkpt lat="43.011389" lon="13.3089169"><ele>545.0</ele><time>2026-04-18T11:49:03.067Z</time></trkpt><trkpt lat="43.0114796" lon="13.3088682"><ele>545.0</ele><time>2026-04-18T11:49:04.071Z</time></trkpt><trkpt lat="43.0115499" lon="13.3088507"><ele>545.0</ele><time>2026-04-18T11:49:05.057Z</time></trkpt><trkpt lat="43.0116237" lon="13.3088556"><ele>545.3333333333333</ele><time>2026-04-18T11:49:06.055Z</time></trkpt><trkpt lat="43.0116884" lon="13.3088954"><ele>545.6666666666666</ele><time>2026-04-18T11:49:07.05Z</time></trkpt><trkpt lat="43.0117497" lon="13.3089384"><ele>546.0</ele><time>2026-04-18T11:49:08.048Z</time></trkpt><trkpt lat="43.0117924" lon="13.3090462"><ele>546.3333333333334</ele><time>2026-04-18T11:49:09.056Z</time></trkpt><trkpt lat="43.0118122" lon="13.3091585"><ele>546.6666666666667</ele><time>2026-04-18T11:49:10.025Z</time></trkpt><trkpt lat="43.0118409" lon="13.3092659"><ele>547.0</ele><time>2026-04-18T11:49:11.112Z</time></trkpt><trkpt lat="43.0119149" lon="13.3093044"><ele>547.25</ele><time>2026-04-18T11:49:12.034Z</time></trkpt><trkpt lat="43.0120162" lon="13.3093288"><ele>547.5</ele><time>2026-04-18T11:49:13.038Z</time></trkpt><trkpt lat="43.0121484" lon="13.3093451"><ele>547.75</ele><time>2026-04-18T11:49:14.059Z</time></trkpt><trkpt lat="43.0122895" lon="13.3093641"><ele>548.0</ele><time>2026-04-18T11:49:15.065Z</time></trkpt><trkpt lat="43.0124487" lon="13.3093834"><ele>550.5</ele><time>2026-04-18T11:49:16.035Z</time></trkpt><trkpt lat="43.0126012" lon="13.3094047"><ele>553.0</ele><time>2026-04-18T11:49:17.058Z</time></trkpt><trkpt lat="43.0127443" lon="13.3094318"><ele>555.5</ele><time>2026-04-18T11:49:18.032Z</time></trkpt><trkpt lat="43.0128816" lon="13.3094745"><ele>558.0</ele><time>2026-04-18T11:49:19.058Z</time></trkpt><trkpt lat="43.0130179" lon="13.3095141"><ele>558.0</ele><time>2026-04-18T11:49:20.038Z</time></trkpt><trkpt lat="43.0131465" lon="13.309552"><ele>558.0</ele><time>2026-04-18T11:49:21.039Z</time></trkpt><trkpt lat="43.0132566" lon="13.3095833"><ele>558.0</ele><time>2026-04-18T11:49:22.04Z</time></trkpt><trkpt lat="43.0133477" lon="13.3096088"><ele>558.0</ele><time>2026-04-18T11:49:23.069Z</time></trkpt><trkpt lat="43.0134173" lon="13.3096474"><ele>558.0</ele><time>2026-04-18T11:49:24.042Z</time></trkpt><trkpt lat="43.0134693" lon="13.3096969"><ele>554.6</ele><time>2026-04-18T11:49:25.051Z</time></trkpt><trkpt lat="43.013518" lon="13.3097556"><ele>551.1999999999999</ele><time>2026-04-18T11:49:26.043Z</time></trkpt><trkpt lat="43.0136025" lon="13.3098897"><ele>547.8</ele><time>2026-04-18T11:49:28.028Z</time></trkpt><trkpt lat="43.0136531" lon="13.3100032"><ele>544.4</ele><time>2026-04-18T11:49:30.048Z</time></trkpt><trkpt lat="43.0136838" lon="13.310158"><ele>541.0</ele><time>2026-04-18T11:49:32.033Z</time></trkpt><trkpt lat="43.0136678" lon="13.3102913"><ele>541.0</ele><time>2026-04-18T11:49:33.028Z</time></trkpt><trkpt lat="43.0136423" lon="13.310413"><ele>541.0</ele><time>2026-04-18T11:49:34.126Z</time></trkpt><trkpt lat="43.0136178" lon="13.310512"><ele>541.0</ele><time>2026-04-18T11:49:35.05Z</time></trkpt><trkpt lat="43.0135984" lon="13.3105963"><ele>541.0</ele><time>2026-04-18T11:49:36.055Z</time></trkpt><trkpt lat="43.0135022" lon="13.3106958"><ele>541.0</ele><time>2026-04-18T11:49:38.046Z</time></trkpt><trkpt lat="43.0134358" lon="13.3106915"><ele>541.0</ele><time>2026-04-18T11:49:39.049Z</time></trkpt><trkpt lat="43.013364" lon="13.3106852"><ele>539.0</ele><time>2026-04-18T11:49:40.108Z</time></trkpt><trkpt lat="43.0132953" lon="13.3106237"><ele>537.0</ele><time>2026-04-18T11:49:41.07Z</time></trkpt><trkpt lat="43.0132388" lon="13.3105489"><ele>535.0</ele><time>2026-04-18T11:49:42.047Z</time></trkpt><trkpt lat="43.0131485" lon="13.310454"><ele>533.0</ele><time>2026-04-18T11:49:44.054Z</time></trkpt><trkpt lat="43.0130551" lon="13.310354"><ele>531.0</ele><time>2026-04-18T11:49:46.023Z</time></trkpt><trkpt lat="43.0130046" lon="13.3102891"><ele>531.0</ele><time>2026-04-18T11:49:47.037Z</time></trkpt><trkpt lat="43.0129456" lon="13.310209"><ele>531.0</ele><time>2026-04-18T11:49:48.016Z</time></trkpt><trkpt lat="43.0128823" lon="13.3101233"><ele>531.0</ele><time>2026-04-18T11:49:49.017Z</time></trkpt><trkpt lat="43.0128281" lon="13.310062"><ele>531.0</ele><time>2026-04-18T11:49:50.035Z</time></trkpt><trkpt lat="43.0127528" lon="13.3099781"><ele>531.0</ele><time>2026-04-18T11:49:52.056Z</time></trkpt><trkpt lat="43.0126933" lon="13.3099371"><ele>531.0</ele><time>2026-04-18T11:49:53.015Z</time></trkpt><trkpt lat="43.012621" lon="13.3099119"><ele>531.0</ele><time>2026-04-18T11:49:54.021Z</time></trkpt><trkpt lat="43.0125443" lon="13.3098939"><ele>531.0</ele><time>2026-04-18T11:49:55.018Z</time></trkpt><trkpt lat="43.0124707" lon="13.3098871"><ele>531.0</ele><time>2026-04-18T11:49:56.051Z</time></trkpt><trkpt lat="43.0123981" lon="13.3098768"><ele>531.0</ele><time>2026-04-18T11:49:57.042Z</time></trkpt><trkpt lat="43.0122739" lon="13.3098877"><ele>531.0</ele><time>2026-04-18T11:49:59.059Z</time></trkpt><trkpt lat="43.0121506" lon="13.3098931"><ele>530.8</ele><time>2026-04-18T11:50:01.058Z</time></trkpt><trkpt lat="43.012047" lon="13.3099051"><ele>530.6</ele><time>2026-04-18T11:50:03.02Z</time></trkpt><trkpt lat="43.0119465" lon="13.3099201"><ele>530.4</ele><time>2026-04-18T11:50:05.056Z</time></trkpt><trkpt lat="43.0118706" lon="13.3099249"><ele>530.2</ele><time>2026-04-18T11:50:07.051Z</time></trkpt><trkpt lat="43.0117832" lon="13.309925"><ele>530.0</ele><time>2026-04-18T11:50:10.04Z</time></trkpt><trkpt lat="43.0116937" lon="13.3099128"><ele>530.4285714285713</ele><time>2026-04-18T11:50:13.001Z</time></trkpt><trkpt lat="43.0116185" lon="13.3099051"><ele>530.8571428571429</ele><time>2026-04-18T11:50:16.049Z</time></trkpt><trkpt lat="43.0115402" lon="13.3098949"><ele>531.2857142857142</ele><time>2026-04-18T11:50:19.002Z</time></trkpt><trkpt lat="43.0114761" lon="13.3098989"><ele>531.7142857142857</ele><time>2026-04-18T11:50:21.041Z</time></trkpt><trkpt lat="43.0113971" lon="13.3098976"><ele>532.1428571428571</ele><time>2026-04-18T11:50:22.988Z</time></trkpt><trkpt lat="43.0113231" lon="13.3099049"><ele>532.5714285714286</ele><time>2026-04-18T11:50:25.05Z</time></trkpt><trkpt lat="43.0112603" lon="13.3099251"><ele>533.0</ele><time>2026-04-18T11:50:27.033Z</time></trkpt><trkpt lat="43.0111977" lon="13.3099584"><ele>533.0</ele><time>2026-04-18T11:50:30.036Z</time></trkpt><trkpt lat="43.0111121" lon="13.3099938"><ele>533.0</ele><time>2026-04-18T11:50:33.008Z</time></trkpt><trkpt lat="43.0110273" lon="13.3100427"><ele>533.0</ele><time>2026-04-18T11:50:36.045Z</time></trkpt><trkpt lat="43.0109627" lon="13.3100817"><ele>533.0</ele><time>2026-04-18T11:50:37.994Z</time></trkpt><trkpt lat="43.0108911" lon="13.3101209"><ele>533.0</ele><time>2026-04-18T11:50:40.052Z</time></trkpt><trkpt lat="43.0108244" lon="13.3101632"><ele>533.0</ele><time>2026-04-18T11:50:42.026Z</time></trkpt><trkpt lat="43.0107314" lon="13.3102011"><ele>533.8333333333333</ele><time>2026-04-18T11:50:44.044Z</time></trkpt><trkpt lat="43.010636" lon="13.310222"><ele>534.6666666666666</ele><time>2026-04-18T11:50:46.04Z</time></trkpt><trkpt lat="43.0105493" lon="13.3102338"><ele>535.5</ele><time>2026-04-18T11:50:47.994Z</time></trkpt><trkpt lat="43.0104636" lon="13.3102481"><ele>536.3333333333334</ele><time>2026-04-18T11:50:50.025Z</time></trkpt><trkpt lat="43.0103805" lon="13.310268"><ele>537.1666666666667</ele><time>2026-04-18T11:50:52.051Z</time></trkpt><trkpt lat="43.010305" lon="13.3102912"><ele>538.0</ele><time>2026-04-18T11:50:54.034Z</time></trkpt><trkpt lat="43.0102444" lon="13.3103243"><ele>538.0</ele><time>2026-04-18T11:50:56.016Z</time></trkpt><trkpt lat="43.0101804" lon="13.3103555"><ele>538.0</ele><time>2026-04-18T11:50:58.018Z</time></trkpt><trkpt lat="43.010114" lon="13.3103922"><ele>538.0</ele><time>2026-04-18T11:51:00.04Z</time></trkpt><trkpt lat="43.010045" lon="13.3104238"><ele>538.0</ele><time>2026-04-18T11:51:02.033Z</time></trkpt><trkpt lat="43.0099607" lon="13.3104752"><ele>538.0</ele><time>2026-04-18T11:51:05.041Z</time></trkpt><trkpt lat="43.0098958" lon="13.3105206"><ele>538.0</ele><time>2026-04-18T11:51:07.009Z</time></trkpt><trkpt lat="43.0098525" lon="13.3106184"><ele>537.1999999999999</ele><time>2026-04-18T11:51:09.005Z</time></trkpt><trkpt lat="43.0098159" lon="13.3107231"><ele>536.4</ele><time>2026-04-18T11:51:11.032Z</time></trkpt><trkpt lat="43.0097864" lon="13.3108305"><ele>535.5999999999999</ele><time>2026-04-18T11:51:13.039Z</time></trkpt><trkpt lat="43.0097473" lon="13.3109458"><ele>534.8</ele><time>2026-04-18T11:51:15.03Z</time></trkpt><trkpt lat="43.0096956" lon="13.3110706"><ele>534.0</ele><time>2026-04-18T11:51:17.1Z</time></trkpt><trkpt lat="43.0096499" lon="13.3111933"><ele>534.0</ele><time>2026-04-18T11:51:19.045Z</time></trkpt><trkpt lat="43.0096067" lon="13.3113068"><ele>534.0</ele><time>2026-04-18T11:51:21.052Z</time></trkpt><trkpt lat="43.0095529" lon="13.3114304"><ele>534.0</ele><time>2026-04-18T11:51:23.056Z</time></trkpt><trkpt lat="43.0094958" lon="13.3115513"><ele>534.0</ele><time>2026-04-18T11:51:25.044Z</time></trkpt><trkpt lat="43.0094557" lon="13.3116827"><ele>534.0</ele><time>2026-04-18T11:51:27.041Z</time></trkpt><trkpt lat="43.0094348" lon="13.3118074"><ele>530.2</ele><time>2026-04-18T11:51:29.059Z</time></trkpt><trkpt lat="43.0094191" lon="13.3119254"><ele>526.4</ele><time>2026-04-18T11:51:31.046Z</time></trkpt><trkpt lat="43.0094067" lon="13.312044"><ele>522.6</ele><time>2026-04-18T11:51:33.033Z</time></trkpt><trkpt lat="43.0093894" lon="13.312164"><ele>518.8</ele><time>2026-04-18T11:51:35.032Z</time></trkpt><trkpt lat="43.00935" lon="13.3122749"><ele>515.0</ele><time>2026-04-18T11:51:37.04Z</time></trkpt><trkpt lat="43.0092933" lon="13.3123787"><ele>513.3333333333333</ele><time>2026-04-18T11:51:39.106Z</time></trkpt><trkpt lat="43.009235" lon="13.3124517"><ele>511.66666666666663</ele><time>2026-04-18T11:51:41.024Z</time></trkpt><trkpt lat="43.0091703" lon="13.3124976"><ele>510.0</ele><time>2026-04-18T11:51:43.038Z</time></trkpt><trkpt lat="43.0090982" lon="13.3125746"><ele>508.33333333333337</ele><time>2026-04-18T11:51:45.029Z</time></trkpt><trkpt lat="43.0090375" lon="13.3126409"><ele>506.6666666666667</ele><time>2026-04-18T11:51:47.026Z</time></trkpt><trkpt lat="43.0089588" lon="13.3126956"><ele>505.0</ele><time>2026-04-18T11:51:49.053Z</time></trkpt><trkpt lat="43.0088984" lon="13.3127481"><ele>504.33333333333337</ele><time>2026-04-18T11:51:51.033Z</time></trkpt><trkpt lat="43.0088344" lon="13.312789"><ele>503.6666666666667</ele><time>2026-04-18T11:51:53.039Z</time></trkpt><trkpt lat="43.0087582" lon="13.3128307"><ele>503.0</ele><time>2026-04-18T11:51:55.035Z</time></trkpt><trkpt lat="43.0086656" lon="13.3128995"><ele>502.33333333333337</ele><time>2026-04-18T11:51:57.063Z</time></trkpt><trkpt lat="43.0085957" lon="13.3129815"><ele>501.6666666666667</ele><time>2026-04-18T11:51:59.048Z</time></trkpt><trkpt lat="43.0085276" lon="13.3130712"><ele>501.0</ele><time>2026-04-18T11:52:01.043Z</time></trkpt><trkpt lat="43.0084775" lon="13.3131462"><ele>500.5</ele><time>2026-04-18T11:52:03.027Z</time></trkpt><trkpt lat="43.0084246" lon="13.3132433"><ele>500.0</ele><time>2026-04-18T11:52:06.036Z</time></trkpt><trkpt lat="43.0083867" lon="13.3133244"><ele>499.5</ele><time>2026-04-18T11:52:08.029Z</time></trkpt><trkpt lat="43.0083547" lon="13.3134348"><ele>499.0</ele><time>2026-04-18T11:52:10.046Z</time></trkpt><trkpt lat="43.0083369" lon="13.3135338"><ele>498.5</ele><time>2026-04-18T11:52:12.048Z</time></trkpt><trkpt lat="43.0083221" lon="13.3136358"><ele>498.0</ele><time>2026-04-18T11:52:15.038Z</time></trkpt><trkpt lat="43.008312" lon="13.3137721"><ele>498.0</ele><time>2026-04-18T11:52:18.01Z</time></trkpt><trkpt lat="43.0083113" lon="13.3138948"><ele>498.0</ele><time>2026-04-18T11:52:20.042Z</time></trkpt><trkpt lat="43.0082961" lon="13.3140213"><ele>498.0</ele><time>2026-04-18T11:52:22.053Z</time></trkpt><trkpt lat="43.0082843" lon="13.3141656"><ele>498.0</ele><time>2026-04-18T11:52:24.046Z</time></trkpt><trkpt lat="43.0082543" lon="13.3142734"><ele>498.0</ele><time>2026-04-18T11:52:25.092Z</time></trkpt><trkpt lat="43.0082343" lon="13.3143652"><ele>498.0</ele><time>2026-04-18T11:52:26.052Z</time></trkpt><trkpt lat="43.0082131" lon="13.3144606"><ele>498.0</ele><time>2026-04-18T11:52:27.047Z</time></trkpt><trkpt lat="43.0081782" lon="13.3145399"><ele>497.99999999999994</ele><time>2026-04-18T11:52:28.039Z</time></trkpt><trkpt lat="43.0081206" lon="13.314686"><ele>497.99999999999994</ele><time>2026-04-18T11:52:30.047Z</time></trkpt><trkpt lat="43.0080714" lon="13.3148113"><ele>498.0</ele><time>2026-04-18T11:52:32.046Z</time></trkpt><trkpt lat="43.0080298" lon="13.3149565"><ele>498.0</ele><time>2026-04-18T11:52:34.048Z</time></trkpt><trkpt lat="43.0080122" lon="13.3150725"><ele>497.5</ele><time>2026-04-18T11:52:36.044Z</time></trkpt><trkpt lat="43.0080392" lon="13.3151856"><ele>497.0</ele><time>2026-04-18T11:52:38.053Z</time></trkpt><trkpt lat="43.0080843" lon="13.3153082"><ele>496.5</ele><time>2026-04-18T11:52:40.039Z</time></trkpt><trkpt lat="43.0081289" lon="13.315398"><ele>496.0</ele><time>2026-04-18T11:52:42.04Z</time></trkpt><trkpt lat="43.0081778" lon="13.3155135"><ele>495.5</ele><time>2026-04-18T11:52:44.009Z</time></trkpt><trkpt lat="43.0082115" lon="13.3156058"><ele>495.0</ele><time>2026-04-18T11:52:46.026Z</time></trkpt><trkpt lat="43.0082257" lon="13.3157554"><ele>498.0</ele><time>2026-04-18T11:52:48.021Z</time></trkpt><trkpt lat="43.0082078" lon="13.3158805"><ele>501.0</ele><time>2026-04-18T11:52:50.032Z</time></trkpt><trkpt lat="43.0081812" lon="13.3160238"><ele>504.0</ele><time>2026-04-18T11:52:52.029Z</time></trkpt><trkpt lat="43.0081393" lon="13.316161"><ele>507.0</ele><time>2026-04-18T11:52:54.063Z</time></trkpt><trkpt lat="43.0080682" lon="13.3162733"><ele>510.0</ele><time>2026-04-18T11:52:56.038Z</time></trkpt><trkpt lat="43.0079796" lon="13.3163709"><ele>508.3333333333333</ele><time>2026-04-18T11:52:58.032Z</time></trkpt><trkpt lat="43.0079191" lon="13.3164331"><ele>506.66666666666663</ele><time>2026-04-18T11:52:59.048Z</time></trkpt><trkpt lat="43.0078618" lon="13.3164824"><ele>505.0</ele><time>2026-04-18T11:53:00.032Z</time></trkpt><trkpt lat="43.0077795" lon="13.3165628"><ele>503.3333333333333</ele><time>2026-04-18T11:53:02.041Z</time></trkpt><trkpt lat="43.0076973" lon="13.3166492"><ele>501.66666666666663</ele><time>2026-04-18T11:53:04.037Z</time></trkpt><trkpt lat="43.0076525" lon="13.3167343"><ele>500.0</ele><time>2026-04-18T11:53:06.056Z</time></trkpt><trkpt lat="43.0076214" lon="13.3168145"><ele>499.99999999999994</ele><time>2026-04-18T11:53:07.995Z</time></trkpt><trkpt lat="43.0075692" lon="13.3169488"><ele>500.0</ele><time>2026-04-18T11:53:11.019Z</time></trkpt><trkpt lat="43.0075273" lon="13.3170562"><ele>500.0</ele><time>2026-04-18T11:53:13.038Z</time></trkpt><trkpt lat="43.0074905" lon="13.3171743"><ele>500.0</ele><time>2026-04-18T11:53:15.018Z</time></trkpt><trkpt lat="43.0074709" lon="13.3172846"><ele>499.99999999999994</ele><time>2026-04-18T11:53:16.998Z</time></trkpt><trkpt lat="43.0074571" lon="13.3173785"><ele>500.0</ele><time>2026-04-18T11:53:18.973Z</time></trkpt><trkpt lat="43.0074713" lon="13.3174626"><ele>503.49999999999994</ele><time>2026-04-18T11:53:22.009Z</time></trkpt><trkpt lat="43.0074735" lon="13.3175631"><ele>507.0</ele><time>2026-04-18T11:53:24.026Z</time></trkpt><trkpt lat="43.0074732" lon="13.3176962"><ele>510.5</ele><time>2026-04-18T11:53:26.023Z</time></trkpt><trkpt lat="43.0074778" lon="13.3178242"><ele>514.0</ele><time>2026-04-18T11:53:28.061Z</time></trkpt><trkpt lat="43.0074807" lon="13.3179334"><ele>517.5</ele><time>2026-04-18T11:53:30.042Z</time></trkpt><trkpt lat="43.0074881" lon="13.318066"><ele>521.0</ele><time>2026-04-18T11:53:32.013Z</time></trkpt><trkpt lat="43.0074781" lon="13.3181871"><ele>521.0</ele><time>2026-04-18T11:53:33.994Z</time></trkpt><trkpt lat="43.007408" lon="13.3183027"><ele>521.0</ele><time>2026-04-18T11:53:36.023Z</time></trkpt><trkpt lat="43.0073255" lon="13.318381"><ele>521.0</ele><time>2026-04-18T11:53:38.044Z</time></trkpt><trkpt lat="43.0072679" lon="13.3184182"><ele>521.0</ele><time>2026-04-18T11:53:38.994Z</time></trkpt><trkpt lat="43.0071607" lon="13.3184943"><ele>521.0</ele><time>2026-04-18T11:53:41.038Z</time></trkpt><trkpt lat="43.0070504" lon="13.3185645"><ele>521.0</ele><time>2026-04-18T11:53:43.05Z</time></trkpt><trkpt lat="43.0069841" lon="13.3186025"><ele>521.0</ele><time>2026-04-18T11:53:44.026Z</time></trkpt><trkpt lat="43.0069169" lon="13.3186405"><ele>521.0</ele><time>2026-04-18T11:53:45.033Z</time></trkpt><trkpt lat="43.0068591" lon="13.3186758"><ele>521.0</ele><time>2026-04-18T11:53:46.044Z</time></trkpt><trkpt lat="43.0067931" lon="13.3187065"><ele>521.0</ele><time>2026-04-18T11:53:47.042Z</time></trkpt><trkpt lat="43.006727" lon="13.3187373"><ele>521.0</ele><time>2026-04-18T11:53:48.036Z</time></trkpt><trkpt lat="43.0066573" lon="13.318769"><ele>521.0</ele><time>2026-04-18T11:53:49.021Z</time></trkpt><trkpt lat="43.0065832" lon="13.3188072"><ele>520.8333333333333</ele><time>2026-04-18T11:53:50.046Z</time></trkpt><trkpt lat="43.0065169" lon="13.3188464"><ele>520.6666666666666</ele><time>2026-04-18T11:53:51.038Z</time></trkpt><trkpt lat="43.0064483" lon="13.3188896"><ele>520.5</ele><time>2026-04-18T11:53:52.03Z</time></trkpt><trkpt lat="43.0063725" lon="13.3189456"><ele>520.3333333333334</ele><time>2026-04-18T11:53:53.056Z</time></trkpt><trkpt lat="43.0062698" lon="13.3190253"><ele>520.1666666666667</ele><time>2026-04-18T11:53:55.044Z</time></trkpt><trkpt lat="43.0061888" lon="13.3190971"><ele>520.0</ele><time>2026-04-18T11:53:57.015Z</time></trkpt><trkpt lat="43.00613" lon="13.3191348"><ele>520.0</ele><time>2026-04-18T11:53:58.008Z</time></trkpt><trkpt lat="43.006048" lon="13.3191978"><ele>520.0</ele><time>2026-04-18T11:53:59.997Z</time></trkpt><trkpt lat="43.0059544" lon="13.3192511"><ele>520.0</ele><time>2026-04-18T11:54:02.041Z</time></trkpt><trkpt lat="43.0058885" lon="13.3192753"><ele>520.0</ele><time>2026-04-18T11:54:03.037Z</time></trkpt><trkpt lat="43.0057576" lon="13.3192953"><ele>520.0</ele><time>2026-04-18T11:54:05.031Z</time></trkpt><trkpt lat="43.0056849" lon="13.3192957"><ele>524.8</ele><time>2026-04-18T11:54:06.049Z</time></trkpt><trkpt lat="43.005578" lon="13.3193285"><ele>529.6</ele><time>2026-04-18T11:54:08.041Z</time></trkpt><trkpt lat="43.0054674" lon="13.3193659"><ele>534.4</ele><time>2026-04-18T11:54:10.044Z</time></trkpt><trkpt lat="43.0053579" lon="13.3194243"><ele>539.2</ele><time>2026-04-18T11:54:12.048Z</time></trkpt><trkpt lat="43.0052919" lon="13.3194589"><ele>544.0</ele><time>2026-04-18T11:54:13.037Z</time></trkpt><trkpt lat="43.005224" lon="13.3194967"><ele>544.0</ele><time>2026-04-18T11:54:14.024Z</time></trkpt><trkpt lat="43.0051188" lon="13.3195522"><ele>544.0</ele><time>2026-04-18T11:54:16.035Z</time></trkpt><trkpt lat="43.0050292" lon="13.319602"><ele>544.0</ele><time>2026-04-18T11:54:18.055Z</time></trkpt><trkpt lat="43.0049434" lon="13.3196545"><ele>544.0</ele><time>2026-04-18T11:54:20.034Z</time></trkpt><trkpt lat="43.0048481" lon="13.3197162"><ele>544.0</ele><time>2026-04-18T11:54:22.04Z</time></trkpt><trkpt lat="43.0047931" lon="13.3197595"><ele>544.0</ele><time>2026-04-18T11:54:23.039Z</time></trkpt><trkpt lat="43.0047062" lon="13.3198374"><ele>544.0</ele><time>2026-04-18T11:54:25.038Z</time></trkpt><trkpt lat="43.0046439" lon="13.3199027"><ele>544.0</ele><time>2026-04-18T11:54:27.047Z</time></trkpt><trkpt lat="43.0046066" lon="13.3199815"><ele>544.0</ele><time>2026-04-18T11:54:28.98Z</time></trkpt><trkpt lat="43.0045693" lon="13.3200956"><ele>544.0</ele><time>2026-04-18T11:54:31.038Z</time></trkpt><trkpt lat="43.0045494" lon="13.3201831"><ele>544.0</ele><time>2026-04-18T11:54:33.008Z</time></trkpt><trkpt lat="43.0045174" lon="13.3202745"><ele>544.0</ele><time>2026-04-18T11:54:35.017Z</time></trkpt><trkpt lat="43.004469" lon="13.3203712"><ele>544.0</ele><time>2026-04-18T11:54:37.018Z</time></trkpt><trkpt lat="43.0044214" lon="13.3204478"><ele>544.0</ele><time>2026-04-18T11:54:38.97Z</time></trkpt><trkpt lat="43.004343" lon="13.3205263"><ele>544.0</ele><time>2026-04-18T11:54:40.962Z</time></trkpt><trkpt lat="43.0042736" lon="13.3205928"><ele>544.0</ele><time>2026-04-18T11:54:42.965Z</time></trkpt><trkpt lat="43.0042407" lon="13.320678"><ele>544.0</ele><time>2026-04-18T11:54:44.967Z</time></trkpt><trkpt lat="43.0042215" lon="13.3207628"><ele>546.8333333333334</ele><time>2026-04-18T11:54:46.977Z</time></trkpt><trkpt lat="43.004216" lon="13.3208951"><ele>549.6666666666667</ele><time>2026-04-18T11:54:50.027Z</time></trkpt><trkpt lat="43.0041993" lon="13.320993"><ele>552.5</ele><time>2026-04-18T11:54:52.031Z</time></trkpt><trkpt lat="43.0041533" lon="13.3210962"><ele>555.3333333333334</ele><time>2026-04-18T11:54:54.016Z</time></trkpt><trkpt lat="43.0041156" lon="13.3211859"><ele>558.1666666666666</ele><time>2026-04-18T11:54:56.037Z</time></trkpt><trkpt lat="43.0040635" lon="13.3212605"><ele>561.0</ele><time>2026-04-18T11:54:58.058Z</time></trkpt><trkpt lat="43.003992" lon="13.321356"><ele>556.5714285714286</ele><time>2026-04-18T11:55:01.012Z</time></trkpt><trkpt lat="43.0039345" lon="13.3214364"><ele>552.1428571428571</ele><time>2026-04-18T11:55:02.969Z</time></trkpt><trkpt lat="43.0038939" lon="13.3215209"><ele>547.7142857142857</ele><time>2026-04-18T11:55:04.996Z</time></trkpt><trkpt lat="43.0038597" lon="13.3216008"><ele>543.2857142857142</ele><time>2026-04-18T11:55:07.011Z</time></trkpt><trkpt lat="43.0038346" lon="13.321684"><ele>538.8571428571429</ele><time>2026-04-18T11:55:09.004Z</time></trkpt><trkpt lat="43.0038357" lon="13.3217808"><ele>534.4285714285713</ele><time>2026-04-18T11:55:11.027Z</time></trkpt><trkpt lat="43.0038413" lon="13.321877"><ele>530.0</ele><time>2026-04-18T11:55:14.01Z</time></trkpt><trkpt lat="43.0038398" lon="13.3220039"><ele>529.9999999999999</ele><time>2026-04-18T11:55:20.003Z</time></trkpt><trkpt lat="43.0038739" lon="13.3220831"><ele>530.0</ele><time>2026-04-18T11:55:22.006Z</time></trkpt><trkpt lat="43.0039156" lon="13.3221488"><ele>530.0</ele><time>2026-04-18T11:55:23.973Z</time></trkpt><trkpt lat="43.0039667" lon="13.3222"><ele>530.0</ele><time>2026-04-18T11:55:26.044Z</time></trkpt><trkpt lat="43.0040321" lon="13.322219"><ele>530.0</ele><time>2026-04-18T11:55:28.033Z</time></trkpt><trkpt lat="43.0041247" lon="13.3221837"><ele>529.9999999999999</ele><time>2026-04-18T11:55:31.05Z</time></trkpt><trkpt lat="43.0042064" lon="13.3221542"><ele>530.0</ele><time>2026-04-18T11:55:33.058Z</time></trkpt><trkpt lat="43.0042897" lon="13.3221194"><ele>524.6</ele><time>2026-04-18T11:55:35.034Z</time></trkpt><trkpt lat="43.0043904" lon="13.3220906"><ele>519.2</ele><time>2026-04-18T11:55:37.051Z</time></trkpt><trkpt lat="43.0044872" lon="13.3220523"><ele>513.8</ele><time>2026-04-18T11:55:39.036Z</time></trkpt><trkpt lat="43.0045782" lon="13.3220258"><ele>508.4</ele><time>2026-04-18T11:55:41.028Z</time></trkpt><trkpt lat="43.0046903" lon="13.322004"><ele>503.0</ele><time>2026-04-18T11:55:43.039Z</time></trkpt><trkpt lat="43.0047882" lon="13.3220062"><ele>502.99999999999994</ele><time>2026-04-18T11:55:45.037Z</time></trkpt><trkpt lat="43.0048607" lon="13.3220124"><ele>503.0</ele><time>2026-04-18T11:55:47.027Z</time></trkpt><trkpt lat="43.0049314" lon="13.3220124"><ele>503.0</ele><time>2026-04-18T11:55:49.002Z</time></trkpt><trkpt lat="43.0050013" lon="13.3220305"><ele>503.0</ele><time>2026-04-18T11:55:51.019Z</time></trkpt><trkpt lat="43.0050838" lon="13.322063"><ele>502.99999999999994</ele><time>2026-04-18T11:55:53.004Z</time></trkpt><trkpt lat="43.0051537" lon="13.3221101"><ele>503.0</ele><time>2026-04-18T11:55:54.99Z</time></trkpt><trkpt lat="43.0052269" lon="13.3221746"><ele>505.3333333333333</ele><time>2026-04-18T11:55:57.013Z</time></trkpt><trkpt lat="43.0052796" lon="13.32227"><ele>507.66666666666663</ele><time>2026-04-18T11:55:59.013Z</time></trkpt><trkpt lat="43.0053234" lon="13.3223668"><ele>510.0</ele><time>2026-04-18T11:56:01.022Z</time></trkpt><trkpt lat="43.005371" lon="13.3224393"><ele>512.3333333333334</ele><time>2026-04-18T11:56:03.015Z</time></trkpt><trkpt lat="43.0054343" lon="13.3224672"><ele>514.6666666666667</ele><time>2026-04-18T11:56:05.017Z</time></trkpt><trkpt lat="43.0055176" lon="13.3224472"><ele>517.0</ele><time>2026-04-18T11:56:08.007Z</time></trkpt><trkpt lat="43.005599" lon="13.3224045"><ele>517.0</ele><time>2026-04-18T11:56:11.025Z</time></trkpt><trkpt lat="43.0056863" lon="13.3223274"><ele>517.0</ele><time>2026-04-18T11:56:13.019Z</time></trkpt><trkpt lat="43.0057719" lon="13.322248"><ele>517.0</ele><time>2026-04-18T11:56:15.05Z</time></trkpt><trkpt lat="43.0058455" lon="13.3221665"><ele>517.0</ele><time>2026-04-18T11:56:17.089Z</time></trkpt><trkpt lat="43.0059229" lon="13.3220917"><ele>517.0</ele><time>2026-04-18T11:56:19.024Z</time></trkpt><trkpt lat="43.0060085" lon="13.3220172"><ele>515.4</ele><time>2026-04-18T11:56:21.039Z</time></trkpt><trkpt lat="43.0061015" lon="13.3219365"><ele>513.8000000000001</ele><time>2026-04-18T11:56:23.05Z</time></trkpt><trkpt lat="43.0061856" lon="13.3218466"><ele>512.2</ele><time>2026-04-18T11:56:25.045Z</time></trkpt><trkpt lat="43.0062578" lon="13.321776"><ele>510.6</ele><time>2026-04-18T11:56:27.045Z</time></trkpt><trkpt lat="43.0063315" lon="13.321701"><ele>509.0</ele><time>2026-04-18T11:56:29.066Z</time></trkpt><trkpt lat="43.0064132" lon="13.321648"><ele>508.99999999999994</ele><time>2026-04-18T11:56:32.016Z</time></trkpt><trkpt lat="43.0064868" lon="13.3216572"><ele>509.0</ele><time>2026-04-18T11:56:34.038Z</time></trkpt><trkpt lat="43.006562" lon="13.3216998"><ele>509.0</ele><time>2026-04-18T11:56:37.038Z</time></trkpt><trkpt lat="43.0066048" lon="13.3217922"><ele>509.0</ele><time>2026-04-18T11:56:39.038Z</time></trkpt><trkpt lat="43.0066385" lon="13.3218879"><ele>508.99999999999994</ele><time>2026-04-18T11:56:41.08Z</time></trkpt><trkpt lat="43.0066751" lon="13.3219921"><ele>509.0</ele><time>2026-04-18T11:56:44.016Z</time></trkpt><trkpt lat="43.0067062" lon="13.3220723"><ele>510.66666666666663</ele><time>2026-04-18T11:56:46.02Z</time></trkpt><trkpt lat="43.0067504" lon="13.3221782"><ele>512.3333333333333</ele><time>2026-04-18T11:56:48.021Z</time></trkpt><trkpt lat="43.0067841" lon="13.3222712"><ele>514.0</ele><time>2026-04-18T11:56:51.028Z</time></trkpt><trkpt lat="43.0068411" lon="13.3223346"><ele>515.6666666666666</ele><time>2026-04-18T11:56:53.978Z</time></trkpt><trkpt lat="43.0069112" lon="13.3224076"><ele>517.3333333333334</ele><time>2026-04-18T11:56:57.012Z</time></trkpt><trkpt lat="43.0069996" lon="13.3224469"><ele>519.0</ele><time>2026-04-18T11:56:59.976Z</time></trkpt><trkpt lat="43.0070719" lon="13.322502"><ele>522.0</ele><time>2026-04-18T11:57:02.031Z</time></trkpt><trkpt lat="43.0071629" lon="13.3226017"><ele>525.0</ele><time>2026-04-18T11:57:04.042Z</time></trkpt><trkpt lat="43.0072295" lon="13.3227244"><ele>528.0</ele><time>2026-04-18T11:57:06.05Z</time></trkpt><trkpt lat="43.007279" lon="13.322859"><ele>531.0</ele><time>2026-04-18T11:57:08.042Z</time></trkpt><trkpt lat="43.0073168" lon="13.3229985"><ele>534.0</ele><time>2026-04-18T11:57:09.976Z</time></trkpt><trkpt lat="43.0073447" lon="13.3230819"><ele>538.1666666666666</ele><time>2026-04-18T11:57:12.015Z</time></trkpt><trkpt lat="43.0074063" lon="13.3231803"><ele>542.3333333333334</ele><time>2026-04-18T11:57:15.989Z</time></trkpt><trkpt lat="43.007486" lon="13.3232853"><ele>546.5</ele><time>2026-04-18T11:57:18.064Z</time></trkpt><trkpt lat="43.007409" lon="13.3233126"><ele>550.6666666666667</ele><time>2026-04-18T11:57:27.965Z</time></trkpt><trkpt lat="43.0073738" lon="13.3232398"><ele>554.8333333333334</ele><time>2026-04-18T11:58:01.023Z</time></trkpt><trkpt lat="43.0073024" lon="13.3231779"><ele>559.0</ele><time>2026-04-18T11:58:03.976Z</time></trkpt><trkpt lat="43.0072274" lon="13.3231203"><ele>559.0</ele><time>2026-04-18T11:58:06.975Z</time></trkpt><trkpt lat="43.0071606" lon="13.3230881"><ele>559.0</ele><time>2026-04-18T11:58:09.996Z</time></trkpt><trkpt lat="43.0070797" lon="13.323117"><ele>559.0</ele><time>2026-04-18T11:58:13.006Z</time></trkpt><trkpt lat="43.0069932" lon="13.323146"><ele>559.0</ele><time>2026-04-18T11:58:17.03Z</time></trkpt><trkpt lat="43.0069125" lon="13.3231635"><ele>559.0</ele><time>2026-04-18T11:58:19.963Z</time></trkpt><trkpt lat="43.0068372" lon="13.3231833"><ele>559.0</ele><time>2026-04-18T11:58:22.016Z</time></trkpt><trkpt lat="43.0067693" lon="13.3232012"><ele>559.0</ele><time>2026-04-18T11:58:23.981Z</time></trkpt><trkpt lat="43.0067016" lon="13.3232262"><ele>559.0</ele><time>2026-04-18T11:58:26.036Z</time></trkpt><trkpt lat="43.0066227" lon="13.3232421"><ele>559.0</ele><time>2026-04-18T11:58:29.027Z</time></trkpt><trkpt lat="43.0065515" lon="13.3232778"><ele>559.0</ele><time>2026-04-18T11:58:32.023Z</time></trkpt><trkpt lat="43.0064717" lon="13.3233269"><ele>559.0</ele><time>2026-04-18T11:58:35.027Z</time></trkpt><trkpt lat="43.006336" lon="13.3233574"><ele>559.0</ele><time>2026-04-18T11:59:02.012Z</time></trkpt><trkpt lat="43.00641" lon="13.3233422"><ele>559.0</ele><time>2026-04-18T11:59:06.027Z</time></trkpt><trkpt lat="43.0064974" lon="13.3233871"><ele>559.0</ele><time>2026-04-18T11:59:09.032Z</time></trkpt><trkpt lat="43.0065608" lon="13.3233999"><ele>559.0</ele><time>2026-04-18T11:59:11.022Z</time></trkpt><trkpt lat="43.0066396" lon="13.3234367"><ele>559.0</ele><time>2026-04-18T11:59:14.034Z</time></trkpt><trkpt lat="43.0067152" lon="13.3234639"><ele>559.0</ele><time>2026-04-18T11:59:17.036Z</time></trkpt><trkpt lat="43.0067723" lon="13.3235051"><ele>559.0</ele><time>2026-04-18T11:59:19.03Z</time></trkpt><trkpt lat="43.0068419" lon="13.3235448"><ele>559.0</ele><time>2026-04-18T11:59:20.976Z</time></trkpt><trkpt lat="43.0068989" lon="13.3235921"><ele>559.0</ele><time>2026-04-18T11:59:22.999Z</time></trkpt><trkpt lat="43.0069738" lon="13.3236786"><ele>559.0</ele><time>2026-04-18T11:59:25.003Z</time></trkpt><trkpt lat="43.0070091" lon="13.3237616"><ele>559.0</ele><time>2026-04-18T11:59:26.985Z</time></trkpt><trkpt lat="43.0070606" lon="13.3238554"><ele>559.0</ele><time>2026-04-18T11:59:29.043Z</time></trkpt><trkpt lat="43.0071298" lon="13.3239738"><ele>564.8</ele><time>2026-04-18T11:59:31.045Z</time></trkpt><trkpt lat="43.0071531" lon="13.3240656"><ele>570.5999999999999</ele><time>2026-04-18T11:59:31.993Z</time></trkpt><trkpt lat="43.0071627" lon="13.3241679"><ele>576.4</ele><time>2026-04-18T11:59:34.037Z</time></trkpt><trkpt lat="43.0071583" lon="13.3243324"><ele>582.1999999999999</ele><time>2026-04-18T11:59:36.04Z</time></trkpt><trkpt lat="43.0071493" lon="13.3244272"><ele>588.0</ele><time>2026-04-18T11:59:37.032Z</time></trkpt><trkpt lat="43.0071398" lon="13.3246049"><ele>591.6</ele><time>2026-04-18T11:59:39.033Z</time></trkpt><trkpt lat="43.0071264" lon="13.324773"><ele>595.1999999999999</ele><time>2026-04-18T11:59:41.07Z</time></trkpt><trkpt lat="43.0071237" lon="13.3249322"><ele>598.8</ele><time>2026-04-18T11:59:43.071Z</time></trkpt><trkpt lat="43.0071306" lon="13.325071"><ele>602.4</ele><time>2026-04-18T11:59:45.119Z</time></trkpt><trkpt lat="43.0071574" lon="13.3252057"><ele>606.0</ele><time>2026-04-18T11:59:47.07Z</time></trkpt><trkpt lat="43.0072183" lon="13.3252997"><ele>606.0</ele><time>2026-04-18T11:59:49.048Z</time></trkpt><trkpt lat="43.0073048" lon="13.3253426"><ele>606.0</ele><time>2026-04-18T11:59:51.058Z</time></trkpt><trkpt lat="43.0073815" lon="13.3253575"><ele>606.0</ele><time>2026-04-18T11:59:53.051Z</time></trkpt><trkpt lat="43.0074532" lon="13.3253829"><ele>606.0</ele><time>2026-04-18T11:59:56.04Z</time></trkpt><trkpt lat="43.0074127" lon="13.3254795"><ele>606.0</ele><time>2026-04-18T11:59:59.045Z</time></trkpt><trkpt lat="43.0073135" lon="13.3255047"><ele>606.0</ele><time>2026-04-18T12:00:01.075Z</time></trkpt><trkpt lat="43.0072311" lon="13.325598"><ele>606.1666666666666</ele><time>2026-04-18T12:00:03.055Z</time></trkpt><trkpt lat="43.0071744" lon="13.3256969"><ele>606.3333333333334</ele><time>2026-04-18T12:00:05.059Z</time></trkpt><trkpt lat="43.0071026" lon="13.3257733"><ele>606.5</ele><time>2026-04-18T12:00:07.04Z</time></trkpt><trkpt lat="43.0070416" lon="13.3258319"><ele>606.6666666666667</ele><time>2026-04-18T12:00:08.988Z</time></trkpt><trkpt lat="43.0069792" lon="13.3258886"><ele>606.8333333333334</ele><time>2026-04-18T12:00:11.019Z</time></trkpt><trkpt lat="43.0069197" lon="13.3259692"><ele>607.0</ele><time>2026-04-18T12:00:13.027Z</time></trkpt><trkpt lat="43.0068672" lon="13.3260266"><ele>607.0</ele><time>2026-04-18T12:00:29.979Z</time></trkpt><trkpt lat="43.0067927" lon="13.3261056"><ele>607.0</ele><time>2026-04-18T12:01:49.035Z</time></trkpt><trkpt lat="43.0067186" lon="13.3261853"><ele>607.0</ele><time>2026-04-18T12:01:51.032Z</time></trkpt><trkpt lat="43.0066403" lon="13.3262385"><ele>607.0</ele><time>2026-04-18T12:01:53.04Z</time></trkpt><trkpt lat="43.0065642" lon="13.3262739"><ele>607.0</ele><time>2026-04-18T12:01:55.051Z</time></trkpt><trkpt lat="43.0064842" lon="13.326295"><ele>607.0</ele><time>2026-04-18T12:01:57.025Z</time></trkpt><trkpt lat="43.0063955" lon="13.3263192"><ele>608.6</ele><time>2026-04-18T12:01:58.981Z</time></trkpt><trkpt lat="43.006329" lon="13.3263357"><ele>610.2</ele><time>2026-04-18T12:02:01.017Z</time></trkpt><trkpt lat="43.0062142" lon="13.3263546"><ele>611.8</ele><time>2026-04-18T12:02:03.042Z</time></trkpt><trkpt lat="43.0061366" lon="13.3263616"><ele>613.4</ele><time>2026-04-18T12:02:04.063Z</time></trkpt><trkpt lat="43.0060553" lon="13.3263709"><ele>615.0</ele><time>2026-04-18T12:02:05.072Z</time></trkpt><trkpt lat="43.0059444" lon="13.3263853"><ele>615.0</ele><time>2026-04-18T12:02:07.061Z</time></trkpt><trkpt lat="43.0060642" lon="13.3263367"><ele>615.0</ele><time>2026-04-18T12:02:30.043Z</time></trkpt><trkpt lat="43.0061531" lon="13.3263258"><ele>615.0</ele><time>2026-04-18T12:02:31.047Z</time></trkpt><trkpt lat="43.0062416" lon="13.3263148"><ele>615.0</ele><time>2026-04-18T12:02:32.064Z</time></trkpt><trkpt lat="43.0063172" lon="13.326306"><ele>615.0</ele><time>2026-04-18T12:02:33.047Z</time></trkpt><trkpt lat="43.006395" lon="13.3262915"><ele>615.0</ele><time>2026-04-18T12:02:34.072Z</time></trkpt><trkpt lat="43.0064724" lon="13.3262701"><ele>615.0</ele><time>2026-04-18T12:02:35.05Z</time></trkpt><trkpt lat="43.0065384" lon="13.3262468"><ele>615.0</ele><time>2026-04-18T12:02:36.057Z</time></trkpt><trkpt lat="43.0066078" lon="13.3262264"><ele>615.0</ele><time>2026-04-18T12:02:37.087Z</time></trkpt><trkpt lat="43.0066799" lon="13.3261829"><ele>615.0</ele><time>2026-04-18T12:02:38.048Z</time></trkpt><trkpt lat="43.0067436" lon="13.3261392"><ele>615.0</ele><time>2026-04-18T12:02:39.018Z</time></trkpt><trkpt lat="43.0068184" lon="13.3260552"><ele>613.6666666666666</ele><time>2026-04-18T12:02:41.022Z</time></trkpt><trkpt lat="43.0068595" lon="13.3259879"><ele>612.3333333333334</ele><time>2026-04-18T12:02:43.002Z</time></trkpt><trkpt lat="43.0069088" lon="13.3259117"><ele>611.0</ele><time>2026-04-18T12:04:51.043Z</time></trkpt><trkpt lat="43.0069816" lon="13.3258568"><ele>609.6666666666667</ele><time>2026-04-18T12:05:03.037Z</time></trkpt><trkpt lat="43.0070453" lon="13.3258022"><ele>608.3333333333334</ele><time>2026-04-18T12:05:05.056Z</time></trkpt><trkpt lat="43.007097" lon="13.3257452"><ele>607.0</ele><time>2026-04-18T12:05:07.035Z</time></trkpt><trkpt lat="43.007155" lon="13.3256457"><ele>607.0</ele><time>2026-04-18T12:05:10.054Z</time></trkpt><trkpt lat="43.0071994" lon="13.3255653"><ele>607.0</ele><time>2026-04-18T12:05:12.029Z</time></trkpt><trkpt lat="43.0072517" lon="13.3255058"><ele>607.0</ele><time>2026-04-18T12:05:13.997Z</time></trkpt><trkpt lat="43.0073311" lon="13.325464"><ele>607.0</ele><time>2026-04-18T12:05:16.993Z</time></trkpt><trkpt lat="43.0074002" lon="13.3254527"><ele>607.0</ele><time>2026-04-18T12:05:20.01Z</time></trkpt><trkpt lat="43.007483" lon="13.3254142"><ele>607.0</ele><time>2026-04-18T12:05:22.038Z</time></trkpt><trkpt lat="43.0075841" lon="13.3253345"><ele>604.5714285714286</ele><time>2026-04-18T12:05:24.057Z</time></trkpt><trkpt lat="43.0076447" lon="13.325268"><ele>602.1428571428571</ele><time>2026-04-18T12:05:25.048Z</time></trkpt><trkpt lat="43.0077046" lon="13.3251854"><ele>599.7142857142858</ele><time>2026-04-18T12:05:26.099Z</time></trkpt><trkpt lat="43.0077715" lon="13.3251139"><ele>597.2857142857142</ele><time>2026-04-18T12:05:27.032Z</time></trkpt><trkpt lat="43.0078282" lon="13.3250714"><ele>594.8571428571429</ele><time>2026-04-18T12:05:28.024Z</time></trkpt><trkpt lat="43.0078876" lon="13.3250398"><ele>592.4285714285714</ele><time>2026-04-18T12:05:30.042Z</time></trkpt><trkpt lat="43.0079522" lon="13.3250253"><ele>590.0</ele><time>2026-04-18T12:05:39.037Z</time></trkpt><trkpt lat="43.0080054" lon="13.3249787"><ele>590.0</ele><time>2026-04-18T12:05:42.045Z</time></trkpt><trkpt lat="43.0079018" lon="13.3250215"><ele>590.0</ele><time>2026-04-18T12:05:45.036Z</time></trkpt><trkpt lat="43.0078384" lon="13.3250626"><ele>590.0</ele><time>2026-04-18T12:05:46.056Z</time></trkpt><trkpt lat="43.0076954" lon="13.3252072"><ele>590.0</ele><time>2026-04-18T12:05:48.062Z</time></trkpt><trkpt lat="43.0076224" lon="13.3252948"><ele>590.0</ele><time>2026-04-18T12:05:49.066Z</time></trkpt><trkpt lat="43.0075411" lon="13.3253893"><ele>590.0</ele><time>2026-04-18T12:05:50.051Z</time></trkpt><trkpt lat="43.0074523" lon="13.3255046"><ele>590.0</ele><time>2026-04-18T12:05:51.044Z</time></trkpt><trkpt lat="43.0073627" lon="13.3256348"><ele>590.0</ele><time>2026-04-18T12:05:52.073Z</time></trkpt><trkpt lat="43.0072818" lon="13.3257517"><ele>594.25</ele><time>2026-04-18T12:05:53.072Z</time></trkpt><trkpt lat="43.0072092" lon="13.3258523"><ele>598.5</ele><time>2026-04-18T12:05:54.101Z</time></trkpt><trkpt lat="43.007143" lon="13.325967"><ele>602.75</ele><time>2026-04-18T12:05:55.079Z</time></trkpt><trkpt lat="43.007084" lon="13.3261167"><ele>607.0</ele><time>2026-04-18T12:05:56.04Z</time></trkpt><trkpt lat="43.0070239" lon="13.3262739"><ele>603.25</ele><time>2026-04-18T12:05:57.049Z</time></trkpt><trkpt lat="43.0069612" lon="13.3264177"><ele>599.5</ele><time>2026-04-18T12:05:58.053Z</time></trkpt><trkpt lat="43.0068936" lon="13.3265383"><ele>595.75</ele><time>2026-04-18T12:05:59.054Z</time></trkpt><trkpt lat="43.006817" lon="13.3266424"><ele>592.0</ele><time>2026-04-18T12:06:00.036Z</time></trkpt><trkpt lat="43.0067207" lon="13.3267295"><ele>595.5</ele><time>2026-04-18T12:06:01.059Z</time></trkpt><trkpt lat="43.0065923" lon="13.3268077"><ele>599.0</ele><time>2026-04-18T12:06:02.06Z</time></trkpt><trkpt lat="43.0064602" lon="13.3268809"><ele>602.5</ele><time>2026-04-18T12:06:03.066Z</time></trkpt><trkpt lat="43.0063416" lon="13.3269541"><ele>606.0</ele><time>2026-04-18T12:06:04.057Z</time></trkpt><trkpt lat="43.0062315" lon="13.3270318"><ele>606.0</ele><time>2026-04-18T12:06:05.043Z</time></trkpt><trkpt lat="43.0061302" lon="13.3271114"><ele>606.0</ele><time>2026-04-18T12:06:06.048Z</time></trkpt><trkpt lat="43.0060386" lon="13.327195"><ele>606.0</ele><time>2026-04-18T12:06:07.042Z</time></trkpt><trkpt lat="43.0059433" lon="13.3272815"><ele>606.0</ele><time>2026-04-18T12:06:08.066Z</time></trkpt><trkpt lat="43.0058425" lon="13.3273841"><ele>604.0</ele><time>2026-04-18T12:06:09.049Z</time></trkpt><trkpt lat="43.005756" lon="13.3274694"><ele>602.0</ele><time>2026-04-18T12:06:10.042Z</time></trkpt><trkpt lat="43.0056787" lon="13.3275466"><ele>600.0</ele><time>2026-04-18T12:06:11.044Z</time></trkpt><trkpt lat="43.0056133" lon="13.3276164"><ele>598.0</ele><time>2026-04-18T12:06:12.102Z</time></trkpt><trkpt lat="43.0055615" lon="13.3276726"><ele>596.0</ele><time>2026-04-18T12:06:13.03Z</time></trkpt><trkpt lat="43.0055145" lon="13.3277415"><ele>594.0</ele><time>2026-04-18T12:06:15.056Z</time></trkpt><trkpt lat="43.0055742" lon="13.3278005"><ele>594.0</ele><time>2026-04-18T12:06:25.031Z</time></trkpt><trkpt lat="43.0056488" lon="13.3277415"><ele>594.0</ele><time>2026-04-18T12:06:26.03Z</time></trkpt><trkpt lat="43.0057465" lon="13.3276763"><ele>594.0</ele><time>2026-04-18T12:06:27.044Z</time></trkpt><trkpt lat="43.0058657" lon="13.3276054"><ele>594.0</ele><time>2026-04-18T12:06:28.029Z</time></trkpt><trkpt lat="43.0060142" lon="13.3275328"><ele>589.6666666666666</ele><time>2026-04-18T12:06:29.052Z</time></trkpt><trkpt lat="43.0061794" lon="13.3274706"><ele>585.3333333333333</ele><time>2026-04-18T12:06:30.069Z</time></trkpt><trkpt lat="43.0063432" lon="13.3274224"><ele>581.0</ele><time>2026-04-18T12:06:31.059Z</time></trkpt><trkpt lat="43.0064959" lon="13.3273972"><ele>581.0</ele><time>2026-04-18T12:06:32.06Z</time></trkpt><trkpt lat="43.0066379" lon="13.3273843"><ele>581.0</ele><time>2026-04-18T12:06:33.046Z</time></trkpt><trkpt lat="43.0067664" lon="13.3274234"><ele>581.0</ele><time>2026-04-18T12:06:34.055Z</time></trkpt><trkpt lat="43.0068985" lon="13.3274974"><ele>581.0</ele><time>2026-04-18T12:06:35.056Z</time></trkpt><trkpt lat="43.0070398" lon="13.3275971"><ele>576.6666666666666</ele><time>2026-04-18T12:06:36.043Z</time></trkpt><trkpt lat="43.0071861" lon="13.3276808"><ele>572.3333333333334</ele><time>2026-04-18T12:06:37.051Z</time></trkpt><trkpt lat="43.0073536" lon="13.3277346"><ele>568.0</ele><time>2026-04-18T12:06:38.023Z</time></trkpt><trkpt lat="43.0075491" lon="13.3277558"><ele>565.3333333333334</ele><time>2026-04-18T12:06:39.039Z</time></trkpt><trkpt lat="43.0077635" lon="13.3277557"><ele>562.6666666666666</ele><time>2026-04-18T12:06:40.054Z</time></trkpt><trkpt lat="43.0079692" lon="13.3277498"><ele>560.0</ele><time>2026-04-18T12:06:41.053Z</time></trkpt><trkpt lat="43.0081754" lon="13.3277232"><ele>555.6666666666666</ele><time>2026-04-18T12:06:42.044Z</time></trkpt><trkpt lat="43.0083916" lon="13.3276854"><ele>551.3333333333334</ele><time>2026-04-18T12:06:43.044Z</time></trkpt><trkpt lat="43.0085996" lon="13.3276428"><ele>547.0</ele><time>2026-04-18T12:06:44.079Z</time></trkpt><trkpt lat="43.008805" lon="13.3275854"><ele>547.0</ele><time>2026-04-18T12:06:45.066Z</time></trkpt><trkpt lat="43.0090114" lon="13.3274968"><ele>547.0</ele><time>2026-04-18T12:06:46.011Z</time></trkpt><trkpt lat="43.0092079" lon="13.3273955"><ele>547.0</ele><time>2026-04-18T12:06:47.056Z</time></trkpt><trkpt lat="43.0093886" lon="13.3272927"><ele>544.6666666666667</ele><time>2026-04-18T12:06:48.056Z</time></trkpt><trkpt lat="43.0095558" lon="13.3271984"><ele>542.3333333333334</ele><time>2026-04-18T12:06:49.068Z</time></trkpt><trkpt lat="43.0097237" lon="13.3271258"><ele>540.0</ele><time>2026-04-18T12:06:50.044Z</time></trkpt><trkpt lat="43.0099003" lon="13.3270734"><ele>536.6666666666666</ele><time>2026-04-18T12:06:51.061Z</time></trkpt><trkpt lat="43.0100922" lon="13.3270463"><ele>533.3333333333333</ele><time>2026-04-18T12:06:52.056Z</time></trkpt><trkpt lat="43.0102964" lon="13.3270403"><ele>530.0</ele><time>2026-04-18T12:06:53.052Z</time></trkpt><trkpt lat="43.0104945" lon="13.3270433"><ele>530.0</ele><time>2026-04-18T12:06:54.064Z</time></trkpt><trkpt lat="43.0106778" lon="13.3270501"><ele>530.0</ele><time>2026-04-18T12:06:55.056Z</time></trkpt><trkpt lat="43.010847" lon="13.3270647"><ele>530.0</ele><time>2026-04-18T12:06:56.069Z</time></trkpt><trkpt lat="43.0110062" lon="13.3270962"><ele>528.75</ele><time>2026-04-18T12:06:57.054Z</time></trkpt><trkpt lat="43.0111629" lon="13.3271471"><ele>527.5</ele><time>2026-04-18T12:06:58.058Z</time></trkpt><trkpt lat="43.0112935" lon="13.327193"><ele>526.25</ele><time>2026-04-18T12:06:59.051Z</time></trkpt><trkpt lat="43.0114271" lon="13.3272084"><ele>525.0</ele><time>2026-04-18T12:07:00.075Z</time></trkpt><trkpt lat="43.0115466" lon="13.3272117"><ele>525.0</ele><time>2026-04-18T12:07:01.063Z</time></trkpt><trkpt lat="43.0116585" lon="13.327187"><ele>525.0</ele><time>2026-04-18T12:07:02.066Z</time></trkpt><trkpt lat="43.0117566" lon="13.3271207"><ele>525.0</ele><time>2026-04-18T12:07:03.065Z</time></trkpt><trkpt lat="43.0118523" lon="13.3270198"><ele>525.0</ele><time>2026-04-18T12:07:04.059Z</time></trkpt><trkpt lat="43.0119475" lon="13.3269014"><ele>525.0</ele><time>2026-04-18T12:07:05.062Z</time></trkpt><trkpt lat="43.0120463" lon="13.326773"><ele>525.0</ele><time>2026-04-18T12:07:06.047Z</time></trkpt><trkpt lat="43.0121619" lon="13.3266376"><ele>525.0</ele><time>2026-04-18T12:07:07.059Z</time></trkpt><trkpt lat="43.0122934" lon="13.3264899"><ele>523.6666666666666</ele><time>2026-04-18T12:07:08.054Z</time></trkpt><trkpt lat="43.0124488" lon="13.3263667"><ele>522.3333333333333</ele><time>2026-04-18T12:07:09.044Z</time></trkpt><trkpt lat="43.0126079" lon="13.3263017"><ele>521.0</ele><time>2026-04-18T12:07:10.063Z</time></trkpt><trkpt lat="43.0127497" lon="13.3262336"><ele>519.0</ele><time>2026-04-18T12:07:11.037Z</time></trkpt><trkpt lat="43.0129012" lon="13.3261782"><ele>517.0</ele><time>2026-04-18T12:07:12.058Z</time></trkpt><trkpt lat="43.0130341" lon="13.3261331"><ele>515.0</ele><time>2026-04-18T12:07:13.052Z</time></trkpt><trkpt lat="43.0131606" lon="13.3261234"><ele>513.0</ele><time>2026-04-18T12:07:14.051Z</time></trkpt><trkpt lat="43.0132872" lon="13.3261294"><ele>509.25</ele><time>2026-04-18T12:07:15.041Z</time></trkpt><trkpt lat="43.0134132" lon="13.3262054"><ele>505.5</ele><time>2026-04-18T12:07:16.048Z</time></trkpt><trkpt lat="43.0135338" lon="13.3263099"><ele>501.75</ele><time>2026-04-18T12:07:17.024Z</time></trkpt><trkpt lat="43.0136413" lon="13.3264602"><ele>498.0</ele><time>2026-04-18T12:07:18.017Z</time></trkpt><trkpt lat="43.0137393" lon="13.326613"><ele>495.0</ele><time>2026-04-18T12:07:19.048Z</time></trkpt><trkpt lat="43.0138272" lon="13.3267727"><ele>492.0</ele><time>2026-04-18T12:07:20.068Z</time></trkpt><trkpt lat="43.0139509" lon="13.326895"><ele>489.0</ele><time>2026-04-18T12:07:21.028Z</time></trkpt><trkpt lat="43.0140988" lon="13.3269894"><ele>491.33333333333337</ele><time>2026-04-18T12:07:22.053Z</time></trkpt><trkpt lat="43.0142435" lon="13.3270746"><ele>493.6666666666667</ele><time>2026-04-18T12:07:23.018Z</time></trkpt><trkpt lat="43.0143844" lon="13.3271676"><ele>496.0</ele><time>2026-04-18T12:07:24.091Z</time></trkpt><trkpt lat="43.0145018" lon="13.3272635"><ele>491.75</ele><time>2026-04-18T12:07:25.023Z</time></trkpt><trkpt lat="43.0145982" lon="13.3273553"><ele>487.5</ele><time>2026-04-18T12:07:26.041Z</time></trkpt><trkpt lat="43.0146846" lon="13.3274355"><ele>483.25</ele><time>2026-04-18T12:07:27.053Z</time></trkpt><trkpt lat="43.0147856" lon="13.327503"><ele>479.0</ele><time>2026-04-18T12:07:28.018Z</time></trkpt><trkpt lat="43.0149018" lon="13.3275416"><ele>479.3333333333333</ele><time>2026-04-18T12:07:29.028Z</time></trkpt><trkpt lat="43.0150393" lon="13.327503"><ele>479.66666666666663</ele><time>2026-04-18T12:07:30.071Z</time></trkpt><trkpt lat="43.0151936" lon="13.3274165"><ele>480.0</ele><time>2026-04-18T12:07:31.055Z</time></trkpt><trkpt lat="43.0153632" lon="13.3272818"><ele>481.66666666666663</ele><time>2026-04-18T12:07:32.027Z</time></trkpt><trkpt lat="43.0155093" lon="13.3271619"><ele>483.3333333333333</ele><time>2026-04-18T12:07:33.025Z</time></trkpt><trkpt lat="43.0156382" lon="13.3270498"><ele>485.0</ele><time>2026-04-18T12:07:34.049Z</time></trkpt><trkpt lat="43.0157323" lon="13.3269186"><ele>485.0</ele><time>2026-04-18T12:07:35.051Z</time></trkpt><trkpt lat="43.0157956" lon="13.3267329"><ele>485.0</ele><time>2026-04-18T12:07:36.034Z</time></trkpt><trkpt lat="43.0158118" lon="13.3265489"><ele>485.0</ele><time>2026-04-18T12:07:37.057Z</time></trkpt><trkpt lat="43.0158103" lon="13.3263893"><ele>485.0</ele><time>2026-04-18T12:07:38.013Z</time></trkpt><trkpt lat="43.0158013" lon="13.3262352"><ele>482.5</ele><time>2026-04-18T12:07:39.033Z</time></trkpt><trkpt lat="43.015729" lon="13.3261075"><ele>480.0</ele><time>2026-04-18T12:07:40.067Z</time></trkpt><trkpt lat="43.0156273" lon="13.3259867"><ele>477.5</ele><time>2026-04-18T12:07:41.106Z</time></trkpt><trkpt lat="43.0155151" lon="13.3258718"><ele>475.0</ele><time>2026-04-18T12:07:42.052Z</time></trkpt><trkpt lat="43.0153714" lon="13.3257774"><ele>475.0</ele><time>2026-04-18T12:07:43.014Z</time></trkpt><trkpt lat="43.0152208" lon="13.3257208"><ele>475.0</ele><time>2026-04-18T12:07:44.042Z</time></trkpt><trkpt lat="43.0151057" lon="13.3256385"><ele>475.0</ele><time>2026-04-18T12:07:45.027Z</time></trkpt><trkpt lat="43.014995" lon="13.3255498"><ele>475.0</ele><time>2026-04-18T12:07:46.04Z</time></trkpt><trkpt lat="43.0149372" lon="13.3253965"><ele>475.5</ele><time>2026-04-18T12:07:47.047Z</time></trkpt><trkpt lat="43.0149216" lon="13.325216"><ele>476.0</ele><time>2026-04-18T12:07:48.022Z</time></trkpt><trkpt lat="43.0149346" lon="13.3250191"><ele>476.5</ele><time>2026-04-18T12:07:49.032Z</time></trkpt><trkpt lat="43.0149736" lon="13.3248298"><ele>477.0</ele><time>2026-04-18T12:07:50.046Z</time></trkpt><trkpt lat="43.0150222" lon="13.3246542"><ele>477.0</ele><time>2026-04-18T12:07:51.043Z</time></trkpt><trkpt lat="43.0151214" lon="13.3245107"><ele>477.0</ele><time>2026-04-18T12:07:52.036Z</time></trkpt><trkpt lat="43.0152277" lon="13.3243696"><ele>477.0</ele><time>2026-04-18T12:07:53.01Z</time></trkpt><trkpt lat="43.0154011" lon="13.3242502"><ele>477.0</ele><time>2026-04-18T12:07:54.045Z</time></trkpt><trkpt lat="43.0155885" lon="13.3241445"><ele>477.0</ele><time>2026-04-18T12:07:55.05Z</time></trkpt><trkpt lat="43.015787" lon="13.3240641"><ele>477.0</ele><time>2026-04-18T12:07:56.024Z</time></trkpt><trkpt lat="43.0159916" lon="13.3239869"><ele>474.0</ele><time>2026-04-18T12:07:57.065Z</time></trkpt><trkpt lat="43.0161792" lon="13.3238656"><ele>471.0</ele><time>2026-04-18T12:07:58.057Z</time></trkpt><trkpt lat="43.0163586" lon="13.3237827"><ele>468.0</ele><time>2026-04-18T12:07:59.049Z</time></trkpt><trkpt lat="43.0165239" lon="13.3237021"><ele>464.33333333333337</ele><time>2026-04-18T12:08:00.021Z</time></trkpt><trkpt lat="43.0166854" lon="13.3236338"><ele>460.6666666666667</ele><time>2026-04-18T12:08:01.029Z</time></trkpt><trkpt lat="43.0168278" lon="13.3235615"><ele>457.0</ele><time>2026-04-18T12:08:02.021Z</time></trkpt><trkpt lat="43.0169756" lon="13.3234873"><ele>457.0</ele><time>2026-04-18T12:08:03.021Z</time></trkpt><trkpt lat="43.0171327" lon="13.3234214"><ele>457.0</ele><time>2026-04-18T12:08:04.049Z</time></trkpt><trkpt lat="43.0172956" lon="13.3233797"><ele>457.0</ele><time>2026-04-18T12:08:05.044Z</time></trkpt><trkpt lat="43.0174528" lon="13.3233643"><ele>454.25</ele><time>2026-04-18T12:08:06.027Z</time></trkpt><trkpt lat="43.0175973" lon="13.3233758"><ele>451.5</ele><time>2026-04-18T12:08:07.011Z</time></trkpt><trkpt lat="43.0177411" lon="13.3233911"><ele>448.75</ele><time>2026-04-18T12:08:08.017Z</time></trkpt><trkpt lat="43.0178721" lon="13.3234178"><ele>446.0</ele><time>2026-04-18T12:08:09.09Z</time></trkpt><trkpt lat="43.0179833" lon="13.3234298"><ele>446.0</ele><time>2026-04-18T12:08:10.062Z</time></trkpt><trkpt lat="43.0180835" lon="13.3234029"><ele>446.0</ele><time>2026-04-18T12:08:11.061Z</time></trkpt><trkpt lat="43.0181737" lon="13.3233352"><ele>446.0</ele><time>2026-04-18T12:08:12.064Z</time></trkpt><trkpt lat="43.0182644" lon="13.3232126"><ele>446.0</ele><time>2026-04-18T12:08:13.02Z</time></trkpt><trkpt lat="43.0183605" lon="13.3230739"><ele>442.0</ele><time>2026-04-18T12:08:14.07Z</time></trkpt><trkpt lat="43.0184573" lon="13.3228812"><ele>438.0</ele><time>2026-04-18T12:08:15.12Z</time></trkpt><trkpt lat="43.0185726" lon="13.3226517"><ele>434.0</ele><time>2026-04-18T12:08:16.037Z</time></trkpt><trkpt lat="43.0187048" lon="13.3224004"><ele>438.5</ele><time>2026-04-18T12:08:17.057Z</time></trkpt><trkpt lat="43.0188295" lon="13.3221488"><ele>443.0</ele><time>2026-04-18T12:08:18.03Z</time></trkpt><trkpt lat="43.0189605" lon="13.3218745"><ele>443.0</ele><time>2026-04-18T12:08:19.073Z</time></trkpt><trkpt lat="43.01909" lon="13.321612"><ele>443.0</ele><time>2026-04-18T12:08:20.068Z</time></trkpt><trkpt lat="43.0192074" lon="13.3213768"><ele>443.0</ele><time>2026-04-18T12:08:21.061Z</time></trkpt><trkpt lat="43.0193273" lon="13.3211417"><ele>449.66666666666663</ele><time>2026-04-18T12:08:22.06Z</time></trkpt><trkpt lat="43.0194511" lon="13.3209007"><ele>456.33333333333337</ele><time>2026-04-18T12:08:23.027Z</time></trkpt><trkpt lat="43.0195803" lon="13.3206551"><ele>463.0</ele><time>2026-04-18T12:08:24.054Z</time></trkpt><trkpt lat="43.0197279" lon="13.3204125"><ele>462.5</ele><time>2026-04-18T12:08:25.028Z</time></trkpt><trkpt lat="43.0199032" lon="13.3201744"><ele>462.0</ele><time>2026-04-18T12:08:26.103Z</time></trkpt><trkpt lat="43.0201016" lon="13.3199374"><ele>470.5</ele><time>2026-04-18T12:08:27.067Z</time></trkpt><trkpt lat="43.0203067" lon="13.3196911"><ele>479.0</ele><time>2026-04-18T12:08:28.025Z</time></trkpt><trkpt lat="43.0205312" lon="13.3194502"><ele>479.0</ele><time>2026-04-18T12:08:29.04Z</time></trkpt><trkpt lat="43.0207642" lon="13.3191907"><ele>479.0</ele><time>2026-04-18T12:08:30.05Z</time></trkpt><trkpt lat="43.0209799" lon="13.3189324"><ele>481.0</ele><time>2026-04-18T12:08:31.032Z</time></trkpt><trkpt lat="43.0211931" lon="13.318728"><ele>483.0</ele><time>2026-04-18T12:08:32.083Z</time></trkpt><trkpt lat="43.0213668" lon="13.3185362"><ele>483.0</ele><time>2026-04-18T12:08:33.029Z</time></trkpt><trkpt lat="43.0215312" lon="13.3183741"><ele>483.0</ele><time>2026-04-18T12:08:34.072Z</time></trkpt><trkpt lat="43.0216828" lon="13.318259"><ele>483.0</ele><time>2026-04-18T12:08:35.019Z</time></trkpt><trkpt lat="43.0218214" lon="13.3181999"><ele>480.0</ele><time>2026-04-18T12:08:36.049Z</time></trkpt><trkpt lat="43.021983" lon="13.3181947"><ele>477.0</ele><time>2026-04-18T12:08:37.052Z</time></trkpt><trkpt lat="43.0221711" lon="13.3182266"><ele>474.0</ele><time>2026-04-18T12:08:38.046Z</time></trkpt><trkpt lat="43.0223803" lon="13.3182648"><ele>475.66666666666663</ele><time>2026-04-18T12:08:39.071Z</time></trkpt><trkpt lat="43.0225939" lon="13.3183045"><ele>477.3333333333333</ele><time>2026-04-18T12:08:40.069Z</time></trkpt><trkpt lat="43.0227855" lon="13.3183389"><ele>479.0</ele><time>2026-04-18T12:08:41.127Z</time></trkpt><trkpt lat="43.0229555" lon="13.3183588"><ele>479.0</ele><time>2026-04-18T12:08:42.077Z</time></trkpt><trkpt lat="43.0231195" lon="13.3183442"><ele>479.0</ele><time>2026-04-18T12:08:43.043Z</time></trkpt><trkpt lat="43.0232859" lon="13.3183199"><ele>479.0</ele><time>2026-04-18T12:08:44.063Z</time></trkpt><trkpt lat="43.0234682" lon="13.318217"><ele>480.66666666666663</ele><time>2026-04-18T12:08:45.051Z</time></trkpt><trkpt lat="43.0236538" lon="13.3180902"><ele>482.33333333333337</ele><time>2026-04-18T12:08:46.045Z</time></trkpt><trkpt lat="43.0238395" lon="13.3179596"><ele>484.0</ele><time>2026-04-18T12:08:47.033Z</time></trkpt><trkpt lat="43.0240113" lon="13.3178429"><ele>485.6666666666667</ele><time>2026-04-18T12:08:48.037Z</time></trkpt><trkpt lat="43.0241801" lon="13.3177296"><ele>487.33333333333337</ele><time>2026-04-18T12:08:49.025Z</time></trkpt><trkpt lat="43.024353" lon="13.3176157"><ele>489.0</ele><time>2026-04-18T12:08:50.064Z</time></trkpt><trkpt lat="43.0245384" lon="13.3174905"><ele>489.0</ele><time>2026-04-18T12:08:51.063Z</time></trkpt><trkpt lat="43.0247474" lon="13.3173506"><ele>489.0</ele><time>2026-04-18T12:08:52.041Z</time></trkpt><trkpt lat="43.0249815" lon="13.3171965"><ele>487.0</ele><time>2026-04-18T12:08:53.043Z</time></trkpt><trkpt lat="43.02523" lon="13.3170338"><ele>485.0</ele><time>2026-04-18T12:08:54.043Z</time></trkpt><trkpt lat="43.0254978" lon="13.3168597"><ele>485.0</ele><time>2026-04-18T12:08:55.053Z</time></trkpt><trkpt lat="43.0257809" lon="13.3166782"><ele>485.0</ele><time>2026-04-18T12:08:56.026Z</time></trkpt><trkpt lat="43.0260752" lon="13.3164883"><ele>483.5</ele><time>2026-04-18T12:08:57.068Z</time></trkpt><trkpt lat="43.0263813" lon="13.3162929"><ele>482.0</ele><time>2026-04-18T12:08:58.102Z</time></trkpt><trkpt lat="43.0266964" lon="13.3160939"><ele>477.0</ele><time>2026-04-18T12:08:59.063Z</time></trkpt><trkpt lat="43.0270183" lon="13.3158866"><ele>472.0</ele><time>2026-04-18T12:09:00.071Z</time></trkpt><trkpt lat="43.0273436" lon="13.3156803"><ele>472.5</ele><time>2026-04-18T12:09:01.066Z</time></trkpt><trkpt lat="43.0276733" lon="13.3154696"><ele>473.0</ele><time>2026-04-18T12:09:02.081Z</time></trkpt><trkpt lat="43.0280037" lon="13.3152548"><ele>472.5</ele><time>2026-04-18T12:09:03.067Z</time></trkpt><trkpt lat="43.0283421" lon="13.3150414"><ele>472.0</ele><time>2026-04-18T12:09:04.081Z</time></trkpt><trkpt lat="43.0286729" lon="13.314831"><ele>472.0</ele><time>2026-04-18T12:09:05.084Z</time></trkpt><trkpt lat="43.029008" lon="13.3146174"><ele>472.0</ele><time>2026-04-18T12:09:06.054Z</time></trkpt><trkpt lat="43.0293336" lon="13.3144047"><ele>470.5</ele><time>2026-04-18T12:09:07.069Z</time></trkpt><trkpt lat="43.029625" lon="13.3142096"><ele>469.0</ele><time>2026-04-18T12:09:08.059Z</time></trkpt><trkpt lat="43.029889" lon="13.3140413"><ele>470.0</ele><time>2026-04-18T12:09:09.063Z</time></trkpt><trkpt lat="43.030124" lon="13.3138927"><ele>471.0</ele><time>2026-04-18T12:09:10.08Z</time></trkpt><trkpt lat="43.0303346" lon="13.3137596"><ele>471.0</ele><time>2026-04-18T12:09:11.063Z</time></trkpt><trkpt lat="43.0305287" lon="13.3136315"><ele>471.0</ele><time>2026-04-18T12:09:12.04Z</time></trkpt><trkpt lat="43.0307069" lon="13.313525"><ele>471.0</ele><time>2026-04-18T12:09:13.068Z</time></trkpt><trkpt lat="43.0308694" lon="13.3134293"><ele>469.5</ele><time>2026-04-18T12:09:14.08Z</time></trkpt><trkpt lat="43.0310165" lon="13.3133398"><ele>468.0</ele><time>2026-04-18T12:09:15.045Z</time></trkpt><trkpt lat="43.0311455" lon="13.3132558"><ele>466.5</ele><time>2026-04-18T12:09:16.07Z</time></trkpt><trkpt lat="43.0312581" lon="13.3131736"><ele>465.0</ele><time>2026-04-18T12:09:17.05Z</time></trkpt><trkpt lat="43.0313565" lon="13.3130789"><ele>466.5</ele><time>2026-04-18T12:09:18.056Z</time></trkpt><trkpt lat="43.0314328" lon="13.3129578"><ele>468.0</ele><time>2026-04-18T12:09:19.022Z</time></trkpt><trkpt lat="43.0314821" lon="13.3128092"><ele>469.5</ele><time>2026-04-18T12:09:20.063Z</time></trkpt><trkpt lat="43.0315086" lon="13.3126318"><ele>471.0</ele><time>2026-04-18T12:09:21.06Z</time></trkpt><trkpt lat="43.0315011" lon="13.3124062"><ele>473.33333333333337</ele><time>2026-04-18T12:09:22.073Z</time></trkpt><trkpt lat="43.0314757" lon="13.3121345"><ele>475.6666666666667</ele><time>2026-04-18T12:09:23.054Z</time></trkpt><trkpt lat="43.0314549" lon="13.3118306"><ele>478.0</ele><time>2026-04-18T12:09:24.052Z</time></trkpt><trkpt lat="43.0314342" lon="13.3115163"><ele>477.5</ele><time>2026-04-18T12:09:25.056Z</time></trkpt><trkpt lat="43.0314071" lon="13.3111672"><ele>477.0</ele><time>2026-04-18T12:09:26.018Z</time></trkpt><trkpt lat="43.0313889" lon="13.3108359"><ele>472.66666666666663</ele><time>2026-04-18T12:09:27.051Z</time></trkpt><trkpt lat="43.0313725" lon="13.3105341"><ele>468.3333333333333</ele><time>2026-04-18T12:09:28.05Z</time></trkpt><trkpt lat="43.0313558" lon="13.3102475"><ele>464.0</ele><time>2026-04-18T12:09:29.043Z</time></trkpt><trkpt lat="43.0313366" lon="13.3099514"><ele>462.0</ele><time>2026-04-18T12:09:30.058Z</time></trkpt><trkpt lat="43.0313106" lon="13.3096333"><ele>460.0</ele><time>2026-04-18T12:09:31.052Z</time></trkpt><trkpt lat="43.0312876" lon="13.309289"><ele>460.0</ele><time>2026-04-18T12:09:32.051Z</time></trkpt><trkpt lat="43.0312645" lon="13.3089514"><ele>460.0</ele><time>2026-04-18T12:09:33.041Z</time></trkpt><trkpt lat="43.0312475" lon="13.3086396"><ele>460.6666666666667</ele><time>2026-04-18T12:09:34.05Z</time></trkpt><trkpt lat="43.0312301" lon="13.3083581"><ele>461.33333333333337</ele><time>2026-04-18T12:09:35.045Z</time></trkpt><trkpt lat="43.0312099" lon="13.3081104"><ele>462.0</ele><time>2026-04-18T12:09:36.052Z</time></trkpt><trkpt lat="43.0311901" lon="13.3078771"><ele>462.0</ele><time>2026-04-18T12:09:37.06Z</time></trkpt><trkpt lat="43.0311794" lon="13.3076418"><ele>462.0</ele><time>2026-04-18T12:09:38.101Z</time></trkpt><trkpt lat="43.0311692" lon="13.3074022"><ele>462.0</ele><time>2026-04-18T12:09:39.023Z</time></trkpt><trkpt lat="43.0311507" lon="13.3071329"><ele>463.0</ele><time>2026-04-18T12:09:40.047Z</time></trkpt><trkpt lat="43.0311318" lon="13.3068664"><ele>464.0</ele><time>2026-04-18T12:09:41.043Z</time></trkpt><trkpt lat="43.0311071" lon="13.3065859"><ele>465.0</ele><time>2026-04-18T12:09:42.057Z</time></trkpt><trkpt lat="43.0310842" lon="13.306311"><ele>465.33333333333337</ele><time>2026-04-18T12:09:43.059Z</time></trkpt><trkpt lat="43.0310621" lon="13.3060211"><ele>465.6666666666667</ele><time>2026-04-18T12:09:44.044Z</time></trkpt><trkpt lat="43.0310395" lon="13.305733"><ele>466.0</ele><time>2026-04-18T12:09:45.046Z</time></trkpt><trkpt lat="43.0310151" lon="13.305429"><ele>466.0</ele><time>2026-04-18T12:09:46.037Z</time></trkpt><trkpt lat="43.0309908" lon="13.3051156"><ele>466.0</ele><time>2026-04-18T12:09:47.043Z</time></trkpt><trkpt lat="43.0309669" lon="13.3047943"><ele>465.5</ele><time>2026-04-18T12:09:48.065Z</time></trkpt><trkpt lat="43.0309449" lon="13.30447"><ele>465.0</ele><time>2026-04-18T12:09:49.101Z</time></trkpt><trkpt lat="43.0309183" lon="13.3041694"><ele>465.33333333333337</ele><time>2026-04-18T12:09:50.056Z</time></trkpt><trkpt lat="43.0308976" lon="13.3038773"><ele>465.6666666666667</ele><time>2026-04-18T12:09:51.066Z</time></trkpt><trkpt lat="43.0308837" lon="13.3036107"><ele>466.0</ele><time>2026-04-18T12:09:52.024Z</time></trkpt><trkpt lat="43.0308776" lon="13.3033649"><ele>466.0</ele><time>2026-04-18T12:09:53.05Z</time></trkpt><trkpt lat="43.0308614" lon="13.3031449"><ele>466.0</ele><time>2026-04-18T12:09:54.05Z</time></trkpt><trkpt lat="43.0308576" lon="13.3029513"><ele>466.0</ele><time>2026-04-18T12:09:55.04Z</time></trkpt><trkpt lat="43.0308721" lon="13.3027665"><ele>466.0</ele><time>2026-04-18T12:09:56.058Z</time></trkpt><trkpt lat="43.0309164" lon="13.3025909"><ele>465.6666666666667</ele><time>2026-04-18T12:09:57.051Z</time></trkpt><trkpt lat="43.0310017" lon="13.3024345"><ele>465.33333333333337</ele><time>2026-04-18T12:09:58.055Z</time></trkpt><trkpt lat="43.0310949" lon="13.3022717"><ele>465.0</ele><time>2026-04-18T12:09:59.049Z</time></trkpt><trkpt lat="43.0312415" lon="13.302131"><ele>465.0</ele><time>2026-04-18T12:10:00.051Z</time></trkpt><trkpt lat="43.0313961" lon="13.3019925"><ele>465.0</ele><time>2026-04-18T12:10:01.059Z</time></trkpt><trkpt lat="43.0315249" lon="13.3018606"><ele>465.0</ele><time>2026-04-18T12:10:02.057Z</time></trkpt><trkpt lat="43.0316507" lon="13.3017639"><ele>466.0</ele><time>2026-04-18T12:10:03.046Z</time></trkpt><trkpt lat="43.0317824" lon="13.3017061"><ele>467.0</ele><time>2026-04-18T12:10:04.059Z</time></trkpt><trkpt lat="43.0319046" lon="13.3016895"><ele>468.0</ele><time>2026-04-18T12:10:05.052Z</time></trkpt><trkpt lat="43.0320171" lon="13.3017143"><ele>469.0</ele><time>2026-04-18T12:10:06.05Z</time></trkpt><trkpt lat="43.0321195" lon="13.3017577"><ele>469.0</ele><time>2026-04-18T12:10:07.044Z</time></trkpt><trkpt lat="43.03221" lon="13.3017881"><ele>469.0</ele><time>2026-04-18T12:10:08.018Z</time></trkpt><trkpt lat="43.0322967" lon="13.3017859"><ele>469.0</ele><time>2026-04-18T12:10:09.035Z</time></trkpt><trkpt lat="43.0323727" lon="13.3017789"><ele>469.0</ele><time>2026-04-18T12:10:10.075Z</time></trkpt><trkpt lat="43.0324692" lon="13.3017732"><ele>469.0</ele><time>2026-04-18T12:10:12.025Z</time></trkpt><trkpt lat="43.03257" lon="13.3017332"><ele>470.0</ele><time>2026-04-18T12:10:27.004Z</time></trkpt><trkpt lat="43.032634" lon="13.3016969"><ele>471.0</ele><time>2026-04-18T12:10:28.055Z</time></trkpt><trkpt lat="43.0327157" lon="13.301671"><ele>472.0</ele><time>2026-04-18T12:10:29.014Z</time></trkpt><trkpt lat="43.0328147" lon="13.301654"><ele>473.0</ele><time>2026-04-18T12:10:30.046Z</time></trkpt><trkpt lat="43.0329215" lon="13.3016397"><ele>474.0</ele><time>2026-04-18T12:10:31.036Z</time></trkpt><trkpt lat="43.0330499" lon="13.3016432"><ele>474.0</ele><time>2026-04-18T12:10:32.05Z</time></trkpt><trkpt lat="43.0331633" lon="13.3016515"><ele>474.0</ele><time>2026-04-18T12:10:33.045Z</time></trkpt><trkpt lat="43.0332609" lon="13.3016758"><ele>474.0</ele><time>2026-04-18T12:10:34.033Z</time></trkpt><trkpt lat="43.0333509" lon="13.3016735"><ele>474.0</ele><time>2026-04-18T12:10:35.061Z</time></trkpt><trkpt lat="43.0334346" lon="13.3016519"><ele>474.0</ele><time>2026-04-18T12:10:36.043Z</time></trkpt><trkpt lat="43.03351" lon="13.3015517"><ele>476.5</ele><time>2026-04-18T12:10:37.052Z</time></trkpt><trkpt lat="43.0335733" lon="13.3013859"><ele>479.0</ele><time>2026-04-18T12:10:38.035Z</time></trkpt><trkpt lat="43.0336397" lon="13.3012193"><ele>481.5</ele><time>2026-04-18T12:10:39.026Z</time></trkpt><trkpt lat="43.0336893" lon="13.3010184"><ele>484.0</ele><time>2026-04-18T12:10:40.038Z</time></trkpt><trkpt lat="43.0337143" lon="13.3008056"><ele>484.6666666666667</ele><time>2026-04-18T12:10:41.023Z</time></trkpt><trkpt lat="43.0337317" lon="13.3005759"><ele>485.33333333333337</ele><time>2026-04-18T12:10:42.021Z</time></trkpt><trkpt lat="43.0337696" lon="13.3003321"><ele>486.0</ele><time>2026-04-18T12:10:43.008Z</time></trkpt><trkpt lat="43.0338087" lon="13.3001235"><ele>486.0</ele><time>2026-04-18T12:10:44.012Z</time></trkpt><trkpt lat="43.0338408" lon="13.2999057"><ele>486.0</ele><time>2026-04-18T12:10:45.062Z</time></trkpt><trkpt lat="43.0338671" lon="13.2996883"><ele>486.0</ele><time>2026-04-18T12:10:46.053Z</time></trkpt><trkpt lat="43.0338971" lon="13.2994983"><ele>487.8</ele><time>2026-04-18T12:10:47.024Z</time></trkpt><trkpt lat="43.0339281" lon="13.299329"><ele>489.6</ele><time>2026-04-18T12:10:48.041Z</time></trkpt><trkpt lat="43.0339565" lon="13.2991742"><ele>491.4</ele><time>2026-04-18T12:10:49.047Z</time></trkpt><trkpt lat="43.0339716" lon="13.2990349"><ele>493.2</ele><time>2026-04-18T12:10:50.116Z</time></trkpt><trkpt lat="43.0339854" lon="13.2989202"><ele>495.0</ele><time>2026-04-18T12:10:51.039Z</time></trkpt><trkpt lat="43.0339969" lon="13.2988182"><ele>495.8</ele><time>2026-04-18T12:10:52.081Z</time></trkpt><trkpt lat="43.0340151" lon="13.2986668"><ele>496.6</ele><time>2026-04-18T12:10:54.042Z</time></trkpt><trkpt lat="43.033997" lon="13.2985285"><ele>497.4</ele><time>2026-04-18T12:10:56.041Z</time></trkpt><trkpt lat="43.0339742" lon="13.2984381"><ele>498.2</ele><time>2026-04-18T12:10:57.054Z</time></trkpt><trkpt lat="43.0339008" lon="13.2983537"><ele>499.0</ele><time>2026-04-18T12:10:58.034Z</time></trkpt><trkpt lat="43.033804" lon="13.2982497"><ele>499.0</ele><time>2026-04-18T12:10:59.059Z</time></trkpt><trkpt lat="43.0336784" lon="13.298139"><ele>499.0</ele><time>2026-04-18T12:11:00.037Z</time></trkpt><trkpt lat="43.0335455" lon="13.2980315"><ele>499.0</ele><time>2026-04-18T12:11:01.089Z</time></trkpt><trkpt lat="43.0334054" lon="13.2979392"><ele>499.75</ele><time>2026-04-18T12:11:02.053Z</time></trkpt><trkpt lat="43.0332718" lon="13.2978488"><ele>500.5</ele><time>2026-04-18T12:11:03.046Z</time></trkpt><trkpt lat="43.0331505" lon="13.297764"><ele>501.25</ele><time>2026-04-18T12:11:04.045Z</time></trkpt><trkpt lat="43.0330412" lon="13.2976853"><ele>502.0</ele><time>2026-04-18T12:11:05.049Z</time></trkpt><trkpt lat="43.0329371" lon="13.2976078"><ele>502.0</ele><time>2026-04-18T12:11:06.056Z</time></trkpt><trkpt lat="43.0328363" lon="13.2975339"><ele>502.0</ele><time>2026-04-18T12:11:07.102Z</time></trkpt><trkpt lat="43.0327503" lon="13.2974548"><ele>502.0</ele><time>2026-04-18T12:11:08.055Z</time></trkpt><trkpt lat="43.0326254" lon="13.2973758"><ele>502.0</ele><time>2026-04-18T12:11:09.058Z</time></trkpt><trkpt lat="43.0324996" lon="13.2973068"><ele>503.33333333333337</ele><time>2026-04-18T12:11:10.045Z</time></trkpt><trkpt lat="43.0323539" lon="13.2972423"><ele>504.66666666666663</ele><time>2026-04-18T12:11:11.02Z</time></trkpt><trkpt lat="43.0321882" lon="13.2971832"><ele>506.0</ele><time>2026-04-18T12:11:12.051Z</time></trkpt><trkpt lat="43.0320252" lon="13.2971415"><ele>506.0</ele><time>2026-04-18T12:11:13.107Z</time></trkpt><trkpt lat="43.0318786" lon="13.2971036"><ele>506.0</ele><time>2026-04-18T12:11:14.062Z</time></trkpt><trkpt lat="43.0317513" lon="13.297064"><ele>506.0</ele><time>2026-04-18T12:11:15.026Z</time></trkpt><trkpt lat="43.0316386" lon="13.2970302"><ele>506.0</ele><time>2026-04-18T12:11:16.064Z</time></trkpt><trkpt lat="43.0315482" lon="13.2970025"><ele>504.20000000000005</ele><time>2026-04-18T12:11:17.041Z</time></trkpt><trkpt lat="43.0314793" lon="13.2969782"><ele>502.40000000000003</ele><time>2026-04-18T12:11:18.051Z</time></trkpt><trkpt lat="43.0314052" lon="13.2968827"><ele>500.6</ele><time>2026-04-18T12:11:20.05Z</time></trkpt><trkpt lat="43.031448" lon="13.2966985"><ele>498.8</ele><time>2026-04-18T12:11:22.036Z</time></trkpt><trkpt lat="43.0315092" lon="13.2965886"><ele>497.0</ele><time>2026-04-18T12:11:23.057Z</time></trkpt><trkpt lat="43.03158" lon="13.2964708"><ele>501.5</ele><time>2026-04-18T12:11:24.077Z</time></trkpt><trkpt lat="43.0316507" lon="13.296331"><ele>506.0</ele><time>2026-04-18T12:11:25.041Z</time></trkpt><trkpt lat="43.0317695" lon="13.296183"><ele>510.5</ele><time>2026-04-18T12:11:26.05Z</time></trkpt><trkpt lat="43.0318487" lon="13.2960067"><ele>515.0</ele><time>2026-04-18T12:11:27.036Z</time></trkpt><trkpt lat="43.0319332" lon="13.2958652"><ele>515.0</ele><time>2026-04-18T12:11:28.076Z</time></trkpt><trkpt lat="43.0320048" lon="13.2957576"><ele>515.0</ele><time>2026-04-18T12:11:29.055Z</time></trkpt><trkpt lat="43.0320858" lon="13.2956646"><ele>515.0</ele><time>2026-04-18T12:11:30.073Z</time></trkpt><trkpt lat="43.0321825" lon="13.2955958"><ele>515.0</ele><time>2026-04-18T12:11:31.04Z</time></trkpt><trkpt lat="43.032274" lon="13.2955474"><ele>515.0</ele><time>2026-04-18T12:11:32.053Z</time></trkpt><trkpt lat="43.0323612" lon="13.2955048"><ele>516.1666666666666</ele><time>2026-04-18T12:11:33.031Z</time></trkpt><trkpt lat="43.032449" lon="13.2954603"><ele>517.3333333333333</ele><time>2026-04-18T12:11:34.046Z</time></trkpt><trkpt lat="43.0325285" lon="13.2954214"><ele>518.5</ele><time>2026-04-18T12:11:35.026Z</time></trkpt><trkpt lat="43.0326091" lon="13.2953879"><ele>519.6666666666666</ele><time>2026-04-18T12:11:36.028Z</time></trkpt><trkpt lat="43.0326819" lon="13.2953523"><ele>520.8333333333334</ele><time>2026-04-18T12:11:37.046Z</time></trkpt><trkpt lat="43.0327402" lon="13.2953194"><ele>522.0</ele><time>2026-04-18T12:11:38.057Z</time></trkpt><trkpt lat="43.0328204" lon="13.29527"><ele>522.8000000000001</ele><time>2026-04-18T12:11:40.029Z</time></trkpt><trkpt lat="43.0329072" lon="13.2952253"><ele>523.6</ele><time>2026-04-18T12:11:47.015Z</time></trkpt><trkpt lat="43.032989" lon="13.2950855"><ele>524.4000000000001</ele><time>2026-04-18T12:11:49.065Z</time></trkpt><trkpt lat="43.0330382" lon="13.2949929"><ele>525.2</ele><time>2026-04-18T12:11:50.025Z</time></trkpt><trkpt lat="43.0331011" lon="13.2949178"><ele>526.0</ele><time>2026-04-18T12:11:51.057Z</time></trkpt><trkpt lat="43.0331738" lon="13.2949078"><ele>526.0</ele><time>2026-04-18T12:11:52.085Z</time></trkpt><trkpt lat="43.0332454" lon="13.2949409"><ele>526.0</ele><time>2026-04-18T12:11:53.053Z</time></trkpt><trkpt lat="43.0333011" lon="13.2949966"><ele>526.0</ele><time>2026-04-18T12:11:54.046Z</time></trkpt><trkpt lat="43.0333603" lon="13.2950587"><ele>526.0</ele><time>2026-04-18T12:11:55.02Z</time></trkpt><trkpt lat="43.0334292" lon="13.2951272"><ele>526.0</ele><time>2026-04-18T12:11:56.053Z</time></trkpt><trkpt lat="43.0335021" lon="13.2952095"><ele>526.0</ele><time>2026-04-18T12:11:57.058Z</time></trkpt><trkpt lat="43.0335666" lon="13.2953"><ele>527.3333333333334</ele><time>2026-04-18T12:11:58.04Z</time></trkpt><trkpt lat="43.0336364" lon="13.2953721"><ele>528.6666666666667</ele><time>2026-04-18T12:11:59.047Z</time></trkpt><trkpt lat="43.0337082" lon="13.2954388"><ele>530.0</ele><time>2026-04-18T12:12:00.027Z</time></trkpt><trkpt lat="43.0337863" lon="13.2954757"><ele>531.3333333333334</ele><time>2026-04-18T12:12:01.049Z</time></trkpt><trkpt lat="43.0338664" lon="13.2955009"><ele>532.6666666666666</ele><time>2026-04-18T12:12:02.059Z</time></trkpt><trkpt lat="43.0339609" lon="13.295512"><ele>534.0</ele><time>2026-04-18T12:12:03.061Z</time></trkpt><trkpt lat="43.034064" lon="13.2954897"><ele>536.5</ele><time>2026-04-18T12:12:04.053Z</time></trkpt><trkpt lat="43.0341524" lon="13.2954692"><ele>539.0</ele><time>2026-04-18T12:12:05.021Z</time></trkpt><trkpt lat="43.034236" lon="13.2954557"><ele>541.5</ele><time>2026-04-18T12:12:06.031Z</time></trkpt><trkpt lat="43.0343061" lon="13.2954427"><ele>544.0</ele><time>2026-04-18T12:12:07.013Z</time></trkpt><trkpt lat="43.0343691" lon="13.2954278"><ele>546.5</ele><time>2026-04-18T12:12:08.048Z</time></trkpt><trkpt lat="43.0344703" lon="13.2953871"><ele>549.0</ele><time>2026-04-18T12:12:10.04Z</time></trkpt><trkpt lat="43.0345178" lon="13.2952821"><ele>549.0</ele><time>2026-04-18T12:12:12.057Z</time></trkpt><trkpt lat="43.0344861" lon="13.295114"><ele>549.0</ele><time>2026-04-18T12:12:14.07Z</time></trkpt><trkpt lat="43.03445" lon="13.295019"><ele>549.0</ele><time>2026-04-18T12:12:15.029Z</time></trkpt><trkpt lat="43.0344112" lon="13.2949307"><ele>549.0</ele><time>2026-04-18T12:12:16.05Z</time></trkpt><trkpt lat="43.0343837" lon="13.2948431"><ele>549.0</ele><time>2026-04-18T12:12:17.059Z</time></trkpt><trkpt lat="43.0343711" lon="13.2947492"><ele>549.0</ele><time>2026-04-18T12:12:18.052Z</time></trkpt><trkpt lat="43.034385" lon="13.2946644"><ele>550.0</ele><time>2026-04-18T12:12:19.067Z</time></trkpt><trkpt lat="43.0344201" lon="13.2945854"><ele>551.0</ele><time>2026-04-18T12:12:20.061Z</time></trkpt><trkpt lat="43.0344621" lon="13.2945098"><ele>552.0</ele><time>2026-04-18T12:12:21.027Z</time></trkpt><trkpt lat="43.0345073" lon="13.2944422"><ele>553.0</ele><time>2026-04-18T12:12:22.062Z</time></trkpt><trkpt lat="43.0345749" lon="13.2943163"><ele>554.0</ele><time>2026-04-18T12:12:24.055Z</time></trkpt><trkpt lat="43.0345968" lon="13.2942326"><ele>555.0</ele><time>2026-04-18T12:12:25.025Z</time></trkpt><trkpt lat="43.0346034" lon="13.2941438"><ele>556.0</ele><time>2026-04-18T12:12:26.052Z</time></trkpt><trkpt lat="43.0346" lon="13.2940177"><ele>558.2</ele><time>2026-04-18T12:12:28.055Z</time></trkpt><trkpt lat="43.0346174" lon="13.2937842"><ele>560.4000000000001</ele><time>2026-04-18T12:12:34.998Z</time></trkpt><trkpt lat="43.0346336" lon="13.293691"><ele>562.6</ele><time>2026-04-18T12:12:36.033Z</time></trkpt><trkpt lat="43.0346551" lon="13.2935904"><ele>564.8000000000001</ele><time>2026-04-18T12:12:37.06Z</time></trkpt><trkpt lat="43.0346835" lon="13.2934807"><ele>567.0</ele><time>2026-04-18T12:12:38.058Z</time></trkpt><trkpt lat="43.0347098" lon="13.293372"><ele>567.0</ele><time>2026-04-18T12:12:39.031Z</time></trkpt><trkpt lat="43.034742" lon="13.2932545"><ele>567.0</ele><time>2026-04-18T12:12:40.054Z</time></trkpt><trkpt lat="43.0347676" lon="13.2931311"><ele>567.0</ele><time>2026-04-18T12:12:41.093Z</time></trkpt><trkpt lat="43.0347794" lon="13.2929961"><ele>567.0</ele><time>2026-04-18T12:12:42.066Z</time></trkpt><trkpt lat="43.0347645" lon="13.2928402"><ele>567.0</ele><time>2026-04-18T12:12:43.073Z</time></trkpt><trkpt lat="43.0347434" lon="13.2926583"><ele>568.8000000000001</ele><time>2026-04-18T12:12:44.053Z</time></trkpt><trkpt lat="43.0347381" lon="13.292485"><ele>570.6</ele><time>2026-04-18T12:12:45.042Z</time></trkpt><trkpt lat="43.0347221" lon="13.2923151"><ele>572.4000000000001</ele><time>2026-04-18T12:12:46.037Z</time></trkpt><trkpt lat="43.0347149" lon="13.2921738"><ele>574.2</ele><time>2026-04-18T12:12:47.064Z</time></trkpt><trkpt lat="43.0347159" lon="13.2920601"><ele>576.0</ele><time>2026-04-18T12:12:48.067Z</time></trkpt><trkpt lat="43.034717" lon="13.2919268"><ele>578.0</ele><time>2026-04-18T12:12:49.051Z</time></trkpt><trkpt lat="43.0347251" lon="13.2917658"><ele>580.0</ele><time>2026-04-18T12:12:50.058Z</time></trkpt><trkpt lat="43.0347293" lon="13.2915707"><ele>582.0</ele><time>2026-04-18T12:12:51.084Z</time></trkpt><trkpt lat="43.0347265" lon="13.291341"><ele>584.0</ele><time>2026-04-18T12:12:52.047Z</time></trkpt><trkpt lat="43.0347206" lon="13.2910846"><ele>586.6666666666666</ele><time>2026-04-18T12:12:53.045Z</time></trkpt><trkpt lat="43.0347242" lon="13.2908227"><ele>589.3333333333334</ele><time>2026-04-18T12:12:54.054Z</time></trkpt><trkpt lat="43.0347241" lon="13.2905697"><ele>592.0</ele><time>2026-04-18T12:12:55.063Z</time></trkpt><trkpt lat="43.0347153" lon="13.290344"><ele>592.75</ele><time>2026-04-18T12:12:56.055Z</time></trkpt><trkpt lat="43.034704" lon="13.2901432"><ele>593.5</ele><time>2026-04-18T12:12:57.05Z</time></trkpt><trkpt lat="43.0346948" lon="13.2899619"><ele>594.25</ele><time>2026-04-18T12:12:58.137Z</time></trkpt><trkpt lat="43.0346867" lon="13.2897984"><ele>595.0</ele><time>2026-04-18T12:12:59.061Z</time></trkpt><trkpt lat="43.0346769" lon="13.2896434"><ele>595.0</ele><time>2026-04-18T12:13:00.052Z</time></trkpt><trkpt lat="43.034663" lon="13.2894858"><ele>595.0</ele><time>2026-04-18T12:13:01.048Z</time></trkpt><trkpt lat="43.0346536" lon="13.2893337"><ele>595.0</ele><time>2026-04-18T12:13:02.071Z</time></trkpt><trkpt lat="43.0346397" lon="13.2891805"><ele>595.0</ele><time>2026-04-18T12:13:03.052Z</time></trkpt><trkpt lat="43.0346111" lon="13.2890296"><ele>594.0</ele><time>2026-04-18T12:13:04.109Z</time></trkpt><trkpt lat="43.0345865" lon="13.288876"><ele>593.0</ele><time>2026-04-18T12:13:05.07Z</time></trkpt><trkpt lat="43.0345615" lon="13.2887136"><ele>592.0</ele><time>2026-04-18T12:13:06.071Z</time></trkpt><trkpt lat="43.0345308" lon="13.2885415"><ele>591.0</ele><time>2026-04-18T12:13:07.035Z</time></trkpt><trkpt lat="43.0344949" lon="13.2883509"><ele>591.0</ele><time>2026-04-18T12:13:08.055Z</time></trkpt><trkpt lat="43.0344743" lon="13.288144"><ele>591.0</ele><time>2026-04-18T12:13:09.06Z</time></trkpt><trkpt lat="43.0344487" lon="13.287923"><ele>591.0</ele><time>2026-04-18T12:13:10.065Z</time></trkpt><trkpt lat="43.034432" lon="13.2876876"><ele>591.6666666666666</ele><time>2026-04-18T12:13:11.05Z</time></trkpt><trkpt lat="43.0344221" lon="13.2874561"><ele>592.3333333333333</ele><time>2026-04-18T12:13:12.043Z</time></trkpt><trkpt lat="43.0344081" lon="13.2872488"><ele>593.0</ele><time>2026-04-18T12:13:13.053Z</time></trkpt><trkpt lat="43.034368" lon="13.2870503"><ele>593.0</ele><time>2026-04-18T12:13:14.048Z</time></trkpt><trkpt lat="43.0343424" lon="13.2868835"><ele>593.0</ele><time>2026-04-18T12:13:15.036Z</time></trkpt><trkpt lat="43.0343177" lon="13.2867315"><ele>593.0</ele><time>2026-04-18T12:13:16.018Z</time></trkpt><trkpt lat="43.0342872" lon="13.2866"><ele>593.0</ele><time>2026-04-18T12:13:17.024Z</time></trkpt><trkpt lat="43.0342372" lon="13.2864809"><ele>593.0</ele><time>2026-04-18T12:13:18.048Z</time></trkpt><trkpt lat="43.034157" lon="13.2863925"><ele>594.5</ele><time>2026-04-18T12:13:19.056Z</time></trkpt><trkpt lat="43.0340518" lon="13.2863222"><ele>596.0</ele><time>2026-04-18T12:13:20.093Z</time></trkpt><trkpt lat="43.0339358" lon="13.286238"><ele>597.5</ele><time>2026-04-18T12:13:21.048Z</time></trkpt><trkpt lat="43.0338166" lon="13.2861268"><ele>599.0</ele><time>2026-04-18T12:13:22.022Z</time></trkpt><trkpt lat="43.033698" lon="13.2859534"><ele>599.0</ele><time>2026-04-18T12:13:23.04Z</time></trkpt><trkpt lat="43.0335731" lon="13.2857546"><ele>599.0</ele><time>2026-04-18T12:13:24.023Z</time></trkpt><trkpt lat="43.0334598" lon="13.2855693"><ele>599.0</ele><time>2026-04-18T12:13:25.019Z</time></trkpt><trkpt lat="43.0333666" lon="13.2854074"><ele>599.5</ele><time>2026-04-18T12:13:26.013Z</time></trkpt><trkpt lat="43.0332897" lon="13.2852313"><ele>600.0</ele><time>2026-04-18T12:13:27.025Z</time></trkpt><trkpt lat="43.0332269" lon="13.2850522"><ele>600.5</ele><time>2026-04-18T12:13:28.018Z</time></trkpt><trkpt lat="43.03317" lon="13.2849006"><ele>601.0</ele><time>2026-04-18T12:13:29.016Z</time></trkpt><trkpt lat="43.033121" lon="13.2847693"><ele>601.0</ele><time>2026-04-18T12:13:30.028Z</time></trkpt><trkpt lat="43.0330982" lon="13.2846518"><ele>601.0</ele><time>2026-04-18T12:13:31.011Z</time></trkpt><trkpt lat="43.0331013" lon="13.2845509"><ele>601.0</ele><time>2026-04-18T12:13:32.015Z</time></trkpt><trkpt lat="43.0331975" lon="13.2844739"><ele>601.0</ele><time>2026-04-18T12:13:34.024Z</time></trkpt><trkpt lat="43.0332761" lon="13.2844997"><ele>601.0</ele><time>2026-04-18T12:13:35.022Z</time></trkpt><trkpt lat="43.0333722" lon="13.2845431"><ele>605.25</ele><time>2026-04-18T12:13:36.048Z</time></trkpt><trkpt lat="43.0334885" lon="13.2845844"><ele>609.5</ele><time>2026-04-18T12:13:37.065Z</time></trkpt><trkpt lat="43.0336264" lon="13.2846109"><ele>613.75</ele><time>2026-04-18T12:13:38.062Z</time></trkpt><trkpt lat="43.033764" lon="13.2846285"><ele>618.0</ele><time>2026-04-18T12:13:39.049Z</time></trkpt><trkpt lat="43.0338803" lon="13.284629"><ele>618.0</ele><time>2026-04-18T12:13:40.022Z</time></trkpt><trkpt lat="43.0340006" lon="13.2846129"><ele>618.0</ele><time>2026-04-18T12:13:41.026Z</time></trkpt><trkpt lat="43.0341295" lon="13.2845591"><ele>618.0</ele><time>2026-04-18T12:13:42.021Z</time></trkpt><trkpt lat="43.0342821" lon="13.2844753"><ele>618.0</ele><time>2026-04-18T12:13:43.022Z</time></trkpt><trkpt lat="43.0344558" lon="13.2843796"><ele>621.3333333333334</ele><time>2026-04-18T12:13:44.027Z</time></trkpt><trkpt lat="43.0346293" lon="13.2842926"><ele>624.6666666666667</ele><time>2026-04-18T12:13:45.067Z</time></trkpt><trkpt lat="43.0347785" lon="13.2842148"><ele>628.0</ele><time>2026-04-18T12:13:46.061Z</time></trkpt><trkpt lat="43.0349084" lon="13.2841416"><ele>627.8</ele><time>2026-04-18T12:13:47.076Z</time></trkpt><trkpt lat="43.035019" lon="13.284068"><ele>627.5999999999999</ele><time>2026-04-18T12:13:48.058Z</time></trkpt><trkpt lat="43.0351113" lon="13.2839871"><ele>627.4000000000001</ele><time>2026-04-18T12:13:49.091Z</time></trkpt><trkpt lat="43.0351893" lon="13.2838882"><ele>627.2</ele><time>2026-04-18T12:13:50.055Z</time></trkpt><trkpt lat="43.0352645" lon="13.2837818"><ele>627.0</ele><time>2026-04-18T12:13:51.051Z</time></trkpt><trkpt lat="43.0353233" lon="13.2836419"><ele>631.3333333333334</ele><time>2026-04-18T12:13:52.07Z</time></trkpt><trkpt lat="43.0353603" lon="13.2834718"><ele>635.6666666666667</ele><time>2026-04-18T12:13:53.054Z</time></trkpt><trkpt lat="43.0354008" lon="13.2832744"><ele>640.0</ele><time>2026-04-18T12:13:54.056Z</time></trkpt><trkpt lat="43.0354347" lon="13.2830449"><ele>642.0</ele><time>2026-04-18T12:13:55.004Z</time></trkpt><trkpt lat="43.0354724" lon="13.2828022"><ele>644.0</ele><time>2026-04-18T12:13:56.008Z</time></trkpt><trkpt lat="43.0355098" lon="13.2825691"><ele>646.0</ele><time>2026-04-18T12:13:57.044Z</time></trkpt><trkpt lat="43.0355426" lon="13.2823617"><ele>646.75</ele><time>2026-04-18T12:13:58.09Z</time></trkpt><trkpt lat="43.0355765" lon="13.2821854"><ele>647.5</ele><time>2026-04-18T12:13:59.072Z</time></trkpt><trkpt lat="43.0356257" lon="13.2820161"><ele>648.25</ele><time>2026-04-18T12:14:00.069Z</time></trkpt><trkpt lat="43.0356587" lon="13.2818526"><ele>649.0</ele><time>2026-04-18T12:14:01.044Z</time></trkpt><trkpt lat="43.0356837" lon="13.2816941"><ele>649.0</ele><time>2026-04-18T12:14:02.045Z</time></trkpt><trkpt lat="43.0357174" lon="13.2815712"><ele>649.0</ele><time>2026-04-18T12:14:03.066Z</time></trkpt><trkpt lat="43.0357419" lon="13.281477"><ele>649.0</ele><time>2026-04-18T12:14:04.058Z</time></trkpt><trkpt lat="43.0357843" lon="13.2813852"><ele>649.0</ele><time>2026-04-18T12:14:05.067Z</time></trkpt><trkpt lat="43.035803" lon="13.2813014"><ele>649.0</ele><time>2026-04-18T12:14:06.061Z</time></trkpt><trkpt lat="43.0358027" lon="13.2811723"><ele>649.0</ele><time>2026-04-18T12:14:08.064Z</time></trkpt><trkpt lat="43.035758" lon="13.2810976"><ele>651.2</ele><time>2026-04-18T12:14:09.049Z</time></trkpt><trkpt lat="43.0357046" lon="13.2810072"><ele>653.4000000000001</ele><time>2026-04-18T12:14:10.054Z</time></trkpt><trkpt lat="43.0356708" lon="13.2809001"><ele>655.6</ele><time>2026-04-18T12:14:11.054Z</time></trkpt><trkpt lat="43.0356358" lon="13.2807767"><ele>657.8</ele><time>2026-04-18T12:14:12.049Z</time></trkpt><trkpt lat="43.0356306" lon="13.2806349"><ele>660.0</ele><time>2026-04-18T12:14:13.03Z</time></trkpt><trkpt lat="43.0356496" lon="13.2805008"><ele>661.0</ele><time>2026-04-18T12:14:14.007Z</time></trkpt><trkpt lat="43.0356844" lon="13.2803382"><ele>662.0</ele><time>2026-04-18T12:14:15.05Z</time></trkpt><trkpt lat="43.0357613" lon="13.2801795"><ele>663.0</ele><time>2026-04-18T12:14:16.033Z</time></trkpt><trkpt lat="43.0358481" lon="13.2800497"><ele>664.0</ele><time>2026-04-18T12:14:17.051Z</time></trkpt><trkpt lat="43.0359531" lon="13.2799158"><ele>673.0</ele><time>2026-04-18T12:14:18.009Z</time></trkpt><trkpt lat="43.036077" lon="13.2797581"><ele>682.0</ele><time>2026-04-18T12:14:19.006Z</time></trkpt><trkpt lat="43.0362601" lon="13.2796889"><ele>691.0</ele><time>2026-04-18T12:14:20.013Z</time></trkpt><trkpt lat="43.0364281" lon="13.2795389"><ele>691.0</ele><time>2026-04-18T12:14:21.029Z</time></trkpt><trkpt lat="43.0365844" lon="13.2794398"><ele>691.0</ele><time>2026-04-18T12:14:22.035Z</time></trkpt><trkpt lat="43.0367439" lon="13.2793225"><ele>691.0</ele><time>2026-04-18T12:14:23.086Z</time></trkpt><trkpt lat="43.0369211" lon="13.2792227"><ele>679.5</ele><time>2026-04-18T12:14:24.05Z</time></trkpt><trkpt lat="43.0371034" lon="13.2791513"><ele>668.0</ele><time>2026-04-18T12:14:25.045Z</time></trkpt><trkpt lat="43.0375868" lon="13.2789388"><ele>671.0</ele><time>2026-04-18T12:14:28.043Z</time></trkpt><trkpt lat="43.0377327" lon="13.2789514"><ele>674.0</ele><time>2026-04-18T12:14:29.041Z</time></trkpt><trkpt lat="43.0379418" lon="13.278988"><ele>677.0</ele><time>2026-04-18T12:14:31.042Z</time></trkpt><trkpt lat="43.0382144" lon="13.2788912"><ele>677.0</ele><time>2026-04-18T12:14:34.069Z</time></trkpt><trkpt lat="43.0382914" lon="13.2788039"><ele>677.0</ele><time>2026-04-18T12:14:35.1Z</time></trkpt><trkpt lat="43.0383803" lon="13.2786534"><ele>677.0</ele><time>2026-04-18T12:14:36.068Z</time></trkpt><trkpt lat="43.0384689" lon="13.2784692"><ele>677.0</ele><time>2026-04-18T12:14:37.053Z</time></trkpt><trkpt lat="43.0385722" lon="13.2782835"><ele>673.6666666666666</ele><time>2026-04-18T12:14:38.047Z</time></trkpt><trkpt lat="43.0386853" lon="13.2781385"><ele>670.3333333333334</ele><time>2026-04-18T12:14:39.061Z</time></trkpt><trkpt lat="43.0388017" lon="13.2779825"><ele>667.0</ele><time>2026-04-18T12:14:40.045Z</time></trkpt><trkpt lat="43.0389253" lon="13.277827"><ele>667.0</ele><time>2026-04-18T12:14:41.052Z</time></trkpt><trkpt lat="43.0390352" lon="13.2776689"><ele>667.0</ele><time>2026-04-18T12:14:42.052Z</time></trkpt><trkpt lat="43.0391551" lon="13.2775268"><ele>667.0</ele><time>2026-04-18T12:14:43.058Z</time></trkpt><trkpt lat="43.0392742" lon="13.2774177"><ele>660.25</ele><time>2026-04-18T12:14:44.048Z</time></trkpt><trkpt lat="43.039391" lon="13.2773353"><ele>653.5</ele><time>2026-04-18T12:14:45.048Z</time></trkpt><trkpt lat="43.0394984" lon="13.2772677"><ele>646.75</ele><time>2026-04-18T12:14:46.028Z</time></trkpt><trkpt lat="43.0395782" lon="13.2771839"><ele>640.0</ele><time>2026-04-18T12:14:47.035Z</time></trkpt><trkpt lat="43.0396715" lon="13.2770874"><ele>639.8333333333334</ele><time>2026-04-18T12:14:48.052Z</time></trkpt><trkpt lat="43.0397406" lon="13.276981"><ele>639.6666666666667</ele><time>2026-04-18T12:14:49.046Z</time></trkpt><trkpt lat="43.0398019" lon="13.2768969"><ele>639.5</ele><time>2026-04-18T12:14:50.054Z</time></trkpt><trkpt lat="43.0398526" lon="13.2768292"><ele>639.3333333333334</ele><time>2026-04-18T12:14:51.024Z</time></trkpt><trkpt lat="43.0399104" lon="13.2767472"><ele>639.1666666666666</ele><time>2026-04-18T12:14:53.019Z</time></trkpt><trkpt lat="43.0399829" lon="13.2766681"><ele>639.0</ele><time>2026-04-18T12:14:55.048Z</time></trkpt><trkpt lat="43.0400563" lon="13.2766235"><ele>636.1666666666666</ele><time>2026-04-18T12:14:56.023Z</time></trkpt><trkpt lat="43.0401468" lon="13.2765771"><ele>633.3333333333334</ele><time>2026-04-18T12:14:57.066Z</time></trkpt><trkpt lat="43.0402169" lon="13.2765431"><ele>630.5</ele><time>2026-04-18T12:14:58.052Z</time></trkpt><trkpt lat="43.0402804" lon="13.2765116"><ele>627.6666666666667</ele><time>2026-04-18T12:14:59.061Z</time></trkpt><trkpt lat="43.0403428" lon="13.2764872"><ele>624.8333333333334</ele><time>2026-04-18T12:15:00.082Z</time></trkpt><trkpt lat="43.040435" lon="13.27648"><ele>622.0</ele><time>2026-04-18T12:15:02.057Z</time></trkpt><trkpt lat="43.0405351" lon="13.2765247"><ele>622.0</ele><time>2026-04-18T12:15:05.981Z</time></trkpt><trkpt lat="43.0406159" lon="13.2766297"><ele>622.0</ele><time>2026-04-18T12:15:07.996Z</time></trkpt><trkpt lat="43.0406701" lon="13.2766853"><ele>622.0</ele><time>2026-04-18T12:15:09.019Z</time></trkpt><trkpt lat="43.0407674" lon="13.2767332"><ele>622.0</ele><time>2026-04-18T12:15:11.01Z</time></trkpt><trkpt lat="43.0408621" lon="13.276785"><ele>622.0</ele><time>2026-04-18T12:15:13.036Z</time></trkpt><trkpt lat="43.040933" lon="13.2768069"><ele>621.8333333333334</ele><time>2026-04-18T12:15:14.058Z</time></trkpt><trkpt lat="43.0410682" lon="13.2768153"><ele>621.6666666666667</ele><time>2026-04-18T12:15:16.057Z</time></trkpt><trkpt lat="43.0411536" lon="13.2768134"><ele>621.5</ele><time>2026-04-18T12:15:17.064Z</time></trkpt><trkpt lat="43.0412364" lon="13.2768061"><ele>621.3333333333334</ele><time>2026-04-18T12:15:18.045Z</time></trkpt><trkpt lat="43.0413017" lon="13.2767796"><ele>621.1666666666666</ele><time>2026-04-18T12:15:19.019Z</time></trkpt><trkpt lat="43.041365" lon="13.2767437"><ele>621.0</ele><time>2026-04-18T12:15:20.02Z</time></trkpt><trkpt lat="43.041469" lon="13.2767076"><ele>621.0</ele><time>2026-04-18T12:15:22.035Z</time></trkpt><trkpt lat="43.0415647" lon="13.276737"><ele>621.0</ele><time>2026-04-18T12:15:24.019Z</time></trkpt><trkpt lat="43.0416374" lon="13.276771"><ele>621.0</ele><time>2026-04-18T12:15:25.971Z</time></trkpt><trkpt lat="43.041705" lon="13.2768175"><ele>621.0</ele><time>2026-04-18T12:15:28.013Z</time></trkpt><trkpt lat="43.0417858" lon="13.2768998"><ele>621.0</ele><time>2026-04-18T12:15:31.987Z</time></trkpt><trkpt lat="43.0418762" lon="13.2770203"><ele>619.8333333333334</ele><time>2026-04-18T12:15:37.04Z</time></trkpt><trkpt lat="43.041913" lon="13.2771095"><ele>618.6666666666666</ele><time>2026-04-18T12:15:39.023Z</time></trkpt><trkpt lat="43.0419631" lon="13.2771832"><ele>617.5</ele><time>2026-04-18T12:15:42.041Z</time></trkpt><trkpt lat="43.0420396" lon="13.277255"><ele>616.3333333333333</ele><time>2026-04-18T12:15:45.025Z</time></trkpt><trkpt lat="43.0420922" lon="13.277338"><ele>615.1666666666666</ele><time>2026-04-18T12:15:47.015Z</time></trkpt><trkpt lat="43.0421794" lon="13.277458"><ele>614.0</ele><time>2026-04-18T12:15:49.058Z</time></trkpt><trkpt lat="43.0422656" lon="13.2775806"><ele>609.4</ele><time>2026-04-18T12:15:51.036Z</time></trkpt><trkpt lat="43.0423506" lon="13.2775685"><ele>604.8</ele><time>2026-04-18T12:15:53.998Z</time></trkpt><trkpt lat="43.04245" lon="13.2774917"><ele>600.2</ele><time>2026-04-18T12:15:56.019Z</time></trkpt><trkpt lat="43.0425256" lon="13.2774434"><ele>595.6</ele><time>2026-04-18T12:15:57.032Z</time></trkpt><trkpt lat="43.042604" lon="13.277351"><ele>591.0</ele><time>2026-04-18T12:15:58.08Z</time></trkpt><trkpt lat="43.0426823" lon="13.2772819"><ele>591.4</ele><time>2026-04-18T12:15:59.026Z</time></trkpt><trkpt lat="43.0427481" lon="13.2772412"><ele>591.8</ele><time>2026-04-18T12:16:00.047Z</time></trkpt><trkpt lat="43.0428255" lon="13.2771913"><ele>592.1999999999999</ele><time>2026-04-18T12:16:01.045Z</time></trkpt><trkpt lat="43.0429061" lon="13.2771185"><ele>592.6</ele><time>2026-04-18T12:16:02.013Z</time></trkpt><trkpt lat="43.0429908" lon="13.2770362"><ele>593.0</ele><time>2026-04-18T12:16:03.057Z</time></trkpt><trkpt lat="43.0430594" lon="13.2769446"><ele>593.0</ele><time>2026-04-18T12:16:04.042Z</time></trkpt><trkpt lat="43.0431292" lon="13.2768694"><ele>593.0</ele><time>2026-04-18T12:16:05.039Z</time></trkpt><trkpt lat="43.0431957" lon="13.2767795"><ele>593.0</ele><time>2026-04-18T12:16:06.052Z</time></trkpt><trkpt lat="43.0432449" lon="13.2766916"><ele>593.0</ele><time>2026-04-18T12:16:07.062Z</time></trkpt><trkpt lat="43.0433048" lon="13.2766035"><ele>593.0</ele><time>2026-04-18T12:16:08.04Z</time></trkpt><trkpt lat="43.043365" lon="13.2765133"><ele>593.0</ele><time>2026-04-18T12:16:09.04Z</time></trkpt><trkpt lat="43.0434074" lon="13.2764334"><ele>589.4</ele><time>2026-04-18T12:16:10.053Z</time></trkpt><trkpt lat="43.0434594" lon="13.2763658"><ele>585.8</ele><time>2026-04-18T12:16:11.033Z</time></trkpt><trkpt lat="43.0435126" lon="13.2763042"><ele>582.2</ele><time>2026-04-18T12:16:12.011Z</time></trkpt><trkpt lat="43.043594" lon="13.276197"><ele>578.6</ele><time>2026-04-18T12:16:14.052Z</time></trkpt><trkpt lat="43.0436807" lon="13.2760648"><ele>575.0</ele><time>2026-04-18T12:16:16.065Z</time></trkpt><trkpt lat="43.0437517" lon="13.2760051"><ele>575.0</ele><time>2026-04-18T12:16:17.048Z</time></trkpt><trkpt lat="43.0438241" lon="13.2759596"><ele>575.0</ele><time>2026-04-18T12:16:18.051Z</time></trkpt><trkpt lat="43.043916" lon="13.2759093"><ele>575.0</ele><time>2026-04-18T12:16:19.047Z</time></trkpt><trkpt lat="43.0440301" lon="13.2758695"><ele>575.0</ele><time>2026-04-18T12:16:20.049Z</time></trkpt><trkpt lat="43.0441126" lon="13.2758248"><ele>575.0</ele><time>2026-04-18T12:16:21.057Z</time></trkpt><trkpt lat="43.0441808" lon="13.2757892"><ele>572.1666666666666</ele><time>2026-04-18T12:16:22.056Z</time></trkpt><trkpt lat="43.0442508" lon="13.2757488"><ele>569.3333333333333</ele><time>2026-04-18T12:16:23.045Z</time></trkpt><trkpt lat="43.044317" lon="13.2756935"><ele>566.5</ele><time>2026-04-18T12:16:24.038Z</time></trkpt><trkpt lat="43.0444016" lon="13.2756629"><ele>563.6666666666666</ele><time>2026-04-18T12:16:25.029Z</time></trkpt><trkpt lat="43.0444686" lon="13.2756234"><ele>560.8333333333334</ele><time>2026-04-18T12:16:26.041Z</time></trkpt><trkpt lat="43.0445602" lon="13.275586"><ele>558.0</ele><time>2026-04-18T12:16:28.06Z</time></trkpt><trkpt lat="43.0446012" lon="13.2754873"><ele>556.5</ele><time>2026-04-18T12:16:32.023Z</time></trkpt><trkpt lat="43.0445124" lon="13.2753973"><ele>555.0</ele><time>2026-04-18T12:16:33.977Z</time></trkpt><trkpt lat="43.0444587" lon="13.2752948"><ele>553.5</ele><time>2026-04-18T12:16:35.029Z</time></trkpt><trkpt lat="43.04443" lon="13.2751502"><ele>552.0</ele><time>2026-04-18T12:16:36.055Z</time></trkpt><trkpt lat="43.0444202" lon="13.2749533"><ele>549.6666666666666</ele><time>2026-04-18T12:16:37.044Z</time></trkpt><trkpt lat="43.0444365" lon="13.2747263"><ele>547.3333333333333</ele><time>2026-04-18T12:16:38.042Z</time></trkpt><trkpt lat="43.0444542" lon="13.2744943"><ele>545.0</ele><time>2026-04-18T12:16:39.066Z</time></trkpt><trkpt lat="43.0444696" lon="13.2742944"><ele>545.0</ele><time>2026-04-18T12:16:40.055Z</time></trkpt><trkpt lat="43.0444851" lon="13.2741183"><ele>545.0</ele><time>2026-04-18T12:16:41.041Z</time></trkpt><trkpt lat="43.0444962" lon="13.2739592"><ele>545.0</ele><time>2026-04-18T12:16:42.029Z</time></trkpt><trkpt lat="43.044517" lon="13.2738075"><ele>545.0</ele><time>2026-04-18T12:16:43.048Z</time></trkpt><trkpt lat="43.0445473" lon="13.2736665"><ele>543.0</ele><time>2026-04-18T12:16:44.049Z</time></trkpt><trkpt lat="43.0445936" lon="13.2735389"><ele>541.0</ele><time>2026-04-18T12:16:45.047Z</time></trkpt><trkpt lat="43.0446607" lon="13.2734257"><ele>539.0</ele><time>2026-04-18T12:16:46.058Z</time></trkpt><trkpt lat="43.0447358" lon="13.2733514"><ele>537.0</ele><time>2026-04-18T12:16:47.041Z</time></trkpt><trkpt lat="43.0448133" lon="13.2732957"><ele>535.0</ele><time>2026-04-18T12:16:48.045Z</time></trkpt><trkpt lat="43.0448773" lon="13.2732687"><ele>535.0</ele><time>2026-04-18T12:16:49.04Z</time></trkpt><trkpt lat="43.0449401" lon="13.2732878"><ele>535.0</ele><time>2026-04-18T12:16:50.052Z</time></trkpt><trkpt lat="43.0449997" lon="13.273339"><ele>535.0</ele><time>2026-04-18T12:16:51.057Z</time></trkpt><trkpt lat="43.0450464" lon="13.273445"><ele>535.0</ele><time>2026-04-18T12:16:52.043Z</time></trkpt><trkpt lat="43.0450966" lon="13.2735874"><ele>535.0</ele><time>2026-04-18T12:16:53.059Z</time></trkpt><trkpt lat="43.0451603" lon="13.273736"><ele>534.0</ele><time>2026-04-18T12:16:54.094Z</time></trkpt><trkpt lat="43.0452285" lon="13.2738958"><ele>533.0</ele><time>2026-04-18T12:16:55.042Z</time></trkpt><trkpt lat="43.0453392" lon="13.274045"><ele>532.0</ele><time>2026-04-18T12:16:56.03Z</time></trkpt><trkpt lat="43.045493" lon="13.2741642"><ele>532.0</ele><time>2026-04-18T12:16:57.06Z</time></trkpt><trkpt lat="43.0456584" lon="13.2742934"><ele>532.0</ele><time>2026-04-18T12:16:58.065Z</time></trkpt><trkpt lat="43.045837" lon="13.2744358"><ele>532.0</ele><time>2026-04-18T12:16:59.073Z</time></trkpt><trkpt lat="43.0460167" lon="13.2746358"><ele>530.6666666666667</ele><time>2026-04-18T12:17:00.099Z</time></trkpt><trkpt lat="43.0461975" lon="13.2748491"><ele>529.3333333333334</ele><time>2026-04-18T12:17:01.032Z</time></trkpt><trkpt lat="43.0463414" lon="13.2750329"><ele>528.0</ele><time>2026-04-18T12:17:02.033Z</time></trkpt><trkpt lat="43.0464881" lon="13.275213"><ele>528.0</ele><time>2026-04-18T12:17:03.04Z</time></trkpt><trkpt lat="43.0466251" lon="13.275416"><ele>528.0</ele><time>2026-04-18T12:17:04.035Z</time></trkpt><trkpt lat="43.0467597" lon="13.2756393"><ele>528.0</ele><time>2026-04-18T12:17:05.063Z</time></trkpt><trkpt lat="43.0468839" lon="13.2758596"><ele>527.0</ele><time>2026-04-18T12:17:06.091Z</time></trkpt><trkpt lat="43.0469974" lon="13.2760605"><ele>526.0</ele><time>2026-04-18T12:17:07.064Z</time></trkpt><trkpt lat="43.0471176" lon="13.276238"><ele>525.0</ele><time>2026-04-18T12:17:08.065Z</time></trkpt><trkpt lat="43.04725" lon="13.2764087"><ele>523.6666666666666</ele><time>2026-04-18T12:17:09.06Z</time></trkpt><trkpt lat="43.047385" lon="13.2765743"><ele>522.3333333333333</ele><time>2026-04-18T12:17:10.07Z</time></trkpt><trkpt lat="43.0475088" lon="13.2767411"><ele>521.0</ele><time>2026-04-18T12:17:11.063Z</time></trkpt><trkpt lat="43.0476218" lon="13.2769175"><ele>524.0</ele><time>2026-04-18T12:17:12.019Z</time></trkpt><trkpt lat="43.0477212" lon="13.2770799"><ele>527.0</ele><time>2026-04-18T12:17:13.042Z</time></trkpt><trkpt lat="43.0478112" lon="13.2772248"><ele>530.0</ele><time>2026-04-18T12:17:14.05Z</time></trkpt><trkpt lat="43.0478908" lon="13.2773584"><ele>533.0</ele><time>2026-04-18T12:17:15.049Z</time></trkpt><trkpt lat="43.0479582" lon="13.2774773"><ele>533.1999999999999</ele><time>2026-04-18T12:17:16.029Z</time></trkpt><trkpt lat="43.048025" lon="13.2775855"><ele>533.4</ele><time>2026-04-18T12:17:17.099Z</time></trkpt><trkpt lat="43.0480932" lon="13.2776805"><ele>533.5999999999999</ele><time>2026-04-18T12:17:18.047Z</time></trkpt><trkpt lat="43.0481765" lon="13.2777515"><ele>533.8</ele><time>2026-04-18T12:17:19.053Z</time></trkpt><trkpt lat="43.0482654" lon="13.2777895"><ele>534.0</ele><time>2026-04-18T12:17:20.039Z</time></trkpt><trkpt lat="43.0483649" lon="13.2777929"><ele>534.3333333333334</ele><time>2026-04-18T12:17:21.059Z</time></trkpt><trkpt lat="43.0484436" lon="13.277782"><ele>534.6666666666666</ele><time>2026-04-18T12:17:22.031Z</time></trkpt><trkpt lat="43.0485425" lon="13.2777596"><ele>535.0</ele><time>2026-04-18T12:17:24.041Z</time></trkpt><trkpt lat="43.048626" lon="13.2777578"><ele>535.3333333333333</ele><time>2026-04-18T12:17:26.017Z</time></trkpt><trkpt lat="43.0486875" lon="13.2777285"><ele>535.6666666666666</ele><time>2026-04-18T12:17:27.048Z</time></trkpt><trkpt lat="43.0487882" lon="13.2776503"><ele>536.0</ele><time>2026-04-18T12:17:28.062Z</time></trkpt><trkpt lat="43.0489082" lon="13.2775166"><ele>536.0</ele><time>2026-04-18T12:17:29.038Z</time></trkpt><trkpt lat="43.0490372" lon="13.2773489"><ele>536.0</ele><time>2026-04-18T12:17:30.038Z</time></trkpt><trkpt lat="43.0491884" lon="13.27716"><ele>536.0</ele><time>2026-04-18T12:17:31.049Z</time></trkpt><trkpt lat="43.0493338" lon="13.2769566"><ele>535.3333333333333</ele><time>2026-04-18T12:17:32.041Z</time></trkpt><trkpt lat="43.0494795" lon="13.2767809"><ele>534.6666666666666</ele><time>2026-04-18T12:17:33.042Z</time></trkpt><trkpt lat="43.0496034" lon="13.276624"><ele>534.0</ele><time>2026-04-18T12:17:34.05Z</time></trkpt><trkpt lat="43.0497126" lon="13.2764894"><ele>534.0</ele><time>2026-04-18T12:17:35.116Z</time></trkpt><trkpt lat="43.0498064" lon="13.2763668"><ele>534.0</ele><time>2026-04-18T12:17:36.045Z</time></trkpt><trkpt lat="43.0498924" lon="13.2762545"><ele>534.0</ele><time>2026-04-18T12:17:37.052Z</time></trkpt><trkpt lat="43.0499665" lon="13.2761513"><ele>534.0</ele><time>2026-04-18T12:17:38.06Z</time></trkpt><trkpt lat="43.0500322" lon="13.2760691"><ele>534.0</ele><time>2026-04-18T12:17:39.05Z</time></trkpt><trkpt lat="43.050093" lon="13.275989"><ele>534.5</ele><time>2026-04-18T12:17:40.061Z</time></trkpt><trkpt lat="43.0501479" lon="13.275921"><ele>535.0</ele><time>2026-04-18T12:17:41.102Z</time></trkpt><trkpt lat="43.050192" lon="13.2758456"><ele>535.5</ele><time>2026-04-18T12:17:42.069Z</time></trkpt><trkpt lat="43.0502225" lon="13.2757676"><ele>536.0</ele><time>2026-04-18T12:17:43.057Z</time></trkpt><trkpt lat="43.050195" lon="13.2756343"><ele>536.5</ele><time>2026-04-18T12:17:45.036Z</time></trkpt><trkpt lat="43.0501531" lon="13.2755487"><ele>537.0</ele><time>2026-04-18T12:17:46.99Z</time></trkpt><trkpt lat="43.0501765" lon="13.2754233"><ele>537.1666666666666</ele><time>2026-04-18T12:17:49.035Z</time></trkpt><trkpt lat="43.0502377" lon="13.2753538"><ele>537.3333333333334</ele><time>2026-04-18T12:17:50.042Z</time></trkpt><trkpt lat="43.0503092" lon="13.275278"><ele>537.5</ele><time>2026-04-18T12:17:51.052Z</time></trkpt><trkpt lat="43.0503591" lon="13.275202"><ele>537.6666666666667</ele><time>2026-04-18T12:17:52.037Z</time></trkpt><trkpt lat="43.0503955" lon="13.2751229"><ele>537.8333333333334</ele><time>2026-04-18T12:17:53.066Z</time></trkpt><trkpt lat="43.0504459" lon="13.2749783"><ele>538.0</ele><time>2026-04-18T12:17:55.018Z</time></trkpt><trkpt lat="43.0504722" lon="13.2748578"><ele>538.0</ele><time>2026-04-18T12:17:57.03Z</time></trkpt><trkpt lat="43.0504162" lon="13.2749142"><ele>538.0</ele><time>2026-04-18T12:25:01.067Z</time></trkpt><trkpt lat="43.0503907" lon="13.2750977"><ele>538.0</ele><time>2026-04-18T12:25:03.032Z</time></trkpt><trkpt lat="43.050357" lon="13.2752596"><ele>538.0</ele><time>2026-04-18T12:25:04.033Z</time></trkpt><trkpt lat="43.0503046" lon="13.2753744"><ele>538.0</ele><time>2026-04-18T12:25:05.056Z</time></trkpt><trkpt lat="43.0502428" lon="13.2754656"><ele>538.0</ele><time>2026-04-18T12:25:06.072Z</time></trkpt><trkpt lat="43.0501906" lon="13.2755388"><ele>538.0</ele><time>2026-04-18T12:25:07.061Z</time></trkpt><trkpt lat="43.0501606" lon="13.2756845"><ele>538.0</ele><time>2026-04-18T12:25:09.03Z</time></trkpt><trkpt lat="43.0501628" lon="13.2758462"><ele>538.0</ele><time>2026-04-18T12:25:11.063Z</time></trkpt><trkpt lat="43.0501248" lon="13.2759441"><ele>538.0</ele><time>2026-04-18T12:25:12.058Z</time></trkpt><trkpt lat="43.0500632" lon="13.2760344"><ele>537.8</ele><time>2026-04-18T12:25:13.054Z</time></trkpt><trkpt lat="43.0500025" lon="13.2761114"><ele>537.5999999999999</ele><time>2026-04-18T12:25:14.021Z</time></trkpt><trkpt lat="43.0499346" lon="13.2761984"><ele>537.4000000000001</ele><time>2026-04-18T12:25:15.053Z</time></trkpt><trkpt lat="43.0498524" lon="13.2763057"><ele>537.2</ele><time>2026-04-18T12:25:16.044Z</time></trkpt><trkpt lat="43.0497481" lon="13.2764388"><ele>537.0</ele><time>2026-04-18T12:25:17.07Z</time></trkpt><trkpt lat="43.0496254" lon="13.2765982"><ele>536.0</ele><time>2026-04-18T12:25:18.048Z</time></trkpt><trkpt lat="43.0494841" lon="13.2767813"><ele>535.0</ele><time>2026-04-18T12:25:19.017Z</time></trkpt><trkpt lat="43.049321" lon="13.2769886"><ele>534.0</ele><time>2026-04-18T12:25:20.071Z</time></trkpt><trkpt lat="43.0491679" lon="13.2771807"><ele>534.6666666666666</ele><time>2026-04-18T12:25:21.049Z</time></trkpt><trkpt lat="43.0490289" lon="13.2773556"><ele>535.3333333333333</ele><time>2026-04-18T12:25:22.053Z</time></trkpt><trkpt lat="43.0489041" lon="13.2775162"><ele>536.0</ele><time>2026-04-18T12:25:23.065Z</time></trkpt><trkpt lat="43.0487952" lon="13.2776573"><ele>536.0</ele><time>2026-04-18T12:25:24.023Z</time></trkpt><trkpt lat="43.0486945" lon="13.2777989"><ele>536.0</ele><time>2026-04-18T12:25:25.043Z</time></trkpt><trkpt lat="43.0486068" lon="13.2779483"><ele>536.0</ele><time>2026-04-18T12:25:26.054Z</time></trkpt><trkpt lat="43.0485389" lon="13.2781177"><ele>536.0</ele><time>2026-04-18T12:25:27.048Z</time></trkpt><trkpt lat="43.0484885" lon="13.2783101"><ele>535.6666666666666</ele><time>2026-04-18T12:25:28.05Z</time></trkpt><trkpt lat="43.0484589" lon="13.2785147"><ele>535.3333333333334</ele><time>2026-04-18T12:25:29.024Z</time></trkpt><trkpt lat="43.0484288" lon="13.2787249"><ele>535.0</ele><time>2026-04-18T12:25:30.058Z</time></trkpt><trkpt lat="43.048416" lon="13.2789331"><ele>534.3333333333334</ele><time>2026-04-18T12:25:31.045Z</time></trkpt><trkpt lat="43.0484615" lon="13.2791651"><ele>533.6666666666666</ele><time>2026-04-18T12:25:32.063Z</time></trkpt><trkpt lat="43.0485491" lon="13.2793931"><ele>533.0</ele><time>2026-04-18T12:25:33.061Z</time></trkpt><trkpt lat="43.048642" lon="13.2796085"><ele>530.3333333333333</ele><time>2026-04-18T12:25:34.02Z</time></trkpt><trkpt lat="43.0487013" lon="13.2798263"><ele>527.6666666666666</ele><time>2026-04-18T12:25:35.051Z</time></trkpt><trkpt lat="43.048724" lon="13.2800147"><ele>525.0</ele><time>2026-04-18T12:25:36.096Z</time></trkpt><trkpt lat="43.0487346" lon="13.2802095"><ele>525.0</ele><time>2026-04-18T12:25:37.064Z</time></trkpt><trkpt lat="43.0487009" lon="13.2804021"><ele>525.0</ele><time>2026-04-18T12:25:38.058Z</time></trkpt><trkpt lat="43.0486518" lon="13.2805917"><ele>525.0</ele><time>2026-04-18T12:25:39.023Z</time></trkpt><trkpt lat="43.0485751" lon="13.280766"><ele>525.0</ele><time>2026-04-18T12:25:40.058Z</time></trkpt><trkpt lat="43.0484708" lon="13.2809373"><ele>524.3333333333334</ele><time>2026-04-18T12:25:41.065Z</time></trkpt><trkpt lat="43.0483471" lon="13.2811084"><ele>523.6666666666667</ele><time>2026-04-18T12:25:42.049Z</time></trkpt><trkpt lat="43.0482154" lon="13.2812726"><ele>523.0</ele><time>2026-04-18T12:25:43.07Z</time></trkpt><trkpt lat="43.0480891" lon="13.2814157"><ele>521.0</ele><time>2026-04-18T12:25:44.023Z</time></trkpt><trkpt lat="43.0479594" lon="13.2815393"><ele>519.0</ele><time>2026-04-18T12:25:45.048Z</time></trkpt><trkpt lat="43.0478134" lon="13.2816449"><ele>517.0</ele><time>2026-04-18T12:25:46.04Z</time></trkpt><trkpt lat="43.0476472" lon="13.2817299"><ele>516.0</ele><time>2026-04-18T12:25:47.097Z</time></trkpt><trkpt lat="43.0474521" lon="13.2817986"><ele>515.0</ele><time>2026-04-18T12:25:48.04Z</time></trkpt><trkpt lat="43.0472523" lon="13.2818718"><ele>514.0</ele><time>2026-04-18T12:25:49.017Z</time></trkpt><trkpt lat="43.0470569" lon="13.2819328"><ele>514.0</ele><time>2026-04-18T12:25:50.033Z</time></trkpt><trkpt lat="43.0468827" lon="13.2819997"><ele>514.0</ele><time>2026-04-18T12:25:51.038Z</time></trkpt><trkpt lat="43.0467145" lon="13.2820551"><ele>514.0</ele><time>2026-04-18T12:25:52.038Z</time></trkpt><trkpt lat="43.0465788" lon="13.2820882"><ele>511.0</ele><time>2026-04-18T12:25:53.027Z</time></trkpt><trkpt lat="43.0464444" lon="13.2821703"><ele>508.0</ele><time>2026-04-18T12:25:54.013Z</time></trkpt><trkpt lat="43.0463053" lon="13.2822856"><ele>505.0</ele><time>2026-04-18T12:25:55.052Z</time></trkpt><trkpt lat="43.0461668" lon="13.2824727"><ele>505.0</ele><time>2026-04-18T12:25:56.044Z</time></trkpt><trkpt lat="43.0460421" lon="13.2826742"><ele>505.0</ele><time>2026-04-18T12:25:57.057Z</time></trkpt><trkpt lat="43.0459059" lon="13.2828595"><ele>505.0</ele><time>2026-04-18T12:25:58.094Z</time></trkpt><trkpt lat="43.0457428" lon="13.2830053"><ele>504.0</ele><time>2026-04-18T12:25:59.024Z</time></trkpt><trkpt lat="43.045569" lon="13.2831537"><ele>503.0</ele><time>2026-04-18T12:26:00.064Z</time></trkpt><trkpt lat="43.0453564" lon="13.2832839"><ele>502.0</ele><time>2026-04-18T12:26:01.046Z</time></trkpt><trkpt lat="43.0451516" lon="13.2834077"><ele>509.0</ele><time>2026-04-18T12:26:02.026Z</time></trkpt><trkpt lat="43.0449457" lon="13.2835465"><ele>516.0</ele><time>2026-04-18T12:26:03.043Z</time></trkpt><trkpt lat="43.0447479" lon="13.2837194"><ele>516.0</ele><time>2026-04-18T12:26:04.026Z</time></trkpt><trkpt lat="43.0445615" lon="13.2839104"><ele>516.0</ele><time>2026-04-18T12:26:05.017Z</time></trkpt><trkpt lat="43.0443894" lon="13.284096"><ele>515.0</ele><time>2026-04-18T12:26:06.04Z</time></trkpt><trkpt lat="43.0442311" lon="13.2842581"><ele>514.0</ele><time>2026-04-18T12:26:07.043Z</time></trkpt><trkpt lat="43.0440807" lon="13.284408"><ele>513.0</ele><time>2026-04-18T12:26:08.058Z</time></trkpt><trkpt lat="43.0439402" lon="13.2845488"><ele>513.0</ele><time>2026-04-18T12:26:09.056Z</time></trkpt><trkpt lat="43.0438131" lon="13.2846831"><ele>513.0</ele><time>2026-04-18T12:26:10.06Z</time></trkpt><trkpt lat="43.0436996" lon="13.2848244"><ele>513.0</ele><time>2026-04-18T12:26:11.067Z</time></trkpt><trkpt lat="43.0435972" lon="13.284984"><ele>510.66666666666663</ele><time>2026-04-18T12:26:12.057Z</time></trkpt><trkpt lat="43.0435091" lon="13.2851697"><ele>508.3333333333333</ele><time>2026-04-18T12:26:13.048Z</time></trkpt><trkpt lat="43.0434353" lon="13.2853798"><ele>506.0</ele><time>2026-04-18T12:26:14.033Z</time></trkpt><trkpt lat="43.043361" lon="13.2856006"><ele>505.0</ele><time>2026-04-18T12:26:15.048Z</time></trkpt><trkpt lat="43.0432674" lon="13.2858216"><ele>504.0</ele><time>2026-04-18T12:26:16.061Z</time></trkpt><trkpt lat="43.0431481" lon="13.2860382"><ele>503.0</ele><time>2026-04-18T12:26:17.05Z</time></trkpt><trkpt lat="43.0430119" lon="13.286246"><ele>503.0</ele><time>2026-04-18T12:26:18.063Z</time></trkpt><trkpt lat="43.0428761" lon="13.2864262"><ele>503.0</ele><time>2026-04-18T12:26:19.026Z</time></trkpt><trkpt lat="43.0427322" lon="13.2865821"><ele>503.0</ele><time>2026-04-18T12:26:20.038Z</time></trkpt><trkpt lat="43.04257" lon="13.2867158"><ele>503.0</ele><time>2026-04-18T12:26:21.044Z</time></trkpt><trkpt lat="43.0424079" lon="13.2868369"><ele>503.0</ele><time>2026-04-18T12:26:22.062Z</time></trkpt><trkpt lat="43.0422196" lon="13.2869092"><ele>503.0</ele><time>2026-04-18T12:26:23.042Z</time></trkpt><trkpt lat="43.0420433" lon="13.2869815"><ele>503.0</ele><time>2026-04-18T12:26:24.032Z</time></trkpt><trkpt lat="43.0418698" lon="13.2870432"><ele>503.0</ele><time>2026-04-18T12:26:25.031Z</time></trkpt><trkpt lat="43.0417084" lon="13.2871134"><ele>503.0</ele><time>2026-04-18T12:26:26.109Z</time></trkpt><trkpt lat="43.0415608" lon="13.2871862"><ele>502.0</ele><time>2026-04-18T12:26:27.032Z</time></trkpt><trkpt lat="43.0414053" lon="13.2872683"><ele>501.0</ele><time>2026-04-18T12:26:28.052Z</time></trkpt><trkpt lat="43.0412802" lon="13.2874045"><ele>500.0</ele><time>2026-04-18T12:26:29.031Z</time></trkpt><trkpt lat="43.0411516" lon="13.2876032"><ele>500.0</ele><time>2026-04-18T12:26:30.052Z</time></trkpt><trkpt lat="43.0410315" lon="13.2878323"><ele>500.0</ele><time>2026-04-18T12:26:31.056Z</time></trkpt><trkpt lat="43.0409061" lon="13.288094"><ele>500.0</ele><time>2026-04-18T12:26:32.05Z</time></trkpt><trkpt lat="43.0407628" lon="13.2883783"><ele>500.5</ele><time>2026-04-18T12:26:33.049Z</time></trkpt><trkpt lat="43.0406117" lon="13.2886753"><ele>501.0</ele><time>2026-04-18T12:26:34.036Z</time></trkpt><trkpt lat="43.0404648" lon="13.2889554"><ele>502.0</ele><time>2026-04-18T12:26:35.057Z</time></trkpt><trkpt lat="43.0403283" lon="13.2892241"><ele>503.0</ele><time>2026-04-18T12:26:36.052Z</time></trkpt><trkpt lat="43.0402049" lon="13.2895096"><ele>502.0</ele><time>2026-04-18T12:26:37.152Z</time></trkpt><trkpt lat="43.0400939" lon="13.2898195"><ele>501.0</ele><time>2026-04-18T12:26:38.07Z</time></trkpt><trkpt lat="43.0399803" lon="13.2901386"><ele>512.5</ele><time>2026-04-18T12:26:39.044Z</time></trkpt><trkpt lat="43.0398656" lon="13.2904631"><ele>524.0</ele><time>2026-04-18T12:26:40.06Z</time></trkpt><trkpt lat="43.039748" lon="13.2908057"><ele>524.0</ele><time>2026-04-18T12:26:41.071Z</time></trkpt><trkpt lat="43.0396365" lon="13.2911595"><ele>524.0</ele><time>2026-04-18T12:26:42.064Z</time></trkpt><trkpt lat="43.0395462" lon="13.2914979"><ele>523.3333333333333</ele><time>2026-04-18T12:26:43.04Z</time></trkpt><trkpt lat="43.0394783" lon="13.2918062"><ele>522.6666666666666</ele><time>2026-04-18T12:26:44.04Z</time></trkpt><trkpt lat="43.0394209" lon="13.2920831"><ele>522.0</ele><time>2026-04-18T12:26:45.048Z</time></trkpt><trkpt lat="43.0393637" lon="13.2923356"><ele>519.0</ele><time>2026-04-18T12:26:46.061Z</time></trkpt><trkpt lat="43.0393012" lon="13.292568"><ele>516.0</ele><time>2026-04-18T12:26:47.049Z</time></trkpt><trkpt lat="43.0392322" lon="13.292779"><ele>513.0</ele><time>2026-04-18T12:26:48.053Z</time></trkpt><trkpt lat="43.0391565" lon="13.2929579"><ele>516.75</ele><time>2026-04-18T12:26:49.049Z</time></trkpt><trkpt lat="43.0390691" lon="13.2931131"><ele>520.5</ele><time>2026-04-18T12:26:50.048Z</time></trkpt><trkpt lat="43.0389813" lon="13.293253"><ele>524.25</ele><time>2026-04-18T12:26:51.057Z</time></trkpt><trkpt lat="43.038909" lon="13.2933949"><ele>528.0</ele><time>2026-04-18T12:26:52.053Z</time></trkpt><trkpt lat="43.0388574" lon="13.2935514"><ele>528.0</ele><time>2026-04-18T12:26:53.06Z</time></trkpt><trkpt lat="43.0388336" lon="13.2937257"><ele>528.0</ele><time>2026-04-18T12:26:54.079Z</time></trkpt><trkpt lat="43.0388309" lon="13.293922"><ele>528.0</ele><time>2026-04-18T12:26:55.045Z</time></trkpt><trkpt lat="43.0388417" lon="13.2941443"><ele>528.0</ele><time>2026-04-18T12:26:56.047Z</time></trkpt><trkpt lat="43.0388436" lon="13.2943905"><ele>529.3333333333334</ele><time>2026-04-18T12:26:57.045Z</time></trkpt><trkpt lat="43.0388336" lon="13.2946524"><ele>530.6666666666667</ele><time>2026-04-18T12:26:58.045Z</time></trkpt><trkpt lat="43.0388243" lon="13.2949192"><ele>532.0</ele><time>2026-04-18T12:26:59.057Z</time></trkpt><trkpt lat="43.0387929" lon="13.2951924"><ele>532.0</ele><time>2026-04-18T12:27:00.056Z</time></trkpt><trkpt lat="43.0387371" lon="13.2954599"><ele>532.0</ele><time>2026-04-18T12:27:01.04Z</time></trkpt><trkpt lat="43.0386636" lon="13.2957072"><ele>532.0</ele><time>2026-04-18T12:27:02.051Z</time></trkpt><trkpt lat="43.038568" lon="13.2959472"><ele>532.3333333333334</ele><time>2026-04-18T12:27:03.044Z</time></trkpt><trkpt lat="43.038447" lon="13.296171"><ele>532.6666666666666</ele><time>2026-04-18T12:27:04.041Z</time></trkpt><trkpt lat="43.0383098" lon="13.296379"><ele>533.0</ele><time>2026-04-18T12:27:05.045Z</time></trkpt><trkpt lat="43.0381666" lon="13.296579"><ele>533.0</ele><time>2026-04-18T12:27:06.051Z</time></trkpt><trkpt lat="43.0380341" lon="13.2967807"><ele>533.0</ele><time>2026-04-18T12:27:07.05Z</time></trkpt><trkpt lat="43.0379036" lon="13.2969803"><ele>533.0</ele><time>2026-04-18T12:27:08.055Z</time></trkpt><trkpt lat="43.03777" lon="13.2971684"><ele>531.3333333333333</ele><time>2026-04-18T12:27:09.039Z</time></trkpt><trkpt lat="43.0376519" lon="13.2973451"><ele>529.6666666666666</ele><time>2026-04-18T12:27:10.092Z</time></trkpt><trkpt lat="43.0375382" lon="13.2975038"><ele>528.0</ele><time>2026-04-18T12:27:11.042Z</time></trkpt><trkpt lat="43.0374348" lon="13.2976502"><ele>528.0</ele><time>2026-04-18T12:27:12.048Z</time></trkpt><trkpt lat="43.0373286" lon="13.2977867"><ele>528.0</ele><time>2026-04-18T12:27:13.048Z</time></trkpt><trkpt lat="43.0372151" lon="13.2978933"><ele>528.0</ele><time>2026-04-18T12:27:14.042Z</time></trkpt><trkpt lat="43.0370893" lon="13.2979594"><ele>528.0</ele><time>2026-04-18T12:27:15.06Z</time></trkpt><trkpt lat="43.036959" lon="13.2980177"><ele>528.0</ele><time>2026-04-18T12:27:16.031Z</time></trkpt><trkpt lat="43.0367982" lon="13.2980012"><ele>528.0</ele><time>2026-04-18T12:27:17.041Z</time></trkpt><trkpt lat="43.0366356" lon="13.2979631"><ele>528.0</ele><time>2026-04-18T12:27:18.049Z</time></trkpt><trkpt lat="43.0364885" lon="13.2979451"><ele>527.25</ele><time>2026-04-18T12:27:19.022Z</time></trkpt><trkpt lat="43.036354" lon="13.2979322"><ele>526.5</ele><time>2026-04-18T12:27:20.049Z</time></trkpt><trkpt lat="43.0362335" lon="13.2979511"><ele>525.75</ele><time>2026-04-18T12:27:21.048Z</time></trkpt><trkpt lat="43.0361023" lon="13.2979684"><ele>525.0</ele><time>2026-04-18T12:27:22.095Z</time></trkpt><trkpt lat="43.035984" lon="13.2980419"><ele>524.0</ele><time>2026-04-18T12:27:23.05Z</time></trkpt><trkpt lat="43.035884" lon="13.2981354"><ele>523.0</ele><time>2026-04-18T12:27:24.057Z</time></trkpt><trkpt lat="43.0357997" lon="13.2982532"><ele>522.0</ele><time>2026-04-18T12:27:25.018Z</time></trkpt><trkpt lat="43.0357235" lon="13.2983848"><ele>521.0</ele><time>2026-04-18T12:27:26.041Z</time></trkpt><trkpt lat="43.0356428" lon="13.2985121"><ele>519.25</ele><time>2026-04-18T12:27:27.064Z</time></trkpt><trkpt lat="43.0355947" lon="13.298672"><ele>517.5</ele><time>2026-04-18T12:27:28.104Z</time></trkpt><trkpt lat="43.0355671" lon="13.2988456"><ele>515.75</ele><time>2026-04-18T12:27:29.067Z</time></trkpt><trkpt lat="43.0355435" lon="13.2990188"><ele>514.0</ele><time>2026-04-18T12:27:30.023Z</time></trkpt><trkpt lat="43.0355311" lon="13.2991823"><ele>512.6</ele><time>2026-04-18T12:27:31.045Z</time></trkpt><trkpt lat="43.0355326" lon="13.2993348"><ele>511.2</ele><time>2026-04-18T12:27:32.043Z</time></trkpt><trkpt lat="43.0355267" lon="13.2994645"><ele>509.80000000000007</ele><time>2026-04-18T12:27:33.035Z</time></trkpt><trkpt lat="43.0355304" lon="13.2995594"><ele>508.40000000000003</ele><time>2026-04-18T12:27:34.052Z</time></trkpt><trkpt lat="43.0354507" lon="13.2996443"><ele>507.0</ele><time>2026-04-18T12:27:37.018Z</time></trkpt><trkpt lat="43.0353914" lon="13.2995788"><ele>507.0</ele><time>2026-04-18T12:27:38.044Z</time></trkpt><trkpt lat="43.0353427" lon="13.2995127"><ele>507.00000000000006</ele><time>2026-04-18T12:27:39.045Z</time></trkpt><trkpt lat="43.0352842" lon="13.2994549"><ele>507.00000000000006</ele><time>2026-04-18T12:27:40.006Z</time></trkpt><trkpt lat="43.0352149" lon="13.2993753"><ele>507.0</ele><time>2026-04-18T12:27:41.035Z</time></trkpt><trkpt lat="43.0351314" lon="13.2992871"><ele>507.0</ele><time>2026-04-18T12:27:42.056Z</time></trkpt><trkpt lat="43.0350368" lon="13.2991988"><ele>506.25</ele><time>2026-04-18T12:27:43.065Z</time></trkpt><trkpt lat="43.034929" lon="13.2991134"><ele>505.5</ele><time>2026-04-18T12:27:44.065Z</time></trkpt><trkpt lat="43.0348143" lon="13.2990131"><ele>504.75</ele><time>2026-04-18T12:27:45.026Z</time></trkpt><trkpt lat="43.0347009" lon="13.2989257"><ele>504.0</ele><time>2026-04-18T12:27:46.036Z</time></trkpt><trkpt lat="43.0345827" lon="13.2988633"><ele>504.0</ele><time>2026-04-18T12:27:47.059Z</time></trkpt><trkpt lat="43.0344821" lon="13.2988102"><ele>504.0</ele><time>2026-04-18T12:27:48.048Z</time></trkpt><trkpt lat="43.0343826" lon="13.2987513"><ele>504.0</ele><time>2026-04-18T12:27:49.066Z</time></trkpt><trkpt lat="43.0342804" lon="13.2986906"><ele>504.0</ele><time>2026-04-18T12:27:50.025Z</time></trkpt><trkpt lat="43.0341714" lon="13.2986245"><ele>504.0</ele><time>2026-04-18T12:27:51.107Z</time></trkpt><trkpt lat="43.0340654" lon="13.2985331"><ele>504.5</ele><time>2026-04-18T12:27:52.063Z</time></trkpt><trkpt lat="43.0339532" lon="13.2984157"><ele>505.0</ele><time>2026-04-18T12:27:53.051Z</time></trkpt><trkpt lat="43.0338346" lon="13.2982849"><ele>505.5</ele><time>2026-04-18T12:27:54.052Z</time></trkpt><trkpt lat="43.0337051" lon="13.2981686"><ele>506.0</ele><time>2026-04-18T12:27:55.032Z</time></trkpt><trkpt lat="43.0335587" lon="13.298061"><ele>506.0</ele><time>2026-04-18T12:27:56.043Z</time></trkpt><trkpt lat="43.0334096" lon="13.2979598"><ele>506.0</ele><time>2026-04-18T12:27:57.036Z</time></trkpt><trkpt lat="43.0332649" lon="13.2978636"><ele>506.0</ele><time>2026-04-18T12:27:58.056Z</time></trkpt><trkpt lat="43.0331451" lon="13.2977634"><ele>505.0</ele><time>2026-04-18T12:27:59.088Z</time></trkpt><trkpt lat="43.0330257" lon="13.2976838"><ele>504.0</ele><time>2026-04-18T12:28:00.024Z</time></trkpt><trkpt lat="43.0329308" lon="13.2976064"><ele>503.0</ele><time>2026-04-18T12:28:01.035Z</time></trkpt><trkpt lat="43.0328395" lon="13.2975268"><ele>502.0</ele><time>2026-04-18T12:28:02.017Z</time></trkpt><trkpt lat="43.0327541" lon="13.2974567"><ele>502.0</ele><time>2026-04-18T12:28:03.056Z</time></trkpt><trkpt lat="43.0326663" lon="13.2973934"><ele>502.00000000000006</ele><time>2026-04-18T12:28:04.057Z</time></trkpt><trkpt lat="43.0325751" lon="13.2973402"><ele>502.00000000000006</ele><time>2026-04-18T12:28:05.024Z</time></trkpt><trkpt lat="43.0324833" lon="13.2972929"><ele>502.0</ele><time>2026-04-18T12:28:06.074Z</time></trkpt><trkpt lat="43.0323896" lon="13.2972535"><ele>502.0</ele><time>2026-04-18T12:28:07.097Z</time></trkpt><trkpt lat="43.0322973" lon="13.2972205"><ele>502.8</ele><time>2026-04-18T12:28:08.098Z</time></trkpt><trkpt lat="43.0322059" lon="13.2971884"><ele>503.6</ele><time>2026-04-18T12:28:09.008Z</time></trkpt><trkpt lat="43.0321116" lon="13.2971565"><ele>504.40000000000003</ele><time>2026-04-18T12:28:10.018Z</time></trkpt><trkpt lat="43.0320107" lon="13.2971257"><ele>505.20000000000005</ele><time>2026-04-18T12:28:11.051Z</time></trkpt><trkpt lat="43.0319059" lon="13.2970964"><ele>506.0</ele><time>2026-04-18T12:28:12.062Z</time></trkpt><trkpt lat="43.0317992" lon="13.2970712"><ele>506.0</ele><time>2026-04-18T12:28:13.033Z</time></trkpt><trkpt lat="43.0316961" lon="13.2970462"><ele>506.0</ele><time>2026-04-18T12:28:14.048Z</time></trkpt><trkpt lat="43.0315986" lon="13.2970155"><ele>506.0</ele><time>2026-04-18T12:28:15.03Z</time></trkpt><trkpt lat="43.0315113" lon="13.2969829"><ele>506.0</ele><time>2026-04-18T12:28:16.049Z</time></trkpt><trkpt lat="43.0314225" lon="13.2969545"><ele>506.0</ele><time>2026-04-18T12:28:17.048Z</time></trkpt><trkpt lat="43.0313443" lon="13.2969185"><ele>504.20000000000005</ele><time>2026-04-18T12:28:18.033Z</time></trkpt><trkpt lat="43.0312725" lon="13.2968633"><ele>502.40000000000003</ele><time>2026-04-18T12:28:19.039Z</time></trkpt><trkpt lat="43.0312014" lon="13.2967804"><ele>500.6</ele><time>2026-04-18T12:28:20.02Z</time></trkpt><trkpt lat="43.0311362" lon="13.2966664"><ele>498.8</ele><time>2026-04-18T12:28:21.038Z</time></trkpt><trkpt lat="43.0310734" lon="13.2965477"><ele>497.0</ele><time>2026-04-18T12:28:22.036Z</time></trkpt><trkpt lat="43.0310164" lon="13.2964445"><ele>496.20000000000005</ele><time>2026-04-18T12:28:23.031Z</time></trkpt><trkpt lat="43.0309468" lon="13.2963788"><ele>495.40000000000003</ele><time>2026-04-18T12:28:24.065Z</time></trkpt><trkpt lat="43.0308388" lon="13.29636"><ele>494.59999999999997</ele><time>2026-04-18T12:28:25.03Z</time></trkpt><trkpt lat="43.0307251" lon="13.2963921"><ele>493.79999999999995</ele><time>2026-04-18T12:28:26.041Z</time></trkpt><trkpt lat="43.0306183" lon="13.2964311"><ele>493.0</ele><time>2026-04-18T12:28:27.048Z</time></trkpt><trkpt lat="43.0305281" lon="13.2964809"><ele>493.00000000000006</ele><time>2026-04-18T12:28:28.033Z</time></trkpt><trkpt lat="43.0304413" lon="13.2965223"><ele>493.0</ele><time>2026-04-18T12:28:29.023Z</time></trkpt><trkpt lat="43.0303592" lon="13.2965631"><ele>493.0</ele><time>2026-04-18T12:28:30.025Z</time></trkpt><trkpt lat="43.030286" lon="13.2966017"><ele>493.0</ele><time>2026-04-18T12:28:31.055Z</time></trkpt><trkpt lat="43.0301712" lon="13.2966303"><ele>493.00000000000006</ele><time>2026-04-18T12:28:33.064Z</time></trkpt><trkpt lat="43.0301015" lon="13.2966277"><ele>493.0</ele><time>2026-04-18T12:28:35.035Z</time></trkpt><trkpt lat="43.0300703" lon="13.296523"><ele>493.0</ele><time>2026-04-18T12:28:38.042Z</time></trkpt><trkpt lat="43.0300891" lon="13.2964093"><ele>503.0</ele><time>2026-04-18T12:28:41.027Z</time></trkpt></trkseg></trk></gpx>